<?xml version='1.0' encoding='UTF-8'?><gpx version="1.1" creator="JPX - https://github.com/jenetics/jpx" xmlns="http://www.topografix.com/GPX/1/1"><trk><trkseg><trkpt lat="43.2073245" lon="13.2834746"><ele>198.0</ele><time>2026-04-12T07:01:45.238Z</time></trkpt><trkpt lat="43.2073091" lon="13.2836288"><ele>198.0</ele><time>2026-04-12T07:03:22.225Z</time></trkpt><trkpt lat="43.2072358" lon="13.2837989"><ele>198.0</ele><time>2026-04-12T07:03:25.224Z</time></trkpt><trkpt lat="43.2071509" lon="13.2839988"><ele>198.0</ele><time>2026-04-12T07:03:27.225Z</time></trkpt><trkpt lat="43.2070922" lon="13.2841202"><ele>198.8</ele><time>2026-04-12T07:03:28.225Z</time></trkpt><trkpt lat="43.2070342" lon="13.2842232"><ele>199.60000000000002</ele><time>2026-04-12T07:03:29.225Z</time></trkpt><trkpt lat="43.2069753" lon="13.2843272"><ele>200.39999999999998</ele><time>2026-04-12T07:03:30.224Z</time></trkpt><trkpt lat="43.2069166" lon="13.2844446"><ele>201.2</ele><time>2026-04-12T07:03:31.225Z</time></trkpt><trkpt lat="43.2068715" lon="13.2845613"><ele>202.0</ele><time>2026-04-12T07:03:32.225Z</time></trkpt><trkpt lat="43.2068365" lon="13.2846811"><ele>203.0</ele><time>2026-04-12T07:03:33.225Z</time></trkpt><trkpt lat="43.2067992" lon="13.2847985"><ele>204.0</ele><time>2026-04-12T07:03:34.224Z</time></trkpt><trkpt lat="43.2067705" lon="13.2849295"><ele>205.0</ele><time>2026-04-12T07:03:35.225Z</time></trkpt><trkpt lat="43.2067392" lon="13.2850639"><ele>206.0</ele><time>2026-04-12T07:03:36.225Z</time></trkpt><trkpt lat="43.2067253" lon="13.2852071"><ele>207.0</ele><time>2026-04-12T07:03:37.225Z</time></trkpt><trkpt lat="43.2067235" lon="13.2853471"><ele>207.0</ele><time>2026-04-12T07:03:38.225Z</time></trkpt><trkpt lat="43.2067258" lon="13.2854707"><ele>207.0</ele><time>2026-04-12T07:03:39.224Z</time></trkpt><trkpt lat="43.2067244" lon="13.2855872"><ele>207.0</ele><time>2026-04-12T07:03:40.225Z</time></trkpt><trkpt lat="43.2067198" lon="13.2856962"><ele>207.0</ele><time>2026-04-12T07:03:41.225Z</time></trkpt><trkpt lat="43.2067152" lon="13.2857873"><ele>207.0</ele><time>2026-04-12T07:03:42.225Z</time></trkpt><trkpt lat="43.2066749" lon="13.285942"><ele>207.0</ele><time>2026-04-12T07:03:44.225Z</time></trkpt><trkpt lat="43.2066397" lon="13.2860163"><ele>206.83333333333334</ele><time>2026-04-12T07:03:45.225Z</time></trkpt><trkpt lat="43.2066102" lon="13.2861029"><ele>206.66666666666669</ele><time>2026-04-12T07:03:46.225Z</time></trkpt><trkpt lat="43.2066034" lon="13.2862079"><ele>206.5</ele><time>2026-04-12T07:03:47.225Z</time></trkpt><trkpt lat="43.2066172" lon="13.2863217"><ele>206.33333333333334</ele><time>2026-04-12T07:03:48.224Z</time></trkpt><trkpt lat="43.206646" lon="13.2864509"><ele>206.16666666666669</ele><time>2026-04-12T07:03:49.224Z</time></trkpt><trkpt lat="43.2066903" lon="13.2865719"><ele>206.0</ele><time>2026-04-12T07:03:50.225Z</time></trkpt><trkpt lat="43.206767" lon="13.2866919"><ele>205.25</ele><time>2026-04-12T07:03:51.225Z</time></trkpt><trkpt lat="43.2068583" lon="13.2868068"><ele>204.5</ele><time>2026-04-12T07:03:52.224Z</time></trkpt><trkpt lat="43.2069626" lon="13.286913"><ele>203.75</ele><time>2026-04-12T07:03:53.225Z</time></trkpt><trkpt lat="43.2070715" lon="13.2870178"><ele>203.0</ele><time>2026-04-12T07:03:54.224Z</time></trkpt><trkpt lat="43.2071776" lon="13.2871317"><ele>203.0</ele><time>2026-04-12T07:03:55.224Z</time></trkpt><trkpt lat="43.2072901" lon="13.2872453"><ele>203.0</ele><time>2026-04-12T07:03:56.224Z</time></trkpt><trkpt lat="43.2074081" lon="13.2873671"><ele>203.0</ele><time>2026-04-12T07:03:57.224Z</time></trkpt><trkpt lat="43.2075301" lon="13.2874997"><ele>203.0</ele><time>2026-04-12T07:03:58.225Z</time></trkpt><trkpt lat="43.2076467" lon="13.2876326"><ele>203.25</ele><time>2026-04-12T07:03:59.225Z</time></trkpt><trkpt lat="43.2077605" lon="13.2877569"><ele>203.5</ele><time>2026-04-12T07:04:00.224Z</time></trkpt><trkpt lat="43.2078765" lon="13.2878716"><ele>203.75</ele><time>2026-04-12T07:04:01.225Z</time></trkpt><trkpt lat="43.2079869" lon="13.2879788"><ele>204.0</ele><time>2026-04-12T07:04:02.225Z</time></trkpt><trkpt lat="43.2081004" lon="13.2880808"><ele>203.5</ele><time>2026-04-12T07:04:03.225Z</time></trkpt><trkpt lat="43.208194" lon="13.2881878"><ele>203.0</ele><time>2026-04-12T07:04:04.225Z</time></trkpt><trkpt lat="43.2082809" lon="13.2882843"><ele>202.5</ele><time>2026-04-12T07:04:05.225Z</time></trkpt><trkpt lat="43.2083684" lon="13.2883813"><ele>202.0</ele><time>2026-04-12T07:04:06.225Z</time></trkpt><trkpt lat="43.2084559" lon="13.2884848"><ele>202.0</ele><time>2026-04-12T07:04:07.225Z</time></trkpt><trkpt lat="43.2085526" lon="13.2885864"><ele>202.0</ele><time>2026-04-12T07:04:08.225Z</time></trkpt><trkpt lat="43.208646" lon="13.2886865"><ele>202.0</ele><time>2026-04-12T07:04:09.225Z</time></trkpt><trkpt lat="43.2087438" lon="13.2887962"><ele>202.0</ele><time>2026-04-12T07:04:10.224Z</time></trkpt><trkpt lat="43.2088349" lon="13.288917"><ele>201.8</ele><time>2026-04-12T07:04:11.225Z</time></trkpt><trkpt lat="43.2089232" lon="13.2890319"><ele>201.6</ele><time>2026-04-12T07:04:12.225Z</time></trkpt><trkpt lat="43.2090069" lon="13.2891333"><ele>201.4</ele><time>2026-04-12T07:04:13.224Z</time></trkpt><trkpt lat="43.2090855" lon="13.2892329"><ele>201.20000000000002</ele><time>2026-04-12T07:04:14.225Z</time></trkpt><trkpt lat="43.2091585" lon="13.2893174"><ele>201.0</ele><time>2026-04-12T07:04:15.225Z</time></trkpt><trkpt lat="43.2092371" lon="13.2893623"><ele>201.66666666666666</ele><time>2026-04-12T07:04:16.224Z</time></trkpt><trkpt lat="43.2093209" lon="13.28936"><ele>202.33333333333331</ele><time>2026-04-12T07:04:17.224Z</time></trkpt><trkpt lat="43.2094027" lon="13.2893376"><ele>203.0</ele><time>2026-04-12T07:04:18.225Z</time></trkpt><trkpt lat="43.2094788" lon="13.2893244"><ele>203.66666666666666</ele><time>2026-04-12T07:04:19.225Z</time></trkpt><trkpt lat="43.2095536" lon="13.2893311"><ele>204.33333333333331</ele><time>2026-04-12T07:04:20.224Z</time></trkpt><trkpt lat="43.209615" lon="13.2893773"><ele>205.0</ele><time>2026-04-12T07:04:21.225Z</time></trkpt><trkpt lat="43.2096551" lon="13.2894661"><ele>204.99999999999997</ele><time>2026-04-12T07:04:22.225Z</time></trkpt><trkpt lat="43.2096913" lon="13.2895766"><ele>205.0</ele><time>2026-04-12T07:04:23.225Z</time></trkpt><trkpt lat="43.2097284" lon="13.2896861"><ele>205.0</ele><time>2026-04-12T07:04:24.224Z</time></trkpt><trkpt lat="43.2097668" lon="13.2897973"><ele>205.0</ele><time>2026-04-12T07:04:25.225Z</time></trkpt><trkpt lat="43.2098063" lon="13.2899052"><ele>204.99999999999997</ele><time>2026-04-12T07:04:26.225Z</time></trkpt><trkpt lat="43.2098425" lon="13.2899996"><ele>205.0</ele><time>2026-04-12T07:04:27.225Z</time></trkpt><trkpt lat="43.2098709" lon="13.2900935"><ele>205.2</ele><time>2026-04-12T07:04:28.225Z</time></trkpt><trkpt lat="43.2098989" lon="13.2901987"><ele>205.4</ele><time>2026-04-12T07:04:29.224Z</time></trkpt><trkpt lat="43.2099264" lon="13.2903269"><ele>205.60000000000002</ele><time>2026-04-12T07:04:30.224Z</time></trkpt><trkpt lat="43.2099572" lon="13.2904647"><ele>205.8</ele><time>2026-04-12T07:04:31.224Z</time></trkpt><trkpt lat="43.2099837" lon="13.2906208"><ele>206.0</ele><time>2026-04-12T07:04:32.225Z</time></trkpt><trkpt lat="43.2100308" lon="13.2908196"><ele>205.25</ele><time>2026-04-12T07:04:33.225Z</time></trkpt><trkpt lat="43.2100499" lon="13.2909974"><ele>204.5</ele><time>2026-04-12T07:04:34.225Z</time></trkpt><trkpt lat="43.2100771" lon="13.2911731"><ele>203.75</ele><time>2026-04-12T07:04:35.225Z</time></trkpt><trkpt lat="43.2101105" lon="13.2913793"><ele>203.0</ele><time>2026-04-12T07:04:36.225Z</time></trkpt><trkpt lat="43.2101514" lon="13.2915839"><ele>203.0</ele><time>2026-04-12T07:04:37.224Z</time></trkpt><trkpt lat="43.2102007" lon="13.291783"><ele>203.0</ele><time>2026-04-12T07:04:38.225Z</time></trkpt><trkpt lat="43.2102487" lon="13.291973"><ele>203.0</ele><time>2026-04-12T07:04:39.225Z</time></trkpt><trkpt lat="43.2102853" lon="13.2921672"><ele>203.0</ele><time>2026-04-12T07:04:40.225Z</time></trkpt><trkpt lat="43.210295" lon="13.2923588"><ele>202.75</ele><time>2026-04-12T07:04:41.225Z</time></trkpt><trkpt lat="43.2102927" lon="13.2925332"><ele>202.5</ele><time>2026-04-12T07:04:42.225Z</time></trkpt><trkpt lat="43.2102796" lon="13.2926813"><ele>202.25</ele><time>2026-04-12T07:04:43.224Z</time></trkpt><trkpt lat="43.2102558" lon="13.2928285"><ele>202.0</ele><time>2026-04-12T07:04:44.225Z</time></trkpt><trkpt lat="43.2102413" lon="13.2929723"><ele>202.39999999999998</ele><time>2026-04-12T07:04:45.225Z</time></trkpt><trkpt lat="43.2102422" lon="13.2931"><ele>202.79999999999998</ele><time>2026-04-12T07:04:46.225Z</time></trkpt><trkpt lat="43.2102512" lon="13.2932119"><ele>203.2</ele><time>2026-04-12T07:04:47.224Z</time></trkpt><trkpt lat="43.2102647" lon="13.2933029"><ele>203.6</ele><time>2026-04-12T07:04:48.225Z</time></trkpt><trkpt lat="43.2102808" lon="13.2934838"><ele>204.0</ele><time>2026-04-12T07:04:50.225Z</time></trkpt><trkpt lat="43.2102797" lon="13.2935886"><ele>204.0</ele><time>2026-04-12T07:04:51.224Z</time></trkpt><trkpt lat="43.2102611" lon="13.2937244"><ele>204.0</ele><time>2026-04-12T07:04:52.224Z</time></trkpt><trkpt lat="43.2102382" lon="13.2938747"><ele>204.0</ele><time>2026-04-12T07:04:53.225Z</time></trkpt><trkpt lat="43.2102287" lon="13.2940335"><ele>204.0</ele><time>2026-04-12T07:04:54.225Z</time></trkpt><trkpt lat="43.2102259" lon="13.2942128"><ele>204.0</ele><time>2026-04-12T07:04:55.225Z</time></trkpt><trkpt lat="43.2102445" lon="13.2944086"><ele>204.0</ele><time>2026-04-12T07:04:56.225Z</time></trkpt><trkpt lat="43.2102622" lon="13.2946064"><ele>204.0</ele><time>2026-04-12T07:04:57.225Z</time></trkpt><trkpt lat="43.2102937" lon="13.2948058"><ele>204.0</ele><time>2026-04-12T07:04:58.225Z</time></trkpt><trkpt lat="43.2103315" lon="13.2950088"><ele>203.0</ele><time>2026-04-12T07:04:59.225Z</time></trkpt><trkpt lat="43.2103849" lon="13.2952093"><ele>202.0</ele><time>2026-04-12T07:05:00.225Z</time></trkpt><trkpt lat="43.2104474" lon="13.2954136"><ele>201.0</ele><time>2026-04-12T07:05:01.225Z</time></trkpt><trkpt lat="43.2105294" lon="13.2956169"><ele>202.33333333333331</ele><time>2026-04-12T07:05:02.224Z</time></trkpt><trkpt lat="43.2106157" lon="13.2958141"><ele>203.66666666666666</ele><time>2026-04-12T07:05:03.225Z</time></trkpt><trkpt lat="43.2107084" lon="13.2960009"><ele>205.0</ele><time>2026-04-12T07:05:04.225Z</time></trkpt><trkpt lat="43.2107983" lon="13.2961902"><ele>205.0</ele><time>2026-04-12T07:05:05.224Z</time></trkpt><trkpt lat="43.2108927" lon="13.2963748"><ele>205.0</ele><time>2026-04-12T07:05:06.224Z</time></trkpt><trkpt lat="43.210985" lon="13.2965713"><ele>205.0</ele><time>2026-04-12T07:05:07.225Z</time></trkpt><trkpt lat="43.211074" lon="13.2967668"><ele>202.66666666666666</ele><time>2026-04-12T07:05:08.225Z</time></trkpt><trkpt lat="43.2111709" lon="13.2969619"><ele>200.33333333333331</ele><time>2026-04-12T07:05:09.225Z</time></trkpt><trkpt lat="43.2112668" lon="13.2971624"><ele>198.0</ele><time>2026-04-12T07:05:10.224Z</time></trkpt><trkpt lat="43.2113581" lon="13.297365"><ele>199.0</ele><time>2026-04-12T07:05:11.224Z</time></trkpt><trkpt lat="43.2114495" lon="13.2975609"><ele>200.0</ele><time>2026-04-12T07:05:12.225Z</time></trkpt><trkpt lat="43.2115482" lon="13.2977534"><ele>201.0</ele><time>2026-04-12T07:05:13.225Z</time></trkpt><trkpt lat="43.2116549" lon="13.2979433"><ele>199.66666666666669</ele><time>2026-04-12T07:05:14.224Z</time></trkpt><trkpt lat="43.2117595" lon="13.2981243"><ele>198.33333333333334</ele><time>2026-04-12T07:05:15.225Z</time></trkpt><trkpt lat="43.2118571" lon="13.2983132"><ele>197.0</ele><time>2026-04-12T07:05:16.225Z</time></trkpt><trkpt lat="43.2119624" lon="13.2985104"><ele>197.0</ele><time>2026-04-12T07:05:17.225Z</time></trkpt><trkpt lat="43.2120651" lon="13.2987012"><ele>197.0</ele><time>2026-04-12T07:05:18.224Z</time></trkpt><trkpt lat="43.2121709" lon="13.2988889"><ele>197.0</ele><time>2026-04-12T07:05:19.225Z</time></trkpt><trkpt lat="43.2122721" lon="13.2990684"><ele>198.0</ele><time>2026-04-12T07:05:20.225Z</time></trkpt><trkpt lat="43.2123753" lon="13.2992584"><ele>199.0</ele><time>2026-04-12T07:05:21.225Z</time></trkpt><trkpt lat="43.2124737" lon="13.2994483"><ele>200.0</ele><time>2026-04-12T07:05:22.225Z</time></trkpt><trkpt lat="43.2125749" lon="13.2996413"><ele>198.33333333333334</ele><time>2026-04-12T07:05:23.225Z</time></trkpt><trkpt lat="43.212672" lon="13.2998293"><ele>196.66666666666669</ele><time>2026-04-12T07:05:24.224Z</time></trkpt><trkpt lat="43.2127659" lon="13.3000232"><ele>195.0</ele><time>2026-04-12T07:05:25.225Z</time></trkpt><trkpt lat="43.2128395" lon="13.3002223"><ele>195.0</ele><time>2026-04-12T07:05:26.224Z</time></trkpt><trkpt lat="43.2129033" lon="13.3004407"><ele>195.0</ele><time>2026-04-12T07:05:27.225Z</time></trkpt><trkpt lat="43.2129518" lon="13.3006602"><ele>195.0</ele><time>2026-04-12T07:05:28.224Z</time></trkpt><trkpt lat="43.2129754" lon="13.3008823"><ele>194.0</ele><time>2026-04-12T07:05:29.224Z</time></trkpt><trkpt lat="43.2129901" lon="13.3010879"><ele>193.0</ele><time>2026-04-12T07:05:30.224Z</time></trkpt><trkpt lat="43.2129959" lon="13.301291"><ele>192.0</ele><time>2026-04-12T07:05:31.225Z</time></trkpt><trkpt lat="43.2129959" lon="13.3014898"><ele>191.0</ele><time>2026-04-12T07:05:32.225Z</time></trkpt><trkpt lat="43.2129878" lon="13.3016786"><ele>190.5</ele><time>2026-04-12T07:05:33.225Z</time></trkpt><trkpt lat="43.2129801" lon="13.3018649"><ele>190.0</ele><time>2026-04-12T07:05:34.225Z</time></trkpt><trkpt lat="43.2129751" lon="13.3020534"><ele>189.5</ele><time>2026-04-12T07:05:35.225Z</time></trkpt><trkpt lat="43.2129782" lon="13.3022451"><ele>189.0</ele><time>2026-04-12T07:05:36.225Z</time></trkpt><trkpt lat="43.2129924" lon="13.3024403"><ele>189.0</ele><time>2026-04-12T07:05:37.225Z</time></trkpt><trkpt lat="43.2130093" lon="13.3026473"><ele>189.0</ele><time>2026-04-12T07:05:38.224Z</time></trkpt><trkpt lat="43.2130399" lon="13.3028631"><ele>189.0</ele><time>2026-04-12T07:05:39.224Z</time></trkpt><trkpt lat="43.2130711" lon="13.3030811"><ele>189.0</ele><time>2026-04-12T07:05:40.225Z</time></trkpt><trkpt lat="43.2131189" lon="13.3033082"><ele>189.0</ele><time>2026-04-12T07:05:41.225Z</time></trkpt><trkpt lat="43.2131603" lon="13.3035384"><ele>189.0</ele><time>2026-04-12T07:05:42.225Z</time></trkpt><trkpt lat="43.2132016" lon="13.3037689"><ele>191.0</ele><time>2026-04-12T07:05:43.224Z</time></trkpt><trkpt lat="43.213247" lon="13.3040017"><ele>193.0</ele><time>2026-04-12T07:05:44.225Z</time></trkpt><trkpt lat="43.2132925" lon="13.3042265"><ele>195.0</ele><time>2026-04-12T07:05:45.224Z</time></trkpt><trkpt lat="43.2133326" lon="13.3044404"><ele>195.0</ele><time>2026-04-12T07:05:46.225Z</time></trkpt><trkpt lat="43.2133755" lon="13.3046411"><ele>195.0</ele><time>2026-04-12T07:05:47.225Z</time></trkpt><trkpt lat="43.2134145" lon="13.3048369"><ele>195.0</ele><time>2026-04-12T07:05:48.225Z</time></trkpt><trkpt lat="43.2134616" lon="13.3050208"><ele>195.0</ele><time>2026-04-12T07:05:49.225Z</time></trkpt><trkpt lat="43.2135295" lon="13.305189"><ele>194.5</ele><time>2026-04-12T07:05:50.225Z</time></trkpt><trkpt lat="43.2136056" lon="13.3053372"><ele>194.0</ele><time>2026-04-12T07:05:51.225Z</time></trkpt><trkpt lat="43.2136862" lon="13.3054757"><ele>193.5</ele><time>2026-04-12T07:05:52.225Z</time></trkpt><trkpt lat="43.213769" lon="13.3056103"><ele>193.0</ele><time>2026-04-12T07:05:53.225Z</time></trkpt><trkpt lat="43.2138373" lon="13.3057486"><ele>193.5</ele><time>2026-04-12T07:05:54.224Z</time></trkpt><trkpt lat="43.2138958" lon="13.3058829"><ele>194.0</ele><time>2026-04-12T07:05:55.224Z</time></trkpt><trkpt lat="43.2139647" lon="13.3060084"><ele>194.5</ele><time>2026-04-12T07:05:56.224Z</time></trkpt><trkpt lat="43.2140567" lon="13.3061248"><ele>195.0</ele><time>2026-04-12T07:05:57.225Z</time></trkpt><trkpt lat="43.2141614" lon="13.3062382"><ele>195.0</ele><time>2026-04-12T07:05:58.225Z</time></trkpt><trkpt lat="43.2142631" lon="13.3063662"><ele>195.0</ele><time>2026-04-12T07:05:59.225Z</time></trkpt><trkpt lat="43.2143666" lon="13.3065088"><ele>195.0</ele><time>2026-04-12T07:06:00.224Z</time></trkpt><trkpt lat="43.2144639" lon="13.3066679"><ele>195.0</ele><time>2026-04-12T07:06:01.224Z</time></trkpt><trkpt lat="43.2145563" lon="13.3068335"><ele>195.0</ele><time>2026-04-12T07:06:02.225Z</time></trkpt><trkpt lat="43.2146602" lon="13.3069979"><ele>195.0</ele><time>2026-04-12T07:06:03.225Z</time></trkpt><trkpt lat="43.2147632" lon="13.3071708"><ele>195.0</ele><time>2026-04-12T07:06:04.225Z</time></trkpt><trkpt lat="43.2148605" lon="13.3073531"><ele>195.0</ele><time>2026-04-12T07:06:05.225Z</time></trkpt><trkpt lat="43.2149555" lon="13.3075373"><ele>195.0</ele><time>2026-04-12T07:06:06.225Z</time></trkpt><trkpt lat="43.2150537" lon="13.3077214"><ele>195.0</ele><time>2026-04-12T07:06:07.224Z</time></trkpt><trkpt lat="43.2151451" lon="13.3079028"><ele>194.0</ele><time>2026-04-12T07:06:08.224Z</time></trkpt><trkpt lat="43.2152341" lon="13.308081"><ele>193.0</ele><time>2026-04-12T07:06:09.225Z</time></trkpt><trkpt lat="43.2153144" lon="13.3082402"><ele>192.0</ele><time>2026-04-12T07:06:10.225Z</time></trkpt><trkpt lat="43.215385" lon="13.3084018"><ele>191.0</ele><time>2026-04-12T07:06:11.225Z</time></trkpt><trkpt lat="43.2154496" lon="13.3085506"><ele>191.0</ele><time>2026-04-12T07:06:12.225Z</time></trkpt><trkpt lat="43.2155075" lon="13.3086947"><ele>191.0</ele><time>2026-04-12T07:06:13.224Z</time></trkpt><trkpt lat="43.2155546" lon="13.3088284"><ele>191.0</ele><time>2026-04-12T07:06:14.224Z</time></trkpt><trkpt lat="43.2155985" lon="13.3089458"><ele>191.0</ele><time>2026-04-12T07:06:15.225Z</time></trkpt><trkpt lat="43.2156472" lon="13.3090645"><ele>191.0</ele><time>2026-04-12T07:06:16.225Z</time></trkpt><trkpt lat="43.2156985" lon="13.3091695"><ele>192.4</ele><time>2026-04-12T07:06:17.224Z</time></trkpt><trkpt lat="43.215766" lon="13.3092734"><ele>193.8</ele><time>2026-04-12T07:06:18.224Z</time></trkpt><trkpt lat="43.215835" lon="13.3093827"><ele>195.20000000000002</ele><time>2026-04-12T07:06:19.225Z</time></trkpt><trkpt lat="43.2158985" lon="13.3095009"><ele>196.60000000000002</ele><time>2026-04-12T07:06:20.225Z</time></trkpt><trkpt lat="43.2159604" lon="13.3096315"><ele>198.0</ele><time>2026-04-12T07:06:21.224Z</time></trkpt><trkpt lat="43.2160308" lon="13.3097529"><ele>198.0</ele><time>2026-04-12T07:06:22.224Z</time></trkpt><trkpt lat="43.2160925" lon="13.3098718"><ele>198.0</ele><time>2026-04-12T07:06:23.224Z</time></trkpt><trkpt lat="43.2161601" lon="13.3099869"><ele>198.0</ele><time>2026-04-12T07:06:24.224Z</time></trkpt><trkpt lat="43.2162329" lon="13.3100969"><ele>198.0</ele><time>2026-04-12T07:06:25.224Z</time></trkpt><trkpt lat="43.2163095" lon="13.3101918"><ele>198.0</ele><time>2026-04-12T07:06:26.225Z</time></trkpt><trkpt lat="43.2163851" lon="13.3102899"><ele>198.0</ele><time>2026-04-12T07:06:27.224Z</time></trkpt><trkpt lat="43.216463" lon="13.3103778"><ele>198.0</ele><time>2026-04-12T07:06:28.225Z</time></trkpt><trkpt lat="43.2165369" lon="13.3104639"><ele>198.0</ele><time>2026-04-12T07:06:29.224Z</time></trkpt><trkpt lat="43.2166099" lon="13.3105459"><ele>198.0</ele><time>2026-04-12T07:06:30.225Z</time></trkpt><trkpt lat="43.2166802" lon="13.3106227"><ele>198.0</ele><time>2026-04-12T07:06:31.224Z</time></trkpt><trkpt lat="43.2167483" lon="13.3106991"><ele>197.83333333333334</ele><time>2026-04-12T07:06:32.225Z</time></trkpt><trkpt lat="43.2168162" lon="13.3107669"><ele>197.66666666666669</ele><time>2026-04-12T07:06:33.225Z</time></trkpt><trkpt lat="43.2168816" lon="13.310836"><ele>197.5</ele><time>2026-04-12T07:06:34.225Z</time></trkpt><trkpt lat="43.2169374" lon="13.3109156"><ele>197.33333333333334</ele><time>2026-04-12T07:06:35.225Z</time></trkpt><trkpt lat="43.2169891" lon="13.3109804"><ele>197.16666666666669</ele><time>2026-04-12T07:06:36.225Z</time></trkpt><trkpt lat="43.2170427" lon="13.3110527"><ele>197.0</ele><time>2026-04-12T07:06:37.225Z</time></trkpt><trkpt lat="43.2170897" lon="13.3111281"><ele>197.00000000000003</ele><time>2026-04-12T07:06:38.225Z</time></trkpt><trkpt lat="43.2171287" lon="13.3112099"><ele>197.0</ele><time>2026-04-12T07:06:39.225Z</time></trkpt><trkpt lat="43.2171716" lon="13.3112834"><ele>197.0</ele><time>2026-04-12T07:06:40.224Z</time></trkpt><trkpt lat="43.2172261" lon="13.3113444"><ele>197.0</ele><time>2026-04-12T07:06:41.225Z</time></trkpt><trkpt lat="43.2172896" lon="13.3113852"><ele>197.00000000000003</ele><time>2026-04-12T07:06:42.225Z</time></trkpt><trkpt lat="43.2174324" lon="13.311448"><ele>197.0</ele><time>2026-04-12T07:06:44.224Z</time></trkpt><trkpt lat="43.2175124" lon="13.3114884"><ele>196.75</ele><time>2026-04-12T07:06:45.224Z</time></trkpt><trkpt lat="43.2175982" lon="13.3115351"><ele>196.5</ele><time>2026-04-12T07:06:46.225Z</time></trkpt><trkpt lat="43.2177033" lon="13.3115927"><ele>196.25</ele><time>2026-04-12T07:06:47.225Z</time></trkpt><trkpt lat="43.2178154" lon="13.3116703"><ele>196.0</ele><time>2026-04-12T07:06:48.224Z</time></trkpt><trkpt lat="43.217929" lon="13.3117777"><ele>196.0</ele><time>2026-04-12T07:06:49.225Z</time></trkpt><trkpt lat="43.2180459" lon="13.3118992"><ele>196.0</ele><time>2026-04-12T07:06:50.225Z</time></trkpt><trkpt lat="43.2181662" lon="13.3120285"><ele>196.0</ele><time>2026-04-12T07:06:51.225Z</time></trkpt><trkpt lat="43.2182864" lon="13.3121579"><ele>195.66666666666666</ele><time>2026-04-12T07:06:52.225Z</time></trkpt><trkpt lat="43.2184059" lon="13.312285"><ele>195.33333333333331</ele><time>2026-04-12T07:06:53.225Z</time></trkpt><trkpt lat="43.2185323" lon="13.3123967"><ele>195.0</ele><time>2026-04-12T07:06:54.224Z</time></trkpt><trkpt lat="43.2186552" lon="13.3125131"><ele>195.0</ele><time>2026-04-12T07:06:55.224Z</time></trkpt><trkpt lat="43.2187657" lon="13.3126198"><ele>195.0</ele><time>2026-04-12T07:06:56.225Z</time></trkpt><trkpt lat="43.2188826" lon="13.3127283"><ele>195.0</ele><time>2026-04-12T07:06:57.225Z</time></trkpt><trkpt lat="43.2189887" lon="13.312847"><ele>195.0</ele><time>2026-04-12T07:06:58.224Z</time></trkpt><trkpt lat="43.2190852" lon="13.3129837"><ele>195.75</ele><time>2026-04-12T07:06:59.224Z</time></trkpt><trkpt lat="43.2191747" lon="13.313133"><ele>196.5</ele><time>2026-04-12T07:07:00.225Z</time></trkpt><trkpt lat="43.2192587" lon="13.3132919"><ele>197.25</ele><time>2026-04-12T07:07:01.225Z</time></trkpt><trkpt lat="43.2193301" lon="13.3134518"><ele>198.0</ele><time>2026-04-12T07:07:02.225Z</time></trkpt><trkpt lat="43.2193898" lon="13.3136259"><ele>198.0</ele><time>2026-04-12T07:07:03.225Z</time></trkpt><trkpt lat="43.2194367" lon="13.3138013"><ele>198.0</ele><time>2026-04-12T07:07:04.224Z</time></trkpt><trkpt lat="43.2194778" lon="13.3139769"><ele>198.0</ele><time>2026-04-12T07:07:05.224Z</time></trkpt><trkpt lat="43.2195182" lon="13.3141507"><ele>198.0</ele><time>2026-04-12T07:07:06.224Z</time></trkpt><trkpt lat="43.2195551" lon="13.3143057"><ele>197.5</ele><time>2026-04-12T07:07:07.225Z</time></trkpt><trkpt lat="43.2195721" lon="13.3144391"><ele>197.0</ele><time>2026-04-12T07:07:08.225Z</time></trkpt><trkpt lat="43.2195895" lon="13.3145641"><ele>196.5</ele><time>2026-04-12T07:07:09.224Z</time></trkpt><trkpt lat="43.2196149" lon="13.3146557"><ele>196.0</ele><time>2026-04-12T07:07:10.224Z</time></trkpt><trkpt lat="43.2196587" lon="13.314725"><ele>195.5</ele><time>2026-04-12T07:07:11.225Z</time></trkpt><trkpt lat="43.2197278" lon="13.314748"><ele>195.0</ele><time>2026-04-12T07:07:12.225Z</time></trkpt><trkpt lat="43.2198164" lon="13.3147319"><ele>196.25</ele><time>2026-04-12T07:07:13.225Z</time></trkpt><trkpt lat="43.2199247" lon="13.314704"><ele>197.5</ele><time>2026-04-12T07:07:14.225Z</time></trkpt><trkpt lat="43.2200422" lon="13.3146633"><ele>198.75</ele><time>2026-04-12T07:07:15.224Z</time></trkpt><trkpt lat="43.2201662" lon="13.3146269"><ele>200.0</ele><time>2026-04-12T07:07:16.224Z</time></trkpt><trkpt lat="43.2202802" lon="13.3145831"><ele>200.0</ele><time>2026-04-12T07:07:17.224Z</time></trkpt><trkpt lat="43.2203914" lon="13.3145427"><ele>200.0</ele><time>2026-04-12T07:07:18.225Z</time></trkpt><trkpt lat="43.2204967" lon="13.3145117"><ele>200.0</ele><time>2026-04-12T07:07:19.225Z</time></trkpt><trkpt lat="43.2205845" lon="13.3145116"><ele>200.0</ele><time>2026-04-12T07:07:20.225Z</time></trkpt><trkpt lat="43.2206664" lon="13.314541"><ele>200.0</ele><time>2026-04-12T07:07:21.225Z</time></trkpt><trkpt lat="43.2207038" lon="13.3146472"><ele>199.5</ele><time>2026-04-12T07:07:22.225Z</time></trkpt><trkpt lat="43.2207253" lon="13.3148005"><ele>199.0</ele><time>2026-04-12T07:07:23.225Z</time></trkpt><trkpt lat="43.2207356" lon="13.3149808"><ele>198.5</ele><time>2026-04-12T07:07:24.225Z</time></trkpt><trkpt lat="43.2207403" lon="13.3151625"><ele>198.0</ele><time>2026-04-12T07:07:25.225Z</time></trkpt><trkpt lat="43.2207624" lon="13.3153453"><ele>198.0</ele><time>2026-04-12T07:07:26.224Z</time></trkpt><trkpt lat="43.2207945" lon="13.3155304"><ele>198.0</ele><time>2026-04-12T07:07:27.225Z</time></trkpt><trkpt lat="43.2208241" lon="13.3157294"><ele>198.0</ele><time>2026-04-12T07:07:28.225Z</time></trkpt><trkpt lat="43.2208619" lon="13.3159539"><ele>198.0</ele><time>2026-04-12T07:07:29.224Z</time></trkpt><trkpt lat="43.220902" lon="13.3161853"><ele>198.0</ele><time>2026-04-12T07:07:30.225Z</time></trkpt><trkpt lat="43.2209549" lon="13.3164138"><ele>198.0</ele><time>2026-04-12T07:07:31.225Z</time></trkpt><trkpt lat="43.2210042" lon="13.3166328"><ele>198.0</ele><time>2026-04-12T07:07:32.225Z</time></trkpt><trkpt lat="43.2210518" lon="13.3168501"><ele>198.0</ele><time>2026-04-12T07:07:33.225Z</time></trkpt><trkpt lat="43.2210963" lon="13.317062"><ele>198.0</ele><time>2026-04-12T07:07:34.225Z</time></trkpt><trkpt lat="43.2211521" lon="13.31727"><ele>198.0</ele><time>2026-04-12T07:07:35.225Z</time></trkpt><trkpt lat="43.2212304" lon="13.3174573"><ele>198.0</ele><time>2026-04-12T07:07:36.224Z</time></trkpt><trkpt lat="43.221356" lon="13.3176002"><ele>198.0</ele><time>2026-04-12T07:07:37.225Z</time></trkpt><trkpt lat="43.2215026" lon="13.3177038"><ele>198.0</ele><time>2026-04-12T07:07:38.225Z</time></trkpt><trkpt lat="43.2216563" lon="13.3177837"><ele>198.0</ele><time>2026-04-12T07:07:39.224Z</time></trkpt><trkpt lat="43.2218116" lon="13.3178706"><ele>198.0</ele><time>2026-04-12T07:07:40.225Z</time></trkpt><trkpt lat="43.2219713" lon="13.3179759"><ele>197.66666666666669</ele><time>2026-04-12T07:07:41.225Z</time></trkpt><trkpt lat="43.2221358" lon="13.3180923"><ele>197.33333333333334</ele><time>2026-04-12T07:07:42.225Z</time></trkpt><trkpt lat="43.2222998" lon="13.3182024"><ele>197.0</ele><time>2026-04-12T07:07:43.225Z</time></trkpt><trkpt lat="43.2224609" lon="13.318326"><ele>197.66666666666669</ele><time>2026-04-12T07:07:44.225Z</time></trkpt><trkpt lat="43.2226326" lon="13.3184559"><ele>198.33333333333331</ele><time>2026-04-12T07:07:45.225Z</time></trkpt><trkpt lat="43.2228123" lon="13.3185839"><ele>199.0</ele><time>2026-04-12T07:07:46.224Z</time></trkpt><trkpt lat="43.2229937" lon="13.3187115"><ele>199.0</ele><time>2026-04-12T07:07:47.225Z</time></trkpt><trkpt lat="43.2231693" lon="13.3188263"><ele>199.0</ele><time>2026-04-12T07:07:48.224Z</time></trkpt><trkpt lat="43.2233532" lon="13.3189521"><ele>199.0</ele><time>2026-04-12T07:07:49.224Z</time></trkpt><trkpt lat="43.223538" lon="13.3190949"><ele>199.0</ele><time>2026-04-12T07:07:50.225Z</time></trkpt><trkpt lat="43.2237246" lon="13.319239"><ele>199.0</ele><time>2026-04-12T07:07:51.225Z</time></trkpt><trkpt lat="43.2239083" lon="13.3193676"><ele>199.0</ele><time>2026-04-12T07:07:52.224Z</time></trkpt><trkpt lat="43.2240992" lon="13.3195124"><ele>199.33333333333331</ele><time>2026-04-12T07:07:53.224Z</time></trkpt><trkpt lat="43.2242861" lon="13.3196517"><ele>199.66666666666669</ele><time>2026-04-12T07:07:54.226Z</time></trkpt><trkpt lat="43.2244746" lon="13.3197891"><ele>200.0</ele><time>2026-04-12T07:07:55.226Z</time></trkpt><trkpt lat="43.2246617" lon="13.319919"><ele>200.33333333333334</ele><time>2026-04-12T07:07:56.225Z</time></trkpt><trkpt lat="43.2248557" lon="13.3200482"><ele>200.66666666666669</ele><time>2026-04-12T07:07:57.226Z</time></trkpt><trkpt lat="43.2250369" lon="13.3201734"><ele>201.0</ele><time>2026-04-12T07:07:58.226Z</time></trkpt><trkpt lat="43.2252287" lon="13.320299"><ele>201.0</ele><time>2026-04-12T07:07:59.226Z</time></trkpt><trkpt lat="43.2254221" lon="13.3204377"><ele>201.0</ele><time>2026-04-12T07:08:00.226Z</time></trkpt><trkpt lat="43.2256126" lon="13.3205807"><ele>201.0</ele><time>2026-04-12T07:08:01.226Z</time></trkpt><trkpt lat="43.2258008" lon="13.3207252"><ele>201.0</ele><time>2026-04-12T07:08:02.226Z</time></trkpt><trkpt lat="43.2259933" lon="13.3208496"><ele>201.0</ele><time>2026-04-12T07:08:03.225Z</time></trkpt><trkpt lat="43.2261958" lon="13.3209889"><ele>201.0</ele><time>2026-04-12T07:08:04.226Z</time></trkpt><trkpt lat="43.226405" lon="13.3211207"><ele>201.0</ele><time>2026-04-12T07:08:05.226Z</time></trkpt><trkpt lat="43.2266147" lon="13.3212627"><ele>201.0</ele><time>2026-04-12T07:08:06.226Z</time></trkpt><trkpt lat="43.2268196" lon="13.3214134"><ele>201.0</ele><time>2026-04-12T07:08:07.225Z</time></trkpt><trkpt lat="43.2270175" lon="13.3215564"><ele>201.0</ele><time>2026-04-12T07:08:08.226Z</time></trkpt><trkpt lat="43.2272198" lon="13.321701"><ele>200.33333333333331</ele><time>2026-04-12T07:08:09.225Z</time></trkpt><trkpt lat="43.2274091" lon="13.3218325"><ele>199.66666666666666</ele><time>2026-04-12T07:08:10.226Z</time></trkpt><trkpt lat="43.2276079" lon="13.3219672"><ele>199.0</ele><time>2026-04-12T07:08:11.225Z</time></trkpt><trkpt lat="43.2278171" lon="13.3220935"><ele>199.0</ele><time>2026-04-12T07:08:12.226Z</time></trkpt><trkpt lat="43.2280213" lon="13.3222391"><ele>199.0</ele><time>2026-04-12T07:08:13.225Z</time></trkpt><trkpt lat="43.228225" lon="13.3223892"><ele>199.0</ele><time>2026-04-12T07:08:14.226Z</time></trkpt><trkpt lat="43.2284289" lon="13.3225297"><ele>199.0</ele><time>2026-04-12T07:08:15.226Z</time></trkpt><trkpt lat="43.2286367" lon="13.3226783"><ele>199.0</ele><time>2026-04-12T07:08:16.225Z</time></trkpt><trkpt lat="43.228846" lon="13.3228372"><ele>199.0</ele><time>2026-04-12T07:08:17.226Z</time></trkpt><trkpt lat="43.2290399" lon="13.3229922"><ele>199.0</ele><time>2026-04-12T07:08:18.226Z</time></trkpt><trkpt lat="43.229216" lon="13.3231443"><ele>199.0</ele><time>2026-04-12T07:08:19.225Z</time></trkpt><trkpt lat="43.2294046" lon="13.3233284"><ele>199.0</ele><time>2026-04-12T07:08:20.226Z</time></trkpt><trkpt lat="43.2295966" lon="13.3235203"><ele>199.0</ele><time>2026-04-12T07:08:21.226Z</time></trkpt><trkpt lat="43.2297765" lon="13.323726"><ele>199.0</ele><time>2026-04-12T07:08:22.226Z</time></trkpt><trkpt lat="43.2299579" lon="13.3239135"><ele>199.5</ele><time>2026-04-12T07:08:23.226Z</time></trkpt><trkpt lat="43.2301399" lon="13.3241034"><ele>200.0</ele><time>2026-04-12T07:08:24.226Z</time></trkpt><trkpt lat="43.2303192" lon="13.3243009"><ele>200.0</ele><time>2026-04-12T07:08:25.225Z</time></trkpt><trkpt lat="43.2305043" lon="13.3244924"><ele>200.0</ele><time>2026-04-12T07:08:26.226Z</time></trkpt><trkpt lat="43.2306852" lon="13.324682"><ele>201.0</ele><time>2026-04-12T07:08:27.226Z</time></trkpt><trkpt lat="43.2308692" lon="13.324871"><ele>202.0</ele><time>2026-04-12T07:08:28.226Z</time></trkpt><trkpt lat="43.2310468" lon="13.3250541"><ele>202.0</ele><time>2026-04-12T07:08:29.226Z</time></trkpt><trkpt lat="43.2312124" lon="13.3252163"><ele>202.0</ele><time>2026-04-12T07:08:30.225Z</time></trkpt><trkpt lat="43.2313776" lon="13.3253908"><ele>202.0</ele><time>2026-04-12T07:08:31.226Z</time></trkpt><trkpt lat="43.2315482" lon="13.3255599"><ele>203.0</ele><time>2026-04-12T07:08:32.226Z</time></trkpt><trkpt lat="43.231718" lon="13.3257165"><ele>204.0</ele><time>2026-04-12T07:08:33.226Z</time></trkpt><trkpt lat="43.2318837" lon="13.3258394"><ele>205.0</ele><time>2026-04-12T07:08:34.226Z</time></trkpt><trkpt lat="43.2320518" lon="13.3259227"><ele>205.0</ele><time>2026-04-12T07:08:35.225Z</time></trkpt><trkpt lat="43.232224" lon="13.3259735"><ele>205.0</ele><time>2026-04-12T07:08:36.226Z</time></trkpt><trkpt lat="43.2323939" lon="13.3259891"><ele>205.0</ele><time>2026-04-12T07:08:37.226Z</time></trkpt><trkpt lat="43.2325758" lon="13.3259896"><ele>206.66666666666666</ele><time>2026-04-12T07:08:38.226Z</time></trkpt><trkpt lat="43.2327581" lon="13.3259765"><ele>208.33333333333331</ele><time>2026-04-12T07:08:39.225Z</time></trkpt><trkpt lat="43.2329461" lon="13.3259387"><ele>210.0</ele><time>2026-04-12T07:08:40.225Z</time></trkpt><trkpt lat="43.2331345" lon="13.3258807"><ele>209.33333333333331</ele><time>2026-04-12T07:08:41.226Z</time></trkpt><trkpt lat="43.2333138" lon="13.3257916"><ele>208.66666666666666</ele><time>2026-04-12T07:08:42.225Z</time></trkpt><trkpt lat="43.2334875" lon="13.3256926"><ele>208.0</ele><time>2026-04-12T07:08:43.226Z</time></trkpt><trkpt lat="43.233655" lon="13.3255574"><ele>208.33333333333331</ele><time>2026-04-12T07:08:44.225Z</time></trkpt><trkpt lat="43.2338177" lon="13.3254001"><ele>208.66666666666669</ele><time>2026-04-12T07:08:45.226Z</time></trkpt><trkpt lat="43.2339639" lon="13.3252292"><ele>209.0</ele><time>2026-04-12T07:08:46.226Z</time></trkpt><trkpt lat="43.2341054" lon="13.3250433"><ele>209.0</ele><time>2026-04-12T07:08:47.226Z</time></trkpt><trkpt lat="43.234245" lon="13.3248541"><ele>209.0</ele><time>2026-04-12T07:08:48.226Z</time></trkpt><trkpt lat="43.2343722" lon="13.3246718"><ele>209.0</ele><time>2026-04-12T07:08:49.226Z</time></trkpt><trkpt lat="43.234502" lon="13.3244863"><ele>208.66666666666669</ele><time>2026-04-12T07:08:50.226Z</time></trkpt><trkpt lat="43.234631" lon="13.3243008"><ele>208.33333333333331</ele><time>2026-04-12T07:08:51.226Z</time></trkpt><trkpt lat="43.2347647" lon="13.3241246"><ele>208.0</ele><time>2026-04-12T07:08:52.226Z</time></trkpt><trkpt lat="43.2349166" lon="13.3239422"><ele>210.66666666666666</ele><time>2026-04-12T07:08:53.226Z</time></trkpt><trkpt lat="43.2350686" lon="13.3237652"><ele>213.33333333333331</ele><time>2026-04-12T07:08:54.226Z</time></trkpt><trkpt lat="43.2352144" lon="13.3235819"><ele>216.0</ele><time>2026-04-12T07:08:55.225Z</time></trkpt><trkpt lat="43.2353612" lon="13.3233939"><ele>216.0</ele><time>2026-04-12T07:08:56.226Z</time></trkpt><trkpt lat="43.2355062" lon="13.3232009"><ele>216.0</ele><time>2026-04-12T07:08:57.226Z</time></trkpt><trkpt lat="43.2356444" lon="13.3230338"><ele>216.0</ele><time>2026-04-12T07:08:58.226Z</time></trkpt><trkpt lat="43.2357826" lon="13.3228364"><ele>216.33333333333331</ele><time>2026-04-12T07:08:59.226Z</time></trkpt><trkpt lat="43.2359248" lon="13.3226377"><ele>216.66666666666666</ele><time>2026-04-12T07:09:00.226Z</time></trkpt><trkpt lat="43.2360756" lon="13.3224366"><ele>217.0</ele><time>2026-04-12T07:09:01.226Z</time></trkpt><trkpt lat="43.2362159" lon="13.3222471"><ele>217.33333333333331</ele><time>2026-04-12T07:09:02.226Z</time></trkpt><trkpt lat="43.2363523" lon="13.3220408"><ele>217.66666666666669</ele><time>2026-04-12T07:09:03.226Z</time></trkpt><trkpt lat="43.2364852" lon="13.3218363"><ele>218.0</ele><time>2026-04-12T07:09:04.226Z</time></trkpt><trkpt lat="43.2366088" lon="13.3216381"><ele>218.0</ele><time>2026-04-12T07:09:05.226Z</time></trkpt><trkpt lat="43.2367299" lon="13.3214434"><ele>218.0</ele><time>2026-04-12T07:09:06.225Z</time></trkpt><trkpt lat="43.2368537" lon="13.3212413"><ele>218.0</ele><time>2026-04-12T07:09:07.225Z</time></trkpt><trkpt lat="43.2369684" lon="13.3210468"><ele>220.33333333333334</ele><time>2026-04-12T07:09:08.226Z</time></trkpt><trkpt lat="43.2370722" lon="13.3208604"><ele>222.66666666666669</ele><time>2026-04-12T07:09:09.226Z</time></trkpt><trkpt lat="43.2371765" lon="13.320676"><ele>225.0</ele><time>2026-04-12T07:09:10.225Z</time></trkpt><trkpt lat="43.2372769" lon="13.3205056"><ele>224.0</ele><time>2026-04-12T07:09:11.226Z</time></trkpt><trkpt lat="43.2373923" lon="13.3203698"><ele>223.0</ele><time>2026-04-12T07:09:12.226Z</time></trkpt><trkpt lat="43.2375149" lon="13.3202993"><ele>222.0</ele><time>2026-04-12T07:09:13.226Z</time></trkpt><trkpt lat="43.2376528" lon="13.3202797"><ele>221.0</ele><time>2026-04-12T07:09:14.226Z</time></trkpt><trkpt lat="43.2378033" lon="13.3203147"><ele>221.0</ele><time>2026-04-12T07:09:15.226Z</time></trkpt><trkpt lat="43.2379466" lon="13.3203928"><ele>221.0</ele><time>2026-04-12T07:09:16.225Z</time></trkpt><trkpt lat="43.2380969" lon="13.3204735"><ele>221.0</ele><time>2026-04-12T07:09:17.225Z</time></trkpt><trkpt lat="43.23824" lon="13.3205227"><ele>223.0</ele><time>2026-04-12T07:09:18.226Z</time></trkpt><trkpt lat="43.2383848" lon="13.3205613"><ele>225.0</ele><time>2026-04-12T07:09:19.226Z</time></trkpt><trkpt lat="43.2385259" lon="13.320559"><ele>227.0</ele><time>2026-04-12T07:09:20.226Z</time></trkpt><trkpt lat="43.2386708" lon="13.3205326"><ele>229.0</ele><time>2026-04-12T07:09:21.225Z</time></trkpt><trkpt lat="43.2388104" lon="13.3205019"><ele>229.0</ele><time>2026-04-12T07:09:22.226Z</time></trkpt><trkpt lat="43.2389624" lon="13.3204316"><ele>229.0</ele><time>2026-04-12T07:09:23.226Z</time></trkpt><trkpt lat="43.2391126" lon="13.3203445"><ele>229.0</ele><time>2026-04-12T07:09:24.226Z</time></trkpt><trkpt lat="43.239264" lon="13.3202466"><ele>228.33333333333331</ele><time>2026-04-12T07:09:25.226Z</time></trkpt><trkpt lat="43.2394268" lon="13.3201421"><ele>227.66666666666669</ele><time>2026-04-12T07:09:26.226Z</time></trkpt><trkpt lat="43.2395695" lon="13.3200911"><ele>227.0</ele><time>2026-04-12T07:09:27.226Z</time></trkpt><trkpt lat="43.2397314" lon="13.319978"><ele>228.0</ele><time>2026-04-12T07:09:28.225Z</time></trkpt><trkpt lat="43.2398891" lon="13.3198646"><ele>229.0</ele><time>2026-04-12T07:09:29.226Z</time></trkpt><trkpt lat="43.2400403" lon="13.319754"><ele>230.0</ele><time>2026-04-12T07:09:30.226Z</time></trkpt><trkpt lat="43.2401875" lon="13.3196434"><ele>230.0</ele><time>2026-04-12T07:09:31.226Z</time></trkpt><trkpt lat="43.240333" lon="13.319545"><ele>230.0</ele><time>2026-04-12T07:09:32.226Z</time></trkpt><trkpt lat="43.2404844" lon="13.3194623"><ele>230.0</ele><time>2026-04-12T07:09:33.225Z</time></trkpt><trkpt lat="43.2406211" lon="13.3193617"><ele>228.66666666666669</ele><time>2026-04-12T07:09:34.226Z</time></trkpt><trkpt lat="43.2407437" lon="13.3192313"><ele>227.33333333333331</ele><time>2026-04-12T07:09:35.225Z</time></trkpt><trkpt lat="43.2408495" lon="13.3190723"><ele>226.0</ele><time>2026-04-12T07:09:36.225Z</time></trkpt><trkpt lat="43.2409246" lon="13.3188724"><ele>226.0</ele><time>2026-04-12T07:09:37.226Z</time></trkpt><trkpt lat="43.2409573" lon="13.3186583"><ele>226.0</ele><time>2026-04-12T07:09:38.226Z</time></trkpt><trkpt lat="43.2409696" lon="13.3184332"><ele>226.0</ele><time>2026-04-12T07:09:39.225Z</time></trkpt><trkpt lat="43.2409756" lon="13.3182102"><ele>226.0</ele><time>2026-04-12T07:09:40.226Z</time></trkpt><trkpt lat="43.2409783" lon="13.3179897"><ele>226.0</ele><time>2026-04-12T07:09:41.226Z</time></trkpt><trkpt lat="43.240985" lon="13.3177731"><ele>226.0</ele><time>2026-04-12T07:09:42.226Z</time></trkpt><trkpt lat="43.2409846" lon="13.3175614"><ele>226.0</ele><time>2026-04-12T07:09:43.225Z</time></trkpt><trkpt lat="43.2409898" lon="13.3173581"><ele>226.0</ele><time>2026-04-12T07:09:44.226Z</time></trkpt><trkpt lat="43.2409942" lon="13.3171652"><ele>226.0</ele><time>2026-04-12T07:09:45.226Z</time></trkpt><trkpt lat="43.2409921" lon="13.3169816"><ele>226.0</ele><time>2026-04-12T07:09:46.226Z</time></trkpt><trkpt lat="43.2409981" lon="13.3168179"><ele>226.60000000000002</ele><time>2026-04-12T07:09:47.225Z</time></trkpt><trkpt lat="43.2410201" lon="13.3166599"><ele>227.20000000000002</ele><time>2026-04-12T07:09:48.226Z</time></trkpt><trkpt lat="43.2410573" lon="13.3165242"><ele>227.79999999999998</ele><time>2026-04-12T07:09:49.226Z</time></trkpt><trkpt lat="43.2411333" lon="13.3164317"><ele>228.39999999999998</ele><time>2026-04-12T07:09:50.226Z</time></trkpt><trkpt lat="43.2412331" lon="13.3163825"><ele>229.0</ele><time>2026-04-12T07:09:51.226Z</time></trkpt><trkpt lat="43.2413457" lon="13.3163746"><ele>229.0</ele><time>2026-04-12T07:09:52.226Z</time></trkpt><trkpt lat="43.2414555" lon="13.3164245"><ele>229.0</ele><time>2026-04-12T07:09:53.226Z</time></trkpt><trkpt lat="43.2415562" lon="13.3164897"><ele>229.0</ele><time>2026-04-12T07:09:54.226Z</time></trkpt><trkpt lat="43.2416569" lon="13.3165931"><ele>229.0</ele><time>2026-04-12T07:09:55.226Z</time></trkpt><trkpt lat="43.2417522" lon="13.316729"><ele>229.25</ele><time>2026-04-12T07:09:56.226Z</time></trkpt><trkpt lat="43.2418451" lon="13.3168765"><ele>229.5</ele><time>2026-04-12T07:09:57.226Z</time></trkpt><trkpt lat="43.2419356" lon="13.3170361"><ele>229.75</ele><time>2026-04-12T07:09:58.226Z</time></trkpt><trkpt lat="43.2420232" lon="13.3171894"><ele>230.0</ele><time>2026-04-12T07:09:59.226Z</time></trkpt><trkpt lat="43.242117" lon="13.3173322"><ele>230.75</ele><time>2026-04-12T07:10:00.226Z</time></trkpt><trkpt lat="43.2422093" lon="13.3174737"><ele>231.5</ele><time>2026-04-12T07:10:01.226Z</time></trkpt><trkpt lat="43.2423041" lon="13.3176171"><ele>232.25</ele><time>2026-04-12T07:10:02.226Z</time></trkpt><trkpt lat="43.2424108" lon="13.3177567"><ele>233.0</ele><time>2026-04-12T07:10:03.225Z</time></trkpt><trkpt lat="43.2425172" lon="13.3179042"><ele>233.0</ele><time>2026-04-12T07:10:04.226Z</time></trkpt><trkpt lat="43.2426195" lon="13.3180571"><ele>233.0</ele><time>2026-04-12T07:10:05.225Z</time></trkpt><trkpt lat="43.2427283" lon="13.3182075"><ele>233.0</ele><time>2026-04-12T07:10:06.226Z</time></trkpt><trkpt lat="43.2428371" lon="13.3183569"><ele>234.0</ele><time>2026-04-12T07:10:07.225Z</time></trkpt><trkpt lat="43.2429504" lon="13.3185031"><ele>235.0</ele><time>2026-04-12T07:10:08.226Z</time></trkpt><trkpt lat="43.2430739" lon="13.3186348"><ele>236.0</ele><time>2026-04-12T07:10:09.226Z</time></trkpt><trkpt lat="43.2432016" lon="13.3187152"><ele>236.0</ele><time>2026-04-12T07:10:10.226Z</time></trkpt><trkpt lat="43.2433446" lon="13.3187476"><ele>236.0</ele><time>2026-04-12T07:10:11.226Z</time></trkpt><trkpt lat="43.2434894" lon="13.3187281"><ele>236.0</ele><time>2026-04-12T07:10:12.226Z</time></trkpt><trkpt lat="43.2436368" lon="13.3186665"><ele>236.0</ele><time>2026-04-12T07:10:13.226Z</time></trkpt><trkpt lat="43.2437843" lon="13.3185845"><ele>236.0</ele><time>2026-04-12T07:10:14.226Z</time></trkpt><trkpt lat="43.2439247" lon="13.3184804"><ele>236.0</ele><time>2026-04-12T07:10:15.225Z</time></trkpt><trkpt lat="43.244057" lon="13.3183594"><ele>236.0</ele><time>2026-04-12T07:10:16.225Z</time></trkpt><trkpt lat="43.2441741" lon="13.3182143"><ele>236.0</ele><time>2026-04-12T07:10:17.225Z</time></trkpt><trkpt lat="43.2442683" lon="13.3180412"><ele>236.0</ele><time>2026-04-12T07:10:18.225Z</time></trkpt><trkpt lat="43.2443565" lon="13.3178523"><ele>236.0</ele><time>2026-04-12T07:10:19.226Z</time></trkpt><trkpt lat="43.2444445" lon="13.3176663"><ele>236.0</ele><time>2026-04-12T07:10:20.225Z</time></trkpt><trkpt lat="43.2445308" lon="13.317483"><ele>236.0</ele><time>2026-04-12T07:10:21.226Z</time></trkpt><trkpt lat="43.2446185" lon="13.3173031"><ele>236.0</ele><time>2026-04-12T07:10:22.226Z</time></trkpt><trkpt lat="43.2447052" lon="13.3171207"><ele>235.75</ele><time>2026-04-12T07:10:23.226Z</time></trkpt><trkpt lat="43.2447975" lon="13.3169531"><ele>235.5</ele><time>2026-04-12T07:10:24.226Z</time></trkpt><trkpt lat="43.2448914" lon="13.3168005"><ele>235.25</ele><time>2026-04-12T07:10:25.226Z</time></trkpt><trkpt lat="43.2450021" lon="13.3166758"><ele>235.0</ele><time>2026-04-12T07:10:26.225Z</time></trkpt><trkpt lat="43.2451378" lon="13.316583"><ele>235.0</ele><time>2026-04-12T07:10:27.226Z</time></trkpt><trkpt lat="43.2452721" lon="13.3165596"><ele>235.0</ele><time>2026-04-12T07:10:28.226Z</time></trkpt><trkpt lat="43.2454099" lon="13.3165809"><ele>235.0</ele><time>2026-04-12T07:10:29.226Z</time></trkpt><trkpt lat="43.2455529" lon="13.3166346"><ele>235.0</ele><time>2026-04-12T07:10:30.226Z</time></trkpt><trkpt lat="43.2456817" lon="13.3167216"><ele>235.0</ele><time>2026-04-12T07:10:31.226Z</time></trkpt><trkpt lat="43.2457969" lon="13.3167871"><ele>235.0</ele><time>2026-04-12T07:10:32.226Z</time></trkpt><trkpt lat="43.2459328" lon="13.316885"><ele>235.0</ele><time>2026-04-12T07:10:33.225Z</time></trkpt><trkpt lat="43.246074" lon="13.3169857"><ele>235.0</ele><time>2026-04-12T07:10:34.226Z</time></trkpt><trkpt lat="43.2462158" lon="13.3170817"><ele>235.0</ele><time>2026-04-12T07:10:35.226Z</time></trkpt><trkpt lat="43.2463575" lon="13.3171845"><ele>235.0</ele><time>2026-04-12T07:10:36.225Z</time></trkpt><trkpt lat="43.2464998" lon="13.3172834"><ele>235.0</ele><time>2026-04-12T07:10:37.226Z</time></trkpt><trkpt lat="43.2466444" lon="13.3173883"><ele>234.0</ele><time>2026-04-12T07:10:38.226Z</time></trkpt><trkpt lat="43.2467909" lon="13.3174791"><ele>233.0</ele><time>2026-04-12T07:10:39.225Z</time></trkpt><trkpt lat="43.246939" lon="13.3175553"><ele>232.0</ele><time>2026-04-12T07:10:40.225Z</time></trkpt><trkpt lat="43.2470893" lon="13.3176491"><ele>232.0</ele><time>2026-04-12T07:10:41.225Z</time></trkpt><trkpt lat="43.2472474" lon="13.3177356"><ele>232.0</ele><time>2026-04-12T07:10:42.225Z</time></trkpt><trkpt lat="43.2474049" lon="13.3178149"><ele>232.0</ele><time>2026-04-12T07:10:43.226Z</time></trkpt><trkpt lat="43.2475656" lon="13.3178883"><ele>232.0</ele><time>2026-04-12T07:10:44.226Z</time></trkpt><trkpt lat="43.247729" lon="13.3179541"><ele>232.0</ele><time>2026-04-12T07:10:45.226Z</time></trkpt><trkpt lat="43.2479058" lon="13.3180189"><ele>232.0</ele><time>2026-04-12T07:10:46.225Z</time></trkpt><trkpt lat="43.2480844" lon="13.3180897"><ele>231.66666666666666</ele><time>2026-04-12T07:10:47.226Z</time></trkpt><trkpt lat="43.2482603" lon="13.3181642"><ele>231.33333333333331</ele><time>2026-04-12T07:10:48.225Z</time></trkpt><trkpt lat="43.2484325" lon="13.3182432"><ele>231.0</ele><time>2026-04-12T07:10:49.226Z</time></trkpt><trkpt lat="43.248611" lon="13.3183329"><ele>231.0</ele><time>2026-04-12T07:10:50.226Z</time></trkpt><trkpt lat="43.2487788" lon="13.3184281"><ele>231.0</ele><time>2026-04-12T07:10:51.226Z</time></trkpt><trkpt lat="43.2489374" lon="13.3185318"><ele>231.0</ele><time>2026-04-12T07:10:52.226Z</time></trkpt><trkpt lat="43.2490844" lon="13.3186336"><ele>231.33333333333331</ele><time>2026-04-12T07:10:53.226Z</time></trkpt><trkpt lat="43.2492237" lon="13.3187606"><ele>231.66666666666666</ele><time>2026-04-12T07:10:54.225Z</time></trkpt><trkpt lat="43.2493656" lon="13.3188823"><ele>232.0</ele><time>2026-04-12T07:10:55.226Z</time></trkpt><trkpt lat="43.2495032" lon="13.3189684"><ele>232.0</ele><time>2026-04-12T07:10:56.226Z</time></trkpt><trkpt lat="43.2496449" lon="13.3190057"><ele>232.0</ele><time>2026-04-12T07:10:57.226Z</time></trkpt><trkpt lat="43.2497914" lon="13.3189851"><ele>232.0</ele><time>2026-04-12T07:10:58.226Z</time></trkpt><trkpt lat="43.2499266" lon="13.3189119"><ele>232.0</ele><time>2026-04-12T07:10:59.226Z</time></trkpt><trkpt lat="43.2500602" lon="13.3188255"><ele>228.75</ele><time>2026-04-12T07:11:00.225Z</time></trkpt><trkpt lat="43.2501874" lon="13.3187411"><ele>225.5</ele><time>2026-04-12T07:11:01.225Z</time></trkpt><trkpt lat="43.2503125" lon="13.3186631"><ele>222.25</ele><time>2026-04-12T07:11:02.225Z</time></trkpt><trkpt lat="43.2504434" lon="13.3186204"><ele>219.0</ele><time>2026-04-12T07:11:03.226Z</time></trkpt><trkpt lat="43.2505703" lon="13.3186293"><ele>218.25</ele><time>2026-04-12T07:11:04.226Z</time></trkpt><trkpt lat="43.2506828" lon="13.3186986"><ele>217.5</ele><time>2026-04-12T07:11:05.226Z</time></trkpt><trkpt lat="43.2507759" lon="13.3188056"><ele>216.75</ele><time>2026-04-12T07:11:06.226Z</time></trkpt><trkpt lat="43.2508575" lon="13.3189375"><ele>216.0</ele><time>2026-04-12T07:11:07.226Z</time></trkpt><trkpt lat="43.2509352" lon="13.3190736"><ele>217.5</ele><time>2026-04-12T07:11:08.226Z</time></trkpt><trkpt lat="43.2510093" lon="13.3191977"><ele>219.0</ele><time>2026-04-12T07:11:09.226Z</time></trkpt><trkpt lat="43.2510812" lon="13.3193259"><ele>220.5</ele><time>2026-04-12T07:11:10.225Z</time></trkpt><trkpt lat="43.2511542" lon="13.3194259"><ele>222.0</ele><time>2026-04-12T07:11:11.225Z</time></trkpt><trkpt lat="43.2512275" lon="13.3195553"><ele>222.0</ele><time>2026-04-12T07:11:12.226Z</time></trkpt><trkpt lat="43.2513077" lon="13.3196845"><ele>222.0</ele><time>2026-04-12T07:11:13.226Z</time></trkpt><trkpt lat="43.2513954" lon="13.3197748"><ele>222.0</ele><time>2026-04-12T07:11:14.226Z</time></trkpt><trkpt lat="43.2514954" lon="13.3198212"><ele>222.0</ele><time>2026-04-12T07:11:15.225Z</time></trkpt><trkpt lat="43.2515965" lon="13.3198003"><ele>222.0</ele><time>2026-04-12T07:11:16.226Z</time></trkpt><trkpt lat="43.2516905" lon="13.3197252"><ele>220.0</ele><time>2026-04-12T07:11:17.226Z</time></trkpt><trkpt lat="43.2517746" lon="13.3196129"><ele>218.0</ele><time>2026-04-12T07:11:18.225Z</time></trkpt><trkpt lat="43.2518331" lon="13.3194756"><ele>216.0</ele><time>2026-04-12T07:11:19.225Z</time></trkpt><trkpt lat="43.2518829" lon="13.3193105"><ele>214.0</ele><time>2026-04-12T07:11:20.226Z</time></trkpt><trkpt lat="43.2519483" lon="13.3191434"><ele>214.0</ele><time>2026-04-12T07:11:21.226Z</time></trkpt><trkpt lat="43.2520218" lon="13.3189924"><ele>214.0</ele><time>2026-04-12T07:11:22.226Z</time></trkpt><trkpt lat="43.2520982" lon="13.3188519"><ele>214.0</ele><time>2026-04-12T07:11:23.226Z</time></trkpt><trkpt lat="43.2521875" lon="13.3187082"><ele>214.0</ele><time>2026-04-12T07:11:24.226Z</time></trkpt><trkpt lat="43.2522795" lon="13.3185667"><ele>213.75</ele><time>2026-04-12T07:11:25.226Z</time></trkpt><trkpt lat="43.25237" lon="13.3184198"><ele>213.5</ele><time>2026-04-12T07:11:26.226Z</time></trkpt><trkpt lat="43.2524645" lon="13.3182764"><ele>213.25</ele><time>2026-04-12T07:11:27.226Z</time></trkpt><trkpt lat="43.2525535" lon="13.3181363"><ele>213.0</ele><time>2026-04-12T07:11:28.226Z</time></trkpt><trkpt lat="43.2526377" lon="13.3180068"><ele>211.0</ele><time>2026-04-12T07:11:29.226Z</time></trkpt><trkpt lat="43.2527172" lon="13.3178921"><ele>209.0</ele><time>2026-04-12T07:11:30.226Z</time></trkpt><trkpt lat="43.2528046" lon="13.3177899"><ele>207.0</ele><time>2026-04-12T07:11:31.226Z</time></trkpt><trkpt lat="43.2529115" lon="13.3177173"><ele>205.0</ele><time>2026-04-12T07:11:32.225Z</time></trkpt><trkpt lat="43.253023" lon="13.3176946"><ele>205.0</ele><time>2026-04-12T07:11:33.226Z</time></trkpt><trkpt lat="43.2531326" lon="13.3177333"><ele>205.0</ele><time>2026-04-12T07:11:34.226Z</time></trkpt><trkpt lat="43.2532297" lon="13.3178165"><ele>205.0</ele><time>2026-04-12T07:11:35.226Z</time></trkpt><trkpt lat="43.2533071" lon="13.3179446"><ele>205.0</ele><time>2026-04-12T07:11:36.225Z</time></trkpt><trkpt lat="43.2533629" lon="13.3181038"><ele>205.0</ele><time>2026-04-12T07:11:37.226Z</time></trkpt><trkpt lat="43.2534069" lon="13.3182758"><ele>205.0</ele><time>2026-04-12T07:11:38.226Z</time></trkpt><trkpt lat="43.2534395" lon="13.3184499"><ele>205.0</ele><time>2026-04-12T07:11:39.226Z</time></trkpt><trkpt lat="43.2534718" lon="13.3186223"><ele>205.0</ele><time>2026-04-12T07:11:40.225Z</time></trkpt><trkpt lat="43.2535146" lon="13.3187849"><ele>206.0</ele><time>2026-04-12T07:11:41.226Z</time></trkpt><trkpt lat="43.253583" lon="13.3189329"><ele>207.0</ele><time>2026-04-12T07:11:42.225Z</time></trkpt><trkpt lat="43.2536808" lon="13.3190546"><ele>208.0</ele><time>2026-04-12T07:11:43.226Z</time></trkpt><trkpt lat="43.2537979" lon="13.3191599"><ele>209.0</ele><time>2026-04-12T07:11:44.226Z</time></trkpt><trkpt lat="43.2539232" lon="13.3192486"><ele>206.75</ele><time>2026-04-12T07:11:45.225Z</time></trkpt><trkpt lat="43.2540482" lon="13.3193357"><ele>204.5</ele><time>2026-04-12T07:11:46.226Z</time></trkpt><trkpt lat="43.2541686" lon="13.3194187"><ele>202.25</ele><time>2026-04-12T07:11:47.225Z</time></trkpt><trkpt lat="43.254293" lon="13.3194831"><ele>200.0</ele><time>2026-04-12T07:11:48.226Z</time></trkpt><trkpt lat="43.2544245" lon="13.3195146"><ele>200.0</ele><time>2026-04-12T07:11:49.226Z</time></trkpt><trkpt lat="43.2545597" lon="13.3195058"><ele>200.0</ele><time>2026-04-12T07:11:50.225Z</time></trkpt><trkpt lat="43.2546906" lon="13.3194664"><ele>200.0</ele><time>2026-04-12T07:11:51.225Z</time></trkpt><trkpt lat="43.2548242" lon="13.3194"><ele>200.0</ele><time>2026-04-12T07:11:52.225Z</time></trkpt><trkpt lat="43.2549579" lon="13.3193169"><ele>199.75</ele><time>2026-04-12T07:11:53.226Z</time></trkpt><trkpt lat="43.2550929" lon="13.3192318"><ele>199.5</ele><time>2026-04-12T07:11:54.225Z</time></trkpt><trkpt lat="43.2552299" lon="13.3191497"><ele>199.25</ele><time>2026-04-12T07:11:55.226Z</time></trkpt><trkpt lat="43.2553663" lon="13.3190682"><ele>199.0</ele><time>2026-04-12T07:11:56.226Z</time></trkpt><trkpt lat="43.2555022" lon="13.3190035"><ele>198.25</ele><time>2026-04-12T07:11:57.226Z</time></trkpt><trkpt lat="43.2556508" lon="13.318967"><ele>197.5</ele><time>2026-04-12T07:11:58.225Z</time></trkpt><trkpt lat="43.2557971" lon="13.3189509"><ele>196.75</ele><time>2026-04-12T07:11:59.225Z</time></trkpt><trkpt lat="43.2559467" lon="13.3189464"><ele>196.0</ele><time>2026-04-12T07:12:00.226Z</time></trkpt><trkpt lat="43.2560966" lon="13.3189371"><ele>196.0</ele><time>2026-04-12T07:12:01.225Z</time></trkpt><trkpt lat="43.2562508" lon="13.3189238"><ele>196.0</ele><time>2026-04-12T07:12:02.226Z</time></trkpt><trkpt lat="43.2564003" lon="13.3189051"><ele>196.0</ele><time>2026-04-12T07:12:03.226Z</time></trkpt><trkpt lat="43.2565444" lon="13.3188628"><ele>193.66666666666666</ele><time>2026-04-12T07:12:04.226Z</time></trkpt><trkpt lat="43.2566862" lon="13.3187888"><ele>191.33333333333331</ele><time>2026-04-12T07:12:05.225Z</time></trkpt><trkpt lat="43.2568375" lon="13.3186806"><ele>189.0</ele><time>2026-04-12T07:12:06.226Z</time></trkpt><trkpt lat="43.2569974" lon="13.3185559"><ele>189.0</ele><time>2026-04-12T07:12:07.226Z</time></trkpt><trkpt lat="43.257158" lon="13.3184225"><ele>189.0</ele><time>2026-04-12T07:12:08.226Z</time></trkpt><trkpt lat="43.2573114" lon="13.3183031"><ele>189.0</ele><time>2026-04-12T07:12:09.226Z</time></trkpt><trkpt lat="43.2574445" lon="13.3182058"><ele>189.25</ele><time>2026-04-12T07:12:10.226Z</time></trkpt><trkpt lat="43.2575713" lon="13.3181097"><ele>189.5</ele><time>2026-04-12T07:12:11.225Z</time></trkpt><trkpt lat="43.2577021" lon="13.3180083"><ele>189.75</ele><time>2026-04-12T07:12:12.226Z</time></trkpt><trkpt lat="43.2578348" lon="13.3179048"><ele>190.0</ele><time>2026-04-12T07:12:13.226Z</time></trkpt><trkpt lat="43.2579724" lon="13.3177937"><ele>188.33333333333334</ele><time>2026-04-12T07:12:14.226Z</time></trkpt><trkpt lat="43.2581099" lon="13.3176785"><ele>186.66666666666666</ele><time>2026-04-12T07:12:15.226Z</time></trkpt><trkpt lat="43.2582494" lon="13.3175637"><ele>185.0</ele><time>2026-04-12T07:12:16.226Z</time></trkpt><trkpt lat="43.2583834" lon="13.3174448"><ele>185.0</ele><time>2026-04-12T07:12:17.226Z</time></trkpt><trkpt lat="43.2585164" lon="13.3173141"><ele>185.0</ele><time>2026-04-12T07:12:18.226Z</time></trkpt><trkpt lat="43.2586387" lon="13.3171667"><ele>185.0</ele><time>2026-04-12T07:12:19.226Z</time></trkpt><trkpt lat="43.2587481" lon="13.3170054"><ele>184.66666666666666</ele><time>2026-04-12T07:12:20.226Z</time></trkpt><trkpt lat="43.2588476" lon="13.3168316"><ele>184.33333333333334</ele><time>2026-04-12T07:12:21.226Z</time></trkpt><trkpt lat="43.2589287" lon="13.316646"><ele>184.0</ele><time>2026-04-12T07:12:22.225Z</time></trkpt><trkpt lat="43.2589996" lon="13.3164464"><ele>182.66666666666669</ele><time>2026-04-12T07:12:23.226Z</time></trkpt><trkpt lat="43.259058" lon="13.3162493"><ele>181.33333333333334</ele><time>2026-04-12T07:12:24.225Z</time></trkpt><trkpt lat="43.2591058" lon="13.3160445"><ele>180.0</ele><time>2026-04-12T07:12:25.225Z</time></trkpt><trkpt lat="43.2591468" lon="13.3158346"><ele>180.0</ele><time>2026-04-12T07:12:26.226Z</time></trkpt><trkpt lat="43.259173" lon="13.315627"><ele>180.0</ele><time>2026-04-12T07:12:27.226Z</time></trkpt><trkpt lat="43.2592076" lon="13.3154288"><ele>180.0</ele><time>2026-04-12T07:12:28.226Z</time></trkpt><trkpt lat="43.2592652" lon="13.3152461"><ele>180.0</ele><time>2026-04-12T07:12:29.225Z</time></trkpt><trkpt lat="43.2593475" lon="13.3150935"><ele>179.25</ele><time>2026-04-12T07:12:30.226Z</time></trkpt><trkpt lat="43.2594591" lon="13.3149853"><ele>178.5</ele><time>2026-04-12T07:12:31.226Z</time></trkpt><trkpt lat="43.2595926" lon="13.31493"><ele>177.75</ele><time>2026-04-12T07:12:32.226Z</time></trkpt><trkpt lat="43.259734" lon="13.3149134"><ele>177.0</ele><time>2026-04-12T07:12:33.225Z</time></trkpt><trkpt lat="43.2598824" lon="13.314933"><ele>177.0</ele><time>2026-04-12T07:12:34.225Z</time></trkpt><trkpt lat="43.2600296" lon="13.3149632"><ele>177.0</ele><time>2026-04-12T07:12:35.226Z</time></trkpt><trkpt lat="43.2601723" lon="13.3149995"><ele>177.0</ele><time>2026-04-12T07:12:36.225Z</time></trkpt><trkpt lat="43.2603212" lon="13.3150311"><ele>177.0</ele><time>2026-04-12T07:12:37.226Z</time></trkpt><trkpt lat="43.2604718" lon="13.3150544"><ele>175.33333333333334</ele><time>2026-04-12T07:12:38.226Z</time></trkpt><trkpt lat="43.2606264" lon="13.3150834"><ele>173.66666666666669</ele><time>2026-04-12T07:12:39.225Z</time></trkpt><trkpt lat="43.2607756" lon="13.3151189"><ele>172.0</ele><time>2026-04-12T07:12:40.226Z</time></trkpt><trkpt lat="43.2609282" lon="13.3151539"><ele>172.0</ele><time>2026-04-12T07:12:41.226Z</time></trkpt><trkpt lat="43.261083" lon="13.3151938"><ele>172.0</ele><time>2026-04-12T07:12:42.226Z</time></trkpt><trkpt lat="43.2612425" lon="13.3152428"><ele>172.0</ele><time>2026-04-12T07:12:43.225Z</time></trkpt><trkpt lat="43.2613895" lon="13.3153069"><ele>172.33333333333334</ele><time>2026-04-12T07:12:44.226Z</time></trkpt><trkpt lat="43.2615371" lon="13.3154097"><ele>172.66666666666666</ele><time>2026-04-12T07:12:45.226Z</time></trkpt><trkpt lat="43.2616743" lon="13.315543"><ele>173.0</ele><time>2026-04-12T07:12:46.226Z</time></trkpt><trkpt lat="43.2618118" lon="13.3156927"><ele>173.0</ele><time>2026-04-12T07:12:47.226Z</time></trkpt><trkpt lat="43.261954" lon="13.3158371"><ele>173.0</ele><time>2026-04-12T07:12:48.226Z</time></trkpt><trkpt lat="43.2620875" lon="13.3159971"><ele>173.0</ele><time>2026-04-12T07:12:49.225Z</time></trkpt><trkpt lat="43.2622313" lon="13.3161484"><ele>172.66666666666666</ele><time>2026-04-12T07:12:50.225Z</time></trkpt><trkpt lat="43.2623707" lon="13.3163073"><ele>172.33333333333334</ele><time>2026-04-12T07:12:51.226Z</time></trkpt><trkpt lat="43.2625178" lon="13.3164702"><ele>172.0</ele><time>2026-04-12T07:12:52.226Z</time></trkpt><trkpt lat="43.2626698" lon="13.3166388"><ele>171.33333333333334</ele><time>2026-04-12T07:12:53.225Z</time></trkpt><trkpt lat="43.2628249" lon="13.3168035"><ele>170.66666666666666</ele><time>2026-04-12T07:12:54.226Z</time></trkpt><trkpt lat="43.2629746" lon="13.3169787"><ele>170.0</ele><time>2026-04-12T07:12:55.225Z</time></trkpt><trkpt lat="43.2631265" lon="13.3171453"><ele>169.66666666666666</ele><time>2026-04-12T07:12:56.225Z</time></trkpt><trkpt lat="43.2632725" lon="13.3173061"><ele>169.33333333333334</ele><time>2026-04-12T07:12:57.226Z</time></trkpt><trkpt lat="43.2634252" lon="13.3174678"><ele>169.0</ele><time>2026-04-12T07:12:58.226Z</time></trkpt><trkpt lat="43.2635764" lon="13.3176312"><ele>169.0</ele><time>2026-04-12T07:12:59.226Z</time></trkpt><trkpt lat="43.2637251" lon="13.3177902"><ele>169.0</ele><time>2026-04-12T07:13:00.225Z</time></trkpt><trkpt lat="43.2638818" lon="13.3179541"><ele>169.0</ele><time>2026-04-12T07:13:01.226Z</time></trkpt><trkpt lat="43.2640256" lon="13.3181151"><ele>170.66666666666669</ele><time>2026-04-12T07:13:02.226Z</time></trkpt><trkpt lat="43.264164" lon="13.3182597"><ele>172.33333333333334</ele><time>2026-04-12T07:13:03.225Z</time></trkpt><trkpt lat="43.2642976" lon="13.318399"><ele>174.0</ele><time>2026-04-12T07:13:04.226Z</time></trkpt><trkpt lat="43.2644301" lon="13.3185338"><ele>174.0</ele><time>2026-04-12T07:13:05.226Z</time></trkpt><trkpt lat="43.2645605" lon="13.3186645"><ele>174.0</ele><time>2026-04-12T07:13:06.226Z</time></trkpt><trkpt lat="43.26469" lon="13.3187884"><ele>174.0</ele><time>2026-04-12T07:13:07.226Z</time></trkpt><trkpt lat="43.2648202" lon="13.3189185"><ele>174.33333333333334</ele><time>2026-04-12T07:13:08.226Z</time></trkpt><trkpt lat="43.2649486" lon="13.3190405"><ele>174.66666666666669</ele><time>2026-04-12T07:13:09.226Z</time></trkpt><trkpt lat="43.2650738" lon="13.3191648"><ele>175.0</ele><time>2026-04-12T07:13:10.225Z</time></trkpt><trkpt lat="43.265199" lon="13.3192828"><ele>175.0</ele><time>2026-04-12T07:13:11.225Z</time></trkpt><trkpt lat="43.2653311" lon="13.3194003"><ele>175.0</ele><time>2026-04-12T07:13:12.226Z</time></trkpt><trkpt lat="43.2654632" lon="13.3195231"><ele>175.0</ele><time>2026-04-12T07:13:13.225Z</time></trkpt><trkpt lat="43.2656029" lon="13.3196592"><ele>174.66666666666669</ele><time>2026-04-12T07:13:14.226Z</time></trkpt><trkpt lat="43.2657564" lon="13.3197867"><ele>174.33333333333334</ele><time>2026-04-12T07:13:15.226Z</time></trkpt><trkpt lat="43.2659093" lon="13.3199376"><ele>174.0</ele><time>2026-04-12T07:13:16.226Z</time></trkpt><trkpt lat="43.2660829" lon="13.3201008"><ele>174.0</ele><time>2026-04-12T07:13:17.226Z</time></trkpt><trkpt lat="43.2662952" lon="13.3202813"><ele>174.0</ele><time>2026-04-12T07:13:18.225Z</time></trkpt><trkpt lat="43.2664935" lon="13.320457"><ele>175.5</ele><time>2026-04-12T07:13:19.225Z</time></trkpt><trkpt lat="43.2666805" lon="13.3206332"><ele>177.0</ele><time>2026-04-12T07:13:20.225Z</time></trkpt><trkpt lat="43.2668688" lon="13.3208125"><ele>177.0</ele><time>2026-04-12T07:13:21.226Z</time></trkpt><trkpt lat="43.2670522" lon="13.3209875"><ele>177.0</ele><time>2026-04-12T07:13:22.225Z</time></trkpt><trkpt lat="43.2672291" lon="13.321163"><ele>177.0</ele><time>2026-04-12T07:13:23.225Z</time></trkpt><trkpt lat="43.2674044" lon="13.3213371"><ele>176.0</ele><time>2026-04-12T07:13:24.225Z</time></trkpt><trkpt lat="43.2675848" lon="13.3215062"><ele>175.0</ele><time>2026-04-12T07:13:25.225Z</time></trkpt><trkpt lat="43.2677516" lon="13.3216698"><ele>174.0</ele><time>2026-04-12T07:13:26.226Z</time></trkpt><trkpt lat="43.2679232" lon="13.3218363"><ele>174.0</ele><time>2026-04-12T07:13:27.225Z</time></trkpt><trkpt lat="43.2680842" lon="13.3219858"><ele>174.0</ele><time>2026-04-12T07:13:28.226Z</time></trkpt><trkpt lat="43.2682407" lon="13.3221349"><ele>174.0</ele><time>2026-04-12T07:13:29.225Z</time></trkpt><trkpt lat="43.2683939" lon="13.3222828"><ele>174.66666666666666</ele><time>2026-04-12T07:13:30.225Z</time></trkpt><trkpt lat="43.2685414" lon="13.3224238"><ele>175.33333333333331</ele><time>2026-04-12T07:13:31.225Z</time></trkpt><trkpt lat="43.2686906" lon="13.3225565"><ele>176.0</ele><time>2026-04-12T07:13:32.226Z</time></trkpt><trkpt lat="43.2688347" lon="13.3227024"><ele>174.0</ele><time>2026-04-12T07:13:33.225Z</time></trkpt><trkpt lat="43.2689835" lon="13.3228551"><ele>172.0</ele><time>2026-04-12T07:13:34.226Z</time></trkpt><trkpt lat="43.2691288" lon="13.3229791"><ele>170.0</ele><time>2026-04-12T07:13:35.226Z</time></trkpt><trkpt lat="43.2692786" lon="13.3230887"><ele>170.0</ele><time>2026-04-12T07:13:36.225Z</time></trkpt><trkpt lat="43.2694407" lon="13.3231413"><ele>170.0</ele><time>2026-04-12T07:13:37.226Z</time></trkpt><trkpt lat="43.2696078" lon="13.3231759"><ele>170.0</ele><time>2026-04-12T07:13:38.226Z</time></trkpt><trkpt lat="43.2697721" lon="13.3231979"><ele>168.66666666666666</ele><time>2026-04-12T07:13:39.225Z</time></trkpt><trkpt lat="43.2699293" lon="13.3232265"><ele>167.33333333333334</ele><time>2026-04-12T07:13:40.226Z</time></trkpt><trkpt lat="43.2700866" lon="13.3232734"><ele>166.0</ele><time>2026-04-12T07:13:41.225Z</time></trkpt><trkpt lat="43.2702376" lon="13.3233533"><ele>166.0</ele><time>2026-04-12T07:13:42.226Z</time></trkpt><trkpt lat="43.2703823" lon="13.3234757"><ele>166.0</ele><time>2026-04-12T07:13:43.225Z</time></trkpt><trkpt lat="43.2705307" lon="13.3236329"><ele>166.0</ele><time>2026-04-12T07:13:44.225Z</time></trkpt><trkpt lat="43.2706752" lon="13.3237969"><ele>163.66666666666669</ele><time>2026-04-12T07:13:45.226Z</time></trkpt><trkpt lat="43.2708167" lon="13.3239707"><ele>161.33333333333334</ele><time>2026-04-12T07:13:46.226Z</time></trkpt><trkpt lat="43.2709568" lon="13.3241407"><ele>159.0</ele><time>2026-04-12T07:13:47.225Z</time></trkpt><trkpt lat="43.271103" lon="13.3243161"><ele>159.0</ele><time>2026-04-12T07:13:48.226Z</time></trkpt><trkpt lat="43.2712512" lon="13.3244928"><ele>159.0</ele><time>2026-04-12T07:13:49.225Z</time></trkpt><trkpt lat="43.2713954" lon="13.3246644"><ele>159.0</ele><time>2026-04-12T07:13:50.225Z</time></trkpt><trkpt lat="43.2715474" lon="13.3248335"><ele>159.0</ele><time>2026-04-12T07:13:51.226Z</time></trkpt><trkpt lat="43.2717049" lon="13.3250091"><ele>159.0</ele><time>2026-04-12T07:13:52.225Z</time></trkpt><trkpt lat="43.2718551" lon="13.3251832"><ele>159.0</ele><time>2026-04-12T07:13:53.225Z</time></trkpt><trkpt lat="43.2720041" lon="13.3253491"><ele>159.0</ele><time>2026-04-12T07:13:54.226Z</time></trkpt><trkpt lat="43.2721542" lon="13.3255193"><ele>159.0</ele><time>2026-04-12T07:13:55.226Z</time></trkpt><trkpt lat="43.2723113" lon="13.3256865"><ele>159.0</ele><time>2026-04-12T07:13:56.226Z</time></trkpt><trkpt lat="43.2724671" lon="13.3258542"><ele>158.33333333333334</ele><time>2026-04-12T07:13:57.225Z</time></trkpt><trkpt lat="43.2726369" lon="13.3260166"><ele>157.66666666666669</ele><time>2026-04-12T07:13:58.225Z</time></trkpt><trkpt lat="43.2728032" lon="13.326178"><ele>157.0</ele><time>2026-04-12T07:13:59.226Z</time></trkpt><trkpt lat="43.2729594" lon="13.3263465"><ele>155.66666666666669</ele><time>2026-04-12T07:14:00.226Z</time></trkpt><trkpt lat="43.2731159" lon="13.3265124"><ele>154.33333333333334</ele><time>2026-04-12T07:14:01.226Z</time></trkpt><trkpt lat="43.2732703" lon="13.3266818"><ele>153.0</ele><time>2026-04-12T07:14:02.225Z</time></trkpt><trkpt lat="43.273416" lon="13.3268519"><ele>153.0</ele><time>2026-04-12T07:14:03.226Z</time></trkpt><trkpt lat="43.2735448" lon="13.3270395"><ele>153.0</ele><time>2026-04-12T07:14:04.226Z</time></trkpt><trkpt lat="43.2736512" lon="13.3272307"><ele>153.0</ele><time>2026-04-12T07:14:05.226Z</time></trkpt><trkpt lat="43.2737478" lon="13.3274282"><ele>155.0</ele><time>2026-04-12T07:14:06.226Z</time></trkpt><trkpt lat="43.2738225" lon="13.3276408"><ele>157.0</ele><time>2026-04-12T07:14:07.225Z</time></trkpt><trkpt lat="43.2738834" lon="13.3278651"><ele>159.0</ele><time>2026-04-12T07:14:08.226Z</time></trkpt><trkpt lat="43.2739346" lon="13.3281023"><ele>157.0</ele><time>2026-04-12T07:14:09.226Z</time></trkpt><trkpt lat="43.2739847" lon="13.3283417"><ele>155.0</ele><time>2026-04-12T07:14:10.226Z</time></trkpt><trkpt lat="43.2740381" lon="13.328575"><ele>153.0</ele><time>2026-04-12T07:14:11.225Z</time></trkpt><trkpt lat="43.2741021" lon="13.3288036"><ele>154.0</ele><time>2026-04-12T07:14:12.226Z</time></trkpt><trkpt lat="43.2741759" lon="13.3290324"><ele>155.0</ele><time>2026-04-12T07:14:13.226Z</time></trkpt><trkpt lat="43.2742527" lon="13.32926"><ele>156.0</ele><time>2026-04-12T07:14:14.225Z</time></trkpt><trkpt lat="43.2743399" lon="13.3294897"><ele>156.0</ele><time>2026-04-12T07:14:15.225Z</time></trkpt><trkpt lat="43.2744292" lon="13.3297214"><ele>156.0</ele><time>2026-04-12T07:14:16.225Z</time></trkpt><trkpt lat="43.2745119" lon="13.3299526"><ele>156.0</ele><time>2026-04-12T07:14:17.226Z</time></trkpt><trkpt lat="43.2745885" lon="13.3301838"><ele>156.66666666666666</ele><time>2026-04-12T07:14:18.225Z</time></trkpt><trkpt lat="43.2746634" lon="13.3304018"><ele>157.33333333333331</ele><time>2026-04-12T07:14:19.226Z</time></trkpt><trkpt lat="43.2747412" lon="13.33061"><ele>158.0</ele><time>2026-04-12T07:14:20.225Z</time></trkpt><trkpt lat="43.2748193" lon="13.3307945"><ele>156.0</ele><time>2026-04-12T07:14:21.225Z</time></trkpt><trkpt lat="43.2749183" lon="13.3309488"><ele>154.0</ele><time>2026-04-12T07:14:22.225Z</time></trkpt><trkpt lat="43.2750442" lon="13.331072"><ele>152.0</ele><time>2026-04-12T07:14:23.226Z</time></trkpt><trkpt lat="43.2751892" lon="13.331166"><ele>152.0</ele><time>2026-04-12T07:14:24.226Z</time></trkpt><trkpt lat="43.275345" lon="13.3312336"><ele>152.0</ele><time>2026-04-12T07:14:25.226Z</time></trkpt><trkpt lat="43.275503" lon="13.3312979"><ele>152.0</ele><time>2026-04-12T07:14:26.226Z</time></trkpt><trkpt lat="43.2756629" lon="13.3313697"><ele>151.33333333333331</ele><time>2026-04-12T07:14:27.226Z</time></trkpt><trkpt lat="43.2758281" lon="13.3314455"><ele>150.66666666666666</ele><time>2026-04-12T07:14:28.225Z</time></trkpt><trkpt lat="43.2759948" lon="13.3315136"><ele>150.0</ele><time>2026-04-12T07:14:29.225Z</time></trkpt><trkpt lat="43.2761668" lon="13.3315886"><ele>150.0</ele><time>2026-04-12T07:14:30.225Z</time></trkpt><trkpt lat="43.2763414" lon="13.3316652"><ele>150.0</ele><time>2026-04-12T07:14:31.226Z</time></trkpt><trkpt lat="43.2765148" lon="13.3317487"><ele>150.0</ele><time>2026-04-12T07:14:32.226Z</time></trkpt><trkpt lat="43.2766932" lon="13.3318233"><ele>149.33333333333334</ele><time>2026-04-12T07:14:33.225Z</time></trkpt><trkpt lat="43.276867" lon="13.3318995"><ele>148.66666666666669</ele><time>2026-04-12T07:14:34.226Z</time></trkpt><trkpt lat="43.2770419" lon="13.3319656"><ele>148.0</ele><time>2026-04-12T07:14:35.226Z</time></trkpt><trkpt lat="43.2772213" lon="13.3320126"><ele>148.66666666666669</ele><time>2026-04-12T07:14:36.226Z</time></trkpt><trkpt lat="43.2774072" lon="13.3320257"><ele>149.33333333333334</ele><time>2026-04-12T07:14:37.226Z</time></trkpt><trkpt lat="43.2775856" lon="13.3320252"><ele>150.0</ele><time>2026-04-12T07:14:38.226Z</time></trkpt><trkpt lat="43.2777681" lon="13.3320019"><ele>150.0</ele><time>2026-04-12T07:14:39.226Z</time></trkpt><trkpt lat="43.2779583" lon="13.3319695"><ele>150.0</ele><time>2026-04-12T07:14:40.226Z</time></trkpt><trkpt lat="43.2781433" lon="13.331947"><ele>150.0</ele><time>2026-04-12T07:14:41.226Z</time></trkpt><trkpt lat="43.278315" lon="13.3319211"><ele>148.33333333333334</ele><time>2026-04-12T07:14:42.226Z</time></trkpt><trkpt lat="43.2784791" lon="13.3319371"><ele>146.66666666666669</ele><time>2026-04-12T07:14:43.225Z</time></trkpt><trkpt lat="43.2786411" lon="13.3319913"><ele>145.0</ele><time>2026-04-12T07:14:44.226Z</time></trkpt><trkpt lat="43.2787891" lon="13.3320853"><ele>145.0</ele><time>2026-04-12T07:14:45.226Z</time></trkpt><trkpt lat="43.2789155" lon="13.3322132"><ele>145.0</ele><time>2026-04-12T07:14:46.225Z</time></trkpt><trkpt lat="43.2790379" lon="13.3323669"><ele>145.0</ele><time>2026-04-12T07:14:47.226Z</time></trkpt><trkpt lat="43.2791557" lon="13.3325214"><ele>145.33333333333334</ele><time>2026-04-12T07:14:48.225Z</time></trkpt><trkpt lat="43.2792825" lon="13.3326774"><ele>145.66666666666666</ele><time>2026-04-12T07:14:49.226Z</time></trkpt><trkpt lat="43.2794009" lon="13.3328213"><ele>146.0</ele><time>2026-04-12T07:14:50.226Z</time></trkpt><trkpt lat="43.2795092" lon="13.3329714"><ele>146.25</ele><time>2026-04-12T07:14:51.225Z</time></trkpt><trkpt lat="43.2796168" lon="13.3330996"><ele>146.5</ele><time>2026-04-12T07:14:52.226Z</time></trkpt><trkpt lat="43.2797338" lon="13.3332155"><ele>146.75</ele><time>2026-04-12T07:14:53.226Z</time></trkpt><trkpt lat="43.2798671" lon="13.3333094"><ele>147.0</ele><time>2026-04-12T07:14:54.225Z</time></trkpt><trkpt lat="43.2800093" lon="13.3333663"><ele>147.0</ele><time>2026-04-12T07:14:55.226Z</time></trkpt><trkpt lat="43.280159" lon="13.3334025"><ele>147.0</ele><time>2026-04-12T07:14:56.226Z</time></trkpt><trkpt lat="43.2803091" lon="13.3334472"><ele>147.0</ele><time>2026-04-12T07:14:57.225Z</time></trkpt><trkpt lat="43.2804473" lon="13.3335216"><ele>147.0</ele><time>2026-04-12T07:14:58.226Z</time></trkpt><trkpt lat="43.2805776" lon="13.3336226"><ele>147.0</ele><time>2026-04-12T07:14:59.226Z</time></trkpt><trkpt lat="43.2807059" lon="13.3337207"><ele>147.0</ele><time>2026-04-12T07:15:00.226Z</time></trkpt><trkpt lat="43.2808371" lon="13.3338143"><ele>147.0</ele><time>2026-04-12T07:15:01.225Z</time></trkpt><trkpt lat="43.2809717" lon="13.3339042"><ele>147.5</ele><time>2026-04-12T07:15:02.225Z</time></trkpt><trkpt lat="43.2811072" lon="13.3339754"><ele>148.0</ele><time>2026-04-12T07:15:03.226Z</time></trkpt><trkpt lat="43.2812511" lon="13.3340374"><ele>148.5</ele><time>2026-04-12T07:15:04.226Z</time></trkpt><trkpt lat="43.2813915" lon="13.3340955"><ele>149.0</ele><time>2026-04-12T07:15:05.226Z</time></trkpt><trkpt lat="43.2815268" lon="13.3341499"><ele>149.0</ele><time>2026-04-12T07:15:06.225Z</time></trkpt><trkpt lat="43.2816597" lon="13.3342059"><ele>149.0</ele><time>2026-04-12T07:15:07.226Z</time></trkpt><trkpt lat="43.2817854" lon="13.33426"><ele>149.0</ele><time>2026-04-12T07:15:08.225Z</time></trkpt><trkpt lat="43.2819066" lon="13.3343067"><ele>149.0</ele><time>2026-04-12T07:15:09.226Z</time></trkpt><trkpt lat="43.2820227" lon="13.3343409"><ele>149.0</ele><time>2026-04-12T07:15:10.225Z</time></trkpt><trkpt lat="43.2821174" lon="13.3343499"><ele>149.0</ele><time>2026-04-12T07:15:11.226Z</time></trkpt><trkpt lat="43.282197" lon="13.3343548"><ele>149.0</ele><time>2026-04-12T07:15:12.226Z</time></trkpt><trkpt lat="43.2822632" lon="13.3343468"><ele>149.0</ele><time>2026-04-12T07:15:13.225Z</time></trkpt><trkpt lat="43.2823394" lon="13.3343434"><ele>149.0</ele><time>2026-04-12T07:15:15.226Z</time></trkpt><trkpt lat="43.2824033" lon="13.33431"><ele>149.0</ele><time>2026-04-12T07:15:26.226Z</time></trkpt><trkpt lat="43.282495" lon="13.3342533"><ele>148.2</ele><time>2026-04-12T07:15:29.225Z</time></trkpt><trkpt lat="43.2826083" lon="13.3341617"><ele>147.4</ele><time>2026-04-12T07:15:31.225Z</time></trkpt><trkpt lat="43.2826767" lon="13.3341033"><ele>146.6</ele><time>2026-04-12T07:15:32.226Z</time></trkpt><trkpt lat="43.2827533" lon="13.334045"><ele>145.8</ele><time>2026-04-12T07:15:33.225Z</time></trkpt><trkpt lat="43.2828333" lon="13.3339767"><ele>145.0</ele><time>2026-04-12T07:15:34.226Z</time></trkpt><trkpt lat="43.28292" lon="13.3339017"><ele>143.8</ele><time>2026-04-12T07:15:35.225Z</time></trkpt><trkpt lat="43.283015" lon="13.3338217"><ele>142.6</ele><time>2026-04-12T07:15:36.226Z</time></trkpt><trkpt lat="43.2830933" lon="13.3337317"><ele>141.4</ele><time>2026-04-12T07:15:37.226Z</time></trkpt><trkpt lat="43.2831867" lon="13.3336367"><ele>140.2</ele><time>2026-04-12T07:15:38.225Z</time></trkpt><trkpt lat="43.2832717" lon="13.3335417"><ele>139.0</ele><time>2026-04-12T07:15:39.226Z</time></trkpt><trkpt lat="43.28336" lon="13.33346"><ele>138.8</ele><time>2026-04-12T07:15:40.226Z</time></trkpt><trkpt lat="43.2834483" lon="13.3333833"><ele>138.60000000000002</ele><time>2026-04-12T07:15:41.226Z</time></trkpt><trkpt lat="43.2835467" lon="13.3333083"><ele>138.4</ele><time>2026-04-12T07:15:42.226Z</time></trkpt><trkpt lat="43.2836417" lon="13.3332367"><ele>138.20000000000002</ele><time>2026-04-12T07:15:43.226Z</time></trkpt><trkpt lat="43.2837333" lon="13.333175"><ele>138.0</ele><time>2026-04-12T07:15:44.226Z</time></trkpt><trkpt lat="43.28383" lon="13.3331433"><ele>138.75</ele><time>2026-04-12T07:15:45.226Z</time></trkpt><trkpt lat="43.2839367" lon="13.333115"><ele>139.5</ele><time>2026-04-12T07:15:46.226Z</time></trkpt><trkpt lat="43.284055" lon="13.3330733"><ele>140.25</ele><time>2026-04-12T07:15:47.225Z</time></trkpt><trkpt lat="43.28417" lon="13.3330333"><ele>141.0</ele><time>2026-04-12T07:15:48.225Z</time></trkpt><trkpt lat="43.284295" lon="13.333"><ele>141.0</ele><time>2026-04-12T07:15:49.226Z</time></trkpt><trkpt lat="43.2844233" lon="13.332975"><ele>141.0</ele><time>2026-04-12T07:15:50.226Z</time></trkpt><trkpt lat="43.28456" lon="13.3329733"><ele>141.0</ele><time>2026-04-12T07:15:51.225Z</time></trkpt><trkpt lat="43.28471" lon="13.33298"><ele>141.0</ele><time>2026-04-12T07:15:52.226Z</time></trkpt><trkpt lat="43.2848533" lon="13.33301"><ele>141.33333333333334</ele><time>2026-04-12T07:15:53.226Z</time></trkpt><trkpt lat="43.2850167" lon="13.3330483"><ele>141.66666666666669</ele><time>2026-04-12T07:15:54.225Z</time></trkpt><trkpt lat="43.2851767" lon="13.3330683"><ele>142.0</ele><time>2026-04-12T07:15:55.226Z</time></trkpt><trkpt lat="43.2853467" lon="13.33309"><ele>142.0</ele><time>2026-04-12T07:15:56.225Z</time></trkpt><trkpt lat="43.28551" lon="13.333075"><ele>142.0</ele><time>2026-04-12T07:15:57.226Z</time></trkpt><trkpt lat="43.2856633" lon="13.3330417"><ele>142.0</ele><time>2026-04-12T07:15:58.226Z</time></trkpt><trkpt lat="43.2858" lon="13.3329967"><ele>142.75</ele><time>2026-04-12T07:15:59.225Z</time></trkpt><trkpt lat="43.2859317" lon="13.3329333"><ele>143.5</ele><time>2026-04-12T07:16:00.226Z</time></trkpt><trkpt lat="43.286055" lon="13.3328567"><ele>144.25</ele><time>2026-04-12T07:16:01.226Z</time></trkpt><trkpt lat="43.2861683" lon="13.3327883"><ele>145.0</ele><time>2026-04-12T07:16:02.226Z</time></trkpt><trkpt lat="43.2862767" lon="13.33273"><ele>145.0</ele><time>2026-04-12T07:16:03.226Z</time></trkpt><trkpt lat="43.2863833" lon="13.33269"><ele>145.0</ele><time>2026-04-12T07:16:04.225Z</time></trkpt><trkpt lat="43.2864817" lon="13.33268"><ele>145.0</ele><time>2026-04-12T07:16:05.226Z</time></trkpt><trkpt lat="43.286585" lon="13.3326867"><ele>145.0</ele><time>2026-04-12T07:16:06.226Z</time></trkpt><trkpt lat="43.2866817" lon="13.3327117"><ele>145.0</ele><time>2026-04-12T07:16:07.225Z</time></trkpt><trkpt lat="43.2867783" lon="13.3326967"><ele>145.2</ele><time>2026-04-12T07:16:08.225Z</time></trkpt><trkpt lat="43.2868767" lon="13.33267"><ele>145.4</ele><time>2026-04-12T07:16:09.226Z</time></trkpt><trkpt lat="43.286975" lon="13.33265"><ele>145.6</ele><time>2026-04-12T07:16:10.226Z</time></trkpt><trkpt lat="43.28707" lon="13.3326683"><ele>145.8</ele><time>2026-04-12T07:16:11.226Z</time></trkpt><trkpt lat="43.287165" lon="13.332725"><ele>146.0</ele><time>2026-04-12T07:16:12.226Z</time></trkpt><trkpt lat="43.2872533" lon="13.332815"><ele>145.75</ele><time>2026-04-12T07:16:13.226Z</time></trkpt><trkpt lat="43.287335" lon="13.33291"><ele>145.5</ele><time>2026-04-12T07:16:14.226Z</time></trkpt><trkpt lat="43.2874117" lon="13.33302"><ele>145.25</ele><time>2026-04-12T07:16:15.225Z</time></trkpt><trkpt lat="43.28749" lon="13.3331317"><ele>145.0</ele><time>2026-04-12T07:16:16.226Z</time></trkpt><trkpt lat="43.2876133" lon="13.3332717"><ele>144.8</ele><time>2026-04-12T07:16:17.226Z</time></trkpt><trkpt lat="43.2876783" lon="13.3333783"><ele>144.6</ele><time>2026-04-12T07:16:18.226Z</time></trkpt><trkpt lat="43.2877367" lon="13.3334817"><ele>144.4</ele><time>2026-04-12T07:16:19.226Z</time></trkpt><trkpt lat="43.2877917" lon="13.333585"><ele>144.2</ele><time>2026-04-12T07:16:20.226Z</time></trkpt><trkpt lat="43.287835" lon="13.333695"><ele>144.0</ele><time>2026-04-12T07:16:21.226Z</time></trkpt><trkpt lat="43.28786" lon="13.3337983"><ele>144.00000000000003</ele><time>2026-04-12T07:16:22.226Z</time></trkpt><trkpt lat="43.2878933" lon="13.33388"><ele>144.0</ele><time>2026-04-12T07:16:23.226Z</time></trkpt><trkpt lat="43.28793" lon="13.3339517"><ele>144.0</ele><time>2026-04-12T07:16:24.226Z</time></trkpt><trkpt lat="43.2879833" lon="13.3340017"><ele>144.0</ele><time>2026-04-12T07:16:25.225Z</time></trkpt><trkpt lat="43.2880467" lon="13.3340217"><ele>144.0</ele><time>2026-04-12T07:16:26.225Z</time></trkpt><trkpt lat="43.288125" lon="13.3339667"><ele>144.00000000000003</ele><time>2026-04-12T07:16:27.226Z</time></trkpt><trkpt lat="43.2881917" lon="13.3339083"><ele>144.0</ele><time>2026-04-12T07:16:28.226Z</time></trkpt><trkpt lat="43.288255" lon="13.3338333"><ele>144.4</ele><time>2026-04-12T07:16:29.225Z</time></trkpt><trkpt lat="43.2883217" lon="13.3337617"><ele>144.8</ele><time>2026-04-12T07:16:30.226Z</time></trkpt><trkpt lat="43.2884067" lon="13.3336967"><ele>145.2</ele><time>2026-04-12T07:16:31.225Z</time></trkpt><trkpt lat="43.2885133" lon="13.3336467"><ele>145.6</ele><time>2026-04-12T07:16:32.226Z</time></trkpt><trkpt lat="43.2886167" lon="13.33359"><ele>146.0</ele><time>2026-04-12T07:16:33.226Z</time></trkpt><trkpt lat="43.28872" lon="13.3335117"><ele>146.0</ele><time>2026-04-12T07:16:34.226Z</time></trkpt><trkpt lat="43.2888233" lon="13.3334083"><ele>146.0</ele><time>2026-04-12T07:16:35.226Z</time></trkpt><trkpt lat="43.2889217" lon="13.3333"><ele>146.0</ele><time>2026-04-12T07:16:36.225Z</time></trkpt><trkpt lat="43.2890317" lon="13.3331817"><ele>146.0</ele><time>2026-04-12T07:16:37.226Z</time></trkpt><trkpt lat="43.2891583" lon="13.3330583"><ele>147.33333333333331</ele><time>2026-04-12T07:16:38.225Z</time></trkpt><trkpt lat="43.2892833" lon="13.3329383"><ele>148.66666666666666</ele><time>2026-04-12T07:16:39.226Z</time></trkpt><trkpt lat="43.28942" lon="13.3328083"><ele>150.0</ele><time>2026-04-12T07:16:40.225Z</time></trkpt><trkpt lat="43.289555" lon="13.3326867"><ele>150.0</ele><time>2026-04-12T07:16:41.226Z</time></trkpt><trkpt lat="43.2896983" lon="13.332565"><ele>150.0</ele><time>2026-04-12T07:16:42.226Z</time></trkpt><trkpt lat="43.28984" lon="13.3324367"><ele>150.0</ele><time>2026-04-12T07:16:43.225Z</time></trkpt><trkpt lat="43.2899883" lon="13.3323017"><ele>149.33333333333334</ele><time>2026-04-12T07:16:44.226Z</time></trkpt><trkpt lat="43.290135" lon="13.332165"><ele>148.66666666666669</ele><time>2026-04-12T07:16:45.225Z</time></trkpt><trkpt lat="43.2902717" lon="13.3320283"><ele>148.0</ele><time>2026-04-12T07:16:46.226Z</time></trkpt><trkpt lat="43.2903917" lon="13.331895"><ele>148.0</ele><time>2026-04-12T07:16:47.225Z</time></trkpt><trkpt lat="43.2905133" lon="13.3317517"><ele>148.0</ele><time>2026-04-12T07:16:48.226Z</time></trkpt><trkpt lat="43.2906333" lon="13.3315983"><ele>148.0</ele><time>2026-04-12T07:16:49.226Z</time></trkpt><trkpt lat="43.290765" lon="13.33144"><ele>148.33333333333334</ele><time>2026-04-12T07:16:50.226Z</time></trkpt><trkpt lat="43.2908933" lon="13.3312883"><ele>148.66666666666666</ele><time>2026-04-12T07:16:51.225Z</time></trkpt><trkpt lat="43.2910283" lon="13.3311267"><ele>149.0</ele><time>2026-04-12T07:16:52.225Z</time></trkpt><trkpt lat="43.2911717" lon="13.3309683"><ele>149.0</ele><time>2026-04-12T07:16:53.225Z</time></trkpt><trkpt lat="43.2913117" lon="13.3308167"><ele>149.0</ele><time>2026-04-12T07:16:54.225Z</time></trkpt><trkpt lat="43.29146" lon="13.3306583"><ele>149.0</ele><time>2026-04-12T07:16:55.226Z</time></trkpt><trkpt lat="43.2915933" lon="13.3304917"><ele>150.0</ele><time>2026-04-12T07:16:56.226Z</time></trkpt><trkpt lat="43.29173" lon="13.3303283"><ele>151.0</ele><time>2026-04-12T07:16:57.226Z</time></trkpt><trkpt lat="43.2918617" lon="13.3301633"><ele>152.0</ele><time>2026-04-12T07:16:58.226Z</time></trkpt><trkpt lat="43.291995" lon="13.3300083"><ele>152.0</ele><time>2026-04-12T07:16:59.225Z</time></trkpt><trkpt lat="43.29212" lon="13.3298583"><ele>152.0</ele><time>2026-04-12T07:17:00.226Z</time></trkpt><trkpt lat="43.2922483" lon="13.32972"><ele>152.0</ele><time>2026-04-12T07:17:01.226Z</time></trkpt><trkpt lat="43.2923733" lon="13.3295883"><ele>153.75</ele><time>2026-04-12T07:17:02.226Z</time></trkpt><trkpt lat="43.292485" lon="13.329455"><ele>155.5</ele><time>2026-04-12T07:17:03.226Z</time></trkpt><trkpt lat="43.2925917" lon="13.329345"><ele>157.25</ele><time>2026-04-12T07:17:04.226Z</time></trkpt><trkpt lat="43.2926967" lon="13.3292317"><ele>159.0</ele><time>2026-04-12T07:17:05.226Z</time></trkpt><trkpt lat="43.2927817" lon="13.3291067"><ele>159.0</ele><time>2026-04-12T07:17:06.226Z</time></trkpt><trkpt lat="43.29285" lon="13.3289767"><ele>159.0</ele><time>2026-04-12T07:17:07.226Z</time></trkpt><trkpt lat="43.2928867" lon="13.328835"><ele>159.0</ele><time>2026-04-12T07:17:08.226Z</time></trkpt><trkpt lat="43.2928983" lon="13.328685"><ele>159.0</ele><time>2026-04-12T07:17:09.226Z</time></trkpt><trkpt lat="43.2928917" lon="13.3285317"><ele>159.0</ele><time>2026-04-12T07:17:10.225Z</time></trkpt><trkpt lat="43.2928483" lon="13.3283783"><ele>159.75</ele><time>2026-04-12T07:17:11.225Z</time></trkpt><trkpt lat="43.292795" lon="13.328245"><ele>160.5</ele><time>2026-04-12T07:17:12.226Z</time></trkpt><trkpt lat="43.2927317" lon="13.328095"><ele>161.25</ele><time>2026-04-12T07:17:13.226Z</time></trkpt><trkpt lat="43.292655" lon="13.3279467"><ele>162.0</ele><time>2026-04-12T07:17:14.225Z</time></trkpt><trkpt lat="43.29258" lon="13.3277917"><ele>162.0</ele><time>2026-04-12T07:17:15.226Z</time></trkpt><trkpt lat="43.2925183" lon="13.32762"><ele>162.0</ele><time>2026-04-12T07:17:16.226Z</time></trkpt><trkpt lat="43.2924533" lon="13.327435"><ele>162.0</ele><time>2026-04-12T07:17:17.226Z</time></trkpt><trkpt lat="43.292405" lon="13.3272517"><ele>162.0</ele><time>2026-04-12T07:17:18.225Z</time></trkpt><trkpt lat="43.2923633" lon="13.32705"><ele>163.66666666666666</ele><time>2026-04-12T07:17:19.225Z</time></trkpt><trkpt lat="43.2923317" lon="13.32684"><ele>165.33333333333331</ele><time>2026-04-12T07:17:20.225Z</time></trkpt><trkpt lat="43.292325" lon="13.3266033"><ele>167.0</ele><time>2026-04-12T07:17:21.225Z</time></trkpt><trkpt lat="43.2923133" lon="13.326385"><ele>168.66666666666666</ele><time>2026-04-12T07:17:22.226Z</time></trkpt><trkpt lat="43.2923167" lon="13.326165"><ele>170.33333333333334</ele><time>2026-04-12T07:17:23.226Z</time></trkpt><trkpt lat="43.29233" lon="13.3259533"><ele>172.0</ele><time>2026-04-12T07:17:24.226Z</time></trkpt><trkpt lat="43.2923583" lon="13.3257517"><ele>172.0</ele><time>2026-04-12T07:17:25.226Z</time></trkpt><trkpt lat="43.292395" lon="13.3255633"><ele>172.0</ele><time>2026-04-12T07:17:26.226Z</time></trkpt><trkpt lat="43.2924483" lon="13.3253883"><ele>172.0</ele><time>2026-04-12T07:17:27.226Z</time></trkpt><trkpt lat="43.2925067" lon="13.3252017"><ele>172.0</ele><time>2026-04-12T07:17:28.225Z</time></trkpt><trkpt lat="43.2925567" lon="13.3250283"><ele>171.0</ele><time>2026-04-12T07:17:29.226Z</time></trkpt><trkpt lat="43.2926083" lon="13.32487"><ele>170.0</ele><time>2026-04-12T07:17:30.225Z</time></trkpt><trkpt lat="43.29267" lon="13.3247117"><ele>169.0</ele><time>2026-04-12T07:17:31.225Z</time></trkpt><trkpt lat="43.2927433" lon="13.3245767"><ele>168.0</ele><time>2026-04-12T07:17:32.227Z</time></trkpt><trkpt lat="43.2928417" lon="13.3244333"><ele>165.66666666666666</ele><time>2026-04-12T07:17:33.226Z</time></trkpt><trkpt lat="43.2929783" lon="13.3242783"><ele>163.33333333333331</ele><time>2026-04-12T07:17:34.227Z</time></trkpt><trkpt lat="43.29312" lon="13.324125"><ele>161.0</ele><time>2026-04-12T07:17:35.227Z</time></trkpt><trkpt lat="43.29328" lon="13.3239867"><ele>162.0</ele><time>2026-04-12T07:17:36.227Z</time></trkpt><trkpt lat="43.293445" lon="13.323845"><ele>163.0</ele><time>2026-04-12T07:17:37.227Z</time></trkpt><trkpt lat="43.2936267" lon="13.3237083"><ele>164.0</ele><time>2026-04-12T07:17:38.227Z</time></trkpt><trkpt lat="43.2938183" lon="13.323555"><ele>173.5</ele><time>2026-04-12T07:17:39.227Z</time></trkpt><trkpt lat="43.29402" lon="13.323395"><ele>183.0</ele><time>2026-04-12T07:17:40.226Z</time></trkpt><trkpt lat="43.2942217" lon="13.3232267"><ele>177.0</ele><time>2026-04-12T07:17:41.227Z</time></trkpt><trkpt lat="43.2944183" lon="13.3230533"><ele>171.0</ele><time>2026-04-12T07:17:42.227Z</time></trkpt><trkpt lat="43.2946183" lon="13.3228817"><ele>178.0</ele><time>2026-04-12T07:17:43.227Z</time></trkpt><trkpt lat="43.2948133" lon="13.3227083"><ele>185.0</ele><time>2026-04-12T07:17:44.227Z</time></trkpt><trkpt lat="43.2950133" lon="13.3225617"><ele>185.0</ele><time>2026-04-12T07:17:45.227Z</time></trkpt><trkpt lat="43.2952067" lon="13.3224383"><ele>185.0</ele><time>2026-04-12T07:17:46.227Z</time></trkpt><trkpt lat="43.2953767" lon="13.3223067"><ele>185.0</ele><time>2026-04-12T07:17:47.227Z</time></trkpt><trkpt lat="43.2955333" lon="13.3221517"><ele>186.66666666666666</ele><time>2026-04-12T07:17:48.227Z</time></trkpt><trkpt lat="43.29567" lon="13.3219917"><ele>188.33333333333334</ele><time>2026-04-12T07:17:49.226Z</time></trkpt><trkpt lat="43.2958" lon="13.321805"><ele>190.0</ele><time>2026-04-12T07:17:50.227Z</time></trkpt><trkpt lat="43.29592" lon="13.3216233"><ele>190.0</ele><time>2026-04-12T07:17:51.226Z</time></trkpt><trkpt lat="43.2960317" lon="13.3214083"><ele>190.0</ele><time>2026-04-12T07:17:52.227Z</time></trkpt><trkpt lat="43.296115" lon="13.321195"><ele>190.0</ele><time>2026-04-12T07:17:53.227Z</time></trkpt><trkpt lat="43.2962083" lon="13.3209583"><ele>188.33333333333334</ele><time>2026-04-12T07:17:54.227Z</time></trkpt><trkpt lat="43.2962933" lon="13.3207283"><ele>186.66666666666666</ele><time>2026-04-12T07:17:55.226Z</time></trkpt><trkpt lat="43.29638" lon="13.3204883"><ele>185.0</ele><time>2026-04-12T07:17:56.226Z</time></trkpt><trkpt lat="43.2964667" lon="13.3202517"><ele>187.0</ele><time>2026-04-12T07:17:57.227Z</time></trkpt><trkpt lat="43.2965383" lon="13.3200183"><ele>189.0</ele><time>2026-04-12T07:17:58.227Z</time></trkpt><trkpt lat="43.296625" lon="13.3198133"><ele>191.0</ele><time>2026-04-12T07:17:59.227Z</time></trkpt><trkpt lat="43.2967267" lon="13.319625"><ele>191.0</ele><time>2026-04-12T07:18:00.227Z</time></trkpt><trkpt lat="43.2968367" lon="13.3194633"><ele>191.0</ele><time>2026-04-12T07:18:01.227Z</time></trkpt><trkpt lat="43.296955" lon="13.3193267"><ele>191.0</ele><time>2026-04-12T07:18:02.226Z</time></trkpt><trkpt lat="43.2971067" lon="13.3192383"><ele>194.66666666666666</ele><time>2026-04-12T07:18:03.226Z</time></trkpt><trkpt lat="43.2972717" lon="13.3191883"><ele>198.33333333333331</ele><time>2026-04-12T07:18:04.227Z</time></trkpt><trkpt lat="43.2974367" lon="13.319205"><ele>202.0</ele><time>2026-04-12T07:18:05.227Z</time></trkpt><trkpt lat="43.2976017" lon="13.31921"><ele>202.0</ele><time>2026-04-12T07:18:06.227Z</time></trkpt><trkpt lat="43.2977717" lon="13.3191967"><ele>202.0</ele><time>2026-04-12T07:18:07.227Z</time></trkpt><trkpt lat="43.2979467" lon="13.3191717"><ele>202.0</ele><time>2026-04-12T07:18:08.227Z</time></trkpt><trkpt lat="43.2981133" lon="13.3191367"><ele>204.0</ele><time>2026-04-12T07:18:09.226Z</time></trkpt><trkpt lat="43.2982767" lon="13.319085"><ele>206.0</ele><time>2026-04-12T07:18:10.227Z</time></trkpt><trkpt lat="43.2984267" lon="13.3190433"><ele>208.0</ele><time>2026-04-12T07:18:11.226Z</time></trkpt><trkpt lat="43.298565" lon="13.3190167"><ele>208.0</ele><time>2026-04-12T07:18:12.226Z</time></trkpt><trkpt lat="43.2986917" lon="13.31898"><ele>208.0</ele><time>2026-04-12T07:18:13.226Z</time></trkpt><trkpt lat="43.298805" lon="13.3189167"><ele>208.0</ele><time>2026-04-12T07:18:14.226Z</time></trkpt><trkpt lat="43.2988917" lon="13.318825"><ele>208.0</ele><time>2026-04-12T07:18:15.227Z</time></trkpt><trkpt lat="43.2989633" lon="13.31871"><ele>209.75</ele><time>2026-04-12T07:18:16.227Z</time></trkpt><trkpt lat="43.2989917" lon="13.3185533"><ele>211.5</ele><time>2026-04-12T07:18:17.227Z</time></trkpt><trkpt lat="43.2989917" lon="13.3183883"><ele>213.25</ele><time>2026-04-12T07:18:18.226Z</time></trkpt><trkpt lat="43.298965" lon="13.3182333"><ele>215.0</ele><time>2026-04-12T07:18:19.227Z</time></trkpt><trkpt lat="43.298935" lon="13.3180767"><ele>215.5</ele><time>2026-04-12T07:18:20.226Z</time></trkpt><trkpt lat="43.29891" lon="13.317915"><ele>216.0</ele><time>2026-04-12T07:18:21.227Z</time></trkpt><trkpt lat="43.2989" lon="13.3177617"><ele>216.5</ele><time>2026-04-12T07:18:22.226Z</time></trkpt><trkpt lat="43.298925" lon="13.3176033"><ele>217.0</ele><time>2026-04-12T07:18:23.226Z</time></trkpt><trkpt lat="43.29899" lon="13.317475"><ele>217.0</ele><time>2026-04-12T07:18:24.227Z</time></trkpt><trkpt lat="43.2990733" lon="13.317355"><ele>217.0</ele><time>2026-04-12T07:18:25.226Z</time></trkpt><trkpt lat="43.2991783" lon="13.3172333"><ele>217.0</ele><time>2026-04-12T07:18:26.227Z</time></trkpt><trkpt lat="43.2992917" lon="13.31711"><ele>217.0</ele><time>2026-04-12T07:18:27.227Z</time></trkpt><trkpt lat="43.2994033" lon="13.3169817"><ele>216.0</ele><time>2026-04-12T07:18:28.226Z</time></trkpt><trkpt lat="43.2995267" lon="13.3168367"><ele>215.0</ele><time>2026-04-12T07:18:29.227Z</time></trkpt><trkpt lat="43.29965" lon="13.3166833"><ele>214.0</ele><time>2026-04-12T07:18:30.226Z</time></trkpt><trkpt lat="43.2997833" lon="13.31652"><ele>215.66666666666666</ele><time>2026-04-12T07:18:31.227Z</time></trkpt><trkpt lat="43.2999117" lon="13.316355"><ele>217.33333333333331</ele><time>2026-04-12T07:18:32.227Z</time></trkpt><trkpt lat="43.3000483" lon="13.316185"><ele>219.0</ele><time>2026-04-12T07:18:33.227Z</time></trkpt><trkpt lat="43.300185" lon="13.3160117"><ele>219.0</ele><time>2026-04-12T07:18:34.226Z</time></trkpt><trkpt lat="43.3003183" lon="13.3158317"><ele>219.0</ele><time>2026-04-12T07:18:35.227Z</time></trkpt><trkpt lat="43.30047" lon="13.3156683"><ele>219.0</ele><time>2026-04-12T07:18:36.227Z</time></trkpt><trkpt lat="43.3006183" lon="13.3154883"><ele>221.33333333333331</ele><time>2026-04-12T07:18:37.227Z</time></trkpt><trkpt lat="43.3007633" lon="13.3153033"><ele>223.66666666666666</ele><time>2026-04-12T07:18:38.227Z</time></trkpt><trkpt lat="43.3009083" lon="13.3151183"><ele>226.0</ele><time>2026-04-12T07:18:39.226Z</time></trkpt><trkpt lat="43.30105" lon="13.314935"><ele>226.0</ele><time>2026-04-12T07:18:40.227Z</time></trkpt><trkpt lat="43.3011883" lon="13.3147533"><ele>226.0</ele><time>2026-04-12T07:18:41.227Z</time></trkpt><trkpt lat="43.30133" lon="13.3145733"><ele>226.0</ele><time>2026-04-12T07:18:42.227Z</time></trkpt><trkpt lat="43.301475" lon="13.3144017"><ele>228.0</ele><time>2026-04-12T07:18:43.227Z</time></trkpt><trkpt lat="43.3016133" lon="13.3142283"><ele>230.0</ele><time>2026-04-12T07:18:44.226Z</time></trkpt><trkpt lat="43.3017433" lon="13.3140583"><ele>232.0</ele><time>2026-04-12T07:18:45.226Z</time></trkpt><trkpt lat="43.3018633" lon="13.3139"><ele>232.0</ele><time>2026-04-12T07:18:46.227Z</time></trkpt><trkpt lat="43.3019767" lon="13.3137517"><ele>232.0</ele><time>2026-04-12T07:18:47.227Z</time></trkpt><trkpt lat="43.3020983" lon="13.31363"><ele>232.0</ele><time>2026-04-12T07:18:48.227Z</time></trkpt><trkpt lat="43.302245" lon="13.31354"><ele>233.75</ele><time>2026-04-12T07:18:49.227Z</time></trkpt><trkpt lat="43.30238" lon="13.3134933"><ele>235.5</ele><time>2026-04-12T07:18:50.227Z</time></trkpt><trkpt lat="43.30252" lon="13.3134817"><ele>237.25</ele><time>2026-04-12T07:18:51.227Z</time></trkpt><trkpt lat="43.302675" lon="13.3134917"><ele>239.0</ele><time>2026-04-12T07:18:52.227Z</time></trkpt><trkpt lat="43.3028333" lon="13.3134917"><ele>239.0</ele><time>2026-04-12T07:18:53.227Z</time></trkpt><trkpt lat="43.3030333" lon="13.3135233"><ele>239.0</ele><time>2026-04-12T07:18:54.227Z</time></trkpt><trkpt lat="43.3031967" lon="13.3135117"><ele>239.0</ele><time>2026-04-12T07:18:55.227Z</time></trkpt><trkpt lat="43.303345" lon="13.313515"><ele>240.0</ele><time>2026-04-12T07:18:56.227Z</time></trkpt><trkpt lat="43.3034983" lon="13.3134833"><ele>241.0</ele><time>2026-04-12T07:18:57.226Z</time></trkpt><trkpt lat="43.303655" lon="13.313405"><ele>242.0</ele><time>2026-04-12T07:18:58.227Z</time></trkpt><trkpt lat="43.303805" lon="13.3132867"><ele>243.33333333333334</ele><time>2026-04-12T07:18:59.226Z</time></trkpt><trkpt lat="43.3039417" lon="13.31316"><ele>244.66666666666669</ele><time>2026-04-12T07:19:00.227Z</time></trkpt><trkpt lat="43.30409" lon="13.3130317"><ele>246.0</ele><time>2026-04-12T07:19:01.227Z</time></trkpt><trkpt lat="43.304245" lon="13.3129267"><ele>246.0</ele><time>2026-04-12T07:19:02.227Z</time></trkpt><trkpt lat="43.3043933" lon="13.31285"><ele>246.0</ele><time>2026-04-12T07:19:03.226Z</time></trkpt><trkpt lat="43.3045533" lon="13.3128067"><ele>246.0</ele><time>2026-04-12T07:19:04.226Z</time></trkpt><trkpt lat="43.3047217" lon="13.3127867"><ele>247.0</ele><time>2026-04-12T07:19:05.227Z</time></trkpt><trkpt lat="43.3048933" lon="13.3127683"><ele>248.0</ele><time>2026-04-12T07:19:06.227Z</time></trkpt><trkpt lat="43.3050667" lon="13.3127567"><ele>249.0</ele><time>2026-04-12T07:19:07.227Z</time></trkpt><trkpt lat="43.3052267" lon="13.31275"><ele>249.0</ele><time>2026-04-12T07:19:08.226Z</time></trkpt><trkpt lat="43.3053817" lon="13.3127333"><ele>249.0</ele><time>2026-04-12T07:19:09.226Z</time></trkpt><trkpt lat="43.30553" lon="13.31271"><ele>249.0</ele><time>2026-04-12T07:19:10.227Z</time></trkpt><trkpt lat="43.3056517" lon="13.312675"><ele>249.0</ele><time>2026-04-12T07:19:11.227Z</time></trkpt><trkpt lat="43.30576" lon="13.3125883"><ele>251.0</ele><time>2026-04-12T07:19:12.227Z</time></trkpt><trkpt lat="43.3058383" lon="13.312475"><ele>253.0</ele><time>2026-04-12T07:19:13.227Z</time></trkpt><trkpt lat="43.3058817" lon="13.31234"><ele>255.0</ele><time>2026-04-12T07:19:14.227Z</time></trkpt><trkpt lat="43.305895" lon="13.3121883"><ele>257.0</ele><time>2026-04-12T07:19:15.226Z</time></trkpt><trkpt lat="43.3058867" lon="13.3120217"><ele>257.0</ele><time>2026-04-12T07:19:16.226Z</time></trkpt><trkpt lat="43.3058717" lon="13.311835"><ele>257.0</ele><time>2026-04-12T07:19:17.226Z</time></trkpt><trkpt lat="43.3058667" lon="13.3116483"><ele>257.0</ele><time>2026-04-12T07:19:18.227Z</time></trkpt><trkpt lat="43.30587" lon="13.3114683"><ele>257.0</ele><time>2026-04-12T07:19:19.226Z</time></trkpt><trkpt lat="43.3058917" lon="13.3113083"><ele>257.25</ele><time>2026-04-12T07:19:20.226Z</time></trkpt><trkpt lat="43.3059433" lon="13.3111617"><ele>257.5</ele><time>2026-04-12T07:19:21.227Z</time></trkpt><trkpt lat="43.3060233" lon="13.3110483"><ele>257.75</ele><time>2026-04-12T07:19:22.226Z</time></trkpt><trkpt lat="43.3061317" lon="13.3109667"><ele>258.0</ele><time>2026-04-12T07:19:23.227Z</time></trkpt><trkpt lat="43.3062467" lon="13.3108917"><ele>258.0</ele><time>2026-04-12T07:19:24.226Z</time></trkpt><trkpt lat="43.3063767" lon="13.310815"><ele>258.0</ele><time>2026-04-12T07:19:25.227Z</time></trkpt><trkpt lat="43.306495" lon="13.3107333"><ele>258.0</ele><time>2026-04-12T07:19:26.227Z</time></trkpt><trkpt lat="43.3066267" lon="13.3106567"><ele>258.0</ele><time>2026-04-12T07:19:27.227Z</time></trkpt><trkpt lat="43.3067583" lon="13.3105817"><ele>258.75</ele><time>2026-04-12T07:19:28.227Z</time></trkpt><trkpt lat="43.306885" lon="13.3105"><ele>259.5</ele><time>2026-04-12T07:19:29.227Z</time></trkpt><trkpt lat="43.3070033" lon="13.3104467"><ele>260.25</ele><time>2026-04-12T07:19:30.227Z</time></trkpt><trkpt lat="43.3071217" lon="13.3104417"><ele>261.0</ele><time>2026-04-12T07:19:31.226Z</time></trkpt><trkpt lat="43.3072367" lon="13.3104817"><ele>261.0</ele><time>2026-04-12T07:19:32.227Z</time></trkpt><trkpt lat="43.3073483" lon="13.3105517"><ele>261.0</ele><time>2026-04-12T07:19:33.227Z</time></trkpt><trkpt lat="43.3074733" lon="13.3106283"><ele>261.0</ele><time>2026-04-12T07:19:34.227Z</time></trkpt><trkpt lat="43.3076" lon="13.3107167"><ele>261.0</ele><time>2026-04-12T07:19:35.226Z</time></trkpt><trkpt lat="43.3077267" lon="13.310815"><ele>263.5</ele><time>2026-04-12T07:19:36.226Z</time></trkpt><trkpt lat="43.3078617" lon="13.3109033"><ele>266.0</ele><time>2026-04-12T07:19:37.227Z</time></trkpt><trkpt lat="43.3079917" lon="13.311005"><ele>268.5</ele><time>2026-04-12T07:19:38.226Z</time></trkpt><trkpt lat="43.3081217" lon="13.3111"><ele>271.0</ele><time>2026-04-12T07:19:39.227Z</time></trkpt><trkpt lat="43.3082517" lon="13.3111867"><ele>271.0</ele><time>2026-04-12T07:19:40.227Z</time></trkpt><trkpt lat="43.3083767" lon="13.3112533"><ele>271.0</ele><time>2026-04-12T07:19:41.227Z</time></trkpt><trkpt lat="43.308505" lon="13.311285"><ele>271.0</ele><time>2026-04-12T07:19:42.227Z</time></trkpt><trkpt lat="43.308635" lon="13.3112633"><ele>271.0</ele><time>2026-04-12T07:19:43.227Z</time></trkpt><trkpt lat="43.3087517" lon="13.3111883"><ele>271.0</ele><time>2026-04-12T07:19:44.227Z</time></trkpt><trkpt lat="43.3088683" lon="13.311085"><ele>271.0</ele><time>2026-04-12T07:19:45.226Z</time></trkpt><trkpt lat="43.3089933" lon="13.3109733"><ele>271.0</ele><time>2026-04-12T07:19:46.226Z</time></trkpt><trkpt lat="43.309105" lon="13.3108683"><ele>271.0</ele><time>2026-04-12T07:19:47.227Z</time></trkpt><trkpt lat="43.3092133" lon="13.31076"><ele>270.25</ele><time>2026-04-12T07:19:48.227Z</time></trkpt><trkpt lat="43.30932" lon="13.310655"><ele>269.5</ele><time>2026-04-12T07:19:49.227Z</time></trkpt><trkpt lat="43.3094317" lon="13.3105683"><ele>268.75</ele><time>2026-04-12T07:19:50.227Z</time></trkpt><trkpt lat="43.3095367" lon="13.3104733"><ele>268.0</ele><time>2026-04-12T07:19:51.227Z</time></trkpt><trkpt lat="43.30965" lon="13.3104"><ele>270.25</ele><time>2026-04-12T07:19:52.227Z</time></trkpt><trkpt lat="43.309765" lon="13.310345"><ele>272.5</ele><time>2026-04-12T07:19:53.227Z</time></trkpt><trkpt lat="43.3098767" lon="13.31031"><ele>274.75</ele><time>2026-04-12T07:19:54.226Z</time></trkpt><trkpt lat="43.3099867" lon="13.3102833"><ele>277.0</ele><time>2026-04-12T07:19:55.227Z</time></trkpt><trkpt lat="43.310095" lon="13.310275"><ele>277.0</ele><time>2026-04-12T07:19:56.227Z</time></trkpt><trkpt lat="43.3102083" lon="13.310265"><ele>277.0</ele><time>2026-04-12T07:19:57.226Z</time></trkpt><trkpt lat="43.31032" lon="13.310245"><ele>277.0</ele><time>2026-04-12T07:19:58.227Z</time></trkpt><trkpt lat="43.3104333" lon="13.3102317"><ele>277.0</ele><time>2026-04-12T07:19:59.227Z</time></trkpt><trkpt lat="43.310555" lon="13.3102133"><ele>278.0</ele><time>2026-04-12T07:20:00.227Z</time></trkpt><trkpt lat="43.3106833" lon="13.31021"><ele>279.0</ele><time>2026-04-12T07:20:01.227Z</time></trkpt><trkpt lat="43.3108133" lon="13.3101933"><ele>280.0</ele><time>2026-04-12T07:20:02.226Z</time></trkpt><trkpt lat="43.3109433" lon="13.3101733"><ele>281.0</ele><time>2026-04-12T07:20:03.226Z</time></trkpt><trkpt lat="43.311065" lon="13.3101667"><ele>281.0</ele><time>2026-04-12T07:20:04.227Z</time></trkpt><trkpt lat="43.3111967" lon="13.3101533"><ele>281.0</ele><time>2026-04-12T07:20:05.226Z</time></trkpt><trkpt lat="43.3113183" lon="13.3101467"><ele>281.0</ele><time>2026-04-12T07:20:06.226Z</time></trkpt><trkpt lat="43.311435" lon="13.310125"><ele>281.0</ele><time>2026-04-12T07:20:07.227Z</time></trkpt><trkpt lat="43.3115383" lon="13.3101083"><ele>282.2</ele><time>2026-04-12T07:20:08.226Z</time></trkpt><trkpt lat="43.3116483" lon="13.3100967"><ele>283.40000000000003</ele><time>2026-04-12T07:20:09.226Z</time></trkpt><trkpt lat="43.31176" lon="13.310085"><ele>284.6</ele><time>2026-04-12T07:20:10.227Z</time></trkpt><trkpt lat="43.31187" lon="13.310075"><ele>285.8</ele><time>2026-04-12T07:20:11.227Z</time></trkpt><trkpt lat="43.311975" lon="13.3100633"><ele>287.0</ele><time>2026-04-12T07:20:12.227Z</time></trkpt><trkpt lat="43.3120767" lon="13.3100367"><ele>287.0</ele><time>2026-04-12T07:20:13.227Z</time></trkpt><trkpt lat="43.3121833" lon="13.3100217"><ele>287.0</ele><time>2026-04-12T07:20:14.227Z</time></trkpt><trkpt lat="43.3122933" lon="13.3099967"><ele>287.0</ele><time>2026-04-12T07:20:15.226Z</time></trkpt><trkpt lat="43.3123917" lon="13.30997"><ele>287.0</ele><time>2026-04-12T07:20:16.227Z</time></trkpt><trkpt lat="43.3124867" lon="13.3099483"><ele>287.0</ele><time>2026-04-12T07:20:17.226Z</time></trkpt><trkpt lat="43.3125883" lon="13.30992"><ele>287.8</ele><time>2026-04-12T07:20:18.227Z</time></trkpt><trkpt lat="43.3126867" lon="13.3098917"><ele>288.6</ele><time>2026-04-12T07:20:19.227Z</time></trkpt><trkpt lat="43.3127983" lon="13.3098717"><ele>289.40000000000003</ele><time>2026-04-12T07:20:20.227Z</time></trkpt><trkpt lat="43.3129133" lon="13.3098483"><ele>290.2</ele><time>2026-04-12T07:20:21.227Z</time></trkpt><trkpt lat="43.31302" lon="13.3098233"><ele>291.0</ele><time>2026-04-12T07:20:22.227Z</time></trkpt><trkpt lat="43.31312" lon="13.3097867"><ele>290.6666666666667</ele><time>2026-04-12T07:20:23.227Z</time></trkpt><trkpt lat="43.3132033" lon="13.3097767"><ele>290.3333333333333</ele><time>2026-04-12T07:20:24.227Z</time></trkpt><trkpt lat="43.31328" lon="13.309755"><ele>290.0</ele><time>2026-04-12T07:20:25.227Z</time></trkpt><trkpt lat="43.3133467" lon="13.3097417"><ele>289.66666666666663</ele><time>2026-04-12T07:20:26.226Z</time></trkpt><trkpt lat="43.3134433" lon="13.3097167"><ele>289.3333333333333</ele><time>2026-04-12T07:20:28.227Z</time></trkpt><trkpt lat="43.3135417" lon="13.3096467"><ele>289.0</ele><time>2026-04-12T07:20:30.226Z</time></trkpt><trkpt lat="43.3135867" lon="13.3095667"><ele>289.0</ele><time>2026-04-12T07:20:31.227Z</time></trkpt><trkpt lat="43.31362" lon="13.309475"><ele>289.0</ele><time>2026-04-12T07:20:32.227Z</time></trkpt><trkpt lat="43.31365" lon="13.3093633"><ele>289.0</ele><time>2026-04-12T07:20:33.226Z</time></trkpt><trkpt lat="43.3136517" lon="13.30925"><ele>289.0</ele><time>2026-04-12T07:20:34.226Z</time></trkpt><trkpt lat="43.3136467" lon="13.3091333"><ele>289.0</ele><time>2026-04-12T07:20:35.226Z</time></trkpt><trkpt lat="43.3136283" lon="13.3090067"><ele>289.0</ele><time>2026-04-12T07:20:36.226Z</time></trkpt><trkpt lat="43.3136167" lon="13.3088983"><ele>288.66666666666663</ele><time>2026-04-12T07:20:37.226Z</time></trkpt><trkpt lat="43.31359" lon="13.3087917"><ele>288.3333333333333</ele><time>2026-04-12T07:20:38.227Z</time></trkpt><trkpt lat="43.31356" lon="13.3086833"><ele>288.0</ele><time>2026-04-12T07:20:39.227Z</time></trkpt><trkpt lat="43.3135167" lon="13.3085783"><ele>287.6666666666667</ele><time>2026-04-12T07:20:40.227Z</time></trkpt><trkpt lat="43.313455" lon="13.3084767"><ele>287.33333333333337</ele><time>2026-04-12T07:20:41.227Z</time></trkpt><trkpt lat="43.3133833" lon="13.3083833"><ele>287.0</ele><time>2026-04-12T07:20:42.227Z</time></trkpt><trkpt lat="43.3133167" lon="13.3082883"><ele>287.0</ele><time>2026-04-12T07:20:43.226Z</time></trkpt><trkpt lat="43.313245" lon="13.3082033"><ele>287.0</ele><time>2026-04-12T07:20:44.226Z</time></trkpt><trkpt lat="43.3131767" lon="13.3081267"><ele>287.0</ele><time>2026-04-12T07:20:45.227Z</time></trkpt><trkpt lat="43.3131167" lon="13.308045"><ele>287.0</ele><time>2026-04-12T07:20:46.227Z</time></trkpt><trkpt lat="43.3130583" lon="13.3079567"><ele>287.0</ele><time>2026-04-12T07:20:47.227Z</time></trkpt><trkpt lat="43.3129883" lon="13.307875"><ele>287.0</ele><time>2026-04-12T07:20:48.227Z</time></trkpt><trkpt lat="43.3129183" lon="13.3077817"><ele>286.0</ele><time>2026-04-12T07:20:49.227Z</time></trkpt><trkpt lat="43.3128483" lon="13.30768"><ele>285.0</ele><time>2026-04-12T07:20:50.227Z</time></trkpt><trkpt lat="43.312785" lon="13.3075767"><ele>284.0</ele><time>2026-04-12T07:20:51.227Z</time></trkpt><trkpt lat="43.3127067" lon="13.3074833"><ele>283.0</ele><time>2026-04-12T07:20:52.227Z</time></trkpt><trkpt lat="43.31263" lon="13.30739"><ele>282.0</ele><time>2026-04-12T07:20:53.226Z</time></trkpt><trkpt lat="43.312555" lon="13.3073133"><ele>281.3333333333333</ele><time>2026-04-12T07:20:54.226Z</time></trkpt><trkpt lat="43.3124933" lon="13.307235"><ele>280.6666666666667</ele><time>2026-04-12T07:20:55.226Z</time></trkpt><trkpt lat="43.3124383" lon="13.3071483"><ele>280.0</ele><time>2026-04-12T07:20:56.226Z</time></trkpt><trkpt lat="43.3123983" lon="13.3070583"><ele>279.33333333333337</ele><time>2026-04-12T07:20:57.226Z</time></trkpt><trkpt lat="43.31239" lon="13.3069583"><ele>278.6666666666667</ele><time>2026-04-12T07:20:58.227Z</time></trkpt><trkpt lat="43.3124017" lon="13.306865"><ele>278.0</ele><time>2026-04-12T07:20:59.227Z</time></trkpt><trkpt lat="43.3124383" lon="13.3067933"><ele>278.0</ele><time>2026-04-12T07:21:00.227Z</time></trkpt><trkpt lat="43.31249" lon="13.3067433"><ele>278.0</ele><time>2026-04-12T07:21:01.227Z</time></trkpt><trkpt lat="43.3125517" lon="13.3067183"><ele>278.0</ele><time>2026-04-12T07:21:02.227Z</time></trkpt><trkpt lat="43.3126433" lon="13.30665"><ele>278.0</ele><time>2026-04-12T07:21:04.227Z</time></trkpt><trkpt lat="43.312735" lon="13.306565"><ele>278.0</ele><time>2026-04-12T07:21:06.226Z</time></trkpt><trkpt lat="43.3127967" lon="13.306525"><ele>278.0</ele><time>2026-04-12T07:21:07.227Z</time></trkpt><trkpt lat="43.312875" lon="13.3064683"><ele>278.25</ele><time>2026-04-12T07:21:08.227Z</time></trkpt><trkpt lat="43.3129633" lon="13.306405"><ele>278.5</ele><time>2026-04-12T07:21:09.226Z</time></trkpt><trkpt lat="43.313065" lon="13.30634"><ele>278.75</ele><time>2026-04-12T07:21:10.227Z</time></trkpt><trkpt lat="43.31318" lon="13.3063017"><ele>279.0</ele><time>2026-04-12T07:21:11.227Z</time></trkpt><trkpt lat="43.3133117" lon="13.3062983"><ele>279.0</ele><time>2026-04-12T07:21:12.227Z</time></trkpt><trkpt lat="43.3134383" lon="13.30634"><ele>279.0</ele><time>2026-04-12T07:21:13.226Z</time></trkpt><trkpt lat="43.3135633" lon="13.3064283"><ele>279.0</ele><time>2026-04-12T07:21:14.227Z</time></trkpt><trkpt lat="43.3136783" lon="13.3065533"><ele>279.0</ele><time>2026-04-12T07:21:15.227Z</time></trkpt><trkpt lat="43.3137933" lon="13.30669"><ele>275.0</ele><time>2026-04-12T07:21:16.227Z</time></trkpt><trkpt lat="43.313915" lon="13.3068383"><ele>271.0</ele><time>2026-04-12T07:21:17.227Z</time></trkpt><trkpt lat="43.31405" lon="13.306965"><ele>267.0</ele><time>2026-04-12T07:21:18.227Z</time></trkpt><trkpt lat="43.3141883" lon="13.3070933"><ele>267.0</ele><time>2026-04-12T07:21:19.226Z</time></trkpt><trkpt lat="43.3143283" lon="13.3072117"><ele>267.0</ele><time>2026-04-12T07:21:20.227Z</time></trkpt><trkpt lat="43.3144633" lon="13.3073267"><ele>267.0</ele><time>2026-04-12T07:21:21.227Z</time></trkpt><trkpt lat="43.3145883" lon="13.3074383"><ele>267.5</ele><time>2026-04-12T07:21:22.227Z</time></trkpt><trkpt lat="43.3147017" lon="13.3075583"><ele>268.0</ele><time>2026-04-12T07:21:23.227Z</time></trkpt><trkpt lat="43.31479" lon="13.3076917"><ele>268.5</ele><time>2026-04-12T07:21:24.226Z</time></trkpt><trkpt lat="43.314835" lon="13.30783"><ele>269.0</ele><time>2026-04-12T07:21:25.227Z</time></trkpt><trkpt lat="43.3148417" lon="13.30798"><ele>265.0</ele><time>2026-04-12T07:21:26.226Z</time></trkpt><trkpt lat="43.3148183" lon="13.3081383"><ele>261.0</ele><time>2026-04-12T07:21:27.227Z</time></trkpt><trkpt lat="43.3147917" lon="13.3082917"><ele>257.0</ele><time>2026-04-12T07:21:28.226Z</time></trkpt><trkpt lat="43.3147833" lon="13.30844"><ele>253.0</ele><time>2026-04-12T07:21:29.227Z</time></trkpt><trkpt lat="43.3148017" lon="13.3085917"><ele>253.0</ele><time>2026-04-12T07:21:30.226Z</time></trkpt><trkpt lat="43.3148567" lon="13.3087233"><ele>253.0</ele><time>2026-04-12T07:21:31.226Z</time></trkpt><trkpt lat="43.31495" lon="13.30881"><ele>253.0</ele><time>2026-04-12T07:21:32.227Z</time></trkpt><trkpt lat="43.3150683" lon="13.3088617"><ele>253.0</ele><time>2026-04-12T07:21:33.226Z</time></trkpt><trkpt lat="43.3152033" lon="13.3088733"><ele>253.0</ele><time>2026-04-12T07:21:34.227Z</time></trkpt><trkpt lat="43.31534" lon="13.3088417"><ele>253.0</ele><time>2026-04-12T07:21:35.227Z</time></trkpt><trkpt lat="43.3154767" lon="13.3087767"><ele>253.0</ele><time>2026-04-12T07:21:36.226Z</time></trkpt><trkpt lat="43.315605" lon="13.308675"><ele>253.0</ele><time>2026-04-12T07:21:37.226Z</time></trkpt><trkpt lat="43.31573" lon="13.3085667"><ele>250.0</ele><time>2026-04-12T07:21:38.226Z</time></trkpt><trkpt lat="43.3158533" lon="13.3084583"><ele>247.0</ele><time>2026-04-12T07:21:39.227Z</time></trkpt><trkpt lat="43.3159783" lon="13.308365"><ele>244.0</ele><time>2026-04-12T07:21:40.226Z</time></trkpt><trkpt lat="43.316115" lon="13.308305"><ele>241.0</ele><time>2026-04-12T07:21:41.226Z</time></trkpt><trkpt lat="43.31626" lon="13.3082833"><ele>240.0</ele><time>2026-04-12T07:21:42.227Z</time></trkpt><trkpt lat="43.3164117" lon="13.308295"><ele>239.0</ele><time>2026-04-12T07:21:43.227Z</time></trkpt><trkpt lat="43.3165667" lon="13.308325"><ele>238.0</ele><time>2026-04-12T07:21:44.227Z</time></trkpt><trkpt lat="43.3167267" lon="13.3083383"><ele>238.0</ele><time>2026-04-12T07:21:45.227Z</time></trkpt><trkpt lat="43.316885" lon="13.308345"><ele>238.0</ele><time>2026-04-12T07:21:46.226Z</time></trkpt><trkpt lat="43.317045" lon="13.3083517"><ele>238.0</ele><time>2026-04-12T07:21:47.227Z</time></trkpt><trkpt lat="43.31721" lon="13.3083733"><ele>235.0</ele><time>2026-04-12T07:21:48.227Z</time></trkpt><trkpt lat="43.3173717" lon="13.3084167"><ele>232.0</ele><time>2026-04-12T07:21:49.227Z</time></trkpt><trkpt lat="43.3175217" lon="13.308475"><ele>229.0</ele><time>2026-04-12T07:21:50.226Z</time></trkpt><trkpt lat="43.3176667" lon="13.308545"><ele>229.0</ele><time>2026-04-12T07:21:51.226Z</time></trkpt><trkpt lat="43.3178017" lon="13.3086317"><ele>229.0</ele><time>2026-04-12T07:21:52.227Z</time></trkpt><trkpt lat="43.3179117" lon="13.3087417"><ele>229.0</ele><time>2026-04-12T07:21:53.227Z</time></trkpt><trkpt lat="43.318015" lon="13.3088467"><ele>229.0</ele><time>2026-04-12T07:21:54.226Z</time></trkpt><trkpt lat="43.31809" lon="13.3089667"><ele>226.25</ele><time>2026-04-12T07:21:55.227Z</time></trkpt><trkpt lat="43.3181317" lon="13.3091133"><ele>223.5</ele><time>2026-04-12T07:21:56.226Z</time></trkpt><trkpt lat="43.318155" lon="13.30927"><ele>220.75</ele><time>2026-04-12T07:21:57.227Z</time></trkpt><trkpt lat="43.3181833" lon="13.3094433"><ele>218.0</ele><time>2026-04-12T07:21:58.226Z</time></trkpt><trkpt lat="43.3182217" lon="13.3096283"><ele>218.33333333333334</ele><time>2026-04-12T07:21:59.227Z</time></trkpt><trkpt lat="43.3182833" lon="13.3098117"><ele>218.66666666666669</ele><time>2026-04-12T07:22:00.227Z</time></trkpt><trkpt lat="43.31834" lon="13.3100267"><ele>219.0</ele><time>2026-04-12T07:22:01.227Z</time></trkpt><trkpt lat="43.3184117" lon="13.310245"><ele>219.0</ele><time>2026-04-12T07:22:02.226Z</time></trkpt><trkpt lat="43.3184667" lon="13.31046"><ele>219.0</ele><time>2026-04-12T07:22:03.226Z</time></trkpt><trkpt lat="43.3185167" lon="13.3106717"><ele>219.0</ele><time>2026-04-12T07:22:04.227Z</time></trkpt><trkpt lat="43.3185817" lon="13.3108767"><ele>220.0</ele><time>2026-04-12T07:22:05.227Z</time></trkpt><trkpt lat="43.3186817" lon="13.31106"><ele>221.0</ele><time>2026-04-12T07:22:06.226Z</time></trkpt><trkpt lat="43.3187967" lon="13.3112267"><ele>222.0</ele><time>2026-04-12T07:22:07.227Z</time></trkpt><trkpt lat="43.31891" lon="13.311395"><ele>217.75</ele><time>2026-04-12T07:22:08.227Z</time></trkpt><trkpt lat="43.318995" lon="13.31156"><ele>213.5</ele><time>2026-04-12T07:22:09.227Z</time></trkpt><trkpt lat="43.3190367" lon="13.31175"><ele>209.25</ele><time>2026-04-12T07:22:10.227Z</time></trkpt><trkpt lat="43.3190533" lon="13.311925"><ele>205.0</ele><time>2026-04-12T07:22:11.227Z</time></trkpt><trkpt lat="43.3190633" lon="13.3121067"><ele>204.5</ele><time>2026-04-12T07:22:12.227Z</time></trkpt><trkpt lat="43.3190817" lon="13.3122883"><ele>204.0</ele><time>2026-04-12T07:22:13.227Z</time></trkpt><trkpt lat="43.319135" lon="13.3124617"><ele>203.5</ele><time>2026-04-12T07:22:14.227Z</time></trkpt><trkpt lat="43.3192267" lon="13.3126033"><ele>203.0</ele><time>2026-04-12T07:22:15.227Z</time></trkpt><trkpt lat="43.3193333" lon="13.3127533"><ele>203.0</ele><time>2026-04-12T07:22:16.227Z</time></trkpt><trkpt lat="43.319455" lon="13.3129033"><ele>203.0</ele><time>2026-04-12T07:22:17.226Z</time></trkpt><trkpt lat="43.319585" lon="13.3130617"><ele>203.0</ele><time>2026-04-12T07:22:18.227Z</time></trkpt><trkpt lat="43.3197317" lon="13.3131967"><ele>201.66666666666669</ele><time>2026-04-12T07:22:19.226Z</time></trkpt><trkpt lat="43.3198867" lon="13.313325"><ele>200.33333333333331</ele><time>2026-04-12T07:22:20.226Z</time></trkpt><trkpt lat="43.3200517" lon="13.3134583"><ele>199.0</ele><time>2026-04-12T07:22:21.227Z</time></trkpt><trkpt lat="43.32022" lon="13.3136033"><ele>199.0</ele><time>2026-04-12T07:22:22.227Z</time></trkpt><trkpt lat="43.32038" lon="13.3137317"><ele>199.0</ele><time>2026-04-12T07:22:23.227Z</time></trkpt><trkpt lat="43.320545" lon="13.31386"><ele>199.0</ele><time>2026-04-12T07:22:24.227Z</time></trkpt><trkpt lat="43.3207" lon="13.3139933"><ele>199.0</ele><time>2026-04-12T07:22:25.227Z</time></trkpt><trkpt lat="43.320855" lon="13.3141233"><ele>199.0</ele><time>2026-04-12T07:22:26.226Z</time></trkpt><trkpt lat="43.320995" lon="13.3142417"><ele>199.0</ele><time>2026-04-12T07:22:27.227Z</time></trkpt><trkpt lat="43.3211467" lon="13.314335"><ele>199.0</ele><time>2026-04-12T07:22:28.226Z</time></trkpt><trkpt lat="43.3213017" lon="13.3143983"><ele>199.0</ele><time>2026-04-12T07:22:29.226Z</time></trkpt><trkpt lat="43.3214617" lon="13.31442"><ele>199.0</ele><time>2026-04-12T07:22:30.227Z</time></trkpt><trkpt lat="43.3216383" lon="13.314415"><ele>199.33333333333331</ele><time>2026-04-12T07:22:31.226Z</time></trkpt><trkpt lat="43.32182" lon="13.3144067"><ele>199.66666666666669</ele><time>2026-04-12T07:22:32.227Z</time></trkpt><trkpt lat="43.3220067" lon="13.3143933"><ele>200.0</ele><time>2026-04-12T07:22:33.226Z</time></trkpt><trkpt lat="43.3221917" lon="13.3144033"><ele>202.33333333333334</ele><time>2026-04-12T07:22:34.226Z</time></trkpt><trkpt lat="43.3223817" lon="13.3144367"><ele>204.66666666666669</ele><time>2026-04-12T07:22:35.227Z</time></trkpt><trkpt lat="43.3225667" lon="13.3144983"><ele>207.0</ele><time>2026-04-12T07:22:36.227Z</time></trkpt><trkpt lat="43.32274" lon="13.3146017"><ele>207.0</ele><time>2026-04-12T07:22:37.227Z</time></trkpt><trkpt lat="43.322915" lon="13.3147283"><ele>207.0</ele><time>2026-04-12T07:22:38.227Z</time></trkpt><trkpt lat="43.323075" lon="13.3148833"><ele>207.0</ele><time>2026-04-12T07:22:39.227Z</time></trkpt><trkpt lat="43.3232267" lon="13.3150467"><ele>208.33333333333331</ele><time>2026-04-12T07:22:40.226Z</time></trkpt><trkpt lat="43.3233867" lon="13.3152117"><ele>209.66666666666666</ele><time>2026-04-12T07:22:41.227Z</time></trkpt><trkpt lat="43.323555" lon="13.3153583"><ele>211.0</ele><time>2026-04-12T07:22:42.227Z</time></trkpt><trkpt lat="43.3237267" lon="13.3154867"><ele>211.33333333333331</ele><time>2026-04-12T07:22:43.227Z</time></trkpt><trkpt lat="43.3238933" lon="13.31559"><ele>211.66666666666669</ele><time>2026-04-12T07:22:44.226Z</time></trkpt><trkpt lat="43.3240483" lon="13.315705"><ele>212.0</ele><time>2026-04-12T07:22:45.226Z</time></trkpt><trkpt lat="43.3241833" lon="13.3158217"><ele>212.0</ele><time>2026-04-12T07:22:46.227Z</time></trkpt><trkpt lat="43.3243133" lon="13.3159367"><ele>212.0</ele><time>2026-04-12T07:22:47.227Z</time></trkpt><trkpt lat="43.3244517" lon="13.31602"><ele>212.0</ele><time>2026-04-12T07:22:48.227Z</time></trkpt><trkpt lat="43.3245883" lon="13.3160667"><ele>212.0</ele><time>2026-04-12T07:22:49.227Z</time></trkpt><trkpt lat="43.3247333" lon="13.3160733"><ele>213.66666666666669</ele><time>2026-04-12T07:22:50.227Z</time></trkpt><trkpt lat="43.32489" lon="13.316055"><ele>215.33333333333331</ele><time>2026-04-12T07:22:51.227Z</time></trkpt><trkpt lat="43.3250517" lon="13.3160533"><ele>217.0</ele><time>2026-04-12T07:22:52.226Z</time></trkpt><trkpt lat="43.32522" lon="13.3160583"><ele>217.0</ele><time>2026-04-12T07:22:53.226Z</time></trkpt><trkpt lat="43.3254" lon="13.3160617"><ele>217.0</ele><time>2026-04-12T07:22:54.226Z</time></trkpt><trkpt lat="43.32559" lon="13.316075"><ele>217.0</ele><time>2026-04-12T07:22:55.227Z</time></trkpt><trkpt lat="43.3257833" lon="13.3160917"><ele>215.66666666666666</ele><time>2026-04-12T07:22:56.226Z</time></trkpt><trkpt lat="43.3259733" lon="13.3160983"><ele>214.33333333333331</ele><time>2026-04-12T07:22:57.227Z</time></trkpt><trkpt lat="43.3261617" lon="13.3161283"><ele>213.0</ele><time>2026-04-12T07:22:58.227Z</time></trkpt><trkpt lat="43.3263483" lon="13.31617"><ele>209.66666666666669</ele><time>2026-04-12T07:22:59.227Z</time></trkpt><trkpt lat="43.3265383" lon="13.3162"><ele>206.33333333333334</ele><time>2026-04-12T07:23:00.227Z</time></trkpt><trkpt lat="43.32672" lon="13.3162217"><ele>203.0</ele><time>2026-04-12T07:23:01.227Z</time></trkpt><trkpt lat="43.3269" lon="13.3162833"><ele>203.0</ele><time>2026-04-12T07:23:02.227Z</time></trkpt><trkpt lat="43.3270717" lon="13.3163733"><ele>203.0</ele><time>2026-04-12T07:23:03.227Z</time></trkpt><trkpt lat="43.3272317" lon="13.3165033"><ele>203.0</ele><time>2026-04-12T07:23:04.227Z</time></trkpt><trkpt lat="43.3273817" lon="13.316655"><ele>201.33333333333334</ele><time>2026-04-12T07:23:05.226Z</time></trkpt><trkpt lat="43.327515" lon="13.316855"><ele>199.66666666666669</ele><time>2026-04-12T07:23:06.227Z</time></trkpt><trkpt lat="43.3276467" lon="13.317065"><ele>198.0</ele><time>2026-04-12T07:23:07.226Z</time></trkpt><trkpt lat="43.3277767" lon="13.3172783"><ele>197.66666666666669</ele><time>2026-04-12T07:23:08.226Z</time></trkpt><trkpt lat="43.3278933" lon="13.317495"><ele>197.33333333333334</ele><time>2026-04-12T07:23:09.226Z</time></trkpt><trkpt lat="43.3280067" lon="13.3177067"><ele>197.0</ele><time>2026-04-12T07:23:10.227Z</time></trkpt><trkpt lat="43.3281217" lon="13.31792"><ele>198.0</ele><time>2026-04-12T07:23:11.226Z</time></trkpt><trkpt lat="43.3282367" lon="13.3181033"><ele>199.0</ele><time>2026-04-12T07:23:12.227Z</time></trkpt><trkpt lat="43.3283483" lon="13.3182967"><ele>200.0</ele><time>2026-04-12T07:23:13.227Z</time></trkpt><trkpt lat="43.3284733" lon="13.318465"><ele>200.0</ele><time>2026-04-12T07:23:14.227Z</time></trkpt><trkpt lat="43.3285983" lon="13.3185883"><ele>200.0</ele><time>2026-04-12T07:23:15.227Z</time></trkpt><trkpt lat="43.328725" lon="13.3187"><ele>200.0</ele><time>2026-04-12T07:23:16.226Z</time></trkpt><trkpt lat="43.3288767" lon="13.3187833"><ele>201.66666666666669</ele><time>2026-04-12T07:23:17.227Z</time></trkpt><trkpt lat="43.329035" lon="13.31885"><ele>203.33333333333331</ele><time>2026-04-12T07:23:18.227Z</time></trkpt><trkpt lat="43.3292033" lon="13.3189017"><ele>205.0</ele><time>2026-04-12T07:23:19.227Z</time></trkpt><trkpt lat="43.3293683" lon="13.318945"><ele>205.66666666666666</ele><time>2026-04-12T07:23:20.226Z</time></trkpt><trkpt lat="43.32953" lon="13.3189783"><ele>206.33333333333331</ele><time>2026-04-12T07:23:21.227Z</time></trkpt><trkpt lat="43.3296967" lon="13.3190067"><ele>207.0</ele><time>2026-04-12T07:23:22.226Z</time></trkpt><trkpt lat="43.3298667" lon="13.3190333"><ele>208.0</ele><time>2026-04-12T07:23:23.227Z</time></trkpt><trkpt lat="43.330035" lon="13.3190683"><ele>209.0</ele><time>2026-04-12T07:23:24.227Z</time></trkpt><trkpt lat="43.3301967" lon="13.3191"><ele>210.0</ele><time>2026-04-12T07:23:25.226Z</time></trkpt><trkpt lat="43.33036" lon="13.31913"><ele>210.0</ele><time>2026-04-12T07:23:26.227Z</time></trkpt><trkpt lat="43.3305283" lon="13.31915"><ele>210.0</ele><time>2026-04-12T07:23:27.227Z</time></trkpt><trkpt lat="43.3307083" lon="13.3191633"><ele>210.0</ele><time>2026-04-12T07:23:28.227Z</time></trkpt><trkpt lat="43.330895" lon="13.3191617"><ele>210.0</ele><time>2026-04-12T07:23:29.227Z</time></trkpt><trkpt lat="43.3310817" lon="13.3191583"><ele>210.0</ele><time>2026-04-12T07:23:30.227Z</time></trkpt><trkpt lat="43.3312683" lon="13.3191567"><ele>210.0</ele><time>2026-04-12T07:23:31.227Z</time></trkpt><trkpt lat="43.331455" lon="13.3191567"><ele>209.0</ele><time>2026-04-12T07:23:32.226Z</time></trkpt><trkpt lat="43.33164" lon="13.3191467"><ele>208.0</ele><time>2026-04-12T07:23:33.227Z</time></trkpt><trkpt lat="43.33182" lon="13.3191467"><ele>207.0</ele><time>2026-04-12T07:23:34.227Z</time></trkpt><trkpt lat="43.33199" lon="13.319145"><ele>207.0</ele><time>2026-04-12T07:23:35.227Z</time></trkpt><trkpt lat="43.33215" lon="13.3191483"><ele>207.0</ele><time>2026-04-12T07:23:36.227Z</time></trkpt><trkpt lat="43.3323" lon="13.3191533"><ele>207.0</ele><time>2026-04-12T07:23:37.226Z</time></trkpt><trkpt lat="43.33244" lon="13.3191683"><ele>206.8</ele><time>2026-04-12T07:23:38.227Z</time></trkpt><trkpt lat="43.3325733" lon="13.3191933"><ele>206.6</ele><time>2026-04-12T07:23:39.227Z</time></trkpt><trkpt lat="43.332685" lon="13.3192317"><ele>206.4</ele><time>2026-04-12T07:23:40.226Z</time></trkpt><trkpt lat="43.3327783" lon="13.319275"><ele>206.20000000000002</ele><time>2026-04-12T07:23:41.227Z</time></trkpt><trkpt lat="43.332855" lon="13.31932"><ele>206.0</ele><time>2026-04-12T07:23:42.227Z</time></trkpt><trkpt lat="43.3329167" lon="13.3193533"><ele>206.00000000000003</ele><time>2026-04-12T07:23:43.227Z</time></trkpt><trkpt lat="43.33298" lon="13.3193767"><ele>206.0</ele><time>2026-04-12T07:23:44.226Z</time></trkpt><trkpt lat="43.3330517" lon="13.3193717"><ele>206.0</ele><time>2026-04-12T07:23:45.227Z</time></trkpt><trkpt lat="43.3331317" lon="13.3193483"><ele>206.0</ele><time>2026-04-12T07:23:46.227Z</time></trkpt><trkpt lat="43.3332267" lon="13.3193133"><ele>206.00000000000003</ele><time>2026-04-12T07:23:47.227Z</time></trkpt><trkpt lat="43.3333267" lon="13.3192717"><ele>206.0</ele><time>2026-04-12T07:23:48.226Z</time></trkpt><trkpt lat="43.3334367" lon="13.3192217"><ele>206.25</ele><time>2026-04-12T07:23:49.227Z</time></trkpt><trkpt lat="43.3335567" lon="13.3191583"><ele>206.5</ele><time>2026-04-12T07:23:50.227Z</time></trkpt><trkpt lat="43.3336817" lon="13.3190833"><ele>206.75</ele><time>2026-04-12T07:23:51.227Z</time></trkpt><trkpt lat="43.3338017" lon="13.3190067"><ele>207.0</ele><time>2026-04-12T07:23:52.227Z</time></trkpt><trkpt lat="43.3339217" lon="13.3189167"><ele>207.5</ele><time>2026-04-12T07:23:53.226Z</time></trkpt><trkpt lat="43.3340517" lon="13.31881"><ele>208.0</ele><time>2026-04-12T07:23:54.226Z</time></trkpt><trkpt lat="43.33418" lon="13.3187117"><ele>208.5</ele><time>2026-04-12T07:23:55.226Z</time></trkpt><trkpt lat="43.33431" lon="13.318615"><ele>209.0</ele><time>2026-04-12T07:23:56.227Z</time></trkpt><trkpt lat="43.334445" lon="13.3185167"><ele>209.0</ele><time>2026-04-12T07:23:57.227Z</time></trkpt><trkpt lat="43.3345783" lon="13.318425"><ele>209.0</ele><time>2026-04-12T07:23:58.226Z</time></trkpt><trkpt lat="43.33471" lon="13.3183183"><ele>209.0</ele><time>2026-04-12T07:23:59.227Z</time></trkpt><trkpt lat="43.334845" lon="13.3181967"><ele>209.33333333333334</ele><time>2026-04-12T07:24:00.227Z</time></trkpt><trkpt lat="43.3349617" lon="13.3180633"><ele>209.66666666666669</ele><time>2026-04-12T07:24:01.227Z</time></trkpt><trkpt lat="43.3350867" lon="13.317935"><ele>210.0</ele><time>2026-04-12T07:24:02.226Z</time></trkpt><trkpt lat="43.3352133" lon="13.317795"><ele>210.0</ele><time>2026-04-12T07:24:03.227Z</time></trkpt><trkpt lat="43.3353317" lon="13.3176583"><ele>210.0</ele><time>2026-04-12T07:24:04.227Z</time></trkpt><trkpt lat="43.3354483" lon="13.317535"><ele>210.0</ele><time>2026-04-12T07:24:05.227Z</time></trkpt><trkpt lat="43.335555" lon="13.31742"><ele>210.0</ele><time>2026-04-12T07:24:06.227Z</time></trkpt><trkpt lat="43.335675" lon="13.317325"><ele>209.5</ele><time>2026-04-12T07:24:07.227Z</time></trkpt><trkpt lat="43.3357917" lon="13.3172683"><ele>209.0</ele><time>2026-04-12T07:24:08.227Z</time></trkpt><trkpt lat="43.3359083" lon="13.31726"><ele>208.5</ele><time>2026-04-12T07:24:09.227Z</time></trkpt><trkpt lat="43.3360317" lon="13.3172733"><ele>208.0</ele><time>2026-04-12T07:24:10.226Z</time></trkpt><trkpt lat="43.3361633" lon="13.317335"><ele>208.0</ele><time>2026-04-12T07:24:11.227Z</time></trkpt><trkpt lat="43.3363117" lon="13.317395"><ele>208.0</ele><time>2026-04-12T07:24:12.227Z</time></trkpt><trkpt lat="43.336465" lon="13.3174367"><ele>208.0</ele><time>2026-04-12T07:24:13.227Z</time></trkpt><trkpt lat="43.3366233" lon="13.31745"><ele>208.33333333333331</ele><time>2026-04-12T07:24:14.227Z</time></trkpt><trkpt lat="43.3367867" lon="13.31745"><ele>208.66666666666669</ele><time>2026-04-12T07:24:15.227Z</time></trkpt><trkpt lat="43.3369483" lon="13.31744"><ele>209.0</ele><time>2026-04-12T07:24:16.226Z</time></trkpt><trkpt lat="43.3371117" lon="13.3174183"><ele>208.33333333333334</ele><time>2026-04-12T07:24:17.227Z</time></trkpt><trkpt lat="43.3372917" lon="13.3173967"><ele>207.66666666666669</ele><time>2026-04-12T07:24:18.227Z</time></trkpt><trkpt lat="43.3374583" lon="13.31738"><ele>207.0</ele><time>2026-04-12T07:24:19.227Z</time></trkpt><trkpt lat="43.3376183" lon="13.3173583"><ele>207.0</ele><time>2026-04-12T07:24:20.227Z</time></trkpt><trkpt lat="43.33777" lon="13.3173533"><ele>207.0</ele><time>2026-04-12T07:24:21.227Z</time></trkpt><trkpt lat="43.33792" lon="13.3173467"><ele>207.0</ele><time>2026-04-12T07:24:22.227Z</time></trkpt><trkpt lat="43.33807" lon="13.31734"><ele>207.25</ele><time>2026-04-12T07:24:23.227Z</time></trkpt><trkpt lat="43.33821" lon="13.317335"><ele>207.5</ele><time>2026-04-12T07:24:24.227Z</time></trkpt><trkpt lat="43.338345" lon="13.3173233"><ele>207.75</ele><time>2026-04-12T07:24:25.227Z</time></trkpt><trkpt lat="43.3384733" lon="13.3173117"><ele>208.0</ele><time>2026-04-12T07:24:26.227Z</time></trkpt><trkpt lat="43.338575" lon="13.3172967"><ele>207.99999999999997</ele><time>2026-04-12T07:24:27.227Z</time></trkpt><trkpt lat="43.338655" lon="13.31729"><ele>208.0</ele><time>2026-04-12T07:24:28.226Z</time></trkpt><trkpt lat="43.3387183" lon="13.3172917"><ele>208.0</ele><time>2026-04-12T07:24:29.227Z</time></trkpt><trkpt lat="43.3387967" lon="13.3173017"><ele>208.0</ele><time>2026-04-12T07:24:31.227Z</time></trkpt><trkpt lat="43.3388683" lon="13.3173133"><ele>207.99999999999997</ele><time>2026-04-12T07:24:34.226Z</time></trkpt><trkpt lat="43.3389267" lon="13.3172117"><ele>208.0</ele><time>2026-04-12T07:24:36.226Z</time></trkpt><trkpt lat="43.3389467" lon="13.31712"><ele>208.8</ele><time>2026-04-12T07:24:37.227Z</time></trkpt><trkpt lat="43.3389633" lon="13.3170083"><ele>209.60000000000002</ele><time>2026-04-12T07:24:38.227Z</time></trkpt><trkpt lat="43.3389917" lon="13.3168717"><ele>210.39999999999998</ele><time>2026-04-12T07:24:39.227Z</time></trkpt><trkpt lat="43.3390283" lon="13.31671"><ele>211.2</ele><time>2026-04-12T07:24:40.227Z</time></trkpt><trkpt lat="43.3390717" lon="13.31654"><ele>212.0</ele><time>2026-04-12T07:24:41.227Z</time></trkpt><trkpt lat="43.3391183" lon="13.31636"><ele>212.0</ele><time>2026-04-12T07:24:42.226Z</time></trkpt><trkpt lat="43.3391533" lon="13.31617"><ele>212.0</ele><time>2026-04-12T07:24:43.226Z</time></trkpt><trkpt lat="43.3392017" lon="13.3159717"><ele>212.0</ele><time>2026-04-12T07:24:44.227Z</time></trkpt><trkpt lat="43.3392517" lon="13.3157567"><ele>212.0</ele><time>2026-04-12T07:24:45.226Z</time></trkpt><trkpt lat="43.3393083" lon="13.315525"><ele>212.0</ele><time>2026-04-12T07:24:46.227Z</time></trkpt><trkpt lat="43.33936" lon="13.3152817"><ele>212.0</ele><time>2026-04-12T07:24:47.226Z</time></trkpt><trkpt lat="43.3394" lon="13.3150333"><ele>212.0</ele><time>2026-04-12T07:24:48.226Z</time></trkpt><trkpt lat="43.3394183" lon="13.3147667"><ele>212.0</ele><time>2026-04-12T07:24:49.227Z</time></trkpt><trkpt lat="43.3394183" lon="13.3144917"><ele>212.0</ele><time>2026-04-12T07:24:50.227Z</time></trkpt><trkpt lat="43.33941" lon="13.3142067"><ele>212.66666666666669</ele><time>2026-04-12T07:24:51.227Z</time></trkpt><trkpt lat="43.3394133" lon="13.313915"><ele>213.33333333333331</ele><time>2026-04-12T07:24:52.226Z</time></trkpt><trkpt lat="43.3394183" lon="13.3136133"><ele>214.0</ele><time>2026-04-12T07:24:53.226Z</time></trkpt><trkpt lat="43.3394117" lon="13.3133283"><ele>214.5</ele><time>2026-04-12T07:24:54.227Z</time></trkpt><trkpt lat="43.3394083" lon="13.313015"><ele>215.0</ele><time>2026-04-12T07:24:55.226Z</time></trkpt><trkpt lat="43.3394167" lon="13.3127"><ele>215.0</ele><time>2026-04-12T07:24:56.227Z</time></trkpt><trkpt lat="43.3394217" lon="13.3123867"><ele>215.0</ele><time>2026-04-12T07:24:57.227Z</time></trkpt><trkpt lat="43.33943" lon="13.31207"><ele>215.0</ele><time>2026-04-12T07:24:58.227Z</time></trkpt><trkpt lat="43.3394317" lon="13.3117567"><ele>215.0</ele><time>2026-04-12T07:24:59.227Z</time></trkpt><trkpt lat="43.33944" lon="13.3114333"><ele>216.5</ele><time>2026-04-12T07:25:00.227Z</time></trkpt><trkpt lat="43.33945" lon="13.3111167"><ele>218.0</ele><time>2026-04-12T07:25:01.227Z</time></trkpt><trkpt lat="43.3394467" lon="13.3108017"><ele>219.0</ele><time>2026-04-12T07:25:02.227Z</time></trkpt><trkpt lat="43.339445" lon="13.3104867"><ele>220.0</ele><time>2026-04-12T07:25:03.227Z</time></trkpt><trkpt lat="43.339435" lon="13.3101683"><ele>220.0</ele><time>2026-04-12T07:25:04.226Z</time></trkpt><trkpt lat="43.3394233" lon="13.3098617"><ele>220.0</ele><time>2026-04-12T07:25:05.227Z</time></trkpt><trkpt lat="43.3394117" lon="13.3095483"><ele>220.5</ele><time>2026-04-12T07:25:06.227Z</time></trkpt><trkpt lat="43.339405" lon="13.3092333"><ele>221.0</ele><time>2026-04-12T07:25:07.227Z</time></trkpt><trkpt lat="43.3394" lon="13.3089217"><ele>222.0</ele><time>2026-04-12T07:25:08.227Z</time></trkpt><trkpt lat="43.3393917" lon="13.3086083"><ele>223.0</ele><time>2026-04-12T07:25:09.227Z</time></trkpt><trkpt lat="43.3393733" lon="13.3082933"><ele>223.66666666666666</ele><time>2026-04-12T07:25:10.226Z</time></trkpt><trkpt lat="43.3393467" lon="13.3079883"><ele>224.33333333333331</ele><time>2026-04-12T07:25:11.226Z</time></trkpt><trkpt lat="43.3393117" lon="13.3076833"><ele>225.0</ele><time>2026-04-12T07:25:12.226Z</time></trkpt><trkpt lat="43.3392667" lon="13.307395"><ele>225.33333333333331</ele><time>2026-04-12T07:25:13.227Z</time></trkpt><trkpt lat="43.3392317" lon="13.3071083"><ele>225.66666666666666</ele><time>2026-04-12T07:25:14.227Z</time></trkpt><trkpt lat="43.3392017" lon="13.306825"><ele>226.0</ele><time>2026-04-12T07:25:15.226Z</time></trkpt><trkpt lat="43.33918" lon="13.30653"><ele>226.33333333333331</ele><time>2026-04-12T07:25:16.227Z</time></trkpt><trkpt lat="43.3391667" lon="13.306225"><ele>226.66666666666669</ele><time>2026-04-12T07:25:17.227Z</time></trkpt><trkpt lat="43.33915" lon="13.305925"><ele>227.0</ele><time>2026-04-12T07:25:18.227Z</time></trkpt><trkpt lat="43.3391433" lon="13.3056217"><ele>228.33333333333334</ele><time>2026-04-12T07:25:19.227Z</time></trkpt><trkpt lat="43.3391467" lon="13.30532"><ele>229.66666666666669</ele><time>2026-04-12T07:25:20.226Z</time></trkpt><trkpt lat="43.3391583" lon="13.30502"><ele>231.0</ele><time>2026-04-12T07:25:21.227Z</time></trkpt><trkpt lat="43.3391833" lon="13.3047233"><ele>231.33333333333331</ele><time>2026-04-12T07:25:22.227Z</time></trkpt><trkpt lat="43.33921" lon="13.3044317"><ele>231.66666666666666</ele><time>2026-04-12T07:25:23.227Z</time></trkpt><trkpt lat="43.3392283" lon="13.304145"><ele>232.0</ele><time>2026-04-12T07:25:24.227Z</time></trkpt><trkpt lat="43.3392517" lon="13.3038433"><ele>232.0</ele><time>2026-04-12T07:25:25.227Z</time></trkpt><trkpt lat="43.33927" lon="13.3035467"><ele>232.0</ele><time>2026-04-12T07:25:26.226Z</time></trkpt><trkpt lat="43.339295" lon="13.303245"><ele>232.0</ele><time>2026-04-12T07:25:27.226Z</time></trkpt><trkpt lat="43.33933" lon="13.3029467"><ele>233.0</ele><time>2026-04-12T07:25:28.226Z</time></trkpt><trkpt lat="43.3393667" lon="13.3026517"><ele>234.0</ele><time>2026-04-12T07:25:29.226Z</time></trkpt><trkpt lat="43.3394017" lon="13.30236"><ele>235.0</ele><time>2026-04-12T07:25:30.226Z</time></trkpt><trkpt lat="43.3394333" lon="13.3020617"><ele>235.0</ele><time>2026-04-12T07:25:31.226Z</time></trkpt><trkpt lat="43.339455" lon="13.301765"><ele>235.0</ele><time>2026-04-12T07:25:32.227Z</time></trkpt><trkpt lat="43.3394733" lon="13.3014633"><ele>235.0</ele><time>2026-04-12T07:25:33.227Z</time></trkpt><trkpt lat="43.3394867" lon="13.3011583"><ele>235.66666666666666</ele><time>2026-04-12T07:25:34.227Z</time></trkpt><trkpt lat="43.3395" lon="13.3008533"><ele>236.33333333333331</ele><time>2026-04-12T07:25:35.227Z</time></trkpt><trkpt lat="43.3395067" lon="13.30055"><ele>237.0</ele><time>2026-04-12T07:25:36.227Z</time></trkpt><trkpt lat="43.3395183" lon="13.30024"><ele>237.5</ele><time>2026-04-12T07:25:37.227Z</time></trkpt><trkpt lat="43.33954" lon="13.2999267"><ele>238.0</ele><time>2026-04-12T07:25:38.227Z</time></trkpt><trkpt lat="43.339575" lon="13.2996183"><ele>238.0</ele><time>2026-04-12T07:25:39.227Z</time></trkpt><trkpt lat="43.3396183" lon="13.299325"><ele>238.0</ele><time>2026-04-12T07:25:40.227Z</time></trkpt><trkpt lat="43.3396667" lon="13.2990233"><ele>238.0</ele><time>2026-04-12T07:25:41.227Z</time></trkpt><trkpt lat="43.3397217" lon="13.2987133"><ele>239.0</ele><time>2026-04-12T07:25:42.227Z</time></trkpt><trkpt lat="43.3397767" lon="13.2984083"><ele>240.0</ele><time>2026-04-12T07:25:43.226Z</time></trkpt><trkpt lat="43.3398333" lon="13.2981"><ele>241.5</ele><time>2026-04-12T07:25:44.226Z</time></trkpt><trkpt lat="43.3398733" lon="13.2977833"><ele>243.0</ele><time>2026-04-12T07:25:45.227Z</time></trkpt><trkpt lat="43.33991" lon="13.2974717"><ele>243.0</ele><time>2026-04-12T07:25:46.226Z</time></trkpt><trkpt lat="43.3399467" lon="13.29716"><ele>243.0</ele><time>2026-04-12T07:25:47.226Z</time></trkpt><trkpt lat="43.3399833" lon="13.296845"><ele>243.0</ele><time>2026-04-12T07:25:48.226Z</time></trkpt><trkpt lat="43.3400017" lon="13.2965267"><ele>243.0</ele><time>2026-04-12T07:25:49.227Z</time></trkpt><trkpt lat="43.3400117" lon="13.2962017"><ele>244.0</ele><time>2026-04-12T07:25:50.226Z</time></trkpt><trkpt lat="43.34002" lon="13.295875"><ele>245.0</ele><time>2026-04-12T07:25:51.227Z</time></trkpt><trkpt lat="43.3400267" lon="13.29554"><ele>245.5</ele><time>2026-04-12T07:25:52.227Z</time></trkpt><trkpt lat="43.340035" lon="13.2952"><ele>246.0</ele><time>2026-04-12T07:25:53.227Z</time></trkpt><trkpt lat="43.3400317" lon="13.2948633"><ele>247.0</ele><time>2026-04-12T07:25:54.226Z</time></trkpt><trkpt lat="43.34005" lon="13.2945217"><ele>248.0</ele><time>2026-04-12T07:25:55.227Z</time></trkpt><trkpt lat="43.3400767" lon="13.2941833"><ele>248.0</ele><time>2026-04-12T07:25:56.227Z</time></trkpt><trkpt lat="43.3401033" lon="13.2938567"><ele>248.0</ele><time>2026-04-12T07:25:57.226Z</time></trkpt><trkpt lat="43.3401467" lon="13.2935383"><ele>248.0</ele><time>2026-04-12T07:25:58.227Z</time></trkpt><trkpt lat="43.3401817" lon="13.2932183"><ele>248.0</ele><time>2026-04-12T07:25:59.226Z</time></trkpt><trkpt lat="43.34022" lon="13.2929"><ele>249.0</ele><time>2026-04-12T07:26:00.227Z</time></trkpt><trkpt lat="43.3402417" lon="13.2925833"><ele>250.0</ele><time>2026-04-12T07:26:01.226Z</time></trkpt><trkpt lat="43.3402667" lon="13.292275"><ele>250.0</ele><time>2026-04-12T07:26:02.226Z</time></trkpt><trkpt lat="43.3402817" lon="13.2919867"><ele>250.0</ele><time>2026-04-12T07:26:03.226Z</time></trkpt><trkpt lat="43.3402983" lon="13.2916917"><ele>250.0</ele><time>2026-04-12T07:26:04.227Z</time></trkpt><trkpt lat="43.3403333" lon="13.291395"><ele>249.66666666666666</ele><time>2026-04-12T07:26:05.227Z</time></trkpt><trkpt lat="43.3403833" lon="13.2910967"><ele>249.33333333333331</ele><time>2026-04-12T07:26:06.227Z</time></trkpt><trkpt lat="43.3404467" lon="13.2908"><ele>249.0</ele><time>2026-04-12T07:26:07.227Z</time></trkpt><trkpt lat="43.34051" lon="13.2905033"><ele>252.5</ele><time>2026-04-12T07:26:08.227Z</time></trkpt><trkpt lat="43.3405817" lon="13.2902017"><ele>256.0</ele><time>2026-04-12T07:26:09.226Z</time></trkpt><trkpt lat="43.3406517" lon="13.2899017"><ele>256.5</ele><time>2026-04-12T07:26:10.227Z</time></trkpt><trkpt lat="43.3407233" lon="13.2896"><ele>257.0</ele><time>2026-04-12T07:26:11.227Z</time></trkpt><trkpt lat="43.3407967" lon="13.2892933"><ele>257.0</ele><time>2026-04-12T07:26:12.227Z</time></trkpt><trkpt lat="43.34087" lon="13.2889817"><ele>257.0</ele><time>2026-04-12T07:26:13.227Z</time></trkpt><trkpt lat="43.3409383" lon="13.2886817"><ele>257.5</ele><time>2026-04-12T07:26:14.227Z</time></trkpt><trkpt lat="43.341005" lon="13.2883733"><ele>258.0</ele><time>2026-04-12T07:26:15.227Z</time></trkpt><trkpt lat="43.34107" lon="13.28807"><ele>258.0</ele><time>2026-04-12T07:26:16.227Z</time></trkpt><trkpt lat="43.3411383" lon="13.2877633"><ele>258.0</ele><time>2026-04-12T07:26:17.227Z</time></trkpt><trkpt lat="43.3412033" lon="13.2874567"><ele>257.0</ele><time>2026-04-12T07:26:18.227Z</time></trkpt><trkpt lat="43.34127" lon="13.2871567"><ele>256.0</ele><time>2026-04-12T07:26:19.228Z</time></trkpt><trkpt lat="43.3413367" lon="13.2868517"><ele>260.0</ele><time>2026-04-12T07:26:20.228Z</time></trkpt><trkpt lat="43.3414033" lon="13.2865467"><ele>264.0</ele><time>2026-04-12T07:26:21.228Z</time></trkpt><trkpt lat="43.3414683" lon="13.286235"><ele>265.0</ele><time>2026-04-12T07:26:22.227Z</time></trkpt><trkpt lat="43.341525" lon="13.2859267"><ele>266.0</ele><time>2026-04-12T07:26:23.228Z</time></trkpt><trkpt lat="43.3415883" lon="13.2856217"><ele>266.0</ele><time>2026-04-12T07:26:24.228Z</time></trkpt><trkpt lat="43.3416517" lon="13.2853183"><ele>266.0</ele><time>2026-04-12T07:26:25.228Z</time></trkpt><trkpt lat="43.3417217" lon="13.2850117"><ele>265.5</ele><time>2026-04-12T07:26:26.227Z</time></trkpt><trkpt lat="43.3417917" lon="13.2847083"><ele>265.0</ele><time>2026-04-12T07:26:27.228Z</time></trkpt><trkpt lat="43.3418617" lon="13.2843983"><ele>265.0</ele><time>2026-04-12T07:26:28.227Z</time></trkpt><trkpt lat="43.34194" lon="13.2840917"><ele>265.0</ele><time>2026-04-12T07:26:29.228Z</time></trkpt><trkpt lat="43.3420233" lon="13.2837833"><ele>265.5</ele><time>2026-04-12T07:26:30.228Z</time></trkpt><trkpt lat="43.342105" lon="13.2834833"><ele>266.0</ele><time>2026-04-12T07:26:31.228Z</time></trkpt><trkpt lat="43.3421933" lon="13.2831783"><ele>272.5</ele><time>2026-04-12T07:26:32.227Z</time></trkpt><trkpt lat="43.34229" lon="13.2828667"><ele>279.0</ele><time>2026-04-12T07:26:33.228Z</time></trkpt><trkpt lat="43.3423783" lon="13.2825717"><ele>279.0</ele><time>2026-04-12T07:26:34.227Z</time></trkpt><trkpt lat="43.342475" lon="13.2822683"><ele>279.0</ele><time>2026-04-12T07:26:35.228Z</time></trkpt><trkpt lat="43.3425717" lon="13.28197"><ele>279.5</ele><time>2026-04-12T07:26:36.228Z</time></trkpt><trkpt lat="43.3426583" lon="13.2816667"><ele>280.0</ele><time>2026-04-12T07:26:37.227Z</time></trkpt><trkpt lat="43.3427317" lon="13.281365"><ele>280.5</ele><time>2026-04-12T07:26:38.228Z</time></trkpt><trkpt lat="43.3428" lon="13.2810567"><ele>281.0</ele><time>2026-04-12T07:26:39.228Z</time></trkpt><trkpt lat="43.342855" lon="13.2807583"><ele>281.6666666666667</ele><time>2026-04-12T07:26:40.228Z</time></trkpt><trkpt lat="43.3428933" lon="13.280455"><ele>282.3333333333333</ele><time>2026-04-12T07:26:41.228Z</time></trkpt><trkpt lat="43.3429317" lon="13.2801617"><ele>283.0</ele><time>2026-04-12T07:26:42.227Z</time></trkpt><trkpt lat="43.3429517" lon="13.27987"><ele>283.66666666666663</ele><time>2026-04-12T07:26:43.228Z</time></trkpt><trkpt lat="43.34298" lon="13.2795967"><ele>284.3333333333333</ele><time>2026-04-12T07:26:44.228Z</time></trkpt><trkpt lat="43.3430333" lon="13.27933"><ele>285.0</ele><time>2026-04-12T07:26:45.227Z</time></trkpt><trkpt lat="43.343085" lon="13.279065"><ele>290.3333333333333</ele><time>2026-04-12T07:26:46.228Z</time></trkpt><trkpt lat="43.3431217" lon="13.2788033"><ele>295.66666666666663</ele><time>2026-04-12T07:26:47.228Z</time></trkpt><trkpt lat="43.3431383" lon="13.278535"><ele>301.0</ele><time>2026-04-12T07:26:48.228Z</time></trkpt><trkpt lat="43.343155" lon="13.2782667"><ele>301.3333333333333</ele><time>2026-04-12T07:26:49.228Z</time></trkpt><trkpt lat="43.3431783" lon="13.2779967"><ele>301.6666666666667</ele><time>2026-04-12T07:26:50.227Z</time></trkpt><trkpt lat="43.343215" lon="13.27773"><ele>302.0</ele><time>2026-04-12T07:26:51.227Z</time></trkpt><trkpt lat="43.34325" lon="13.277475"><ele>302.33333333333337</ele><time>2026-04-12T07:26:52.227Z</time></trkpt><trkpt lat="43.3432883" lon="13.2772117"><ele>302.6666666666667</ele><time>2026-04-12T07:26:53.228Z</time></trkpt><trkpt lat="43.3433283" lon="13.2769367"><ele>303.0</ele><time>2026-04-12T07:26:54.228Z</time></trkpt><trkpt lat="43.3433767" lon="13.2766583"><ele>302.3333333333333</ele><time>2026-04-12T07:26:55.228Z</time></trkpt><trkpt lat="43.3434333" lon="13.2764167"><ele>301.66666666666663</ele><time>2026-04-12T07:26:56.227Z</time></trkpt><trkpt lat="43.343475" lon="13.2761717"><ele>301.0</ele><time>2026-04-12T07:26:57.228Z</time></trkpt><trkpt lat="43.3435317" lon="13.275945"><ele>301.0</ele><time>2026-04-12T07:26:58.227Z</time></trkpt><trkpt lat="43.3435983" lon="13.27575"><ele>301.0</ele><time>2026-04-12T07:26:59.228Z</time></trkpt><trkpt lat="43.3436817" lon="13.2755683"><ele>301.0</ele><time>2026-04-12T07:27:00.228Z</time></trkpt><trkpt lat="43.3437767" lon="13.275395"><ele>301.5</ele><time>2026-04-12T07:27:01.228Z</time></trkpt><trkpt lat="43.3438683" lon="13.2752283"><ele>302.0</ele><time>2026-04-12T07:27:02.228Z</time></trkpt><trkpt lat="43.3439833" lon="13.2750767"><ele>302.5</ele><time>2026-04-12T07:27:03.228Z</time></trkpt><trkpt lat="43.3440817" lon="13.274945"><ele>303.0</ele><time>2026-04-12T07:27:04.228Z</time></trkpt><trkpt lat="43.344175" lon="13.274825"><ele>305.25</ele><time>2026-04-12T07:27:05.228Z</time></trkpt><trkpt lat="43.3442783" lon="13.2747067"><ele>307.5</ele><time>2026-04-12T07:27:06.228Z</time></trkpt><trkpt lat="43.3443717" lon="13.2745783"><ele>309.75</ele><time>2026-04-12T07:27:07.228Z</time></trkpt><trkpt lat="43.3444733" lon="13.2744467"><ele>312.0</ele><time>2026-04-12T07:27:08.227Z</time></trkpt><trkpt lat="43.3445883" lon="13.2743133"><ele>312.0</ele><time>2026-04-12T07:27:09.227Z</time></trkpt><trkpt lat="43.3447033" lon="13.27416"><ele>312.0</ele><time>2026-04-12T07:27:10.228Z</time></trkpt><trkpt lat="43.3448367" lon="13.2740233"><ele>312.0</ele><time>2026-04-12T07:27:11.228Z</time></trkpt><trkpt lat="43.3449633" lon="13.27388"><ele>312.0</ele><time>2026-04-12T07:27:12.228Z</time></trkpt><trkpt lat="43.345095" lon="13.2737267"><ele>312.0</ele><time>2026-04-12T07:27:13.227Z</time></trkpt><trkpt lat="43.345235" lon="13.2735733"><ele>312.0</ele><time>2026-04-12T07:27:14.227Z</time></trkpt><trkpt lat="43.345365" lon="13.27342"><ele>312.0</ele><time>2026-04-12T07:27:15.228Z</time></trkpt><trkpt lat="43.3454983" lon="13.273265"><ele>312.0</ele><time>2026-04-12T07:27:16.228Z</time></trkpt><trkpt lat="43.345635" lon="13.273115"><ele>312.0</ele><time>2026-04-12T07:27:17.227Z</time></trkpt><trkpt lat="43.345765" lon="13.2729583"><ele>312.0</ele><time>2026-04-12T07:27:18.228Z</time></trkpt><trkpt lat="43.345895" lon="13.2727983"><ele>312.0</ele><time>2026-04-12T07:27:19.228Z</time></trkpt><trkpt lat="43.3460267" lon="13.27264"><ele>312.0</ele><time>2026-04-12T07:27:20.228Z</time></trkpt><trkpt lat="43.3461633" lon="13.2724783"><ele>312.0</ele><time>2026-04-12T07:27:21.228Z</time></trkpt><trkpt lat="43.346305" lon="13.272315"><ele>312.0</ele><time>2026-04-12T07:27:22.228Z</time></trkpt><trkpt lat="43.3464467" lon="13.2721533"><ele>312.0</ele><time>2026-04-12T07:27:23.228Z</time></trkpt><trkpt lat="43.3465833" lon="13.27199"><ele>311.6666666666667</ele><time>2026-04-12T07:27:24.228Z</time></trkpt><trkpt lat="43.3467133" lon="13.2718233"><ele>311.33333333333337</ele><time>2026-04-12T07:27:25.228Z</time></trkpt><trkpt lat="43.3468483" lon="13.2716567"><ele>311.0</ele><time>2026-04-12T07:27:26.228Z</time></trkpt><trkpt lat="43.3469967" lon="13.2714917"><ele>311.0</ele><time>2026-04-12T07:27:27.228Z</time></trkpt><trkpt lat="43.347145" lon="13.271325"><ele>311.0</ele><time>2026-04-12T07:27:28.228Z</time></trkpt><trkpt lat="43.347295" lon="13.2711483"><ele>311.0</ele><time>2026-04-12T07:27:29.228Z</time></trkpt><trkpt lat="43.3474417" lon="13.270985"><ele>311.0</ele><time>2026-04-12T07:27:30.227Z</time></trkpt><trkpt lat="43.3475833" lon="13.2708217"><ele>311.0</ele><time>2026-04-12T07:27:31.228Z</time></trkpt><trkpt lat="43.3477167" lon="13.2706533"><ele>311.0</ele><time>2026-04-12T07:27:32.228Z</time></trkpt><trkpt lat="43.3478383" lon="13.270485"><ele>311.6666666666667</ele><time>2026-04-12T07:27:33.228Z</time></trkpt><trkpt lat="43.3479433" lon="13.2702933"><ele>312.3333333333333</ele><time>2026-04-12T07:27:34.227Z</time></trkpt><trkpt lat="43.3480383" lon="13.27008"><ele>313.0</ele><time>2026-04-12T07:27:35.227Z</time></trkpt><trkpt lat="43.3481167" lon="13.2698617"><ele>313.0</ele><time>2026-04-12T07:27:36.228Z</time></trkpt><trkpt lat="43.348185" lon="13.2696383"><ele>313.0</ele><time>2026-04-12T07:27:37.228Z</time></trkpt><trkpt lat="43.3482467" lon="13.2694167"><ele>313.0</ele><time>2026-04-12T07:27:38.227Z</time></trkpt><trkpt lat="43.348315" lon="13.2692033"><ele>313.0</ele><time>2026-04-12T07:27:39.228Z</time></trkpt><trkpt lat="43.3483567" lon="13.268975"><ele>313.0</ele><time>2026-04-12T07:27:40.227Z</time></trkpt><trkpt lat="43.3484133" lon="13.2687633"><ele>313.0</ele><time>2026-04-12T07:27:41.228Z</time></trkpt><trkpt lat="43.3484817" lon="13.2685683"><ele>313.3333333333333</ele><time>2026-04-12T07:27:42.228Z</time></trkpt><trkpt lat="43.3485717" lon="13.2684033"><ele>313.6666666666667</ele><time>2026-04-12T07:27:43.228Z</time></trkpt><trkpt lat="43.3486917" lon="13.2682883"><ele>314.0</ele><time>2026-04-12T07:27:44.228Z</time></trkpt><trkpt lat="43.3488383" lon="13.2682233"><ele>312.6666666666667</ele><time>2026-04-12T07:27:45.227Z</time></trkpt><trkpt lat="43.3490017" lon="13.2681967"><ele>311.3333333333333</ele><time>2026-04-12T07:27:46.228Z</time></trkpt><trkpt lat="43.3491633" lon="13.2682067"><ele>310.0</ele><time>2026-04-12T07:27:47.228Z</time></trkpt><trkpt lat="43.349325" lon="13.2682133"><ele>310.0</ele><time>2026-04-12T07:27:48.228Z</time></trkpt><trkpt lat="43.3494933" lon="13.2682017"><ele>310.0</ele><time>2026-04-12T07:27:49.228Z</time></trkpt><trkpt lat="43.3496617" lon="13.2681583"><ele>310.0</ele><time>2026-04-12T07:27:50.227Z</time></trkpt><trkpt lat="43.3498283" lon="13.2681033"><ele>311.66666666666663</ele><time>2026-04-12T07:27:51.228Z</time></trkpt><trkpt lat="43.35001" lon="13.26803"><ele>313.3333333333333</ele><time>2026-04-12T07:27:52.228Z</time></trkpt><trkpt lat="43.35018" lon="13.2679533"><ele>315.0</ele><time>2026-04-12T07:27:53.228Z</time></trkpt><trkpt lat="43.3503683" lon="13.267875"><ele>315.6666666666667</ele><time>2026-04-12T07:27:54.228Z</time></trkpt><trkpt lat="43.3505533" lon="13.267815"><ele>316.33333333333337</ele><time>2026-04-12T07:27:55.228Z</time></trkpt><trkpt lat="43.3507517" lon="13.267725"><ele>317.0</ele><time>2026-04-12T07:27:56.228Z</time></trkpt><trkpt lat="43.3509367" lon="13.2676567"><ele>317.0</ele><time>2026-04-12T07:27:57.227Z</time></trkpt><trkpt lat="43.35111" lon="13.2675767"><ele>317.0</ele><time>2026-04-12T07:27:58.228Z</time></trkpt><trkpt lat="43.35128" lon="13.2674983"><ele>317.0</ele><time>2026-04-12T07:27:59.228Z</time></trkpt><trkpt lat="43.35145" lon="13.26743"><ele>317.0</ele><time>2026-04-12T07:28:00.228Z</time></trkpt><trkpt lat="43.35161" lon="13.267365"><ele>317.0</ele><time>2026-04-12T07:28:01.228Z</time></trkpt><trkpt lat="43.35177" lon="13.267355"><ele>317.0</ele><time>2026-04-12T07:28:02.227Z</time></trkpt><trkpt lat="43.3519333" lon="13.267405"><ele>317.0</ele><time>2026-04-12T07:28:03.228Z</time></trkpt><trkpt lat="43.3520983" lon="13.267505"><ele>317.0</ele><time>2026-04-12T07:28:04.228Z</time></trkpt><trkpt lat="43.352265" lon="13.2676267"><ele>317.0</ele><time>2026-04-12T07:28:05.227Z</time></trkpt><trkpt lat="43.3524417" lon="13.26775"><ele>317.0</ele><time>2026-04-12T07:28:06.228Z</time></trkpt><trkpt lat="43.352625" lon="13.2678817"><ele>317.0</ele><time>2026-04-12T07:28:07.228Z</time></trkpt><trkpt lat="43.3528033" lon="13.26801"><ele>317.0</ele><time>2026-04-12T07:28:08.228Z</time></trkpt><trkpt lat="43.3529967" lon="13.26814"><ele>316.33333333333337</ele><time>2026-04-12T07:28:09.228Z</time></trkpt><trkpt lat="43.3531883" lon="13.2682633"><ele>315.6666666666667</ele><time>2026-04-12T07:28:10.228Z</time></trkpt><trkpt lat="43.35339" lon="13.2684017"><ele>315.0</ele><time>2026-04-12T07:28:11.228Z</time></trkpt><trkpt lat="43.353595" lon="13.26854"><ele>315.0</ele><time>2026-04-12T07:28:12.228Z</time></trkpt><trkpt lat="43.3538" lon="13.2686817"><ele>315.0</ele><time>2026-04-12T07:28:13.228Z</time></trkpt><trkpt lat="43.3539983" lon="13.2688267"><ele>313.5</ele><time>2026-04-12T07:28:14.228Z</time></trkpt><trkpt lat="43.3542067" lon="13.2689717"><ele>312.0</ele><time>2026-04-12T07:28:15.228Z</time></trkpt><trkpt lat="43.3544183" lon="13.2691183"><ele>312.0</ele><time>2026-04-12T07:28:16.227Z</time></trkpt><trkpt lat="43.3546283" lon="13.269265"><ele>312.0</ele><time>2026-04-12T07:28:17.228Z</time></trkpt><trkpt lat="43.3548433" lon="13.269405"><ele>312.0</ele><time>2026-04-12T07:28:18.227Z</time></trkpt><trkpt lat="43.3550567" lon="13.2695467"><ele>312.0</ele><time>2026-04-12T07:28:19.227Z</time></trkpt><trkpt lat="43.3552783" lon="13.2696917"><ele>310.0</ele><time>2026-04-12T07:28:20.228Z</time></trkpt><trkpt lat="43.3555" lon="13.2698417"><ele>308.0</ele><time>2026-04-12T07:28:21.228Z</time></trkpt><trkpt lat="43.3557117" lon="13.2699883"><ele>308.0</ele><time>2026-04-12T07:28:22.228Z</time></trkpt><trkpt lat="43.3559217" lon="13.2701333"><ele>308.0</ele><time>2026-04-12T07:28:23.228Z</time></trkpt><trkpt lat="43.3561267" lon="13.2702817"><ele>308.0</ele><time>2026-04-12T07:28:24.228Z</time></trkpt><trkpt lat="43.3563283" lon="13.270425"><ele>308.0</ele><time>2026-04-12T07:28:25.228Z</time></trkpt><trkpt lat="43.3565317" lon="13.2705617"><ele>306.5</ele><time>2026-04-12T07:28:26.227Z</time></trkpt><trkpt lat="43.356735" lon="13.270705"><ele>305.0</ele><time>2026-04-12T07:28:27.228Z</time></trkpt><trkpt lat="43.3569383" lon="13.2708417"><ele>305.0</ele><time>2026-04-12T07:28:28.228Z</time></trkpt><trkpt lat="43.35714" lon="13.27098"><ele>305.0</ele><time>2026-04-12T07:28:29.228Z</time></trkpt><trkpt lat="43.35734" lon="13.2711183"><ele>305.0</ele><time>2026-04-12T07:28:30.228Z</time></trkpt><trkpt lat="43.3575467" lon="13.2712567"><ele>303.5</ele><time>2026-04-12T07:28:31.228Z</time></trkpt><trkpt lat="43.3577483" lon="13.2713967"><ele>302.0</ele><time>2026-04-12T07:28:32.228Z</time></trkpt><trkpt lat="43.3579483" lon="13.271535"><ele>301.0</ele><time>2026-04-12T07:28:33.227Z</time></trkpt><trkpt lat="43.3581467" lon="13.2716717"><ele>300.0</ele><time>2026-04-12T07:28:34.228Z</time></trkpt><trkpt lat="43.3583333" lon="13.2718017"><ele>299.0</ele><time>2026-04-12T07:28:35.228Z</time></trkpt><trkpt lat="43.3585183" lon="13.2719267"><ele>299.0</ele><time>2026-04-12T07:28:36.228Z</time></trkpt><trkpt lat="43.358705" lon="13.272045"><ele>299.0</ele><time>2026-04-12T07:28:37.227Z</time></trkpt><trkpt lat="43.3588867" lon="13.272145"><ele>299.0</ele><time>2026-04-12T07:28:38.227Z</time></trkpt><trkpt lat="43.35907" lon="13.272195"><ele>299.0</ele><time>2026-04-12T07:28:39.228Z</time></trkpt><trkpt lat="43.3592633" lon="13.272215"><ele>299.0</ele><time>2026-04-12T07:28:40.228Z</time></trkpt><trkpt lat="43.359445" lon="13.2721967"><ele>299.0</ele><time>2026-04-12T07:28:41.228Z</time></trkpt><trkpt lat="43.3596267" lon="13.272125"><ele>299.0</ele><time>2026-04-12T07:28:42.228Z</time></trkpt><trkpt lat="43.359795" lon="13.272"><ele>299.0</ele><time>2026-04-12T07:28:43.228Z</time></trkpt><trkpt lat="43.3599433" lon="13.271855"><ele>299.0</ele><time>2026-04-12T07:28:44.228Z</time></trkpt><trkpt lat="43.360075" lon="13.27167"><ele>299.0</ele><time>2026-04-12T07:28:45.228Z</time></trkpt><trkpt lat="43.3602133" lon="13.271475"><ele>299.0</ele><time>2026-04-12T07:28:46.228Z</time></trkpt><trkpt lat="43.3603567" lon="13.2712783"><ele>299.0</ele><time>2026-04-12T07:28:47.228Z</time></trkpt><trkpt lat="43.3604967" lon="13.2710667"><ele>296.0</ele><time>2026-04-12T07:28:48.228Z</time></trkpt><trkpt lat="43.3606383" lon="13.2708567"><ele>293.0</ele><time>2026-04-12T07:28:49.228Z</time></trkpt><trkpt lat="43.3607867" lon="13.2706417"><ele>290.0</ele><time>2026-04-12T07:28:50.228Z</time></trkpt><trkpt lat="43.3609383" lon="13.2704267"><ele>290.0</ele><time>2026-04-12T07:28:51.228Z</time></trkpt><trkpt lat="43.361095" lon="13.2702067"><ele>290.0</ele><time>2026-04-12T07:28:52.227Z</time></trkpt><trkpt lat="43.3612467" lon="13.2699867"><ele>290.0</ele><time>2026-04-12T07:28:53.228Z</time></trkpt><trkpt lat="43.3613983" lon="13.2697683"><ele>287.6666666666667</ele><time>2026-04-12T07:28:54.228Z</time></trkpt><trkpt lat="43.3615533" lon="13.2695483"><ele>285.3333333333333</ele><time>2026-04-12T07:28:55.228Z</time></trkpt><trkpt lat="43.3616967" lon="13.26933"><ele>283.0</ele><time>2026-04-12T07:28:56.228Z</time></trkpt><trkpt lat="43.3618433" lon="13.2691083"><ele>283.0</ele><time>2026-04-12T07:28:57.228Z</time></trkpt><trkpt lat="43.36199" lon="13.2688933"><ele>283.0</ele><time>2026-04-12T07:28:58.228Z</time></trkpt><trkpt lat="43.3621317" lon="13.2686867"><ele>283.0</ele><time>2026-04-12T07:28:59.227Z</time></trkpt><trkpt lat="43.3622783" lon="13.268475"><ele>280.0</ele><time>2026-04-12T07:29:00.228Z</time></trkpt><trkpt lat="43.362415" lon="13.268275"><ele>277.0</ele><time>2026-04-12T07:29:01.227Z</time></trkpt><trkpt lat="43.3625567" lon="13.268085"><ele>274.0</ele><time>2026-04-12T07:29:02.228Z</time></trkpt><trkpt lat="43.3627017" lon="13.2679033"><ele>272.66666666666663</ele><time>2026-04-12T07:29:03.228Z</time></trkpt><trkpt lat="43.36285" lon="13.2677283"><ele>271.3333333333333</ele><time>2026-04-12T07:29:04.227Z</time></trkpt><trkpt lat="43.363005" lon="13.26755"><ele>270.0</ele><time>2026-04-12T07:29:05.227Z</time></trkpt><trkpt lat="43.3631733" lon="13.267395"><ele>266.6666666666667</ele><time>2026-04-12T07:29:06.228Z</time></trkpt><trkpt lat="43.363355" lon="13.2672383"><ele>263.33333333333337</ele><time>2026-04-12T07:29:07.227Z</time></trkpt><trkpt lat="43.363535" lon="13.2671283"><ele>260.0</ele><time>2026-04-12T07:29:08.228Z</time></trkpt><trkpt lat="43.363715" lon="13.2670417"><ele>259.0</ele><time>2026-04-12T07:29:09.228Z</time></trkpt><trkpt lat="43.3638967" lon="13.2669667"><ele>258.0</ele><time>2026-04-12T07:29:10.228Z</time></trkpt><trkpt lat="43.3640833" lon="13.26694"><ele>257.0</ele><time>2026-04-12T07:29:11.228Z</time></trkpt><trkpt lat="43.364265" lon="13.26692"><ele>257.0</ele><time>2026-04-12T07:29:12.228Z</time></trkpt><trkpt lat="43.3644517" lon="13.2668983"><ele>257.0</ele><time>2026-04-12T07:29:13.228Z</time></trkpt><trkpt lat="43.36464" lon="13.266865"><ele>257.0</ele><time>2026-04-12T07:29:14.227Z</time></trkpt><trkpt lat="43.3648317" lon="13.2668083"><ele>256.33333333333337</ele><time>2026-04-12T07:29:15.228Z</time></trkpt><trkpt lat="43.3650133" lon="13.26672"><ele>255.66666666666669</ele><time>2026-04-12T07:29:16.227Z</time></trkpt><trkpt lat="43.3651917" lon="13.266625"><ele>255.0</ele><time>2026-04-12T07:29:17.227Z</time></trkpt><trkpt lat="43.3653717" lon="13.26652"><ele>250.66666666666669</ele><time>2026-04-12T07:29:18.227Z</time></trkpt><trkpt lat="43.3655583" lon="13.2664133"><ele>246.33333333333334</ele><time>2026-04-12T07:29:19.228Z</time></trkpt><trkpt lat="43.3657467" lon="13.2663267"><ele>242.0</ele><time>2026-04-12T07:29:20.228Z</time></trkpt><trkpt lat="43.3659383" lon="13.2662483"><ele>242.0</ele><time>2026-04-12T07:29:21.228Z</time></trkpt><trkpt lat="43.366125" lon="13.266175"><ele>242.0</ele><time>2026-04-12T07:29:22.228Z</time></trkpt><trkpt lat="43.3663033" lon="13.2661"><ele>242.0</ele><time>2026-04-12T07:29:23.227Z</time></trkpt><trkpt lat="43.3664783" lon="13.2660367"><ele>242.33333333333334</ele><time>2026-04-12T07:29:24.228Z</time></trkpt><trkpt lat="43.3666483" lon="13.2659633"><ele>242.66666666666669</ele><time>2026-04-12T07:29:25.228Z</time></trkpt><trkpt lat="43.3668267" lon="13.2658967"><ele>243.0</ele><time>2026-04-12T07:29:26.228Z</time></trkpt><trkpt lat="43.3670083" lon="13.2658433"><ele>243.0</ele><time>2026-04-12T07:29:27.227Z</time></trkpt><trkpt lat="43.36719" lon="13.265815"><ele>243.0</ele><time>2026-04-12T07:29:28.228Z</time></trkpt><trkpt lat="43.3673767" lon="13.265805"><ele>243.0</ele><time>2026-04-12T07:29:29.228Z</time></trkpt><trkpt lat="43.3675717" lon="13.2658083"><ele>241.66666666666669</ele><time>2026-04-12T07:29:30.228Z</time></trkpt><trkpt lat="43.36777" lon="13.2658167"><ele>240.33333333333334</ele><time>2026-04-12T07:29:31.227Z</time></trkpt><trkpt lat="43.36798" lon="13.2658317"><ele>239.0</ele><time>2026-04-12T07:29:32.228Z</time></trkpt><trkpt lat="43.36819" lon="13.2658383"><ele>237.66666666666669</ele><time>2026-04-12T07:29:33.228Z</time></trkpt><trkpt lat="43.3683983" lon="13.2658533"><ele>236.33333333333331</ele><time>2026-04-12T07:29:34.227Z</time></trkpt><trkpt lat="43.368605" lon="13.2658717"><ele>235.0</ele><time>2026-04-12T07:29:35.228Z</time></trkpt><trkpt lat="43.3688067" lon="13.2658767"><ele>234.66666666666666</ele><time>2026-04-12T07:29:36.228Z</time></trkpt><trkpt lat="43.3690083" lon="13.265885"><ele>234.33333333333331</ele><time>2026-04-12T07:29:37.228Z</time></trkpt><trkpt lat="43.3692067" lon="13.2658933"><ele>234.0</ele><time>2026-04-12T07:29:38.227Z</time></trkpt><trkpt lat="43.3693967" lon="13.2659167"><ele>234.0</ele><time>2026-04-12T07:29:39.228Z</time></trkpt><trkpt lat="43.369585" lon="13.265925"><ele>234.0</ele><time>2026-04-12T07:29:40.228Z</time></trkpt><trkpt lat="43.3697717" lon="13.2659283"><ele>234.0</ele><time>2026-04-12T07:29:41.228Z</time></trkpt><trkpt lat="43.3699483" lon="13.26591"><ele>232.66666666666669</ele><time>2026-04-12T07:29:42.227Z</time></trkpt><trkpt lat="43.3701233" lon="13.2658817"><ele>231.33333333333334</ele><time>2026-04-12T07:29:43.227Z</time></trkpt><trkpt lat="43.3703017" lon="13.2658083"><ele>230.0</ele><time>2026-04-12T07:29:44.227Z</time></trkpt><trkpt lat="43.3704767" lon="13.2656933"><ele>229.33333333333334</ele><time>2026-04-12T07:29:45.228Z</time></trkpt><trkpt lat="43.3706517" lon="13.265575"><ele>228.66666666666669</ele><time>2026-04-12T07:29:46.228Z</time></trkpt><trkpt lat="43.3708283" lon="13.2654517"><ele>228.0</ele><time>2026-04-12T07:29:47.228Z</time></trkpt><trkpt lat="43.3710083" lon="13.26532"><ele>228.0</ele><time>2026-04-12T07:29:48.227Z</time></trkpt><trkpt lat="43.3711917" lon="13.2652033"><ele>228.0</ele><time>2026-04-12T07:29:49.228Z</time></trkpt><trkpt lat="43.3713667" lon="13.2650783"><ele>228.0</ele><time>2026-04-12T07:29:50.228Z</time></trkpt><trkpt lat="43.37154" lon="13.2649633"><ele>226.0</ele><time>2026-04-12T07:29:51.228Z</time></trkpt><trkpt lat="43.3717183" lon="13.2648417"><ele>224.0</ele><time>2026-04-12T07:29:52.228Z</time></trkpt><trkpt lat="43.3718917" lon="13.2647217"><ele>222.0</ele><time>2026-04-12T07:29:53.228Z</time></trkpt><trkpt lat="43.3720433" lon="13.2646017"><ele>222.0</ele><time>2026-04-12T07:29:54.228Z</time></trkpt><trkpt lat="43.3721783" lon="13.26448"><ele>222.0</ele><time>2026-04-12T07:29:55.228Z</time></trkpt><trkpt lat="43.3722833" lon="13.2643533"><ele>222.0</ele><time>2026-04-12T07:29:56.228Z</time></trkpt><trkpt lat="43.3723567" lon="13.264195"><ele>222.0</ele><time>2026-04-12T07:29:57.227Z</time></trkpt><trkpt lat="43.37237" lon="13.264035"><ele>219.75</ele><time>2026-04-12T07:29:58.228Z</time></trkpt><trkpt lat="43.3723267" lon="13.263875"><ele>217.5</ele><time>2026-04-12T07:29:59.228Z</time></trkpt><trkpt lat="43.3722517" lon="13.2637367"><ele>215.25</ele><time>2026-04-12T07:30:00.228Z</time></trkpt><trkpt lat="43.3721417" lon="13.2636133"><ele>213.0</ele><time>2026-04-12T07:30:01.228Z</time></trkpt><trkpt lat="43.3720233" lon="13.26351"><ele>213.0</ele><time>2026-04-12T07:30:02.228Z</time></trkpt><trkpt lat="43.37189" lon="13.2634"><ele>213.0</ele><time>2026-04-12T07:30:03.228Z</time></trkpt><trkpt lat="43.37174" lon="13.263285"><ele>213.0</ele><time>2026-04-12T07:30:04.227Z</time></trkpt><trkpt lat="43.3715833" lon="13.263165"><ele>211.33333333333331</ele><time>2026-04-12T07:30:05.227Z</time></trkpt><trkpt lat="43.3714333" lon="13.2630333"><ele>209.66666666666666</ele><time>2026-04-12T07:30:06.228Z</time></trkpt><trkpt lat="43.3712783" lon="13.26291"><ele>208.0</ele><time>2026-04-12T07:30:07.228Z</time></trkpt><trkpt lat="43.371135" lon="13.262785"><ele>208.0</ele><time>2026-04-12T07:30:08.228Z</time></trkpt><trkpt lat="43.3709983" lon="13.2626733"><ele>208.0</ele><time>2026-04-12T07:30:09.228Z</time></trkpt><trkpt lat="43.3708617" lon="13.2625467"><ele>208.0</ele><time>2026-04-12T07:30:10.228Z</time></trkpt><trkpt lat="43.3707417" lon="13.26241"><ele>207.66666666666666</ele><time>2026-04-12T07:30:11.227Z</time></trkpt><trkpt lat="43.3706467" lon="13.2622433"><ele>207.33333333333331</ele><time>2026-04-12T07:30:12.227Z</time></trkpt><trkpt lat="43.3705733" lon="13.2620283"><ele>207.0</ele><time>2026-04-12T07:30:13.228Z</time></trkpt><trkpt lat="43.3705083" lon="13.2618183"><ele>208.66666666666669</ele><time>2026-04-12T07:30:14.228Z</time></trkpt><trkpt lat="43.3704633" lon="13.2616"><ele>210.33333333333334</ele><time>2026-04-12T07:30:15.228Z</time></trkpt><trkpt lat="43.3704217" lon="13.2613717"><ele>212.0</ele><time>2026-04-12T07:30:16.227Z</time></trkpt><trkpt lat="43.37041" lon="13.2611517"><ele>214.0</ele><time>2026-04-12T07:30:17.228Z</time></trkpt><trkpt lat="43.3704333" lon="13.2609283"><ele>216.0</ele><time>2026-04-12T07:30:18.228Z</time></trkpt><trkpt lat="43.37047" lon="13.2607183"><ele>218.0</ele><time>2026-04-12T07:30:19.228Z</time></trkpt><trkpt lat="43.370535" lon="13.260495"><ele>218.0</ele><time>2026-04-12T07:30:20.228Z</time></trkpt><trkpt lat="43.3705983" lon="13.2602483"><ele>218.0</ele><time>2026-04-12T07:30:21.228Z</time></trkpt><trkpt lat="43.37067" lon="13.2600083"><ele>218.0</ele><time>2026-04-12T07:30:22.228Z</time></trkpt><trkpt lat="43.37074" lon="13.25976"><ele>220.0</ele><time>2026-04-12T07:30:23.228Z</time></trkpt><trkpt lat="43.3708217" lon="13.2595217"><ele>222.0</ele><time>2026-04-12T07:30:24.228Z</time></trkpt><trkpt lat="43.3708983" lon="13.2592933"><ele>224.0</ele><time>2026-04-12T07:30:25.228Z</time></trkpt><trkpt lat="43.37098" lon="13.2590783"><ele>225.33333333333334</ele><time>2026-04-12T07:30:26.228Z</time></trkpt><trkpt lat="43.3710783" lon="13.2588717"><ele>226.66666666666669</ele><time>2026-04-12T07:30:27.228Z</time></trkpt><trkpt lat="43.3711817" lon="13.2586917"><ele>228.0</ele><time>2026-04-12T07:30:28.228Z</time></trkpt><trkpt lat="43.3712983" lon="13.2584967"><ele>226.66666666666669</ele><time>2026-04-12T07:30:29.228Z</time></trkpt><trkpt lat="43.3714367" lon="13.2583183"><ele>225.33333333333334</ele><time>2026-04-12T07:30:30.228Z</time></trkpt><trkpt lat="43.3715883" lon="13.25815"><ele>224.0</ele><time>2026-04-12T07:30:31.228Z</time></trkpt><trkpt lat="43.371745" lon="13.2579917"><ele>224.66666666666669</ele><time>2026-04-12T07:30:32.228Z</time></trkpt><trkpt lat="43.371905" lon="13.2578533"><ele>225.33333333333331</ele><time>2026-04-12T07:30:33.228Z</time></trkpt><trkpt lat="43.3720583" lon="13.2577133"><ele>226.0</ele><time>2026-04-12T07:30:34.227Z</time></trkpt><trkpt lat="43.3721933" lon="13.2575733"><ele>226.0</ele><time>2026-04-12T07:30:35.227Z</time></trkpt><trkpt lat="43.3723083" lon="13.2574233"><ele>226.0</ele><time>2026-04-12T07:30:36.227Z</time></trkpt><trkpt lat="43.3724067" lon="13.257255"><ele>226.0</ele><time>2026-04-12T07:30:37.227Z</time></trkpt><trkpt lat="43.3724883" lon="13.2570683"><ele>227.5</ele><time>2026-04-12T07:30:38.228Z</time></trkpt><trkpt lat="43.3725567" lon="13.2569067"><ele>229.0</ele><time>2026-04-12T07:30:39.228Z</time></trkpt><trkpt lat="43.37262" lon="13.2567917"><ele>230.5</ele><time>2026-04-12T07:30:40.227Z</time></trkpt><trkpt lat="43.372715" lon="13.2567233"><ele>232.0</ele><time>2026-04-12T07:30:41.227Z</time></trkpt><trkpt lat="43.3728167" lon="13.25671"><ele>232.0</ele><time>2026-04-12T07:30:42.228Z</time></trkpt><trkpt lat="43.3729133" lon="13.25677"><ele>232.0</ele><time>2026-04-12T07:30:43.228Z</time></trkpt><trkpt lat="43.3730133" lon="13.2568783"><ele>232.0</ele><time>2026-04-12T07:30:44.228Z</time></trkpt><trkpt lat="43.3730967" lon="13.257035"><ele>232.0</ele><time>2026-04-12T07:30:45.227Z</time></trkpt><trkpt lat="43.3731733" lon="13.2572083"><ele>231.66666666666666</ele><time>2026-04-12T07:30:46.228Z</time></trkpt><trkpt lat="43.37326" lon="13.257395"><ele>231.33333333333331</ele><time>2026-04-12T07:30:47.228Z</time></trkpt><trkpt lat="43.3733483" lon="13.2575817"><ele>231.0</ele><time>2026-04-12T07:30:48.228Z</time></trkpt><trkpt lat="43.3734383" lon="13.2577683"><ele>231.0</ele><time>2026-04-12T07:30:49.228Z</time></trkpt><trkpt lat="43.373525" lon="13.257955"><ele>231.0</ele><time>2026-04-12T07:30:50.227Z</time></trkpt><trkpt lat="43.3736283" lon="13.2581033"><ele>231.0</ele><time>2026-04-12T07:30:51.228Z</time></trkpt><trkpt lat="43.3737467" lon="13.2582167"><ele>233.0</ele><time>2026-04-12T07:30:52.227Z</time></trkpt><trkpt lat="43.3738933" lon="13.2583117"><ele>235.0</ele><time>2026-04-12T07:30:53.228Z</time></trkpt><trkpt lat="43.3740533" lon="13.258375"><ele>237.0</ele><time>2026-04-12T07:30:54.227Z</time></trkpt><trkpt lat="43.3742167" lon="13.2584467"><ele>237.0</ele><time>2026-04-12T07:30:55.227Z</time></trkpt><trkpt lat="43.3743817" lon="13.2585183"><ele>237.0</ele><time>2026-04-12T07:30:56.228Z</time></trkpt><trkpt lat="43.3745333" lon="13.258575"><ele>237.0</ele><time>2026-04-12T07:30:57.227Z</time></trkpt><trkpt lat="43.3746733" lon="13.2586117"><ele>239.0</ele><time>2026-04-12T07:30:58.227Z</time></trkpt><trkpt lat="43.3748133" lon="13.2586033"><ele>241.0</ele><time>2026-04-12T07:30:59.227Z</time></trkpt><trkpt lat="43.37494" lon="13.2585333"><ele>243.0</ele><time>2026-04-12T07:31:00.227Z</time></trkpt><trkpt lat="43.3750417" lon="13.2584217"><ele>245.0</ele><time>2026-04-12T07:31:01.228Z</time></trkpt><trkpt lat="43.3751417" lon="13.2582983"><ele>245.0</ele><time>2026-04-12T07:31:02.228Z</time></trkpt><trkpt lat="43.3752467" lon="13.2581767"><ele>245.0</ele><time>2026-04-12T07:31:03.228Z</time></trkpt><trkpt lat="43.3753633" lon="13.2580633"><ele>245.0</ele><time>2026-04-12T07:31:04.228Z</time></trkpt><trkpt lat="43.375495" lon="13.257975"><ele>245.0</ele><time>2026-04-12T07:31:05.228Z</time></trkpt><trkpt lat="43.37563" lon="13.2579333"><ele>246.5</ele><time>2026-04-12T07:31:06.228Z</time></trkpt><trkpt lat="43.3757733" lon="13.2579233"><ele>248.0</ele><time>2026-04-12T07:31:07.228Z</time></trkpt><trkpt lat="43.3758883" lon="13.2579717"><ele>249.5</ele><time>2026-04-12T07:31:08.228Z</time></trkpt><trkpt lat="43.3759817" lon="13.2580967"><ele>251.0</ele><time>2026-04-12T07:31:09.228Z</time></trkpt><trkpt lat="43.3760567" lon="13.2582283"><ele>251.0</ele><time>2026-04-12T07:31:10.228Z</time></trkpt><trkpt lat="43.37614" lon="13.2583467"><ele>251.0</ele><time>2026-04-12T07:31:11.228Z</time></trkpt><trkpt lat="43.3762367" lon="13.2584317"><ele>251.0</ele><time>2026-04-12T07:31:12.227Z</time></trkpt><trkpt lat="43.3763317" lon="13.25848"><ele>251.0</ele><time>2026-04-12T07:31:13.228Z</time></trkpt><trkpt lat="43.3764483" lon="13.2584717"><ele>251.25</ele><time>2026-04-12T07:31:14.227Z</time></trkpt><trkpt lat="43.3765617" lon="13.2584483"><ele>251.5</ele><time>2026-04-12T07:31:15.227Z</time></trkpt><trkpt lat="43.37668" lon="13.2583917"><ele>251.75</ele><time>2026-04-12T07:31:16.228Z</time></trkpt><trkpt lat="43.3767867" lon="13.2582917"><ele>252.0</ele><time>2026-04-12T07:31:17.228Z</time></trkpt><trkpt lat="43.3768567" lon="13.2581433"><ele>252.25</ele><time>2026-04-12T07:31:18.228Z</time></trkpt><trkpt lat="43.3768917" lon="13.257975"><ele>252.5</ele><time>2026-04-12T07:31:19.228Z</time></trkpt><trkpt lat="43.3769333" lon="13.2577883"><ele>252.75</ele><time>2026-04-12T07:31:20.228Z</time></trkpt><trkpt lat="43.3769617" lon="13.2575983"><ele>253.0</ele><time>2026-04-12T07:31:21.228Z</time></trkpt><trkpt lat="43.3770167" lon="13.2573883"><ele>254.66666666666666</ele><time>2026-04-12T07:31:22.228Z</time></trkpt><trkpt lat="43.37708" lon="13.2571783"><ele>256.3333333333333</ele><time>2026-04-12T07:31:23.228Z</time></trkpt><trkpt lat="43.3771633" lon="13.2569567"><ele>258.0</ele><time>2026-04-12T07:31:24.228Z</time></trkpt><trkpt lat="43.37724" lon="13.2567367"><ele>254.33333333333331</ele><time>2026-04-12T07:31:25.228Z</time></trkpt><trkpt lat="43.3773333" lon="13.256525"><ele>250.66666666666666</ele><time>2026-04-12T07:31:26.227Z</time></trkpt><trkpt lat="43.3774267" lon="13.25631"><ele>247.0</ele><time>2026-04-12T07:31:27.228Z</time></trkpt><trkpt lat="43.3775333" lon="13.2561"><ele>247.0</ele><time>2026-04-12T07:31:28.227Z</time></trkpt><trkpt lat="43.3776483" lon="13.2559067"><ele>247.0</ele><time>2026-04-12T07:31:29.227Z</time></trkpt><trkpt lat="43.3777467" lon="13.25571"><ele>247.0</ele><time>2026-04-12T07:31:30.228Z</time></trkpt><trkpt lat="43.3778567" lon="13.2555133"><ele>248.33333333333331</ele><time>2026-04-12T07:31:31.228Z</time></trkpt><trkpt lat="43.3779733" lon="13.2553183"><ele>249.66666666666669</ele><time>2026-04-12T07:31:32.228Z</time></trkpt><trkpt lat="43.378085" lon="13.25513"><ele>251.0</ele><time>2026-04-12T07:31:33.227Z</time></trkpt><trkpt lat="43.3782017" lon="13.2549317"><ele>248.66666666666669</ele><time>2026-04-12T07:31:34.228Z</time></trkpt><trkpt lat="43.3783183" lon="13.2547433"><ele>246.33333333333331</ele><time>2026-04-12T07:31:35.228Z</time></trkpt><trkpt lat="43.378435" lon="13.2545433"><ele>244.0</ele><time>2026-04-12T07:31:36.228Z</time></trkpt><trkpt lat="43.37854" lon="13.2543633"><ele>244.0</ele><time>2026-04-12T07:31:37.227Z</time></trkpt><trkpt lat="43.3786483" lon="13.2541933"><ele>244.0</ele><time>2026-04-12T07:31:38.228Z</time></trkpt><trkpt lat="43.378755" lon="13.2540183"><ele>244.0</ele><time>2026-04-12T07:31:39.227Z</time></trkpt><trkpt lat="43.3788533" lon="13.2538567"><ele>242.33333333333331</ele><time>2026-04-12T07:31:40.228Z</time></trkpt><trkpt lat="43.3789467" lon="13.253695"><ele>240.66666666666669</ele><time>2026-04-12T07:31:41.228Z</time></trkpt><trkpt lat="43.3790267" lon="13.253525"><ele>239.0</ele><time>2026-04-12T07:31:42.228Z</time></trkpt><trkpt lat="43.3790867" lon="13.2533317"><ele>239.0</ele><time>2026-04-12T07:31:43.228Z</time></trkpt><trkpt lat="43.379125" lon="13.2531283"><ele>239.0</ele><time>2026-04-12T07:31:44.228Z</time></trkpt><trkpt lat="43.3791483" lon="13.25292"><ele>239.0</ele><time>2026-04-12T07:31:45.228Z</time></trkpt><trkpt lat="43.37916" lon="13.252695"><ele>238.0</ele><time>2026-04-12T07:31:46.228Z</time></trkpt><trkpt lat="43.379165" lon="13.2524933"><ele>237.0</ele><time>2026-04-12T07:31:47.228Z</time></trkpt><trkpt lat="43.379175" lon="13.2522833"><ele>236.0</ele><time>2026-04-12T07:31:48.228Z</time></trkpt><trkpt lat="43.37919" lon="13.25208"><ele>235.0</ele><time>2026-04-12T07:31:49.228Z</time></trkpt><trkpt lat="43.3792033" lon="13.2518933"><ele>234.25</ele><time>2026-04-12T07:31:50.228Z</time></trkpt><trkpt lat="43.3792217" lon="13.2517067"><ele>233.5</ele><time>2026-04-12T07:31:51.228Z</time></trkpt><trkpt lat="43.3792417" lon="13.25153"><ele>232.75</ele><time>2026-04-12T07:31:52.228Z</time></trkpt><trkpt lat="43.3792633" lon="13.25134"><ele>232.0</ele><time>2026-04-12T07:31:53.228Z</time></trkpt><trkpt lat="43.3792933" lon="13.251155"><ele>231.75</ele><time>2026-04-12T07:31:54.228Z</time></trkpt><trkpt lat="43.37933" lon="13.2509683"><ele>231.5</ele><time>2026-04-12T07:31:55.228Z</time></trkpt><trkpt lat="43.37937" lon="13.2507817"><ele>231.25</ele><time>2026-04-12T07:31:56.228Z</time></trkpt><trkpt lat="43.3793967" lon="13.2505983"><ele>231.0</ele><time>2026-04-12T07:31:57.228Z</time></trkpt><trkpt lat="43.3794367" lon="13.2504133"><ele>232.75</ele><time>2026-04-12T07:31:58.228Z</time></trkpt><trkpt lat="43.3794767" lon="13.25023"><ele>234.5</ele><time>2026-04-12T07:31:59.228Z</time></trkpt><trkpt lat="43.3795083" lon="13.2500467"><ele>236.25</ele><time>2026-04-12T07:32:00.228Z</time></trkpt><trkpt lat="43.3795233" lon="13.249865"><ele>238.0</ele><time>2026-04-12T07:32:01.228Z</time></trkpt><trkpt lat="43.3795183" lon="13.24968"><ele>238.25</ele><time>2026-04-12T07:32:02.228Z</time></trkpt><trkpt lat="43.3794967" lon="13.24951"><ele>238.5</ele><time>2026-04-12T07:32:03.228Z</time></trkpt><trkpt lat="43.3794367" lon="13.2493617"><ele>238.75</ele><time>2026-04-12T07:32:04.227Z</time></trkpt><trkpt lat="43.3793783" lon="13.249225"><ele>239.0</ele><time>2026-04-12T07:32:05.228Z</time></trkpt><trkpt lat="43.3793267" lon="13.249075"><ele>239.25</ele><time>2026-04-12T07:32:06.228Z</time></trkpt><trkpt lat="43.3792833" lon="13.2489217"><ele>239.5</ele><time>2026-04-12T07:32:07.228Z</time></trkpt><trkpt lat="43.3792333" lon="13.2487683"><ele>239.75</ele><time>2026-04-12T07:32:08.228Z</time></trkpt><trkpt lat="43.379215" lon="13.24861"><ele>240.0</ele><time>2026-04-12T07:32:09.228Z</time></trkpt><trkpt lat="43.3792167" lon="13.2484483"><ele>240.0</ele><time>2026-04-12T07:32:10.228Z</time></trkpt><trkpt lat="43.3792467" lon="13.2482983"><ele>240.0</ele><time>2026-04-12T07:32:11.227Z</time></trkpt><trkpt lat="43.379325" lon="13.2481583"><ele>240.0</ele><time>2026-04-12T07:32:12.228Z</time></trkpt><trkpt lat="43.3793933" lon="13.2480333"><ele>240.0</ele><time>2026-04-12T07:32:13.227Z</time></trkpt><trkpt lat="43.3794567" lon="13.2479133"><ele>240.2</ele><time>2026-04-12T07:32:14.227Z</time></trkpt><trkpt lat="43.3795033" lon="13.247785"><ele>240.4</ele><time>2026-04-12T07:32:15.227Z</time></trkpt><trkpt lat="43.379535" lon="13.2476633"><ele>240.60000000000002</ele><time>2026-04-12T07:32:16.228Z</time></trkpt><trkpt lat="43.3795583" lon="13.2475333"><ele>240.8</ele><time>2026-04-12T07:32:17.228Z</time></trkpt><trkpt lat="43.3795783" lon="13.2474"><ele>241.0</ele><time>2026-04-12T07:32:18.228Z</time></trkpt><trkpt lat="43.3795917" lon="13.24726"><ele>241.8</ele><time>2026-04-12T07:32:19.227Z</time></trkpt><trkpt lat="43.379605" lon="13.2471217"><ele>242.60000000000002</ele><time>2026-04-12T07:32:20.227Z</time></trkpt><trkpt lat="43.37962" lon="13.24697"><ele>243.4</ele><time>2026-04-12T07:32:21.228Z</time></trkpt><trkpt lat="43.379625" lon="13.246815"><ele>244.2</ele><time>2026-04-12T07:32:22.228Z</time></trkpt><trkpt lat="43.3796283" lon="13.2466633"><ele>245.0</ele><time>2026-04-12T07:32:23.228Z</time></trkpt><trkpt lat="43.3796" lon="13.2464967"><ele>246.0</ele><time>2026-04-12T07:32:24.228Z</time></trkpt><trkpt lat="43.3795617" lon="13.2463583"><ele>247.0</ele><time>2026-04-12T07:32:25.228Z</time></trkpt><trkpt lat="43.379515" lon="13.2462483"><ele>248.0</ele><time>2026-04-12T07:32:26.228Z</time></trkpt><trkpt lat="43.3794567" lon="13.24613"><ele>249.0</ele><time>2026-04-12T07:32:27.227Z</time></trkpt><trkpt lat="43.3793917" lon="13.2460167"><ele>250.0</ele><time>2026-04-12T07:32:28.228Z</time></trkpt><trkpt lat="43.3793433" lon="13.2459017"><ele>250.0</ele><time>2026-04-12T07:32:29.227Z</time></trkpt><trkpt lat="43.3793267" lon="13.2457717"><ele>250.0</ele><time>2026-04-12T07:32:30.228Z</time></trkpt><trkpt lat="43.3793483" lon="13.24565"><ele>250.0</ele><time>2026-04-12T07:32:31.227Z</time></trkpt><trkpt lat="43.3793917" lon="13.245545"><ele>250.0</ele><time>2026-04-12T07:32:32.227Z</time></trkpt><trkpt lat="43.3794683" lon="13.245465"><ele>250.0</ele><time>2026-04-12T07:32:33.228Z</time></trkpt><trkpt lat="43.3795633" lon="13.2454317"><ele>249.8</ele><time>2026-04-12T07:32:34.227Z</time></trkpt><trkpt lat="43.379675" lon="13.245415"><ele>249.6</ele><time>2026-04-12T07:32:35.228Z</time></trkpt><trkpt lat="43.3797767" lon="13.2454183"><ele>249.39999999999998</ele><time>2026-04-12T07:32:36.228Z</time></trkpt><trkpt lat="43.37988" lon="13.2454333"><ele>249.2</ele><time>2026-04-12T07:32:37.228Z</time></trkpt><trkpt lat="43.3799883" lon="13.2454567"><ele>249.0</ele><time>2026-04-12T07:32:38.228Z</time></trkpt><trkpt lat="43.3800917" lon="13.2455083"><ele>251.5</ele><time>2026-04-12T07:32:39.227Z</time></trkpt><trkpt lat="43.3802067" lon="13.2455633"><ele>254.0</ele><time>2026-04-12T07:32:40.228Z</time></trkpt><trkpt lat="43.3803217" lon="13.24563"><ele>256.5</ele><time>2026-04-12T07:32:41.227Z</time></trkpt><trkpt lat="43.3804417" lon="13.2457133"><ele>259.0</ele><time>2026-04-12T07:32:42.227Z</time></trkpt><trkpt lat="43.380555" lon="13.2457767"><ele>261.5</ele><time>2026-04-12T07:32:43.227Z</time></trkpt><trkpt lat="43.38066" lon="13.2458867"><ele>264.0</ele><time>2026-04-12T07:32:44.228Z</time></trkpt><trkpt lat="43.380765" lon="13.245975"><ele>266.5</ele><time>2026-04-12T07:32:45.228Z</time></trkpt><trkpt lat="43.380865" lon="13.24605"><ele>269.0</ele><time>2026-04-12T07:32:46.227Z</time></trkpt><trkpt lat="43.3809667" lon="13.2461117"><ele>269.0</ele><time>2026-04-12T07:32:47.228Z</time></trkpt><trkpt lat="43.3810583" lon="13.24616"><ele>269.0</ele><time>2026-04-12T07:32:48.228Z</time></trkpt><trkpt lat="43.38115" lon="13.2461683"><ele>269.0</ele><time>2026-04-12T07:32:49.228Z</time></trkpt><trkpt lat="43.3812283" lon="13.246125"><ele>269.0</ele><time>2026-04-12T07:32:50.228Z</time></trkpt><trkpt lat="43.3812867" lon="13.24605"><ele>269.0</ele><time>2026-04-12T07:32:51.228Z</time></trkpt><trkpt lat="43.3813083" lon="13.2459517"><ele>269.0</ele><time>2026-04-12T07:32:52.227Z</time></trkpt><trkpt lat="43.3812617" lon="13.2458283"><ele>269.0</ele><time>2026-04-12T07:32:53.228Z</time></trkpt><trkpt lat="43.381195" lon="13.2456883"><ele>269.0</ele><time>2026-04-12T07:32:54.228Z</time></trkpt><trkpt lat="43.3811133" lon="13.2455267"><ele>269.0</ele><time>2026-04-12T07:32:55.228Z</time></trkpt><trkpt lat="43.38102" lon="13.2453417"><ele>269.0</ele><time>2026-04-12T07:32:56.228Z</time></trkpt><trkpt lat="43.38092" lon="13.2451317"><ele>271.33333333333337</ele><time>2026-04-12T07:32:57.228Z</time></trkpt><trkpt lat="43.3808267" lon="13.2449067"><ele>273.6666666666667</ele><time>2026-04-12T07:32:58.228Z</time></trkpt><trkpt lat="43.3807183" lon="13.2446983"><ele>276.0</ele><time>2026-04-12T07:32:59.228Z</time></trkpt><trkpt lat="43.3806017" lon="13.244475"><ele>277.3333333333333</ele><time>2026-04-12T07:33:00.228Z</time></trkpt><trkpt lat="43.3805117" lon="13.2442467"><ele>278.66666666666663</ele><time>2026-04-12T07:33:01.227Z</time></trkpt><trkpt lat="43.3804367" lon="13.24399"><ele>280.0</ele><time>2026-04-12T07:33:02.228Z</time></trkpt><trkpt lat="43.38038" lon="13.243725"><ele>280.0</ele><time>2026-04-12T07:33:03.228Z</time></trkpt><trkpt lat="43.3803333" lon="13.2434617"><ele>280.0</ele><time>2026-04-12T07:33:04.228Z</time></trkpt><trkpt lat="43.3802867" lon="13.2431883"><ele>280.0</ele><time>2026-04-12T07:33:05.228Z</time></trkpt><trkpt lat="43.3802417" lon="13.24292"><ele>283.66666666666663</ele><time>2026-04-12T07:33:06.227Z</time></trkpt><trkpt lat="43.380205" lon="13.2426533"><ele>287.3333333333333</ele><time>2026-04-12T07:33:07.227Z</time></trkpt><trkpt lat="43.3801733" lon="13.2424017"><ele>291.0</ele><time>2026-04-12T07:33:08.227Z</time></trkpt><trkpt lat="43.380125" lon="13.2421817"><ele>293.0</ele><time>2026-04-12T07:33:09.228Z</time></trkpt><trkpt lat="43.380055" lon="13.2419967"><ele>295.0</ele><time>2026-04-12T07:33:10.228Z</time></trkpt><trkpt lat="43.37995" lon="13.2418317"><ele>297.0</ele><time>2026-04-12T07:33:11.227Z</time></trkpt><trkpt lat="43.37984" lon="13.241675"><ele>297.0</ele><time>2026-04-12T07:33:12.228Z</time></trkpt><trkpt lat="43.3797167" lon="13.2415217"><ele>297.0</ele><time>2026-04-12T07:33:13.228Z</time></trkpt><trkpt lat="43.3796033" lon="13.24136"><ele>297.0</ele><time>2026-04-12T07:33:14.227Z</time></trkpt><trkpt lat="43.3794867" lon="13.24117"><ele>299.3333333333333</ele><time>2026-04-12T07:33:15.228Z</time></trkpt><trkpt lat="43.37937" lon="13.2409833"><ele>301.66666666666663</ele><time>2026-04-12T07:33:16.227Z</time></trkpt><trkpt lat="43.3792717" lon="13.2408067"><ele>304.0</ele><time>2026-04-12T07:33:17.228Z</time></trkpt><trkpt lat="43.3791767" lon="13.2406317"><ele>305.5</ele><time>2026-04-12T07:33:18.228Z</time></trkpt><trkpt lat="43.3791083" lon="13.2404567"><ele>307.0</ele><time>2026-04-12T07:33:19.228Z</time></trkpt><trkpt lat="43.3790633" lon="13.2402833"><ele>308.5</ele><time>2026-04-12T07:33:20.228Z</time></trkpt><trkpt lat="43.379035" lon="13.24009"><ele>310.0</ele><time>2026-04-12T07:33:21.228Z</time></trkpt><trkpt lat="43.3790233" lon="13.2398883"><ele>312.0</ele><time>2026-04-12T07:33:22.227Z</time></trkpt><trkpt lat="43.37904" lon="13.23966"><ele>314.0</ele><time>2026-04-12T07:33:23.228Z</time></trkpt><trkpt lat="43.379035" lon="13.2394467"><ele>316.0</ele><time>2026-04-12T07:33:24.228Z</time></trkpt><trkpt lat="43.379015" lon="13.2392383"><ele>316.0</ele><time>2026-04-12T07:33:25.228Z</time></trkpt><trkpt lat="43.3789883" lon="13.2390133"><ele>316.0</ele><time>2026-04-12T07:33:26.228Z</time></trkpt><trkpt lat="43.37897" lon="13.2387983"><ele>316.0</ele><time>2026-04-12T07:33:27.228Z</time></trkpt><trkpt lat="43.3789333" lon="13.2385683"><ele>317.0</ele><time>2026-04-12T07:33:28.228Z</time></trkpt><trkpt lat="43.3789083" lon="13.23833"><ele>318.0</ele><time>2026-04-12T07:33:29.228Z</time></trkpt><trkpt lat="43.3788833" lon="13.2380833"><ele>319.0</ele><time>2026-04-12T07:33:30.228Z</time></trkpt><trkpt lat="43.378875" lon="13.23782"><ele>320.66666666666663</ele><time>2026-04-12T07:33:31.228Z</time></trkpt><trkpt lat="43.37886" lon="13.2375483"><ele>322.3333333333333</ele><time>2026-04-12T07:33:32.228Z</time></trkpt><trkpt lat="43.3788933" lon="13.237255"><ele>324.0</ele><time>2026-04-12T07:33:33.228Z</time></trkpt><trkpt lat="43.3789083" lon="13.236955"><ele>326.6666666666667</ele><time>2026-04-12T07:33:34.228Z</time></trkpt><trkpt lat="43.3789233" lon="13.2366683"><ele>329.33333333333337</ele><time>2026-04-12T07:33:35.228Z</time></trkpt><trkpt lat="43.3789417" lon="13.236385"><ele>332.0</ele><time>2026-04-12T07:33:36.228Z</time></trkpt><trkpt lat="43.37895" lon="13.236115"><ele>333.6666666666667</ele><time>2026-04-12T07:33:37.228Z</time></trkpt><trkpt lat="43.3789683" lon="13.23587"><ele>335.3333333333333</ele><time>2026-04-12T07:33:38.228Z</time></trkpt><trkpt lat="43.3789917" lon="13.23564"><ele>337.0</ele><time>2026-04-12T07:33:39.228Z</time></trkpt><trkpt lat="43.37905" lon="13.2354217"><ele>339.0</ele><time>2026-04-12T07:33:40.228Z</time></trkpt><trkpt lat="43.37913" lon="13.23521"><ele>341.0</ele><time>2026-04-12T07:33:41.227Z</time></trkpt><trkpt lat="43.3792183" lon="13.2350017"><ele>343.0</ele><time>2026-04-12T07:33:42.228Z</time></trkpt><trkpt lat="43.37933" lon="13.234805"><ele>345.0</ele><time>2026-04-12T07:33:43.228Z</time></trkpt><trkpt lat="43.37945" lon="13.2346017"><ele>347.0</ele><time>2026-04-12T07:33:44.228Z</time></trkpt><trkpt lat="43.3795617" lon="13.2344067"><ele>349.0</ele><time>2026-04-12T07:33:45.228Z</time></trkpt><trkpt lat="43.37966" lon="13.2342133"><ele>348.3333333333333</ele><time>2026-04-12T07:33:46.227Z</time></trkpt><trkpt lat="43.3797567" lon="13.2340217"><ele>347.6666666666667</ele><time>2026-04-12T07:33:47.228Z</time></trkpt><trkpt lat="43.3798317" lon="13.23382"><ele>347.0</ele><time>2026-04-12T07:33:48.228Z</time></trkpt><trkpt lat="43.3798517" lon="13.2336067"><ele>347.0</ele><time>2026-04-12T07:33:49.228Z</time></trkpt><trkpt lat="43.37984" lon="13.2333817"><ele>347.0</ele><time>2026-04-12T07:33:50.228Z</time></trkpt><trkpt lat="43.3798067" lon="13.233135"><ele>347.0</ele><time>2026-04-12T07:33:51.228Z</time></trkpt><trkpt lat="43.3797717" lon="13.2328817"><ele>349.0</ele><time>2026-04-12T07:33:52.228Z</time></trkpt><trkpt lat="43.3797333" lon="13.2326367"><ele>351.0</ele><time>2026-04-12T07:33:53.227Z</time></trkpt><trkpt lat="43.3797117" lon="13.232395"><ele>353.0</ele><time>2026-04-12T07:33:54.228Z</time></trkpt><trkpt lat="43.3797267" lon="13.2321567"><ele>355.6666666666667</ele><time>2026-04-12T07:33:55.228Z</time></trkpt><trkpt lat="43.379765" lon="13.231935"><ele>358.3333333333333</ele><time>2026-04-12T07:33:56.228Z</time></trkpt><trkpt lat="43.379835" lon="13.2317367"><ele>361.0</ele><time>2026-04-12T07:33:57.228Z</time></trkpt><trkpt lat="43.3799533" lon="13.2315667"><ele>364.66666666666663</ele><time>2026-04-12T07:33:58.228Z</time></trkpt><trkpt lat="43.3800833" lon="13.2314367"><ele>368.3333333333333</ele><time>2026-04-12T07:33:59.227Z</time></trkpt><trkpt lat="43.3802183" lon="13.2313067"><ele>372.0</ele><time>2026-04-12T07:34:00.227Z</time></trkpt><trkpt lat="43.38034" lon="13.2311567"><ele>372.0</ele><time>2026-04-12T07:34:01.228Z</time></trkpt><trkpt lat="43.380415" lon="13.2309983"><ele>372.0</ele><time>2026-04-12T07:34:02.228Z</time></trkpt><trkpt lat="43.3804483" lon="13.2308317"><ele>372.0</ele><time>2026-04-12T07:34:03.227Z</time></trkpt><trkpt lat="43.3804317" lon="13.2306333"><ele>372.0</ele><time>2026-04-12T07:34:04.228Z</time></trkpt><trkpt lat="43.3803783" lon="13.230485"><ele>373.6666666666667</ele><time>2026-04-12T07:34:05.227Z</time></trkpt><trkpt lat="43.3803133" lon="13.2303117"><ele>375.33333333333337</ele><time>2026-04-12T07:34:06.228Z</time></trkpt><trkpt lat="43.3802583" lon="13.230115"><ele>377.0</ele><time>2026-04-12T07:34:07.227Z</time></trkpt><trkpt lat="43.380215" lon="13.229895"><ele>380.0</ele><time>2026-04-12T07:34:08.228Z</time></trkpt><trkpt lat="43.3801833" lon="13.2296667"><ele>383.0</ele><time>2026-04-12T07:34:09.228Z</time></trkpt><trkpt lat="43.3801933" lon="13.2294367"><ele>386.0</ele><time>2026-04-12T07:34:10.228Z</time></trkpt><trkpt lat="43.38022" lon="13.2292333"><ele>386.0</ele><time>2026-04-12T07:34:11.227Z</time></trkpt><trkpt lat="43.3802967" lon="13.2290433"><ele>386.0</ele><time>2026-04-12T07:34:12.228Z</time></trkpt><trkpt lat="43.3803833" lon="13.228895"><ele>386.0</ele><time>2026-04-12T07:34:13.228Z</time></trkpt><trkpt lat="43.3804583" lon="13.228765"><ele>386.0</ele><time>2026-04-12T07:34:14.227Z</time></trkpt><trkpt lat="43.3805317" lon="13.2286417"><ele>386.0</ele><time>2026-04-12T07:34:15.228Z</time></trkpt><trkpt lat="43.3805783" lon="13.2285317"><ele>386.0</ele><time>2026-04-12T07:34:16.228Z</time></trkpt><trkpt lat="43.3806133" lon="13.2284383"><ele>386.0</ele><time>2026-04-12T07:34:17.227Z</time></trkpt><trkpt lat="43.3806367" lon="13.22835"><ele>386.0</ele><time>2026-04-12T07:34:18.227Z</time></trkpt><trkpt lat="43.380705" lon="13.228195"><ele>386.0</ele><time>2026-04-12T07:34:20.228Z</time></trkpt><trkpt lat="43.3807683" lon="13.228115"><ele>386.0</ele><time>2026-04-12T07:34:21.228Z</time></trkpt><trkpt lat="43.3808367" lon="13.22802"><ele>386.0</ele><time>2026-04-12T07:34:22.227Z</time></trkpt><trkpt lat="43.380915" lon="13.227895"><ele>386.0</ele><time>2026-04-12T07:34:23.228Z</time></trkpt><trkpt lat="43.3809917" lon="13.2277483"><ele>386.0</ele><time>2026-04-12T07:34:24.227Z</time></trkpt><trkpt lat="43.38107" lon="13.2275917"><ele>386.0</ele><time>2026-04-12T07:34:25.228Z</time></trkpt><trkpt lat="43.3811617" lon="13.2274483"><ele>386.0</ele><time>2026-04-12T07:34:26.228Z</time></trkpt><trkpt lat="43.3812733" lon="13.2273333"><ele>386.0</ele><time>2026-04-12T07:34:27.228Z</time></trkpt><trkpt lat="43.3814033" lon="13.2272617"><ele>386.0</ele><time>2026-04-12T07:34:28.227Z</time></trkpt><trkpt lat="43.381545" lon="13.22723"><ele>384.0</ele><time>2026-04-12T07:34:29.227Z</time></trkpt><trkpt lat="43.381695" lon="13.2272167"><ele>382.0</ele><time>2026-04-12T07:34:30.228Z</time></trkpt><trkpt lat="43.3818483" lon="13.2271883"><ele>380.0</ele><time>2026-04-12T07:34:31.227Z</time></trkpt><trkpt lat="43.3820033" lon="13.2271633"><ele>380.0</ele><time>2026-04-12T07:34:32.228Z</time></trkpt><trkpt lat="43.38217" lon="13.2271333"><ele>380.0</ele><time>2026-04-12T07:34:33.228Z</time></trkpt><trkpt lat="43.3823333" lon="13.2271183"><ele>380.0</ele><time>2026-04-12T07:34:34.227Z</time></trkpt><trkpt lat="43.3824833" lon="13.2271233"><ele>376.0</ele><time>2026-04-12T07:34:35.228Z</time></trkpt><trkpt lat="43.3826433" lon="13.22712"><ele>372.0</ele><time>2026-04-12T07:34:36.228Z</time></trkpt><trkpt lat="43.3827967" lon="13.227135"><ele>368.0</ele><time>2026-04-12T07:34:37.228Z</time></trkpt><trkpt lat="43.3829567" lon="13.22715"><ele>365.0</ele><time>2026-04-12T07:34:38.227Z</time></trkpt><trkpt lat="43.383115" lon="13.22716"><ele>362.0</ele><time>2026-04-12T07:34:39.228Z</time></trkpt><trkpt lat="43.3832667" lon="13.22716"><ele>359.0</ele><time>2026-04-12T07:34:40.228Z</time></trkpt><trkpt lat="43.38342" lon="13.22711"><ele>359.0</ele><time>2026-04-12T07:34:41.228Z</time></trkpt><trkpt lat="43.3835633" lon="13.2270267"><ele>359.0</ele><time>2026-04-12T07:34:42.228Z</time></trkpt><trkpt lat="43.3837017" lon="13.2269517"><ele>359.0</ele><time>2026-04-12T07:34:43.228Z</time></trkpt><trkpt lat="43.38383" lon="13.2269167"><ele>359.0</ele><time>2026-04-12T07:34:44.228Z</time></trkpt><trkpt lat="43.3839617" lon="13.226945"><ele>356.0</ele><time>2026-04-12T07:34:45.227Z</time></trkpt><trkpt lat="43.3840833" lon="13.2270117"><ele>353.0</ele><time>2026-04-12T07:34:46.227Z</time></trkpt><trkpt lat="43.3841917" lon="13.227125"><ele>350.0</ele><time>2026-04-12T07:34:47.228Z</time></trkpt><trkpt lat="43.384295" lon="13.2272783"><ele>347.0</ele><time>2026-04-12T07:34:48.227Z</time></trkpt><trkpt lat="43.3844017" lon="13.2274417"><ele>344.6666666666667</ele><time>2026-04-12T07:34:49.227Z</time></trkpt><trkpt lat="43.384505" lon="13.2275917"><ele>342.3333333333333</ele><time>2026-04-12T07:34:50.227Z</time></trkpt><trkpt lat="43.384605" lon="13.22775"><ele>340.0</ele><time>2026-04-12T07:34:51.227Z</time></trkpt><trkpt lat="43.3846967" lon="13.2279167"><ele>339.25</ele><time>2026-04-12T07:34:52.227Z</time></trkpt><trkpt lat="43.3848017" lon="13.2280783"><ele>338.5</ele><time>2026-04-12T07:34:53.229Z</time></trkpt><trkpt lat="43.38489" lon="13.2282283"><ele>337.75</ele><time>2026-04-12T07:34:54.229Z</time></trkpt><trkpt lat="43.3849533" lon="13.2283767"><ele>337.0</ele><time>2026-04-12T07:34:55.229Z</time></trkpt><trkpt lat="43.3850083" lon="13.228525"><ele>336.75</ele><time>2026-04-12T07:34:56.228Z</time></trkpt><trkpt lat="43.385075" lon="13.228655"><ele>336.5</ele><time>2026-04-12T07:34:57.229Z</time></trkpt><trkpt lat="43.3851617" lon="13.2287833"><ele>336.25</ele><time>2026-04-12T07:34:58.229Z</time></trkpt><trkpt lat="43.385255" lon="13.228925"><ele>336.0</ele><time>2026-04-12T07:34:59.229Z</time></trkpt><trkpt lat="43.3853467" lon="13.2290783"><ele>333.75</ele><time>2026-04-12T07:35:00.229Z</time></trkpt><trkpt lat="43.3854267" lon="13.2292467"><ele>331.5</ele><time>2026-04-12T07:35:01.229Z</time></trkpt><trkpt lat="43.385525" lon="13.2293967"><ele>329.25</ele><time>2026-04-12T07:35:02.229Z</time></trkpt><trkpt lat="43.3856217" lon="13.2295167"><ele>327.0</ele><time>2026-04-12T07:35:03.229Z</time></trkpt><trkpt lat="43.38572" lon="13.2296133"><ele>326.0</ele><time>2026-04-12T07:35:04.229Z</time></trkpt><trkpt lat="43.3858283" lon="13.229675"><ele>325.0</ele><time>2026-04-12T07:35:05.229Z</time></trkpt><trkpt lat="43.3859333" lon="13.2297233"><ele>324.0</ele><time>2026-04-12T07:35:06.229Z</time></trkpt><trkpt lat="43.386055" lon="13.2297433"><ele>323.0</ele><time>2026-04-12T07:35:07.229Z</time></trkpt><trkpt lat="43.386165" lon="13.2297633"><ele>323.0</ele><time>2026-04-12T07:35:08.229Z</time></trkpt><trkpt lat="43.3862783" lon="13.2297983"><ele>323.0</ele><time>2026-04-12T07:35:09.229Z</time></trkpt><trkpt lat="43.3863733" lon="13.2298683"><ele>323.0</ele><time>2026-04-12T07:35:10.229Z</time></trkpt><trkpt lat="43.3864533" lon="13.229975"><ele>323.0</ele><time>2026-04-12T07:35:11.228Z</time></trkpt><trkpt lat="43.3865217" lon="13.2300817"><ele>323.0</ele><time>2026-04-12T07:35:12.229Z</time></trkpt><trkpt lat="43.386585" lon="13.2301883"><ele>320.83333333333337</ele><time>2026-04-12T07:35:13.229Z</time></trkpt><trkpt lat="43.38663" lon="13.230265"><ele>318.6666666666667</ele><time>2026-04-12T07:35:14.229Z</time></trkpt><trkpt lat="43.386705" lon="13.2303283"><ele>316.5</ele><time>2026-04-12T07:35:16.229Z</time></trkpt><trkpt lat="43.386715" lon="13.2301983"><ele>314.3333333333333</ele><time>2026-04-12T07:35:18.229Z</time></trkpt><trkpt lat="43.3866883" lon="13.23009"><ele>312.16666666666663</ele><time>2026-04-12T07:35:19.228Z</time></trkpt><trkpt lat="43.3866567" lon="13.2299533"><ele>310.0</ele><time>2026-04-12T07:35:20.229Z</time></trkpt><trkpt lat="43.3866167" lon="13.2298067"><ele>307.75</ele><time>2026-04-12T07:35:21.228Z</time></trkpt><trkpt lat="43.3865817" lon="13.229635"><ele>305.5</ele><time>2026-04-12T07:35:22.228Z</time></trkpt><trkpt lat="43.38654" lon="13.22946"><ele>303.25</ele><time>2026-04-12T07:35:23.229Z</time></trkpt><trkpt lat="43.38651" lon="13.22927"><ele>301.0</ele><time>2026-04-12T07:35:24.228Z</time></trkpt><trkpt lat="43.3864817" lon="13.229065"><ele>299.25</ele><time>2026-04-12T07:35:25.228Z</time></trkpt><trkpt lat="43.386465" lon="13.22887"><ele>297.5</ele><time>2026-04-12T07:35:26.229Z</time></trkpt><trkpt lat="43.3864583" lon="13.2286733"><ele>295.75</ele><time>2026-04-12T07:35:27.229Z</time></trkpt><trkpt lat="43.386465" lon="13.228475"><ele>294.0</ele><time>2026-04-12T07:35:28.229Z</time></trkpt><trkpt lat="43.386485" lon="13.228265"><ele>294.75</ele><time>2026-04-12T07:35:29.229Z</time></trkpt><trkpt lat="43.3865267" lon="13.2280717"><ele>295.5</ele><time>2026-04-12T07:35:30.228Z</time></trkpt><trkpt lat="43.3865717" lon="13.2278983"><ele>296.25</ele><time>2026-04-12T07:35:31.228Z</time></trkpt><trkpt lat="43.3866183" lon="13.2277117"><ele>297.0</ele><time>2026-04-12T07:35:32.229Z</time></trkpt><trkpt lat="43.3866483" lon="13.2275167"><ele>297.0</ele><time>2026-04-12T07:35:33.229Z</time></trkpt><trkpt lat="43.3866517" lon="13.2273183"><ele>297.0</ele><time>2026-04-12T07:35:34.228Z</time></trkpt><trkpt lat="43.3866283" lon="13.2271117"><ele>297.0</ele><time>2026-04-12T07:35:35.229Z</time></trkpt><trkpt lat="43.3866083" lon="13.2269117"><ele>297.0</ele><time>2026-04-12T07:35:36.229Z</time></trkpt><trkpt lat="43.3865967" lon="13.2266967"><ele>296.3333333333333</ele><time>2026-04-12T07:35:37.229Z</time></trkpt><trkpt lat="43.3866183" lon="13.2264867"><ele>295.66666666666663</ele><time>2026-04-12T07:35:38.229Z</time></trkpt><trkpt lat="43.3866483" lon="13.2262783"><ele>295.0</ele><time>2026-04-12T07:35:39.229Z</time></trkpt><trkpt lat="43.3866883" lon="13.2260517"><ele>295.0</ele><time>2026-04-12T07:35:40.229Z</time></trkpt><trkpt lat="43.3867283" lon="13.2258167"><ele>295.0</ele><time>2026-04-12T07:35:41.229Z</time></trkpt><trkpt lat="43.3867583" lon="13.2255917"><ele>295.0</ele><time>2026-04-12T07:35:42.229Z</time></trkpt><trkpt lat="43.386795" lon="13.2253717"><ele>296.25</ele><time>2026-04-12T07:35:43.229Z</time></trkpt><trkpt lat="43.3868267" lon="13.2251667"><ele>297.5</ele><time>2026-04-12T07:35:44.229Z</time></trkpt><trkpt lat="43.3868483" lon="13.2249833"><ele>298.75</ele><time>2026-04-12T07:35:45.229Z</time></trkpt><trkpt lat="43.3868583" lon="13.224825"><ele>300.0</ele><time>2026-04-12T07:35:46.229Z</time></trkpt><trkpt lat="43.386875" lon="13.2246867"><ele>300.2</ele><time>2026-04-12T07:35:47.229Z</time></trkpt><trkpt lat="43.3869017" lon="13.224575"><ele>300.4</ele><time>2026-04-12T07:35:48.229Z</time></trkpt><trkpt lat="43.386955" lon="13.2245033"><ele>300.6</ele><time>2026-04-12T07:35:49.229Z</time></trkpt><trkpt lat="43.3870517" lon="13.2244667"><ele>300.8</ele><time>2026-04-12T07:35:50.228Z</time></trkpt><trkpt lat="43.38715" lon="13.2244617"><ele>301.0</ele><time>2026-04-12T07:35:51.229Z</time></trkpt><trkpt lat="43.3872533" lon="13.2245533"><ele>301.0</ele><time>2026-04-12T07:35:52.229Z</time></trkpt><trkpt lat="43.3873517" lon="13.2246367"><ele>301.0</ele><time>2026-04-12T07:35:53.228Z</time></trkpt><trkpt lat="43.3874633" lon="13.2247"><ele>301.0</ele><time>2026-04-12T07:35:54.229Z</time></trkpt><trkpt lat="43.3875883" lon="13.224755"><ele>301.0</ele><time>2026-04-12T07:35:55.229Z</time></trkpt><trkpt lat="43.387715" lon="13.2247567"><ele>301.0</ele><time>2026-04-12T07:35:56.229Z</time></trkpt><trkpt lat="43.387845" lon="13.22472"><ele>301.0</ele><time>2026-04-12T07:35:57.229Z</time></trkpt><trkpt lat="43.3879617" lon="13.2246767"><ele>301.0</ele><time>2026-04-12T07:35:58.229Z</time></trkpt><trkpt lat="43.388055" lon="13.2245983"><ele>301.0</ele><time>2026-04-12T07:35:59.229Z</time></trkpt><trkpt lat="43.3881233" lon="13.2244833"><ele>300.25</ele><time>2026-04-12T07:36:00.229Z</time></trkpt><trkpt lat="43.3881583" lon="13.2243183"><ele>299.5</ele><time>2026-04-12T07:36:01.229Z</time></trkpt><trkpt lat="43.3881933" lon="13.2241433"><ele>298.75</ele><time>2026-04-12T07:36:02.229Z</time></trkpt><trkpt lat="43.3882133" lon="13.223965"><ele>298.0</ele><time>2026-04-12T07:36:03.229Z</time></trkpt><trkpt lat="43.3882317" lon="13.22377"><ele>300.25</ele><time>2026-04-12T07:36:04.229Z</time></trkpt><trkpt lat="43.38826" lon="13.2235833"><ele>302.5</ele><time>2026-04-12T07:36:05.229Z</time></trkpt><trkpt lat="43.3883017" lon="13.223415"><ele>304.75</ele><time>2026-04-12T07:36:06.229Z</time></trkpt><trkpt lat="43.3883767" lon="13.2232667"><ele>307.0</ele><time>2026-04-12T07:36:07.229Z</time></trkpt><trkpt lat="43.3884733" lon="13.2231417"><ele>306.75</ele><time>2026-04-12T07:36:08.229Z</time></trkpt><trkpt lat="43.3885867" lon="13.2230567"><ele>306.5</ele><time>2026-04-12T07:36:09.228Z</time></trkpt><trkpt lat="43.38871" lon="13.2229933"><ele>306.25</ele><time>2026-04-12T07:36:10.229Z</time></trkpt><trkpt lat="43.38882" lon="13.222935"><ele>306.0</ele><time>2026-04-12T07:36:11.229Z</time></trkpt><trkpt lat="43.3889167" lon="13.2228833"><ele>306.0</ele><time>2026-04-12T07:36:12.229Z</time></trkpt><trkpt lat="43.388995" lon="13.22279"><ele>306.0</ele><time>2026-04-12T07:36:13.229Z</time></trkpt><trkpt lat="43.38903" lon="13.2226717"><ele>306.0</ele><time>2026-04-12T07:36:14.229Z</time></trkpt><trkpt lat="43.3890167" lon="13.2225383"><ele>306.0</ele><time>2026-04-12T07:36:15.229Z</time></trkpt><trkpt lat="43.388965" lon="13.2224267"><ele>306.0</ele><time>2026-04-12T07:36:16.228Z</time></trkpt><trkpt lat="43.3888817" lon="13.2223233"><ele>307.0</ele><time>2026-04-12T07:36:17.229Z</time></trkpt><trkpt lat="43.3887817" lon="13.22221"><ele>308.0</ele><time>2026-04-12T07:36:18.229Z</time></trkpt><trkpt lat="43.3886717" lon="13.222085"><ele>309.0</ele><time>2026-04-12T07:36:19.228Z</time></trkpt><trkpt lat="43.38857" lon="13.221945"><ele>310.0</ele><time>2026-04-12T07:36:20.228Z</time></trkpt><trkpt lat="43.3884767" lon="13.2218217"><ele>310.0</ele><time>2026-04-12T07:36:21.228Z</time></trkpt><trkpt lat="43.3883783" lon="13.2216933"><ele>310.0</ele><time>2026-04-12T07:36:22.228Z</time></trkpt><trkpt lat="43.3882783" lon="13.2215683"><ele>310.0</ele><time>2026-04-12T07:36:23.229Z</time></trkpt><trkpt lat="43.3881683" lon="13.2214517"><ele>310.0</ele><time>2026-04-12T07:36:24.229Z</time></trkpt><trkpt lat="43.388065" lon="13.2213417"><ele>312.5</ele><time>2026-04-12T07:36:25.229Z</time></trkpt><trkpt lat="43.3879633" lon="13.2212483"><ele>315.0</ele><time>2026-04-12T07:36:26.228Z</time></trkpt><trkpt lat="43.3878633" lon="13.221165"><ele>317.5</ele><time>2026-04-12T07:36:27.229Z</time></trkpt><trkpt lat="43.387765" lon="13.22106"><ele>320.0</ele><time>2026-04-12T07:36:28.229Z</time></trkpt><trkpt lat="43.38768" lon="13.2209367"><ele>320.0</ele><time>2026-04-12T07:36:29.229Z</time></trkpt><trkpt lat="43.3876233" lon="13.2207983"><ele>320.0</ele><time>2026-04-12T07:36:30.229Z</time></trkpt><trkpt lat="43.3876067" lon="13.22063"><ele>320.0</ele><time>2026-04-12T07:36:31.229Z</time></trkpt><trkpt lat="43.38763" lon="13.2204767"><ele>320.0</ele><time>2026-04-12T07:36:32.229Z</time></trkpt><trkpt lat="43.3876817" lon="13.220335"><ele>320.0</ele><time>2026-04-12T07:36:33.229Z</time></trkpt><trkpt lat="43.38777" lon="13.2202467"><ele>320.0</ele><time>2026-04-12T07:36:34.228Z</time></trkpt><trkpt lat="43.3878667" lon="13.2202"><ele>320.0</ele><time>2026-04-12T07:36:35.229Z</time></trkpt><trkpt lat="43.3879567" lon="13.2201883"><ele>320.0</ele><time>2026-04-12T07:36:36.229Z</time></trkpt><trkpt lat="43.3880717" lon="13.2202283"><ele>320.0</ele><time>2026-04-12T07:36:37.228Z</time></trkpt><trkpt lat="43.3882033" lon="13.220285"><ele>319.25</ele><time>2026-04-12T07:36:38.229Z</time></trkpt><trkpt lat="43.3883417" lon="13.2203283"><ele>318.5</ele><time>2026-04-12T07:36:39.229Z</time></trkpt><trkpt lat="43.3884833" lon="13.22034"><ele>317.75</ele><time>2026-04-12T07:36:40.229Z</time></trkpt><trkpt lat="43.3886367" lon="13.2203217"><ele>317.0</ele><time>2026-04-12T07:36:41.229Z</time></trkpt><trkpt lat="43.3887833" lon="13.2202817"><ele>316.0</ele><time>2026-04-12T07:36:42.229Z</time></trkpt><trkpt lat="43.3889283" lon="13.2202317"><ele>315.0</ele><time>2026-04-12T07:36:43.229Z</time></trkpt><trkpt lat="43.38907" lon="13.22016"><ele>314.0</ele><time>2026-04-12T07:36:44.229Z</time></trkpt><trkpt lat="43.38921" lon="13.22006"><ele>314.0</ele><time>2026-04-12T07:36:45.229Z</time></trkpt><trkpt lat="43.38932" lon="13.2199717"><ele>314.0</ele><time>2026-04-12T07:36:46.229Z</time></trkpt><trkpt lat="43.3894283" lon="13.21985"><ele>314.0</ele><time>2026-04-12T07:36:47.229Z</time></trkpt><trkpt lat="43.3895067" lon="13.219705"><ele>314.0</ele><time>2026-04-12T07:36:48.228Z</time></trkpt><trkpt lat="43.3895867" lon="13.2195283"><ele>314.0</ele><time>2026-04-12T07:36:49.228Z</time></trkpt><trkpt lat="43.3896667" lon="13.21934"><ele>314.0</ele><time>2026-04-12T07:36:50.228Z</time></trkpt><trkpt lat="43.3897583" lon="13.2191517"><ele>314.0</ele><time>2026-04-12T07:36:51.229Z</time></trkpt><trkpt lat="43.3898417" lon="13.2189583"><ele>314.0</ele><time>2026-04-12T07:36:52.229Z</time></trkpt><trkpt lat="43.3899433" lon="13.2187683"><ele>314.0</ele><time>2026-04-12T07:36:53.229Z</time></trkpt><trkpt lat="43.3900383" lon="13.2186"><ele>314.0</ele><time>2026-04-12T07:36:54.229Z</time></trkpt><trkpt lat="43.39015" lon="13.21845"><ele>314.0</ele><time>2026-04-12T07:36:55.229Z</time></trkpt><trkpt lat="43.3902667" lon="13.2183383"><ele>314.0</ele><time>2026-04-12T07:36:56.229Z</time></trkpt><trkpt lat="43.3903983" lon="13.2182617"><ele>314.0</ele><time>2026-04-12T07:36:57.229Z</time></trkpt><trkpt lat="43.390535" lon="13.218205"><ele>314.0</ele><time>2026-04-12T07:36:58.229Z</time></trkpt><trkpt lat="43.3906783" lon="13.2181633"><ele>319.0</ele><time>2026-04-12T07:36:59.228Z</time></trkpt><trkpt lat="43.3908367" lon="13.2181267"><ele>324.0</ele><time>2026-04-12T07:37:00.229Z</time></trkpt><trkpt lat="43.391005" lon="13.2180817"><ele>329.0</ele><time>2026-04-12T07:37:01.229Z</time></trkpt><trkpt lat="43.39117" lon="13.2180383"><ele>328.33333333333337</ele><time>2026-04-12T07:37:02.229Z</time></trkpt><trkpt lat="43.391345" lon="13.2179983"><ele>327.6666666666667</ele><time>2026-04-12T07:37:03.228Z</time></trkpt><trkpt lat="43.39151" lon="13.21797"><ele>327.0</ele><time>2026-04-12T07:37:04.229Z</time></trkpt><trkpt lat="43.391655" lon="13.2179467"><ele>327.0</ele><time>2026-04-12T07:37:05.228Z</time></trkpt><trkpt lat="43.391805" lon="13.2179183"><ele>327.0</ele><time>2026-04-12T07:37:06.228Z</time></trkpt><trkpt lat="43.3919317" lon="13.2178817"><ele>327.0</ele><time>2026-04-12T07:37:07.229Z</time></trkpt><trkpt lat="43.3920317" lon="13.2177833"><ele>327.0</ele><time>2026-04-12T07:37:08.229Z</time></trkpt><trkpt lat="43.3921033" lon="13.2176333"><ele>327.0</ele><time>2026-04-12T07:37:09.229Z</time></trkpt><trkpt lat="43.3921283" lon="13.2174583"><ele>327.0</ele><time>2026-04-12T07:37:10.228Z</time></trkpt><trkpt lat="43.3921317" lon="13.21727"><ele>327.0</ele><time>2026-04-12T07:37:11.229Z</time></trkpt><trkpt lat="43.3921317" lon="13.2170667"><ele>327.0</ele><time>2026-04-12T07:37:12.229Z</time></trkpt><trkpt lat="43.3920967" lon="13.2168667"><ele>326.6666666666667</ele><time>2026-04-12T07:37:13.228Z</time></trkpt><trkpt lat="43.3920433" lon="13.2166667"><ele>326.33333333333337</ele><time>2026-04-12T07:37:14.229Z</time></trkpt><trkpt lat="43.3919733" lon="13.2164783"><ele>326.0</ele><time>2026-04-12T07:37:15.229Z</time></trkpt><trkpt lat="43.3919" lon="13.216275"><ele>326.0</ele><time>2026-04-12T07:37:16.229Z</time></trkpt><trkpt lat="43.39185" lon="13.216065"><ele>326.0</ele><time>2026-04-12T07:37:17.229Z</time></trkpt><trkpt lat="43.391825" lon="13.2158567"><ele>326.0</ele><time>2026-04-12T07:37:18.229Z</time></trkpt><trkpt lat="43.3918217" lon="13.2156317"><ele>325.6666666666667</ele><time>2026-04-12T07:37:19.229Z</time></trkpt><trkpt lat="43.3918367" lon="13.2154067"><ele>325.3333333333333</ele><time>2026-04-12T07:37:20.229Z</time></trkpt><trkpt lat="43.3918683" lon="13.2151733"><ele>325.0</ele><time>2026-04-12T07:37:21.229Z</time></trkpt><trkpt lat="43.3919217" lon="13.21495"><ele>327.3333333333333</ele><time>2026-04-12T07:37:22.229Z</time></trkpt><trkpt lat="43.391985" lon="13.2147367"><ele>329.6666666666667</ele><time>2026-04-12T07:37:23.229Z</time></trkpt><trkpt lat="43.392065" lon="13.2145233"><ele>332.0</ele><time>2026-04-12T07:37:24.228Z</time></trkpt><trkpt lat="43.3921417" lon="13.2143333"><ele>330.0</ele><time>2026-04-12T07:37:25.229Z</time></trkpt><trkpt lat="43.392225" lon="13.2141483"><ele>328.0</ele><time>2026-04-12T07:37:26.229Z</time></trkpt><trkpt lat="43.3922933" lon="13.2139717"><ele>326.0</ele><time>2026-04-12T07:37:27.229Z</time></trkpt><trkpt lat="43.3923533" lon="13.2137983"><ele>324.0</ele><time>2026-04-12T07:37:28.229Z</time></trkpt><trkpt lat="43.3923667" lon="13.21364"><ele>324.0</ele><time>2026-04-12T07:37:29.229Z</time></trkpt><trkpt lat="43.3923817" lon="13.2134683"><ele>324.0</ele><time>2026-04-12T07:37:30.229Z</time></trkpt><trkpt lat="43.3923767" lon="13.213305"><ele>324.0</ele><time>2026-04-12T07:37:31.229Z</time></trkpt><trkpt lat="43.3923683" lon="13.2131433"><ele>324.0</ele><time>2026-04-12T07:37:32.229Z</time></trkpt><trkpt lat="43.3923667" lon="13.2129633"><ele>325.0</ele><time>2026-04-12T07:37:33.229Z</time></trkpt><trkpt lat="43.392385" lon="13.2128033"><ele>326.0</ele><time>2026-04-12T07:37:34.228Z</time></trkpt><trkpt lat="43.3924217" lon="13.2126533"><ele>327.0</ele><time>2026-04-12T07:37:35.229Z</time></trkpt><trkpt lat="43.3924917" lon="13.2125017"><ele>328.0</ele><time>2026-04-12T07:37:36.229Z</time></trkpt><trkpt lat="43.3925833" lon="13.21238"><ele>330.0</ele><time>2026-04-12T07:37:37.228Z</time></trkpt><trkpt lat="43.3926883" lon="13.212305"><ele>332.0</ele><time>2026-04-12T07:37:38.229Z</time></trkpt><trkpt lat="43.392805" lon="13.212265"><ele>334.0</ele><time>2026-04-12T07:37:39.229Z</time></trkpt><trkpt lat="43.3929417" lon="13.2122417"><ele>336.0</ele><time>2026-04-12T07:37:40.229Z</time></trkpt><trkpt lat="43.3930867" lon="13.2122283"><ele>336.0</ele><time>2026-04-12T07:37:41.229Z</time></trkpt><trkpt lat="43.393215" lon="13.212205"><ele>336.0</ele><time>2026-04-12T07:37:42.228Z</time></trkpt><trkpt lat="43.3933417" lon="13.2121983"><ele>336.0</ele><time>2026-04-12T07:37:43.229Z</time></trkpt><trkpt lat="43.3934467" lon="13.2121883"><ele>336.0</ele><time>2026-04-12T07:37:44.229Z</time></trkpt><trkpt lat="43.3935467" lon="13.212165"><ele>336.0</ele><time>2026-04-12T07:37:45.229Z</time></trkpt><trkpt lat="43.3936467" lon="13.2121533"><ele>336.0</ele><time>2026-04-12T07:37:46.228Z</time></trkpt><trkpt lat="43.39373" lon="13.2121583"><ele>336.0</ele><time>2026-04-12T07:37:47.229Z</time></trkpt><trkpt lat="43.393815" lon="13.212175"><ele>336.0</ele><time>2026-04-12T07:37:48.229Z</time></trkpt><trkpt lat="43.3938867" lon="13.2122433"><ele>336.0</ele><time>2026-04-12T07:37:49.229Z</time></trkpt><trkpt lat="43.3939483" lon="13.21236"><ele>334.0</ele><time>2026-04-12T07:37:50.229Z</time></trkpt><trkpt lat="43.394015" lon="13.2124917"><ele>332.0</ele><time>2026-04-12T07:37:51.229Z</time></trkpt><trkpt lat="43.394085" lon="13.2126467"><ele>330.0</ele><time>2026-04-12T07:37:52.228Z</time></trkpt><trkpt lat="43.3941717" lon="13.2127817"><ele>328.0</ele><time>2026-04-12T07:37:53.229Z</time></trkpt><trkpt lat="43.3942533" lon="13.2129367"><ele>328.0</ele><time>2026-04-12T07:37:54.229Z</time></trkpt><trkpt lat="43.3943317" lon="13.2130833"><ele>328.0</ele><time>2026-04-12T07:37:55.229Z</time></trkpt><trkpt lat="43.3944117" lon="13.2132233"><ele>328.0</ele><time>2026-04-12T07:37:56.228Z</time></trkpt><trkpt lat="43.39449" lon="13.213355"><ele>328.0</ele><time>2026-04-12T07:37:57.229Z</time></trkpt><trkpt lat="43.3945567" lon="13.2134767"><ele>327.4</ele><time>2026-04-12T07:37:58.228Z</time></trkpt><trkpt lat="43.3946133" lon="13.2135717"><ele>326.79999999999995</ele><time>2026-04-12T07:37:59.229Z</time></trkpt><trkpt lat="43.3946567" lon="13.2136533"><ele>326.2</ele><time>2026-04-12T07:38:00.229Z</time></trkpt><trkpt lat="43.3947433" lon="13.21373"><ele>325.6</ele><time>2026-04-12T07:38:02.229Z</time></trkpt><trkpt lat="43.3948383" lon="13.213605"><ele>325.0</ele><time>2026-04-12T07:38:04.229Z</time></trkpt><trkpt lat="43.39488" lon="13.2134833"><ele>325.0</ele><time>2026-04-12T07:38:05.229Z</time></trkpt><trkpt lat="43.3949083" lon="13.213345"><ele>325.0</ele><time>2026-04-12T07:38:06.228Z</time></trkpt><trkpt lat="43.3949333" lon="13.2131817"><ele>325.0</ele><time>2026-04-12T07:38:07.229Z</time></trkpt><trkpt lat="43.39497" lon="13.2130117"><ele>325.0</ele><time>2026-04-12T07:38:08.228Z</time></trkpt><trkpt lat="43.395015" lon="13.2128367"><ele>325.0</ele><time>2026-04-12T07:38:09.228Z</time></trkpt><trkpt lat="43.3950717" lon="13.2126667"><ele>325.0</ele><time>2026-04-12T07:38:10.229Z</time></trkpt><trkpt lat="43.3951383" lon="13.212505"><ele>325.0</ele><time>2026-04-12T07:38:11.229Z</time></trkpt><trkpt lat="43.3952133" lon="13.2123567"><ele>325.0</ele><time>2026-04-12T07:38:12.229Z</time></trkpt><trkpt lat="43.3952883" lon="13.2122133"><ele>325.75</ele><time>2026-04-12T07:38:13.229Z</time></trkpt><trkpt lat="43.39535" lon="13.2120733"><ele>326.5</ele><time>2026-04-12T07:38:14.229Z</time></trkpt><trkpt lat="43.3954167" lon="13.211905"><ele>327.25</ele><time>2026-04-12T07:38:15.228Z</time></trkpt><trkpt lat="43.3954517" lon="13.2117217"><ele>328.0</ele><time>2026-04-12T07:38:16.229Z</time></trkpt><trkpt lat="43.3954883" lon="13.2115267"><ele>325.0</ele><time>2026-04-12T07:38:17.229Z</time></trkpt><trkpt lat="43.3955267" lon="13.2113333"><ele>322.0</ele><time>2026-04-12T07:38:18.228Z</time></trkpt><trkpt lat="43.39558" lon="13.21113"><ele>319.0</ele><time>2026-04-12T07:38:19.229Z</time></trkpt><trkpt lat="43.39564" lon="13.21092"><ele>319.0</ele><time>2026-04-12T07:38:20.229Z</time></trkpt><trkpt lat="43.39571" lon="13.2107067"><ele>319.0</ele><time>2026-04-12T07:38:21.229Z</time></trkpt><trkpt lat="43.3957767" lon="13.2105117"><ele>319.0</ele><time>2026-04-12T07:38:22.229Z</time></trkpt><trkpt lat="43.395825" lon="13.2103283"><ele>320.5</ele><time>2026-04-12T07:38:23.229Z</time></trkpt><trkpt lat="43.39587" lon="13.2101517"><ele>322.0</ele><time>2026-04-12T07:38:24.229Z</time></trkpt><trkpt lat="43.3959317" lon="13.2100117"><ele>323.5</ele><time>2026-04-12T07:38:25.229Z</time></trkpt><trkpt lat="43.3960133" lon="13.20992"><ele>325.0</ele><time>2026-04-12T07:38:26.229Z</time></trkpt><trkpt lat="43.3961117" lon="13.2098783"><ele>325.0</ele><time>2026-04-12T07:38:27.229Z</time></trkpt><trkpt lat="43.3962267" lon="13.209885"><ele>325.0</ele><time>2026-04-12T07:38:28.228Z</time></trkpt><trkpt lat="43.3963417" lon="13.209905"><ele>325.0</ele><time>2026-04-12T07:38:29.229Z</time></trkpt><trkpt lat="43.39645" lon="13.2099283"><ele>325.0</ele><time>2026-04-12T07:38:30.229Z</time></trkpt><trkpt lat="43.396565" lon="13.2099567"><ele>325.5</ele><time>2026-04-12T07:38:31.229Z</time></trkpt><trkpt lat="43.396665" lon="13.209975"><ele>326.0</ele><time>2026-04-12T07:38:32.229Z</time></trkpt><trkpt lat="43.39675" lon="13.2100067"><ele>326.5</ele><time>2026-04-12T07:38:33.228Z</time></trkpt><trkpt lat="43.39682" lon="13.21005"><ele>327.0</ele><time>2026-04-12T07:38:34.228Z</time></trkpt><trkpt lat="43.3968817" lon="13.21011"><ele>327.5</ele><time>2026-04-12T07:38:35.228Z</time></trkpt><trkpt lat="43.3969417" lon="13.21021"><ele>328.0</ele><time>2026-04-12T07:38:36.229Z</time></trkpt><trkpt lat="43.3969883" lon="13.2103417"><ele>328.0</ele><time>2026-04-12T07:38:37.229Z</time></trkpt><trkpt lat="43.3970367" lon="13.2104883"><ele>328.0</ele><time>2026-04-12T07:38:38.229Z</time></trkpt><trkpt lat="43.3971033" lon="13.210635"><ele>328.0</ele><time>2026-04-12T07:38:39.229Z</time></trkpt><trkpt lat="43.397195" lon="13.2107617"><ele>328.0</ele><time>2026-04-12T07:38:40.229Z</time></trkpt><trkpt lat="43.3973" lon="13.2108717"><ele>326.75</ele><time>2026-04-12T07:38:41.228Z</time></trkpt><trkpt lat="43.397415" lon="13.2109367"><ele>325.5</ele><time>2026-04-12T07:38:42.228Z</time></trkpt><trkpt lat="43.3975533" lon="13.2109683"><ele>324.25</ele><time>2026-04-12T07:38:43.229Z</time></trkpt><trkpt lat="43.3976933" lon="13.210975"><ele>323.0</ele><time>2026-04-12T07:38:44.229Z</time></trkpt><trkpt lat="43.3978383" lon="13.2109783"><ele>323.0</ele><time>2026-04-12T07:38:45.228Z</time></trkpt><trkpt lat="43.397975" lon="13.210975"><ele>323.0</ele><time>2026-04-12T07:38:46.229Z</time></trkpt><trkpt lat="43.398105" lon="13.2109667"><ele>323.0</ele><time>2026-04-12T07:38:47.229Z</time></trkpt><trkpt lat="43.39823" lon="13.2109617"><ele>323.0</ele><time>2026-04-12T07:38:48.229Z</time></trkpt><trkpt lat="43.398345" lon="13.2109533"><ele>323.0</ele><time>2026-04-12T07:38:49.229Z</time></trkpt><trkpt lat="43.398445" lon="13.2109517"><ele>323.0</ele><time>2026-04-12T07:38:50.229Z</time></trkpt><trkpt lat="43.398535" lon="13.2109483"><ele>323.0</ele><time>2026-04-12T07:38:51.229Z</time></trkpt><trkpt lat="43.39861" lon="13.2109433"><ele>323.0</ele><time>2026-04-12T07:38:52.228Z</time></trkpt><trkpt lat="43.3986933" lon="13.210895"><ele>323.0</ele><time>2026-04-12T07:38:54.228Z</time></trkpt><trkpt lat="43.3987083" lon="13.210805"><ele>323.0</ele><time>2026-04-12T07:38:56.229Z</time></trkpt><trkpt lat="43.398655" lon="13.2106417"><ele>324.59999999999997</ele><time>2026-04-12T07:38:58.229Z</time></trkpt><trkpt lat="43.3986083" lon="13.2105467"><ele>326.2</ele><time>2026-04-12T07:38:59.229Z</time></trkpt><trkpt lat="43.3985617" lon="13.2104383"><ele>327.8</ele><time>2026-04-12T07:39:00.229Z</time></trkpt><trkpt lat="43.3985133" lon="13.2103067"><ele>329.4</ele><time>2026-04-12T07:39:01.229Z</time></trkpt><trkpt lat="43.39847" lon="13.2101567"><ele>331.0</ele><time>2026-04-12T07:39:02.229Z</time></trkpt><trkpt lat="43.3984217" lon="13.2100033"><ele>331.0</ele><time>2026-04-12T07:39:03.229Z</time></trkpt><trkpt lat="43.3983733" lon="13.209855"><ele>331.0</ele><time>2026-04-12T07:39:04.229Z</time></trkpt><trkpt lat="43.3983267" lon="13.2097167"><ele>331.0</ele><time>2026-04-12T07:39:05.228Z</time></trkpt><trkpt lat="43.39828" lon="13.2095733"><ele>331.0</ele><time>2026-04-12T07:39:06.229Z</time></trkpt><trkpt lat="43.39823" lon="13.2094183"><ele>331.8</ele><time>2026-04-12T07:39:07.229Z</time></trkpt><trkpt lat="43.398185" lon="13.2092783"><ele>332.6</ele><time>2026-04-12T07:39:08.229Z</time></trkpt><trkpt lat="43.398125" lon="13.20915"><ele>333.4</ele><time>2026-04-12T07:39:09.229Z</time></trkpt><trkpt lat="43.3980617" lon="13.209025"><ele>334.2</ele><time>2026-04-12T07:39:10.228Z</time></trkpt><trkpt lat="43.3979917" lon="13.2089033"><ele>335.0</ele><time>2026-04-12T07:39:11.229Z</time></trkpt><trkpt lat="43.3979167" lon="13.2087867"><ele>336.0</ele><time>2026-04-12T07:39:12.229Z</time></trkpt><trkpt lat="43.3978433" lon="13.208665"><ele>337.0</ele><time>2026-04-12T07:39:13.228Z</time></trkpt><trkpt lat="43.3977683" lon="13.2085417"><ele>338.0</ele><time>2026-04-12T07:39:14.228Z</time></trkpt><trkpt lat="43.397695" lon="13.20842"><ele>339.0</ele><time>2026-04-12T07:39:15.229Z</time></trkpt><trkpt lat="43.3976217" lon="13.208305"><ele>339.0</ele><time>2026-04-12T07:39:16.229Z</time></trkpt><trkpt lat="43.3975533" lon="13.2081983"><ele>339.0</ele><time>2026-04-12T07:39:17.229Z</time></trkpt><trkpt lat="43.397495" lon="13.2081083"><ele>339.0</ele><time>2026-04-12T07:39:18.228Z</time></trkpt><trkpt lat="43.3974433" lon="13.2080217"><ele>339.0</ele><time>2026-04-12T07:39:19.229Z</time></trkpt><trkpt lat="43.3974033" lon="13.2079467"><ele>339.0</ele><time>2026-04-12T07:39:20.229Z</time></trkpt><trkpt lat="43.397335" lon="13.2078517"><ele>339.0</ele><time>2026-04-12T07:39:22.229Z</time></trkpt><trkpt lat="43.3973033" lon="13.2079317"><ele>339.0</ele><time>2026-04-12T07:39:26.229Z</time></trkpt><trkpt lat="43.39737" lon="13.2080617"><ele>339.0</ele><time>2026-04-12T07:39:28.229Z</time></trkpt><trkpt lat="43.3974283" lon="13.2081367"><ele>339.0</ele><time>2026-04-12T07:39:29.229Z</time></trkpt><trkpt lat="43.3974933" lon="13.208225"><ele>339.0</ele><time>2026-04-12T07:39:30.229Z</time></trkpt><trkpt lat="43.3975667" lon="13.208325"><ele>339.0</ele><time>2026-04-12T07:39:31.229Z</time></trkpt><trkpt lat="43.3976233" lon="13.2084283"><ele>339.0</ele><time>2026-04-12T07:39:32.228Z</time></trkpt><trkpt lat="43.3976933" lon="13.2085333"><ele>339.0</ele><time>2026-04-12T07:39:33.229Z</time></trkpt><trkpt lat="43.3977567" lon="13.208635"><ele>339.0</ele><time>2026-04-12T07:39:34.229Z</time></trkpt><trkpt lat="43.397825" lon="13.2087433"><ele>339.0</ele><time>2026-04-12T07:39:35.229Z</time></trkpt><trkpt lat="43.3978817" lon="13.20886"><ele>339.0</ele><time>2026-04-12T07:39:36.228Z</time></trkpt><trkpt lat="43.3979417" lon="13.2089783"><ele>338.5</ele><time>2026-04-12T07:39:37.229Z</time></trkpt><trkpt lat="43.398" lon="13.209085"><ele>338.0</ele><time>2026-04-12T07:39:38.228Z</time></trkpt><trkpt lat="43.398055" lon="13.2091633"><ele>337.5</ele><time>2026-04-12T07:39:39.229Z</time></trkpt><trkpt lat="43.39809" lon="13.2092367"><ele>337.0</ele><time>2026-04-12T07:39:40.228Z</time></trkpt><trkpt lat="43.39813" lon="13.2093233"><ele>336.5</ele><time>2026-04-12T07:39:43.229Z</time></trkpt><trkpt lat="43.3981583" lon="13.2094283"><ele>336.0</ele><time>2026-04-12T07:39:46.229Z</time></trkpt><trkpt lat="43.39823" lon="13.2095833"><ele>335.8</ele><time>2026-04-12T07:39:48.229Z</time></trkpt><trkpt lat="43.398275" lon="13.2096767"><ele>335.6</ele><time>2026-04-12T07:39:49.228Z</time></trkpt><trkpt lat="43.39831" lon="13.20979"><ele>335.4</ele><time>2026-04-12T07:39:50.228Z</time></trkpt><trkpt lat="43.398345" lon="13.209915"><ele>335.2</ele><time>2026-04-12T07:39:51.229Z</time></trkpt><trkpt lat="43.398375" lon="13.2100433"><ele>335.0</ele><time>2026-04-12T07:39:52.229Z</time></trkpt><trkpt lat="43.398415" lon="13.21016"><ele>334.2</ele><time>2026-04-12T07:39:53.228Z</time></trkpt><trkpt lat="43.398445" lon="13.2102867"><ele>333.4</ele><time>2026-04-12T07:39:54.229Z</time></trkpt><trkpt lat="43.3984917" lon="13.2104133"><ele>332.6</ele><time>2026-04-12T07:39:55.229Z</time></trkpt><trkpt lat="43.398535" lon="13.21053"><ele>331.8</ele><time>2026-04-12T07:39:56.229Z</time></trkpt><trkpt lat="43.3985883" lon="13.2106167"><ele>331.0</ele><time>2026-04-12T07:39:57.229Z</time></trkpt><trkpt lat="43.3986567" lon="13.2107017"><ele>329.4</ele><time>2026-04-12T07:39:58.229Z</time></trkpt><trkpt lat="43.3987417" lon="13.2107733"><ele>327.8</ele><time>2026-04-12T07:39:59.229Z</time></trkpt><trkpt lat="43.398835" lon="13.210815"><ele>326.2</ele><time>2026-04-12T07:40:00.229Z</time></trkpt><trkpt lat="43.3989367" lon="13.2108383"><ele>324.59999999999997</ele><time>2026-04-12T07:40:01.229Z</time></trkpt><trkpt lat="43.3990483" lon="13.2108517"><ele>323.0</ele><time>2026-04-12T07:40:02.229Z</time></trkpt><trkpt lat="43.3991617" lon="13.210845"><ele>322.79999999999995</ele><time>2026-04-12T07:40:03.229Z</time></trkpt><trkpt lat="43.3992617" lon="13.2108183"><ele>322.6</ele><time>2026-04-12T07:40:04.228Z</time></trkpt><trkpt lat="43.39936" lon="13.2107783"><ele>322.4</ele><time>2026-04-12T07:40:05.229Z</time></trkpt><trkpt lat="43.3994517" lon="13.2107"><ele>322.20000000000005</ele><time>2026-04-12T07:40:06.229Z</time></trkpt><trkpt lat="43.399515" lon="13.2105883"><ele>322.0</ele><time>2026-04-12T07:40:07.229Z</time></trkpt><trkpt lat="43.39956" lon="13.2104617"><ele>322.8</ele><time>2026-04-12T07:40:08.229Z</time></trkpt><trkpt lat="43.3995917" lon="13.2103217"><ele>323.6</ele><time>2026-04-12T07:40:09.228Z</time></trkpt><trkpt lat="43.3996233" lon="13.2101767"><ele>324.40000000000003</ele><time>2026-04-12T07:40:10.229Z</time></trkpt><trkpt lat="43.3996517" lon="13.21003"><ele>325.20000000000005</ele><time>2026-04-12T07:40:11.229Z</time></trkpt><trkpt lat="43.399675" lon="13.209885"><ele>326.0</ele><time>2026-04-12T07:40:12.229Z</time></trkpt><trkpt lat="43.3996967" lon="13.20973"><ele>323.6</ele><time>2026-04-12T07:40:13.229Z</time></trkpt><trkpt lat="43.3997233" lon="13.2095733"><ele>321.20000000000005</ele><time>2026-04-12T07:40:14.229Z</time></trkpt><trkpt lat="43.3997567" lon="13.2094317"><ele>318.79999999999995</ele><time>2026-04-12T07:40:15.228Z</time></trkpt><trkpt lat="43.399805" lon="13.2093117"><ele>316.4</ele><time>2026-04-12T07:40:16.229Z</time></trkpt><trkpt lat="43.3998783" lon="13.2092267"><ele>314.0</ele><time>2026-04-12T07:40:17.229Z</time></trkpt><trkpt lat="43.399975" lon="13.2091783"><ele>314.0</ele><time>2026-04-12T07:40:18.229Z</time></trkpt><trkpt lat="43.4000733" lon="13.2091717"><ele>314.0</ele><time>2026-04-12T07:40:19.229Z</time></trkpt><trkpt lat="43.4001767" lon="13.2092"><ele>314.0</ele><time>2026-04-12T07:40:20.229Z</time></trkpt><trkpt lat="43.4002967" lon="13.2092533"><ele>314.0</ele><time>2026-04-12T07:40:21.229Z</time></trkpt><trkpt lat="43.4004267" lon="13.2093083"><ele>313.0</ele><time>2026-04-12T07:40:22.229Z</time></trkpt><trkpt lat="43.4005583" lon="13.209355"><ele>312.0</ele><time>2026-04-12T07:40:23.229Z</time></trkpt><trkpt lat="43.4007083" lon="13.209405"><ele>311.0</ele><time>2026-04-12T07:40:24.228Z</time></trkpt><trkpt lat="43.4008333" lon="13.20945"><ele>310.0</ele><time>2026-04-12T07:40:25.229Z</time></trkpt><trkpt lat="43.40096" lon="13.2094783"><ele>310.0</ele><time>2026-04-12T07:40:26.229Z</time></trkpt><trkpt lat="43.401075" lon="13.209465"><ele>310.0</ele><time>2026-04-12T07:40:27.229Z</time></trkpt><trkpt lat="43.4011733" lon="13.2093883"><ele>310.0</ele><time>2026-04-12T07:40:28.229Z</time></trkpt><trkpt lat="43.401245" lon="13.2092617"><ele>310.0</ele><time>2026-04-12T07:40:29.229Z</time></trkpt><trkpt lat="43.4012817" lon="13.2091067"><ele>309.75</ele><time>2026-04-12T07:40:30.229Z</time></trkpt><trkpt lat="43.4012833" lon="13.20893"><ele>309.5</ele><time>2026-04-12T07:40:31.228Z</time></trkpt><trkpt lat="43.4012567" lon="13.2087617"><ele>309.25</ele><time>2026-04-12T07:40:32.228Z</time></trkpt><trkpt lat="43.4012017" lon="13.2085767"><ele>309.0</ele><time>2026-04-12T07:40:33.228Z</time></trkpt><trkpt lat="43.4011267" lon="13.2083833"><ele>309.0</ele><time>2026-04-12T07:40:34.229Z</time></trkpt><trkpt lat="43.4010483" lon="13.20819"><ele>309.0</ele><time>2026-04-12T07:40:35.229Z</time></trkpt><trkpt lat="43.4009683" lon="13.20799"><ele>309.0</ele><time>2026-04-12T07:40:36.229Z</time></trkpt><trkpt lat="43.400885" lon="13.2077783"><ele>309.0</ele><time>2026-04-12T07:40:37.229Z</time></trkpt><trkpt lat="43.4007983" lon="13.2075633"><ele>309.0</ele><time>2026-04-12T07:40:38.228Z</time></trkpt><trkpt lat="43.4007183" lon="13.20734"><ele>309.0</ele><time>2026-04-12T07:40:39.229Z</time></trkpt><trkpt lat="43.40063" lon="13.2071067"><ele>309.6666666666667</ele><time>2026-04-12T07:40:40.229Z</time></trkpt><trkpt lat="43.4005417" lon="13.2068633"><ele>310.33333333333337</ele><time>2026-04-12T07:40:41.229Z</time></trkpt><trkpt lat="43.4004517" lon="13.2066267"><ele>311.0</ele><time>2026-04-12T07:40:42.228Z</time></trkpt><trkpt lat="43.4003667" lon="13.2063983"><ele>308.6666666666667</ele><time>2026-04-12T07:40:43.228Z</time></trkpt><trkpt lat="43.4002867" lon="13.2061867"><ele>306.3333333333333</ele><time>2026-04-12T07:40:44.228Z</time></trkpt><trkpt lat="43.4002083" lon="13.20597"><ele>304.0</ele><time>2026-04-12T07:40:45.228Z</time></trkpt><trkpt lat="43.4001333" lon="13.205755"><ele>303.3333333333333</ele><time>2026-04-12T07:40:46.229Z</time></trkpt><trkpt lat="43.4000883" lon="13.2055383"><ele>302.6666666666667</ele><time>2026-04-12T07:40:47.228Z</time></trkpt><trkpt lat="43.4000717" lon="13.2053"><ele>302.0</ele><time>2026-04-12T07:40:48.229Z</time></trkpt><trkpt lat="43.40006" lon="13.2050517"><ele>300.33333333333337</ele><time>2026-04-12T07:40:49.229Z</time></trkpt><trkpt lat="43.4000617" lon="13.20481"><ele>298.6666666666667</ele><time>2026-04-12T07:40:50.229Z</time></trkpt><trkpt lat="43.4000617" lon="13.20458"><ele>297.0</ele><time>2026-04-12T07:40:51.229Z</time></trkpt><trkpt lat="43.4000833" lon="13.2043467"><ele>297.0</ele><time>2026-04-12T07:40:52.229Z</time></trkpt><trkpt lat="43.40013" lon="13.2041317"><ele>297.0</ele><time>2026-04-12T07:40:53.229Z</time></trkpt><trkpt lat="43.4002183" lon="13.2039383"><ele>297.0</ele><time>2026-04-12T07:40:54.229Z</time></trkpt><trkpt lat="43.4003433" lon="13.2037933"><ele>295.0</ele><time>2026-04-12T07:40:55.229Z</time></trkpt><trkpt lat="43.4004867" lon="13.2036767"><ele>293.0</ele><time>2026-04-12T07:40:56.229Z</time></trkpt><trkpt lat="43.4006417" lon="13.2035867"><ele>291.0</ele><time>2026-04-12T07:40:57.229Z</time></trkpt><trkpt lat="43.40081" lon="13.2035183"><ele>290.25</ele><time>2026-04-12T07:40:58.229Z</time></trkpt><trkpt lat="43.40098" lon="13.2034717"><ele>289.5</ele><time>2026-04-12T07:40:59.229Z</time></trkpt><trkpt lat="43.4011233" lon="13.2034617"><ele>288.75</ele><time>2026-04-12T07:41:00.229Z</time></trkpt><trkpt lat="43.4012467" lon="13.2034833"><ele>288.0</ele><time>2026-04-12T07:41:01.229Z</time></trkpt><trkpt lat="43.4013383" lon="13.20355"><ele>287.1666666666667</ele><time>2026-04-12T07:41:02.229Z</time></trkpt><trkpt lat="43.4014033" lon="13.20363"><ele>286.3333333333333</ele><time>2026-04-12T07:41:03.229Z</time></trkpt><trkpt lat="43.40146" lon="13.20369"><ele>285.5</ele><time>2026-04-12T07:41:04.229Z</time></trkpt><trkpt lat="43.4015333" lon="13.2037217"><ele>284.66666666666663</ele><time>2026-04-12T07:41:06.229Z</time></trkpt><trkpt lat="43.401535" lon="13.2035733"><ele>283.8333333333333</ele><time>2026-04-12T07:41:09.228Z</time></trkpt><trkpt lat="43.40152" lon="13.203485"><ele>283.0</ele><time>2026-04-12T07:41:10.229Z</time></trkpt><trkpt lat="43.4014867" lon="13.203375"><ele>283.0</ele><time>2026-04-12T07:41:11.229Z</time></trkpt><trkpt lat="43.40145" lon="13.2032467"><ele>283.0</ele><time>2026-04-12T07:41:12.229Z</time></trkpt><trkpt lat="43.4014083" lon="13.2031117"><ele>283.0</ele><time>2026-04-12T07:41:13.228Z</time></trkpt><trkpt lat="43.40135" lon="13.2029717"><ele>283.0</ele><time>2026-04-12T07:41:14.229Z</time></trkpt><trkpt lat="43.4012717" lon="13.20285"><ele>283.0</ele><time>2026-04-12T07:41:15.228Z</time></trkpt><trkpt lat="43.4011667" lon="13.20275"><ele>282.5</ele><time>2026-04-12T07:41:16.229Z</time></trkpt><trkpt lat="43.4010483" lon="13.2026517"><ele>282.0</ele><time>2026-04-12T07:41:17.228Z</time></trkpt><trkpt lat="43.400925" lon="13.20254"><ele>281.5</ele><time>2026-04-12T07:41:18.229Z</time></trkpt><trkpt lat="43.4008017" lon="13.2024017"><ele>281.0</ele><time>2026-04-12T07:41:19.228Z</time></trkpt><trkpt lat="43.4007017" lon="13.2022467"><ele>281.25</ele><time>2026-04-12T07:41:20.229Z</time></trkpt><trkpt lat="43.400625" lon="13.2020767"><ele>281.5</ele><time>2026-04-12T07:41:21.229Z</time></trkpt><trkpt lat="43.4005533" lon="13.2019167"><ele>281.75</ele><time>2026-04-12T07:41:22.229Z</time></trkpt><trkpt lat="43.4004683" lon="13.201775"><ele>282.0</ele><time>2026-04-12T07:41:23.229Z</time></trkpt><trkpt lat="43.4003983" lon="13.20164"><ele>282.0</ele><time>2026-04-12T07:41:24.228Z</time></trkpt><trkpt lat="43.4003383" lon="13.20152"><ele>282.0</ele><time>2026-04-12T07:41:25.228Z</time></trkpt><trkpt lat="43.400305" lon="13.2014017"><ele>282.0</ele><time>2026-04-12T07:41:26.228Z</time></trkpt><trkpt lat="43.4003083" lon="13.2012817"><ele>282.0</ele><time>2026-04-12T07:41:27.229Z</time></trkpt><trkpt lat="43.4003533" lon="13.2011567"><ele>282.0</ele><time>2026-04-12T07:41:28.228Z</time></trkpt><trkpt lat="43.4004233" lon="13.201025"><ele>280.5</ele><time>2026-04-12T07:41:29.229Z</time></trkpt><trkpt lat="43.4005083" lon="13.2008717"><ele>279.0</ele><time>2026-04-12T07:41:30.229Z</time></trkpt><trkpt lat="43.4006033" lon="13.2007017"><ele>277.5</ele><time>2026-04-12T07:41:31.228Z</time></trkpt><trkpt lat="43.4007017" lon="13.20054"><ele>276.0</ele><time>2026-04-12T07:41:32.229Z</time></trkpt><trkpt lat="43.400805" lon="13.2003917"><ele>274.75</ele><time>2026-04-12T07:41:33.229Z</time></trkpt><trkpt lat="43.400905" lon="13.2002483"><ele>273.5</ele><time>2026-04-12T07:41:34.229Z</time></trkpt><trkpt lat="43.4010033" lon="13.20011"><ele>272.25</ele><time>2026-04-12T07:41:35.229Z</time></trkpt><trkpt lat="43.4011083" lon="13.1999667"><ele>271.0</ele><time>2026-04-12T07:41:36.228Z</time></trkpt><trkpt lat="43.4012133" lon="13.19984"><ele>269.25</ele><time>2026-04-12T07:41:37.229Z</time></trkpt><trkpt lat="43.4013017" lon="13.1997267"><ele>267.5</ele><time>2026-04-12T07:41:38.229Z</time></trkpt><trkpt lat="43.4013733" lon="13.1995617"><ele>265.75</ele><time>2026-04-12T07:41:39.229Z</time></trkpt><trkpt lat="43.4014283" lon="13.199395"><ele>264.0</ele><time>2026-04-12T07:41:40.229Z</time></trkpt><trkpt lat="43.40146" lon="13.1992067"><ele>264.0</ele><time>2026-04-12T07:41:41.229Z</time></trkpt><trkpt lat="43.401455" lon="13.19901"><ele>264.0</ele><time>2026-04-12T07:41:42.228Z</time></trkpt><trkpt lat="43.4014233" lon="13.19881"><ele>264.0</ele><time>2026-04-12T07:41:43.228Z</time></trkpt><trkpt lat="43.4013767" lon="13.1986033"><ele>264.0</ele><time>2026-04-12T07:41:44.228Z</time></trkpt><trkpt lat="43.40132" lon="13.1983883"><ele>264.6666666666667</ele><time>2026-04-12T07:41:45.229Z</time></trkpt><trkpt lat="43.40127" lon="13.1981583"><ele>265.33333333333337</ele><time>2026-04-12T07:41:46.229Z</time></trkpt><trkpt lat="43.4012133" lon="13.19793"><ele>266.0</ele><time>2026-04-12T07:41:47.229Z</time></trkpt><trkpt lat="43.401155" lon="13.1977017"><ele>266.0</ele><time>2026-04-12T07:41:48.229Z</time></trkpt><trkpt lat="43.4011083" lon="13.19749"><ele>266.0</ele><time>2026-04-12T07:41:49.228Z</time></trkpt><trkpt lat="43.4010633" lon="13.1972783"><ele>266.0</ele><time>2026-04-12T07:41:50.229Z</time></trkpt><trkpt lat="43.4010217" lon="13.1970783"><ele>265.25</ele><time>2026-04-12T07:41:51.229Z</time></trkpt><trkpt lat="43.4009733" lon="13.1968817"><ele>264.5</ele><time>2026-04-12T07:41:52.229Z</time></trkpt><trkpt lat="43.40093" lon="13.1966933"><ele>263.75</ele><time>2026-04-12T07:41:53.229Z</time></trkpt><trkpt lat="43.4008817" lon="13.1965167"><ele>263.0</ele><time>2026-04-12T07:41:54.228Z</time></trkpt><trkpt lat="43.4008283" lon="13.1963583"><ele>261.0</ele><time>2026-04-12T07:41:55.229Z</time></trkpt><trkpt lat="43.40076" lon="13.196225"><ele>259.0</ele><time>2026-04-12T07:41:56.229Z</time></trkpt><trkpt lat="43.4006617" lon="13.196125"><ele>257.0</ele><time>2026-04-12T07:41:57.229Z</time></trkpt><trkpt lat="43.400575" lon="13.1959917"><ele>255.0</ele><time>2026-04-12T07:41:58.228Z</time></trkpt><trkpt lat="43.40049" lon="13.19585"><ele>257.5</ele><time>2026-04-12T07:41:59.229Z</time></trkpt><trkpt lat="43.400435" lon="13.1956567"><ele>260.0</ele><time>2026-04-12T07:42:00.229Z</time></trkpt><trkpt lat="43.400405" lon="13.19546"><ele>262.5</ele><time>2026-04-12T07:42:01.229Z</time></trkpt><trkpt lat="43.4004" lon="13.1952583"><ele>265.0</ele><time>2026-04-12T07:42:02.229Z</time></trkpt><trkpt lat="43.4004317" lon="13.1950533"><ele>265.0</ele><time>2026-04-12T07:42:03.229Z</time></trkpt><trkpt lat="43.400445" lon="13.1948583"><ele>265.0</ele><time>2026-04-12T07:42:04.229Z</time></trkpt><trkpt lat="43.4004433" lon="13.19466"><ele>265.0</ele><time>2026-04-12T07:42:05.229Z</time></trkpt><trkpt lat="43.4004233" lon="13.1944817"><ele>265.0</ele><time>2026-04-12T07:42:06.229Z</time></trkpt><trkpt lat="43.4003667" lon="13.1943083"><ele>262.5</ele><time>2026-04-12T07:42:07.229Z</time></trkpt><trkpt lat="43.4002717" lon="13.19416"><ele>260.0</ele><time>2026-04-12T07:42:08.229Z</time></trkpt><trkpt lat="43.400175" lon="13.1940033"><ele>257.5</ele><time>2026-04-12T07:42:09.228Z</time></trkpt><trkpt lat="43.40008" lon="13.1938367"><ele>255.0</ele><time>2026-04-12T07:42:10.229Z</time></trkpt><trkpt lat="43.3999883" lon="13.1936717"><ele>252.0</ele><time>2026-04-12T07:42:11.228Z</time></trkpt><trkpt lat="43.39989" lon="13.1935033"><ele>249.0</ele><time>2026-04-12T07:42:12.228Z</time></trkpt><trkpt lat="43.3997933" lon="13.1933417"><ele>246.0</ele><time>2026-04-12T07:42:13.229Z</time></trkpt><trkpt lat="43.3996983" lon="13.19319"><ele>247.33333333333331</ele><time>2026-04-12T07:42:14.229Z</time></trkpt><trkpt lat="43.3996183" lon="13.1930217"><ele>248.66666666666666</ele><time>2026-04-12T07:42:15.228Z</time></trkpt><trkpt lat="43.3995533" lon="13.192835"><ele>250.0</ele><time>2026-04-12T07:42:16.228Z</time></trkpt><trkpt lat="43.399495" lon="13.1926283"><ele>250.0</ele><time>2026-04-12T07:42:17.228Z</time></trkpt><trkpt lat="43.399445" lon="13.1924317"><ele>250.0</ele><time>2026-04-12T07:42:18.228Z</time></trkpt><trkpt lat="43.399415" lon="13.19224"><ele>250.0</ele><time>2026-04-12T07:42:19.228Z</time></trkpt><trkpt lat="43.3993733" lon="13.1920517"><ele>250.0</ele><time>2026-04-12T07:42:20.229Z</time></trkpt><trkpt lat="43.3993533" lon="13.1918783"><ele>248.75</ele><time>2026-04-12T07:42:21.229Z</time></trkpt><trkpt lat="43.3993433" lon="13.1917083"><ele>247.5</ele><time>2026-04-12T07:42:22.228Z</time></trkpt><trkpt lat="43.3993717" lon="13.19156"><ele>246.25</ele><time>2026-04-12T07:42:23.229Z</time></trkpt><trkpt lat="43.3994317" lon="13.19143"><ele>245.0</ele><time>2026-04-12T07:42:24.229Z</time></trkpt><trkpt lat="43.3995067" lon="13.1913167"><ele>244.5</ele><time>2026-04-12T07:42:25.229Z</time></trkpt><trkpt lat="43.3996033" lon="13.191195"><ele>244.0</ele><time>2026-04-12T07:42:26.229Z</time></trkpt><trkpt lat="43.399705" lon="13.1910817"><ele>243.5</ele><time>2026-04-12T07:42:27.229Z</time></trkpt><trkpt lat="43.3998083" lon="13.1909683"><ele>243.0</ele><time>2026-04-12T07:42:28.229Z</time></trkpt><trkpt lat="43.39991" lon="13.190875"><ele>243.0</ele><time>2026-04-12T07:42:29.228Z</time></trkpt><trkpt lat="43.40001" lon="13.1908083"><ele>243.0</ele><time>2026-04-12T07:42:30.228Z</time></trkpt><trkpt lat="43.40011" lon="13.190765"><ele>243.0</ele><time>2026-04-12T07:42:31.229Z</time></trkpt><trkpt lat="43.4001983" lon="13.19073"><ele>243.0</ele><time>2026-04-12T07:42:32.229Z</time></trkpt><trkpt lat="43.4002683" lon="13.1906867"><ele>243.0</ele><time>2026-04-12T07:42:33.228Z</time></trkpt><trkpt lat="43.4003183" lon="13.1906217"><ele>244.0</ele><time>2026-04-12T07:42:34.229Z</time></trkpt><trkpt lat="43.4003" lon="13.1904583"><ele>245.0</ele><time>2026-04-12T07:42:36.229Z</time></trkpt><trkpt lat="43.4002417" lon="13.1903733"><ele>246.0</ele><time>2026-04-12T07:42:37.228Z</time></trkpt><trkpt lat="43.40019" lon="13.1903017"><ele>247.0</ele><time>2026-04-12T07:42:38.229Z</time></trkpt><trkpt lat="43.40015" lon="13.1901733"><ele>248.0</ele><time>2026-04-12T07:42:40.229Z</time></trkpt><trkpt lat="43.4002217" lon="13.1901333"><ele>248.0</ele><time>2026-04-12T07:42:42.229Z</time></trkpt><trkpt lat="43.4003017" lon="13.19016"><ele>248.00000000000003</ele><time>2026-04-12T07:42:43.229Z</time></trkpt><trkpt lat="43.4003733" lon="13.19016"><ele>248.0</ele><time>2026-04-12T07:42:44.228Z</time></trkpt><trkpt lat="43.400435" lon="13.1901333"><ele>248.0</ele><time>2026-04-12T07:42:45.228Z</time></trkpt><trkpt lat="43.400455" lon="13.190035"><ele>248.00000000000003</ele><time>2026-04-12T07:42:46.229Z</time></trkpt><trkpt lat="43.4004533" lon="13.18993"><ele>248.0</ele><time>2026-04-12T07:42:47.229Z</time></trkpt><trkpt lat="43.40043" lon="13.189825"><ele>248.0</ele><time>2026-04-12T07:42:48.228Z</time></trkpt><trkpt lat="43.400405" lon="13.1897267"><ele>249.2</ele><time>2026-04-12T07:42:49.229Z</time></trkpt><trkpt lat="43.4003933" lon="13.1896367"><ele>250.4</ele><time>2026-04-12T07:42:50.229Z</time></trkpt><trkpt lat="43.4004733" lon="13.1895367"><ele>251.59999999999997</ele><time>2026-04-12T07:42:52.229Z</time></trkpt><trkpt lat="43.4005817" lon="13.1895417"><ele>252.79999999999998</ele><time>2026-04-12T07:42:54.229Z</time></trkpt><trkpt lat="43.4006533" lon="13.189495"><ele>254.0</ele><time>2026-04-12T07:42:56.228Z</time></trkpt><trkpt lat="43.4006683" lon="13.1893733"><ele>255.16666666666669</ele><time>2026-04-12T07:42:59.228Z</time></trkpt><trkpt lat="43.4006733" lon="13.189265"><ele>256.33333333333337</ele><time>2026-04-12T07:43:01.229Z</time></trkpt><trkpt lat="43.40068" lon="13.1891067"><ele>257.5</ele><time>2026-04-12T07:43:03.228Z</time></trkpt><trkpt lat="43.4006867" lon="13.189015"><ele>258.6666666666667</ele><time>2026-04-12T07:43:04.228Z</time></trkpt><trkpt lat="43.4007" lon="13.1888983"><ele>259.8333333333333</ele><time>2026-04-12T07:43:05.228Z</time></trkpt><trkpt lat="43.4007117" lon="13.188785"><ele>261.0</ele><time>2026-04-12T07:43:06.229Z</time></trkpt><trkpt lat="43.40072" lon="13.1886517"><ele>262.0</ele><time>2026-04-12T07:43:07.229Z</time></trkpt><trkpt lat="43.4007283" lon="13.1885"><ele>263.0</ele><time>2026-04-12T07:43:08.228Z</time></trkpt><trkpt lat="43.4007333" lon="13.1883383"><ele>264.0</ele><time>2026-04-12T07:43:09.229Z</time></trkpt><trkpt lat="43.4007317" lon="13.188185"><ele>265.0</ele><time>2026-04-12T07:43:10.229Z</time></trkpt><trkpt lat="43.4007217" lon="13.188035"><ele>266.0</ele><time>2026-04-12T07:43:11.229Z</time></trkpt><trkpt lat="43.4007133" lon="13.187895"><ele>266.0</ele><time>2026-04-12T07:43:12.228Z</time></trkpt><trkpt lat="43.4006917" lon="13.1877517"><ele>266.0</ele><time>2026-04-12T07:43:13.229Z</time></trkpt><trkpt lat="43.4006817" lon="13.1876333"><ele>266.0</ele><time>2026-04-12T07:43:14.229Z</time></trkpt><trkpt lat="43.4006717" lon="13.1875417"><ele>266.0</ele><time>2026-04-12T07:43:15.228Z</time></trkpt><trkpt lat="43.4006367" lon="13.1874683"><ele>266.0</ele><time>2026-04-12T07:43:16.228Z</time></trkpt><trkpt lat="43.4006033" lon="13.1873933"><ele>266.0</ele><time>2026-04-12T07:43:19.228Z</time></trkpt><trkpt lat="43.4006183" lon="13.1875267"><ele>266.0</ele><time>2026-04-12T07:43:29.229Z</time></trkpt><trkpt lat="43.4006383" lon="13.187615"><ele>266.0</ele><time>2026-04-12T07:43:31.229Z</time></trkpt><trkpt lat="43.4006617" lon="13.18771"><ele>266.0</ele><time>2026-04-12T07:43:33.229Z</time></trkpt><trkpt lat="43.40069" lon="13.1878183"><ele>266.0</ele><time>2026-04-12T07:43:36.228Z</time></trkpt><trkpt lat="43.4007117" lon="13.1879333"><ele>266.0</ele><time>2026-04-12T07:43:39.229Z</time></trkpt><trkpt lat="43.4007283" lon="13.188065"><ele>266.0</ele><time>2026-04-12T07:43:41.228Z</time></trkpt><trkpt lat="43.4007317" lon="13.18816"><ele>266.0</ele><time>2026-04-12T07:43:42.229Z</time></trkpt><trkpt lat="43.4007267" lon="13.1882717"><ele>266.0</ele><time>2026-04-12T07:43:43.229Z</time></trkpt><trkpt lat="43.4007317" lon="13.1883867"><ele>266.0</ele><time>2026-04-12T07:43:44.228Z</time></trkpt><trkpt lat="43.4007167" lon="13.1885133"><ele>266.0</ele><time>2026-04-12T07:43:45.229Z</time></trkpt><trkpt lat="43.4006917" lon="13.1886433"><ele>266.0</ele><time>2026-04-12T07:43:46.229Z</time></trkpt><trkpt lat="43.4006733" lon="13.1887517"><ele>266.0</ele><time>2026-04-12T07:43:47.229Z</time></trkpt><trkpt lat="43.40065" lon="13.1888567"><ele>266.0</ele><time>2026-04-12T07:43:48.229Z</time></trkpt><trkpt lat="43.4006433" lon="13.1889567"><ele>266.0</ele><time>2026-04-12T07:43:49.229Z</time></trkpt><trkpt lat="43.4006383" lon="13.1890467"><ele>266.0</ele><time>2026-04-12T07:43:50.229Z</time></trkpt><trkpt lat="43.4006267" lon="13.1892117"><ele>266.0</ele><time>2026-04-12T07:43:52.229Z</time></trkpt><trkpt lat="43.400625" lon="13.189325"><ele>266.0</ele><time>2026-04-12T07:43:54.229Z</time></trkpt><trkpt lat="43.4006367" lon="13.18942"><ele>266.0</ele><time>2026-04-12T07:43:57.229Z</time></trkpt><trkpt lat="43.400705" lon="13.189365"><ele>266.0</ele><time>2026-04-12T07:44:01.229Z</time></trkpt><trkpt lat="43.4007767" lon="13.1892"><ele>266.0</ele><time>2026-04-12T07:44:03.229Z</time></trkpt><trkpt lat="43.40084" lon="13.1891133"><ele>266.0</ele><time>2026-04-12T07:44:04.228Z</time></trkpt><trkpt lat="43.4009133" lon="13.1890283"><ele>266.0</ele><time>2026-04-12T07:44:05.229Z</time></trkpt><trkpt lat="43.4010083" lon="13.18897"><ele>266.0</ele><time>2026-04-12T07:44:06.229Z</time></trkpt><trkpt lat="43.401115" lon="13.1889267"><ele>266.0</ele><time>2026-04-12T07:44:07.229Z</time></trkpt><trkpt lat="43.4012083" lon="13.188885"><ele>266.0</ele><time>2026-04-12T07:44:08.229Z</time></trkpt><trkpt lat="43.401315" lon="13.1888367"><ele>266.0</ele><time>2026-04-12T07:44:09.229Z</time></trkpt><trkpt lat="43.4014133" lon="13.1888017"><ele>266.0</ele><time>2026-04-12T07:44:10.229Z</time></trkpt><trkpt lat="43.401515" lon="13.18876"><ele>266.0</ele><time>2026-04-12T07:44:11.229Z</time></trkpt><trkpt lat="43.4016167" lon="13.18871"><ele>265.40000000000003</ele><time>2026-04-12T07:44:12.228Z</time></trkpt><trkpt lat="43.4017183" lon="13.1886717"><ele>264.8</ele><time>2026-04-12T07:44:13.229Z</time></trkpt><trkpt lat="43.40182" lon="13.1886017"><ele>264.20000000000005</ele><time>2026-04-12T07:44:14.229Z</time></trkpt><trkpt lat="43.4018983" lon="13.1885033"><ele>263.6</ele><time>2026-04-12T07:44:15.229Z</time></trkpt><trkpt lat="43.4019467" lon="13.1883733"><ele>263.0</ele><time>2026-04-12T07:44:16.229Z</time></trkpt><trkpt lat="43.4019883" lon="13.18822"><ele>263.2</ele><time>2026-04-12T07:44:17.228Z</time></trkpt><trkpt lat="43.4020217" lon="13.188075"><ele>263.4</ele><time>2026-04-12T07:44:18.229Z</time></trkpt><trkpt lat="43.4020583" lon="13.1879467"><ele>263.59999999999997</ele><time>2026-04-12T07:44:19.229Z</time></trkpt><trkpt lat="43.402095" lon="13.1878133"><ele>263.8</ele><time>2026-04-12T07:44:20.228Z</time></trkpt><trkpt lat="43.4021267" lon="13.1876917"><ele>264.0</ele><time>2026-04-12T07:44:21.229Z</time></trkpt><trkpt lat="43.402165" lon="13.1875683"><ele>269.0</ele><time>2026-04-12T07:44:22.229Z</time></trkpt><trkpt lat="43.4022033" lon="13.1874667"><ele>274.0</ele><time>2026-04-12T07:44:23.229Z</time></trkpt><trkpt lat="43.4022533" lon="13.1873967"><ele>279.0</ele><time>2026-04-12T07:44:24.228Z</time></trkpt><trkpt lat="43.4023583" lon="13.1873767"><ele>284.0</ele><time>2026-04-12T07:44:26.229Z</time></trkpt><trkpt lat="43.4024117" lon="13.1875017"><ele>289.0</ele><time>2026-04-12T07:44:28.228Z</time></trkpt><trkpt lat="43.4023983" lon="13.18764"><ele>289.0</ele><time>2026-04-12T07:44:29.229Z</time></trkpt><trkpt lat="43.402395" lon="13.187795"><ele>289.0</ele><time>2026-04-12T07:44:30.229Z</time></trkpt><trkpt lat="43.4024067" lon="13.187935"><ele>289.0</ele><time>2026-04-12T07:44:31.229Z</time></trkpt><trkpt lat="43.4024233" lon="13.18805"><ele>289.0</ele><time>2026-04-12T07:44:32.229Z</time></trkpt><trkpt lat="43.4024583" lon="13.188135"><ele>289.0</ele><time>2026-04-12T07:44:33.229Z</time></trkpt><trkpt lat="43.40257" lon="13.1881183"><ele>289.0</ele><time>2026-04-12T07:44:35.229Z</time></trkpt><trkpt lat="43.4026083" lon="13.1880283"><ele>289.0</ele><time>2026-04-12T07:44:36.229Z</time></trkpt><trkpt lat="43.4026483" lon="13.1879133"><ele>289.0</ele><time>2026-04-12T07:44:37.229Z</time></trkpt><trkpt lat="43.4026933" lon="13.1877967"><ele>289.0</ele><time>2026-04-12T07:44:38.229Z</time></trkpt><trkpt lat="43.402755" lon="13.1876833"><ele>289.0</ele><time>2026-04-12T07:44:39.228Z</time></trkpt><trkpt lat="43.4028167" lon="13.1875733"><ele>289.0</ele><time>2026-04-12T07:44:40.229Z</time></trkpt><trkpt lat="43.4028783" lon="13.1874667"><ele>289.0</ele><time>2026-04-12T07:44:41.228Z</time></trkpt><trkpt lat="43.4029217" lon="13.1873883"><ele>289.0</ele><time>2026-04-12T07:44:42.229Z</time></trkpt><trkpt lat="43.4029683" lon="13.1873233"><ele>289.0</ele><time>2026-04-12T07:44:43.229Z</time></trkpt><trkpt lat="43.403065" lon="13.1873517"><ele>289.0</ele><time>2026-04-12T07:44:45.23Z</time></trkpt><trkpt lat="43.4031317" lon="13.1874983"><ele>293.59999999999997</ele><time>2026-04-12T07:44:47.23Z</time></trkpt><trkpt lat="43.4031517" lon="13.18762"><ele>298.2</ele><time>2026-04-12T07:44:48.23Z</time></trkpt><trkpt lat="43.403185" lon="13.18774"><ele>302.79999999999995</ele><time>2026-04-12T07:44:49.23Z</time></trkpt><trkpt lat="43.4032233" lon="13.1878583"><ele>307.4</ele><time>2026-04-12T07:44:50.23Z</time></trkpt><trkpt lat="43.4032617" lon="13.1879933"><ele>312.0</ele><time>2026-04-12T07:44:51.23Z</time></trkpt><trkpt lat="43.4033167" lon="13.1881133"><ele>311.6666666666667</ele><time>2026-04-12T07:44:52.229Z</time></trkpt><trkpt lat="43.4033767" lon="13.188225"><ele>311.3333333333333</ele><time>2026-04-12T07:44:53.229Z</time></trkpt><trkpt lat="43.4034383" lon="13.1883233"><ele>311.0</ele><time>2026-04-12T07:44:54.23Z</time></trkpt><trkpt lat="43.4035017" lon="13.1884067"><ele>310.66666666666663</ele><time>2026-04-12T07:44:55.229Z</time></trkpt><trkpt lat="43.403575" lon="13.1884667"><ele>310.3333333333333</ele><time>2026-04-12T07:44:56.229Z</time></trkpt><trkpt lat="43.4036383" lon="13.188485"><ele>310.0</ele><time>2026-04-12T07:44:57.23Z</time></trkpt><trkpt lat="43.4036967" lon="13.1884233"><ele>310.0</ele><time>2026-04-12T07:44:58.23Z</time></trkpt><trkpt lat="43.4037467" lon="13.18834"><ele>310.0</ele><time>2026-04-12T07:44:59.23Z</time></trkpt><trkpt lat="43.403765" lon="13.1882283"><ele>310.0</ele><time>2026-04-12T07:45:00.229Z</time></trkpt><trkpt lat="43.4037717" lon="13.18811"><ele>310.0</ele><time>2026-04-12T07:45:01.23Z</time></trkpt><trkpt lat="43.40378" lon="13.1879833"><ele>310.0</ele><time>2026-04-12T07:45:02.23Z</time></trkpt><trkpt lat="43.4038017" lon="13.187875"><ele>310.0</ele><time>2026-04-12T07:45:03.23Z</time></trkpt><trkpt lat="43.4038317" lon="13.1877867"><ele>314.2</ele><time>2026-04-12T07:45:04.23Z</time></trkpt><trkpt lat="43.4038967" lon="13.1877217"><ele>318.4</ele><time>2026-04-12T07:45:05.23Z</time></trkpt><trkpt lat="43.40399" lon="13.18769"><ele>322.6</ele><time>2026-04-12T07:45:06.229Z</time></trkpt><trkpt lat="43.4040983" lon="13.1876667"><ele>326.8</ele><time>2026-04-12T07:45:07.229Z</time></trkpt><trkpt lat="43.40422" lon="13.1876517"><ele>331.0</ele><time>2026-04-12T07:45:08.23Z</time></trkpt><trkpt lat="43.404355" lon="13.1876383"><ele>331.0</ele><time>2026-04-12T07:45:09.23Z</time></trkpt><trkpt lat="43.404495" lon="13.187595"><ele>331.0</ele><time>2026-04-12T07:45:10.23Z</time></trkpt><trkpt lat="43.4046217" lon="13.1875683"><ele>331.0</ele><time>2026-04-12T07:45:11.229Z</time></trkpt><trkpt lat="43.404745" lon="13.187545"><ele>331.0</ele><time>2026-04-12T07:45:12.23Z</time></trkpt><trkpt lat="43.404855" lon="13.1875233"><ele>333.0</ele><time>2026-04-12T07:45:13.23Z</time></trkpt><trkpt lat="43.4049617" lon="13.1875017"><ele>335.0</ele><time>2026-04-12T07:45:14.23Z</time></trkpt><trkpt lat="43.4050717" lon="13.1874567"><ele>337.0</ele><time>2026-04-12T07:45:15.23Z</time></trkpt><trkpt lat="43.4051917" lon="13.1874117"><ele>339.0</ele><time>2026-04-12T07:45:16.23Z</time></trkpt><trkpt lat="43.4053183" lon="13.1873483"><ele>338.6666666666667</ele><time>2026-04-12T07:45:17.23Z</time></trkpt><trkpt lat="43.4054433" lon="13.1872517"><ele>338.33333333333337</ele><time>2026-04-12T07:45:18.23Z</time></trkpt><trkpt lat="43.4055767" lon="13.1871467"><ele>338.0</ele><time>2026-04-12T07:45:19.229Z</time></trkpt><trkpt lat="43.4057117" lon="13.1870417"><ele>338.0</ele><time>2026-04-12T07:45:20.229Z</time></trkpt><trkpt lat="43.4058517" lon="13.1869317"><ele>338.0</ele><time>2026-04-12T07:45:21.23Z</time></trkpt><trkpt lat="43.405985" lon="13.186825"><ele>338.0</ele><time>2026-04-12T07:45:22.229Z</time></trkpt><trkpt lat="43.4061083" lon="13.1867167"><ele>338.0</ele><time>2026-04-12T07:45:23.23Z</time></trkpt><trkpt lat="43.4062233" lon="13.1866017"><ele>338.0</ele><time>2026-04-12T07:45:24.23Z</time></trkpt><trkpt lat="43.4063133" lon="13.186465"><ele>338.0</ele><time>2026-04-12T07:45:25.23Z</time></trkpt><trkpt lat="43.4063883" lon="13.1863417"><ele>338.0</ele><time>2026-04-12T07:45:26.23Z</time></trkpt><trkpt lat="43.4064583" lon="13.1862233"><ele>340.79999999999995</ele><time>2026-04-12T07:45:27.229Z</time></trkpt><trkpt lat="43.4065417" lon="13.186135"><ele>343.6</ele><time>2026-04-12T07:45:28.23Z</time></trkpt><trkpt lat="43.4066433" lon="13.1861"><ele>346.4</ele><time>2026-04-12T07:45:29.23Z</time></trkpt><trkpt lat="43.4067333" lon="13.186125"><ele>349.20000000000005</ele><time>2026-04-12T07:45:30.23Z</time></trkpt><trkpt lat="43.4068483" lon="13.1861633"><ele>352.0</ele><time>2026-04-12T07:45:31.23Z</time></trkpt><trkpt lat="43.4069583" lon="13.1862067"><ele>352.0</ele><time>2026-04-12T07:45:32.23Z</time></trkpt><trkpt lat="43.4070533" lon="13.1862367"><ele>352.0</ele><time>2026-04-12T07:45:33.23Z</time></trkpt><trkpt lat="43.4071417" lon="13.1862683"><ele>352.0</ele><time>2026-04-12T07:45:34.229Z</time></trkpt><trkpt lat="43.407215" lon="13.1862867"><ele>352.0</ele><time>2026-04-12T07:45:35.23Z</time></trkpt><trkpt lat="43.407305" lon="13.1862917"><ele>352.0</ele><time>2026-04-12T07:45:37.23Z</time></trkpt><trkpt lat="43.4073517" lon="13.186155"><ele>354.0</ele><time>2026-04-12T07:45:39.229Z</time></trkpt><trkpt lat="43.4073667" lon="13.1860433"><ele>356.0</ele><time>2026-04-12T07:45:40.23Z</time></trkpt><trkpt lat="43.40738" lon="13.1859083"><ele>358.0</ele><time>2026-04-12T07:45:41.23Z</time></trkpt><trkpt lat="43.407395" lon="13.18575"><ele>360.0</ele><time>2026-04-12T07:45:42.23Z</time></trkpt><trkpt lat="43.4074117" lon="13.1855833"><ele>362.0</ele><time>2026-04-12T07:45:43.23Z</time></trkpt><trkpt lat="43.4074333" lon="13.1854083"><ele>363.5</ele><time>2026-04-12T07:45:44.23Z</time></trkpt><trkpt lat="43.407445" lon="13.1852233"><ele>365.0</ele><time>2026-04-12T07:45:45.229Z</time></trkpt><trkpt lat="43.4074683" lon="13.1850333"><ele>366.5</ele><time>2026-04-12T07:45:46.229Z</time></trkpt><trkpt lat="43.4074867" lon="13.184855"><ele>368.0</ele><time>2026-04-12T07:45:47.23Z</time></trkpt><trkpt lat="43.4075133" lon="13.1846717"><ele>368.33333333333337</ele><time>2026-04-12T07:45:48.229Z</time></trkpt><trkpt lat="43.4075417" lon="13.1844717"><ele>368.6666666666667</ele><time>2026-04-12T07:45:49.23Z</time></trkpt><trkpt lat="43.4075733" lon="13.1842617"><ele>369.0</ele><time>2026-04-12T07:45:50.23Z</time></trkpt><trkpt lat="43.40761" lon="13.18405"><ele>370.0</ele><time>2026-04-12T07:45:51.23Z</time></trkpt><trkpt lat="43.40763" lon="13.1838583"><ele>371.0</ele><time>2026-04-12T07:45:52.23Z</time></trkpt><trkpt lat="43.4076233" lon="13.1836517"><ele>372.0</ele><time>2026-04-12T07:45:53.23Z</time></trkpt><trkpt lat="43.4075767" lon="13.1834567"><ele>373.0</ele><time>2026-04-12T07:45:54.229Z</time></trkpt><trkpt lat="43.40751" lon="13.18327"><ele>374.66666666666663</ele><time>2026-04-12T07:45:55.229Z</time></trkpt><trkpt lat="43.407435" lon="13.1830933"><ele>376.3333333333333</ele><time>2026-04-12T07:45:56.229Z</time></trkpt><trkpt lat="43.4073433" lon="13.1828817"><ele>378.0</ele><time>2026-04-12T07:45:57.23Z</time></trkpt><trkpt lat="43.40727" lon="13.18268"><ele>378.0</ele><time>2026-04-12T07:45:58.229Z</time></trkpt><trkpt lat="43.4071833" lon="13.1824567"><ele>378.0</ele><time>2026-04-12T07:45:59.23Z</time></trkpt><trkpt lat="43.4070933" lon="13.18223"><ele>378.0</ele><time>2026-04-12T07:46:00.229Z</time></trkpt><trkpt lat="43.4070133" lon="13.18202"><ele>378.0</ele><time>2026-04-12T07:46:01.229Z</time></trkpt><trkpt lat="43.4069367" lon="13.1818183"><ele>378.0</ele><time>2026-04-12T07:46:02.229Z</time></trkpt><trkpt lat="43.4068717" lon="13.1816233"><ele>378.0</ele><time>2026-04-12T07:46:03.229Z</time></trkpt><trkpt lat="43.4068117" lon="13.18142"><ele>378.6666666666667</ele><time>2026-04-12T07:46:04.23Z</time></trkpt><trkpt lat="43.4067667" lon="13.181215"><ele>379.33333333333337</ele><time>2026-04-12T07:46:05.23Z</time></trkpt><trkpt lat="43.40675" lon="13.1810083"><ele>380.0</ele><time>2026-04-12T07:46:06.23Z</time></trkpt><trkpt lat="43.4067633" lon="13.1808033"><ele>380.6666666666667</ele><time>2026-04-12T07:46:07.23Z</time></trkpt><trkpt lat="43.4067933" lon="13.1805967"><ele>381.3333333333333</ele><time>2026-04-12T07:46:08.23Z</time></trkpt><trkpt lat="43.4068383" lon="13.180385"><ele>382.0</ele><time>2026-04-12T07:46:09.229Z</time></trkpt><trkpt lat="43.406885" lon="13.180165"><ele>382.0</ele><time>2026-04-12T07:46:10.229Z</time></trkpt><trkpt lat="43.40694" lon="13.17995"><ele>382.0</ele><time>2026-04-12T07:46:11.23Z</time></trkpt><trkpt lat="43.4069983" lon="13.179735"><ele>382.0</ele><time>2026-04-12T07:46:12.23Z</time></trkpt><trkpt lat="43.407035" lon="13.1795317"><ele>382.66666666666663</ele><time>2026-04-12T07:46:13.23Z</time></trkpt><trkpt lat="43.4070817" lon="13.1793267"><ele>383.3333333333333</ele><time>2026-04-12T07:46:14.229Z</time></trkpt><trkpt lat="43.40713" lon="13.17913"><ele>384.0</ele><time>2026-04-12T07:46:15.23Z</time></trkpt><trkpt lat="43.4071783" lon="13.1789283"><ele>381.6666666666667</ele><time>2026-04-12T07:46:16.229Z</time></trkpt><trkpt lat="43.4072267" lon="13.17872"><ele>379.33333333333337</ele><time>2026-04-12T07:46:17.23Z</time></trkpt><trkpt lat="43.4072767" lon="13.17851"><ele>377.0</ele><time>2026-04-12T07:46:18.23Z</time></trkpt><trkpt lat="43.40732" lon="13.17829"><ele>379.6666666666667</ele><time>2026-04-12T07:46:19.23Z</time></trkpt><trkpt lat="43.407375" lon="13.1780567"><ele>382.33333333333337</ele><time>2026-04-12T07:46:20.23Z</time></trkpt><trkpt lat="43.4074317" lon="13.17783"><ele>385.0</ele><time>2026-04-12T07:46:21.229Z</time></trkpt><trkpt lat="43.4074833" lon="13.1776"><ele>385.0</ele><time>2026-04-12T07:46:22.23Z</time></trkpt><trkpt lat="43.4075383" lon="13.17737"><ele>385.0</ele><time>2026-04-12T07:46:23.23Z</time></trkpt><trkpt lat="43.4075933" lon="13.1771617"><ele>385.0</ele><time>2026-04-12T07:46:24.23Z</time></trkpt><trkpt lat="43.40765" lon="13.1769533"><ele>385.75</ele><time>2026-04-12T07:46:25.23Z</time></trkpt><trkpt lat="43.40769" lon="13.1767533"><ele>386.5</ele><time>2026-04-12T07:46:26.229Z</time></trkpt><trkpt lat="43.40773" lon="13.176555"><ele>387.25</ele><time>2026-04-12T07:46:27.23Z</time></trkpt><trkpt lat="43.4077833" lon="13.1763633"><ele>388.0</ele><time>2026-04-12T07:46:28.229Z</time></trkpt><trkpt lat="43.4078283" lon="13.17617"><ele>388.33333333333337</ele><time>2026-04-12T07:46:29.229Z</time></trkpt><trkpt lat="43.4078767" lon="13.1759583"><ele>388.66666666666663</ele><time>2026-04-12T07:46:30.23Z</time></trkpt><trkpt lat="43.4079283" lon="13.175755"><ele>389.0</ele><time>2026-04-12T07:46:31.23Z</time></trkpt><trkpt lat="43.4079783" lon="13.1755467"><ele>390.25</ele><time>2026-04-12T07:46:32.23Z</time></trkpt><trkpt lat="43.40803" lon="13.1753583"><ele>391.5</ele><time>2026-04-12T07:46:33.229Z</time></trkpt><trkpt lat="43.40808" lon="13.1751833"><ele>392.75</ele><time>2026-04-12T07:46:34.229Z</time></trkpt><trkpt lat="43.4081133" lon="13.17503"><ele>394.0</ele><time>2026-04-12T07:46:35.23Z</time></trkpt><trkpt lat="43.4081317" lon="13.1748733"><ele>393.79999999999995</ele><time>2026-04-12T07:46:36.229Z</time></trkpt><trkpt lat="43.4081667" lon="13.17472"><ele>393.59999999999997</ele><time>2026-04-12T07:46:37.23Z</time></trkpt><trkpt lat="43.408195" lon="13.1745717"><ele>393.4</ele><time>2026-04-12T07:46:38.23Z</time></trkpt><trkpt lat="43.4082133" lon="13.1744167"><ele>393.2</ele><time>2026-04-12T07:46:39.229Z</time></trkpt><trkpt lat="43.4082083" lon="13.1742717"><ele>393.0</ele><time>2026-04-12T07:46:40.229Z</time></trkpt><trkpt lat="43.4081967" lon="13.1741017"><ele>394.0</ele><time>2026-04-12T07:46:41.23Z</time></trkpt><trkpt lat="43.4081767" lon="13.17393"><ele>395.0</ele><time>2026-04-12T07:46:42.23Z</time></trkpt><trkpt lat="43.408155" lon="13.1737433"><ele>396.0</ele><time>2026-04-12T07:46:43.229Z</time></trkpt><trkpt lat="43.4081417" lon="13.1735467"><ele>397.0</ele><time>2026-04-12T07:46:44.23Z</time></trkpt><trkpt lat="43.4081267" lon="13.1733433"><ele>400.0</ele><time>2026-04-12T07:46:45.23Z</time></trkpt><trkpt lat="43.4081133" lon="13.1731283"><ele>403.0</ele><time>2026-04-12T07:46:46.23Z</time></trkpt><trkpt lat="43.4080933" lon="13.172915"><ele>406.0</ele><time>2026-04-12T07:46:47.23Z</time></trkpt><trkpt lat="43.40808" lon="13.1727083"><ele>406.0</ele><time>2026-04-12T07:46:48.229Z</time></trkpt><trkpt lat="43.4080717" lon="13.1725067"><ele>406.0</ele><time>2026-04-12T07:46:49.23Z</time></trkpt><trkpt lat="43.4080683" lon="13.1723083"><ele>406.0</ele><time>2026-04-12T07:46:50.23Z</time></trkpt><trkpt lat="43.408065" lon="13.172115"><ele>406.0</ele><time>2026-04-12T07:46:51.23Z</time></trkpt><trkpt lat="43.40807" lon="13.171935"><ele>408.0</ele><time>2026-04-12T07:46:52.23Z</time></trkpt><trkpt lat="43.4080983" lon="13.1717617"><ele>410.0</ele><time>2026-04-12T07:46:53.23Z</time></trkpt><trkpt lat="43.40815" lon="13.1716033"><ele>412.0</ele><time>2026-04-12T07:46:54.229Z</time></trkpt><trkpt lat="43.4082033" lon="13.1714633"><ele>414.0</ele><time>2026-04-12T07:46:55.229Z</time></trkpt><trkpt lat="43.4082517" lon="13.171335"><ele>415.1666666666667</ele><time>2026-04-12T07:46:56.23Z</time></trkpt><trkpt lat="43.4082717" lon="13.1712133"><ele>416.33333333333337</ele><time>2026-04-12T07:46:57.23Z</time></trkpt><trkpt lat="43.4082683" lon="13.1711067"><ele>417.5</ele><time>2026-04-12T07:46:58.23Z</time></trkpt><trkpt lat="43.40823" lon="13.17101"><ele>418.6666666666667</ele><time>2026-04-12T07:46:59.23Z</time></trkpt><trkpt lat="43.4081633" lon="13.170925"><ele>419.83333333333337</ele><time>2026-04-12T07:47:00.23Z</time></trkpt><trkpt lat="43.408075" lon="13.17086"><ele>421.0</ele><time>2026-04-12T07:47:01.229Z</time></trkpt><trkpt lat="43.4079783" lon="13.1707917"><ele>423.25</ele><time>2026-04-12T07:47:02.23Z</time></trkpt><trkpt lat="43.407875" lon="13.170715"><ele>425.5</ele><time>2026-04-12T07:47:03.23Z</time></trkpt><trkpt lat="43.4077717" lon="13.1706317"><ele>427.75</ele><time>2026-04-12T07:47:04.23Z</time></trkpt><trkpt lat="43.4076633" lon="13.1705417"><ele>430.0</ele><time>2026-04-12T07:47:05.23Z</time></trkpt><trkpt lat="43.407565" lon="13.170455"><ele>433.6</ele><time>2026-04-12T07:47:06.23Z</time></trkpt><trkpt lat="43.4074717" lon="13.170375"><ele>437.2</ele><time>2026-04-12T07:47:07.229Z</time></trkpt><trkpt lat="43.4073783" lon="13.17031"><ele>440.79999999999995</ele><time>2026-04-12T07:47:08.23Z</time></trkpt><trkpt lat="43.4072933" lon="13.170245"><ele>444.4</ele><time>2026-04-12T07:47:09.23Z</time></trkpt><trkpt lat="43.4072333" lon="13.170175"><ele>448.0</ele><time>2026-04-12T07:47:10.229Z</time></trkpt><trkpt lat="43.4072" lon="13.1700817"><ele>448.00000000000006</ele><time>2026-04-12T07:47:11.23Z</time></trkpt><trkpt lat="43.40719" lon="13.16998"><ele>448.0</ele><time>2026-04-12T07:47:12.23Z</time></trkpt><trkpt lat="43.4072417" lon="13.1698983"><ele>448.0</ele><time>2026-04-12T07:47:13.229Z</time></trkpt><trkpt lat="43.4073167" lon="13.1698183"><ele>448.0</ele><time>2026-04-12T07:47:14.229Z</time></trkpt><trkpt lat="43.4074083" lon="13.169775"><ele>448.00000000000006</ele><time>2026-04-12T07:47:15.229Z</time></trkpt><trkpt lat="43.4075017" lon="13.1697233"><ele>448.0</ele><time>2026-04-12T07:47:16.23Z</time></trkpt><trkpt lat="43.4075817" lon="13.169645"><ele>450.4</ele><time>2026-04-12T07:47:17.23Z</time></trkpt><trkpt lat="43.4076467" lon="13.1695533"><ele>452.79999999999995</ele><time>2026-04-12T07:47:18.23Z</time></trkpt><trkpt lat="43.4077067" lon="13.1694417"><ele>455.2</ele><time>2026-04-12T07:47:19.229Z</time></trkpt><trkpt lat="43.40776" lon="13.16932"><ele>457.6</ele><time>2026-04-12T07:47:20.23Z</time></trkpt><trkpt lat="43.4078133" lon="13.169185"><ele>460.0</ele><time>2026-04-12T07:47:21.23Z</time></trkpt><trkpt lat="43.4078633" lon="13.1690417"><ele>460.4</ele><time>2026-04-12T07:47:22.23Z</time></trkpt><trkpt lat="43.4078983" lon="13.1689"><ele>460.8</ele><time>2026-04-12T07:47:23.23Z</time></trkpt><trkpt lat="43.407925" lon="13.1687583"><ele>461.20000000000005</ele><time>2026-04-12T07:47:24.229Z</time></trkpt><trkpt lat="43.4079633" lon="13.16862"><ele>461.6</ele><time>2026-04-12T07:47:25.23Z</time></trkpt><trkpt lat="43.4080133" lon="13.1684833"><ele>462.0</ele><time>2026-04-12T07:47:26.23Z</time></trkpt><trkpt lat="43.408075" lon="13.1683517"><ele>462.0</ele><time>2026-04-12T07:47:27.23Z</time></trkpt><trkpt lat="43.40813" lon="13.1682267"><ele>462.00000000000006</ele><time>2026-04-12T07:47:28.229Z</time></trkpt><trkpt lat="43.408175" lon="13.1681067"><ele>462.00000000000006</ele><time>2026-04-12T07:47:29.229Z</time></trkpt><trkpt lat="43.4082183" lon="13.16798"><ele>462.0</ele><time>2026-04-12T07:47:30.23Z</time></trkpt><trkpt lat="43.4082683" lon="13.1678567"><ele>462.0</ele><time>2026-04-12T07:47:31.23Z</time></trkpt><trkpt lat="43.408325" lon="13.1677267"><ele>463.0</ele><time>2026-04-12T07:47:32.229Z</time></trkpt><trkpt lat="43.4083933" lon="13.1675717"><ele>464.0</ele><time>2026-04-12T07:47:33.23Z</time></trkpt><trkpt lat="43.4084583" lon="13.16741"><ele>465.0</ele><time>2026-04-12T07:47:34.23Z</time></trkpt><trkpt lat="43.4085333" lon="13.167245"><ele>466.0</ele><time>2026-04-12T07:47:35.23Z</time></trkpt><trkpt lat="43.408615" lon="13.167075"><ele>466.0</ele><time>2026-04-12T07:47:36.229Z</time></trkpt><trkpt lat="43.40869" lon="13.1669133"><ele>466.0</ele><time>2026-04-12T07:47:37.23Z</time></trkpt><trkpt lat="43.4087733" lon="13.1667467"><ele>466.0</ele><time>2026-04-12T07:47:38.23Z</time></trkpt><trkpt lat="43.4088433" lon="13.1665883"><ele>466.0</ele><time>2026-04-12T07:47:39.23Z</time></trkpt><trkpt lat="43.4089133" lon="13.1664333"><ele>467.25</ele><time>2026-04-12T07:47:40.229Z</time></trkpt><trkpt lat="43.408985" lon="13.1662883"><ele>468.5</ele><time>2026-04-12T07:47:41.23Z</time></trkpt><trkpt lat="43.40905" lon="13.1661333"><ele>469.75</ele><time>2026-04-12T07:47:42.23Z</time></trkpt><trkpt lat="43.409115" lon="13.1659833"><ele>471.0</ele><time>2026-04-12T07:47:43.229Z</time></trkpt><trkpt lat="43.409185" lon="13.1658317"><ele>471.0</ele><time>2026-04-12T07:47:44.23Z</time></trkpt><trkpt lat="43.4092533" lon="13.16568"><ele>471.0</ele><time>2026-04-12T07:47:45.23Z</time></trkpt><trkpt lat="43.4093317" lon="13.1655117"><ele>471.0</ele><time>2026-04-12T07:47:46.23Z</time></trkpt><trkpt lat="43.409405" lon="13.1653567"><ele>471.0</ele><time>2026-04-12T07:47:47.23Z</time></trkpt><trkpt lat="43.4094733" lon="13.1652067"><ele>471.0</ele><time>2026-04-12T07:47:48.229Z</time></trkpt><trkpt lat="43.4095267" lon="13.165065"><ele>471.0</ele><time>2026-04-12T07:47:49.229Z</time></trkpt><trkpt lat="43.4095583" lon="13.1649333"><ele>471.0</ele><time>2026-04-12T07:47:50.23Z</time></trkpt><trkpt lat="43.4095767" lon="13.1648133"><ele>471.0</ele><time>2026-04-12T07:47:51.23Z</time></trkpt><trkpt lat="43.4095883" lon="13.1646933"><ele>471.0</ele><time>2026-04-12T07:47:52.229Z</time></trkpt><trkpt lat="43.409595" lon="13.16457"><ele>471.8</ele><time>2026-04-12T07:47:53.23Z</time></trkpt><trkpt lat="43.409595" lon="13.1644417"><ele>472.6</ele><time>2026-04-12T07:47:54.229Z</time></trkpt><trkpt lat="43.4095883" lon="13.16431"><ele>473.4</ele><time>2026-04-12T07:47:55.23Z</time></trkpt><trkpt lat="43.409585" lon="13.1641833"><ele>474.2</ele><time>2026-04-12T07:47:56.23Z</time></trkpt><trkpt lat="43.4095983" lon="13.164055"><ele>475.0</ele><time>2026-04-12T07:47:57.23Z</time></trkpt><trkpt lat="43.4096267" lon="13.16392"><ele>479.25</ele><time>2026-04-12T07:47:58.23Z</time></trkpt><trkpt lat="43.409695" lon="13.1637967"><ele>483.5</ele><time>2026-04-12T07:47:59.229Z</time></trkpt><trkpt lat="43.409775" lon="13.1636833"><ele>487.75</ele><time>2026-04-12T07:48:00.23Z</time></trkpt><trkpt lat="43.4098583" lon="13.1635583"><ele>492.0</ele><time>2026-04-12T07:48:01.23Z</time></trkpt><trkpt lat="43.4099517" lon="13.1634267"><ele>492.0</ele><time>2026-04-12T07:48:02.229Z</time></trkpt><trkpt lat="43.4100383" lon="13.16331"><ele>492.0</ele><time>2026-04-12T07:48:03.23Z</time></trkpt><trkpt lat="43.4101183" lon="13.1631683"><ele>492.0</ele><time>2026-04-12T07:48:04.23Z</time></trkpt><trkpt lat="43.4102133" lon="13.16303"><ele>492.0</ele><time>2026-04-12T07:48:05.229Z</time></trkpt><trkpt lat="43.41031" lon="13.162885"><ele>492.25</ele><time>2026-04-12T07:48:06.23Z</time></trkpt><trkpt lat="43.410395" lon="13.1627367"><ele>492.5</ele><time>2026-04-12T07:48:07.23Z</time></trkpt><trkpt lat="43.4104733" lon="13.1625817"><ele>492.75</ele><time>2026-04-12T07:48:08.229Z</time></trkpt><trkpt lat="43.4105433" lon="13.1624317"><ele>493.0</ele><time>2026-04-12T07:48:09.23Z</time></trkpt><trkpt lat="43.4106017" lon="13.1622917"><ele>493.0</ele><time>2026-04-12T07:48:10.23Z</time></trkpt><trkpt lat="43.4106533" lon="13.162155"><ele>493.0</ele><time>2026-04-12T07:48:11.23Z</time></trkpt><trkpt lat="43.4107067" lon="13.1620167"><ele>493.0</ele><time>2026-04-12T07:48:12.229Z</time></trkpt><trkpt lat="43.4107383" lon="13.16186"><ele>493.0</ele><time>2026-04-12T07:48:13.23Z</time></trkpt><trkpt lat="43.4107533" lon="13.1616867"><ele>493.0</ele><time>2026-04-12T07:48:14.23Z</time></trkpt><trkpt lat="43.4107567" lon="13.1615217"><ele>492.99999999999994</ele><time>2026-04-12T07:48:15.23Z</time></trkpt><trkpt lat="43.4107633" lon="13.1613617"><ele>492.99999999999994</ele><time>2026-04-12T07:48:16.23Z</time></trkpt><trkpt lat="43.4107817" lon="13.16121"><ele>493.0</ele><time>2026-04-12T07:48:17.23Z</time></trkpt><trkpt lat="43.41081" lon="13.1610783"><ele>493.0</ele><time>2026-04-12T07:48:18.23Z</time></trkpt><trkpt lat="43.410855" lon="13.1609467"><ele>493.0</ele><time>2026-04-12T07:48:19.23Z</time></trkpt><trkpt lat="43.410905" lon="13.1608217"><ele>492.99999999999994</ele><time>2026-04-12T07:48:20.229Z</time></trkpt><trkpt lat="43.4109567" lon="13.1606967"><ele>492.99999999999994</ele><time>2026-04-12T07:48:21.23Z</time></trkpt><trkpt lat="43.4110117" lon="13.1605583"><ele>493.0</ele><time>2026-04-12T07:48:22.23Z</time></trkpt><trkpt lat="43.4110633" lon="13.160425"><ele>493.0</ele><time>2026-04-12T07:48:23.23Z</time></trkpt><trkpt lat="43.4111133" lon="13.160285"><ele>493.4</ele><time>2026-04-12T07:48:24.23Z</time></trkpt><trkpt lat="43.41116" lon="13.1601367"><ele>493.79999999999995</ele><time>2026-04-12T07:48:25.229Z</time></trkpt><trkpt lat="43.4111783" lon="13.159995"><ele>494.2</ele><time>2026-04-12T07:48:26.229Z</time></trkpt><trkpt lat="43.4111633" lon="13.15986"><ele>494.6</ele><time>2026-04-12T07:48:27.23Z</time></trkpt><trkpt lat="43.41112" lon="13.1597333"><ele>495.0</ele><time>2026-04-12T07:48:28.23Z</time></trkpt><trkpt lat="43.4110667" lon="13.1596233"><ele>496.6</ele><time>2026-04-12T07:48:29.23Z</time></trkpt><trkpt lat="43.4109967" lon="13.1595233"><ele>498.2</ele><time>2026-04-12T07:48:30.229Z</time></trkpt><trkpt lat="43.4109233" lon="13.15943"><ele>499.79999999999995</ele><time>2026-04-12T07:48:31.229Z</time></trkpt><trkpt lat="43.4108483" lon="13.15933"><ele>501.4</ele><time>2026-04-12T07:48:32.23Z</time></trkpt><trkpt lat="43.4107717" lon="13.1592317"><ele>503.0</ele><time>2026-04-12T07:48:33.23Z</time></trkpt><trkpt lat="43.4107033" lon="13.15913"><ele>502.99999999999994</ele><time>2026-04-12T07:48:34.23Z</time></trkpt><trkpt lat="43.4106367" lon="13.1590283"><ele>503.0</ele><time>2026-04-12T07:48:35.23Z</time></trkpt><trkpt lat="43.4105883" lon="13.1589183"><ele>503.0</ele><time>2026-04-12T07:48:36.23Z</time></trkpt><trkpt lat="43.410555" lon="13.158805"><ele>503.0</ele><time>2026-04-12T07:48:37.23Z</time></trkpt><trkpt lat="43.4105483" lon="13.15869"><ele>502.99999999999994</ele><time>2026-04-12T07:48:38.23Z</time></trkpt><trkpt lat="43.4105717" lon="13.1585817"><ele>503.0</ele><time>2026-04-12T07:48:39.23Z</time></trkpt><trkpt lat="43.4106133" lon="13.1584767"><ele>503.0</ele><time>2026-04-12T07:48:40.23Z</time></trkpt><trkpt lat="43.4106733" lon="13.15838"><ele>502.99999999999994</ele><time>2026-04-12T07:48:41.229Z</time></trkpt><trkpt lat="43.41075" lon="13.158275"><ele>502.99999999999994</ele><time>2026-04-12T07:48:42.23Z</time></trkpt><trkpt lat="43.4108217" lon="13.15818"><ele>503.0</ele><time>2026-04-12T07:48:43.229Z</time></trkpt><trkpt lat="43.4108783" lon="13.1580867"><ele>503.0</ele><time>2026-04-12T07:48:44.229Z</time></trkpt><trkpt lat="43.4109283" lon="13.1579967"><ele>501.0</ele><time>2026-04-12T07:48:45.23Z</time></trkpt><trkpt lat="43.410945" lon="13.1578367"><ele>498.99999999999994</ele><time>2026-04-12T07:48:47.23Z</time></trkpt><trkpt lat="43.41091" lon="13.1577617"><ele>496.99999999999994</ele><time>2026-04-12T07:48:48.23Z</time></trkpt><trkpt lat="43.410825" lon="13.157745"><ele>495.0</ele><time>2026-04-12T07:48:49.229Z</time></trkpt><trkpt lat="43.41074" lon="13.157755"><ele>493.0</ele><time>2026-04-12T07:48:50.23Z</time></trkpt><trkpt lat="43.4106367" lon="13.15776"><ele>493.0</ele><time>2026-04-12T07:48:51.23Z</time></trkpt><trkpt lat="43.4105283" lon="13.1577433"><ele>493.0</ele><time>2026-04-12T07:48:52.23Z</time></trkpt><trkpt lat="43.410415" lon="13.1576983"><ele>493.0</ele><time>2026-04-12T07:48:53.23Z</time></trkpt><trkpt lat="43.410305" lon="13.1576183"><ele>493.0</ele><time>2026-04-12T07:48:54.229Z</time></trkpt><trkpt lat="43.4101917" lon="13.1575333"><ele>493.0</ele><time>2026-04-12T07:48:55.23Z</time></trkpt><trkpt lat="43.41009" lon="13.1574483"><ele>493.0</ele><time>2026-04-12T07:48:56.23Z</time></trkpt><trkpt lat="43.4099933" lon="13.15737"><ele>493.0</ele><time>2026-04-12T07:48:57.23Z</time></trkpt><trkpt lat="43.4098867" lon="13.1572817"><ele>493.0</ele><time>2026-04-12T07:48:58.23Z</time></trkpt><trkpt lat="43.4097867" lon="13.157195"><ele>491.75</ele><time>2026-04-12T07:48:59.23Z</time></trkpt><trkpt lat="43.409685" lon="13.1571017"><ele>490.5</ele><time>2026-04-12T07:49:00.229Z</time></trkpt><trkpt lat="43.4095883" lon="13.1569967"><ele>489.25</ele><time>2026-04-12T07:49:01.229Z</time></trkpt><trkpt lat="43.4094883" lon="13.1569017"><ele>488.0</ele><time>2026-04-12T07:49:02.23Z</time></trkpt><trkpt lat="43.4093833" lon="13.156795"><ele>488.0</ele><time>2026-04-12T07:49:03.23Z</time></trkpt><trkpt lat="43.4092733" lon="13.1566767"><ele>488.0</ele><time>2026-04-12T07:49:04.23Z</time></trkpt><trkpt lat="43.4091767" lon="13.1565633"><ele>488.0</ele><time>2026-04-12T07:49:05.229Z</time></trkpt><trkpt lat="43.409065" lon="13.1564367"><ele>488.0</ele><time>2026-04-12T07:49:06.23Z</time></trkpt><trkpt lat="43.408965" lon="13.15632"><ele>487.5</ele><time>2026-04-12T07:49:07.229Z</time></trkpt><trkpt lat="43.4088633" lon="13.156205"><ele>487.0</ele><time>2026-04-12T07:49:08.229Z</time></trkpt><trkpt lat="43.4087633" lon="13.156105"><ele>486.5</ele><time>2026-04-12T07:49:09.23Z</time></trkpt><trkpt lat="43.408665" lon="13.1560317"><ele>486.0</ele><time>2026-04-12T07:49:10.23Z</time></trkpt><trkpt lat="43.4085617" lon="13.1559383"><ele>487.25</ele><time>2026-04-12T07:49:11.23Z</time></trkpt><trkpt lat="43.4084533" lon="13.1558483"><ele>488.5</ele><time>2026-04-12T07:49:12.23Z</time></trkpt><trkpt lat="43.408345" lon="13.1557733"><ele>489.75</ele><time>2026-04-12T07:49:13.23Z</time></trkpt><trkpt lat="43.4082367" lon="13.155675"><ele>491.0</ele><time>2026-04-12T07:49:14.23Z</time></trkpt><trkpt lat="43.408145" lon="13.1555817"><ele>491.25</ele><time>2026-04-12T07:49:15.23Z</time></trkpt><trkpt lat="43.4080683" lon="13.155475"><ele>491.5</ele><time>2026-04-12T07:49:16.23Z</time></trkpt><trkpt lat="43.4080133" lon="13.1553483"><ele>491.75</ele><time>2026-04-12T07:49:17.23Z</time></trkpt><trkpt lat="43.40795" lon="13.1552"><ele>492.0</ele><time>2026-04-12T07:49:18.23Z</time></trkpt><trkpt lat="43.4078917" lon="13.1550417"><ele>491.0</ele><time>2026-04-12T07:49:19.23Z</time></trkpt><trkpt lat="43.40785" lon="13.1548917"><ele>490.0</ele><time>2026-04-12T07:49:20.229Z</time></trkpt><trkpt lat="43.4077833" lon="13.1547333"><ele>489.0</ele><time>2026-04-12T07:49:21.23Z</time></trkpt><trkpt lat="43.4077183" lon="13.1545717"><ele>488.0</ele><time>2026-04-12T07:49:22.23Z</time></trkpt><trkpt lat="43.407655" lon="13.15442"><ele>490.0</ele><time>2026-04-12T07:49:23.229Z</time></trkpt><trkpt lat="43.4075883" lon="13.1542683"><ele>492.0</ele><time>2026-04-12T07:49:24.23Z</time></trkpt><trkpt lat="43.407525" lon="13.15412"><ele>494.0</ele><time>2026-04-12T07:49:25.23Z</time></trkpt><trkpt lat="43.40747" lon="13.1539733"><ele>496.0</ele><time>2026-04-12T07:49:26.23Z</time></trkpt><trkpt lat="43.4074083" lon="13.1538383"><ele>497.75</ele><time>2026-04-12T07:49:27.23Z</time></trkpt><trkpt lat="43.40735" lon="13.153695"><ele>499.5</ele><time>2026-04-12T07:49:28.23Z</time></trkpt><trkpt lat="43.4072933" lon="13.1535583"><ele>501.25</ele><time>2026-04-12T07:49:29.23Z</time></trkpt><trkpt lat="43.407245" lon="13.1534217"><ele>503.0</ele><time>2026-04-12T07:49:30.23Z</time></trkpt><trkpt lat="43.4072033" lon="13.1532717"><ele>503.25</ele><time>2026-04-12T07:49:31.23Z</time></trkpt><trkpt lat="43.40716" lon="13.1531167"><ele>503.5</ele><time>2026-04-12T07:49:32.23Z</time></trkpt><trkpt lat="43.4071183" lon="13.1529567"><ele>503.75</ele><time>2026-04-12T07:49:33.23Z</time></trkpt><trkpt lat="43.4070917" lon="13.1527933"><ele>504.0</ele><time>2026-04-12T07:49:34.23Z</time></trkpt><trkpt lat="43.407065" lon="13.1526333"><ele>504.0</ele><time>2026-04-12T07:49:35.23Z</time></trkpt><trkpt lat="43.4070333" lon="13.1524583"><ele>504.0</ele><time>2026-04-12T07:49:36.23Z</time></trkpt><trkpt lat="43.4069967" lon="13.1522733"><ele>504.0</ele><time>2026-04-12T07:49:37.23Z</time></trkpt><trkpt lat="43.4069533" lon="13.15207"><ele>504.0</ele><time>2026-04-12T07:49:38.229Z</time></trkpt><trkpt lat="43.406915" lon="13.1518883"><ele>506.5</ele><time>2026-04-12T07:49:39.23Z</time></trkpt><trkpt lat="43.40688" lon="13.1517233"><ele>509.0</ele><time>2026-04-12T07:49:40.23Z</time></trkpt><trkpt lat="43.406825" lon="13.1515767"><ele>511.5</ele><time>2026-04-12T07:49:41.23Z</time></trkpt><trkpt lat="43.4067583" lon="13.1514417"><ele>514.0</ele><time>2026-04-12T07:49:42.23Z</time></trkpt><trkpt lat="43.4066917" lon="13.1513017"><ele>516.25</ele><time>2026-04-12T07:49:43.23Z</time></trkpt><trkpt lat="43.4066383" lon="13.151165"><ele>518.5</ele><time>2026-04-12T07:49:44.229Z</time></trkpt><trkpt lat="43.4065733" lon="13.15103"><ele>520.75</ele><time>2026-04-12T07:49:45.229Z</time></trkpt><trkpt lat="43.406515" lon="13.1508967"><ele>523.0</ele><time>2026-04-12T07:49:46.23Z</time></trkpt><trkpt lat="43.4064433" lon="13.1507683"><ele>524.25</ele><time>2026-04-12T07:49:47.229Z</time></trkpt><trkpt lat="43.4063633" lon="13.1506467"><ele>525.5</ele><time>2026-04-12T07:49:48.229Z</time></trkpt><trkpt lat="43.4062867" lon="13.15052"><ele>526.75</ele><time>2026-04-12T07:49:49.229Z</time></trkpt><trkpt lat="43.4062317" lon="13.15038"><ele>528.0</ele><time>2026-04-12T07:49:50.229Z</time></trkpt><trkpt lat="43.406195" lon="13.1502333"><ele>528.0</ele><time>2026-04-12T07:49:51.23Z</time></trkpt><trkpt lat="43.4061767" lon="13.150085"><ele>528.0</ele><time>2026-04-12T07:49:52.23Z</time></trkpt><trkpt lat="43.4061683" lon="13.1499267"><ele>528.0</ele><time>2026-04-12T07:49:53.229Z</time></trkpt><trkpt lat="43.40615" lon="13.1497633"><ele>528.0</ele><time>2026-04-12T07:49:54.229Z</time></trkpt><trkpt lat="43.4061333" lon="13.1496033"><ele>530.4</ele><time>2026-04-12T07:49:55.23Z</time></trkpt><trkpt lat="43.4061033" lon="13.1494467"><ele>532.8</ele><time>2026-04-12T07:49:56.23Z</time></trkpt><trkpt lat="43.4060633" lon="13.1492917"><ele>535.2</ele><time>2026-04-12T07:49:57.229Z</time></trkpt><trkpt lat="43.40604" lon="13.1491383"><ele>537.6</ele><time>2026-04-12T07:49:58.229Z</time></trkpt><trkpt lat="43.4060217" lon="13.14901"><ele>540.0</ele><time>2026-04-12T07:49:59.23Z</time></trkpt><trkpt lat="43.4060133" lon="13.1488917"><ele>541.3333333333334</ele><time>2026-04-12T07:50:00.23Z</time></trkpt><trkpt lat="43.4060083" lon="13.148785"><ele>542.6666666666666</ele><time>2026-04-12T07:50:01.23Z</time></trkpt><trkpt lat="43.4060033" lon="13.148695"><ele>544.0</ele><time>2026-04-12T07:50:02.229Z</time></trkpt><trkpt lat="43.406045" lon="13.1485283"><ele>545.3333333333333</ele><time>2026-04-12T07:50:04.23Z</time></trkpt><trkpt lat="43.4060917" lon="13.14847"><ele>546.6666666666666</ele><time>2026-04-12T07:50:05.23Z</time></trkpt><trkpt lat="43.4061267" lon="13.14832"><ele>548.0</ele><time>2026-04-12T07:50:07.228Z</time></trkpt><trkpt lat="43.4061183" lon="13.14823"><ele>548.0</ele><time>2026-04-12T07:50:08.23Z</time></trkpt><trkpt lat="43.40612" lon="13.1481133"><ele>548.0</ele><time>2026-04-12T07:50:09.229Z</time></trkpt><trkpt lat="43.406105" lon="13.148005"><ele>548.0</ele><time>2026-04-12T07:50:10.23Z</time></trkpt><trkpt lat="43.4061" lon="13.1479167"><ele>548.0</ele><time>2026-04-12T07:50:11.23Z</time></trkpt><trkpt lat="43.406055" lon="13.1478167"><ele>548.0</ele><time>2026-04-12T07:50:12.23Z</time></trkpt><trkpt lat="43.4060017" lon="13.14772"><ele>548.0</ele><time>2026-04-12T07:50:13.23Z</time></trkpt><trkpt lat="43.40593" lon="13.1476217"><ele>548.0</ele><time>2026-04-12T07:50:14.229Z</time></trkpt><trkpt lat="43.405855" lon="13.147525"><ele>548.0</ele><time>2026-04-12T07:50:15.23Z</time></trkpt><trkpt lat="43.4057733" lon="13.14744"><ele>548.0</ele><time>2026-04-12T07:50:16.23Z</time></trkpt><trkpt lat="43.4056917" lon="13.147375"><ele>548.0</ele><time>2026-04-12T07:50:17.229Z</time></trkpt><trkpt lat="43.40561" lon="13.1473033"><ele>548.0</ele><time>2026-04-12T07:50:18.23Z</time></trkpt><trkpt lat="43.4055033" lon="13.14723"><ele>549.0</ele><time>2026-04-12T07:50:19.229Z</time></trkpt><trkpt lat="43.4054133" lon="13.1471933"><ele>550.0</ele><time>2026-04-12T07:50:20.23Z</time></trkpt><trkpt lat="43.4053267" lon="13.14718"><ele>551.0</ele><time>2026-04-12T07:50:21.23Z</time></trkpt><trkpt lat="43.4052233" lon="13.1471767"><ele>552.0</ele><time>2026-04-12T07:50:22.23Z</time></trkpt><trkpt lat="43.40512" lon="13.1471583"><ele>553.0</ele><time>2026-04-12T07:50:23.23Z</time></trkpt><trkpt lat="43.4050167" lon="13.1471283"><ele>553.0</ele><time>2026-04-12T07:50:24.229Z</time></trkpt><trkpt lat="43.40491" lon="13.147095"><ele>553.0</ele><time>2026-04-12T07:50:25.23Z</time></trkpt><trkpt lat="43.4048" lon="13.1470667"><ele>553.0</ele><time>2026-04-12T07:50:26.229Z</time></trkpt><trkpt lat="43.404695" lon="13.1470383"><ele>553.0</ele><time>2026-04-12T07:50:27.23Z</time></trkpt><trkpt lat="43.4045867" lon="13.1470033"><ele>553.0</ele><time>2026-04-12T07:50:28.23Z</time></trkpt><trkpt lat="43.4044683" lon="13.146965"><ele>553.5</ele><time>2026-04-12T07:50:29.23Z</time></trkpt><trkpt lat="43.404355" lon="13.1469233"><ele>554.0</ele><time>2026-04-12T07:50:30.23Z</time></trkpt><trkpt lat="43.4042417" lon="13.146895"><ele>554.5</ele><time>2026-04-12T07:50:31.23Z</time></trkpt><trkpt lat="43.404125" lon="13.1468683"><ele>555.0</ele><time>2026-04-12T07:50:32.23Z</time></trkpt><trkpt lat="43.4040033" lon="13.1468467"><ele>555.0</ele><time>2026-04-12T07:50:33.23Z</time></trkpt><trkpt lat="43.4038783" lon="13.14682"><ele>555.0</ele><time>2026-04-12T07:50:34.229Z</time></trkpt><trkpt lat="43.4037533" lon="13.1467967"><ele>555.0</ele><time>2026-04-12T07:50:35.23Z</time></trkpt><trkpt lat="43.403645" lon="13.1467667"><ele>555.0</ele><time>2026-04-12T07:50:36.23Z</time></trkpt><trkpt lat="43.4035467" lon="13.1467367"><ele>554.3333333333334</ele><time>2026-04-12T07:50:37.23Z</time></trkpt><trkpt lat="43.4034583" lon="13.1467"><ele>553.6666666666666</ele><time>2026-04-12T07:50:38.23Z</time></trkpt><trkpt lat="43.4033783" lon="13.1466433"><ele>553.0</ele><time>2026-04-12T07:50:39.229Z</time></trkpt><trkpt lat="43.4033" lon="13.1465883"><ele>552.3333333333333</ele><time>2026-04-12T07:50:40.23Z</time></trkpt><trkpt lat="43.403225" lon="13.14653"><ele>551.6666666666666</ele><time>2026-04-12T07:50:41.229Z</time></trkpt><trkpt lat="43.4031383" lon="13.1464867"><ele>551.0</ele><time>2026-04-12T07:50:42.23Z</time></trkpt><trkpt lat="43.4030433" lon="13.1464283"><ele>550.2</ele><time>2026-04-12T07:50:43.229Z</time></trkpt><trkpt lat="43.4029433" lon="13.1463683"><ele>549.4000000000001</ele><time>2026-04-12T07:50:44.23Z</time></trkpt><trkpt lat="43.4028383" lon="13.1463083"><ele>548.6</ele><time>2026-04-12T07:50:45.23Z</time></trkpt><trkpt lat="43.4027333" lon="13.1462267"><ele>547.8000000000001</ele><time>2026-04-12T07:50:46.23Z</time></trkpt><trkpt lat="43.4026467" lon="13.146145"><ele>547.0</ele><time>2026-04-12T07:50:47.228Z</time></trkpt><trkpt lat="43.4025733" lon="13.1460433"><ele>547.0</ele><time>2026-04-12T07:50:48.23Z</time></trkpt><trkpt lat="43.4025083" lon="13.1459367"><ele>547.0</ele><time>2026-04-12T07:50:49.23Z</time></trkpt><trkpt lat="43.40246" lon="13.1458067"><ele>547.0</ele><time>2026-04-12T07:50:50.229Z</time></trkpt><trkpt lat="43.4024333" lon="13.14563"><ele>547.0</ele><time>2026-04-12T07:50:51.23Z</time></trkpt><trkpt lat="43.402415" lon="13.14544"><ele>549.6666666666667</ele><time>2026-04-12T07:50:52.23Z</time></trkpt><trkpt lat="43.4023967" lon="13.1452367"><ele>552.3333333333334</ele><time>2026-04-12T07:50:53.23Z</time></trkpt><trkpt lat="43.4023733" lon="13.1450367"><ele>555.0</ele><time>2026-04-12T07:50:54.23Z</time></trkpt><trkpt lat="43.4023517" lon="13.1448183"><ele>556.8</ele><time>2026-04-12T07:50:55.229Z</time></trkpt><trkpt lat="43.402325" lon="13.1446383"><ele>558.6</ele><time>2026-04-12T07:50:56.23Z</time></trkpt><trkpt lat="43.4023083" lon="13.1444917"><ele>560.4</ele><time>2026-04-12T07:50:57.229Z</time></trkpt><trkpt lat="43.402285" lon="13.14436"><ele>562.2</ele><time>2026-04-12T07:50:58.23Z</time></trkpt><trkpt lat="43.4022767" lon="13.1442633"><ele>564.0</ele><time>2026-04-12T07:50:59.23Z</time></trkpt><trkpt lat="43.40226" lon="13.1441783"><ele>565.2</ele><time>2026-04-12T07:51:00.229Z</time></trkpt><trkpt lat="43.40224" lon="13.14403"><ele>566.4</ele><time>2026-04-12T07:51:02.23Z</time></trkpt><trkpt lat="43.4022367" lon="13.1438967"><ele>567.6</ele><time>2026-04-12T07:51:04.23Z</time></trkpt><trkpt lat="43.4022683" lon="13.1437833"><ele>568.8</ele><time>2026-04-12T07:51:06.23Z</time></trkpt><trkpt lat="43.4023283" lon="13.1436883"><ele>570.0</ele><time>2026-04-12T07:51:08.23Z</time></trkpt><trkpt lat="43.4023917" lon="13.14356"><ele>570.0</ele><time>2026-04-12T07:51:10.229Z</time></trkpt><trkpt lat="43.4024083" lon="13.1434733"><ele>570.0</ele><time>2026-04-12T07:51:11.23Z</time></trkpt><trkpt lat="43.4024167" lon="13.1433783"><ele>570.0</ele><time>2026-04-12T07:51:12.23Z</time></trkpt><trkpt lat="43.4024267" lon="13.1432733"><ele>570.0</ele><time>2026-04-12T07:51:13.23Z</time></trkpt><trkpt lat="43.4024317" lon="13.1431617"><ele>570.0</ele><time>2026-04-12T07:51:14.23Z</time></trkpt><trkpt lat="43.402445" lon="13.14302"><ele>570.0</ele><time>2026-04-12T07:51:15.229Z</time></trkpt><trkpt lat="43.4024567" lon="13.142855"><ele>570.0</ele><time>2026-04-12T07:51:16.23Z</time></trkpt><trkpt lat="43.402475" lon="13.14267"><ele>570.0</ele><time>2026-04-12T07:51:17.23Z</time></trkpt><trkpt lat="43.4025067" lon="13.142485"><ele>570.0</ele><time>2026-04-12T07:51:18.23Z</time></trkpt><trkpt lat="43.4025333" lon="13.1423033"><ele>570.0</ele><time>2026-04-12T07:51:19.23Z</time></trkpt><trkpt lat="43.4025667" lon="13.142105"><ele>570.0</ele><time>2026-04-12T07:51:20.23Z</time></trkpt><trkpt lat="43.402605" lon="13.14191"><ele>570.0</ele><time>2026-04-12T07:51:21.23Z</time></trkpt><trkpt lat="43.40265" lon="13.1417"><ele>570.0</ele><time>2026-04-12T07:51:22.23Z</time></trkpt><trkpt lat="43.4026867" lon="13.1414817"><ele>569.75</ele><time>2026-04-12T07:51:23.23Z</time></trkpt><trkpt lat="43.4027117" lon="13.1412567"><ele>569.5</ele><time>2026-04-12T07:51:24.229Z</time></trkpt><trkpt lat="43.4027017" lon="13.14106"><ele>569.25</ele><time>2026-04-12T07:51:25.229Z</time></trkpt><trkpt lat="43.402695" lon="13.140885"><ele>569.0</ele><time>2026-04-12T07:51:26.23Z</time></trkpt><trkpt lat="43.402705" lon="13.1407217"><ele>567.75</ele><time>2026-04-12T07:51:27.229Z</time></trkpt><trkpt lat="43.4027283" lon="13.1405567"><ele>566.5</ele><time>2026-04-12T07:51:28.23Z</time></trkpt><trkpt lat="43.40278" lon="13.1404017"><ele>565.25</ele><time>2026-04-12T07:51:29.23Z</time></trkpt><trkpt lat="43.4028633" lon="13.140275"><ele>564.0</ele><time>2026-04-12T07:51:30.23Z</time></trkpt><trkpt lat="43.4029683" lon="13.1401617"><ele>568.5</ele><time>2026-04-12T07:51:31.23Z</time></trkpt><trkpt lat="43.403095" lon="13.1400433"><ele>573.0</ele><time>2026-04-12T07:51:32.23Z</time></trkpt><trkpt lat="43.4032217" lon="13.1399433"><ele>577.5</ele><time>2026-04-12T07:51:33.23Z</time></trkpt><trkpt lat="43.403355" lon="13.1398733"><ele>582.0</ele><time>2026-04-12T07:51:34.23Z</time></trkpt><trkpt lat="43.40349" lon="13.139855"><ele>582.0</ele><time>2026-04-12T07:51:35.23Z</time></trkpt><trkpt lat="43.4036233" lon="13.1398667"><ele>582.0</ele><time>2026-04-12T07:51:36.23Z</time></trkpt><trkpt lat="43.4037683" lon="13.1398967"><ele>582.0</ele><time>2026-04-12T07:51:37.23Z</time></trkpt><trkpt lat="43.40391" lon="13.13994"><ele>582.0</ele><time>2026-04-12T07:51:38.229Z</time></trkpt><trkpt lat="43.4040467" lon="13.1399967"><ele>584.5</ele><time>2026-04-12T07:51:39.229Z</time></trkpt><trkpt lat="43.40418" lon="13.1400633"><ele>587.0</ele><time>2026-04-12T07:51:40.229Z</time></trkpt><trkpt lat="43.4043133" lon="13.1401333"><ele>589.5</ele><time>2026-04-12T07:51:41.23Z</time></trkpt><trkpt lat="43.4044467" lon="13.1401967"><ele>592.0</ele><time>2026-04-12T07:51:42.23Z</time></trkpt><trkpt lat="43.40457" lon="13.140255"><ele>591.5</ele><time>2026-04-12T07:51:43.23Z</time></trkpt><trkpt lat="43.4047083" lon="13.1402683"><ele>591.0</ele><time>2026-04-12T07:51:44.23Z</time></trkpt><trkpt lat="43.4048483" lon="13.1402367"><ele>590.5</ele><time>2026-04-12T07:51:45.23Z</time></trkpt><trkpt lat="43.404995" lon="13.1401467"><ele>590.0</ele><time>2026-04-12T07:51:46.23Z</time></trkpt><trkpt lat="43.405135" lon="13.1400217"><ele>590.0</ele><time>2026-04-12T07:51:47.23Z</time></trkpt><trkpt lat="43.4052567" lon="13.139885"><ele>590.0</ele><time>2026-04-12T07:51:48.23Z</time></trkpt><trkpt lat="43.4053833" lon="13.1397333"><ele>590.0</ele><time>2026-04-12T07:51:49.23Z</time></trkpt><trkpt lat="43.4055267" lon="13.1395767"><ele>587.0</ele><time>2026-04-12T07:51:50.23Z</time></trkpt><trkpt lat="43.4056833" lon="13.139415"><ele>584.0</ele><time>2026-04-12T07:51:51.23Z</time></trkpt><trkpt lat="43.40584" lon="13.13925"><ele>581.0</ele><time>2026-04-12T07:51:52.23Z</time></trkpt><trkpt lat="43.406" lon="13.1390817"><ele>582.3333333333333</ele><time>2026-04-12T07:51:53.23Z</time></trkpt><trkpt lat="43.4061517" lon="13.1389067"><ele>583.6666666666666</ele><time>2026-04-12T07:51:54.229Z</time></trkpt><trkpt lat="43.4063067" lon="13.1387433"><ele>585.0</ele><time>2026-04-12T07:51:55.23Z</time></trkpt><trkpt lat="43.4064633" lon="13.1385783"><ele>581.3333333333334</ele><time>2026-04-12T07:51:56.23Z</time></trkpt><trkpt lat="43.40662" lon="13.1384083"><ele>577.6666666666667</ele><time>2026-04-12T07:51:57.23Z</time></trkpt><trkpt lat="43.4067633" lon="13.138255"><ele>574.0</ele><time>2026-04-12T07:51:58.229Z</time></trkpt><trkpt lat="43.406905" lon="13.1381083"><ele>573.6666666666667</ele><time>2026-04-12T07:51:59.23Z</time></trkpt><trkpt lat="43.4070483" lon="13.1379567"><ele>573.3333333333334</ele><time>2026-04-12T07:52:00.23Z</time></trkpt><trkpt lat="43.407185" lon="13.1378033"><ele>573.0</ele><time>2026-04-12T07:52:01.23Z</time></trkpt><trkpt lat="43.4073167" lon="13.1376567"><ele>570.0</ele><time>2026-04-12T07:52:02.23Z</time></trkpt><trkpt lat="43.407455" lon="13.13751"><ele>567.0</ele><time>2026-04-12T07:52:03.229Z</time></trkpt><trkpt lat="43.407595" lon="13.1373567"><ele>564.0</ele><time>2026-04-12T07:52:04.23Z</time></trkpt><trkpt lat="43.4077283" lon="13.1372"><ele>563.3333333333334</ele><time>2026-04-12T07:52:05.23Z</time></trkpt><trkpt lat="43.4078667" lon="13.137055"><ele>562.6666666666667</ele><time>2026-04-12T07:52:06.23Z</time></trkpt><trkpt lat="43.4079917" lon="13.1369117"><ele>562.0</ele><time>2026-04-12T07:52:07.229Z</time></trkpt><trkpt lat="43.4081" lon="13.136815"><ele>559.75</ele><time>2026-04-12T07:52:08.23Z</time></trkpt><trkpt lat="43.4082267" lon="13.1367717"><ele>557.5</ele><time>2026-04-12T07:52:09.23Z</time></trkpt><trkpt lat="43.408355" lon="13.13675"><ele>555.25</ele><time>2026-04-12T07:52:10.23Z</time></trkpt><trkpt lat="43.4084767" lon="13.136775"><ele>553.0</ele><time>2026-04-12T07:52:11.23Z</time></trkpt><trkpt lat="43.4085967" lon="13.13685"><ele>553.0</ele><time>2026-04-12T07:52:12.23Z</time></trkpt><trkpt lat="43.4087183" lon="13.136935"><ele>553.0</ele><time>2026-04-12T07:52:13.23Z</time></trkpt><trkpt lat="43.4088533" lon="13.1370333"><ele>553.0</ele><time>2026-04-12T07:52:14.23Z</time></trkpt><trkpt lat="43.4089917" lon="13.1371467"><ele>550.6666666666667</ele><time>2026-04-12T07:52:15.23Z</time></trkpt><trkpt lat="43.4091283" lon="13.1372417"><ele>548.3333333333334</ele><time>2026-04-12T07:52:16.23Z</time></trkpt><trkpt lat="43.4092833" lon="13.1373567"><ele>546.0</ele><time>2026-04-12T07:52:17.23Z</time></trkpt><trkpt lat="43.4094383" lon="13.137485"><ele>546.0</ele><time>2026-04-12T07:52:18.23Z</time></trkpt><trkpt lat="43.4095867" lon="13.1376"><ele>546.0</ele><time>2026-04-12T07:52:19.23Z</time></trkpt><trkpt lat="43.4097333" lon="13.1377017"><ele>546.0</ele><time>2026-04-12T07:52:20.23Z</time></trkpt><trkpt lat="43.4098783" lon="13.1378017"><ele>545.0</ele><time>2026-04-12T07:52:21.23Z</time></trkpt><trkpt lat="43.410025" lon="13.1379"><ele>544.0</ele><time>2026-04-12T07:52:22.23Z</time></trkpt><trkpt lat="43.4101667" lon="13.1380017"><ele>543.0</ele><time>2026-04-12T07:52:23.23Z</time></trkpt><trkpt lat="43.4103083" lon="13.1381"><ele>543.0</ele><time>2026-04-12T07:52:24.23Z</time></trkpt><trkpt lat="43.4104483" lon="13.1382"><ele>543.0</ele><time>2026-04-12T07:52:25.23Z</time></trkpt><trkpt lat="43.4105883" lon="13.1383017"><ele>543.0</ele><time>2026-04-12T07:52:26.229Z</time></trkpt><trkpt lat="43.410735" lon="13.138405"><ele>543.6666666666666</ele><time>2026-04-12T07:52:27.229Z</time></trkpt><trkpt lat="43.410885" lon="13.1385167"><ele>544.3333333333333</ele><time>2026-04-12T07:52:28.23Z</time></trkpt><trkpt lat="43.411035" lon="13.1386217"><ele>545.0</ele><time>2026-04-12T07:52:29.229Z</time></trkpt><trkpt lat="43.411195" lon="13.1387317"><ele>544.3333333333333</ele><time>2026-04-12T07:52:30.229Z</time></trkpt><trkpt lat="43.4113517" lon="13.1388433"><ele>543.6666666666666</ele><time>2026-04-12T07:52:31.23Z</time></trkpt><trkpt lat="43.4115117" lon="13.138965"><ele>543.0</ele><time>2026-04-12T07:52:32.23Z</time></trkpt><trkpt lat="43.411675" lon="13.13908"><ele>542.6666666666666</ele><time>2026-04-12T07:52:33.23Z</time></trkpt><trkpt lat="43.4118417" lon="13.1391967"><ele>542.3333333333333</ele><time>2026-04-12T07:52:34.23Z</time></trkpt><trkpt lat="43.4120033" lon="13.13931"><ele>542.0</ele><time>2026-04-12T07:52:35.229Z</time></trkpt><trkpt lat="43.4121683" lon="13.1394217"><ele>541.0</ele><time>2026-04-12T07:52:36.23Z</time></trkpt><trkpt lat="43.4123233" lon="13.1395317"><ele>540.0</ele><time>2026-04-12T07:52:37.229Z</time></trkpt><trkpt lat="43.4124817" lon="13.1396383"><ele>539.0</ele><time>2026-04-12T07:52:38.229Z</time></trkpt><trkpt lat="43.4126317" lon="13.1397483"><ele>539.0</ele><time>2026-04-12T07:52:39.23Z</time></trkpt><trkpt lat="43.4127767" lon="13.1398667"><ele>539.0</ele><time>2026-04-12T07:52:40.23Z</time></trkpt><trkpt lat="43.41292" lon="13.13998"><ele>539.0</ele><time>2026-04-12T07:52:41.23Z</time></trkpt><trkpt lat="43.413055" lon="13.140105"><ele>538.0</ele><time>2026-04-12T07:52:42.23Z</time></trkpt><trkpt lat="43.4131817" lon="13.14024"><ele>537.0</ele><time>2026-04-12T07:52:43.23Z</time></trkpt><trkpt lat="43.4133067" lon="13.1403883"><ele>536.0</ele><time>2026-04-12T07:52:44.23Z</time></trkpt><trkpt lat="43.413435" lon="13.1405383"><ele>536.0</ele><time>2026-04-12T07:52:45.23Z</time></trkpt><trkpt lat="43.4135617" lon="13.1407083"><ele>536.0</ele><time>2026-04-12T07:52:46.229Z</time></trkpt><trkpt lat="43.41368" lon="13.14088"><ele>536.0</ele><time>2026-04-12T07:52:47.229Z</time></trkpt><trkpt lat="43.4137967" lon="13.1410433"><ele>534.3333333333333</ele><time>2026-04-12T07:52:48.229Z</time></trkpt><trkpt lat="43.4139083" lon="13.141225"><ele>532.6666666666666</ele><time>2026-04-12T07:52:49.23Z</time></trkpt><trkpt lat="43.4140183" lon="13.141395"><ele>531.0</ele><time>2026-04-12T07:52:50.229Z</time></trkpt><trkpt lat="43.414135" lon="13.1415633"><ele>531.0</ele><time>2026-04-12T07:52:51.229Z</time></trkpt><trkpt lat="43.4142467" lon="13.1417383"><ele>531.0</ele><time>2026-04-12T07:52:52.229Z</time></trkpt><trkpt lat="43.41436" lon="13.1419067"><ele>531.0</ele><time>2026-04-12T07:52:53.23Z</time></trkpt><trkpt lat="43.41448" lon="13.14208"><ele>531.0</ele><time>2026-04-12T07:52:54.23Z</time></trkpt><trkpt lat="43.414605" lon="13.1422533"><ele>531.0</ele><time>2026-04-12T07:52:55.23Z</time></trkpt><trkpt lat="43.4147367" lon="13.1424283"><ele>531.0</ele><time>2026-04-12T07:52:56.23Z</time></trkpt><trkpt lat="43.4148633" lon="13.14261"><ele>528.3333333333334</ele><time>2026-04-12T07:52:57.23Z</time></trkpt><trkpt lat="43.414985" lon="13.14279"><ele>525.6666666666667</ele><time>2026-04-12T07:52:58.23Z</time></trkpt><trkpt lat="43.41511" lon="13.14298"><ele>523.0</ele><time>2026-04-12T07:52:59.23Z</time></trkpt><trkpt lat="43.4152383" lon="13.1431733"><ele>522.0</ele><time>2026-04-12T07:53:00.23Z</time></trkpt><trkpt lat="43.4153667" lon="13.1433633"><ele>521.0</ele><time>2026-04-12T07:53:01.23Z</time></trkpt><trkpt lat="43.4154883" lon="13.1435567"><ele>520.0</ele><time>2026-04-12T07:53:02.229Z</time></trkpt><trkpt lat="43.41561" lon="13.1437467"><ele>518.6666666666667</ele><time>2026-04-12T07:53:03.229Z</time></trkpt><trkpt lat="43.41573" lon="13.1439267"><ele>517.3333333333334</ele><time>2026-04-12T07:53:04.229Z</time></trkpt><trkpt lat="43.4158583" lon="13.1441017"><ele>516.0</ele><time>2026-04-12T07:53:05.23Z</time></trkpt><trkpt lat="43.41598" lon="13.1442783"><ele>516.0</ele><time>2026-04-12T07:53:06.23Z</time></trkpt><trkpt lat="43.4160983" lon="13.14445"><ele>516.0</ele><time>2026-04-12T07:53:07.23Z</time></trkpt><trkpt lat="43.4162083" lon="13.1446133"><ele>516.0</ele><time>2026-04-12T07:53:08.23Z</time></trkpt><trkpt lat="43.416315" lon="13.1447733"><ele>516.75</ele><time>2026-04-12T07:53:09.23Z</time></trkpt><trkpt lat="43.4164217" lon="13.1449233"><ele>517.5</ele><time>2026-04-12T07:53:10.229Z</time></trkpt><trkpt lat="43.416525" lon="13.1450767"><ele>518.25</ele><time>2026-04-12T07:53:11.23Z</time></trkpt><trkpt lat="43.4166233" lon="13.1452183"><ele>519.0</ele><time>2026-04-12T07:53:12.229Z</time></trkpt><trkpt lat="43.4167033" lon="13.14534"><ele>519.0</ele><time>2026-04-12T07:53:13.23Z</time></trkpt><trkpt lat="43.4167617" lon="13.1454083"><ele>519.0</ele><time>2026-04-12T07:53:14.23Z</time></trkpt><trkpt lat="43.4168317" lon="13.1454583"><ele>519.0</ele><time>2026-04-12T07:53:16.23Z</time></trkpt><trkpt lat="43.4169067" lon="13.1454417"><ele>519.0</ele><time>2026-04-12T07:53:19.23Z</time></trkpt><trkpt lat="43.4170283" lon="13.145345"><ele>519.0</ele><time>2026-04-12T07:53:21.23Z</time></trkpt><trkpt lat="43.4170967" lon="13.1452717"><ele>520.25</ele><time>2026-04-12T07:53:22.23Z</time></trkpt><trkpt lat="43.41717" lon="13.14516"><ele>521.5</ele><time>2026-04-12T07:53:23.23Z</time></trkpt><trkpt lat="43.4172533" lon="13.14502"><ele>522.75</ele><time>2026-04-12T07:53:24.229Z</time></trkpt><trkpt lat="43.4173367" lon="13.1448667"><ele>524.0</ele><time>2026-04-12T07:53:25.23Z</time></trkpt><trkpt lat="43.4174233" lon="13.1446967"><ele>524.0</ele><time>2026-04-12T07:53:26.23Z</time></trkpt><trkpt lat="43.417525" lon="13.144525"><ele>524.0</ele><time>2026-04-12T07:53:27.23Z</time></trkpt><trkpt lat="43.41762" lon="13.1443433"><ele>524.0</ele><time>2026-04-12T07:53:28.229Z</time></trkpt><trkpt lat="43.4177167" lon="13.1441817"><ele>524.0</ele><time>2026-04-12T07:53:29.229Z</time></trkpt><trkpt lat="43.41781" lon="13.1440167"><ele>524.0</ele><time>2026-04-12T07:53:30.229Z</time></trkpt><trkpt lat="43.4179317" lon="13.1438883"><ele>524.0</ele><time>2026-04-12T07:53:31.23Z</time></trkpt><trkpt lat="43.41806" lon="13.1437833"><ele>524.0</ele><time>2026-04-12T07:53:32.229Z</time></trkpt><trkpt lat="43.4182067" lon="13.1437167"><ele>524.0</ele><time>2026-04-12T07:53:33.23Z</time></trkpt><trkpt lat="43.4183583" lon="13.14367"><ele>524.0</ele><time>2026-04-12T07:53:34.23Z</time></trkpt><trkpt lat="43.4185067" lon="13.1436483"><ele>524.0</ele><time>2026-04-12T07:53:35.23Z</time></trkpt><trkpt lat="43.4186483" lon="13.1436667"><ele>524.0</ele><time>2026-04-12T07:53:36.23Z</time></trkpt><trkpt lat="43.418785" lon="13.14371"><ele>524.0</ele><time>2026-04-12T07:53:37.23Z</time></trkpt><trkpt lat="43.41892" lon="13.143765"><ele>524.0</ele><time>2026-04-12T07:53:38.229Z</time></trkpt><trkpt lat="43.4190667" lon="13.1438017"><ele>524.3333333333333</ele><time>2026-04-12T07:53:39.23Z</time></trkpt><trkpt lat="43.4192133" lon="13.143855"><ele>524.6666666666666</ele><time>2026-04-12T07:53:40.23Z</time></trkpt><trkpt lat="43.4193733" lon="13.143895"><ele>525.0</ele><time>2026-04-12T07:53:41.23Z</time></trkpt><trkpt lat="43.419525" lon="13.143915"><ele>526.0</ele><time>2026-04-12T07:53:42.23Z</time></trkpt><trkpt lat="43.419665" lon="13.1439117"><ele>527.0</ele><time>2026-04-12T07:53:43.229Z</time></trkpt><trkpt lat="43.4197933" lon="13.1438983"><ele>528.0</ele><time>2026-04-12T07:53:44.23Z</time></trkpt><trkpt lat="43.4199167" lon="13.14385"><ele>529.0</ele><time>2026-04-12T07:53:45.229Z</time></trkpt><trkpt lat="43.4200267" lon="13.143755"><ele>529.0</ele><time>2026-04-12T07:53:46.23Z</time></trkpt><trkpt lat="43.4201067" lon="13.143625"><ele>529.0</ele><time>2026-04-12T07:53:47.229Z</time></trkpt><trkpt lat="43.4201733" lon="13.1434617"><ele>529.0</ele><time>2026-04-12T07:53:48.23Z</time></trkpt><trkpt lat="43.420235" lon="13.1432717"><ele>529.0</ele><time>2026-04-12T07:53:49.23Z</time></trkpt><trkpt lat="43.4203017" lon="13.1430933"><ele>527.0</ele><time>2026-04-12T07:53:50.23Z</time></trkpt><trkpt lat="43.4203883" lon="13.1429133"><ele>525.0</ele><time>2026-04-12T07:53:51.229Z</time></trkpt><trkpt lat="43.4204967" lon="13.1427317"><ele>523.0</ele><time>2026-04-12T07:53:52.229Z</time></trkpt><trkpt lat="43.4206167" lon="13.14256"><ele>523.0</ele><time>2026-04-12T07:53:53.23Z</time></trkpt><trkpt lat="43.4207333" lon="13.1424067"><ele>523.0</ele><time>2026-04-12T07:53:54.23Z</time></trkpt><trkpt lat="43.4208617" lon="13.1422467"><ele>523.0</ele><time>2026-04-12T07:53:55.229Z</time></trkpt><trkpt lat="43.4209983" lon="13.1421183"><ele>520.3333333333334</ele><time>2026-04-12T07:53:56.23Z</time></trkpt><trkpt lat="43.4211383" lon="13.1420067"><ele>517.6666666666666</ele><time>2026-04-12T07:53:57.23Z</time></trkpt><trkpt lat="43.42129" lon="13.14192"><ele>515.0</ele><time>2026-04-12T07:53:58.229Z</time></trkpt><trkpt lat="43.42144" lon="13.1418317"><ele>515.0</ele><time>2026-04-12T07:53:59.229Z</time></trkpt><trkpt lat="43.4215783" lon="13.1417217"><ele>515.0</ele><time>2026-04-12T07:54:00.23Z</time></trkpt><trkpt lat="43.4216933" lon="13.1415733"><ele>515.0</ele><time>2026-04-12T07:54:01.229Z</time></trkpt><trkpt lat="43.4217967" lon="13.1414033"><ele>512.0</ele><time>2026-04-12T07:54:02.229Z</time></trkpt><trkpt lat="43.4218883" lon="13.14122"><ele>509.0</ele><time>2026-04-12T07:54:03.229Z</time></trkpt><trkpt lat="43.421965" lon="13.1410233"><ele>506.0</ele><time>2026-04-12T07:54:04.23Z</time></trkpt><trkpt lat="43.422025" lon="13.140825"><ele>504.0</ele><time>2026-04-12T07:54:05.23Z</time></trkpt><trkpt lat="43.4220567" lon="13.1406333"><ele>502.0</ele><time>2026-04-12T07:54:06.229Z</time></trkpt><trkpt lat="43.4220617" lon="13.1404217"><ele>500.0</ele><time>2026-04-12T07:54:07.23Z</time></trkpt><trkpt lat="43.422055" lon="13.1402033"><ele>500.0</ele><time>2026-04-12T07:54:08.23Z</time></trkpt><trkpt lat="43.4220583" lon="13.1400067"><ele>500.0</ele><time>2026-04-12T07:54:09.23Z</time></trkpt><trkpt lat="43.4220783" lon="13.13981"><ele>500.0</ele><time>2026-04-12T07:54:10.23Z</time></trkpt><trkpt lat="43.4221333" lon="13.139615"><ele>500.0</ele><time>2026-04-12T07:54:11.229Z</time></trkpt><trkpt lat="43.42222" lon="13.1394433"><ele>500.66666666666663</ele><time>2026-04-12T07:54:12.229Z</time></trkpt><trkpt lat="43.4223333" lon="13.139295"><ele>501.33333333333337</ele><time>2026-04-12T07:54:13.23Z</time></trkpt><trkpt lat="43.4224617" lon="13.1391583"><ele>502.0</ele><time>2026-04-12T07:54:14.23Z</time></trkpt><trkpt lat="43.4225983" lon="13.13901"><ele>498.0</ele><time>2026-04-12T07:54:15.23Z</time></trkpt><trkpt lat="43.4227133" lon="13.13884"><ele>494.0</ele><time>2026-04-12T07:54:16.229Z</time></trkpt><trkpt lat="43.4228267" lon="13.1386617"><ele>490.0</ele><time>2026-04-12T07:54:17.23Z</time></trkpt><trkpt lat="43.422925" lon="13.1384683"><ele>490.33333333333337</ele><time>2026-04-12T07:54:18.23Z</time></trkpt><trkpt lat="43.4230083" lon="13.1382617"><ele>490.66666666666663</ele><time>2026-04-12T07:54:19.23Z</time></trkpt><trkpt lat="43.4230783" lon="13.1380467"><ele>491.0</ele><time>2026-04-12T07:54:20.23Z</time></trkpt><trkpt lat="43.42316" lon="13.13784"><ele>491.0</ele><time>2026-04-12T07:54:21.23Z</time></trkpt><trkpt lat="43.4232517" lon="13.1376383"><ele>491.0</ele><time>2026-04-12T07:54:22.229Z</time></trkpt><trkpt lat="43.4233567" lon="13.1374567"><ele>491.0</ele><time>2026-04-12T07:54:23.229Z</time></trkpt><trkpt lat="43.4234867" lon="13.1372917"><ele>487.66666666666663</ele><time>2026-04-12T07:54:24.23Z</time></trkpt><trkpt lat="43.4236217" lon="13.137145"><ele>484.33333333333337</ele><time>2026-04-12T07:54:25.23Z</time></trkpt><trkpt lat="43.4237533" lon="13.13701"><ele>481.0</ele><time>2026-04-12T07:54:26.23Z</time></trkpt><trkpt lat="43.4238817" lon="13.1368733"><ele>481.0</ele><time>2026-04-12T07:54:27.23Z</time></trkpt><trkpt lat="43.4240083" lon="13.136765"><ele>481.0</ele><time>2026-04-12T07:54:28.229Z</time></trkpt><trkpt lat="43.42414" lon="13.1366733"><ele>481.0</ele><time>2026-04-12T07:54:29.229Z</time></trkpt><trkpt lat="43.424285" lon="13.136625"><ele>481.0</ele><time>2026-04-12T07:54:30.229Z</time></trkpt><trkpt lat="43.4244483" lon="13.1365967"><ele>481.0</ele><time>2026-04-12T07:54:31.23Z</time></trkpt><trkpt lat="43.4246217" lon="13.1365817"><ele>481.0</ele><time>2026-04-12T07:54:32.23Z</time></trkpt><trkpt lat="43.4247917" lon="13.1365683"><ele>481.0</ele><time>2026-04-12T07:54:33.23Z</time></trkpt><trkpt lat="43.4249533" lon="13.13655"><ele>476.75</ele><time>2026-04-12T07:54:34.23Z</time></trkpt><trkpt lat="43.425105" lon="13.1365483"><ele>472.5</ele><time>2026-04-12T07:54:35.229Z</time></trkpt><trkpt lat="43.4252417" lon="13.1365433"><ele>468.25</ele><time>2026-04-12T07:54:36.23Z</time></trkpt><trkpt lat="43.4253583" lon="13.1365183"><ele>464.0</ele><time>2026-04-12T07:54:37.229Z</time></trkpt><trkpt lat="43.4254633" lon="13.13646"><ele>466.0</ele><time>2026-04-12T07:54:38.23Z</time></trkpt><trkpt lat="43.4255383" lon="13.1363483"><ele>468.0</ele><time>2026-04-12T07:54:39.23Z</time></trkpt><trkpt lat="43.4255867" lon="13.1361917"><ele>470.0</ele><time>2026-04-12T07:54:40.23Z</time></trkpt><trkpt lat="43.4255883" lon="13.136015"><ele>472.0</ele><time>2026-04-12T07:54:41.23Z</time></trkpt><trkpt lat="43.4255783" lon="13.13583"><ele>470.25</ele><time>2026-04-12T07:54:42.23Z</time></trkpt><trkpt lat="43.42558" lon="13.13566"><ele>468.5</ele><time>2026-04-12T07:54:43.231Z</time></trkpt><trkpt lat="43.4255917" lon="13.13549"><ele>466.75</ele><time>2026-04-12T07:54:44.231Z</time></trkpt><trkpt lat="43.4256333" lon="13.13532"><ele>465.0</ele><time>2026-04-12T07:54:45.23Z</time></trkpt><trkpt lat="43.4257117" lon="13.1351817"><ele>465.0</ele><time>2026-04-12T07:54:46.231Z</time></trkpt><trkpt lat="43.4258217" lon="13.135075"><ele>465.0</ele><time>2026-04-12T07:54:47.23Z</time></trkpt><trkpt lat="43.4259483" lon="13.1349633"><ele>465.0</ele><time>2026-04-12T07:54:48.231Z</time></trkpt><trkpt lat="43.4261" lon="13.1348733"><ele>462.66666666666663</ele><time>2026-04-12T07:54:49.23Z</time></trkpt><trkpt lat="43.42625" lon="13.134775"><ele>460.3333333333333</ele><time>2026-04-12T07:54:50.231Z</time></trkpt><trkpt lat="43.4263883" lon="13.1346417"><ele>458.0</ele><time>2026-04-12T07:54:51.231Z</time></trkpt><trkpt lat="43.4265117" lon="13.134485"><ele>458.0</ele><time>2026-04-12T07:54:52.231Z</time></trkpt><trkpt lat="43.4266217" lon="13.134325"><ele>458.0</ele><time>2026-04-12T07:54:53.231Z</time></trkpt><trkpt lat="43.4267283" lon="13.1341667"><ele>458.0</ele><time>2026-04-12T07:54:54.231Z</time></trkpt><trkpt lat="43.42684" lon="13.13403"><ele>454.5</ele><time>2026-04-12T07:54:55.231Z</time></trkpt><trkpt lat="43.42697" lon="13.1339217"><ele>451.0</ele><time>2026-04-12T07:54:56.231Z</time></trkpt><trkpt lat="43.4271133" lon="13.1338583"><ele>447.5</ele><time>2026-04-12T07:54:57.231Z</time></trkpt><trkpt lat="43.4272467" lon="13.1338683"><ele>444.0</ele><time>2026-04-12T07:54:58.231Z</time></trkpt><trkpt lat="43.427405" lon="13.133875"><ele>443.75</ele><time>2026-04-12T07:54:59.231Z</time></trkpt><trkpt lat="43.4275467" lon="13.1338517"><ele>443.5</ele><time>2026-04-12T07:55:00.231Z</time></trkpt><trkpt lat="43.4276833" lon="13.1337867"><ele>443.25</ele><time>2026-04-12T07:55:01.231Z</time></trkpt><trkpt lat="43.4278183" lon="13.1336817"><ele>443.0</ele><time>2026-04-12T07:55:02.231Z</time></trkpt><trkpt lat="43.427935" lon="13.1335383"><ele>442.66666666666663</ele><time>2026-04-12T07:55:03.23Z</time></trkpt><trkpt lat="43.4280417" lon="13.1333667"><ele>442.33333333333337</ele><time>2026-04-12T07:55:04.23Z</time></trkpt><trkpt lat="43.4281267" lon="13.1331633"><ele>442.0</ele><time>2026-04-12T07:55:05.23Z</time></trkpt><trkpt lat="43.4281967" lon="13.1329467"><ele>442.0</ele><time>2026-04-12T07:55:06.23Z</time></trkpt><trkpt lat="43.428265" lon="13.132745"><ele>442.0</ele><time>2026-04-12T07:55:07.231Z</time></trkpt><trkpt lat="43.4283367" lon="13.132555"><ele>442.0</ele><time>2026-04-12T07:55:08.231Z</time></trkpt><trkpt lat="43.4284267" lon="13.13239"><ele>439.33333333333337</ele><time>2026-04-12T07:55:09.231Z</time></trkpt><trkpt lat="43.4285417" lon="13.1322467"><ele>436.66666666666663</ele><time>2026-04-12T07:55:10.231Z</time></trkpt><trkpt lat="43.42867" lon="13.1321133"><ele>434.0</ele><time>2026-04-12T07:55:11.231Z</time></trkpt><trkpt lat="43.4288" lon="13.1319667"><ele>434.3333333333333</ele><time>2026-04-12T07:55:12.231Z</time></trkpt><trkpt lat="43.428925" lon="13.1318033"><ele>434.66666666666663</ele><time>2026-04-12T07:55:13.231Z</time></trkpt><trkpt lat="43.4290567" lon="13.1316333"><ele>435.0</ele><time>2026-04-12T07:55:14.231Z</time></trkpt><trkpt lat="43.4291717" lon="13.13147"><ele>435.0</ele><time>2026-04-12T07:55:15.231Z</time></trkpt><trkpt lat="43.4292783" lon="13.1312983"><ele>435.0</ele><time>2026-04-12T07:55:16.231Z</time></trkpt><trkpt lat="43.4293817" lon="13.1311133"><ele>435.0</ele><time>2026-04-12T07:55:17.231Z</time></trkpt><trkpt lat="43.4294717" lon="13.1309333"><ele>435.0</ele><time>2026-04-12T07:55:18.231Z</time></trkpt><trkpt lat="43.4295633" lon="13.13075"><ele>435.0</ele><time>2026-04-12T07:55:19.231Z</time></trkpt><trkpt lat="43.4296633" lon="13.1305933"><ele>435.0</ele><time>2026-04-12T07:55:20.231Z</time></trkpt><trkpt lat="43.4297867" lon="13.1304533"><ele>433.0</ele><time>2026-04-12T07:55:21.231Z</time></trkpt><trkpt lat="43.42995" lon="13.1303183"><ele>431.0</ele><time>2026-04-12T07:55:22.231Z</time></trkpt><trkpt lat="43.4300983" lon="13.1301817"><ele>429.0</ele><time>2026-04-12T07:55:23.231Z</time></trkpt><trkpt lat="43.4302467" lon="13.13005"><ele>429.0</ele><time>2026-04-12T07:55:24.23Z</time></trkpt><trkpt lat="43.43039" lon="13.12992"><ele>429.0</ele><time>2026-04-12T07:55:25.231Z</time></trkpt><trkpt lat="43.430545" lon="13.1297983"><ele>429.0</ele><time>2026-04-12T07:55:26.231Z</time></trkpt><trkpt lat="43.4307067" lon="13.1296683"><ele>426.66666666666663</ele><time>2026-04-12T07:55:27.231Z</time></trkpt><trkpt lat="43.4308767" lon="13.1295467"><ele>424.3333333333333</ele><time>2026-04-12T07:55:28.231Z</time></trkpt><trkpt lat="43.431045" lon="13.129425"><ele>422.0</ele><time>2026-04-12T07:55:29.23Z</time></trkpt><trkpt lat="43.431205" lon="13.1292917"><ele>421.66666666666663</ele><time>2026-04-12T07:55:30.231Z</time></trkpt><trkpt lat="43.4313567" lon="13.1291417"><ele>421.33333333333337</ele><time>2026-04-12T07:55:31.231Z</time></trkpt><trkpt lat="43.4315033" lon="13.1289683"><ele>421.0</ele><time>2026-04-12T07:55:32.231Z</time></trkpt><trkpt lat="43.4316417" lon="13.1287883"><ele>421.0</ele><time>2026-04-12T07:55:33.23Z</time></trkpt><trkpt lat="43.43178" lon="13.128605"><ele>421.0</ele><time>2026-04-12T07:55:34.231Z</time></trkpt><trkpt lat="43.4319183" lon="13.1284267"><ele>421.0</ele><time>2026-04-12T07:55:35.231Z</time></trkpt><trkpt lat="43.432055" lon="13.1282533"><ele>422.33333333333337</ele><time>2026-04-12T07:55:36.23Z</time></trkpt><trkpt lat="43.4321833" lon="13.1280933"><ele>423.66666666666663</ele><time>2026-04-12T07:55:37.23Z</time></trkpt><trkpt lat="43.4323117" lon="13.12793"><ele>425.0</ele><time>2026-04-12T07:55:38.231Z</time></trkpt><trkpt lat="43.4324417" lon="13.1277883"><ele>425.0</ele><time>2026-04-12T07:55:39.23Z</time></trkpt><trkpt lat="43.4325733" lon="13.12764"><ele>425.0</ele><time>2026-04-12T07:55:40.231Z</time></trkpt><trkpt lat="43.43269" lon="13.127485"><ele>425.0</ele><time>2026-04-12T07:55:41.231Z</time></trkpt><trkpt lat="43.4328183" lon="13.12734"><ele>424.0</ele><time>2026-04-12T07:55:42.231Z</time></trkpt><trkpt lat="43.4329167" lon="13.1271633"><ele>423.0</ele><time>2026-04-12T07:55:43.23Z</time></trkpt><trkpt lat="43.4330333" lon="13.1269667"><ele>422.0</ele><time>2026-04-12T07:55:44.231Z</time></trkpt><trkpt lat="43.4331567" lon="13.1267567"><ele>420.3333333333333</ele><time>2026-04-12T07:55:45.23Z</time></trkpt><trkpt lat="43.4332867" lon="13.1265483"><ele>418.66666666666663</ele><time>2026-04-12T07:55:46.231Z</time></trkpt><trkpt lat="43.43343" lon="13.12633"><ele>417.0</ele><time>2026-04-12T07:55:47.231Z</time></trkpt><trkpt lat="43.4335667" lon="13.12612"><ele>417.0</ele><time>2026-04-12T07:55:48.23Z</time></trkpt><trkpt lat="43.4337" lon="13.125905"><ele>417.0</ele><time>2026-04-12T07:55:49.231Z</time></trkpt><trkpt lat="43.4338283" lon="13.125695"><ele>417.0</ele><time>2026-04-12T07:55:50.231Z</time></trkpt><trkpt lat="43.43396" lon="13.1254833"><ele>416.0</ele><time>2026-04-12T07:55:51.231Z</time></trkpt><trkpt lat="43.4340933" lon="13.125285"><ele>415.0</ele><time>2026-04-12T07:55:52.231Z</time></trkpt><trkpt lat="43.4342167" lon="13.1250883"><ele>414.0</ele><time>2026-04-12T07:55:53.231Z</time></trkpt><trkpt lat="43.4343383" lon="13.1248933"><ele>414.0</ele><time>2026-04-12T07:55:54.23Z</time></trkpt><trkpt lat="43.43446" lon="13.1247017"><ele>414.0</ele><time>2026-04-12T07:55:55.23Z</time></trkpt><trkpt lat="43.43459" lon="13.1245167"><ele>414.0</ele><time>2026-04-12T07:55:56.231Z</time></trkpt><trkpt lat="43.43472" lon="13.1243517"><ele>416.33333333333337</ele><time>2026-04-12T07:55:57.231Z</time></trkpt><trkpt lat="43.434855" lon="13.1242017"><ele>418.6666666666667</ele><time>2026-04-12T07:55:58.23Z</time></trkpt><trkpt lat="43.4349933" lon="13.124065"><ele>421.0</ele><time>2026-04-12T07:55:59.231Z</time></trkpt><trkpt lat="43.4351417" lon="13.1239283"><ele>421.0</ele><time>2026-04-12T07:56:00.231Z</time></trkpt><trkpt lat="43.4352833" lon="13.1238"><ele>421.0</ele><time>2026-04-12T07:56:01.231Z</time></trkpt><trkpt lat="43.4354133" lon="13.1236467"><ele>421.0</ele><time>2026-04-12T07:56:02.23Z</time></trkpt><trkpt lat="43.4355383" lon="13.1234717"><ele>420.6666666666667</ele><time>2026-04-12T07:56:03.23Z</time></trkpt><trkpt lat="43.435635" lon="13.12329"><ele>420.33333333333337</ele><time>2026-04-12T07:56:04.23Z</time></trkpt><trkpt lat="43.435725" lon="13.1230933"><ele>420.0</ele><time>2026-04-12T07:56:05.23Z</time></trkpt><trkpt lat="43.4357983" lon="13.122915"><ele>421.25</ele><time>2026-04-12T07:56:06.231Z</time></trkpt><trkpt lat="43.4358717" lon="13.1227533"><ele>422.5</ele><time>2026-04-12T07:56:07.231Z</time></trkpt><trkpt lat="43.4359417" lon="13.1226033"><ele>423.75</ele><time>2026-04-12T07:56:08.231Z</time></trkpt><trkpt lat="43.43602" lon="13.1224533"><ele>425.0</ele><time>2026-04-12T07:56:09.231Z</time></trkpt><trkpt lat="43.436095" lon="13.1222917"><ele>425.0</ele><time>2026-04-12T07:56:10.231Z</time></trkpt><trkpt lat="43.4361767" lon="13.1221283"><ele>425.0</ele><time>2026-04-12T07:56:11.231Z</time></trkpt><trkpt lat="43.43626" lon="13.12195"><ele>425.0</ele><time>2026-04-12T07:56:12.231Z</time></trkpt><trkpt lat="43.436345" lon="13.1217767"><ele>428.3333333333333</ele><time>2026-04-12T07:56:13.231Z</time></trkpt><trkpt lat="43.43644" lon="13.1216017"><ele>431.66666666666663</ele><time>2026-04-12T07:56:14.231Z</time></trkpt><trkpt lat="43.43654" lon="13.1214217"><ele>435.0</ele><time>2026-04-12T07:56:15.231Z</time></trkpt><trkpt lat="43.43664" lon="13.121235"><ele>435.0</ele><time>2026-04-12T07:56:16.23Z</time></trkpt><trkpt lat="43.4367333" lon="13.121045"><ele>435.0</ele><time>2026-04-12T07:56:17.231Z</time></trkpt><trkpt lat="43.4368117" lon="13.120845"><ele>435.0</ele><time>2026-04-12T07:56:18.231Z</time></trkpt><trkpt lat="43.436875" lon="13.1206417"><ele>434.66666666666663</ele><time>2026-04-12T07:56:19.23Z</time></trkpt><trkpt lat="43.436905" lon="13.120435"><ele>434.3333333333333</ele><time>2026-04-12T07:56:20.231Z</time></trkpt><trkpt lat="43.4369367" lon="13.12023"><ele>434.0</ele><time>2026-04-12T07:56:21.23Z</time></trkpt><trkpt lat="43.4369767" lon="13.1200367"><ele>433.0</ele><time>2026-04-12T07:56:22.231Z</time></trkpt><trkpt lat="43.4370283" lon="13.1198667"><ele>432.0</ele><time>2026-04-12T07:56:23.231Z</time></trkpt><trkpt lat="43.437105" lon="13.1197017"><ele>431.0</ele><time>2026-04-12T07:56:24.23Z</time></trkpt><trkpt lat="43.4372017" lon="13.1195767"><ele>430.0</ele><time>2026-04-12T07:56:25.231Z</time></trkpt><trkpt lat="43.4373333" lon="13.1194767"><ele>433.25</ele><time>2026-04-12T07:56:26.231Z</time></trkpt><trkpt lat="43.4374583" lon="13.1193667"><ele>436.5</ele><time>2026-04-12T07:56:27.23Z</time></trkpt><trkpt lat="43.43757" lon="13.1192383"><ele>439.75</ele><time>2026-04-12T07:56:28.231Z</time></trkpt><trkpt lat="43.4376717" lon="13.1190833"><ele>443.0</ele><time>2026-04-12T07:56:29.231Z</time></trkpt><trkpt lat="43.4377717" lon="13.1189233"><ele>443.0</ele><time>2026-04-12T07:56:30.231Z</time></trkpt><trkpt lat="43.43787" lon="13.1187533"><ele>443.0</ele><time>2026-04-12T07:56:31.231Z</time></trkpt><trkpt lat="43.43798" lon="13.1186033"><ele>443.0</ele><time>2026-04-12T07:56:32.23Z</time></trkpt><trkpt lat="43.4380983" lon="13.1184717"><ele>446.75</ele><time>2026-04-12T07:56:33.231Z</time></trkpt><trkpt lat="43.438215" lon="13.1183833"><ele>450.5</ele><time>2026-04-12T07:56:34.231Z</time></trkpt><trkpt lat="43.4383233" lon="13.118365"><ele>454.25</ele><time>2026-04-12T07:56:35.231Z</time></trkpt><trkpt lat="43.4384283" lon="13.1184017"><ele>458.0</ele><time>2026-04-12T07:56:36.23Z</time></trkpt><trkpt lat="43.4385033" lon="13.1185083"><ele>458.0</ele><time>2026-04-12T07:56:37.231Z</time></trkpt><trkpt lat="43.4385667" lon="13.1186333"><ele>457.99999999999994</ele><time>2026-04-12T07:56:38.23Z</time></trkpt><trkpt lat="43.4386567" lon="13.1187117"><ele>457.99999999999994</ele><time>2026-04-12T07:56:39.23Z</time></trkpt><trkpt lat="43.43876" lon="13.1187567"><ele>458.0</ele><time>2026-04-12T07:56:40.23Z</time></trkpt><trkpt lat="43.4388733" lon="13.1187517"><ele>458.0</ele><time>2026-04-12T07:56:41.231Z</time></trkpt><trkpt lat="43.4390033" lon="13.1187067"><ele>458.3333333333333</ele><time>2026-04-12T07:56:42.23Z</time></trkpt><trkpt lat="43.4391417" lon="13.11864"><ele>458.66666666666663</ele><time>2026-04-12T07:56:43.23Z</time></trkpt><trkpt lat="43.4392917" lon="13.1185467"><ele>459.0</ele><time>2026-04-12T07:56:44.231Z</time></trkpt><trkpt lat="43.4394433" lon="13.1184733"><ele>459.0</ele><time>2026-04-12T07:56:45.231Z</time></trkpt><trkpt lat="43.4395933" lon="13.1184033"><ele>459.0</ele><time>2026-04-12T07:56:46.23Z</time></trkpt><trkpt lat="43.4397483" lon="13.1183217"><ele>459.0</ele><time>2026-04-12T07:56:47.23Z</time></trkpt><trkpt lat="43.4399067" lon="13.11824"><ele>460.33333333333337</ele><time>2026-04-12T07:56:48.23Z</time></trkpt><trkpt lat="43.4400667" lon="13.11816"><ele>461.6666666666667</ele><time>2026-04-12T07:56:49.23Z</time></trkpt><trkpt lat="43.4402117" lon="13.1180733"><ele>463.0</ele><time>2026-04-12T07:56:50.23Z</time></trkpt><trkpt lat="43.4403517" lon="13.1179983"><ele>465.0</ele><time>2026-04-12T07:56:51.231Z</time></trkpt><trkpt lat="43.44048" lon="13.1179317"><ele>467.0</ele><time>2026-04-12T07:56:52.23Z</time></trkpt><trkpt lat="43.4406" lon="13.117875"><ele>469.0</ele><time>2026-04-12T07:56:53.23Z</time></trkpt><trkpt lat="43.4407067" lon="13.11781"><ele>471.0</ele><time>2026-04-12T07:56:54.231Z</time></trkpt><trkpt lat="43.4408017" lon="13.1177633"><ele>471.0</ele><time>2026-04-12T07:56:55.231Z</time></trkpt><trkpt lat="43.44088" lon="13.1177233"><ele>471.0</ele><time>2026-04-12T07:56:56.23Z</time></trkpt><trkpt lat="43.4409567" lon="13.1176767"><ele>471.0</ele><time>2026-04-12T07:56:57.231Z</time></trkpt><trkpt lat="43.441035" lon="13.1176483"><ele>471.0</ele><time>2026-04-12T07:56:58.231Z</time></trkpt><trkpt lat="43.441115" lon="13.1176183"><ele>471.0</ele><time>2026-04-12T07:56:59.231Z</time></trkpt><trkpt lat="43.441195" lon="13.1175717"><ele>471.0</ele><time>2026-04-12T07:57:00.23Z</time></trkpt><trkpt lat="43.44128" lon="13.117525"><ele>471.25</ele><time>2026-04-12T07:57:01.231Z</time></trkpt><trkpt lat="43.4413767" lon="13.1174783"><ele>471.5</ele><time>2026-04-12T07:57:02.231Z</time></trkpt><trkpt lat="43.4414933" lon="13.1174267"><ele>471.75</ele><time>2026-04-12T07:57:03.231Z</time></trkpt><trkpt lat="43.4416217" lon="13.1173733"><ele>472.0</ele><time>2026-04-12T07:57:04.231Z</time></trkpt><trkpt lat="43.441765" lon="13.1173117"><ele>472.33333333333337</ele><time>2026-04-12T07:57:05.231Z</time></trkpt><trkpt lat="43.4419167" lon="13.1172533"><ele>472.66666666666663</ele><time>2026-04-12T07:57:06.231Z</time></trkpt><trkpt lat="43.442075" lon="13.11719"><ele>473.0</ele><time>2026-04-12T07:57:07.231Z</time></trkpt><trkpt lat="43.442245" lon="13.1171367"><ele>473.0</ele><time>2026-04-12T07:57:08.231Z</time></trkpt><trkpt lat="43.4424017" lon="13.117065"><ele>473.0</ele><time>2026-04-12T07:57:09.23Z</time></trkpt><trkpt lat="43.442535" lon="13.1170033"><ele>473.0</ele><time>2026-04-12T07:57:10.23Z</time></trkpt><trkpt lat="43.44266" lon="13.1169467"><ele>473.0</ele><time>2026-04-12T07:57:11.231Z</time></trkpt><trkpt lat="43.44277" lon="13.116885"><ele>472.99999999999994</ele><time>2026-04-12T07:57:12.23Z</time></trkpt><trkpt lat="43.4428667" lon="13.1168417"><ele>473.0</ele><time>2026-04-12T07:57:13.23Z</time></trkpt><trkpt lat="43.44294" lon="13.116815"><ele>473.0</ele><time>2026-04-12T07:57:14.231Z</time></trkpt><trkpt lat="43.443005" lon="13.11677"><ele>473.0</ele><time>2026-04-12T07:57:16.23Z</time></trkpt><trkpt lat="43.4430767" lon="13.1167817"><ele>472.99999999999994</ele><time>2026-04-12T07:57:21.23Z</time></trkpt><trkpt lat="43.44315" lon="13.116825"><ele>473.0</ele><time>2026-04-12T07:57:23.23Z</time></trkpt><trkpt lat="43.44324" lon="13.1169217"><ele>474.14285714285717</ele><time>2026-04-12T07:57:25.231Z</time></trkpt><trkpt lat="43.4432917" lon="13.116975"><ele>475.2857142857142</ele><time>2026-04-12T07:57:26.23Z</time></trkpt><trkpt lat="43.4433483" lon="13.11702"><ele>476.4285714285714</ele><time>2026-04-12T07:57:27.23Z</time></trkpt><trkpt lat="43.4434183" lon="13.1170567"><ele>477.57142857142856</ele><time>2026-04-12T07:57:28.23Z</time></trkpt><trkpt lat="43.4434917" lon="13.117085"><ele>478.71428571428567</ele><time>2026-04-12T07:57:29.231Z</time></trkpt><trkpt lat="43.443565" lon="13.1171067"><ele>479.8571428571428</ele><time>2026-04-12T07:57:30.231Z</time></trkpt><trkpt lat="43.44364" lon="13.117125"><ele>480.99999999999994</ele><time>2026-04-12T07:57:31.23Z</time></trkpt><trkpt lat="43.4437067" lon="13.1171367"><ele>481.00000000000006</ele><time>2026-04-12T07:57:32.23Z</time></trkpt><trkpt lat="43.443785" lon="13.1171383"><ele>481.0</ele><time>2026-04-12T07:57:33.23Z</time></trkpt><trkpt lat="43.4438617" lon="13.1171467"><ele>481.0</ele><time>2026-04-12T07:57:34.231Z</time></trkpt><trkpt lat="43.44394" lon="13.1171633"><ele>481.0</ele><time>2026-04-12T07:57:35.231Z</time></trkpt><trkpt lat="43.4440133" lon="13.1171917"><ele>481.00000000000006</ele><time>2026-04-12T07:57:36.231Z</time></trkpt><trkpt lat="43.4440917" lon="13.1172233"><ele>481.0</ele><time>2026-04-12T07:57:37.231Z</time></trkpt><trkpt lat="43.4441783" lon="13.117255"><ele>481.83333333333337</ele><time>2026-04-12T07:57:38.231Z</time></trkpt><trkpt lat="43.4442633" lon="13.1173"><ele>482.6666666666667</ele><time>2026-04-12T07:57:39.231Z</time></trkpt><trkpt lat="43.4443333" lon="13.1173433"><ele>483.5</ele><time>2026-04-12T07:57:40.23Z</time></trkpt><trkpt lat="43.4444017" lon="13.1173867"><ele>484.33333333333337</ele><time>2026-04-12T07:57:41.231Z</time></trkpt><trkpt lat="43.444475" lon="13.1174367"><ele>485.1666666666667</ele><time>2026-04-12T07:57:42.231Z</time></trkpt><trkpt lat="43.444555" lon="13.117485"><ele>486.0</ele><time>2026-04-12T07:57:43.231Z</time></trkpt><trkpt lat="43.444655" lon="13.11753"><ele>486.5</ele><time>2026-04-12T07:57:44.231Z</time></trkpt><trkpt lat="43.444765" lon="13.1175883"><ele>487.0</ele><time>2026-04-12T07:57:45.231Z</time></trkpt><trkpt lat="43.4448767" lon="13.1176467"><ele>487.5</ele><time>2026-04-12T07:57:46.231Z</time></trkpt><trkpt lat="43.4449933" lon="13.1177333"><ele>488.0</ele><time>2026-04-12T07:57:47.231Z</time></trkpt><trkpt lat="43.4451217" lon="13.1178233"><ele>488.0</ele><time>2026-04-12T07:57:48.231Z</time></trkpt><trkpt lat="43.4452533" lon="13.117925"><ele>488.0</ele><time>2026-04-12T07:57:49.231Z</time></trkpt><trkpt lat="43.4453883" lon="13.1180283"><ele>488.0</ele><time>2026-04-12T07:57:50.231Z</time></trkpt><trkpt lat="43.4455233" lon="13.1181417"><ele>487.3333333333333</ele><time>2026-04-12T07:57:51.231Z</time></trkpt><trkpt lat="43.4456567" lon="13.11826"><ele>486.66666666666663</ele><time>2026-04-12T07:57:52.231Z</time></trkpt><trkpt lat="43.4457867" lon="13.1183783"><ele>486.0</ele><time>2026-04-12T07:57:53.231Z</time></trkpt><trkpt lat="43.4459033" lon="13.11849"><ele>486.0</ele><time>2026-04-12T07:57:54.231Z</time></trkpt><trkpt lat="43.4460167" lon="13.1185983"><ele>486.0</ele><time>2026-04-12T07:57:55.23Z</time></trkpt><trkpt lat="43.4461217" lon="13.1187017"><ele>486.0</ele><time>2026-04-12T07:57:56.23Z</time></trkpt><trkpt lat="43.44622" lon="13.1188033"><ele>486.0</ele><time>2026-04-12T07:57:57.231Z</time></trkpt><trkpt lat="43.4463167" lon="13.1188883"><ele>486.8333333333333</ele><time>2026-04-12T07:57:58.231Z</time></trkpt><trkpt lat="43.4464017" lon="13.1189667"><ele>487.66666666666663</ele><time>2026-04-12T07:57:59.231Z</time></trkpt><trkpt lat="43.44648" lon="13.119045"><ele>488.5</ele><time>2026-04-12T07:58:00.231Z</time></trkpt><trkpt lat="43.446555" lon="13.1190833"><ele>489.3333333333333</ele><time>2026-04-12T07:58:01.231Z</time></trkpt><trkpt lat="43.4466233" lon="13.1191217"><ele>490.16666666666663</ele><time>2026-04-12T07:58:02.23Z</time></trkpt><trkpt lat="43.4466933" lon="13.11915"><ele>491.0</ele><time>2026-04-12T07:58:03.23Z</time></trkpt><trkpt lat="43.4467517" lon="13.1191983"><ele>488.8333333333333</ele><time>2026-04-12T07:58:04.231Z</time></trkpt><trkpt lat="43.44682" lon="13.1192317"><ele>486.66666666666663</ele><time>2026-04-12T07:58:05.231Z</time></trkpt><trkpt lat="43.4468917" lon="13.11928"><ele>484.5</ele><time>2026-04-12T07:58:06.231Z</time></trkpt><trkpt lat="43.4469717" lon="13.1193283"><ele>482.33333333333337</ele><time>2026-04-12T07:58:07.231Z</time></trkpt><trkpt lat="43.44704" lon="13.1193767"><ele>480.1666666666667</ele><time>2026-04-12T07:58:08.231Z</time></trkpt><trkpt lat="43.4471067" lon="13.1194383"><ele>478.0</ele><time>2026-04-12T07:58:09.231Z</time></trkpt><trkpt lat="43.4471817" lon="13.1194833"><ele>477.50000000000006</ele><time>2026-04-12T07:58:10.23Z</time></trkpt><trkpt lat="43.4472483" lon="13.1195383"><ele>477.0</ele><time>2026-04-12T07:58:11.231Z</time></trkpt><trkpt lat="43.4473217" lon="13.1196017"><ele>476.5</ele><time>2026-04-12T07:58:12.231Z</time></trkpt><trkpt lat="43.4473917" lon="13.119685"><ele>476.0</ele><time>2026-04-12T07:58:13.231Z</time></trkpt><trkpt lat="43.4474583" lon="13.1197783"><ele>475.50000000000006</ele><time>2026-04-12T07:58:14.231Z</time></trkpt><trkpt lat="43.4475217" lon="13.119865"><ele>475.0</ele><time>2026-04-12T07:58:15.231Z</time></trkpt><trkpt lat="43.447575" lon="13.1199517"><ele>474.0</ele><time>2026-04-12T07:58:16.231Z</time></trkpt><trkpt lat="43.4477167" lon="13.1201167"><ele>473.0</ele><time>2026-04-12T07:58:18.231Z</time></trkpt><trkpt lat="43.447785" lon="13.1202083"><ele>472.0</ele><time>2026-04-12T07:58:19.231Z</time></trkpt><trkpt lat="43.44786" lon="13.1203017"><ele>471.0</ele><time>2026-04-12T07:58:20.231Z</time></trkpt><trkpt lat="43.447935" lon="13.1204"><ele>470.20000000000005</ele><time>2026-04-12T07:58:21.231Z</time></trkpt><trkpt lat="43.4480083" lon="13.1204917"><ele>469.40000000000003</ele><time>2026-04-12T07:58:22.231Z</time></trkpt><trkpt lat="43.4480833" lon="13.1205817"><ele>468.6</ele><time>2026-04-12T07:58:23.231Z</time></trkpt><trkpt lat="43.4481567" lon="13.1206683"><ele>467.8</ele><time>2026-04-12T07:58:24.231Z</time></trkpt><trkpt lat="43.4482267" lon="13.1207583"><ele>467.0</ele><time>2026-04-12T07:58:25.23Z</time></trkpt><trkpt lat="43.4482983" lon="13.120845"><ele>467.0</ele><time>2026-04-12T07:58:26.23Z</time></trkpt><trkpt lat="43.4483717" lon="13.1209333"><ele>467.00000000000006</ele><time>2026-04-12T07:58:27.23Z</time></trkpt><trkpt lat="43.44845" lon="13.1210267"><ele>467.00000000000006</ele><time>2026-04-12T07:58:28.23Z</time></trkpt><trkpt lat="43.448515" lon="13.1211067"><ele>467.0</ele><time>2026-04-12T07:58:29.231Z</time></trkpt><trkpt lat="43.4485683" lon="13.1212083"><ele>467.0</ele><time>2026-04-12T07:58:30.231Z</time></trkpt><trkpt lat="43.448625" lon="13.1213117"><ele>466.99999999999994</ele><time>2026-04-12T07:58:31.23Z</time></trkpt><trkpt lat="43.448685" lon="13.1214017"><ele>467.0</ele><time>2026-04-12T07:58:32.23Z</time></trkpt><trkpt lat="43.4487433" lon="13.1214967"><ele>467.0</ele><time>2026-04-12T07:58:33.23Z</time></trkpt><trkpt lat="43.44879" lon="13.1215767"><ele>467.0</ele><time>2026-04-12T07:58:34.23Z</time></trkpt><trkpt lat="43.4488367" lon="13.1216633"><ele>466.99999999999994</ele><time>2026-04-12T07:58:36.231Z</time></trkpt><trkpt lat="43.4489017" lon="13.1217133"><ele>467.0</ele><time>2026-04-12T07:58:39.231Z</time></trkpt><trkpt lat="43.448915" lon="13.12159"><ele>466.99999999999994</ele><time>2026-04-12T07:58:42.231Z</time></trkpt><trkpt lat="43.44887" lon="13.1215233"><ele>467.0</ele><time>2026-04-12T07:58:43.231Z</time></trkpt><trkpt lat="43.4488167" lon="13.1214533"><ele>467.0</ele><time>2026-04-12T07:58:44.23Z</time></trkpt><trkpt lat="43.448755" lon="13.12138"><ele>467.0</ele><time>2026-04-12T07:58:45.231Z</time></trkpt><trkpt lat="43.44869" lon="13.1212917"><ele>466.99999999999994</ele><time>2026-04-12T07:58:46.231Z</time></trkpt><trkpt lat="43.4486233" lon="13.1211983"><ele>467.0</ele><time>2026-04-12T07:58:47.231Z</time></trkpt><trkpt lat="43.4485517" lon="13.1211"><ele>467.0</ele><time>2026-04-12T07:58:48.231Z</time></trkpt><trkpt lat="43.44849" lon="13.12101"><ele>467.00000000000006</ele><time>2026-04-12T07:58:49.231Z</time></trkpt><trkpt lat="43.44841" lon="13.1209033"><ele>467.00000000000006</ele><time>2026-04-12T07:58:50.231Z</time></trkpt><trkpt lat="43.4483333" lon="13.1207983"><ele>467.0</ele><time>2026-04-12T07:58:51.231Z</time></trkpt><trkpt lat="43.4482483" lon="13.120685"><ele>467.0</ele><time>2026-04-12T07:58:52.23Z</time></trkpt><trkpt lat="43.4481667" lon="13.1205633"><ele>466.75</ele><time>2026-04-12T07:58:53.231Z</time></trkpt><trkpt lat="43.4480817" lon="13.120445"><ele>466.5</ele><time>2026-04-12T07:58:54.231Z</time></trkpt><trkpt lat="43.447995" lon="13.120335"><ele>466.25</ele><time>2026-04-12T07:58:55.231Z</time></trkpt><trkpt lat="43.4479067" lon="13.120225"><ele>466.0</ele><time>2026-04-12T07:58:56.23Z</time></trkpt><trkpt lat="43.447815" lon="13.1201217"><ele>467.0</ele><time>2026-04-12T07:58:57.231Z</time></trkpt><trkpt lat="43.4477333" lon="13.1200283"><ele>468.0</ele><time>2026-04-12T07:58:58.231Z</time></trkpt><trkpt lat="43.4476517" lon="13.1199367"><ele>469.0</ele><time>2026-04-12T07:58:59.231Z</time></trkpt><trkpt lat="43.4475767" lon="13.1198283"><ele>470.0</ele><time>2026-04-12T07:59:00.231Z</time></trkpt><trkpt lat="43.4475083" lon="13.1197333"><ele>471.0</ele><time>2026-04-12T07:59:01.23Z</time></trkpt><trkpt lat="43.4474517" lon="13.1196633"><ele>471.6666666666667</ele><time>2026-04-12T07:59:02.23Z</time></trkpt><trkpt lat="43.4473833" lon="13.11957"><ele>472.33333333333337</ele><time>2026-04-12T07:59:04.231Z</time></trkpt><trkpt lat="43.4474133" lon="13.1194583"><ele>473.0</ele><time>2026-04-12T07:59:06.23Z</time></trkpt><trkpt lat="43.4474433" lon="13.1193783"><ele>473.6666666666667</ele><time>2026-04-12T07:59:07.231Z</time></trkpt><trkpt lat="43.44747" lon="13.1192833"><ele>474.33333333333337</ele><time>2026-04-12T07:59:08.231Z</time></trkpt><trkpt lat="43.4475017" lon="13.1191717"><ele>475.0</ele><time>2026-04-12T07:59:09.231Z</time></trkpt><trkpt lat="43.4475217" lon="13.1190333"><ele>476.4</ele><time>2026-04-12T07:59:10.23Z</time></trkpt><trkpt lat="43.4475333" lon="13.1188883"><ele>477.8</ele><time>2026-04-12T07:59:11.23Z</time></trkpt><trkpt lat="43.4475367" lon="13.11876"><ele>479.20000000000005</ele><time>2026-04-12T07:59:12.231Z</time></trkpt><trkpt lat="43.447545" lon="13.1186383"><ele>480.6</ele><time>2026-04-12T07:59:13.231Z</time></trkpt><trkpt lat="43.4475583" lon="13.1185067"><ele>482.0</ele><time>2026-04-12T07:59:14.23Z</time></trkpt><trkpt lat="43.447575" lon="13.1183667"><ele>482.0</ele><time>2026-04-12T07:59:15.231Z</time></trkpt><trkpt lat="43.44759" lon="13.1182233"><ele>482.00000000000006</ele><time>2026-04-12T07:59:16.23Z</time></trkpt><trkpt lat="43.4476117" lon="13.118075"><ele>482.00000000000006</ele><time>2026-04-12T07:59:17.23Z</time></trkpt><trkpt lat="43.4476267" lon="13.1179233"><ele>482.0</ele><time>2026-04-12T07:59:18.231Z</time></trkpt><trkpt lat="43.447645" lon="13.1177683"><ele>482.0</ele><time>2026-04-12T07:59:19.23Z</time></trkpt><trkpt lat="43.44766" lon="13.117615"><ele>482.0</ele><time>2026-04-12T07:59:20.231Z</time></trkpt><trkpt lat="43.4476783" lon="13.1174633"><ele>482.0</ele><time>2026-04-12T07:59:21.231Z</time></trkpt><trkpt lat="43.4476817" lon="13.11731"><ele>482.0</ele><time>2026-04-12T07:59:22.231Z</time></trkpt><trkpt lat="43.44767" lon="13.11716"><ele>482.0</ele><time>2026-04-12T07:59:23.23Z</time></trkpt><trkpt lat="43.4476483" lon="13.1169917"><ele>481.5</ele><time>2026-04-12T07:59:24.231Z</time></trkpt><trkpt lat="43.447625" lon="13.11681"><ele>481.0</ele><time>2026-04-12T07:59:25.231Z</time></trkpt><trkpt lat="43.447595" lon="13.1166233"><ele>480.5</ele><time>2026-04-12T07:59:26.231Z</time></trkpt><trkpt lat="43.4475717" lon="13.116425"><ele>480.0</ele><time>2026-04-12T07:59:27.231Z</time></trkpt><trkpt lat="43.447535" lon="13.1162267"><ele>480.0</ele><time>2026-04-12T07:59:28.231Z</time></trkpt><trkpt lat="43.447505" lon="13.1160383"><ele>480.0</ele><time>2026-04-12T07:59:29.23Z</time></trkpt><trkpt lat="43.4474683" lon="13.1158483"><ele>480.0</ele><time>2026-04-12T07:59:30.231Z</time></trkpt><trkpt lat="43.4474267" lon="13.1156767"><ele>480.0</ele><time>2026-04-12T07:59:31.23Z</time></trkpt><trkpt lat="43.4473883" lon="13.1154983"><ele>480.0</ele><time>2026-04-12T07:59:32.23Z</time></trkpt><trkpt lat="43.4473517" lon="13.1153233"><ele>480.0</ele><time>2026-04-12T07:59:33.231Z</time></trkpt><trkpt lat="43.4473033" lon="13.115155"><ele>480.0</ele><time>2026-04-12T07:59:34.231Z</time></trkpt><trkpt lat="43.447265" lon="13.1149783"><ele>480.0</ele><time>2026-04-12T07:59:35.231Z</time></trkpt><trkpt lat="43.4472333" lon="13.1148033"><ele>479.6</ele><time>2026-04-12T07:59:36.231Z</time></trkpt><trkpt lat="43.4472067" lon="13.11464"><ele>479.2</ele><time>2026-04-12T07:59:37.23Z</time></trkpt><trkpt lat="43.44718" lon="13.1144933"><ele>478.79999999999995</ele><time>2026-04-12T07:59:38.23Z</time></trkpt><trkpt lat="43.4471517" lon="13.1143583"><ele>478.4</ele><time>2026-04-12T07:59:39.231Z</time></trkpt><trkpt lat="43.4471283" lon="13.11423"><ele>478.0</ele><time>2026-04-12T07:59:40.231Z</time></trkpt><trkpt lat="43.4471067" lon="13.1141083"><ele>478.59999999999997</ele><time>2026-04-12T07:59:41.23Z</time></trkpt><trkpt lat="43.4470967" lon="13.1139967"><ele>479.19999999999993</ele><time>2026-04-12T07:59:42.231Z</time></trkpt><trkpt lat="43.4470717" lon="13.1138567"><ele>479.8</ele><time>2026-04-12T07:59:44.231Z</time></trkpt><trkpt lat="43.447035" lon="13.1137533"><ele>480.4</ele><time>2026-04-12T07:59:47.23Z</time></trkpt><trkpt lat="43.4470433" lon="13.1136433"><ele>481.0</ele><time>2026-04-12T07:59:54.23Z</time></trkpt><trkpt lat="43.4471517" lon="13.113525"><ele>479.8</ele><time>2026-04-12T07:59:56.231Z</time></trkpt><trkpt lat="43.44723" lon="13.1134633"><ele>478.6</ele><time>2026-04-12T07:59:57.23Z</time></trkpt><trkpt lat="43.4473167" lon="13.1133933"><ele>477.4</ele><time>2026-04-12T07:59:58.231Z</time></trkpt><trkpt lat="43.4474067" lon="13.1133133"><ele>476.2</ele><time>2026-04-12T07:59:59.231Z</time></trkpt><trkpt lat="43.4475033" lon="13.113225"><ele>475.0</ele><time>2026-04-12T08:00:00.231Z</time></trkpt><trkpt lat="43.447605" lon="13.1131333"><ele>474.0</ele><time>2026-04-12T08:00:01.23Z</time></trkpt><trkpt lat="43.4476933" lon="13.1130333"><ele>473.0</ele><time>2026-04-12T08:00:02.23Z</time></trkpt><trkpt lat="43.4477817" lon="13.11293"><ele>472.0</ele><time>2026-04-12T08:00:03.231Z</time></trkpt><trkpt lat="43.4478717" lon="13.1128283"><ele>471.0</ele><time>2026-04-12T08:00:04.231Z</time></trkpt><trkpt lat="43.4479567" lon="13.1127133"><ele>469.75</ele><time>2026-04-12T08:00:05.231Z</time></trkpt><trkpt lat="43.4480567" lon="13.11262"><ele>468.5</ele><time>2026-04-12T08:00:06.231Z</time></trkpt><trkpt lat="43.44816" lon="13.112525"><ele>467.25</ele><time>2026-04-12T08:00:07.231Z</time></trkpt><trkpt lat="43.4482667" lon="13.11243"><ele>466.0</ele><time>2026-04-12T08:00:08.231Z</time></trkpt><trkpt lat="43.4483767" lon="13.112335"><ele>464.75</ele><time>2026-04-12T08:00:09.231Z</time></trkpt><trkpt lat="43.44849" lon="13.1122383"><ele>463.5</ele><time>2026-04-12T08:00:10.231Z</time></trkpt><trkpt lat="43.4486017" lon="13.1121367"><ele>462.25</ele><time>2026-04-12T08:00:11.231Z</time></trkpt><trkpt lat="43.4487183" lon="13.1120217"><ele>461.0</ele><time>2026-04-12T08:00:12.231Z</time></trkpt><trkpt lat="43.4488267" lon="13.1119067"><ele>459.8333333333333</ele><time>2026-04-12T08:00:13.23Z</time></trkpt><trkpt lat="43.4489217" lon="13.1118067"><ele>458.66666666666663</ele><time>2026-04-12T08:00:14.231Z</time></trkpt><trkpt lat="43.4490017" lon="13.1117233"><ele>457.5</ele><time>2026-04-12T08:00:15.231Z</time></trkpt><trkpt lat="43.44907" lon="13.11166"><ele>456.33333333333337</ele><time>2026-04-12T08:00:16.231Z</time></trkpt><trkpt lat="43.449125" lon="13.1116117"><ele>455.1666666666667</ele><time>2026-04-12T08:00:17.23Z</time></trkpt><trkpt lat="43.4491983" lon="13.1115617"><ele>454.0</ele><time>2026-04-12T08:00:19.231Z</time></trkpt><trkpt lat="43.4492617" lon="13.111525"><ele>453.4</ele><time>2026-04-12T08:00:24.23Z</time></trkpt><trkpt lat="43.4493217" lon="13.1114767"><ele>452.79999999999995</ele><time>2026-04-12T08:00:25.231Z</time></trkpt><trkpt lat="43.44939" lon="13.1114083"><ele>452.20000000000005</ele><time>2026-04-12T08:00:26.231Z</time></trkpt><trkpt lat="43.4494633" lon="13.1113433"><ele>451.6</ele><time>2026-04-12T08:00:27.23Z</time></trkpt><trkpt lat="43.44956" lon="13.1112467"><ele>451.0</ele><time>2026-04-12T08:00:28.231Z</time></trkpt><trkpt lat="43.44967" lon="13.111145"><ele>450.5</ele><time>2026-04-12T08:00:29.231Z</time></trkpt><trkpt lat="43.44977" lon="13.1110467"><ele>450.0</ele><time>2026-04-12T08:00:30.23Z</time></trkpt><trkpt lat="43.4498717" lon="13.110945"><ele>449.5</ele><time>2026-04-12T08:00:31.23Z</time></trkpt><trkpt lat="43.44997" lon="13.1108533"><ele>449.0</ele><time>2026-04-12T08:00:32.231Z</time></trkpt><trkpt lat="43.4500517" lon="13.1107667"><ele>448.16666666666663</ele><time>2026-04-12T08:00:33.231Z</time></trkpt><trkpt lat="43.4501467" lon="13.1107167"><ele>447.3333333333333</ele><time>2026-04-12T08:00:34.23Z</time></trkpt><trkpt lat="43.4502183" lon="13.110655"><ele>446.5</ele><time>2026-04-12T08:00:35.23Z</time></trkpt><trkpt lat="43.4502767" lon="13.1105833"><ele>445.66666666666663</ele><time>2026-04-12T08:00:36.23Z</time></trkpt><trkpt lat="43.45034" lon="13.110515"><ele>444.8333333333333</ele><time>2026-04-12T08:00:37.23Z</time></trkpt><trkpt lat="43.4504083" lon="13.1104533"><ele>444.0</ele><time>2026-04-12T08:00:38.231Z</time></trkpt><trkpt lat="43.4504733" lon="13.110395"><ele>443.85714285714283</ele><time>2026-04-12T08:00:39.231Z</time></trkpt><trkpt lat="43.4505283" lon="13.110335"><ele>443.7142857142857</ele><time>2026-04-12T08:00:40.231Z</time></trkpt><trkpt lat="43.4505733" lon="13.11027"><ele>443.57142857142856</ele><time>2026-04-12T08:00:41.231Z</time></trkpt><trkpt lat="43.45062" lon="13.110205"><ele>443.42857142857144</ele><time>2026-04-12T08:00:42.231Z</time></trkpt><trkpt lat="43.4506733" lon="13.1101467"><ele>443.28571428571433</ele><time>2026-04-12T08:00:43.231Z</time></trkpt><trkpt lat="43.45073" lon="13.1100683"><ele>443.14285714285717</ele><time>2026-04-12T08:00:44.23Z</time></trkpt><trkpt lat="43.4508083" lon="13.109985"><ele>443.0</ele><time>2026-04-12T08:00:45.231Z</time></trkpt><trkpt lat="43.4509017" lon="13.10989"><ele>442.5</ele><time>2026-04-12T08:00:46.231Z</time></trkpt><trkpt lat="43.4510067" lon="13.1097967"><ele>442.0</ele><time>2026-04-12T08:00:47.23Z</time></trkpt><trkpt lat="43.451135" lon="13.1096833"><ele>441.5</ele><time>2026-04-12T08:00:48.231Z</time></trkpt><trkpt lat="43.4512733" lon="13.1095683"><ele>441.0</ele><time>2026-04-12T08:00:49.23Z</time></trkpt><trkpt lat="43.4514033" lon="13.1094317"><ele>439.66666666666663</ele><time>2026-04-12T08:00:50.23Z</time></trkpt><trkpt lat="43.4515433" lon="13.1092967"><ele>438.3333333333333</ele><time>2026-04-12T08:00:51.231Z</time></trkpt><trkpt lat="43.45168" lon="13.1091933"><ele>437.0</ele><time>2026-04-12T08:00:52.23Z</time></trkpt><trkpt lat="43.4518317" lon="13.1090733"><ele>436.0</ele><time>2026-04-12T08:00:53.231Z</time></trkpt><trkpt lat="43.45198" lon="13.10895"><ele>435.0</ele><time>2026-04-12T08:00:54.231Z</time></trkpt><trkpt lat="43.4521317" lon="13.108835"><ele>434.0</ele><time>2026-04-12T08:00:55.231Z</time></trkpt><trkpt lat="43.4522833" lon="13.10871"><ele>433.66666666666663</ele><time>2026-04-12T08:00:56.23Z</time></trkpt><trkpt lat="43.4524283" lon="13.1085867"><ele>433.33333333333337</ele><time>2026-04-12T08:00:57.231Z</time></trkpt><trkpt lat="43.4525633" lon="13.1084633"><ele>433.0</ele><time>2026-04-12T08:00:58.231Z</time></trkpt><trkpt lat="43.45271" lon="13.108335"><ele>433.0</ele><time>2026-04-12T08:00:59.23Z</time></trkpt><trkpt lat="43.4528617" lon="13.1082283"><ele>433.0</ele><time>2026-04-12T08:01:00.231Z</time></trkpt><trkpt lat="43.453015" lon="13.108115"><ele>433.0</ele><time>2026-04-12T08:01:01.231Z</time></trkpt><trkpt lat="43.453175" lon="13.1079983"><ele>432.0</ele><time>2026-04-12T08:01:02.23Z</time></trkpt><trkpt lat="43.4533467" lon="13.1078733"><ele>431.0</ele><time>2026-04-12T08:01:03.23Z</time></trkpt><trkpt lat="43.4535067" lon="13.1077483"><ele>430.0</ele><time>2026-04-12T08:01:04.23Z</time></trkpt><trkpt lat="43.4536667" lon="13.1076217"><ele>427.6666666666667</ele><time>2026-04-12T08:01:05.231Z</time></trkpt><trkpt lat="43.4538317" lon="13.107495"><ele>425.33333333333337</ele><time>2026-04-12T08:01:06.231Z</time></trkpt><trkpt lat="43.453985" lon="13.10738"><ele>423.0</ele><time>2026-04-12T08:01:07.231Z</time></trkpt><trkpt lat="43.454135" lon="13.10725"><ele>423.0</ele><time>2026-04-12T08:01:08.231Z</time></trkpt><trkpt lat="43.4542867" lon="13.10712"><ele>423.0</ele><time>2026-04-12T08:01:09.23Z</time></trkpt><trkpt lat="43.45444" lon="13.1070033"><ele>423.0</ele><time>2026-04-12T08:01:10.23Z</time></trkpt><trkpt lat="43.4545867" lon="13.106875"><ele>419.66666666666663</ele><time>2026-04-12T08:01:11.231Z</time></trkpt><trkpt lat="43.4547467" lon="13.10675"><ele>416.3333333333333</ele><time>2026-04-12T08:01:12.231Z</time></trkpt><trkpt lat="43.4548983" lon="13.106625"><ele>413.0</ele><time>2026-04-12T08:01:13.231Z</time></trkpt><trkpt lat="43.4550533" lon="13.1065117"><ele>413.0</ele><time>2026-04-12T08:01:14.231Z</time></trkpt><trkpt lat="43.455205" lon="13.1063933"><ele>413.0</ele><time>2026-04-12T08:01:15.23Z</time></trkpt><trkpt lat="43.45535" lon="13.106285"><ele>413.0</ele><time>2026-04-12T08:01:16.23Z</time></trkpt><trkpt lat="43.4555" lon="13.1061683"><ele>411.0</ele><time>2026-04-12T08:01:17.23Z</time></trkpt><trkpt lat="43.4556483" lon="13.1060383"><ele>409.0</ele><time>2026-04-12T08:01:18.23Z</time></trkpt><trkpt lat="43.4557967" lon="13.1059317"><ele>407.0</ele><time>2026-04-12T08:01:19.23Z</time></trkpt><trkpt lat="43.455945" lon="13.1058183"><ele>406.0</ele><time>2026-04-12T08:01:20.231Z</time></trkpt><trkpt lat="43.45609" lon="13.1056767"><ele>405.0</ele><time>2026-04-12T08:01:21.231Z</time></trkpt><trkpt lat="43.4562" lon="13.105515"><ele>404.0</ele><time>2026-04-12T08:01:22.23Z</time></trkpt><trkpt lat="43.4562817" lon="13.1053267"><ele>403.3333333333333</ele><time>2026-04-12T08:01:23.231Z</time></trkpt><trkpt lat="43.45634" lon="13.1051267"><ele>402.66666666666663</ele><time>2026-04-12T08:01:24.23Z</time></trkpt><trkpt lat="43.4563833" lon="13.10491"><ele>402.0</ele><time>2026-04-12T08:01:25.231Z</time></trkpt><trkpt lat="43.4564283" lon="13.1046883"><ele>401.0</ele><time>2026-04-12T08:01:26.23Z</time></trkpt><trkpt lat="43.4564617" lon="13.1044717"><ele>400.0</ele><time>2026-04-12T08:01:27.23Z</time></trkpt><trkpt lat="43.4565033" lon="13.104265"><ele>399.0</ele><time>2026-04-12T08:01:28.23Z</time></trkpt><trkpt lat="43.4565517" lon="13.1040667"><ele>396.75</ele><time>2026-04-12T08:01:29.231Z</time></trkpt><trkpt lat="43.456615" lon="13.1038983"><ele>394.5</ele><time>2026-04-12T08:01:30.231Z</time></trkpt><trkpt lat="43.4567" lon="13.1037817"><ele>392.25</ele><time>2026-04-12T08:01:31.23Z</time></trkpt><trkpt lat="43.4568017" lon="13.10372"><ele>390.0</ele><time>2026-04-12T08:01:32.231Z</time></trkpt><trkpt lat="43.45693" lon="13.10372"><ele>390.0</ele><time>2026-04-12T08:01:33.231Z</time></trkpt><trkpt lat="43.457065" lon="13.1037483"><ele>390.0</ele><time>2026-04-12T08:01:34.231Z</time></trkpt><trkpt lat="43.4572067" lon="13.1037933"><ele>390.0</ele><time>2026-04-12T08:01:35.231Z</time></trkpt><trkpt lat="43.4573517" lon="13.1038517"><ele>390.0</ele><time>2026-04-12T08:01:36.231Z</time></trkpt><trkpt lat="43.4574967" lon="13.1039183"><ele>388.0</ele><time>2026-04-12T08:01:37.23Z</time></trkpt><trkpt lat="43.4576417" lon="13.1039833"><ele>386.0</ele><time>2026-04-12T08:01:38.231Z</time></trkpt><trkpt lat="43.4577933" lon="13.1040283"><ele>384.0</ele><time>2026-04-12T08:01:39.231Z</time></trkpt><trkpt lat="43.4579533" lon="13.10404"><ele>383.6666666666667</ele><time>2026-04-12T08:01:40.23Z</time></trkpt><trkpt lat="43.4581083" lon="13.1040183"><ele>383.33333333333337</ele><time>2026-04-12T08:01:41.231Z</time></trkpt><trkpt lat="43.4582633" lon="13.10395"><ele>383.0</ele><time>2026-04-12T08:01:42.23Z</time></trkpt><trkpt lat="43.45842" lon="13.1038433"><ele>383.0</ele><time>2026-04-12T08:01:43.231Z</time></trkpt><trkpt lat="43.4585783" lon="13.103715"><ele>383.0</ele><time>2026-04-12T08:01:44.231Z</time></trkpt><trkpt lat="43.458745" lon="13.1035933"><ele>383.0</ele><time>2026-04-12T08:01:45.231Z</time></trkpt><trkpt lat="43.4589067" lon="13.1034517"><ele>383.0</ele><time>2026-04-12T08:01:46.23Z</time></trkpt><trkpt lat="43.4590667" lon="13.1033183"><ele>383.0</ele><time>2026-04-12T08:01:47.23Z</time></trkpt><trkpt lat="43.4592233" lon="13.1031883"><ele>383.0</ele><time>2026-04-12T08:01:48.231Z</time></trkpt><trkpt lat="43.4593717" lon="13.1030633"><ele>382.5</ele><time>2026-04-12T08:01:49.231Z</time></trkpt><trkpt lat="43.4595033" lon="13.1029533"><ele>382.0</ele><time>2026-04-12T08:01:50.231Z</time></trkpt><trkpt lat="43.45962" lon="13.1028533"><ele>381.5</ele><time>2026-04-12T08:01:51.231Z</time></trkpt><trkpt lat="43.4597233" lon="13.1027783"><ele>381.0</ele><time>2026-04-12T08:01:52.231Z</time></trkpt><trkpt lat="43.4598033" lon="13.10273"><ele>381.3333333333333</ele><time>2026-04-12T08:01:53.231Z</time></trkpt><trkpt lat="43.4598667" lon="13.1026883"><ele>381.6666666666667</ele><time>2026-04-12T08:01:54.23Z</time></trkpt><trkpt lat="43.4599267" lon="13.1026283"><ele>382.0</ele><time>2026-04-12T08:01:55.231Z</time></trkpt><trkpt lat="43.459975" lon="13.102555"><ele>382.33333333333337</ele><time>2026-04-12T08:01:56.231Z</time></trkpt><trkpt lat="43.4600083" lon="13.1024367"><ele>382.6666666666667</ele><time>2026-04-12T08:01:57.231Z</time></trkpt><trkpt lat="43.46006" lon="13.1023017"><ele>383.0</ele><time>2026-04-12T08:01:58.231Z</time></trkpt><trkpt lat="43.4601083" lon="13.102145"><ele>383.0</ele><time>2026-04-12T08:01:59.231Z</time></trkpt><trkpt lat="43.46016" lon="13.1019767"><ele>383.0</ele><time>2026-04-12T08:02:00.231Z</time></trkpt><trkpt lat="43.460205" lon="13.1017983"><ele>383.0</ele><time>2026-04-12T08:02:01.23Z</time></trkpt><trkpt lat="43.46024" lon="13.1016167"><ele>383.0</ele><time>2026-04-12T08:02:02.231Z</time></trkpt><trkpt lat="43.4602633" lon="13.101435"><ele>381.5</ele><time>2026-04-12T08:02:03.231Z</time></trkpt><trkpt lat="43.4602833" lon="13.1012567"><ele>380.0</ele><time>2026-04-12T08:02:04.23Z</time></trkpt><trkpt lat="43.4602917" lon="13.10108"><ele>378.5</ele><time>2026-04-12T08:02:05.231Z</time></trkpt><trkpt lat="43.460305" lon="13.10091"><ele>377.0</ele><time>2026-04-12T08:02:06.231Z</time></trkpt><trkpt lat="43.4603167" lon="13.1007567"><ele>376.5</ele><time>2026-04-12T08:02:07.23Z</time></trkpt><trkpt lat="43.4603183" lon="13.1006033"><ele>376.0</ele><time>2026-04-12T08:02:08.231Z</time></trkpt><trkpt lat="43.4603217" lon="13.1004383"><ele>375.5</ele><time>2026-04-12T08:02:09.231Z</time></trkpt><trkpt lat="43.4603333" lon="13.10026"><ele>375.0</ele><time>2026-04-12T08:02:10.231Z</time></trkpt><trkpt lat="43.4603433" lon="13.1000733"><ele>374.0</ele><time>2026-04-12T08:02:11.231Z</time></trkpt><trkpt lat="43.460365" lon="13.0998767"><ele>373.0</ele><time>2026-04-12T08:02:12.231Z</time></trkpt><trkpt lat="43.4603817" lon="13.0996683"><ele>372.0</ele><time>2026-04-12T08:02:13.231Z</time></trkpt><trkpt lat="43.46039" lon="13.09944"><ele>372.0</ele><time>2026-04-12T08:02:14.231Z</time></trkpt><trkpt lat="43.4604017" lon="13.0992133"><ele>372.0</ele><time>2026-04-12T08:02:15.231Z</time></trkpt><trkpt lat="43.4604" lon="13.09899"><ele>372.0</ele><time>2026-04-12T08:02:16.23Z</time></trkpt><trkpt lat="43.4604033" lon="13.0987767"><ele>371.5</ele><time>2026-04-12T08:02:17.231Z</time></trkpt><trkpt lat="43.4604183" lon="13.0985667"><ele>371.0</ele><time>2026-04-12T08:02:18.23Z</time></trkpt><trkpt lat="43.4604433" lon="13.0983683"><ele>370.5</ele><time>2026-04-12T08:02:19.23Z</time></trkpt><trkpt lat="43.460475" lon="13.098185"><ele>370.0</ele><time>2026-04-12T08:02:20.231Z</time></trkpt><trkpt lat="43.460555" lon="13.09801"><ele>369.0</ele><time>2026-04-12T08:02:21.231Z</time></trkpt><trkpt lat="43.460665" lon="13.0978483"><ele>368.0</ele><time>2026-04-12T08:02:22.231Z</time></trkpt><trkpt lat="43.4607883" lon="13.0977083"><ele>367.0</ele><time>2026-04-12T08:02:23.231Z</time></trkpt><trkpt lat="43.4609333" lon="13.09758"><ele>367.0</ele><time>2026-04-12T08:02:24.231Z</time></trkpt><trkpt lat="43.4610833" lon="13.0974517"><ele>367.0</ele><time>2026-04-12T08:02:25.23Z</time></trkpt><trkpt lat="43.4612333" lon="13.0973283"><ele>367.0</ele><time>2026-04-12T08:02:26.231Z</time></trkpt><trkpt lat="43.4613817" lon="13.0972083"><ele>367.3333333333333</ele><time>2026-04-12T08:02:27.231Z</time></trkpt><trkpt lat="43.4615317" lon="13.0970883"><ele>367.6666666666667</ele><time>2026-04-12T08:02:28.231Z</time></trkpt><trkpt lat="43.4616733" lon="13.096965"><ele>368.0</ele><time>2026-04-12T08:02:29.231Z</time></trkpt><trkpt lat="43.4618167" lon="13.096835"><ele>368.0</ele><time>2026-04-12T08:02:30.231Z</time></trkpt><trkpt lat="43.4619467" lon="13.0967017"><ele>368.0</ele><time>2026-04-12T08:02:31.23Z</time></trkpt><trkpt lat="43.46208" lon="13.0965617"><ele>368.0</ele><time>2026-04-12T08:02:32.231Z</time></trkpt><trkpt lat="43.4622167" lon="13.096415"><ele>364.33333333333337</ele><time>2026-04-12T08:02:33.231Z</time></trkpt><trkpt lat="43.4623467" lon="13.0962633"><ele>360.6666666666667</ele><time>2026-04-12T08:02:34.23Z</time></trkpt><trkpt lat="43.46247" lon="13.0961167"><ele>357.0</ele><time>2026-04-12T08:02:35.23Z</time></trkpt><trkpt lat="43.4625967" lon="13.0959667"><ele>357.0</ele><time>2026-04-12T08:02:36.231Z</time></trkpt><trkpt lat="43.462725" lon="13.0958183"><ele>357.0</ele><time>2026-04-12T08:02:37.231Z</time></trkpt><trkpt lat="43.4628533" lon="13.095665"><ele>357.0</ele><time>2026-04-12T08:02:38.231Z</time></trkpt><trkpt lat="43.4629817" lon="13.09551"><ele>356.3333333333333</ele><time>2026-04-12T08:02:39.231Z</time></trkpt><trkpt lat="43.4630933" lon="13.0953333"><ele>355.66666666666663</ele><time>2026-04-12T08:02:40.23Z</time></trkpt><trkpt lat="43.4631917" lon="13.0951283"><ele>355.0</ele><time>2026-04-12T08:02:41.23Z</time></trkpt><trkpt lat="43.4632717" lon="13.0949083"><ele>355.0</ele><time>2026-04-12T08:02:42.231Z</time></trkpt><trkpt lat="43.463355" lon="13.0946767"><ele>355.0</ele><time>2026-04-12T08:02:43.231Z</time></trkpt><trkpt lat="43.4634317" lon="13.0944517"><ele>355.0</ele><time>2026-04-12T08:02:44.231Z</time></trkpt><trkpt lat="43.4635133" lon="13.0942183"><ele>353.3333333333333</ele><time>2026-04-12T08:02:45.231Z</time></trkpt><trkpt lat="43.4635933" lon="13.0939783"><ele>351.6666666666667</ele><time>2026-04-12T08:02:46.231Z</time></trkpt><trkpt lat="43.463675" lon="13.0937383"><ele>350.0</ele><time>2026-04-12T08:02:47.231Z</time></trkpt><trkpt lat="43.463745" lon="13.0934917"><ele>350.6666666666667</ele><time>2026-04-12T08:02:48.231Z</time></trkpt><trkpt lat="43.463815" lon="13.0932433"><ele>351.3333333333333</ele><time>2026-04-12T08:02:49.231Z</time></trkpt><trkpt lat="43.4638867" lon="13.0930017"><ele>352.0</ele><time>2026-04-12T08:02:50.231Z</time></trkpt><trkpt lat="43.4639583" lon="13.09276"><ele>352.0</ele><time>2026-04-12T08:02:51.23Z</time></trkpt><trkpt lat="43.4640183" lon="13.0925183"><ele>352.0</ele><time>2026-04-12T08:02:52.231Z</time></trkpt><trkpt lat="43.4640717" lon="13.0922883"><ele>352.0</ele><time>2026-04-12T08:02:53.231Z</time></trkpt><trkpt lat="43.46413" lon="13.0920667"><ele>351.66666666666663</ele><time>2026-04-12T08:02:54.231Z</time></trkpt><trkpt lat="43.46419" lon="13.09185"><ele>351.3333333333333</ele><time>2026-04-12T08:02:55.23Z</time></trkpt><trkpt lat="43.4642433" lon="13.0916433"><ele>351.0</ele><time>2026-04-12T08:02:56.23Z</time></trkpt><trkpt lat="43.4642967" lon="13.0914383"><ele>350.6666666666667</ele><time>2026-04-12T08:02:57.231Z</time></trkpt><trkpt lat="43.4643533" lon="13.0912367"><ele>350.33333333333337</ele><time>2026-04-12T08:02:58.231Z</time></trkpt><trkpt lat="43.464415" lon="13.0910383"><ele>350.0</ele><time>2026-04-12T08:02:59.231Z</time></trkpt><trkpt lat="43.464465" lon="13.090855"><ele>351.25</ele><time>2026-04-12T08:03:00.231Z</time></trkpt><trkpt lat="43.4645133" lon="13.0906783"><ele>352.5</ele><time>2026-04-12T08:03:01.231Z</time></trkpt><trkpt lat="43.4645533" lon="13.09051"><ele>353.75</ele><time>2026-04-12T08:03:02.23Z</time></trkpt><trkpt lat="43.4645883" lon="13.0903417"><ele>355.0</ele><time>2026-04-12T08:03:03.231Z</time></trkpt><trkpt lat="43.4646017" lon="13.0901933"><ele>355.0</ele><time>2026-04-12T08:03:04.231Z</time></trkpt><trkpt lat="43.4645833" lon="13.090075"><ele>355.0</ele><time>2026-04-12T08:03:05.23Z</time></trkpt><trkpt lat="43.4645433" lon="13.08997"><ele>355.0</ele><time>2026-04-12T08:03:06.231Z</time></trkpt><trkpt lat="43.464475" lon="13.0898683"><ele>355.0</ele><time>2026-04-12T08:03:07.231Z</time></trkpt><trkpt lat="43.464405" lon="13.0897633"><ele>355.0</ele><time>2026-04-12T08:03:08.231Z</time></trkpt><trkpt lat="43.4643283" lon="13.0896483"><ele>354.25</ele><time>2026-04-12T08:03:09.23Z</time></trkpt><trkpt lat="43.4642433" lon="13.089525"><ele>353.5</ele><time>2026-04-12T08:03:10.23Z</time></trkpt><trkpt lat="43.4641533" lon="13.0893917"><ele>352.75</ele><time>2026-04-12T08:03:11.231Z</time></trkpt><trkpt lat="43.4640583" lon="13.0892467"><ele>352.0</ele><time>2026-04-12T08:03:12.23Z</time></trkpt><trkpt lat="43.46396" lon="13.0890933"><ele>353.25</ele><time>2026-04-12T08:03:13.23Z</time></trkpt><trkpt lat="43.4638733" lon="13.0889517"><ele>354.5</ele><time>2026-04-12T08:03:14.231Z</time></trkpt><trkpt lat="43.4637833" lon="13.08881"><ele>355.75</ele><time>2026-04-12T08:03:15.231Z</time></trkpt><trkpt lat="43.4636983" lon="13.0886733"><ele>357.0</ele><time>2026-04-12T08:03:16.231Z</time></trkpt><trkpt lat="43.4636217" lon="13.08854"><ele>357.0</ele><time>2026-04-12T08:03:17.23Z</time></trkpt><trkpt lat="43.463545" lon="13.08841"><ele>357.0</ele><time>2026-04-12T08:03:18.231Z</time></trkpt><trkpt lat="43.4634667" lon="13.088285"><ele>357.0</ele><time>2026-04-12T08:03:19.23Z</time></trkpt><trkpt lat="43.4633983" lon="13.0881617"><ele>357.0</ele><time>2026-04-12T08:03:20.23Z</time></trkpt><trkpt lat="43.463335" lon="13.0880517"><ele>356.40000000000003</ele><time>2026-04-12T08:03:21.231Z</time></trkpt><trkpt lat="43.4632717" lon="13.0879467"><ele>355.8</ele><time>2026-04-12T08:03:22.23Z</time></trkpt><trkpt lat="43.4632067" lon="13.087845"><ele>355.2</ele><time>2026-04-12T08:03:23.23Z</time></trkpt><trkpt lat="43.4631383" lon="13.0877317"><ele>354.6</ele><time>2026-04-12T08:03:24.231Z</time></trkpt><trkpt lat="43.4630733" lon="13.0876283"><ele>354.0</ele><time>2026-04-12T08:03:25.23Z</time></trkpt><trkpt lat="43.4630167" lon="13.0875333"><ele>353.5</ele><time>2026-04-12T08:03:26.23Z</time></trkpt><trkpt lat="43.4629383" lon="13.0874417"><ele>353.0</ele><time>2026-04-12T08:03:27.231Z</time></trkpt><trkpt lat="43.4628567" lon="13.0873717"><ele>352.5</ele><time>2026-04-12T08:03:28.23Z</time></trkpt><trkpt lat="43.4627867" lon="13.0873067"><ele>352.0</ele><time>2026-04-12T08:03:29.23Z</time></trkpt><trkpt lat="43.46273" lon="13.0872567"><ele>351.5</ele><time>2026-04-12T08:03:30.231Z</time></trkpt><trkpt lat="43.462655" lon="13.08722"><ele>351.0</ele><time>2026-04-12T08:03:31.23Z</time></trkpt><trkpt lat="43.462585" lon="13.08717"><ele>353.4</ele><time>2026-04-12T08:03:32.23Z</time></trkpt><trkpt lat="43.462505" lon="13.0871117"><ele>355.8</ele><time>2026-04-12T08:03:33.231Z</time></trkpt><trkpt lat="43.4624233" lon="13.0870417"><ele>358.2</ele><time>2026-04-12T08:03:34.232Z</time></trkpt><trkpt lat="43.4623483" lon="13.0869483"><ele>360.59999999999997</ele><time>2026-04-12T08:03:35.231Z</time></trkpt><trkpt lat="43.4622783" lon="13.0868433"><ele>363.0</ele><time>2026-04-12T08:03:36.231Z</time></trkpt><trkpt lat="43.4621983" lon="13.0867083"><ele>361.25</ele><time>2026-04-12T08:03:37.232Z</time></trkpt><trkpt lat="43.4621133" lon="13.0865817"><ele>359.5</ele><time>2026-04-12T08:03:38.232Z</time></trkpt><trkpt lat="43.462025" lon="13.0864833"><ele>357.75</ele><time>2026-04-12T08:03:39.232Z</time></trkpt><trkpt lat="43.4619383" lon="13.0863917"><ele>356.0</ele><time>2026-04-12T08:03:40.232Z</time></trkpt><trkpt lat="43.461855" lon="13.0862867"><ele>356.0</ele><time>2026-04-12T08:03:41.232Z</time></trkpt><trkpt lat="43.461795" lon="13.0861467"><ele>356.0</ele><time>2026-04-12T08:03:42.231Z</time></trkpt><trkpt lat="43.4617367" lon="13.086"><ele>356.0</ele><time>2026-04-12T08:03:43.231Z</time></trkpt><trkpt lat="43.4616883" lon="13.0858483"><ele>356.0</ele><time>2026-04-12T08:03:44.232Z</time></trkpt><trkpt lat="43.4616417" lon="13.0857067"><ele>354.0</ele><time>2026-04-12T08:03:45.232Z</time></trkpt><trkpt lat="43.4615883" lon="13.0855717"><ele>352.0</ele><time>2026-04-12T08:03:46.232Z</time></trkpt><trkpt lat="43.4615283" lon="13.0854533"><ele>350.0</ele><time>2026-04-12T08:03:47.231Z</time></trkpt><trkpt lat="43.4614567" lon="13.0853683"><ele>348.0</ele><time>2026-04-12T08:03:48.232Z</time></trkpt><trkpt lat="43.4613917" lon="13.0853017"><ele>346.0</ele><time>2026-04-12T08:03:49.232Z</time></trkpt><trkpt lat="43.461345" lon="13.08524"><ele>346.0</ele><time>2026-04-12T08:03:50.232Z</time></trkpt><trkpt lat="43.4613333" lon="13.0850833"><ele>346.0</ele><time>2026-04-12T08:03:52.232Z</time></trkpt><trkpt lat="43.4614317" lon="13.0849733"><ele>346.0</ele><time>2026-04-12T08:03:54.232Z</time></trkpt><trkpt lat="43.4615417" lon="13.0849683"><ele>346.0</ele><time>2026-04-12T08:03:55.232Z</time></trkpt><trkpt lat="43.4616733" lon="13.08498"><ele>346.0</ele><time>2026-04-12T08:03:56.232Z</time></trkpt><trkpt lat="43.461795" lon="13.08498"><ele>346.0</ele><time>2026-04-12T08:03:57.232Z</time></trkpt><trkpt lat="43.46199" lon="13.085015"><ele>346.0</ele><time>2026-04-12T08:03:58.231Z</time></trkpt><trkpt lat="43.462165" lon="13.0850483"><ele>343.0</ele><time>2026-04-12T08:03:59.232Z</time></trkpt><trkpt lat="43.462345" lon="13.0850817"><ele>340.0</ele><time>2026-04-12T08:04:00.231Z</time></trkpt><trkpt lat="43.4625067" lon="13.0850817"><ele>337.0</ele><time>2026-04-12T08:04:01.232Z</time></trkpt><trkpt lat="43.4626533" lon="13.0850667"><ele>337.0</ele><time>2026-04-12T08:04:02.232Z</time></trkpt><trkpt lat="43.4627817" lon="13.0849817"><ele>337.0</ele><time>2026-04-12T08:04:03.232Z</time></trkpt><trkpt lat="43.4628917" lon="13.0848417"><ele>337.0</ele><time>2026-04-12T08:04:04.231Z</time></trkpt><trkpt lat="43.462975" lon="13.084675"><ele>337.0</ele><time>2026-04-12T08:04:05.231Z</time></trkpt><trkpt lat="43.46303" lon="13.0844733"><ele>334.3333333333333</ele><time>2026-04-12T08:04:06.231Z</time></trkpt><trkpt lat="43.46307" lon="13.084255"><ele>331.6666666666667</ele><time>2026-04-12T08:04:07.231Z</time></trkpt><trkpt lat="43.4630983" lon="13.0840467"><ele>329.0</ele><time>2026-04-12T08:04:08.232Z</time></trkpt><trkpt lat="43.4631283" lon="13.0838383"><ele>329.0</ele><time>2026-04-12T08:04:09.232Z</time></trkpt><trkpt lat="43.4631467" lon="13.08364"><ele>329.0</ele><time>2026-04-12T08:04:10.232Z</time></trkpt><trkpt lat="43.4631217" lon="13.0834483"><ele>329.0</ele><time>2026-04-12T08:04:11.232Z</time></trkpt><trkpt lat="43.4630733" lon="13.0832683"><ele>329.0</ele><time>2026-04-12T08:04:12.232Z</time></trkpt><trkpt lat="43.46299" lon="13.0831033"><ele>326.5</ele><time>2026-04-12T08:04:13.232Z</time></trkpt><trkpt lat="43.462905" lon="13.0829417"><ele>324.0</ele><time>2026-04-12T08:04:14.232Z</time></trkpt><trkpt lat="43.4628233" lon="13.0827783"><ele>321.5</ele><time>2026-04-12T08:04:15.232Z</time></trkpt><trkpt lat="43.462765" lon="13.0825967"><ele>319.0</ele><time>2026-04-12T08:04:16.232Z</time></trkpt><trkpt lat="43.46274" lon="13.0823983"><ele>316.66666666666663</ele><time>2026-04-12T08:04:17.232Z</time></trkpt><trkpt lat="43.462745" lon="13.0821983"><ele>314.3333333333333</ele><time>2026-04-12T08:04:18.232Z</time></trkpt><trkpt lat="43.46278" lon="13.0819883"><ele>312.0</ele><time>2026-04-12T08:04:19.232Z</time></trkpt><trkpt lat="43.4628383" lon="13.0817667"><ele>309.3333333333333</ele><time>2026-04-12T08:04:20.231Z</time></trkpt><trkpt lat="43.4628933" lon="13.0815417"><ele>306.66666666666663</ele><time>2026-04-12T08:04:21.232Z</time></trkpt><trkpt lat="43.462955" lon="13.0813167"><ele>304.0</ele><time>2026-04-12T08:04:22.232Z</time></trkpt><trkpt lat="43.462995" lon="13.0810933"><ele>308.66666666666663</ele><time>2026-04-12T08:04:23.232Z</time></trkpt><trkpt lat="43.4629983" lon="13.0808583"><ele>313.3333333333333</ele><time>2026-04-12T08:04:24.232Z</time></trkpt><trkpt lat="43.4629867" lon="13.0806417"><ele>318.0</ele><time>2026-04-12T08:04:25.232Z</time></trkpt><trkpt lat="43.46297" lon="13.080415"><ele>318.0</ele><time>2026-04-12T08:04:26.232Z</time></trkpt><trkpt lat="43.462965" lon="13.080205"><ele>318.0</ele><time>2026-04-12T08:04:27.232Z</time></trkpt><trkpt lat="43.4629717" lon="13.0799933"><ele>318.0</ele><time>2026-04-12T08:04:28.232Z</time></trkpt><trkpt lat="43.463015" lon="13.079795"><ele>314.6666666666667</ele><time>2026-04-12T08:04:29.232Z</time></trkpt><trkpt lat="43.46309" lon="13.079595"><ele>311.33333333333337</ele><time>2026-04-12T08:04:30.232Z</time></trkpt><trkpt lat="43.463185" lon="13.0794133"><ele>308.0</ele><time>2026-04-12T08:04:31.232Z</time></trkpt><trkpt lat="43.4633" lon="13.0792283"><ele>304.0</ele><time>2026-04-12T08:04:32.232Z</time></trkpt><trkpt lat="43.46341" lon="13.0790317"><ele>300.0</ele><time>2026-04-12T08:04:33.231Z</time></trkpt><trkpt lat="43.46352" lon="13.078825"><ele>296.0</ele><time>2026-04-12T08:04:34.232Z</time></trkpt><trkpt lat="43.463595" lon="13.0786033"><ele>296.0</ele><time>2026-04-12T08:04:35.232Z</time></trkpt><trkpt lat="43.4636383" lon="13.0783517"><ele>296.0</ele><time>2026-04-12T08:04:36.232Z</time></trkpt><trkpt lat="43.4636583" lon="13.078115"><ele>296.0</ele><time>2026-04-12T08:04:37.232Z</time></trkpt><trkpt lat="43.463675" lon="13.0778617"><ele>294.33333333333337</ele><time>2026-04-12T08:04:38.232Z</time></trkpt><trkpt lat="43.46369" lon="13.0776333"><ele>292.6666666666667</ele><time>2026-04-12T08:04:39.232Z</time></trkpt><trkpt lat="43.4636917" lon="13.0774133"><ele>291.0</ele><time>2026-04-12T08:04:40.232Z</time></trkpt><trkpt lat="43.4636867" lon="13.077205"><ele>291.0</ele><time>2026-04-12T08:04:41.232Z</time></trkpt><trkpt lat="43.4636517" lon="13.0770167"><ele>291.0</ele><time>2026-04-12T08:04:42.232Z</time></trkpt><trkpt lat="43.4635667" lon="13.076845"><ele>291.0</ele><time>2026-04-12T08:04:43.231Z</time></trkpt><trkpt lat="43.4634533" lon="13.0766967"><ele>291.0</ele><time>2026-04-12T08:04:44.232Z</time></trkpt><trkpt lat="43.4633367" lon="13.0765667"><ele>290.25</ele><time>2026-04-12T08:04:45.232Z</time></trkpt><trkpt lat="43.46321" lon="13.0764433"><ele>289.5</ele><time>2026-04-12T08:04:46.232Z</time></trkpt><trkpt lat="43.4630867" lon="13.0763317"><ele>288.75</ele><time>2026-04-12T08:04:47.231Z</time></trkpt><trkpt lat="43.462975" lon="13.0762267"><ele>288.0</ele><time>2026-04-12T08:04:48.232Z</time></trkpt><trkpt lat="43.462895" lon="13.07611"><ele>285.4</ele><time>2026-04-12T08:04:49.232Z</time></trkpt><trkpt lat="43.4628533" lon="13.075995"><ele>282.8</ele><time>2026-04-12T08:04:50.232Z</time></trkpt><trkpt lat="43.4628567" lon="13.0758717"><ele>280.2</ele><time>2026-04-12T08:04:51.232Z</time></trkpt><trkpt lat="43.4628833" lon="13.0757567"><ele>277.6</ele><time>2026-04-12T08:04:52.232Z</time></trkpt><trkpt lat="43.4629317" lon="13.0756433"><ele>275.0</ele><time>2026-04-12T08:04:53.231Z</time></trkpt><trkpt lat="43.4630267" lon="13.07556"><ele>274.2</ele><time>2026-04-12T08:04:54.232Z</time></trkpt><trkpt lat="43.4631033" lon="13.0754683"><ele>273.4</ele><time>2026-04-12T08:04:55.232Z</time></trkpt><trkpt lat="43.4631567" lon="13.0753733"><ele>272.6</ele><time>2026-04-12T08:04:56.231Z</time></trkpt><trkpt lat="43.4631833" lon="13.0752783"><ele>271.8</ele><time>2026-04-12T08:04:57.232Z</time></trkpt><trkpt lat="43.463125" lon="13.0751667"><ele>271.0</ele><time>2026-04-12T08:04:58.231Z</time></trkpt><trkpt lat="43.4630533" lon="13.07508"><ele>271.0</ele><time>2026-04-12T08:04:59.232Z</time></trkpt><trkpt lat="43.4629667" lon="13.07503"><ele>271.0</ele><time>2026-04-12T08:05:00.231Z</time></trkpt><trkpt lat="43.462825" lon="13.0750867"><ele>271.0</ele><time>2026-04-12T08:05:01.231Z</time></trkpt><trkpt lat="43.4626983" lon="13.0751767"><ele>271.0</ele><time>2026-04-12T08:05:02.232Z</time></trkpt><trkpt lat="43.462585" lon="13.0752867"><ele>269.8</ele><time>2026-04-12T08:05:03.232Z</time></trkpt><trkpt lat="43.4624783" lon="13.0753983"><ele>268.6</ele><time>2026-04-12T08:05:04.231Z</time></trkpt><trkpt lat="43.46238" lon="13.075495"><ele>267.4</ele><time>2026-04-12T08:05:05.232Z</time></trkpt><trkpt lat="43.46229" lon="13.075555"><ele>266.2</ele><time>2026-04-12T08:05:06.231Z</time></trkpt><trkpt lat="43.4622033" lon="13.0755883"><ele>265.0</ele><time>2026-04-12T08:05:07.232Z</time></trkpt><trkpt lat="43.462115" lon="13.0755467"><ele>265.0</ele><time>2026-04-12T08:05:08.231Z</time></trkpt><trkpt lat="43.46205" lon="13.0754567"><ele>265.0</ele><time>2026-04-12T08:05:09.232Z</time></trkpt><trkpt lat="43.462045" lon="13.075315"><ele>265.0</ele><time>2026-04-12T08:05:10.232Z</time></trkpt><trkpt lat="43.462075" lon="13.07517"><ele>265.0</ele><time>2026-04-12T08:05:11.231Z</time></trkpt><trkpt lat="43.4621333" lon="13.0750417"><ele>265.0</ele><time>2026-04-12T08:05:12.232Z</time></trkpt><trkpt lat="43.46223" lon="13.0749533"><ele>262.0</ele><time>2026-04-12T08:05:13.231Z</time></trkpt><trkpt lat="43.462345" lon="13.074865"><ele>259.0</ele><time>2026-04-12T08:05:14.231Z</time></trkpt><trkpt lat="43.4624483" lon="13.0747467"><ele>256.0</ele><time>2026-04-12T08:05:15.232Z</time></trkpt><trkpt lat="43.4625183" lon="13.0746017"><ele>253.0</ele><time>2026-04-12T08:05:16.232Z</time></trkpt><trkpt lat="43.4625667" lon="13.0744567"><ele>253.0</ele><time>2026-04-12T08:05:17.231Z</time></trkpt><trkpt lat="43.462585" lon="13.074315"><ele>253.0</ele><time>2026-04-12T08:05:18.231Z</time></trkpt><trkpt lat="43.4625633" lon="13.0741933"><ele>253.0</ele><time>2026-04-12T08:05:19.232Z</time></trkpt><trkpt lat="43.4625067" lon="13.0741183"><ele>253.0</ele><time>2026-04-12T08:05:20.232Z</time></trkpt><trkpt lat="43.4624217" lon="13.0740917"><ele>253.0</ele><time>2026-04-12T08:05:21.232Z</time></trkpt><trkpt lat="43.462325" lon="13.074105"><ele>253.0</ele><time>2026-04-12T08:05:22.231Z</time></trkpt><trkpt lat="43.4622" lon="13.0741667"><ele>253.0</ele><time>2026-04-12T08:05:23.232Z</time></trkpt><trkpt lat="43.4620783" lon="13.07423"><ele>253.0</ele><time>2026-04-12T08:05:24.231Z</time></trkpt><trkpt lat="43.4619617" lon="13.0742967"><ele>253.0</ele><time>2026-04-12T08:05:25.231Z</time></trkpt><trkpt lat="43.4618517" lon="13.0743567"><ele>250.0</ele><time>2026-04-12T08:05:26.232Z</time></trkpt><trkpt lat="43.4617617" lon="13.0744183"><ele>247.0</ele><time>2026-04-12T08:05:27.231Z</time></trkpt><trkpt lat="43.4616817" lon="13.07444"><ele>244.0</ele><time>2026-04-12T08:05:28.232Z</time></trkpt><trkpt lat="43.46162" lon="13.0743933"><ele>241.0</ele><time>2026-04-12T08:05:29.231Z</time></trkpt><trkpt lat="43.4616067" lon="13.0742117"><ele>238.0</ele><time>2026-04-12T08:05:31.232Z</time></trkpt><trkpt lat="43.46166" lon="13.074085"><ele>234.5</ele><time>2026-04-12T08:05:32.232Z</time></trkpt><trkpt lat="43.46173" lon="13.0739367"><ele>231.0</ele><time>2026-04-12T08:05:33.232Z</time></trkpt><trkpt lat="43.461805" lon="13.073765"><ele>227.5</ele><time>2026-04-12T08:05:34.232Z</time></trkpt><trkpt lat="43.4618717" lon="13.0735783"><ele>224.0</ele><time>2026-04-12T08:05:35.232Z</time></trkpt><trkpt lat="43.461945" lon="13.0733883"><ele>223.33333333333334</ele><time>2026-04-12T08:05:36.232Z</time></trkpt><trkpt lat="43.4620267" lon="13.07322"><ele>222.66666666666669</ele><time>2026-04-12T08:05:37.232Z</time></trkpt><trkpt lat="43.462125" lon="13.0730717"><ele>222.0</ele><time>2026-04-12T08:05:38.232Z</time></trkpt><trkpt lat="43.46225" lon="13.0729333"><ele>222.0</ele><time>2026-04-12T08:05:39.232Z</time></trkpt><trkpt lat="43.4623817" lon="13.07281"><ele>222.0</ele><time>2026-04-12T08:05:40.232Z</time></trkpt><trkpt lat="43.4625117" lon="13.07272"><ele>222.0</ele><time>2026-04-12T08:05:41.231Z</time></trkpt><trkpt lat="43.4626467" lon="13.0726433"><ele>222.0</ele><time>2026-04-12T08:05:42.232Z</time></trkpt><trkpt lat="43.4627767" lon="13.072585"><ele>222.0</ele><time>2026-04-12T08:05:43.232Z</time></trkpt><trkpt lat="43.462925" lon="13.0725533"><ele>222.0</ele><time>2026-04-12T08:05:44.231Z</time></trkpt><trkpt lat="43.4630633" lon="13.07257"><ele>222.0</ele><time>2026-04-12T08:05:45.231Z</time></trkpt><trkpt lat="43.4631867" lon="13.0726333"><ele>220.25</ele><time>2026-04-12T08:05:46.232Z</time></trkpt><trkpt lat="43.4633083" lon="13.07273"><ele>218.5</ele><time>2026-04-12T08:05:47.232Z</time></trkpt><trkpt lat="43.463405" lon="13.0728617"><ele>216.75</ele><time>2026-04-12T08:05:48.232Z</time></trkpt><trkpt lat="43.4634917" lon="13.0729583"><ele>215.0</ele><time>2026-04-12T08:05:49.232Z</time></trkpt><trkpt lat="43.4635817" lon="13.0730233"><ele>215.0</ele><time>2026-04-12T08:05:50.232Z</time></trkpt><trkpt lat="43.4636617" lon="13.073055"><ele>215.0</ele><time>2026-04-12T08:05:51.232Z</time></trkpt><trkpt lat="43.46375" lon="13.0730083"><ele>215.0</ele><time>2026-04-12T08:05:52.232Z</time></trkpt><trkpt lat="43.4637967" lon="13.07291"><ele>215.0</ele><time>2026-04-12T08:05:53.231Z</time></trkpt><trkpt lat="43.4638017" lon="13.0727833"><ele>215.0</ele><time>2026-04-12T08:05:54.232Z</time></trkpt><trkpt lat="43.4637533" lon="13.07267"><ele>215.0</ele><time>2026-04-12T08:05:55.232Z</time></trkpt><trkpt lat="43.4636683" lon="13.0725617"><ele>215.0</ele><time>2026-04-12T08:05:56.232Z</time></trkpt><trkpt lat="43.4635717" lon="13.0724467"><ele>215.0</ele><time>2026-04-12T08:05:57.232Z</time></trkpt><trkpt lat="43.4634633" lon="13.0723283"><ele>215.0</ele><time>2026-04-12T08:05:58.232Z</time></trkpt><trkpt lat="43.46336" lon="13.0722"><ele>210.25</ele><time>2026-04-12T08:05:59.231Z</time></trkpt><trkpt lat="43.4632567" lon="13.0720683"><ele>205.5</ele><time>2026-04-12T08:06:00.231Z</time></trkpt><trkpt lat="43.46315" lon="13.07195"><ele>200.75</ele><time>2026-04-12T08:06:01.232Z</time></trkpt><trkpt lat="43.46305" lon="13.071835"><ele>196.0</ele><time>2026-04-12T08:06:02.232Z</time></trkpt><trkpt lat="43.4629567" lon="13.071715"><ele>195.0</ele><time>2026-04-12T08:06:03.232Z</time></trkpt><trkpt lat="43.4628617" lon="13.0715867"><ele>194.0</ele><time>2026-04-12T08:06:04.232Z</time></trkpt><trkpt lat="43.4627733" lon="13.0714667"><ele>193.0</ele><time>2026-04-12T08:06:05.232Z</time></trkpt><trkpt lat="43.462695" lon="13.0713567"><ele>192.0</ele><time>2026-04-12T08:06:06.232Z</time></trkpt><trkpt lat="43.4626267" lon="13.07125"><ele>192.0</ele><time>2026-04-12T08:06:07.231Z</time></trkpt><trkpt lat="43.4625517" lon="13.07115"><ele>192.0</ele><time>2026-04-12T08:06:08.231Z</time></trkpt><trkpt lat="43.4624683" lon="13.07105"><ele>192.0</ele><time>2026-04-12T08:06:09.232Z</time></trkpt><trkpt lat="43.4623833" lon="13.07097"><ele>192.0</ele><time>2026-04-12T08:06:10.232Z</time></trkpt><trkpt lat="43.4623017" lon="13.0708967"><ele>192.0</ele><time>2026-04-12T08:06:11.232Z</time></trkpt><trkpt lat="43.462195" lon="13.0708517"><ele>191.5</ele><time>2026-04-12T08:06:12.232Z</time></trkpt><trkpt lat="43.4620717" lon="13.0708467"><ele>191.0</ele><time>2026-04-12T08:06:13.232Z</time></trkpt><trkpt lat="43.461935" lon="13.070875"><ele>190.5</ele><time>2026-04-12T08:06:14.232Z</time></trkpt><trkpt lat="43.4617833" lon="13.0709283"><ele>190.0</ele><time>2026-04-12T08:06:15.232Z</time></trkpt><trkpt lat="43.4616233" lon="13.0709917"><ele>190.0</ele><time>2026-04-12T08:06:16.231Z</time></trkpt><trkpt lat="43.4614783" lon="13.0710367"><ele>190.0</ele><time>2026-04-12T08:06:17.232Z</time></trkpt><trkpt lat="43.4613517" lon="13.0710717"><ele>190.0</ele><time>2026-04-12T08:06:18.231Z</time></trkpt><trkpt lat="43.4612467" lon="13.071075"><ele>190.0</ele><time>2026-04-12T08:06:19.231Z</time></trkpt><trkpt lat="43.4611683" lon="13.0710333"><ele>186.8</ele><time>2026-04-12T08:06:20.232Z</time></trkpt><trkpt lat="43.4611267" lon="13.0709583"><ele>183.6</ele><time>2026-04-12T08:06:21.232Z</time></trkpt><trkpt lat="43.4610917" lon="13.0708683"><ele>180.39999999999998</ele><time>2026-04-12T08:06:22.231Z</time></trkpt><trkpt lat="43.4611183" lon="13.0707333"><ele>177.2</ele><time>2026-04-12T08:06:23.231Z</time></trkpt><trkpt lat="43.4611733" lon="13.0705833"><ele>174.0</ele><time>2026-04-12T08:06:24.232Z</time></trkpt><trkpt lat="43.4612417" lon="13.0704283"><ele>176.66666666666666</ele><time>2026-04-12T08:06:25.232Z</time></trkpt><trkpt lat="43.46132" lon="13.070245"><ele>179.33333333333331</ele><time>2026-04-12T08:06:26.231Z</time></trkpt><trkpt lat="43.4613967" lon="13.07007"><ele>182.0</ele><time>2026-04-12T08:06:27.232Z</time></trkpt><trkpt lat="43.4614883" lon="13.069885"><ele>177.5</ele><time>2026-04-12T08:06:28.231Z</time></trkpt><trkpt lat="43.4615767" lon="13.0697133"><ele>173.0</ele><time>2026-04-12T08:06:29.232Z</time></trkpt><trkpt lat="43.46167" lon="13.069565"><ele>168.5</ele><time>2026-04-12T08:06:30.232Z</time></trkpt><trkpt lat="43.4617633" lon="13.0694117"><ele>164.0</ele><time>2026-04-12T08:06:31.232Z</time></trkpt><trkpt lat="43.4618883" lon="13.0692667"><ele>164.0</ele><time>2026-04-12T08:06:32.231Z</time></trkpt><trkpt lat="43.4620133" lon="13.0691617"><ele>164.0</ele><time>2026-04-12T08:06:33.232Z</time></trkpt><trkpt lat="43.46215" lon="13.0690717"><ele>164.0</ele><time>2026-04-12T08:06:34.232Z</time></trkpt><trkpt lat="43.4622817" lon="13.069"><ele>164.0</ele><time>2026-04-12T08:06:35.232Z</time></trkpt><trkpt lat="43.4624167" lon="13.06896"><ele>162.5</ele><time>2026-04-12T08:06:36.232Z</time></trkpt><trkpt lat="43.462535" lon="13.0688833"><ele>161.0</ele><time>2026-04-12T08:06:37.232Z</time></trkpt><trkpt lat="43.462645" lon="13.0687533"><ele>159.5</ele><time>2026-04-12T08:06:38.232Z</time></trkpt><trkpt lat="43.462735" lon="13.0685833"><ele>158.0</ele><time>2026-04-12T08:06:39.231Z</time></trkpt><trkpt lat="43.4628283" lon="13.0683917"><ele>155.75</ele><time>2026-04-12T08:06:40.232Z</time></trkpt><trkpt lat="43.4629067" lon="13.0682067"><ele>153.5</ele><time>2026-04-12T08:06:41.232Z</time></trkpt><trkpt lat="43.4629833" lon="13.068035"><ele>151.25</ele><time>2026-04-12T08:06:42.232Z</time></trkpt><trkpt lat="43.4630683" lon="13.0678917"><ele>149.0</ele><time>2026-04-12T08:06:43.231Z</time></trkpt><trkpt lat="43.4631683" lon="13.0677883"><ele>149.0</ele><time>2026-04-12T08:06:44.232Z</time></trkpt><trkpt lat="43.4632567" lon="13.0677117"><ele>149.0</ele><time>2026-04-12T08:06:45.231Z</time></trkpt><trkpt lat="43.463335" lon="13.0676517"><ele>149.0</ele><time>2026-04-12T08:06:46.232Z</time></trkpt><trkpt lat="43.4634267" lon="13.0675967"><ele>149.0</ele><time>2026-04-12T08:06:47.232Z</time></trkpt><trkpt lat="43.4634883" lon="13.0675267"><ele>149.0</ele><time>2026-04-12T08:06:48.231Z</time></trkpt><trkpt lat="43.4635433" lon="13.0674333"><ele>148.2</ele><time>2026-04-12T08:06:49.232Z</time></trkpt><trkpt lat="43.463575" lon="13.06734"><ele>147.4</ele><time>2026-04-12T08:06:50.231Z</time></trkpt><trkpt lat="43.46359" lon="13.0672133"><ele>146.6</ele><time>2026-04-12T08:06:52.232Z</time></trkpt><trkpt lat="43.4636033" lon="13.0670967"><ele>145.8</ele><time>2026-04-12T08:06:54.231Z</time></trkpt><trkpt lat="43.4636533" lon="13.0669283"><ele>145.0</ele><time>2026-04-12T08:06:56.232Z</time></trkpt><trkpt lat="43.4636967" lon="13.0668017"><ele>145.0</ele><time>2026-04-12T08:06:57.231Z</time></trkpt><trkpt lat="43.463735" lon="13.0666567"><ele>145.0</ele><time>2026-04-12T08:06:58.232Z</time></trkpt><trkpt lat="43.4637683" lon="13.0664883"><ele>145.0</ele><time>2026-04-12T08:06:59.231Z</time></trkpt><trkpt lat="43.463785" lon="13.066285"><ele>145.0</ele><time>2026-04-12T08:07:00.232Z</time></trkpt><trkpt lat="43.4638117" lon="13.0660717"><ele>143.0</ele><time>2026-04-12T08:07:01.232Z</time></trkpt><trkpt lat="43.4638317" lon="13.0658583"><ele>141.0</ele><time>2026-04-12T08:07:02.232Z</time></trkpt><trkpt lat="43.4638567" lon="13.065635"><ele>139.0</ele><time>2026-04-12T08:07:03.231Z</time></trkpt><trkpt lat="43.46387" lon="13.065415"><ele>138.75</ele><time>2026-04-12T08:07:04.232Z</time></trkpt><trkpt lat="43.4639" lon="13.0652033"><ele>138.5</ele><time>2026-04-12T08:07:05.232Z</time></trkpt><trkpt lat="43.4639283" lon="13.0650017"><ele>138.25</ele><time>2026-04-12T08:07:06.231Z</time></trkpt><trkpt lat="43.4639617" lon="13.0648133"><ele>138.0</ele><time>2026-04-12T08:07:07.231Z</time></trkpt><trkpt lat="43.464025" lon="13.0646267"><ele>137.75</ele><time>2026-04-12T08:07:08.232Z</time></trkpt><trkpt lat="43.464115" lon="13.064475"><ele>137.5</ele><time>2026-04-12T08:07:09.232Z</time></trkpt><trkpt lat="43.464235" lon="13.064345"><ele>137.25</ele><time>2026-04-12T08:07:10.232Z</time></trkpt><trkpt lat="43.46437" lon="13.0642433"><ele>137.0</ele><time>2026-04-12T08:07:11.232Z</time></trkpt><trkpt lat="43.46451" lon="13.0641583"><ele>136.0</ele><time>2026-04-12T08:07:12.232Z</time></trkpt><trkpt lat="43.46466" lon="13.0640517"><ele>135.0</ele><time>2026-04-12T08:07:13.231Z</time></trkpt><trkpt lat="43.4648167" lon="13.0639583"><ele>134.0</ele><time>2026-04-12T08:07:14.232Z</time></trkpt><trkpt lat="43.464985" lon="13.0638767"><ele>134.0</ele><time>2026-04-12T08:07:15.231Z</time></trkpt><trkpt lat="43.46516" lon="13.0638"><ele>134.0</ele><time>2026-04-12T08:07:16.232Z</time></trkpt><trkpt lat="43.46534" lon="13.0637167"><ele>134.0</ele><time>2026-04-12T08:07:17.231Z</time></trkpt><trkpt lat="43.4655233" lon="13.063625"><ele>133.66666666666666</ele><time>2026-04-12T08:07:18.232Z</time></trkpt><trkpt lat="43.4657067" lon="13.0635267"><ele>133.33333333333334</ele><time>2026-04-12T08:07:19.232Z</time></trkpt><trkpt lat="43.4658883" lon="13.0634267"><ele>133.0</ele><time>2026-04-12T08:07:20.232Z</time></trkpt><trkpt lat="43.4660717" lon="13.06332"><ele>133.0</ele><time>2026-04-12T08:07:21.232Z</time></trkpt><trkpt lat="43.4662467" lon="13.0632167"><ele>133.0</ele><time>2026-04-12T08:07:22.232Z</time></trkpt><trkpt lat="43.466405" lon="13.0631183"><ele>133.0</ele><time>2026-04-12T08:07:23.232Z</time></trkpt><trkpt lat="43.4665517" lon="13.0630233"><ele>133.0</ele><time>2026-04-12T08:07:24.232Z</time></trkpt><trkpt lat="43.46668" lon="13.062935"><ele>133.0</ele><time>2026-04-12T08:07:25.232Z</time></trkpt><trkpt lat="43.4667933" lon="13.0628533"><ele>133.0</ele><time>2026-04-12T08:07:26.231Z</time></trkpt><trkpt lat="43.4669017" lon="13.0627767"><ele>133.0</ele><time>2026-04-12T08:07:27.231Z</time></trkpt><trkpt lat="43.4670083" lon="13.0627083"><ele>133.0</ele><time>2026-04-12T08:07:28.232Z</time></trkpt><trkpt lat="43.4670983" lon="13.062645"><ele>133.0</ele><time>2026-04-12T08:07:29.231Z</time></trkpt><trkpt lat="43.4671633" lon="13.0625833"><ele>133.0</ele><time>2026-04-12T08:07:30.232Z</time></trkpt><trkpt lat="43.4672283" lon="13.0625417"><ele>133.0</ele><time>2026-04-12T08:07:31.232Z</time></trkpt><trkpt lat="43.4673283" lon="13.0624683"><ele>133.0</ele><time>2026-04-12T08:07:33.231Z</time></trkpt><trkpt lat="43.4673983" lon="13.0624183"><ele>133.0</ele><time>2026-04-12T08:07:35.232Z</time></trkpt><trkpt lat="43.467465" lon="13.0623717"><ele>134.33333333333334</ele><time>2026-04-12T08:07:38.232Z</time></trkpt><trkpt lat="43.467525" lon="13.0623183"><ele>135.66666666666669</ele><time>2026-04-12T08:08:17.232Z</time></trkpt><trkpt lat="43.4675983" lon="13.0622567"><ele>137.0</ele><time>2026-04-12T08:08:19.231Z</time></trkpt><trkpt lat="43.4676767" lon="13.0622"><ele>138.33333333333334</ele><time>2026-04-12T08:08:21.232Z</time></trkpt><trkpt lat="43.46774" lon="13.06215"><ele>139.66666666666666</ele><time>2026-04-12T08:08:23.231Z</time></trkpt><trkpt lat="43.4677583" lon="13.062055"><ele>141.0</ele><time>2026-04-12T08:08:25.232Z</time></trkpt><trkpt lat="43.4677183" lon="13.0619167"><ele>141.0</ele><time>2026-04-12T08:08:27.232Z</time></trkpt><trkpt lat="43.4676683" lon="13.061835"><ele>141.0</ele><time>2026-04-12T08:08:28.232Z</time></trkpt><trkpt lat="43.46762" lon="13.0617383"><ele>141.0</ele><time>2026-04-12T08:08:29.232Z</time></trkpt><trkpt lat="43.467565" lon="13.061635"><ele>141.0</ele><time>2026-04-12T08:08:30.231Z</time></trkpt><trkpt lat="43.46751" lon="13.061515"><ele>141.0</ele><time>2026-04-12T08:08:31.232Z</time></trkpt><trkpt lat="43.46745" lon="13.0613917"><ele>142.6</ele><time>2026-04-12T08:08:32.232Z</time></trkpt><trkpt lat="43.4673983" lon="13.061245"><ele>144.2</ele><time>2026-04-12T08:08:33.232Z</time></trkpt><trkpt lat="43.4673433" lon="13.0611267"><ele>145.8</ele><time>2026-04-12T08:08:34.232Z</time></trkpt><trkpt lat="43.4672917" lon="13.0610117"><ele>147.4</ele><time>2026-04-12T08:08:35.232Z</time></trkpt><trkpt lat="43.4672383" lon="13.0608983"><ele>149.0</ele><time>2026-04-12T08:08:36.231Z</time></trkpt><trkpt lat="43.467175" lon="13.060785"><ele>149.8</ele><time>2026-04-12T08:08:37.232Z</time></trkpt><trkpt lat="43.46712" lon="13.0606633"><ele>150.60000000000002</ele><time>2026-04-12T08:08:38.232Z</time></trkpt><trkpt lat="43.4670683" lon="13.06054"><ele>151.4</ele><time>2026-04-12T08:08:39.232Z</time></trkpt><trkpt lat="43.46701" lon="13.0604183"><ele>152.20000000000002</ele><time>2026-04-12T08:08:40.232Z</time></trkpt><trkpt lat="43.4669533" lon="13.0602933"><ele>153.0</ele><time>2026-04-12T08:08:41.232Z</time></trkpt><trkpt lat="43.4669" lon="13.0601667"><ele>152.20000000000002</ele><time>2026-04-12T08:08:42.232Z</time></trkpt><trkpt lat="43.4668517" lon="13.0600333"><ele>151.4</ele><time>2026-04-12T08:08:43.232Z</time></trkpt><trkpt lat="43.4667967" lon="13.059905"><ele>150.60000000000002</ele><time>2026-04-12T08:08:44.232Z</time></trkpt><trkpt lat="43.4667367" lon="13.0597667"><ele>149.8</ele><time>2026-04-12T08:08:45.232Z</time></trkpt><trkpt lat="43.4666833" lon="13.059625"><ele>149.0</ele><time>2026-04-12T08:08:46.232Z</time></trkpt><trkpt lat="43.4666283" lon="13.05948"><ele>149.0</ele><time>2026-04-12T08:08:47.232Z</time></trkpt><trkpt lat="43.4665667" lon="13.05933"><ele>149.0</ele><time>2026-04-12T08:08:48.231Z</time></trkpt><trkpt lat="43.4665133" lon="13.0592"><ele>149.0</ele><time>2026-04-12T08:08:49.232Z</time></trkpt><trkpt lat="43.466445" lon="13.05908"><ele>149.0</ele><time>2026-04-12T08:08:50.231Z</time></trkpt><trkpt lat="43.466385" lon="13.0589667"><ele>149.0</ele><time>2026-04-12T08:08:51.232Z</time></trkpt><trkpt lat="43.466335" lon="13.058865"><ele>149.5</ele><time>2026-04-12T08:08:52.232Z</time></trkpt><trkpt lat="43.46629" lon="13.0587867"><ele>150.0</ele><time>2026-04-12T08:08:53.232Z</time></trkpt><trkpt lat="43.46628" lon="13.0586483"><ele>150.5</ele><time>2026-04-12T08:08:55.232Z</time></trkpt><trkpt lat="43.46636" lon="13.0585517"><ele>151.0</ele><time>2026-04-12T08:08:57.231Z</time></trkpt><trkpt lat="43.4663933" lon="13.0584567"><ele>151.5</ele><time>2026-04-12T08:08:59.231Z</time></trkpt><trkpt lat="43.4663183" lon="13.05843"><ele>152.0</ele><time>2026-04-12T08:09:02.232Z</time></trkpt><trkpt lat="43.4662517" lon="13.0584883"><ele>152.0</ele><time>2026-04-12T08:09:05.232Z</time></trkpt><trkpt lat="43.4662267" lon="13.058575"><ele>152.0</ele><time>2026-04-12T08:09:08.231Z</time></trkpt><trkpt lat="43.46625" lon="13.0586933"><ele>152.0</ele><time>2026-04-12T08:09:10.231Z</time></trkpt><trkpt lat="43.466295" lon="13.0588033"><ele>152.0</ele><time>2026-04-12T08:09:11.232Z</time></trkpt><trkpt lat="43.4663467" lon="13.0589317"><ele>152.0</ele><time>2026-04-12T08:09:12.231Z</time></trkpt><trkpt lat="43.4664133" lon="13.059065"><ele>151.25</ele><time>2026-04-12T08:09:13.232Z</time></trkpt><trkpt lat="43.46648" lon="13.0592217"><ele>150.5</ele><time>2026-04-12T08:09:14.232Z</time></trkpt><trkpt lat="43.466545" lon="13.0593817"><ele>149.75</ele><time>2026-04-12T08:09:15.232Z</time></trkpt><trkpt lat="43.4666183" lon="13.0595683"><ele>149.0</ele><time>2026-04-12T08:09:16.232Z</time></trkpt><trkpt lat="43.4666883" lon="13.059745"><ele>149.0</ele><time>2026-04-12T08:09:17.232Z</time></trkpt><trkpt lat="43.4667633" lon="13.059925"><ele>149.0</ele><time>2026-04-12T08:09:18.232Z</time></trkpt><trkpt lat="43.4668533" lon="13.0601183"><ele>149.0</ele><time>2026-04-12T08:09:19.231Z</time></trkpt><trkpt lat="43.466935" lon="13.0602933"><ele>149.0</ele><time>2026-04-12T08:09:20.232Z</time></trkpt><trkpt lat="43.4670133" lon="13.0604617"><ele>149.0</ele><time>2026-04-12T08:09:21.231Z</time></trkpt><trkpt lat="43.4670883" lon="13.0606267"><ele>149.0</ele><time>2026-04-12T08:09:22.232Z</time></trkpt><trkpt lat="43.4671567" lon="13.0607867"><ele>149.0</ele><time>2026-04-12T08:09:23.232Z</time></trkpt><trkpt lat="43.46723" lon="13.060945"><ele>149.0</ele><time>2026-04-12T08:09:24.232Z</time></trkpt><trkpt lat="43.4672983" lon="13.06109"><ele>149.0</ele><time>2026-04-12T08:09:25.232Z</time></trkpt><trkpt lat="43.4673633" lon="13.0612283"><ele>149.0</ele><time>2026-04-12T08:09:26.232Z</time></trkpt><trkpt lat="43.4674183" lon="13.06137"><ele>149.0</ele><time>2026-04-12T08:09:27.231Z</time></trkpt><trkpt lat="43.46747" lon="13.0615"><ele>149.0</ele><time>2026-04-12T08:09:28.232Z</time></trkpt><trkpt lat="43.4675167" lon="13.0616067"><ele>149.0</ele><time>2026-04-12T08:09:29.232Z</time></trkpt><trkpt lat="43.46756" lon="13.06169"><ele>149.0</ele><time>2026-04-12T08:09:30.232Z</time></trkpt><trkpt lat="43.467625" lon="13.0618133"><ele>149.0</ele><time>2026-04-12T08:09:32.232Z</time></trkpt><trkpt lat="43.4676633" lon="13.0619067"><ele>149.0</ele><time>2026-04-12T08:09:35.232Z</time></trkpt><trkpt lat="43.4676883" lon="13.061995"><ele>149.0</ele><time>2026-04-12T08:10:17.232Z</time></trkpt><trkpt lat="43.467815" lon="13.062025"><ele>149.2</ele><time>2026-04-12T08:10:19.231Z</time></trkpt><trkpt lat="43.46788" lon="13.061985"><ele>149.4</ele><time>2026-04-12T08:10:20.232Z</time></trkpt><trkpt lat="43.4679383" lon="13.0619117"><ele>149.6</ele><time>2026-04-12T08:10:21.232Z</time></trkpt><trkpt lat="43.467995" lon="13.0618183"><ele>149.8</ele><time>2026-04-12T08:10:22.232Z</time></trkpt><trkpt lat="43.468055" lon="13.0617083"><ele>150.0</ele><time>2026-04-12T08:10:23.232Z</time></trkpt><trkpt lat="43.4681067" lon="13.0615683"><ele>150.0</ele><time>2026-04-12T08:10:24.231Z</time></trkpt><trkpt lat="43.46816" lon="13.06143"><ele>150.0</ele><time>2026-04-12T08:10:25.231Z</time></trkpt><trkpt lat="43.4682167" lon="13.0612833"><ele>150.0</ele><time>2026-04-12T08:10:26.232Z</time></trkpt><trkpt lat="43.4682767" lon="13.061125"><ele>150.0</ele><time>2026-04-12T08:10:27.231Z</time></trkpt><trkpt lat="43.468335" lon="13.0609633"><ele>150.0</ele><time>2026-04-12T08:10:28.231Z</time></trkpt><trkpt lat="43.4683967" lon="13.060815"><ele>150.0</ele><time>2026-04-12T08:10:29.232Z</time></trkpt><trkpt lat="43.4684533" lon="13.0606567"><ele>150.0</ele><time>2026-04-12T08:10:30.231Z</time></trkpt><trkpt lat="43.4685133" lon="13.0604983"><ele>150.0</ele><time>2026-04-12T08:10:31.232Z</time></trkpt><trkpt lat="43.4685883" lon="13.0603367"><ele>151.25</ele><time>2026-04-12T08:10:32.232Z</time></trkpt><trkpt lat="43.4686417" lon="13.06016"><ele>152.5</ele><time>2026-04-12T08:10:33.231Z</time></trkpt><trkpt lat="43.4686917" lon="13.059965"><ele>153.75</ele><time>2026-04-12T08:10:34.232Z</time></trkpt><trkpt lat="43.4687133" lon="13.0597483"><ele>155.0</ele><time>2026-04-12T08:10:35.232Z</time></trkpt><trkpt lat="43.468705" lon="13.0595117"><ele>155.33333333333331</ele><time>2026-04-12T08:10:36.232Z</time></trkpt><trkpt lat="43.4686517" lon="13.0592633"><ele>155.66666666666666</ele><time>2026-04-12T08:10:37.232Z</time></trkpt><trkpt lat="43.4685833" lon="13.05903"><ele>156.0</ele><time>2026-04-12T08:10:38.232Z</time></trkpt><trkpt lat="43.4684917" lon="13.0588017"><ele>157.66666666666666</ele><time>2026-04-12T08:10:39.231Z</time></trkpt><trkpt lat="43.4683833" lon="13.058595"><ele>159.33333333333331</ele><time>2026-04-12T08:10:40.232Z</time></trkpt><trkpt lat="43.4682533" lon="13.0584117"><ele>161.0</ele><time>2026-04-12T08:10:41.232Z</time></trkpt><trkpt lat="43.4680917" lon="13.058235"><ele>164.0</ele><time>2026-04-12T08:10:42.232Z</time></trkpt><trkpt lat="43.4679283" lon="13.05805"><ele>167.0</ele><time>2026-04-12T08:10:43.232Z</time></trkpt><trkpt lat="43.4677633" lon="13.0578567"><ele>170.0</ele><time>2026-04-12T08:10:44.231Z</time></trkpt><trkpt lat="43.4676083" lon="13.0576383"><ele>176.66666666666666</ele><time>2026-04-12T08:10:45.231Z</time></trkpt><trkpt lat="43.4674567" lon="13.057415"><ele>183.33333333333334</ele><time>2026-04-12T08:10:46.231Z</time></trkpt><trkpt lat="43.4673083" lon="13.0572017"><ele>190.0</ele><time>2026-04-12T08:10:47.232Z</time></trkpt><trkpt lat="43.4671517" lon="13.0570067"><ele>189.66666666666669</ele><time>2026-04-12T08:10:48.232Z</time></trkpt><trkpt lat="43.4670017" lon="13.056835"><ele>189.33333333333334</ele><time>2026-04-12T08:10:49.231Z</time></trkpt><trkpt lat="43.4668433" lon="13.05669"><ele>189.0</ele><time>2026-04-12T08:10:50.232Z</time></trkpt><trkpt lat="43.4666983" lon="13.05655"><ele>189.0</ele><time>2026-04-12T08:10:51.232Z</time></trkpt><trkpt lat="43.46657" lon="13.0564283"><ele>189.0</ele><time>2026-04-12T08:10:52.232Z</time></trkpt><trkpt lat="43.46645" lon="13.0563117"><ele>189.0</ele><time>2026-04-12T08:10:53.232Z</time></trkpt><trkpt lat="43.4663483" lon="13.056195"><ele>189.0</ele><time>2026-04-12T08:10:54.232Z</time></trkpt><trkpt lat="43.4662583" lon="13.05605"><ele>185.25</ele><time>2026-04-12T08:10:55.232Z</time></trkpt><trkpt lat="43.4661967" lon="13.0559017"><ele>181.5</ele><time>2026-04-12T08:10:56.231Z</time></trkpt><trkpt lat="43.4661617" lon="13.0557217"><ele>177.75</ele><time>2026-04-12T08:10:57.231Z</time></trkpt><trkpt lat="43.4661533" lon="13.055535"><ele>174.0</ele><time>2026-04-12T08:10:58.231Z</time></trkpt><trkpt lat="43.4661417" lon="13.0553433"><ele>174.0</ele><time>2026-04-12T08:10:59.232Z</time></trkpt><trkpt lat="43.4661233" lon="13.0551533"><ele>174.0</ele><time>2026-04-12T08:11:00.231Z</time></trkpt><trkpt lat="43.466095" lon="13.0549833"><ele>174.0</ele><time>2026-04-12T08:11:01.231Z</time></trkpt><trkpt lat="43.4660767" lon="13.0548383"><ele>174.0</ele><time>2026-04-12T08:11:02.232Z</time></trkpt><trkpt lat="43.4660783" lon="13.054715"><ele>175.66666666666666</ele><time>2026-04-12T08:11:03.232Z</time></trkpt><trkpt lat="43.4660967" lon="13.05461"><ele>177.33333333333334</ele><time>2026-04-12T08:11:04.232Z</time></trkpt><trkpt lat="43.4661833" lon="13.0546067"><ele>179.0</ele><time>2026-04-12T08:11:05.232Z</time></trkpt><trkpt lat="43.4662383" lon="13.0546583"><ele>180.66666666666669</ele><time>2026-04-12T08:11:06.232Z</time></trkpt><trkpt lat="43.46629" lon="13.054745"><ele>182.33333333333334</ele><time>2026-04-12T08:11:07.232Z</time></trkpt><trkpt lat="43.466335" lon="13.0548767"><ele>184.0</ele><time>2026-04-12T08:11:08.231Z</time></trkpt><trkpt lat="43.4663917" lon="13.055025"><ele>188.25</ele><time>2026-04-12T08:11:09.232Z</time></trkpt><trkpt lat="43.46645" lon="13.0551767"><ele>192.5</ele><time>2026-04-12T08:11:10.231Z</time></trkpt><trkpt lat="43.4665283" lon="13.0553467"><ele>196.75</ele><time>2026-04-12T08:11:11.232Z</time></trkpt><trkpt lat="43.4666133" lon="13.0555283"><ele>201.0</ele><time>2026-04-12T08:11:12.232Z</time></trkpt><trkpt lat="43.4667" lon="13.055705"><ele>197.0</ele><time>2026-04-12T08:11:13.231Z</time></trkpt><trkpt lat="43.4668133" lon="13.0558633"><ele>193.0</ele><time>2026-04-12T08:11:14.231Z</time></trkpt><trkpt lat="43.4669333" lon="13.0560067"><ele>189.0</ele><time>2026-04-12T08:11:15.232Z</time></trkpt><trkpt lat="43.46706" lon="13.056125"><ele>193.75</ele><time>2026-04-12T08:11:16.232Z</time></trkpt><trkpt lat="43.4671967" lon="13.0562217"><ele>198.5</ele><time>2026-04-12T08:11:17.232Z</time></trkpt><trkpt lat="43.4673317" lon="13.0562917"><ele>203.25</ele><time>2026-04-12T08:11:18.232Z</time></trkpt><trkpt lat="43.4674717" lon="13.0563"><ele>208.0</ele><time>2026-04-12T08:11:19.232Z</time></trkpt><trkpt lat="43.4675983" lon="13.05627"><ele>208.0</ele><time>2026-04-12T08:11:20.232Z</time></trkpt><trkpt lat="43.467715" lon="13.05623"><ele>208.0</ele><time>2026-04-12T08:11:21.231Z</time></trkpt><trkpt lat="43.467815" lon="13.0561683"><ele>208.0</ele><time>2026-04-12T08:11:22.232Z</time></trkpt><trkpt lat="43.4679" lon="13.0560833"><ele>208.0</ele><time>2026-04-12T08:11:23.232Z</time></trkpt><trkpt lat="43.4679683" lon="13.0559683"><ele>208.0</ele><time>2026-04-12T08:11:24.231Z</time></trkpt><trkpt lat="43.4680317" lon="13.055825"><ele>212.5</ele><time>2026-04-12T08:11:25.231Z</time></trkpt><trkpt lat="43.4680917" lon="13.0556517"><ele>217.0</ele><time>2026-04-12T08:11:26.231Z</time></trkpt><trkpt lat="43.46817" lon="13.0555533"><ele>221.5</ele><time>2026-04-12T08:11:27.232Z</time></trkpt><trkpt lat="43.4682633" lon="13.05551"><ele>226.0</ele><time>2026-04-12T08:11:28.232Z</time></trkpt><trkpt lat="43.4683733" lon="13.05551"><ele>226.0</ele><time>2026-04-12T08:11:29.232Z</time></trkpt><trkpt lat="43.4685017" lon="13.0555217"><ele>226.0</ele><time>2026-04-12T08:11:30.232Z</time></trkpt><trkpt lat="43.4686417" lon="13.0555083"><ele>226.0</ele><time>2026-04-12T08:11:31.232Z</time></trkpt><trkpt lat="43.4687783" lon="13.0554917"><ele>226.0</ele><time>2026-04-12T08:11:32.231Z</time></trkpt><trkpt lat="43.468915" lon="13.055435"><ele>224.5</ele><time>2026-04-12T08:11:33.232Z</time></trkpt><trkpt lat="43.46905" lon="13.055375"><ele>223.0</ele><time>2026-04-12T08:11:34.232Z</time></trkpt><trkpt lat="43.469165" lon="13.05527"><ele>221.5</ele><time>2026-04-12T08:11:35.232Z</time></trkpt><trkpt lat="43.469265" lon="13.05514"><ele>220.0</ele><time>2026-04-12T08:11:36.232Z</time></trkpt><trkpt lat="43.4693467" lon="13.0549833"><ele>224.33333333333331</ele><time>2026-04-12T08:11:37.231Z</time></trkpt><trkpt lat="43.4693583" lon="13.05477"><ele>228.66666666666669</ele><time>2026-04-12T08:11:38.232Z</time></trkpt><trkpt lat="43.46935" lon="13.05453"><ele>233.0</ele><time>2026-04-12T08:11:39.232Z</time></trkpt><trkpt lat="43.4693817" lon="13.05432"><ele>233.0</ele><time>2026-04-12T08:11:40.232Z</time></trkpt><trkpt lat="43.4694517" lon="13.05413"><ele>233.0</ele><time>2026-04-12T08:11:41.232Z</time></trkpt><trkpt lat="43.4695267" lon="13.0539583"><ele>233.0</ele><time>2026-04-12T08:11:42.232Z</time></trkpt><trkpt lat="43.46962" lon="13.0537833"><ele>234.25</ele><time>2026-04-12T08:11:43.231Z</time></trkpt><trkpt lat="43.4697183" lon="13.0536183"><ele>235.5</ele><time>2026-04-12T08:11:44.232Z</time></trkpt><trkpt lat="43.4698117" lon="13.0534733"><ele>236.75</ele><time>2026-04-12T08:11:45.232Z</time></trkpt><trkpt lat="43.469895" lon="13.0533433"><ele>238.0</ele><time>2026-04-12T08:11:46.232Z</time></trkpt><trkpt lat="43.4699617" lon="13.05324"><ele>237.99999999999997</ele><time>2026-04-12T08:11:47.232Z</time></trkpt><trkpt lat="43.47" lon="13.05314"><ele>238.0</ele><time>2026-04-12T08:11:48.232Z</time></trkpt><trkpt lat="43.469995" lon="13.0530283"><ele>238.0</ele><time>2026-04-12T08:11:49.232Z</time></trkpt><trkpt lat="43.469965" lon="13.0529333"><ele>238.0</ele><time>2026-04-12T08:11:50.232Z</time></trkpt><trkpt lat="43.4698633" lon="13.0528933"><ele>237.99999999999997</ele><time>2026-04-12T08:11:51.232Z</time></trkpt><trkpt lat="43.4697733" lon="13.05291"><ele>238.0</ele><time>2026-04-12T08:11:52.231Z</time></trkpt><trkpt lat="43.469705" lon="13.0530117"><ele>238.0</ele><time>2026-04-12T08:11:53.232Z</time></trkpt><trkpt lat="43.4696533" lon="13.0531433"><ele>238.0</ele><time>2026-04-12T08:11:54.232Z</time></trkpt><trkpt lat="43.4695933" lon="13.0533017"><ele>238.0</ele><time>2026-04-12T08:11:55.231Z</time></trkpt><trkpt lat="43.4695267" lon="13.053445"><ele>238.0</ele><time>2026-04-12T08:11:56.232Z</time></trkpt><trkpt lat="43.4694517" lon="13.0535717"><ele>238.75</ele><time>2026-04-12T08:11:57.232Z</time></trkpt><trkpt lat="43.4693617" lon="13.0536667"><ele>239.5</ele><time>2026-04-12T08:11:58.232Z</time></trkpt><trkpt lat="43.46924" lon="13.0537283"><ele>240.25</ele><time>2026-04-12T08:11:59.232Z</time></trkpt><trkpt lat="43.4691017" lon="13.05375"><ele>241.0</ele><time>2026-04-12T08:12:00.232Z</time></trkpt><trkpt lat="43.4689467" lon="13.0537617"><ele>241.0</ele><time>2026-04-12T08:12:01.232Z</time></trkpt><trkpt lat="43.4687883" lon="13.0537617"><ele>241.0</ele><time>2026-04-12T08:12:02.232Z</time></trkpt><trkpt lat="43.4686267" lon="13.0537783"><ele>241.0</ele><time>2026-04-12T08:12:03.232Z</time></trkpt><trkpt lat="43.4684517" lon="13.0537967"><ele>244.33333333333331</ele><time>2026-04-12T08:12:04.232Z</time></trkpt><trkpt lat="43.4682833" lon="13.053815"><ele>247.66666666666669</ele><time>2026-04-12T08:12:05.232Z</time></trkpt><trkpt lat="43.4681233" lon="13.0538333"><ele>251.0</ele><time>2026-04-12T08:12:06.232Z</time></trkpt><trkpt lat="43.4679767" lon="13.0538567"><ele>251.25</ele><time>2026-04-12T08:12:07.232Z</time></trkpt><trkpt lat="43.4678383" lon="13.05387"><ele>251.5</ele><time>2026-04-12T08:12:08.232Z</time></trkpt><trkpt lat="43.467715" lon="13.05386"><ele>251.75</ele><time>2026-04-12T08:12:09.231Z</time></trkpt><trkpt lat="43.4676117" lon="13.0538117"><ele>252.0</ele><time>2026-04-12T08:12:10.231Z</time></trkpt><trkpt lat="43.4675383" lon="13.053685"><ele>252.0</ele><time>2026-04-12T08:12:11.232Z</time></trkpt><trkpt lat="43.467495" lon="13.0535333"><ele>252.0</ele><time>2026-04-12T08:12:12.232Z</time></trkpt><trkpt lat="43.4674683" lon="13.0533567"><ele>252.0</ele><time>2026-04-12T08:12:13.232Z</time></trkpt><trkpt lat="43.4674333" lon="13.0531817"><ele>252.0</ele><time>2026-04-12T08:12:14.232Z</time></trkpt><trkpt lat="43.4674017" lon="13.0530267"><ele>254.33333333333334</ele><time>2026-04-12T08:12:15.232Z</time></trkpt><trkpt lat="43.4673833" lon="13.0528783"><ele>256.6666666666667</ele><time>2026-04-12T08:12:16.231Z</time></trkpt><trkpt lat="43.46739" lon="13.0527633"><ele>259.0</ele><time>2026-04-12T08:12:17.232Z</time></trkpt><trkpt lat="43.4674467" lon="13.0527133"><ele>261.33333333333337</ele><time>2026-04-12T08:12:18.231Z</time></trkpt><trkpt lat="43.4675133" lon="13.0527367"><ele>263.6666666666667</ele><time>2026-04-12T08:12:19.232Z</time></trkpt><trkpt lat="43.467575" lon="13.0528033"><ele>266.0</ele><time>2026-04-12T08:12:20.232Z</time></trkpt><trkpt lat="43.467605" lon="13.0529333"><ele>266.0</ele><time>2026-04-12T08:12:21.232Z</time></trkpt><trkpt lat="43.467635" lon="13.0530633"><ele>266.0</ele><time>2026-04-12T08:12:22.231Z</time></trkpt><trkpt lat="43.467685" lon="13.0531617"><ele>266.0</ele><time>2026-04-12T08:12:23.232Z</time></trkpt><trkpt lat="43.4677417" lon="13.0532267"><ele>266.0</ele><time>2026-04-12T08:12:24.231Z</time></trkpt><trkpt lat="43.4678283" lon="13.053175"><ele>266.0</ele><time>2026-04-12T08:12:25.232Z</time></trkpt><trkpt lat="43.4679117" lon="13.0530533"><ele>266.0</ele><time>2026-04-12T08:12:26.231Z</time></trkpt><trkpt lat="43.46796" lon="13.0528933"><ele>266.0</ele><time>2026-04-12T08:12:27.232Z</time></trkpt><trkpt lat="43.46796" lon="13.0527183"><ele>266.0</ele><time>2026-04-12T08:12:28.231Z</time></trkpt><trkpt lat="43.4679417" lon="13.0525283"><ele>266.0</ele><time>2026-04-12T08:12:29.231Z</time></trkpt><trkpt lat="43.4679317" lon="13.0523367"><ele>266.75</ele><time>2026-04-12T08:12:30.231Z</time></trkpt><trkpt lat="43.4679517" lon="13.05216"><ele>267.5</ele><time>2026-04-12T08:12:31.232Z</time></trkpt><trkpt lat="43.4680017" lon="13.0519817"><ele>268.25</ele><time>2026-04-12T08:12:32.232Z</time></trkpt><trkpt lat="43.468085" lon="13.0517833"><ele>269.0</ele><time>2026-04-12T08:12:33.232Z</time></trkpt><trkpt lat="43.4681667" lon="13.0515717"><ele>273.0</ele><time>2026-04-12T08:12:34.232Z</time></trkpt><trkpt lat="43.4682533" lon="13.0513483"><ele>277.0</ele><time>2026-04-12T08:12:35.232Z</time></trkpt><trkpt lat="43.4683483" lon="13.051115"><ele>281.0</ele><time>2026-04-12T08:12:36.232Z</time></trkpt><trkpt lat="43.46844" lon="13.05087"><ele>285.33333333333337</ele><time>2026-04-12T08:12:37.231Z</time></trkpt><trkpt lat="43.4685317" lon="13.050635"><ele>289.6666666666667</ele><time>2026-04-12T08:12:38.232Z</time></trkpt><trkpt lat="43.4686133" lon="13.05041"><ele>294.0</ele><time>2026-04-12T08:12:39.232Z</time></trkpt><trkpt lat="43.468685" lon="13.05021"><ele>294.0</ele><time>2026-04-12T08:12:40.232Z</time></trkpt><trkpt lat="43.468775" lon="13.0500383"><ele>294.0</ele><time>2026-04-12T08:12:41.232Z</time></trkpt><trkpt lat="43.4688867" lon="13.04989"><ele>294.0</ele><time>2026-04-12T08:12:42.231Z</time></trkpt><trkpt lat="43.4689983" lon="13.0497667"><ele>293.75</ele><time>2026-04-12T08:12:43.231Z</time></trkpt><trkpt lat="43.4690867" lon="13.04963"><ele>293.5</ele><time>2026-04-12T08:12:44.232Z</time></trkpt><trkpt lat="43.4691533" lon="13.0494617"><ele>293.25</ele><time>2026-04-12T08:12:45.232Z</time></trkpt><trkpt lat="43.4692033" lon="13.0492717"><ele>293.0</ele><time>2026-04-12T08:12:46.232Z</time></trkpt><trkpt lat="43.4692583" lon="13.0490717"><ele>293.0</ele><time>2026-04-12T08:12:47.232Z</time></trkpt><trkpt lat="43.46931" lon="13.04885"><ele>293.0</ele><time>2026-04-12T08:12:48.232Z</time></trkpt><trkpt lat="43.4693533" lon="13.0486267"><ele>293.0</ele><time>2026-04-12T08:12:49.231Z</time></trkpt><trkpt lat="43.46938" lon="13.0483917"><ele>294.33333333333337</ele><time>2026-04-12T08:12:50.231Z</time></trkpt><trkpt lat="43.4694" lon="13.0481683"><ele>295.6666666666667</ele><time>2026-04-12T08:12:51.232Z</time></trkpt><trkpt lat="43.469405" lon="13.047955"><ele>297.0</ele><time>2026-04-12T08:12:52.231Z</time></trkpt><trkpt lat="43.469405" lon="13.047755"><ele>297.0</ele><time>2026-04-12T08:12:53.232Z</time></trkpt><trkpt lat="43.4693667" lon="13.0475617"><ele>297.0</ele><time>2026-04-12T08:12:54.232Z</time></trkpt><trkpt lat="43.4692967" lon="13.047375"><ele>297.0</ele><time>2026-04-12T08:12:55.232Z</time></trkpt><trkpt lat="43.4692017" lon="13.0471983"><ele>297.6666666666667</ele><time>2026-04-12T08:12:56.231Z</time></trkpt><trkpt lat="43.4690967" lon="13.04704"><ele>298.33333333333337</ele><time>2026-04-12T08:12:57.231Z</time></trkpt><trkpt lat="43.4689983" lon="13.0468783"><ele>299.0</ele><time>2026-04-12T08:12:58.231Z</time></trkpt><trkpt lat="43.4689183" lon="13.0467183"><ele>299.5</ele><time>2026-04-12T08:12:59.232Z</time></trkpt><trkpt lat="43.46886" lon="13.046555"><ele>300.0</ele><time>2026-04-12T08:13:00.232Z</time></trkpt><trkpt lat="43.46883" lon="13.0463783"><ele>300.5</ele><time>2026-04-12T08:13:01.231Z</time></trkpt><trkpt lat="43.468825" lon="13.0461867"><ele>301.0</ele><time>2026-04-12T08:13:02.232Z</time></trkpt><trkpt lat="43.4688467" lon="13.04599"><ele>301.0</ele><time>2026-04-12T08:13:03.232Z</time></trkpt><trkpt lat="43.4688983" lon="13.0458033"><ele>301.0</ele><time>2026-04-12T08:13:04.231Z</time></trkpt><trkpt lat="43.4690083" lon="13.045655"><ele>301.0</ele><time>2026-04-12T08:13:05.232Z</time></trkpt><trkpt lat="43.4691433" lon="13.0455433"><ele>302.66666666666663</ele><time>2026-04-12T08:13:06.232Z</time></trkpt><trkpt lat="43.4692917" lon="13.04546"><ele>304.3333333333333</ele><time>2026-04-12T08:13:07.232Z</time></trkpt><trkpt lat="43.4694433" lon="13.0453767"><ele>306.0</ele><time>2026-04-12T08:13:08.232Z</time></trkpt><trkpt lat="43.4696067" lon="13.045285"><ele>304.6666666666667</ele><time>2026-04-12T08:13:09.232Z</time></trkpt><trkpt lat="43.4697617" lon="13.045195"><ele>303.33333333333337</ele><time>2026-04-12T08:13:10.231Z</time></trkpt><trkpt lat="43.4699133" lon="13.0450983"><ele>302.0</ele><time>2026-04-12T08:13:11.232Z</time></trkpt><trkpt lat="43.4700617" lon="13.04501"><ele>302.5</ele><time>2026-04-12T08:13:12.231Z</time></trkpt><trkpt lat="43.4701883" lon="13.0449233"><ele>303.0</ele><time>2026-04-12T08:13:13.232Z</time></trkpt><trkpt lat="43.4703067" lon="13.0448367"><ele>303.5</ele><time>2026-04-12T08:13:14.231Z</time></trkpt><trkpt lat="43.47041" lon="13.04472"><ele>304.0</ele><time>2026-04-12T08:13:15.232Z</time></trkpt><trkpt lat="43.4704783" lon="13.0445817"><ele>304.0</ele><time>2026-04-12T08:13:16.232Z</time></trkpt><trkpt lat="43.4705133" lon="13.044405"><ele>304.0</ele><time>2026-04-12T08:13:17.231Z</time></trkpt><trkpt lat="43.470525" lon="13.044205"><ele>304.0</ele><time>2026-04-12T08:13:18.231Z</time></trkpt><trkpt lat="43.4705283" lon="13.0439867"><ele>304.0</ele><time>2026-04-12T08:13:19.232Z</time></trkpt><trkpt lat="43.4705317" lon="13.0437517"><ele>304.3333333333333</ele><time>2026-04-12T08:13:20.232Z</time></trkpt><trkpt lat="43.470535" lon="13.043505"><ele>304.6666666666667</ele><time>2026-04-12T08:13:21.232Z</time></trkpt><trkpt lat="43.4705367" lon="13.0432467"><ele>305.0</ele><time>2026-04-12T08:13:22.232Z</time></trkpt><trkpt lat="43.47054" lon="13.0429917"><ele>306.33333333333337</ele><time>2026-04-12T08:13:23.231Z</time></trkpt><trkpt lat="43.4705483" lon="13.0427483"><ele>307.6666666666667</ele><time>2026-04-12T08:13:24.231Z</time></trkpt><trkpt lat="43.4705517" lon="13.0425"><ele>309.0</ele><time>2026-04-12T08:13:25.232Z</time></trkpt><trkpt lat="43.470555" lon="13.042265"><ele>311.0</ele><time>2026-04-12T08:13:26.232Z</time></trkpt><trkpt lat="43.4705783" lon="13.0420483"><ele>313.0</ele><time>2026-04-12T08:13:27.232Z</time></trkpt><trkpt lat="43.4706183" lon="13.0418883"><ele>315.0</ele><time>2026-04-12T08:13:28.232Z</time></trkpt><trkpt lat="43.470685" lon="13.04172"><ele>317.0</ele><time>2026-04-12T08:13:29.232Z</time></trkpt><trkpt lat="43.4707717" lon="13.0415667"><ele>319.75</ele><time>2026-04-12T08:13:30.232Z</time></trkpt><trkpt lat="43.4708817" lon="13.04144"><ele>322.5</ele><time>2026-04-12T08:13:31.232Z</time></trkpt><trkpt lat="43.4709983" lon="13.0413"><ele>325.25</ele><time>2026-04-12T08:13:32.232Z</time></trkpt><trkpt lat="43.471105" lon="13.0411533"><ele>328.0</ele><time>2026-04-12T08:13:33.232Z</time></trkpt><trkpt lat="43.4712" lon="13.040995"><ele>328.0</ele><time>2026-04-12T08:13:34.232Z</time></trkpt><trkpt lat="43.47127" lon="13.0408317"><ele>328.0</ele><time>2026-04-12T08:13:35.231Z</time></trkpt><trkpt lat="43.4713217" lon="13.0406283"><ele>328.0</ele><time>2026-04-12T08:13:36.232Z</time></trkpt><trkpt lat="43.4713517" lon="13.040415"><ele>329.0</ele><time>2026-04-12T08:13:37.232Z</time></trkpt><trkpt lat="43.4713817" lon="13.0402067"><ele>330.0</ele><time>2026-04-12T08:13:38.232Z</time></trkpt><trkpt lat="43.4714233" lon="13.040015"><ele>331.0</ele><time>2026-04-12T08:13:39.232Z</time></trkpt><trkpt lat="43.4714633" lon="13.039835"><ele>332.0</ele><time>2026-04-12T08:13:40.231Z</time></trkpt><trkpt lat="43.4715067" lon="13.0396667"><ele>333.0</ele><time>2026-04-12T08:13:41.232Z</time></trkpt><trkpt lat="43.471535" lon="13.0395083"><ele>334.0</ele><time>2026-04-12T08:13:42.232Z</time></trkpt><trkpt lat="43.4715367" lon="13.039355"><ele>335.0</ele><time>2026-04-12T08:13:43.232Z</time></trkpt><trkpt lat="43.471495" lon="13.03921"><ele>336.0</ele><time>2026-04-12T08:13:44.232Z</time></trkpt><trkpt lat="43.471425" lon="13.03908"><ele>339.75</ele><time>2026-04-12T08:13:45.231Z</time></trkpt><trkpt lat="43.47133" lon="13.0389983"><ele>343.5</ele><time>2026-04-12T08:13:46.232Z</time></trkpt><trkpt lat="43.4712083" lon="13.0389717"><ele>347.25</ele><time>2026-04-12T08:13:47.232Z</time></trkpt><trkpt lat="43.4710667" lon="13.038975"><ele>351.0</ele><time>2026-04-12T08:13:48.232Z</time></trkpt><trkpt lat="43.4709283" lon="13.0389817"><ele>351.0</ele><time>2026-04-12T08:13:49.232Z</time></trkpt><trkpt lat="43.4707833" lon="13.0389883"><ele>351.0</ele><time>2026-04-12T08:13:50.232Z</time></trkpt><trkpt lat="43.4706483" lon="13.0389867"><ele>351.0</ele><time>2026-04-12T08:13:51.231Z</time></trkpt><trkpt lat="43.470535" lon="13.0389817"><ele>351.0</ele><time>2026-04-12T08:13:52.231Z</time></trkpt><trkpt lat="43.4704417" lon="13.038945"><ele>351.0</ele><time>2026-04-12T08:13:53.232Z</time></trkpt><trkpt lat="43.4703683" lon="13.03889"><ele>351.0</ele><time>2026-04-12T08:13:54.232Z</time></trkpt><trkpt lat="43.4703167" lon="13.038785"><ele>351.0</ele><time>2026-04-12T08:13:55.231Z</time></trkpt><trkpt lat="43.4703183" lon="13.0386667"><ele>351.0</ele><time>2026-04-12T08:13:56.232Z</time></trkpt><trkpt lat="43.47036" lon="13.0385533"><ele>351.0</ele><time>2026-04-12T08:13:57.232Z</time></trkpt><trkpt lat="43.4704367" lon="13.03848"><ele>351.0</ele><time>2026-04-12T08:13:58.232Z</time></trkpt><trkpt lat="43.4705383" lon="13.03842"><ele>351.0</ele><time>2026-04-12T08:13:59.232Z</time></trkpt><trkpt lat="43.4706533" lon="13.0383817"><ele>351.0</ele><time>2026-04-12T08:14:00.232Z</time></trkpt><trkpt lat="43.470785" lon="13.03837"><ele>351.0</ele><time>2026-04-12T08:14:01.231Z</time></trkpt><trkpt lat="43.470915" lon="13.0383633"><ele>351.0</ele><time>2026-04-12T08:14:02.232Z</time></trkpt><trkpt lat="43.4710467" lon="13.038365"><ele>351.0</ele><time>2026-04-12T08:14:03.232Z</time></trkpt><trkpt lat="43.471175" lon="13.0383517"><ele>351.0</ele><time>2026-04-12T08:14:04.232Z</time></trkpt><trkpt lat="43.4713017" lon="13.03832"><ele>351.0</ele><time>2026-04-12T08:14:05.232Z</time></trkpt><trkpt lat="43.4714083" lon="13.03829"><ele>351.0</ele><time>2026-04-12T08:14:06.232Z</time></trkpt><trkpt lat="43.4714983" lon="13.0382667"><ele>353.5</ele><time>2026-04-12T08:14:07.233Z</time></trkpt><trkpt lat="43.4715767" lon="13.0382367"><ele>356.0</ele><time>2026-04-12T08:14:08.233Z</time></trkpt><trkpt lat="43.47164" lon="13.0381917"><ele>358.5</ele><time>2026-04-12T08:14:09.233Z</time></trkpt><trkpt lat="43.4716783" lon="13.0381133"><ele>361.0</ele><time>2026-04-12T08:14:10.233Z</time></trkpt><trkpt lat="43.4716983" lon="13.0379417"><ele>363.5</ele><time>2026-04-12T08:14:12.232Z</time></trkpt><trkpt lat="43.4716833" lon="13.03784"><ele>366.0</ele><time>2026-04-12T08:14:13.233Z</time></trkpt><trkpt lat="43.4716817" lon="13.0377367"><ele>366.0</ele><time>2026-04-12T08:14:14.233Z</time></trkpt><trkpt lat="43.4716883" lon="13.0376283"><ele>366.0</ele><time>2026-04-12T08:14:15.233Z</time></trkpt><trkpt lat="43.4717167" lon="13.0375183"><ele>366.0</ele><time>2026-04-12T08:14:16.232Z</time></trkpt><trkpt lat="43.471765" lon="13.037395"><ele>366.0</ele><time>2026-04-12T08:14:17.233Z</time></trkpt><trkpt lat="43.4718333" lon="13.03727"><ele>366.0</ele><time>2026-04-12T08:14:18.233Z</time></trkpt><trkpt lat="43.47192" lon="13.03715"><ele>365.25</ele><time>2026-04-12T08:14:19.232Z</time></trkpt><trkpt lat="43.4720233" lon="13.03703"><ele>364.5</ele><time>2026-04-12T08:14:20.233Z</time></trkpt><trkpt lat="43.47214" lon="13.0369183"><ele>363.75</ele><time>2026-04-12T08:14:21.233Z</time></trkpt><trkpt lat="43.472255" lon="13.0368167"><ele>363.0</ele><time>2026-04-12T08:14:22.232Z</time></trkpt><trkpt lat="43.4723767" lon="13.0367033"><ele>362.5</ele><time>2026-04-12T08:14:23.233Z</time></trkpt><trkpt lat="43.4724917" lon="13.0365883"><ele>362.0</ele><time>2026-04-12T08:14:24.232Z</time></trkpt><trkpt lat="43.472585" lon="13.0364767"><ele>361.5</ele><time>2026-04-12T08:14:25.233Z</time></trkpt><trkpt lat="43.4726817" lon="13.03635"><ele>361.0</ele><time>2026-04-12T08:14:26.233Z</time></trkpt><trkpt lat="43.47278" lon="13.036235"><ele>361.0</ele><time>2026-04-12T08:14:27.232Z</time></trkpt><trkpt lat="43.472865" lon="13.0361083"><ele>361.0</ele><time>2026-04-12T08:14:28.232Z</time></trkpt><trkpt lat="43.4729433" lon="13.035965"><ele>361.0</ele><time>2026-04-12T08:14:29.233Z</time></trkpt><trkpt lat="43.473015" lon="13.0357983"><ele>361.0</ele><time>2026-04-12T08:14:30.233Z</time></trkpt><trkpt lat="43.4730783" lon="13.0356167"><ele>362.3333333333333</ele><time>2026-04-12T08:14:31.233Z</time></trkpt><trkpt lat="43.47315" lon="13.0354283"><ele>363.6666666666667</ele><time>2026-04-12T08:14:32.233Z</time></trkpt><trkpt lat="43.4732217" lon="13.0352367"><ele>365.0</ele><time>2026-04-12T08:14:33.232Z</time></trkpt><trkpt lat="43.4733033" lon="13.0350467"><ele>366.0</ele><time>2026-04-12T08:14:34.233Z</time></trkpt><trkpt lat="43.4733867" lon="13.03486"><ele>367.0</ele><time>2026-04-12T08:14:35.233Z</time></trkpt><trkpt lat="43.4734833" lon="13.0346967"><ele>368.0</ele><time>2026-04-12T08:14:36.233Z</time></trkpt><trkpt lat="43.4735683" lon="13.0345167"><ele>368.0</ele><time>2026-04-12T08:14:37.233Z</time></trkpt><trkpt lat="43.473655" lon="13.0343433"><ele>368.0</ele><time>2026-04-12T08:14:38.233Z</time></trkpt><trkpt lat="43.4737067" lon="13.0341617"><ele>368.0</ele><time>2026-04-12T08:14:39.233Z</time></trkpt><trkpt lat="43.4737567" lon="13.0339767"><ele>368.0</ele><time>2026-04-12T08:14:40.232Z</time></trkpt><trkpt lat="43.4738083" lon="13.03379"><ele>370.5</ele><time>2026-04-12T08:14:41.233Z</time></trkpt><trkpt lat="43.4738633" lon="13.0336017"><ele>373.0</ele><time>2026-04-12T08:14:42.232Z</time></trkpt><trkpt lat="43.4739417" lon="13.03343"><ele>375.5</ele><time>2026-04-12T08:14:43.233Z</time></trkpt><trkpt lat="43.4740417" lon="13.0332833"><ele>378.0</ele><time>2026-04-12T08:14:44.233Z</time></trkpt><trkpt lat="43.4741567" lon="13.0331433"><ele>378.0</ele><time>2026-04-12T08:14:45.233Z</time></trkpt><trkpt lat="43.4742817" lon="13.0330033"><ele>378.0</ele><time>2026-04-12T08:14:46.233Z</time></trkpt><trkpt lat="43.47439" lon="13.0328533"><ele>378.0</ele><time>2026-04-12T08:14:47.233Z</time></trkpt><trkpt lat="43.4744817" lon="13.0327217"><ele>378.0</ele><time>2026-04-12T08:14:48.233Z</time></trkpt><trkpt lat="43.4745383" lon="13.032545"><ele>378.6666666666667</ele><time>2026-04-12T08:14:49.233Z</time></trkpt><trkpt lat="43.4745817" lon="13.032345"><ele>379.33333333333337</ele><time>2026-04-12T08:14:50.233Z</time></trkpt><trkpt lat="43.4746117" lon="13.032135"><ele>380.0</ele><time>2026-04-12T08:14:51.232Z</time></trkpt><trkpt lat="43.474615" lon="13.0318917"><ele>380.0</ele><time>2026-04-12T08:14:52.232Z</time></trkpt><trkpt lat="43.4746017" lon="13.0316483"><ele>380.0</ele><time>2026-04-12T08:14:53.232Z</time></trkpt><trkpt lat="43.474585" lon="13.0313917"><ele>380.0</ele><time>2026-04-12T08:14:54.232Z</time></trkpt><trkpt lat="43.4745583" lon="13.0311617"><ele>380.75</ele><time>2026-04-12T08:14:55.233Z</time></trkpt><trkpt lat="43.47457" lon="13.03094"><ele>381.5</ele><time>2026-04-12T08:14:56.233Z</time></trkpt><trkpt lat="43.474595" lon="13.030745"><ele>382.25</ele><time>2026-04-12T08:14:57.232Z</time></trkpt><trkpt lat="43.4746383" lon="13.0305667"><ele>383.0</ele><time>2026-04-12T08:14:58.233Z</time></trkpt><trkpt lat="43.474695" lon="13.0304017"><ele>388.0</ele><time>2026-04-12T08:14:59.232Z</time></trkpt><trkpt lat="43.4747617" lon="13.0302517"><ele>393.0</ele><time>2026-04-12T08:15:00.233Z</time></trkpt><trkpt lat="43.47486" lon="13.03012"><ele>398.0</ele><time>2026-04-12T08:15:01.232Z</time></trkpt><trkpt lat="43.4749833" lon="13.0300417"><ele>403.0</ele><time>2026-04-12T08:15:02.232Z</time></trkpt><trkpt lat="43.475105" lon="13.0299817"><ele>402.5</ele><time>2026-04-12T08:15:03.232Z</time></trkpt><trkpt lat="43.475235" lon="13.029935"><ele>402.0</ele><time>2026-04-12T08:15:04.233Z</time></trkpt><trkpt lat="43.475365" lon="13.0298717"><ele>401.5</ele><time>2026-04-12T08:15:05.233Z</time></trkpt><trkpt lat="43.4754967" lon="13.0297783"><ele>401.0</ele><time>2026-04-12T08:15:06.233Z</time></trkpt><trkpt lat="43.4756333" lon="13.0296783"><ele>401.0</ele><time>2026-04-12T08:15:07.233Z</time></trkpt><trkpt lat="43.475765" lon="13.02958"><ele>401.0</ele><time>2026-04-12T08:15:08.233Z</time></trkpt><trkpt lat="43.475875" lon="13.0294717"><ele>401.0</ele><time>2026-04-12T08:15:09.233Z</time></trkpt><trkpt lat="43.475995" lon="13.0293367"><ele>401.0</ele><time>2026-04-12T08:15:10.232Z</time></trkpt><trkpt lat="43.4760983" lon="13.02919"><ele>401.25</ele><time>2026-04-12T08:15:11.233Z</time></trkpt><trkpt lat="43.47619" lon="13.0290367"><ele>401.5</ele><time>2026-04-12T08:15:12.232Z</time></trkpt><trkpt lat="43.47627" lon="13.02888"><ele>401.75</ele><time>2026-04-12T08:15:13.233Z</time></trkpt><trkpt lat="43.4763333" lon="13.02873"><ele>402.0</ele><time>2026-04-12T08:15:14.233Z</time></trkpt><trkpt lat="43.4763783" lon="13.028575"><ele>402.0</ele><time>2026-04-12T08:15:15.233Z</time></trkpt><trkpt lat="43.4764067" lon="13.028445"><ele>402.0</ele><time>2026-04-12T08:15:16.232Z</time></trkpt><trkpt lat="43.47643" lon="13.02835"><ele>402.0</ele><time>2026-04-12T08:15:17.233Z</time></trkpt><trkpt lat="43.4764517" lon="13.028255"><ele>402.0</ele><time>2026-04-12T08:15:18.233Z</time></trkpt><trkpt lat="43.4765083" lon="13.0281333"><ele>402.0</ele><time>2026-04-12T08:15:20.232Z</time></trkpt><trkpt lat="43.4765017" lon="13.027995"><ele>402.0</ele><time>2026-04-12T08:15:22.233Z</time></trkpt><trkpt lat="43.4764717" lon="13.0279167"><ele>403.0</ele><time>2026-04-12T08:15:23.233Z</time></trkpt><trkpt lat="43.47643" lon="13.0278183"><ele>404.0</ele><time>2026-04-12T08:15:24.233Z</time></trkpt><trkpt lat="43.4763867" lon="13.0276817"><ele>405.0</ele><time>2026-04-12T08:15:25.233Z</time></trkpt><trkpt lat="43.4763467" lon="13.027505"><ele>406.0</ele><time>2026-04-12T08:15:26.233Z</time></trkpt><trkpt lat="43.47631" lon="13.02733"><ele>405.4</ele><time>2026-04-12T08:15:27.232Z</time></trkpt><trkpt lat="43.4762717" lon="13.0271733"><ele>404.8</ele><time>2026-04-12T08:15:28.232Z</time></trkpt><trkpt lat="43.476245" lon="13.0270233"><ele>404.2</ele><time>2026-04-12T08:15:29.232Z</time></trkpt><trkpt lat="43.476215" lon="13.02688"><ele>403.59999999999997</ele><time>2026-04-12T08:15:30.233Z</time></trkpt><trkpt lat="43.476195" lon="13.0267417"><ele>403.0</ele><time>2026-04-12T08:15:31.233Z</time></trkpt><trkpt lat="43.4761717" lon="13.026605"><ele>404.6666666666667</ele><time>2026-04-12T08:15:32.233Z</time></trkpt><trkpt lat="43.476155" lon="13.0264783"><ele>406.33333333333337</ele><time>2026-04-12T08:15:33.233Z</time></trkpt><trkpt lat="43.4761417" lon="13.0263583"><ele>408.0</ele><time>2026-04-12T08:15:34.233Z</time></trkpt><trkpt lat="43.476135" lon="13.0262517"><ele>409.66666666666663</ele><time>2026-04-12T08:15:35.233Z</time></trkpt><trkpt lat="43.476125" lon="13.0261583"><ele>411.3333333333333</ele><time>2026-04-12T08:15:36.233Z</time></trkpt><trkpt lat="43.4761083" lon="13.0260617"><ele>413.0</ele><time>2026-04-12T08:15:38.232Z</time></trkpt><trkpt lat="43.4760967" lon="13.02616"><ele>413.0</ele><time>2026-04-12T08:15:45.233Z</time></trkpt><trkpt lat="43.476115" lon="13.0262583"><ele>413.0</ele><time>2026-04-12T08:15:46.233Z</time></trkpt><trkpt lat="43.476135" lon="13.0263833"><ele>413.0</ele><time>2026-04-12T08:15:47.233Z</time></trkpt><trkpt lat="43.47616" lon="13.0265283"><ele>413.0</ele><time>2026-04-12T08:15:48.233Z</time></trkpt><trkpt lat="43.4761917" lon="13.0266883"><ele>413.0</ele><time>2026-04-12T08:15:49.233Z</time></trkpt><trkpt lat="43.47622" lon="13.0268683"><ele>412.75</ele><time>2026-04-12T08:15:50.233Z</time></trkpt><trkpt lat="43.476245" lon="13.0270483"><ele>412.5</ele><time>2026-04-12T08:15:51.233Z</time></trkpt><trkpt lat="43.476265" lon="13.0272183"><ele>412.25</ele><time>2026-04-12T08:15:52.233Z</time></trkpt><trkpt lat="43.4762933" lon="13.0273833"><ele>412.0</ele><time>2026-04-12T08:15:53.232Z</time></trkpt><trkpt lat="43.4763167" lon="13.02754"><ele>410.8</ele><time>2026-04-12T08:15:54.233Z</time></trkpt><trkpt lat="43.4763483" lon="13.0276883"><ele>409.6</ele><time>2026-04-12T08:15:55.233Z</time></trkpt><trkpt lat="43.4763567" lon="13.02782"><ele>408.40000000000003</ele><time>2026-04-12T08:15:56.233Z</time></trkpt><trkpt lat="43.4763617" lon="13.02793"><ele>407.20000000000005</ele><time>2026-04-12T08:15:57.233Z</time></trkpt><trkpt lat="43.476375" lon="13.0280167"><ele>406.0</ele><time>2026-04-12T08:15:58.233Z</time></trkpt><trkpt lat="43.4764267" lon="13.0281467"><ele>406.0</ele><time>2026-04-12T08:16:00.232Z</time></trkpt><trkpt lat="43.4765117" lon="13.0281817"><ele>406.0</ele><time>2026-04-12T08:16:02.233Z</time></trkpt><trkpt lat="43.476615" lon="13.0281767"><ele>406.0</ele><time>2026-04-12T08:16:04.233Z</time></trkpt><trkpt lat="43.4767333" lon="13.0281617"><ele>406.0</ele><time>2026-04-12T08:16:06.233Z</time></trkpt><trkpt lat="43.47684" lon="13.0281317"><ele>406.0</ele><time>2026-04-12T08:16:08.233Z</time></trkpt><trkpt lat="43.4769017" lon="13.0281067"><ele>406.0</ele><time>2026-04-12T08:16:10.233Z</time></trkpt><trkpt lat="43.4769567" lon="13.0280467"><ele>406.0</ele><time>2026-04-12T08:16:12.232Z</time></trkpt><trkpt lat="43.4770567" lon="13.0279317"><ele>406.0</ele><time>2026-04-12T08:16:14.232Z</time></trkpt><trkpt lat="43.4771267" lon="13.0278483"><ele>406.0</ele><time>2026-04-12T08:16:15.232Z</time></trkpt><trkpt lat="43.4772017" lon="13.027755"><ele>406.0</ele><time>2026-04-12T08:16:16.232Z</time></trkpt><trkpt lat="43.47729" lon="13.0276817"><ele>405.4</ele><time>2026-04-12T08:16:17.233Z</time></trkpt><trkpt lat="43.477385" lon="13.02762"><ele>404.8</ele><time>2026-04-12T08:16:18.232Z</time></trkpt><trkpt lat="43.4774883" lon="13.027615"><ele>404.2</ele><time>2026-04-12T08:16:19.233Z</time></trkpt><trkpt lat="43.4775967" lon="13.0276533"><ele>403.59999999999997</ele><time>2026-04-12T08:16:20.233Z</time></trkpt><trkpt lat="43.4776983" lon="13.0277217"><ele>403.0</ele><time>2026-04-12T08:16:21.233Z</time></trkpt><trkpt lat="43.477805" lon="13.02781"><ele>403.0</ele><time>2026-04-12T08:16:22.233Z</time></trkpt><trkpt lat="43.4779167" lon="13.0279167"><ele>403.0</ele><time>2026-04-12T08:16:23.233Z</time></trkpt><trkpt lat="43.4780433" lon="13.0280283"><ele>403.0</ele><time>2026-04-12T08:16:24.233Z</time></trkpt><trkpt lat="43.478185" lon="13.0281467"><ele>400.0</ele><time>2026-04-12T08:16:25.233Z</time></trkpt><trkpt lat="43.4783283" lon="13.028275"><ele>397.0</ele><time>2026-04-12T08:16:26.233Z</time></trkpt><trkpt lat="43.4784683" lon="13.0284333"><ele>394.0</ele><time>2026-04-12T08:16:27.233Z</time></trkpt><trkpt lat="43.4786067" lon="13.0285833"><ele>394.0</ele><time>2026-04-12T08:16:28.233Z</time></trkpt><trkpt lat="43.47874" lon="13.0287583"><ele>394.0</ele><time>2026-04-12T08:16:29.233Z</time></trkpt><trkpt lat="43.4788717" lon="13.028915"><ele>394.0</ele><time>2026-04-12T08:16:30.233Z</time></trkpt><trkpt lat="43.4790217" lon="13.02905"><ele>389.33333333333337</ele><time>2026-04-12T08:16:31.232Z</time></trkpt><trkpt lat="43.47918" lon="13.0291817"><ele>384.6666666666667</ele><time>2026-04-12T08:16:32.233Z</time></trkpt><trkpt lat="43.47934" lon="13.029305"><ele>380.0</ele><time>2026-04-12T08:16:33.233Z</time></trkpt><trkpt lat="43.4795133" lon="13.0294333"><ele>378.6666666666667</ele><time>2026-04-12T08:16:34.233Z</time></trkpt><trkpt lat="43.4796667" lon="13.0295433"><ele>377.3333333333333</ele><time>2026-04-12T08:16:35.232Z</time></trkpt><trkpt lat="43.4798217" lon="13.02967"><ele>376.0</ele><time>2026-04-12T08:16:36.232Z</time></trkpt><trkpt lat="43.4799633" lon="13.0297833"><ele>376.0</ele><time>2026-04-12T08:16:37.232Z</time></trkpt><trkpt lat="43.4801117" lon="13.0299033"><ele>376.0</ele><time>2026-04-12T08:16:38.233Z</time></trkpt><trkpt lat="43.4802667" lon="13.0300117"><ele>376.0</ele><time>2026-04-12T08:16:39.232Z</time></trkpt><trkpt lat="43.4804433" lon="13.0301133"><ele>374.66666666666663</ele><time>2026-04-12T08:16:40.233Z</time></trkpt><trkpt lat="43.4806217" lon="13.030175"><ele>373.3333333333333</ele><time>2026-04-12T08:16:41.232Z</time></trkpt><trkpt lat="43.4808117" lon="13.03021"><ele>372.0</ele><time>2026-04-12T08:16:42.233Z</time></trkpt><trkpt lat="43.48102" lon="13.03024"><ele>372.0</ele><time>2026-04-12T08:16:43.232Z</time></trkpt><trkpt lat="43.481225" lon="13.0302683"><ele>372.0</ele><time>2026-04-12T08:16:44.232Z</time></trkpt><trkpt lat="43.481425" lon="13.03029"><ele>372.0</ele><time>2026-04-12T08:16:45.233Z</time></trkpt><trkpt lat="43.4816317" lon="13.0303083"><ele>368.6666666666667</ele><time>2026-04-12T08:16:46.232Z</time></trkpt><trkpt lat="43.48184" lon="13.030355"><ele>365.33333333333337</ele><time>2026-04-12T08:16:47.232Z</time></trkpt><trkpt lat="43.482045" lon="13.030415"><ele>362.0</ele><time>2026-04-12T08:16:48.233Z</time></trkpt><trkpt lat="43.4822267" lon="13.0304767"><ele>359.6666666666667</ele><time>2026-04-12T08:16:49.233Z</time></trkpt><trkpt lat="43.482395" lon="13.03054"><ele>357.3333333333333</ele><time>2026-04-12T08:16:50.232Z</time></trkpt><trkpt lat="43.4825533" lon="13.0305983"><ele>355.0</ele><time>2026-04-12T08:16:51.233Z</time></trkpt><trkpt lat="43.4827067" lon="13.03066"><ele>355.0</ele><time>2026-04-12T08:16:52.232Z</time></trkpt><trkpt lat="43.482855" lon="13.0307367"><ele>355.0</ele><time>2026-04-12T08:16:53.233Z</time></trkpt><trkpt lat="43.483005" lon="13.0308117"><ele>355.0</ele><time>2026-04-12T08:16:54.233Z</time></trkpt><trkpt lat="43.4831567" lon="13.0308917"><ele>355.0</ele><time>2026-04-12T08:16:55.233Z</time></trkpt><trkpt lat="43.4833133" lon="13.03097"><ele>355.0</ele><time>2026-04-12T08:16:56.233Z</time></trkpt><trkpt lat="43.4834867" lon="13.0310467"><ele>355.0</ele><time>2026-04-12T08:16:57.233Z</time></trkpt><trkpt lat="43.4836633" lon="13.03113"><ele>354.3333333333333</ele><time>2026-04-12T08:16:58.233Z</time></trkpt><trkpt lat="43.483835" lon="13.0312217"><ele>353.6666666666667</ele><time>2026-04-12T08:16:59.233Z</time></trkpt><trkpt lat="43.4840033" lon="13.0313"><ele>353.0</ele><time>2026-04-12T08:17:00.232Z</time></trkpt><trkpt lat="43.48416" lon="13.0313883"><ele>353.0</ele><time>2026-04-12T08:17:01.233Z</time></trkpt><trkpt lat="43.484305" lon="13.03149"><ele>353.0</ele><time>2026-04-12T08:17:02.233Z</time></trkpt><trkpt lat="43.4844283" lon="13.0316233"><ele>353.0</ele><time>2026-04-12T08:17:03.232Z</time></trkpt><trkpt lat="43.484525" lon="13.0318083"><ele>352.33333333333337</ele><time>2026-04-12T08:17:04.232Z</time></trkpt><trkpt lat="43.4846017" lon="13.0320167"><ele>351.6666666666667</ele><time>2026-04-12T08:17:05.233Z</time></trkpt><trkpt lat="43.484685" lon="13.0322217"><ele>351.0</ele><time>2026-04-12T08:17:06.232Z</time></trkpt><trkpt lat="43.4847733" lon="13.0324467"><ele>354.0</ele><time>2026-04-12T08:17:07.233Z</time></trkpt><trkpt lat="43.4848633" lon="13.03267"><ele>357.0</ele><time>2026-04-12T08:17:08.233Z</time></trkpt><trkpt lat="43.4849583" lon="13.0328917"><ele>360.0</ele><time>2026-04-12T08:17:09.233Z</time></trkpt><trkpt lat="43.4850533" lon="13.0331033"><ele>361.3333333333333</ele><time>2026-04-12T08:17:10.232Z</time></trkpt><trkpt lat="43.4851533" lon="13.0333233"><ele>362.66666666666663</ele><time>2026-04-12T08:17:11.233Z</time></trkpt><trkpt lat="43.485255" lon="13.03353"><ele>364.0</ele><time>2026-04-12T08:17:12.233Z</time></trkpt><trkpt lat="43.4853583" lon="13.0337217"><ele>362.66666666666663</ele><time>2026-04-12T08:17:13.233Z</time></trkpt><trkpt lat="43.4854583" lon="13.0339"><ele>361.3333333333333</ele><time>2026-04-12T08:17:14.232Z</time></trkpt><trkpt lat="43.4855683" lon="13.0340717"><ele>360.0</ele><time>2026-04-12T08:17:15.233Z</time></trkpt><trkpt lat="43.485695" lon="13.0342367"><ele>363.6666666666667</ele><time>2026-04-12T08:17:16.232Z</time></trkpt><trkpt lat="43.485825" lon="13.03441"><ele>367.33333333333337</ele><time>2026-04-12T08:17:17.232Z</time></trkpt><trkpt lat="43.485965" lon="13.03457"><ele>371.0</ele><time>2026-04-12T08:17:18.232Z</time></trkpt><trkpt lat="43.4861" lon="13.03474"><ele>371.0</ele><time>2026-04-12T08:17:19.233Z</time></trkpt><trkpt lat="43.4862267" lon="13.03492"><ele>371.0</ele><time>2026-04-12T08:17:20.233Z</time></trkpt><trkpt lat="43.486345" lon="13.0350883"><ele>371.0</ele><time>2026-04-12T08:17:21.233Z</time></trkpt><trkpt lat="43.486455" lon="13.035235"><ele>372.25</ele><time>2026-04-12T08:17:22.233Z</time></trkpt><trkpt lat="43.4865667" lon="13.03535"><ele>373.5</ele><time>2026-04-12T08:17:23.233Z</time></trkpt><trkpt lat="43.4866867" lon="13.0354067"><ele>374.75</ele><time>2026-04-12T08:17:24.233Z</time></trkpt><trkpt lat="43.4868217" lon="13.0353883"><ele>376.0</ele><time>2026-04-12T08:17:25.232Z</time></trkpt><trkpt lat="43.486945" lon="13.03531"><ele>376.0</ele><time>2026-04-12T08:17:26.233Z</time></trkpt><trkpt lat="43.4870717" lon="13.0351967"><ele>376.0</ele><time>2026-04-12T08:17:27.232Z</time></trkpt><trkpt lat="43.487195" lon="13.0350967"><ele>376.0</ele><time>2026-04-12T08:17:28.233Z</time></trkpt><trkpt lat="43.4873283" lon="13.0350167"><ele>376.0</ele><time>2026-04-12T08:17:29.232Z</time></trkpt><trkpt lat="43.4874633" lon="13.034965"><ele>373.66666666666663</ele><time>2026-04-12T08:17:30.232Z</time></trkpt><trkpt lat="43.4876033" lon="13.0349567"><ele>371.3333333333333</ele><time>2026-04-12T08:17:31.233Z</time></trkpt><trkpt lat="43.4877583" lon="13.03499"><ele>369.0</ele><time>2026-04-12T08:17:32.233Z</time></trkpt><trkpt lat="43.48791" lon="13.0350483"><ele>374.0</ele><time>2026-04-12T08:17:33.233Z</time></trkpt><trkpt lat="43.488055" lon="13.035075"><ele>379.0</ele><time>2026-04-12T08:17:34.233Z</time></trkpt><trkpt lat="43.4881883" lon="13.0350683"><ele>384.0</ele><time>2026-04-12T08:17:35.233Z</time></trkpt><trkpt lat="43.48832" lon="13.0350367"><ele>389.0</ele><time>2026-04-12T08:17:36.232Z</time></trkpt><trkpt lat="43.4884433" lon="13.0350233"><ele>389.0</ele><time>2026-04-12T08:17:37.232Z</time></trkpt><trkpt lat="43.4885717" lon="13.035065"><ele>389.0</ele><time>2026-04-12T08:17:38.232Z</time></trkpt><trkpt lat="43.4886933" lon="13.03512"><ele>389.0</ele><time>2026-04-12T08:17:39.233Z</time></trkpt><trkpt lat="43.488795" lon="13.03524"><ele>389.0</ele><time>2026-04-12T08:17:40.232Z</time></trkpt><trkpt lat="43.488885" lon="13.0354167"><ele>387.0</ele><time>2026-04-12T08:17:41.233Z</time></trkpt><trkpt lat="43.4889867" lon="13.0355883"><ele>385.0</ele><time>2026-04-12T08:17:42.233Z</time></trkpt><trkpt lat="43.4890933" lon="13.0357667"><ele>383.0</ele><time>2026-04-12T08:17:43.233Z</time></trkpt><trkpt lat="43.4891917" lon="13.0359433"><ele>387.0</ele><time>2026-04-12T08:17:44.233Z</time></trkpt><trkpt lat="43.4892867" lon="13.0361217"><ele>391.0</ele><time>2026-04-12T08:17:45.232Z</time></trkpt><trkpt lat="43.489385" lon="13.03628"><ele>395.0</ele><time>2026-04-12T08:17:46.233Z</time></trkpt><trkpt lat="43.4894967" lon="13.0364233"><ele>394.0</ele><time>2026-04-12T08:17:47.232Z</time></trkpt><trkpt lat="43.4896183" lon="13.0365317"><ele>393.0</ele><time>2026-04-12T08:17:48.232Z</time></trkpt><trkpt lat="43.4897483" lon="13.036625"><ele>392.0</ele><time>2026-04-12T08:17:49.233Z</time></trkpt><trkpt lat="43.4898683" lon="13.0367"><ele>391.0</ele><time>2026-04-12T08:17:50.233Z</time></trkpt><trkpt lat="43.48998" lon="13.03677"><ele>393.0</ele><time>2026-04-12T08:17:51.233Z</time></trkpt><trkpt lat="43.4900967" lon="13.0368167"><ele>395.0</ele><time>2026-04-12T08:17:52.233Z</time></trkpt><trkpt lat="43.4902283" lon="13.03685"><ele>397.0</ele><time>2026-04-12T08:17:53.233Z</time></trkpt><trkpt lat="43.4903633" lon="13.03686"><ele>399.0</ele><time>2026-04-12T08:17:54.233Z</time></trkpt><trkpt lat="43.4904983" lon="13.036865"><ele>399.0</ele><time>2026-04-12T08:17:55.233Z</time></trkpt><trkpt lat="43.490635" lon="13.0368583"><ele>399.0</ele><time>2026-04-12T08:17:56.233Z</time></trkpt><trkpt lat="43.4907717" lon="13.0368433"><ele>399.0</ele><time>2026-04-12T08:17:57.233Z</time></trkpt><trkpt lat="43.4909067" lon="13.03686"><ele>399.0</ele><time>2026-04-12T08:17:58.233Z</time></trkpt><trkpt lat="43.4910567" lon="13.036845"><ele>399.0</ele><time>2026-04-12T08:17:59.232Z</time></trkpt><trkpt lat="43.49122" lon="13.0368283"><ele>399.0</ele><time>2026-04-12T08:18:00.233Z</time></trkpt><trkpt lat="43.4913633" lon="13.0368217"><ele>399.0</ele><time>2026-04-12T08:18:01.233Z</time></trkpt><trkpt lat="43.4915183" lon="13.0368217"><ele>399.25</ele><time>2026-04-12T08:18:02.233Z</time></trkpt><trkpt lat="43.4916767" lon="13.0368483"><ele>399.5</ele><time>2026-04-12T08:18:03.232Z</time></trkpt><trkpt lat="43.4918183" lon="13.0368767"><ele>399.75</ele><time>2026-04-12T08:18:04.232Z</time></trkpt><trkpt lat="43.4919517" lon="13.0369367"><ele>400.0</ele><time>2026-04-12T08:18:05.233Z</time></trkpt><trkpt lat="43.4920933" lon="13.0370217"><ele>400.0</ele><time>2026-04-12T08:18:06.233Z</time></trkpt><trkpt lat="43.4922433" lon="13.0371267"><ele>400.0</ele><time>2026-04-12T08:18:07.233Z</time></trkpt><trkpt lat="43.4923967" lon="13.03723"><ele>400.0</ele><time>2026-04-12T08:18:08.233Z</time></trkpt><trkpt lat="43.4925483" lon="13.0373467"><ele>400.0</ele><time>2026-04-12T08:18:09.232Z</time></trkpt><trkpt lat="43.4927133" lon="13.03746"><ele>400.0</ele><time>2026-04-12T08:18:10.232Z</time></trkpt><trkpt lat="43.4928817" lon="13.0375783"><ele>400.0</ele><time>2026-04-12T08:18:11.233Z</time></trkpt><trkpt lat="43.4930483" lon="13.0377033"><ele>401.0</ele><time>2026-04-12T08:18:12.233Z</time></trkpt><trkpt lat="43.4932183" lon="13.037825"><ele>402.0</ele><time>2026-04-12T08:18:13.233Z</time></trkpt><trkpt lat="43.493405" lon="13.0379283"><ele>403.0</ele><time>2026-04-12T08:18:14.233Z</time></trkpt><trkpt lat="43.49359" lon="13.038015"><ele>403.6666666666667</ele><time>2026-04-12T08:18:15.233Z</time></trkpt><trkpt lat="43.49376" lon="13.0381"><ele>404.33333333333337</ele><time>2026-04-12T08:18:16.233Z</time></trkpt><trkpt lat="43.4939217" lon="13.03819"><ele>405.0</ele><time>2026-04-12T08:18:17.232Z</time></trkpt><trkpt lat="43.4940683" lon="13.03831"><ele>405.0</ele><time>2026-04-12T08:18:18.233Z</time></trkpt><trkpt lat="43.4942" lon="13.0384533"><ele>405.0</ele><time>2026-04-12T08:18:19.232Z</time></trkpt><trkpt lat="43.494315" lon="13.0386183"><ele>405.0</ele><time>2026-04-12T08:18:20.233Z</time></trkpt><trkpt lat="43.4944133" lon="13.0388067"><ele>405.0</ele><time>2026-04-12T08:18:21.233Z</time></trkpt><trkpt lat="43.4945083" lon="13.0389917"><ele>405.0</ele><time>2026-04-12T08:18:22.233Z</time></trkpt><trkpt lat="43.4945983" lon="13.0391967"><ele>405.0</ele><time>2026-04-12T08:18:23.233Z</time></trkpt><trkpt lat="43.494675" lon="13.0394067"><ele>408.0</ele><time>2026-04-12T08:18:24.233Z</time></trkpt><trkpt lat="43.49474" lon="13.0396167"><ele>411.0</ele><time>2026-04-12T08:18:25.233Z</time></trkpt><trkpt lat="43.4947883" lon="13.0398383"><ele>414.0</ele><time>2026-04-12T08:18:26.233Z</time></trkpt><trkpt lat="43.49483" lon="13.0400667"><ele>414.66666666666663</ele><time>2026-04-12T08:18:27.233Z</time></trkpt><trkpt lat="43.49488" lon="13.0403017"><ele>415.3333333333333</ele><time>2026-04-12T08:18:28.232Z</time></trkpt><trkpt lat="43.4949483" lon="13.0405283"><ele>416.0</ele><time>2026-04-12T08:18:29.233Z</time></trkpt><trkpt lat="43.4950267" lon="13.040745"><ele>414.0</ele><time>2026-04-12T08:18:30.232Z</time></trkpt><trkpt lat="43.4950867" lon="13.0409967"><ele>412.0</ele><time>2026-04-12T08:18:31.233Z</time></trkpt><trkpt lat="43.4951417" lon="13.0412583"><ele>410.0</ele><time>2026-04-12T08:18:32.232Z</time></trkpt><trkpt lat="43.4951917" lon="13.0415217"><ele>408.3333333333333</ele><time>2026-04-12T08:18:33.233Z</time></trkpt><trkpt lat="43.4952367" lon="13.0417683"><ele>406.66666666666663</ele><time>2026-04-12T08:18:34.233Z</time></trkpt><trkpt lat="43.49529" lon="13.0420133"><ele>405.0</ele><time>2026-04-12T08:18:35.232Z</time></trkpt><trkpt lat="43.4953533" lon="13.0422533"><ele>406.66666666666663</ele><time>2026-04-12T08:18:36.233Z</time></trkpt><trkpt lat="43.4954283" lon="13.0424483"><ele>408.3333333333333</ele><time>2026-04-12T08:18:37.232Z</time></trkpt><trkpt lat="43.4955183" lon="13.04263"><ele>410.0</ele><time>2026-04-12T08:18:38.233Z</time></trkpt><trkpt lat="43.4956217" lon="13.0428083"><ele>410.0</ele><time>2026-04-12T08:18:39.233Z</time></trkpt><trkpt lat="43.4957417" lon="13.0429617"><ele>410.0</ele><time>2026-04-12T08:18:40.233Z</time></trkpt><trkpt lat="43.49588" lon="13.043085"><ele>410.0</ele><time>2026-04-12T08:18:41.233Z</time></trkpt><trkpt lat="43.4960333" lon="13.0431883"><ele>408.3333333333333</ele><time>2026-04-12T08:18:42.233Z</time></trkpt><trkpt lat="43.4961833" lon="13.0433"><ele>406.66666666666663</ele><time>2026-04-12T08:18:43.233Z</time></trkpt><trkpt lat="43.496325" lon="13.043415"><ele>405.0</ele><time>2026-04-12T08:18:44.233Z</time></trkpt><trkpt lat="43.496465" lon="13.043545"><ele>405.0</ele><time>2026-04-12T08:18:45.232Z</time></trkpt><trkpt lat="43.4965967" lon="13.04369"><ele>405.0</ele><time>2026-04-12T08:18:46.233Z</time></trkpt><trkpt lat="43.4967283" lon="13.0438317"><ele>405.0</ele><time>2026-04-12T08:18:47.233Z</time></trkpt><trkpt lat="43.496875" lon="13.0439517"><ele>405.0</ele><time>2026-04-12T08:18:48.233Z</time></trkpt><trkpt lat="43.4970333" lon="13.0440333"><ele>405.0</ele><time>2026-04-12T08:18:49.233Z</time></trkpt><trkpt lat="43.4972017" lon="13.0440917"><ele>405.0</ele><time>2026-04-12T08:18:50.233Z</time></trkpt><trkpt lat="43.4973733" lon="13.0441517"><ele>406.66666666666663</ele><time>2026-04-12T08:18:51.232Z</time></trkpt><trkpt lat="43.4975367" lon="13.0442283"><ele>408.3333333333333</ele><time>2026-04-12T08:18:52.233Z</time></trkpt><trkpt lat="43.4976833" lon="13.0443383"><ele>410.0</ele><time>2026-04-12T08:18:53.233Z</time></trkpt><trkpt lat="43.4978367" lon="13.0444633"><ele>413.0</ele><time>2026-04-12T08:18:54.233Z</time></trkpt><trkpt lat="43.4979717" lon="13.0446133"><ele>416.0</ele><time>2026-04-12T08:18:55.233Z</time></trkpt><trkpt lat="43.4981017" lon="13.0447867"><ele>419.0</ele><time>2026-04-12T08:18:56.232Z</time></trkpt><trkpt lat="43.4982333" lon="13.0449667"><ele>419.0</ele><time>2026-04-12T08:18:57.233Z</time></trkpt><trkpt lat="43.498365" lon="13.04514"><ele>419.0</ele><time>2026-04-12T08:18:58.232Z</time></trkpt><trkpt lat="43.498495" lon="13.0453383"><ele>419.0</ele><time>2026-04-12T08:18:59.232Z</time></trkpt><trkpt lat="43.4986267" lon="13.045535"><ele>421.66666666666663</ele><time>2026-04-12T08:19:00.233Z</time></trkpt><trkpt lat="43.49876" lon="13.0457283"><ele>424.33333333333337</ele><time>2026-04-12T08:19:01.233Z</time></trkpt><trkpt lat="43.4988983" lon="13.0459167"><ele>427.0</ele><time>2026-04-12T08:19:02.232Z</time></trkpt><trkpt lat="43.4990483" lon="13.04613"><ele>427.0</ele><time>2026-04-12T08:19:03.233Z</time></trkpt><trkpt lat="43.4991967" lon="13.046335"><ele>427.0</ele><time>2026-04-12T08:19:04.233Z</time></trkpt><trkpt lat="43.49933" lon="13.0465317"><ele>427.0</ele><time>2026-04-12T08:19:05.233Z</time></trkpt><trkpt lat="43.4994517" lon="13.0467217"><ele>430.0</ele><time>2026-04-12T08:19:06.233Z</time></trkpt><trkpt lat="43.4995633" lon="13.04692"><ele>433.0</ele><time>2026-04-12T08:19:07.232Z</time></trkpt><trkpt lat="43.4996733" lon="13.047115"><ele>436.0</ele><time>2026-04-12T08:19:08.233Z</time></trkpt><trkpt lat="43.499785" lon="13.047325"><ele>434.0</ele><time>2026-04-12T08:19:09.233Z</time></trkpt><trkpt lat="43.49989" lon="13.0475367"><ele>432.0</ele><time>2026-04-12T08:19:10.232Z</time></trkpt><trkpt lat="43.4999917" lon="13.04775"><ele>430.0</ele><time>2026-04-12T08:19:11.232Z</time></trkpt><trkpt lat="43.5000867" lon="13.0479717"><ele>430.0</ele><time>2026-04-12T08:19:12.233Z</time></trkpt><trkpt lat="43.5001767" lon="13.0482083"><ele>430.0</ele><time>2026-04-12T08:19:13.232Z</time></trkpt><trkpt lat="43.5002567" lon="13.0484483"><ele>430.0</ele><time>2026-04-12T08:19:14.233Z</time></trkpt><trkpt lat="43.5003317" lon="13.0486833"><ele>428.6666666666667</ele><time>2026-04-12T08:19:15.232Z</time></trkpt><trkpt lat="43.5003933" lon="13.0489283"><ele>427.33333333333337</ele><time>2026-04-12T08:19:16.233Z</time></trkpt><trkpt lat="43.500445" lon="13.0491583"><ele>426.0</ele><time>2026-04-12T08:19:17.233Z</time></trkpt><trkpt lat="43.5004967" lon="13.04938"><ele>431.33333333333337</ele><time>2026-04-12T08:19:18.233Z</time></trkpt><trkpt lat="43.50055" lon="13.049595"><ele>436.6666666666667</ele><time>2026-04-12T08:19:19.233Z</time></trkpt><trkpt lat="43.5005967" lon="13.04983"><ele>442.0</ele><time>2026-04-12T08:19:20.233Z</time></trkpt><trkpt lat="43.5006433" lon="13.0500683"><ele>442.0</ele><time>2026-04-12T08:19:21.233Z</time></trkpt><trkpt lat="43.5006967" lon="13.0503033"><ele>442.0</ele><time>2026-04-12T08:19:22.233Z</time></trkpt><trkpt lat="43.5007567" lon="13.050525"><ele>442.0</ele><time>2026-04-12T08:19:23.233Z</time></trkpt><trkpt lat="43.50081" lon="13.050735"><ele>441.0</ele><time>2026-04-12T08:19:24.233Z</time></trkpt><trkpt lat="43.5008617" lon="13.05095"><ele>440.0</ele><time>2026-04-12T08:19:25.232Z</time></trkpt><trkpt lat="43.5009133" lon="13.0511767"><ele>439.0</ele><time>2026-04-12T08:19:26.232Z</time></trkpt><trkpt lat="43.5009533" lon="13.05139"><ele>439.0</ele><time>2026-04-12T08:19:27.233Z</time></trkpt><trkpt lat="43.500985" lon="13.0515933"><ele>439.0</ele><time>2026-04-12T08:19:28.233Z</time></trkpt><trkpt lat="43.5010217" lon="13.051795"><ele>439.0</ele><time>2026-04-12T08:19:29.233Z</time></trkpt><trkpt lat="43.5010733" lon="13.05198"><ele>439.0</ele><time>2026-04-12T08:19:30.233Z</time></trkpt><trkpt lat="43.501145" lon="13.052145"><ele>439.75</ele><time>2026-04-12T08:19:31.233Z</time></trkpt><trkpt lat="43.5012367" lon="13.0522767"><ele>440.5</ele><time>2026-04-12T08:19:32.233Z</time></trkpt><trkpt lat="43.5013483" lon="13.0523883"><ele>441.25</ele><time>2026-04-12T08:19:33.233Z</time></trkpt><trkpt lat="43.50147" lon="13.0524833"><ele>442.0</ele><time>2026-04-12T08:19:34.232Z</time></trkpt><trkpt lat="43.501585" lon="13.0525717"><ele>440.5</ele><time>2026-04-12T08:19:35.232Z</time></trkpt><trkpt lat="43.5016967" lon="13.0526583"><ele>439.0</ele><time>2026-04-12T08:19:36.232Z</time></trkpt><trkpt lat="43.5018033" lon="13.0527617"><ele>437.5</ele><time>2026-04-12T08:19:37.233Z</time></trkpt><trkpt lat="43.5018967" lon="13.0528867"><ele>436.0</ele><time>2026-04-12T08:19:38.233Z</time></trkpt><trkpt lat="43.501965" lon="13.0530217"><ele>436.0</ele><time>2026-04-12T08:19:39.232Z</time></trkpt><trkpt lat="43.5020167" lon="13.0531533"><ele>436.0</ele><time>2026-04-12T08:19:40.233Z</time></trkpt><trkpt lat="43.502065" lon="13.0532833"><ele>436.0</ele><time>2026-04-12T08:19:41.233Z</time></trkpt><trkpt lat="43.5021117" lon="13.0534017"><ele>436.0</ele><time>2026-04-12T08:19:42.232Z</time></trkpt><trkpt lat="43.502165" lon="13.05348"><ele>436.0</ele><time>2026-04-12T08:19:43.233Z</time></trkpt><trkpt lat="43.5022467" lon="13.05357"><ele>434.8</ele><time>2026-04-12T08:19:45.233Z</time></trkpt><trkpt lat="43.502335" lon="13.053545"><ele>433.6</ele><time>2026-04-12T08:19:48.233Z</time></trkpt><trkpt lat="43.502345" lon="13.0534017"><ele>432.4</ele><time>2026-04-12T08:19:50.233Z</time></trkpt><trkpt lat="43.5023283" lon="13.053295"><ele>431.2</ele><time>2026-04-12T08:19:51.233Z</time></trkpt><trkpt lat="43.50231" lon="13.0531617"><ele>430.0</ele><time>2026-04-12T08:19:52.232Z</time></trkpt><trkpt lat="43.50231" lon="13.0530083"><ele>430.0</ele><time>2026-04-12T08:19:53.233Z</time></trkpt><trkpt lat="43.5023367" lon="13.0528367"><ele>430.0</ele><time>2026-04-12T08:19:54.233Z</time></trkpt><trkpt lat="43.5023833" lon="13.05267"><ele>430.0</ele><time>2026-04-12T08:19:55.233Z</time></trkpt><trkpt lat="43.5024517" lon="13.0525317"><ele>430.0</ele><time>2026-04-12T08:19:56.233Z</time></trkpt><trkpt lat="43.5025383" lon="13.0524333"><ele>429.6</ele><time>2026-04-12T08:19:57.233Z</time></trkpt><trkpt lat="43.50264" lon="13.0523667"><ele>429.2</ele><time>2026-04-12T08:19:58.233Z</time></trkpt><trkpt lat="43.5027483" lon="13.052355"><ele>428.79999999999995</ele><time>2026-04-12T08:19:59.233Z</time></trkpt><trkpt lat="43.5028533" lon="13.0523733"><ele>428.4</ele><time>2026-04-12T08:20:00.233Z</time></trkpt><trkpt lat="43.502945" lon="13.0523917"><ele>428.0</ele><time>2026-04-12T08:20:01.233Z</time></trkpt><trkpt lat="43.503015" lon="13.0524033"><ele>427.99999999999994</ele><time>2026-04-12T08:20:02.233Z</time></trkpt><trkpt lat="43.5030867" lon="13.0523983"><ele>428.0</ele><time>2026-04-12T08:20:03.233Z</time></trkpt><trkpt lat="43.5031533" lon="13.0524017"><ele>428.0</ele><time>2026-04-12T08:20:04.233Z</time></trkpt><trkpt lat="43.5032633" lon="13.0523917"><ele>428.0</ele><time>2026-04-12T08:20:06.233Z</time></trkpt><trkpt lat="43.5033533" lon="13.0523533"><ele>427.99999999999994</ele><time>2026-04-12T08:20:08.233Z</time></trkpt><trkpt lat="43.5034" lon="13.0522933"><ele>428.0</ele><time>2026-04-12T08:20:09.233Z</time></trkpt><trkpt lat="43.5034517" lon="13.05217"><ele>428.0</ele><time>2026-04-12T08:20:10.232Z</time></trkpt><trkpt lat="43.5035167" lon="13.0520183"><ele>428.0</ele><time>2026-04-12T08:20:11.233Z</time></trkpt><trkpt lat="43.503595" lon="13.0518533"><ele>428.0</ele><time>2026-04-12T08:20:12.233Z</time></trkpt><trkpt lat="43.5036983" lon="13.051685"><ele>428.0</ele><time>2026-04-12T08:20:13.232Z</time></trkpt><trkpt lat="43.503815" lon="13.0515183"><ele>423.3333333333333</ele><time>2026-04-12T08:20:14.233Z</time></trkpt><trkpt lat="43.50394" lon="13.0513667"><ele>418.66666666666663</ele><time>2026-04-12T08:20:15.233Z</time></trkpt><trkpt lat="43.5040533" lon="13.0512133"><ele>414.0</ele><time>2026-04-12T08:20:16.233Z</time></trkpt><trkpt lat="43.50416" lon="13.0510667"><ele>414.0</ele><time>2026-04-12T08:20:17.232Z</time></trkpt><trkpt lat="43.5042567" lon="13.0509417"><ele>414.0</ele><time>2026-04-12T08:20:18.233Z</time></trkpt><trkpt lat="43.504335" lon="13.05081"><ele>414.0</ele><time>2026-04-12T08:20:19.233Z</time></trkpt><trkpt lat="43.5043867" lon="13.0506467"><ele>414.0</ele><time>2026-04-12T08:20:20.233Z</time></trkpt><trkpt lat="43.504395" lon="13.050475"><ele>414.2</ele><time>2026-04-12T08:20:21.233Z</time></trkpt><trkpt lat="43.5043633" lon="13.0503"><ele>414.4</ele><time>2026-04-12T08:20:22.232Z</time></trkpt><trkpt lat="43.504315" lon="13.0501433"><ele>414.6</ele><time>2026-04-12T08:20:23.233Z</time></trkpt><trkpt lat="43.5042683" lon="13.0500167"><ele>414.8</ele><time>2026-04-12T08:20:24.233Z</time></trkpt><trkpt lat="43.5042483" lon="13.0499033"><ele>415.0</ele><time>2026-04-12T08:20:25.232Z</time></trkpt><trkpt lat="43.5042633" lon="13.0498017"><ele>415.0</ele><time>2026-04-12T08:20:26.233Z</time></trkpt><trkpt lat="43.5043567" lon="13.04977"><ele>415.0</ele><time>2026-04-12T08:20:28.233Z</time></trkpt><trkpt lat="43.504435" lon="13.04983"><ele>415.0</ele><time>2026-04-12T08:20:29.233Z</time></trkpt><trkpt lat="43.5044783" lon="13.04993"><ele>415.0</ele><time>2026-04-12T08:20:30.232Z</time></trkpt><trkpt lat="43.50451" lon="13.050065"><ele>415.0</ele><time>2026-04-12T08:20:31.233Z</time></trkpt><trkpt lat="43.504535" lon="13.0502417"><ele>415.0</ele><time>2026-04-12T08:20:32.233Z</time></trkpt><trkpt lat="43.5045783" lon="13.0504067"><ele>415.0</ele><time>2026-04-12T08:20:33.232Z</time></trkpt><trkpt lat="43.5046367" lon="13.0505833"><ele>415.0</ele><time>2026-04-12T08:20:34.233Z</time></trkpt><trkpt lat="43.5047117" lon="13.0507417"><ele>415.0</ele><time>2026-04-12T08:20:35.233Z</time></trkpt><trkpt lat="43.5048083" lon="13.05087"><ele>408.6666666666667</ele><time>2026-04-12T08:20:36.233Z</time></trkpt><trkpt lat="43.5049217" lon="13.0509667"><ele>402.33333333333337</ele><time>2026-04-12T08:20:37.233Z</time></trkpt><trkpt lat="43.5050717" lon="13.051015"><ele>396.0</ele><time>2026-04-12T08:20:38.233Z</time></trkpt><trkpt lat="43.50525" lon="13.0510217"><ele>395.33333333333337</ele><time>2026-04-12T08:20:39.233Z</time></trkpt><trkpt lat="43.5054367" lon="13.05101"><ele>394.6666666666667</ele><time>2026-04-12T08:20:40.233Z</time></trkpt><trkpt lat="43.5056283" lon="13.05097"><ele>394.0</ele><time>2026-04-12T08:20:41.232Z</time></trkpt><trkpt lat="43.5058167" lon="13.050935"><ele>394.0</ele><time>2026-04-12T08:20:42.232Z</time></trkpt><trkpt lat="43.5060083" lon="13.0509"><ele>394.0</ele><time>2026-04-12T08:20:43.233Z</time></trkpt><trkpt lat="43.5061883" lon="13.0508817"><ele>394.0</ele><time>2026-04-12T08:20:44.233Z</time></trkpt><trkpt lat="43.50638" lon="13.0509067"><ele>395.6666666666667</ele><time>2026-04-12T08:20:45.233Z</time></trkpt><trkpt lat="43.5065783" lon="13.0509333"><ele>397.33333333333337</ele><time>2026-04-12T08:20:46.233Z</time></trkpt><trkpt lat="43.50677" lon="13.0509417"><ele>399.0</ele><time>2026-04-12T08:20:47.233Z</time></trkpt><trkpt lat="43.5069783" lon="13.050935"><ele>400.0</ele><time>2026-04-12T08:20:48.233Z</time></trkpt><trkpt lat="43.50719" lon="13.0509217"><ele>401.0</ele><time>2026-04-12T08:20:49.232Z</time></trkpt><trkpt lat="43.5073967" lon="13.0509"><ele>402.0</ele><time>2026-04-12T08:20:50.232Z</time></trkpt><trkpt lat="43.50758" lon="13.0508933"><ele>402.0</ele><time>2026-04-12T08:20:51.233Z</time></trkpt><trkpt lat="43.5077583" lon="13.0508933"><ele>402.0</ele><time>2026-04-12T08:20:52.232Z</time></trkpt><trkpt lat="43.5079333" lon="13.0508883"><ele>402.0</ele><time>2026-04-12T08:20:53.233Z</time></trkpt><trkpt lat="43.5080917" lon="13.0509067"><ele>402.33333333333337</ele><time>2026-04-12T08:20:54.233Z</time></trkpt><trkpt lat="43.508235" lon="13.0509333"><ele>402.6666666666667</ele><time>2026-04-12T08:20:55.233Z</time></trkpt><trkpt lat="43.5083883" lon="13.051"><ele>403.0</ele><time>2026-04-12T08:20:56.232Z</time></trkpt><trkpt lat="43.5085483" lon="13.051075"><ele>403.0</ele><time>2026-04-12T08:20:57.233Z</time></trkpt><trkpt lat="43.508705" lon="13.0511667"><ele>403.0</ele><time>2026-04-12T08:20:58.233Z</time></trkpt><trkpt lat="43.5088533" lon="13.0512667"><ele>403.0</ele><time>2026-04-12T08:20:59.233Z</time></trkpt><trkpt lat="43.509005" lon="13.0513217"><ele>402.6666666666667</ele><time>2026-04-12T08:21:00.232Z</time></trkpt><trkpt lat="43.5091767" lon="13.0513333"><ele>402.33333333333337</ele><time>2026-04-12T08:21:01.233Z</time></trkpt><trkpt lat="43.50934" lon="13.0513267"><ele>402.0</ele><time>2026-04-12T08:21:02.233Z</time></trkpt><trkpt lat="43.5095" lon="13.0513167"><ele>401.25</ele><time>2026-04-12T08:21:03.233Z</time></trkpt><trkpt lat="43.5096517" lon="13.051305"><ele>400.5</ele><time>2026-04-12T08:21:04.233Z</time></trkpt><trkpt lat="43.5097967" lon="13.0513167"><ele>399.75</ele><time>2026-04-12T08:21:05.232Z</time></trkpt><trkpt lat="43.50994" lon="13.0513533"><ele>399.0</ele><time>2026-04-12T08:21:06.233Z</time></trkpt><trkpt lat="43.5100683" lon="13.051425"><ele>399.0</ele><time>2026-04-12T08:21:07.233Z</time></trkpt><trkpt lat="43.5102017" lon="13.0515183"><ele>399.0</ele><time>2026-04-12T08:21:08.233Z</time></trkpt><trkpt lat="43.5103433" lon="13.05162"><ele>399.0</ele><time>2026-04-12T08:21:09.232Z</time></trkpt><trkpt lat="43.5104883" lon="13.0517283"><ele>402.33333333333337</ele><time>2026-04-12T08:21:10.233Z</time></trkpt><trkpt lat="43.5106533" lon="13.0518433"><ele>405.6666666666667</ele><time>2026-04-12T08:21:11.232Z</time></trkpt><trkpt lat="43.510825" lon="13.0519267"><ele>409.0</ele><time>2026-04-12T08:21:12.233Z</time></trkpt><trkpt lat="43.5110117" lon="13.0519717"><ele>409.0</ele><time>2026-04-12T08:21:13.232Z</time></trkpt><trkpt lat="43.5111767" lon="13.0519867"><ele>409.0</ele><time>2026-04-12T08:21:14.233Z</time></trkpt><trkpt lat="43.5113467" lon="13.0519917"><ele>409.0</ele><time>2026-04-12T08:21:15.233Z</time></trkpt><trkpt lat="43.5115083" lon="13.052"><ele>409.5</ele><time>2026-04-12T08:21:16.233Z</time></trkpt><trkpt lat="43.5116667" lon="13.0520033"><ele>410.0</ele><time>2026-04-12T08:21:17.233Z</time></trkpt><trkpt lat="43.5118167" lon="13.0519933"><ele>410.5</ele><time>2026-04-12T08:21:18.233Z</time></trkpt><trkpt lat="43.5119467" lon="13.052015"><ele>411.0</ele><time>2026-04-12T08:21:19.232Z</time></trkpt><trkpt lat="43.5120417" lon="13.052075"><ele>409.25</ele><time>2026-04-12T08:21:20.233Z</time></trkpt><trkpt lat="43.5121117" lon="13.0521783"><ele>407.5</ele><time>2026-04-12T08:21:21.233Z</time></trkpt><trkpt lat="43.5121617" lon="13.05231"><ele>405.75</ele><time>2026-04-12T08:21:22.233Z</time></trkpt><trkpt lat="43.512205" lon="13.0524667"><ele>404.0</ele><time>2026-04-12T08:21:23.232Z</time></trkpt><trkpt lat="43.5122417" lon="13.0526433"><ele>404.0</ele><time>2026-04-12T08:21:24.233Z</time></trkpt><trkpt lat="43.51228" lon="13.0528417"><ele>404.0</ele><time>2026-04-12T08:21:25.233Z</time></trkpt><trkpt lat="43.5123233" lon="13.0530517"><ele>404.0</ele><time>2026-04-12T08:21:26.233Z</time></trkpt><trkpt lat="43.5123683" lon="13.0532667"><ele>404.0</ele><time>2026-04-12T08:21:27.233Z</time></trkpt><trkpt lat="43.512415" lon="13.0535"><ele>404.0</ele><time>2026-04-12T08:21:28.233Z</time></trkpt><trkpt lat="43.5124667" lon="13.0537233"><ele>404.0</ele><time>2026-04-12T08:21:29.233Z</time></trkpt><trkpt lat="43.5125133" lon="13.0539367"><ele>403.0</ele><time>2026-04-12T08:21:30.233Z</time></trkpt><trkpt lat="43.512565" lon="13.054155"><ele>402.0</ele><time>2026-04-12T08:21:31.233Z</time></trkpt><trkpt lat="43.5126117" lon="13.0543783"><ele>401.0</ele><time>2026-04-12T08:21:32.232Z</time></trkpt><trkpt lat="43.5126667" lon="13.0546"><ele>401.0</ele><time>2026-04-12T08:21:33.233Z</time></trkpt><trkpt lat="43.512715" lon="13.0548117"><ele>401.0</ele><time>2026-04-12T08:21:34.233Z</time></trkpt><trkpt lat="43.5127583" lon="13.055025"><ele>401.0</ele><time>2026-04-12T08:21:35.233Z</time></trkpt><trkpt lat="43.5128017" lon="13.0552183"><ele>400.75</ele><time>2026-04-12T08:21:36.232Z</time></trkpt><trkpt lat="43.5128517" lon="13.0553933"><ele>400.5</ele><time>2026-04-12T08:21:37.233Z</time></trkpt><trkpt lat="43.51292" lon="13.0555367"><ele>400.25</ele><time>2026-04-12T08:21:38.232Z</time></trkpt><trkpt lat="43.5129967" lon="13.0556233"><ele>400.0</ele><time>2026-04-12T08:21:39.233Z</time></trkpt><trkpt lat="43.5130933" lon="13.0556367"><ele>397.0</ele><time>2026-04-12T08:21:40.233Z</time></trkpt><trkpt lat="43.513165" lon="13.0555883"><ele>394.0</ele><time>2026-04-12T08:21:41.232Z</time></trkpt><trkpt lat="43.51321" lon="13.0554933"><ele>391.0</ele><time>2026-04-12T08:21:42.233Z</time></trkpt><trkpt lat="43.5132217" lon="13.0553767"><ele>388.0</ele><time>2026-04-12T08:21:43.233Z</time></trkpt><trkpt lat="43.513215" lon="13.0552317"><ele>385.0</ele><time>2026-04-12T08:21:44.233Z</time></trkpt><trkpt lat="43.5132" lon="13.055065"><ele>385.5</ele><time>2026-04-12T08:21:45.233Z</time></trkpt><trkpt lat="43.51318" lon="13.0548817"><ele>386.0</ele><time>2026-04-12T08:21:46.232Z</time></trkpt><trkpt lat="43.513185" lon="13.0546967"><ele>386.5</ele><time>2026-04-12T08:21:47.233Z</time></trkpt><trkpt lat="43.5132117" lon="13.054515"><ele>387.0</ele><time>2026-04-12T08:21:48.232Z</time></trkpt><trkpt lat="43.5132583" lon="13.0543367"><ele>387.0</ele><time>2026-04-12T08:21:49.233Z</time></trkpt><trkpt lat="43.513305" lon="13.0541667"><ele>387.0</ele><time>2026-04-12T08:21:50.232Z</time></trkpt><trkpt lat="43.5133717" lon="13.05399"><ele>387.0</ele><time>2026-04-12T08:21:51.233Z</time></trkpt><trkpt lat="43.513445" lon="13.0538183"><ele>387.0</ele><time>2026-04-12T08:21:52.232Z</time></trkpt><trkpt lat="43.5135183" lon="13.0536517"><ele>387.0</ele><time>2026-04-12T08:21:53.233Z</time></trkpt><trkpt lat="43.5135867" lon="13.0534583"><ele>387.0</ele><time>2026-04-12T08:21:54.232Z</time></trkpt><trkpt lat="43.5136183" lon="13.05327"><ele>387.0</ele><time>2026-04-12T08:21:55.233Z</time></trkpt><trkpt lat="43.513625" lon="13.05312"><ele>387.0</ele><time>2026-04-12T08:21:56.233Z</time></trkpt><trkpt lat="43.5135967" lon="13.0529817"><ele>386.20000000000005</ele><time>2026-04-12T08:21:57.232Z</time></trkpt><trkpt lat="43.5135467" lon="13.05287"><ele>385.4</ele><time>2026-04-12T08:21:58.233Z</time></trkpt><trkpt lat="43.5135183" lon="13.0527667"><ele>384.6</ele><time>2026-04-12T08:21:59.232Z</time></trkpt><trkpt lat="43.51359" lon="13.05264"><ele>383.79999999999995</ele><time>2026-04-12T08:22:01.232Z</time></trkpt><trkpt lat="43.513665" lon="13.052675"><ele>383.0</ele><time>2026-04-12T08:22:02.232Z</time></trkpt><trkpt lat="43.5137383" lon="13.0527417"><ele>379.5</ele><time>2026-04-12T08:22:03.233Z</time></trkpt><trkpt lat="43.5138183" lon="13.052845"><ele>376.0</ele><time>2026-04-12T08:22:04.232Z</time></trkpt><trkpt lat="43.5139067" lon="13.0529667"><ele>372.5</ele><time>2026-04-12T08:22:05.233Z</time></trkpt><trkpt lat="43.5139967" lon="13.053095"><ele>369.0</ele><time>2026-04-12T08:22:06.233Z</time></trkpt><trkpt lat="43.5140867" lon="13.0532067"><ele>369.0</ele><time>2026-04-12T08:22:07.232Z</time></trkpt><trkpt lat="43.51417" lon="13.0532967"><ele>369.0</ele><time>2026-04-12T08:22:08.233Z</time></trkpt><trkpt lat="43.5142617" lon="13.0533633"><ele>369.0</ele><time>2026-04-12T08:22:09.232Z</time></trkpt><trkpt lat="43.51436" lon="13.0533867"><ele>369.0</ele><time>2026-04-12T08:22:10.233Z</time></trkpt><trkpt lat="43.5144533" lon="13.053335"><ele>369.0</ele><time>2026-04-12T08:22:11.233Z</time></trkpt><trkpt lat="43.51453" lon="13.0532417"><ele>367.25</ele><time>2026-04-12T08:22:12.233Z</time></trkpt><trkpt lat="43.5146117" lon="13.0531033"><ele>365.5</ele><time>2026-04-12T08:22:13.233Z</time></trkpt><trkpt lat="43.514695" lon="13.0529433"><ele>363.75</ele><time>2026-04-12T08:22:14.232Z</time></trkpt><trkpt lat="43.5147767" lon="13.0527967"><ele>362.0</ele><time>2026-04-12T08:22:15.233Z</time></trkpt><trkpt lat="43.514885" lon="13.0526783"><ele>362.0</ele><time>2026-04-12T08:22:16.233Z</time></trkpt><trkpt lat="43.5150017" lon="13.05257"><ele>362.0</ele><time>2026-04-12T08:22:17.233Z</time></trkpt><trkpt lat="43.5151467" lon="13.0524483"><ele>362.0</ele><time>2026-04-12T08:22:18.233Z</time></trkpt><trkpt lat="43.515305" lon="13.052325"><ele>357.6666666666667</ele><time>2026-04-12T08:22:19.233Z</time></trkpt><trkpt lat="43.5154533" lon="13.052195"><ele>353.3333333333333</ele><time>2026-04-12T08:22:20.233Z</time></trkpt><trkpt lat="43.5155967" lon="13.05207"><ele>349.0</ele><time>2026-04-12T08:22:21.232Z</time></trkpt><trkpt lat="43.5157417" lon="13.0519467"><ele>349.0</ele><time>2026-04-12T08:22:22.232Z</time></trkpt><trkpt lat="43.5158933" lon="13.0518367"><ele>349.0</ele><time>2026-04-12T08:22:23.233Z</time></trkpt><trkpt lat="43.516055" lon="13.05173"><ele>349.0</ele><time>2026-04-12T08:22:24.233Z</time></trkpt><trkpt lat="43.51623" lon="13.05163"><ele>344.66666666666663</ele><time>2026-04-12T08:22:25.232Z</time></trkpt><trkpt lat="43.5164" lon="13.0515317"><ele>340.3333333333333</ele><time>2026-04-12T08:22:26.232Z</time></trkpt><trkpt lat="43.5165717" lon="13.0514183"><ele>336.0</ele><time>2026-04-12T08:22:27.233Z</time></trkpt><trkpt lat="43.5167367" lon="13.0513317"><ele>336.0</ele><time>2026-04-12T08:22:28.233Z</time></trkpt><trkpt lat="43.51689" lon="13.0512633"><ele>336.0</ele><time>2026-04-12T08:22:29.233Z</time></trkpt><trkpt lat="43.5170417" lon="13.0511983"><ele>336.0</ele><time>2026-04-12T08:22:30.233Z</time></trkpt><trkpt lat="43.5171833" lon="13.0511533"><ele>336.0</ele><time>2026-04-12T08:22:31.232Z</time></trkpt><trkpt lat="43.517345" lon="13.0511383"><ele>336.0</ele><time>2026-04-12T08:22:32.232Z</time></trkpt><trkpt lat="43.5174967" lon="13.0511183"><ele>336.0</ele><time>2026-04-12T08:22:33.233Z</time></trkpt><trkpt lat="43.51767" lon="13.0511067"><ele>336.0</ele><time>2026-04-12T08:22:34.232Z</time></trkpt><trkpt lat="43.517825" lon="13.0511317"><ele>336.0</ele><time>2026-04-12T08:22:35.232Z</time></trkpt><trkpt lat="43.51797" lon="13.0511567"><ele>336.0</ele><time>2026-04-12T08:22:36.232Z</time></trkpt><trkpt lat="43.51814" lon="13.0511633"><ele>334.3333333333333</ele><time>2026-04-12T08:22:37.233Z</time></trkpt><trkpt lat="43.5183183" lon="13.0511667"><ele>332.66666666666663</ele><time>2026-04-12T08:22:38.232Z</time></trkpt><trkpt lat="43.5184967" lon="13.051165"><ele>331.0</ele><time>2026-04-12T08:22:39.233Z</time></trkpt><trkpt lat="43.518685" lon="13.05118"><ele>329.66666666666663</ele><time>2026-04-12T08:22:40.232Z</time></trkpt><trkpt lat="43.518885" lon="13.051195"><ele>328.3333333333333</ele><time>2026-04-12T08:22:41.233Z</time></trkpt><trkpt lat="43.51908" lon="13.0512117"><ele>327.0</ele><time>2026-04-12T08:22:42.233Z</time></trkpt><trkpt lat="43.5192767" lon="13.0512333"><ele>327.0</ele><time>2026-04-12T08:22:43.233Z</time></trkpt><trkpt lat="43.51947" lon="13.051255"><ele>327.0</ele><time>2026-04-12T08:22:44.233Z</time></trkpt><trkpt lat="43.5196533" lon="13.0512783"><ele>327.0</ele><time>2026-04-12T08:22:45.233Z</time></trkpt><trkpt lat="43.5198383" lon="13.0513083"><ele>327.6666666666667</ele><time>2026-04-12T08:22:46.233Z</time></trkpt><trkpt lat="43.520025" lon="13.051335"><ele>328.33333333333337</ele><time>2026-04-12T08:22:47.233Z</time></trkpt><trkpt lat="43.5202117" lon="13.05136"><ele>329.0</ele><time>2026-04-12T08:22:48.233Z</time></trkpt><trkpt lat="43.5204" lon="13.0513917"><ele>329.33333333333337</ele><time>2026-04-12T08:22:49.233Z</time></trkpt><trkpt lat="43.5205917" lon="13.0514183"><ele>329.6666666666667</ele><time>2026-04-12T08:22:50.233Z</time></trkpt><trkpt lat="43.5207783" lon="13.05147"><ele>330.0</ele><time>2026-04-12T08:22:51.233Z</time></trkpt><trkpt lat="43.5209533" lon="13.05154"><ele>329.3333333333333</ele><time>2026-04-12T08:22:52.232Z</time></trkpt><trkpt lat="43.5211267" lon="13.0516317"><ele>328.66666666666663</ele><time>2026-04-12T08:22:53.233Z</time></trkpt><trkpt lat="43.5212967" lon="13.05173"><ele>328.0</ele><time>2026-04-12T08:22:54.232Z</time></trkpt><trkpt lat="43.521475" lon="13.0518283"><ele>328.0</ele><time>2026-04-12T08:22:55.233Z</time></trkpt><trkpt lat="43.5216533" lon="13.0519283"><ele>328.0</ele><time>2026-04-12T08:22:56.233Z</time></trkpt><trkpt lat="43.5218283" lon="13.052025"><ele>328.0</ele><time>2026-04-12T08:22:57.232Z</time></trkpt><trkpt lat="43.52201" lon="13.0521217"><ele>327.66666666666663</ele><time>2026-04-12T08:22:58.233Z</time></trkpt><trkpt lat="43.5221867" lon="13.05221"><ele>327.3333333333333</ele><time>2026-04-12T08:22:59.233Z</time></trkpt><trkpt lat="43.522355" lon="13.0523033"><ele>327.0</ele><time>2026-04-12T08:23:00.232Z</time></trkpt><trkpt lat="43.522525" lon="13.0523917"><ele>328.3333333333333</ele><time>2026-04-12T08:23:01.233Z</time></trkpt><trkpt lat="43.5227033" lon="13.0524567"><ele>329.66666666666663</ele><time>2026-04-12T08:23:02.233Z</time></trkpt><trkpt lat="43.52289" lon="13.0524983"><ele>331.0</ele><time>2026-04-12T08:23:03.233Z</time></trkpt><trkpt lat="43.52309" lon="13.0525133"><ele>333.0</ele><time>2026-04-12T08:23:04.233Z</time></trkpt><trkpt lat="43.5232883" lon="13.0525133"><ele>335.0</ele><time>2026-04-12T08:23:05.233Z</time></trkpt><trkpt lat="43.5234867" lon="13.0525"><ele>337.0</ele><time>2026-04-12T08:23:06.231Z</time></trkpt><trkpt lat="43.52369" lon="13.0525017"><ele>338.3333333333333</ele><time>2026-04-12T08:23:07.232Z</time></trkpt><trkpt lat="43.5238917" lon="13.052485"><ele>339.6666666666667</ele><time>2026-04-12T08:23:08.232Z</time></trkpt><trkpt lat="43.5240917" lon="13.0524867"><ele>341.0</ele><time>2026-04-12T08:23:09.233Z</time></trkpt><trkpt lat="43.524275" lon="13.05249"><ele>341.0</ele><time>2026-04-12T08:23:10.233Z</time></trkpt><trkpt lat="43.5244483" lon="13.0524967"><ele>341.0</ele><time>2026-04-12T08:23:11.233Z</time></trkpt><trkpt lat="43.5246217" lon="13.0525017"><ele>341.0</ele><time>2026-04-12T08:23:12.233Z</time></trkpt><trkpt lat="43.5247967" lon="13.0525183"><ele>342.0</ele><time>2026-04-12T08:23:13.233Z</time></trkpt><trkpt lat="43.52496" lon="13.0525467"><ele>343.0</ele><time>2026-04-12T08:23:14.233Z</time></trkpt><trkpt lat="43.5251183" lon="13.05261"><ele>344.0</ele><time>2026-04-12T08:23:15.233Z</time></trkpt><trkpt lat="43.5252883" lon="13.0526567"><ele>344.33333333333337</ele><time>2026-04-12T08:23:16.232Z</time></trkpt><trkpt lat="43.52546" lon="13.0527083"><ele>344.6666666666667</ele><time>2026-04-12T08:23:17.232Z</time></trkpt><trkpt lat="43.525635" lon="13.052775"><ele>345.0</ele><time>2026-04-12T08:23:18.232Z</time></trkpt><trkpt lat="43.525805" lon="13.0528483"><ele>345.0</ele><time>2026-04-12T08:23:19.233Z</time></trkpt><trkpt lat="43.5259633" lon="13.052915"><ele>345.0</ele><time>2026-04-12T08:23:20.233Z</time></trkpt><trkpt lat="43.5261083" lon="13.0529667"><ele>345.0</ele><time>2026-04-12T08:23:21.233Z</time></trkpt><trkpt lat="43.526255" lon="13.053015"><ele>343.5</ele><time>2026-04-12T08:23:22.232Z</time></trkpt><trkpt lat="43.526385" lon="13.0530733"><ele>342.0</ele><time>2026-04-12T08:23:23.233Z</time></trkpt><trkpt lat="43.5265017" lon="13.0531433"><ele>340.5</ele><time>2026-04-12T08:23:24.233Z</time></trkpt><trkpt lat="43.5266017" lon="13.0532333"><ele>339.0</ele><time>2026-04-12T08:23:25.232Z</time></trkpt><trkpt lat="43.526695" lon="13.053335"><ele>342.25</ele><time>2026-04-12T08:23:26.233Z</time></trkpt><trkpt lat="43.5267917" lon="13.053455"><ele>345.5</ele><time>2026-04-12T08:23:27.233Z</time></trkpt><trkpt lat="43.5269067" lon="13.0535883"><ele>348.75</ele><time>2026-04-12T08:23:28.233Z</time></trkpt><trkpt lat="43.5269967" lon="13.0537383"><ele>352.0</ele><time>2026-04-12T08:23:29.233Z</time></trkpt><trkpt lat="43.5270783" lon="13.0539"><ele>352.0</ele><time>2026-04-12T08:23:30.233Z</time></trkpt><trkpt lat="43.52716" lon="13.05407"><ele>352.0</ele><time>2026-04-12T08:23:31.233Z</time></trkpt><trkpt lat="43.5272417" lon="13.05424"><ele>352.0</ele><time>2026-04-12T08:23:32.233Z</time></trkpt><trkpt lat="43.5273217" lon="13.0544017"><ele>352.0</ele><time>2026-04-12T08:23:33.233Z</time></trkpt><trkpt lat="43.5273933" lon="13.0545683"><ele>356.0</ele><time>2026-04-12T08:23:34.233Z</time></trkpt><trkpt lat="43.5274683" lon="13.0547267"><ele>360.0</ele><time>2026-04-12T08:23:35.233Z</time></trkpt><trkpt lat="43.5275483" lon="13.054875"><ele>364.0</ele><time>2026-04-12T08:23:36.233Z</time></trkpt><trkpt lat="43.5276233" lon="13.0550167"><ele>368.0</ele><time>2026-04-12T08:23:37.232Z</time></trkpt><trkpt lat="43.52769" lon="13.0551767"><ele>368.75</ele><time>2026-04-12T08:23:38.233Z</time></trkpt><trkpt lat="43.5277617" lon="13.0553217"><ele>369.5</ele><time>2026-04-12T08:23:39.233Z</time></trkpt><trkpt lat="43.527835" lon="13.0554833"><ele>370.25</ele><time>2026-04-12T08:23:40.233Z</time></trkpt><trkpt lat="43.52791" lon="13.0556467"><ele>371.0</ele><time>2026-04-12T08:23:41.233Z</time></trkpt><trkpt lat="43.527975" lon="13.0558233"><ele>371.5</ele><time>2026-04-12T08:23:42.233Z</time></trkpt><trkpt lat="43.5280517" lon="13.055995"><ele>372.0</ele><time>2026-04-12T08:23:43.233Z</time></trkpt><trkpt lat="43.5281217" lon="13.0561633"><ele>372.5</ele><time>2026-04-12T08:23:44.233Z</time></trkpt><trkpt lat="43.528195" lon="13.0563283"><ele>373.0</ele><time>2026-04-12T08:23:45.232Z</time></trkpt><trkpt lat="43.52826" lon="13.0564983"><ele>373.25</ele><time>2026-04-12T08:23:46.233Z</time></trkpt><trkpt lat="43.528325" lon="13.0566733"><ele>373.5</ele><time>2026-04-12T08:23:47.233Z</time></trkpt><trkpt lat="43.5283733" lon="13.0568517"><ele>373.75</ele><time>2026-04-12T08:23:48.232Z</time></trkpt><trkpt lat="43.5284117" lon="13.0570333"><ele>374.0</ele><time>2026-04-12T08:23:49.233Z</time></trkpt><trkpt lat="43.52845" lon="13.05722"><ele>374.0</ele><time>2026-04-12T08:23:50.233Z</time></trkpt><trkpt lat="43.5284867" lon="13.0574017"><ele>374.0</ele><time>2026-04-12T08:23:51.232Z</time></trkpt><trkpt lat="43.5285183" lon="13.0575883"><ele>374.0</ele><time>2026-04-12T08:23:52.233Z</time></trkpt><trkpt lat="43.5285483" lon="13.0577783"><ele>374.0</ele><time>2026-04-12T08:23:53.233Z</time></trkpt><trkpt lat="43.5285717" lon="13.0579533"><ele>374.75</ele><time>2026-04-12T08:23:54.233Z</time></trkpt><trkpt lat="43.5285967" lon="13.0581367"><ele>375.5</ele><time>2026-04-12T08:23:55.233Z</time></trkpt><trkpt lat="43.5286283" lon="13.0583017"><ele>376.25</ele><time>2026-04-12T08:23:56.233Z</time></trkpt><trkpt lat="43.5286267" lon="13.05848"><ele>377.0</ele><time>2026-04-12T08:23:57.232Z</time></trkpt><trkpt lat="43.5286117" lon="13.0586317"><ele>377.40000000000003</ele><time>2026-04-12T08:23:58.232Z</time></trkpt><trkpt lat="43.528575" lon="13.058755"><ele>377.8</ele><time>2026-04-12T08:23:59.233Z</time></trkpt><trkpt lat="43.528545" lon="13.0588867"><ele>378.2</ele><time>2026-04-12T08:24:00.233Z</time></trkpt><trkpt lat="43.5284967" lon="13.0590367"><ele>378.6</ele><time>2026-04-12T08:24:01.233Z</time></trkpt><trkpt lat="43.5284583" lon="13.059155"><ele>379.0</ele><time>2026-04-12T08:24:02.232Z</time></trkpt><trkpt lat="43.5284217" lon="13.0592533"><ele>377.79999999999995</ele><time>2026-04-12T08:24:03.233Z</time></trkpt><trkpt lat="43.528355" lon="13.0593567"><ele>376.59999999999997</ele><time>2026-04-12T08:24:05.234Z</time></trkpt><trkpt lat="43.5283533" lon="13.05946"><ele>375.4</ele><time>2026-04-12T08:24:08.233Z</time></trkpt><trkpt lat="43.52843" lon="13.0594583"><ele>374.2</ele><time>2026-04-12T08:24:11.233Z</time></trkpt><trkpt lat="43.5285433" lon="13.05925"><ele>373.0</ele><time>2026-04-12T08:24:13.234Z</time></trkpt><trkpt lat="43.5286167" lon="13.0591267"><ele>374.5</ele><time>2026-04-12T08:24:14.234Z</time></trkpt><trkpt lat="43.5286967" lon="13.05899"><ele>376.0</ele><time>2026-04-12T08:24:15.233Z</time></trkpt><trkpt lat="43.5287633" lon="13.0588533"><ele>377.5</ele><time>2026-04-12T08:24:16.234Z</time></trkpt><trkpt lat="43.5288383" lon="13.058705"><ele>379.0</ele><time>2026-04-12T08:24:17.234Z</time></trkpt><trkpt lat="43.528925" lon="13.0585283"><ele>373.66666666666663</ele><time>2026-04-12T08:24:18.234Z</time></trkpt><trkpt lat="43.5290067" lon="13.0583267"><ele>368.3333333333333</ele><time>2026-04-12T08:24:19.233Z</time></trkpt><trkpt lat="43.529085" lon="13.0581283"><ele>363.0</ele><time>2026-04-12T08:24:20.234Z</time></trkpt><trkpt lat="43.5291567" lon="13.05794"><ele>363.0</ele><time>2026-04-12T08:24:21.234Z</time></trkpt><trkpt lat="43.5292367" lon="13.0577367"><ele>363.0</ele><time>2026-04-12T08:24:22.234Z</time></trkpt><trkpt lat="43.5293033" lon="13.0575233"><ele>363.0</ele><time>2026-04-12T08:24:23.234Z</time></trkpt><trkpt lat="43.5293667" lon="13.05733"><ele>364.0</ele><time>2026-04-12T08:24:24.233Z</time></trkpt><trkpt lat="43.5294283" lon="13.0571283"><ele>365.0</ele><time>2026-04-12T08:24:25.233Z</time></trkpt><trkpt lat="43.5294933" lon="13.05692"><ele>366.0</ele><time>2026-04-12T08:24:26.234Z</time></trkpt><trkpt lat="43.5295533" lon="13.0567067"><ele>358.0</ele><time>2026-04-12T08:24:27.234Z</time></trkpt><trkpt lat="43.5296033" lon="13.05649"><ele>350.0</ele><time>2026-04-12T08:24:28.234Z</time></trkpt><trkpt lat="43.52966" lon="13.0562783"><ele>342.0</ele><time>2026-04-12T08:24:29.234Z</time></trkpt><trkpt lat="43.529725" lon="13.056085"><ele>342.0</ele><time>2026-04-12T08:24:30.234Z</time></trkpt><trkpt lat="43.52978" lon="13.0558783"><ele>342.0</ele><time>2026-04-12T08:24:31.234Z</time></trkpt><trkpt lat="43.5298333" lon="13.055675"><ele>342.0</ele><time>2026-04-12T08:24:32.234Z</time></trkpt><trkpt lat="43.5298733" lon="13.0554817"><ele>342.8</ele><time>2026-04-12T08:24:33.234Z</time></trkpt><trkpt lat="43.529925" lon="13.0553083"><ele>343.6</ele><time>2026-04-12T08:24:34.233Z</time></trkpt><trkpt lat="43.5299483" lon="13.0551567"><ele>344.40000000000003</ele><time>2026-04-12T08:24:35.233Z</time></trkpt><trkpt lat="43.5299733" lon="13.055025"><ele>345.20000000000005</ele><time>2026-04-12T08:24:36.234Z</time></trkpt><trkpt lat="43.5299983" lon="13.0549383"><ele>346.0</ele><time>2026-04-12T08:24:37.233Z</time></trkpt><trkpt lat="43.5300433" lon="13.054825"><ele>346.0</ele><time>2026-04-12T08:24:39.234Z</time></trkpt><trkpt lat="43.5301017" lon="13.0547517"><ele>346.0</ele><time>2026-04-12T08:24:41.234Z</time></trkpt><trkpt lat="43.530195" lon="13.0545983"><ele>346.0</ele><time>2026-04-12T08:24:43.234Z</time></trkpt><trkpt lat="43.5302683" lon="13.054515"><ele>346.0</ele><time>2026-04-12T08:24:44.234Z</time></trkpt><trkpt lat="43.5303583" lon="13.0544217"><ele>346.0</ele><time>2026-04-12T08:24:45.234Z</time></trkpt><trkpt lat="43.5304667" lon="13.0543183"><ele>346.0</ele><time>2026-04-12T08:24:46.234Z</time></trkpt><trkpt lat="43.530585" lon="13.0541967"><ele>346.0</ele><time>2026-04-12T08:24:47.234Z</time></trkpt><trkpt lat="43.5307183" lon="13.0540567"><ele>346.0</ele><time>2026-04-12T08:24:48.234Z</time></trkpt><trkpt lat="43.53086" lon="13.0539183"><ele>344.0</ele><time>2026-04-12T08:24:49.233Z</time></trkpt><trkpt lat="43.5310117" lon="13.053775"><ele>342.0</ele><time>2026-04-12T08:24:50.234Z</time></trkpt><trkpt lat="43.531155" lon="13.0536467"><ele>340.0</ele><time>2026-04-12T08:24:51.234Z</time></trkpt><trkpt lat="43.531295" lon="13.0535267"><ele>340.0</ele><time>2026-04-12T08:24:52.234Z</time></trkpt><trkpt lat="43.5314367" lon="13.0534267"><ele>340.0</ele><time>2026-04-12T08:24:53.234Z</time></trkpt><trkpt lat="43.5315733" lon="13.0533433"><ele>340.0</ele><time>2026-04-12T08:24:54.234Z</time></trkpt><trkpt lat="43.5316983" lon="13.053285"><ele>340.0</ele><time>2026-04-12T08:24:55.233Z</time></trkpt><trkpt lat="43.5318333" lon="13.0532633"><ele>336.5</ele><time>2026-04-12T08:24:56.233Z</time></trkpt><trkpt lat="43.53197" lon="13.0532467"><ele>333.0</ele><time>2026-04-12T08:24:57.234Z</time></trkpt><trkpt lat="43.5321067" lon="13.05325"><ele>329.5</ele><time>2026-04-12T08:24:58.234Z</time></trkpt><trkpt lat="43.5322517" lon="13.05326"><ele>326.0</ele><time>2026-04-12T08:24:59.234Z</time></trkpt><trkpt lat="43.5323967" lon="13.0532633"><ele>326.0</ele><time>2026-04-12T08:25:00.233Z</time></trkpt><trkpt lat="43.53253" lon="13.0532767"><ele>326.0</ele><time>2026-04-12T08:25:01.234Z</time></trkpt><trkpt lat="43.5326517" lon="13.0532767"><ele>326.0</ele><time>2026-04-12T08:25:02.233Z</time></trkpt><trkpt lat="43.53275" lon="13.0532467"><ele>326.0</ele><time>2026-04-12T08:25:03.234Z</time></trkpt><trkpt lat="43.53283" lon="13.0531567"><ele>326.0</ele><time>2026-04-12T08:25:04.234Z</time></trkpt><trkpt lat="43.5328833" lon="13.05302"><ele>326.0</ele><time>2026-04-12T08:25:05.233Z</time></trkpt><trkpt lat="43.5328983" lon="13.0528467"><ele>326.0</ele><time>2026-04-12T08:25:06.233Z</time></trkpt><trkpt lat="43.5328917" lon="13.0526567"><ele>326.0</ele><time>2026-04-12T08:25:07.234Z</time></trkpt><trkpt lat="43.53288" lon="13.0524583"><ele>324.5</ele><time>2026-04-12T08:25:08.234Z</time></trkpt><trkpt lat="43.5328667" lon="13.0522583"><ele>323.0</ele><time>2026-04-12T08:25:09.234Z</time></trkpt><trkpt lat="43.5328467" lon="13.0520483"><ele>321.5</ele><time>2026-04-12T08:25:10.234Z</time></trkpt><trkpt lat="43.5328367" lon="13.051845"><ele>320.0</ele><time>2026-04-12T08:25:11.234Z</time></trkpt><trkpt lat="43.5328233" lon="13.0516517"><ele>318.75</ele><time>2026-04-12T08:25:12.233Z</time></trkpt><trkpt lat="43.532795" lon="13.0514567"><ele>317.5</ele><time>2026-04-12T08:25:13.234Z</time></trkpt><trkpt lat="43.5327417" lon="13.0512683"><ele>316.25</ele><time>2026-04-12T08:25:14.234Z</time></trkpt><trkpt lat="43.532645" lon="13.0510983"><ele>315.0</ele><time>2026-04-12T08:25:15.234Z</time></trkpt><trkpt lat="43.5325217" lon="13.0509367"><ele>315.0</ele><time>2026-04-12T08:25:16.234Z</time></trkpt><trkpt lat="43.53238" lon="13.0508"><ele>315.0</ele><time>2026-04-12T08:25:17.233Z</time></trkpt><trkpt lat="43.532245" lon="13.0506667"><ele>315.0</ele><time>2026-04-12T08:25:18.234Z</time></trkpt><trkpt lat="43.532105" lon="13.0505533"><ele>313.0</ele><time>2026-04-12T08:25:19.234Z</time></trkpt><trkpt lat="43.5319667" lon="13.0504483"><ele>311.0</ele><time>2026-04-12T08:25:20.234Z</time></trkpt><trkpt lat="43.53184" lon="13.050345"><ele>309.0</ele><time>2026-04-12T08:25:21.234Z</time></trkpt><trkpt lat="43.5317317" lon="13.0502417"><ele>307.0</ele><time>2026-04-12T08:25:22.233Z</time></trkpt><trkpt lat="43.531665" lon="13.0501383"><ele>307.0</ele><time>2026-04-12T08:25:23.233Z</time></trkpt><trkpt lat="43.531635" lon="13.0499983"><ele>307.0</ele><time>2026-04-12T08:25:24.233Z</time></trkpt><trkpt lat="43.5316383" lon="13.0498417"><ele>307.0</ele><time>2026-04-12T08:25:25.233Z</time></trkpt><trkpt lat="43.53168" lon="13.0497267"><ele>307.0</ele><time>2026-04-12T08:25:26.234Z</time></trkpt><trkpt lat="43.5317517" lon="13.0496717"><ele>307.0</ele><time>2026-04-12T08:25:27.234Z</time></trkpt><trkpt lat="43.5318767" lon="13.0497"><ele>305.25</ele><time>2026-04-12T08:25:28.233Z</time></trkpt><trkpt lat="43.5319883" lon="13.0497567"><ele>303.5</ele><time>2026-04-12T08:25:29.234Z</time></trkpt><trkpt lat="43.5320983" lon="13.04982"><ele>301.75</ele><time>2026-04-12T08:25:30.234Z</time></trkpt><trkpt lat="43.532205" lon="13.0498583"><ele>300.0</ele><time>2026-04-12T08:25:31.234Z</time></trkpt><trkpt lat="43.532305" lon="13.04982"><ele>298.4</ele><time>2026-04-12T08:25:32.234Z</time></trkpt><trkpt lat="43.532385" lon="13.0497233"><ele>296.8</ele><time>2026-04-12T08:25:33.234Z</time></trkpt><trkpt lat="43.5324167" lon="13.0495867"><ele>295.2</ele><time>2026-04-12T08:25:34.234Z</time></trkpt><trkpt lat="43.5323983" lon="13.0494383"><ele>293.6</ele><time>2026-04-12T08:25:35.234Z</time></trkpt><trkpt lat="43.5323333" lon="13.0493067"><ele>292.0</ele><time>2026-04-12T08:25:36.233Z</time></trkpt><trkpt lat="43.5322467" lon="13.049195"><ele>292.5</ele><time>2026-04-12T08:25:37.233Z</time></trkpt><trkpt lat="43.53214" lon="13.049095"><ele>293.0</ele><time>2026-04-12T08:25:38.234Z</time></trkpt><trkpt lat="43.53203" lon="13.0489867"><ele>293.5</ele><time>2026-04-12T08:25:39.233Z</time></trkpt><trkpt lat="43.531905" lon="13.0488783"><ele>294.0</ele><time>2026-04-12T08:25:40.234Z</time></trkpt><trkpt lat="43.5317783" lon="13.0487583"><ele>294.0</ele><time>2026-04-12T08:25:41.234Z</time></trkpt><trkpt lat="43.5316467" lon="13.048635"><ele>294.0</ele><time>2026-04-12T08:25:42.233Z</time></trkpt><trkpt lat="43.5315317" lon="13.0485217"><ele>294.0</ele><time>2026-04-12T08:25:43.234Z</time></trkpt><trkpt lat="43.5314367" lon="13.04842"><ele>294.0</ele><time>2026-04-12T08:25:44.234Z</time></trkpt><trkpt lat="43.5313633" lon="13.0483133"><ele>292.8</ele><time>2026-04-12T08:25:45.234Z</time></trkpt><trkpt lat="43.5313233" lon="13.0481867"><ele>291.59999999999997</ele><time>2026-04-12T08:25:46.233Z</time></trkpt><trkpt lat="43.5313117" lon="13.0480467"><ele>290.4</ele><time>2026-04-12T08:25:47.234Z</time></trkpt><trkpt lat="43.5313317" lon="13.0479017"><ele>289.2</ele><time>2026-04-12T08:25:48.234Z</time></trkpt><trkpt lat="43.5313983" lon="13.0477567"><ele>288.0</ele><time>2026-04-12T08:25:49.234Z</time></trkpt><trkpt lat="43.5314783" lon="13.0476067"><ele>284.0</ele><time>2026-04-12T08:25:50.234Z</time></trkpt><trkpt lat="43.531585" lon="13.047415"><ele>280.0</ele><time>2026-04-12T08:25:51.234Z</time></trkpt><trkpt lat="43.531695" lon="13.0472367"><ele>276.0</ele><time>2026-04-12T08:25:52.234Z</time></trkpt><trkpt lat="43.53181" lon="13.0470283"><ele>276.0</ele><time>2026-04-12T08:25:53.234Z</time></trkpt><trkpt lat="43.5319133" lon="13.0467967"><ele>276.0</ele><time>2026-04-12T08:25:54.234Z</time></trkpt><trkpt lat="43.532" lon="13.0465533"><ele>276.0</ele><time>2026-04-12T08:25:55.234Z</time></trkpt><trkpt lat="43.5320617" lon="13.046315"><ele>275.6666666666667</ele><time>2026-04-12T08:25:56.234Z</time></trkpt><trkpt lat="43.532125" lon="13.0460683"><ele>275.33333333333337</ele><time>2026-04-12T08:25:57.234Z</time></trkpt><trkpt lat="43.5321883" lon="13.0458183"><ele>275.0</ele><time>2026-04-12T08:25:58.234Z</time></trkpt><trkpt lat="43.5322417" lon="13.0455667"><ele>275.0</ele><time>2026-04-12T08:25:59.234Z</time></trkpt><trkpt lat="43.532305" lon="13.04532"><ele>275.0</ele><time>2026-04-12T08:26:00.234Z</time></trkpt><trkpt lat="43.5323733" lon="13.0450783"><ele>275.0</ele><time>2026-04-12T08:26:01.234Z</time></trkpt><trkpt lat="43.5324267" lon="13.0448333"><ele>275.33333333333337</ele><time>2026-04-12T08:26:02.234Z</time></trkpt><trkpt lat="43.53249" lon="13.0446067"><ele>275.6666666666667</ele><time>2026-04-12T08:26:03.234Z</time></trkpt><trkpt lat="43.5325583" lon="13.0443867"><ele>276.0</ele><time>2026-04-12T08:26:04.234Z</time></trkpt><trkpt lat="43.5326283" lon="13.0441617"><ele>274.3333333333333</ele><time>2026-04-12T08:26:05.234Z</time></trkpt><trkpt lat="43.5327217" lon="13.0439683"><ele>272.66666666666663</ele><time>2026-04-12T08:26:06.234Z</time></trkpt><trkpt lat="43.5328367" lon="13.04379"><ele>271.0</ele><time>2026-04-12T08:26:07.233Z</time></trkpt><trkpt lat="43.5329733" lon="13.0436417"><ele>270.3333333333333</ele><time>2026-04-12T08:26:08.234Z</time></trkpt><trkpt lat="43.5331233" lon="13.0435183"><ele>269.6666666666667</ele><time>2026-04-12T08:26:09.234Z</time></trkpt><trkpt lat="43.53329" lon="13.0434317"><ele>269.0</ele><time>2026-04-12T08:26:10.234Z</time></trkpt><trkpt lat="43.5334567" lon="13.0433517"><ele>267.6666666666667</ele><time>2026-04-12T08:26:11.233Z</time></trkpt><trkpt lat="43.5336267" lon="13.0432733"><ele>266.3333333333333</ele><time>2026-04-12T08:26:12.233Z</time></trkpt><trkpt lat="43.5337917" lon="13.043205"><ele>265.0</ele><time>2026-04-12T08:26:13.233Z</time></trkpt><trkpt lat="43.533955" lon="13.04314"><ele>263.3333333333333</ele><time>2026-04-12T08:26:14.234Z</time></trkpt><trkpt lat="43.5341117" lon="13.0430617"><ele>261.6666666666667</ele><time>2026-04-12T08:26:15.234Z</time></trkpt><trkpt lat="43.534265" lon="13.0429933"><ele>260.0</ele><time>2026-04-12T08:26:16.234Z</time></trkpt><trkpt lat="43.5344217" lon="13.0429267"><ele>259.0</ele><time>2026-04-12T08:26:17.234Z</time></trkpt><trkpt lat="43.5345817" lon="13.042865"><ele>258.0</ele><time>2026-04-12T08:26:18.233Z</time></trkpt><trkpt lat="43.5347367" lon="13.0428067"><ele>257.0</ele><time>2026-04-12T08:26:19.233Z</time></trkpt><trkpt lat="43.534895" lon="13.0427283"><ele>257.0</ele><time>2026-04-12T08:26:20.233Z</time></trkpt><trkpt lat="43.5350633" lon="13.0426633"><ele>257.0</ele><time>2026-04-12T08:26:21.234Z</time></trkpt><trkpt lat="43.535215" lon="13.0425833"><ele>257.0</ele><time>2026-04-12T08:26:22.234Z</time></trkpt><trkpt lat="43.5353667" lon="13.0425117"><ele>254.66666666666669</ele><time>2026-04-12T08:26:23.234Z</time></trkpt><trkpt lat="43.5355217" lon="13.0424567"><ele>252.33333333333331</ele><time>2026-04-12T08:26:24.233Z</time></trkpt><trkpt lat="43.5356917" lon="13.0423967"><ele>250.0</ele><time>2026-04-12T08:26:25.234Z</time></trkpt><trkpt lat="43.5358583" lon="13.0423233"><ele>250.0</ele><time>2026-04-12T08:26:26.234Z</time></trkpt><trkpt lat="43.53601" lon="13.0422767"><ele>250.0</ele><time>2026-04-12T08:26:27.234Z</time></trkpt><trkpt lat="43.5361667" lon="13.0422167"><ele>250.0</ele><time>2026-04-12T08:26:28.234Z</time></trkpt><trkpt lat="43.5363233" lon="13.0421567"><ele>249.0</ele><time>2026-04-12T08:26:29.234Z</time></trkpt><trkpt lat="43.5364767" lon="13.0421067"><ele>248.0</ele><time>2026-04-12T08:26:30.234Z</time></trkpt><trkpt lat="43.5366267" lon="13.042055"><ele>247.0</ele><time>2026-04-12T08:26:31.234Z</time></trkpt><trkpt lat="43.5367717" lon="13.04197"><ele>247.0</ele><time>2026-04-12T08:26:32.234Z</time></trkpt><trkpt lat="43.5368933" lon="13.0418517"><ele>247.0</ele><time>2026-04-12T08:26:33.234Z</time></trkpt><trkpt lat="43.53703" lon="13.0417183"><ele>247.0</ele><time>2026-04-12T08:26:34.234Z</time></trkpt><trkpt lat="43.5371733" lon="13.0415867"><ele>244.0</ele><time>2026-04-12T08:26:35.234Z</time></trkpt><trkpt lat="43.5373133" lon="13.0414567"><ele>241.0</ele><time>2026-04-12T08:26:36.234Z</time></trkpt><trkpt lat="43.53745" lon="13.041325"><ele>238.0</ele><time>2026-04-12T08:26:37.234Z</time></trkpt><trkpt lat="43.5375833" lon="13.0412133"><ele>238.0</ele><time>2026-04-12T08:26:38.234Z</time></trkpt><trkpt lat="43.5377083" lon="13.0410717"><ele>238.0</ele><time>2026-04-12T08:26:39.234Z</time></trkpt><trkpt lat="43.5378283" lon="13.0409183"><ele>238.0</ele><time>2026-04-12T08:26:40.234Z</time></trkpt><trkpt lat="43.5379317" lon="13.040755"><ele>236.33333333333331</ele><time>2026-04-12T08:26:41.233Z</time></trkpt><trkpt lat="43.538035" lon="13.0405833"><ele>234.66666666666669</ele><time>2026-04-12T08:26:42.234Z</time></trkpt><trkpt lat="43.538145" lon="13.0404117"><ele>233.0</ele><time>2026-04-12T08:26:43.234Z</time></trkpt><trkpt lat="43.538265" lon="13.0402717"><ele>233.0</ele><time>2026-04-12T08:26:44.234Z</time></trkpt><trkpt lat="43.538395" lon="13.0401483"><ele>233.0</ele><time>2026-04-12T08:26:45.233Z</time></trkpt><trkpt lat="43.538535" lon="13.040035"><ele>233.0</ele><time>2026-04-12T08:26:46.234Z</time></trkpt><trkpt lat="43.53869" lon="13.03992"><ele>228.66666666666669</ele><time>2026-04-12T08:26:47.233Z</time></trkpt><trkpt lat="43.53882" lon="13.0398"><ele>224.33333333333331</ele><time>2026-04-12T08:26:48.234Z</time></trkpt><trkpt lat="43.5389383" lon="13.039655"><ele>220.0</ele><time>2026-04-12T08:26:49.234Z</time></trkpt><trkpt lat="43.5390483" lon="13.039535"><ele>220.0</ele><time>2026-04-12T08:26:50.234Z</time></trkpt><trkpt lat="43.5391567" lon="13.039365"><ele>220.0</ele><time>2026-04-12T08:26:51.234Z</time></trkpt><trkpt lat="43.5392617" lon="13.0391833"><ele>220.0</ele><time>2026-04-12T08:26:52.233Z</time></trkpt><trkpt lat="43.53937" lon="13.0390183"><ele>219.0</ele><time>2026-04-12T08:26:53.234Z</time></trkpt><trkpt lat="43.53949" lon="13.038875"><ele>218.0</ele><time>2026-04-12T08:26:54.234Z</time></trkpt><trkpt lat="43.5396133" lon="13.0387433"><ele>217.0</ele><time>2026-04-12T08:26:55.234Z</time></trkpt><trkpt lat="43.5397333" lon="13.0386117"><ele>217.0</ele><time>2026-04-12T08:26:56.233Z</time></trkpt><trkpt lat="43.5398633" lon="13.03848"><ele>217.0</ele><time>2026-04-12T08:26:57.234Z</time></trkpt><trkpt lat="43.539985" lon="13.0383667"><ele>217.0</ele><time>2026-04-12T08:26:58.234Z</time></trkpt><trkpt lat="43.540105" lon="13.03826"><ele>215.25</ele><time>2026-04-12T08:26:59.234Z</time></trkpt><trkpt lat="43.5402083" lon="13.03816"><ele>213.5</ele><time>2026-04-12T08:27:00.234Z</time></trkpt><trkpt lat="43.5403033" lon="13.0380567"><ele>211.75</ele><time>2026-04-12T08:27:01.234Z</time></trkpt><trkpt lat="43.5404017" lon="13.03798"><ele>210.0</ele><time>2026-04-12T08:27:02.233Z</time></trkpt><trkpt lat="43.5405067" lon="13.0378983"><ele>210.0</ele><time>2026-04-12T08:27:03.234Z</time></trkpt><trkpt lat="43.54061" lon="13.0378383"><ele>210.0</ele><time>2026-04-12T08:27:04.234Z</time></trkpt><trkpt lat="43.5407117" lon="13.03779"><ele>210.0</ele><time>2026-04-12T08:27:05.234Z</time></trkpt><trkpt lat="43.54081" lon="13.037745"><ele>210.0</ele><time>2026-04-12T08:27:06.233Z</time></trkpt><trkpt lat="43.540885" lon="13.037705"><ele>210.0</ele><time>2026-04-12T08:27:07.234Z</time></trkpt><trkpt lat="43.5409583" lon="13.0376833"><ele>210.0</ele><time>2026-04-12T08:27:08.234Z</time></trkpt><trkpt lat="43.5410467" lon="13.0376467"><ele>210.0</ele><time>2026-04-12T08:27:10.234Z</time></trkpt><trkpt lat="43.541125" lon="13.0376183"><ele>210.0</ele><time>2026-04-12T08:27:13.234Z</time></trkpt><trkpt lat="43.5412333" lon="13.0376317"><ele>210.0</ele><time>2026-04-12T08:27:44.234Z</time></trkpt><trkpt lat="43.541335" lon="13.0375983"><ele>210.0</ele><time>2026-04-12T08:27:46.234Z</time></trkpt><trkpt lat="43.5413933" lon="13.037555"><ele>209.83333333333334</ele><time>2026-04-12T08:27:47.233Z</time></trkpt><trkpt lat="43.5414383" lon="13.0374867"><ele>209.66666666666669</ele><time>2026-04-12T08:27:48.234Z</time></trkpt><trkpt lat="43.5414583" lon="13.037395"><ele>209.5</ele><time>2026-04-12T08:27:49.233Z</time></trkpt><trkpt lat="43.5414483" lon="13.0373"><ele>209.33333333333334</ele><time>2026-04-12T08:27:50.234Z</time></trkpt><trkpt lat="43.54143" lon="13.03721"><ele>209.16666666666669</ele><time>2026-04-12T08:27:51.234Z</time></trkpt><trkpt lat="43.5413367" lon="13.0371667"><ele>209.0</ele><time>2026-04-12T08:27:52.234Z</time></trkpt><trkpt lat="43.5412517" lon="13.0371283"><ele>206.75</ele><time>2026-04-12T08:27:53.234Z</time></trkpt><trkpt lat="43.541145" lon="13.0371383"><ele>204.5</ele><time>2026-04-12T08:27:54.234Z</time></trkpt><trkpt lat="43.5410383" lon="13.0371567"><ele>202.25</ele><time>2026-04-12T08:27:55.234Z</time></trkpt><trkpt lat="43.5409217" lon="13.03716"><ele>200.0</ele><time>2026-04-12T08:27:56.234Z</time></trkpt><trkpt lat="43.5407933" lon="13.0371283"><ele>200.0</ele><time>2026-04-12T08:27:57.234Z</time></trkpt><trkpt lat="43.540665" lon="13.037105"><ele>200.0</ele><time>2026-04-12T08:27:58.234Z</time></trkpt><trkpt lat="43.5405283" lon="13.037075"><ele>200.0</ele><time>2026-04-12T08:27:59.234Z</time></trkpt><trkpt lat="43.5403767" lon="13.03704"><ele>200.0</ele><time>2026-04-12T08:28:00.234Z</time></trkpt><trkpt lat="43.5402167" lon="13.0370217"><ele>199.75</ele><time>2026-04-12T08:28:01.233Z</time></trkpt><trkpt lat="43.5400667" lon="13.03703"><ele>199.5</ele><time>2026-04-12T08:28:02.234Z</time></trkpt><trkpt lat="43.53993" lon="13.0370533"><ele>199.25</ele><time>2026-04-12T08:28:03.233Z</time></trkpt><trkpt lat="43.539795" lon="13.03709"><ele>199.0</ele><time>2026-04-12T08:28:04.233Z</time></trkpt><trkpt lat="43.5396733" lon="13.037135"><ele>199.0</ele><time>2026-04-12T08:28:05.233Z</time></trkpt><trkpt lat="43.53957" lon="13.0371683"><ele>199.0</ele><time>2026-04-12T08:28:06.234Z</time></trkpt><trkpt lat="43.5394767" lon="13.037185"><ele>199.0</ele><time>2026-04-12T08:28:07.233Z</time></trkpt><trkpt lat="43.5393933" lon="13.03717"><ele>199.0</ele><time>2026-04-12T08:28:08.234Z</time></trkpt><trkpt lat="43.5393117" lon="13.037065"><ele>199.0</ele><time>2026-04-12T08:28:10.234Z</time></trkpt><trkpt lat="43.5393867" lon="13.0369217"><ele>197.0</ele><time>2026-04-12T08:28:11.233Z</time></trkpt><trkpt lat="43.5394583" lon="13.0368133"><ele>195.0</ele><time>2026-04-12T08:28:12.234Z</time></trkpt><trkpt lat="43.53955" lon="13.0366983"><ele>193.0</ele><time>2026-04-12T08:28:13.234Z</time></trkpt><trkpt lat="43.53965" lon="13.0365883"><ele>191.0</ele><time>2026-04-12T08:28:14.234Z</time></trkpt><trkpt lat="43.5397683" lon="13.036465"><ele>189.66666666666666</ele><time>2026-04-12T08:28:15.233Z</time></trkpt><trkpt lat="43.5398967" lon="13.036355"><ele>188.33333333333334</ele><time>2026-04-12T08:28:16.233Z</time></trkpt><trkpt lat="43.5400417" lon="13.0362567"><ele>187.0</ele><time>2026-04-12T08:28:17.233Z</time></trkpt><trkpt lat="43.5401817" lon="13.0361967"><ele>187.0</ele><time>2026-04-12T08:28:18.234Z</time></trkpt><trkpt lat="43.540325" lon="13.0361383"><ele>187.0</ele><time>2026-04-12T08:28:19.234Z</time></trkpt><trkpt lat="43.5404833" lon="13.03613"><ele>187.0</ele><time>2026-04-12T08:28:20.234Z</time></trkpt><trkpt lat="43.5406367" lon="13.0361233"><ele>186.25</ele><time>2026-04-12T08:28:21.233Z</time></trkpt><trkpt lat="43.540785" lon="13.0361183"><ele>185.5</ele><time>2026-04-12T08:28:22.234Z</time></trkpt><trkpt lat="43.5409317" lon="13.0361067"><ele>184.75</ele><time>2026-04-12T08:28:23.234Z</time></trkpt><trkpt lat="43.54108" lon="13.0360917"><ele>184.0</ele><time>2026-04-12T08:28:24.234Z</time></trkpt><trkpt lat="43.5412183" lon="13.036055"><ele>184.0</ele><time>2026-04-12T08:28:25.234Z</time></trkpt><trkpt lat="43.5413467" lon="13.0360067"><ele>184.0</ele><time>2026-04-12T08:28:26.233Z</time></trkpt><trkpt lat="43.54146" lon="13.0359283"><ele>184.0</ele><time>2026-04-12T08:28:27.233Z</time></trkpt><trkpt lat="43.5415683" lon="13.03582"><ele>184.0</ele><time>2026-04-12T08:28:28.233Z</time></trkpt><trkpt lat="43.5416733" lon="13.0356983"><ele>182.5</ele><time>2026-04-12T08:28:29.233Z</time></trkpt><trkpt lat="43.5417633" lon="13.0355683"><ele>181.0</ele><time>2026-04-12T08:28:30.234Z</time></trkpt><trkpt lat="43.541855" lon="13.0354283"><ele>179.5</ele><time>2026-04-12T08:28:31.233Z</time></trkpt><trkpt lat="43.5419517" lon="13.0353183"><ele>178.0</ele><time>2026-04-12T08:28:32.234Z</time></trkpt><trkpt lat="43.5420567" lon="13.03517"><ele>178.0</ele><time>2026-04-12T08:28:33.234Z</time></trkpt><trkpt lat="43.542145" lon="13.0350383"><ele>178.0</ele><time>2026-04-12T08:28:34.234Z</time></trkpt><trkpt lat="43.54223" lon="13.034905"><ele>178.0</ele><time>2026-04-12T08:28:35.233Z</time></trkpt><trkpt lat="43.542345" lon="13.0348283"><ele>178.0</ele><time>2026-04-12T08:28:36.233Z</time></trkpt><trkpt lat="43.5424717" lon="13.0347583"><ele>175.2</ele><time>2026-04-12T08:28:37.234Z</time></trkpt><trkpt lat="43.54259" lon="13.0347233"><ele>172.4</ele><time>2026-04-12T08:28:38.233Z</time></trkpt><trkpt lat="43.5426817" lon="13.034675"><ele>169.6</ele><time>2026-04-12T08:28:39.234Z</time></trkpt><trkpt lat="43.54276" lon="13.0345933"><ele>166.79999999999998</ele><time>2026-04-12T08:28:40.234Z</time></trkpt><trkpt lat="43.542795" lon="13.0344783"><ele>164.0</ele><time>2026-04-12T08:28:41.233Z</time></trkpt><trkpt lat="43.54278" lon="13.03436"><ele>164.0</ele><time>2026-04-12T08:28:42.234Z</time></trkpt><trkpt lat="43.5427267" lon="13.0342383"><ele>164.0</ele><time>2026-04-12T08:28:43.233Z</time></trkpt><trkpt lat="43.5426517" lon="13.0341467"><ele>164.0</ele><time>2026-04-12T08:28:44.234Z</time></trkpt><trkpt lat="43.5425467" lon="13.0340983"><ele>164.0</ele><time>2026-04-12T08:28:45.234Z</time></trkpt><trkpt lat="43.5424317" lon="13.0340867"><ele>164.0</ele><time>2026-04-12T08:28:46.234Z</time></trkpt><trkpt lat="43.5423267" lon="13.03409"><ele>162.2</ele><time>2026-04-12T08:28:47.234Z</time></trkpt><trkpt lat="43.5422217" lon="13.0340967"><ele>160.39999999999998</ele><time>2026-04-12T08:28:48.234Z</time></trkpt><trkpt lat="43.5421133" lon="13.03411"><ele>158.6</ele><time>2026-04-12T08:28:49.234Z</time></trkpt><trkpt lat="43.542" lon="13.0341183"><ele>156.8</ele><time>2026-04-12T08:28:50.234Z</time></trkpt><trkpt lat="43.5418883" lon="13.0340983"><ele>155.0</ele><time>2026-04-12T08:28:51.234Z</time></trkpt><trkpt lat="43.5417917" lon="13.034055"><ele>154.83333333333331</ele><time>2026-04-12T08:28:52.233Z</time></trkpt><trkpt lat="43.541715" lon="13.0339883"><ele>154.66666666666666</ele><time>2026-04-12T08:28:53.234Z</time></trkpt><trkpt lat="43.541645" lon="13.0339017"><ele>154.5</ele><time>2026-04-12T08:28:54.234Z</time></trkpt><trkpt lat="43.5415917" lon="13.03381"><ele>154.33333333333334</ele><time>2026-04-12T08:28:55.233Z</time></trkpt><trkpt lat="43.5415533" lon="13.0336933"><ele>154.16666666666669</ele><time>2026-04-12T08:28:56.233Z</time></trkpt><trkpt lat="43.54154" lon="13.03358"><ele>154.0</ele><time>2026-04-12T08:28:57.233Z</time></trkpt><trkpt lat="43.5415467" lon="13.0334883"><ele>154.0</ele><time>2026-04-12T08:28:58.233Z</time></trkpt><trkpt lat="43.541635" lon="13.033405"><ele>154.0</ele><time>2026-04-12T08:28:59.234Z</time></trkpt><trkpt lat="43.5417333" lon="13.0333233"><ele>154.0</ele><time>2026-04-12T08:29:00.234Z</time></trkpt><trkpt lat="43.5418433" lon="13.03324"><ele>154.0</ele><time>2026-04-12T08:29:01.233Z</time></trkpt><trkpt lat="43.5419533" lon="13.033155"><ele>151.75</ele><time>2026-04-12T08:29:02.234Z</time></trkpt><trkpt lat="43.5420667" lon="13.0330617"><ele>149.5</ele><time>2026-04-12T08:29:03.234Z</time></trkpt><trkpt lat="43.5421883" lon="13.03296"><ele>147.25</ele><time>2026-04-12T08:29:04.234Z</time></trkpt><trkpt lat="43.542305" lon="13.0328783"><ele>145.0</ele><time>2026-04-12T08:29:05.233Z</time></trkpt><trkpt lat="43.54242" lon="13.0328"><ele>145.0</ele><time>2026-04-12T08:29:06.234Z</time></trkpt><trkpt lat="43.542545" lon="13.0327333"><ele>145.0</ele><time>2026-04-12T08:29:07.234Z</time></trkpt><trkpt lat="43.542655" lon="13.0326517"><ele>145.0</ele><time>2026-04-12T08:29:08.234Z</time></trkpt><trkpt lat="43.5427517" lon="13.0325633"><ele>145.0</ele><time>2026-04-12T08:29:09.233Z</time></trkpt><trkpt lat="43.54284" lon="13.0324333"><ele>142.75</ele><time>2026-04-12T08:29:10.233Z</time></trkpt><trkpt lat="43.5429" lon="13.0322817"><ele>140.5</ele><time>2026-04-12T08:29:11.234Z</time></trkpt><trkpt lat="43.5429433" lon="13.0321183"><ele>138.25</ele><time>2026-04-12T08:29:12.234Z</time></trkpt><trkpt lat="43.542975" lon="13.03194"><ele>136.0</ele><time>2026-04-12T08:29:13.234Z</time></trkpt><trkpt lat="43.5429917" lon="13.031765"><ele>135.25</ele><time>2026-04-12T08:29:14.234Z</time></trkpt><trkpt lat="43.5430067" lon="13.0315917"><ele>134.5</ele><time>2026-04-12T08:29:15.233Z</time></trkpt><trkpt lat="43.5430233" lon="13.03142"><ele>133.75</ele><time>2026-04-12T08:29:16.233Z</time></trkpt><trkpt lat="43.5430517" lon="13.03126"><ele>133.0</ele><time>2026-04-12T08:29:17.234Z</time></trkpt><trkpt lat="43.5430817" lon="13.0311017"><ele>133.0</ele><time>2026-04-12T08:29:18.234Z</time></trkpt><trkpt lat="43.54313" lon="13.0309283"><ele>133.0</ele><time>2026-04-12T08:29:19.233Z</time></trkpt><trkpt lat="43.543185" lon="13.03075"><ele>133.0</ele><time>2026-04-12T08:29:20.234Z</time></trkpt><trkpt lat="43.5432333" lon="13.0305817"><ele>133.0</ele><time>2026-04-12T08:29:21.234Z</time></trkpt><trkpt lat="43.5432883" lon="13.030405"><ele>132.0</ele><time>2026-04-12T08:29:22.233Z</time></trkpt><trkpt lat="43.5433367" lon="13.030225"><ele>131.0</ele><time>2026-04-12T08:29:23.233Z</time></trkpt><trkpt lat="43.54339" lon="13.0300417"><ele>130.0</ele><time>2026-04-12T08:29:24.234Z</time></trkpt><trkpt lat="43.5434367" lon="13.0298567"><ele>129.0</ele><time>2026-04-12T08:29:25.234Z</time></trkpt><trkpt lat="43.5434867" lon="13.02967"><ele>128.25</ele><time>2026-04-12T08:29:26.233Z</time></trkpt><trkpt lat="43.543535" lon="13.0294817"><ele>127.5</ele><time>2026-04-12T08:29:27.234Z</time></trkpt><trkpt lat="43.5435867" lon="13.0292967"><ele>126.75</ele><time>2026-04-12T08:29:28.233Z</time></trkpt><trkpt lat="43.5436433" lon="13.0291117"><ele>126.0</ele><time>2026-04-12T08:29:29.234Z</time></trkpt><trkpt lat="43.5436833" lon="13.0289267"><ele>124.5</ele><time>2026-04-12T08:29:30.234Z</time></trkpt><trkpt lat="43.5437267" lon="13.028735"><ele>123.0</ele><time>2026-04-12T08:29:31.234Z</time></trkpt><trkpt lat="43.54377" lon="13.0285417"><ele>121.5</ele><time>2026-04-12T08:29:32.234Z</time></trkpt><trkpt lat="43.5438217" lon="13.028355"><ele>120.0</ele><time>2026-04-12T08:29:33.234Z</time></trkpt><trkpt lat="43.5438667" lon="13.02817"><ele>120.0</ele><time>2026-04-12T08:29:34.234Z</time></trkpt><trkpt lat="43.5439067" lon="13.0279717"><ele>120.0</ele><time>2026-04-12T08:29:35.234Z</time></trkpt><trkpt lat="43.5439767" lon="13.0277667"><ele>120.0</ele><time>2026-04-12T08:29:36.234Z</time></trkpt><trkpt lat="43.544015" lon="13.0275767"><ele>120.5</ele><time>2026-04-12T08:29:37.233Z</time></trkpt><trkpt lat="43.54406" lon="13.027395"><ele>121.0</ele><time>2026-04-12T08:29:38.234Z</time></trkpt><trkpt lat="43.5441083" lon="13.02721"><ele>121.5</ele><time>2026-04-12T08:29:39.234Z</time></trkpt><trkpt lat="43.5441567" lon="13.027035"><ele>122.0</ele><time>2026-04-12T08:29:40.234Z</time></trkpt><trkpt lat="43.5442017" lon="13.026865"><ele>122.0</ele><time>2026-04-12T08:29:41.234Z</time></trkpt><trkpt lat="43.54425" lon="13.0266767"><ele>122.0</ele><time>2026-04-12T08:29:42.234Z</time></trkpt><trkpt lat="43.5443017" lon="13.0264883"><ele>122.0</ele><time>2026-04-12T08:29:43.233Z</time></trkpt><trkpt lat="43.5443683" lon="13.0263"><ele>122.0</ele><time>2026-04-12T08:29:44.234Z</time></trkpt><trkpt lat="43.544415" lon="13.026125"><ele>122.0</ele><time>2026-04-12T08:29:45.234Z</time></trkpt><trkpt lat="43.54447" lon="13.0259583"><ele>122.0</ele><time>2026-04-12T08:29:46.234Z</time></trkpt><trkpt lat="43.5445167" lon="13.0257833"><ele>122.0</ele><time>2026-04-12T08:29:47.234Z</time></trkpt><trkpt lat="43.5445667" lon="13.0256067"><ele>122.0</ele><time>2026-04-12T08:29:48.234Z</time></trkpt><trkpt lat="43.5446133" lon="13.025425"><ele>122.0</ele><time>2026-04-12T08:29:49.234Z</time></trkpt><trkpt lat="43.544655" lon="13.0252483"><ele>122.0</ele><time>2026-04-12T08:29:50.234Z</time></trkpt><trkpt lat="43.5447" lon="13.0250833"><ele>122.0</ele><time>2026-04-12T08:29:51.234Z</time></trkpt><trkpt lat="43.54474" lon="13.0249233"><ele>122.0</ele><time>2026-04-12T08:29:52.234Z</time></trkpt><trkpt lat="43.54478" lon="13.024765"><ele>122.39999999999999</ele><time>2026-04-12T08:29:53.234Z</time></trkpt><trkpt lat="43.5448183" lon="13.0246117"><ele>122.79999999999998</ele><time>2026-04-12T08:29:54.233Z</time></trkpt><trkpt lat="43.5448567" lon="13.0244733"><ele>123.2</ele><time>2026-04-12T08:29:55.233Z</time></trkpt><trkpt lat="43.5449017" lon="13.02434"><ele>123.6</ele><time>2026-04-12T08:29:56.234Z</time></trkpt><trkpt lat="43.54495" lon="13.0242067"><ele>124.0</ele><time>2026-04-12T08:29:57.234Z</time></trkpt><trkpt lat="43.5449817" lon="13.0240833"><ele>124.50000000000001</ele><time>2026-04-12T08:29:58.234Z</time></trkpt><trkpt lat="43.5450033" lon="13.0239683"><ele>125.0</ele><time>2026-04-12T08:29:59.234Z</time></trkpt><trkpt lat="43.5450233" lon="13.02387"><ele>125.5</ele><time>2026-04-12T08:30:00.233Z</time></trkpt><trkpt lat="43.5450367" lon="13.0237833"><ele>126.0</ele><time>2026-04-12T08:30:01.233Z</time></trkpt><trkpt lat="43.5450733" lon="13.023645"><ele>126.50000000000001</ele><time>2026-04-12T08:30:03.233Z</time></trkpt><trkpt lat="43.54511" lon="13.0235283"><ele>127.0</ele><time>2026-04-12T08:30:05.234Z</time></trkpt><trkpt lat="43.5451417" lon="13.0234117"><ele>127.66666666666667</ele><time>2026-04-12T08:30:08.234Z</time></trkpt><trkpt lat="43.5451417" lon="13.0232983"><ele>128.33333333333334</ele><time>2026-04-12T08:30:12.234Z</time></trkpt><trkpt lat="43.545165" lon="13.0231783"><ele>129.0</ele><time>2026-04-12T08:30:15.234Z</time></trkpt><trkpt lat="43.5452017" lon="13.02309"><ele>129.66666666666666</ele><time>2026-04-12T08:30:18.234Z</time></trkpt><trkpt lat="43.5452317" lon="13.023"><ele>130.33333333333331</ele><time>2026-04-12T08:30:23.233Z</time></trkpt><trkpt lat="43.5452" lon="13.0228883"><ele>131.0</ele><time>2026-04-12T08:30:39.234Z</time></trkpt><trkpt lat="43.5452467" lon="13.0229467"><ele>131.0</ele><time>2026-04-12T08:57:02.234Z</time></trkpt><trkpt lat="43.545265" lon="13.0228133"><ele>131.0</ele><time>2026-04-12T08:57:58.234Z</time></trkpt><trkpt lat="43.5453067" lon="13.0227267"><ele>131.0</ele><time>2026-04-12T08:57:59.235Z</time></trkpt><trkpt lat="43.54535" lon="13.0226517"><ele>131.0</ele><time>2026-04-12T08:58:00.235Z</time></trkpt><trkpt lat="43.5454417" lon="13.0226033"><ele>131.0</ele><time>2026-04-12T08:58:02.235Z</time></trkpt><trkpt lat="43.54551" lon="13.0226133"><ele>131.0</ele><time>2026-04-12T08:58:03.235Z</time></trkpt><trkpt lat="43.5455833" lon="13.0226383"><ele>130.4</ele><time>2026-04-12T08:58:04.235Z</time></trkpt><trkpt lat="43.5456667" lon="13.0226767"><ele>129.8</ele><time>2026-04-12T08:58:05.235Z</time></trkpt><trkpt lat="43.5457583" lon="13.0227"><ele>129.20000000000002</ele><time>2026-04-12T08:58:06.235Z</time></trkpt><trkpt lat="43.54586" lon="13.02271"><ele>128.6</ele><time>2026-04-12T08:58:07.234Z</time></trkpt><trkpt lat="43.54597" lon="13.0227383"><ele>128.0</ele><time>2026-04-12T08:58:08.235Z</time></trkpt><trkpt lat="43.5460833" lon="13.02276"><ele>128.0</ele><time>2026-04-12T08:58:09.234Z</time></trkpt><trkpt lat="43.5461967" lon="13.02279"><ele>128.0</ele><time>2026-04-12T08:58:10.235Z</time></trkpt><trkpt lat="43.5463117" lon="13.0228233"><ele>128.0</ele><time>2026-04-12T08:58:11.235Z</time></trkpt><trkpt lat="43.546425" lon="13.0228467"><ele>128.0</ele><time>2026-04-12T08:58:12.235Z</time></trkpt><trkpt lat="43.54655" lon="13.022865"><ele>128.75</ele><time>2026-04-12T08:58:13.234Z</time></trkpt><trkpt lat="43.5466733" lon="13.022895"><ele>129.5</ele><time>2026-04-12T08:58:14.235Z</time></trkpt><trkpt lat="43.5467917" lon="13.022945"><ele>130.25</ele><time>2026-04-12T08:58:15.234Z</time></trkpt><trkpt lat="43.546895" lon="13.0229833"><ele>131.0</ele><time>2026-04-12T08:58:16.235Z</time></trkpt><trkpt lat="43.54702" lon="13.02302"><ele>131.5</ele><time>2026-04-12T08:58:17.235Z</time></trkpt><trkpt lat="43.5471467" lon="13.0230483"><ele>132.0</ele><time>2026-04-12T08:58:18.234Z</time></trkpt><trkpt lat="43.5472717" lon="13.0230733"><ele>132.5</ele><time>2026-04-12T08:58:19.234Z</time></trkpt><trkpt lat="43.5473983" lon="13.023095"><ele>133.0</ele><time>2026-04-12T08:58:20.234Z</time></trkpt><trkpt lat="43.5475483" lon="13.0231133"><ele>133.0</ele><time>2026-04-12T08:58:21.235Z</time></trkpt><trkpt lat="43.5476983" lon="13.023145"><ele>133.0</ele><time>2026-04-12T08:58:22.235Z</time></trkpt><trkpt lat="43.5478433" lon="13.0231833"><ele>133.0</ele><time>2026-04-12T08:58:23.235Z</time></trkpt><trkpt lat="43.5479883" lon="13.0232183"><ele>133.0</ele><time>2026-04-12T08:58:24.234Z</time></trkpt><trkpt lat="43.5481283" lon="13.0232633"><ele>133.25</ele><time>2026-04-12T08:58:25.235Z</time></trkpt><trkpt lat="43.5482567" lon="13.0233033"><ele>133.5</ele><time>2026-04-12T08:58:26.234Z</time></trkpt><trkpt lat="43.548385" lon="13.0233317"><ele>133.75</ele><time>2026-04-12T08:58:27.235Z</time></trkpt><trkpt lat="43.54852" lon="13.023355"><ele>134.0</ele><time>2026-04-12T08:58:28.235Z</time></trkpt><trkpt lat="43.5486583" lon="13.0233867"><ele>132.75</ele><time>2026-04-12T08:58:29.234Z</time></trkpt><trkpt lat="43.5487983" lon="13.0234217"><ele>131.5</ele><time>2026-04-12T08:58:30.235Z</time></trkpt><trkpt lat="43.54893" lon="13.0234617"><ele>130.25</ele><time>2026-04-12T08:58:31.234Z</time></trkpt><trkpt lat="43.54907" lon="13.023495"><ele>129.0</ele><time>2026-04-12T08:58:32.234Z</time></trkpt><trkpt lat="43.5492133" lon="13.0235367"><ele>129.0</ele><time>2026-04-12T08:58:33.234Z</time></trkpt><trkpt lat="43.5493483" lon="13.023575"><ele>129.0</ele><time>2026-04-12T08:58:34.235Z</time></trkpt><trkpt lat="43.5494867" lon="13.023605"><ele>129.0</ele><time>2026-04-12T08:58:35.234Z</time></trkpt><trkpt lat="43.549625" lon="13.0236383"><ele>129.0</ele><time>2026-04-12T08:58:36.235Z</time></trkpt><trkpt lat="43.5497683" lon="13.0236483"><ele>129.33333333333334</ele><time>2026-04-12T08:58:37.235Z</time></trkpt><trkpt lat="43.5499183" lon="13.0236317"><ele>129.66666666666669</ele><time>2026-04-12T08:58:38.235Z</time></trkpt><trkpt lat="43.55006" lon="13.02361"><ele>130.0</ele><time>2026-04-12T08:58:39.235Z</time></trkpt><trkpt lat="43.5502233" lon="13.0235917"><ele>129.33333333333334</ele><time>2026-04-12T08:58:40.235Z</time></trkpt><trkpt lat="43.55038" lon="13.0235683"><ele>128.66666666666666</ele><time>2026-04-12T08:58:41.235Z</time></trkpt><trkpt lat="43.55054" lon="13.0235383"><ele>128.0</ele><time>2026-04-12T08:58:42.234Z</time></trkpt><trkpt lat="43.5507" lon="13.0235133"><ele>128.0</ele><time>2026-04-12T08:58:43.234Z</time></trkpt><trkpt lat="43.5508583" lon="13.023495"><ele>128.0</ele><time>2026-04-12T08:58:44.235Z</time></trkpt><trkpt lat="43.5510183" lon="13.0234717"><ele>128.0</ele><time>2026-04-12T08:58:45.235Z</time></trkpt><trkpt lat="43.5511883" lon="13.0234483"><ele>128.66666666666666</ele><time>2026-04-12T08:58:46.235Z</time></trkpt><trkpt lat="43.5513617" lon="13.0234217"><ele>129.33333333333334</ele><time>2026-04-12T08:58:47.235Z</time></trkpt><trkpt lat="43.5515333" lon="13.0234017"><ele>130.0</ele><time>2026-04-12T08:58:48.235Z</time></trkpt><trkpt lat="43.5517017" lon="13.0233733"><ele>130.0</ele><time>2026-04-12T08:58:49.235Z</time></trkpt><trkpt lat="43.551865" lon="13.0233433"><ele>130.0</ele><time>2026-04-12T08:58:50.235Z</time></trkpt><trkpt lat="43.5520233" lon="13.023325"><ele>130.0</ele><time>2026-04-12T08:58:51.235Z</time></trkpt><trkpt lat="43.552185" lon="13.0233117"><ele>130.66666666666669</ele><time>2026-04-12T08:58:52.235Z</time></trkpt><trkpt lat="43.5523433" lon="13.0232817"><ele>131.33333333333334</ele><time>2026-04-12T08:58:53.235Z</time></trkpt><trkpt lat="43.5525" lon="13.0232717"><ele>132.0</ele><time>2026-04-12T08:58:54.234Z</time></trkpt><trkpt lat="43.5526617" lon="13.0232483"><ele>132.0</ele><time>2026-04-12T08:58:55.234Z</time></trkpt><trkpt lat="43.5528233" lon="13.0232233"><ele>132.0</ele><time>2026-04-12T08:58:56.235Z</time></trkpt><trkpt lat="43.5529867" lon="13.0232033"><ele>132.0</ele><time>2026-04-12T08:58:57.235Z</time></trkpt><trkpt lat="43.5531417" lon="13.0231767"><ele>132.33333333333334</ele><time>2026-04-12T08:58:58.235Z</time></trkpt><trkpt lat="43.5533067" lon="13.0231533"><ele>132.66666666666669</ele><time>2026-04-12T08:58:59.235Z</time></trkpt><trkpt lat="43.5534683" lon="13.0231317"><ele>133.0</ele><time>2026-04-12T08:59:00.235Z</time></trkpt><trkpt lat="43.5536433" lon="13.0231117"><ele>132.33333333333334</ele><time>2026-04-12T08:59:01.235Z</time></trkpt><trkpt lat="43.5538167" lon="13.0230783"><ele>131.66666666666666</ele><time>2026-04-12T08:59:02.235Z</time></trkpt><trkpt lat="43.5539817" lon="13.0230517"><ele>131.0</ele><time>2026-04-12T08:59:03.235Z</time></trkpt><trkpt lat="43.5541333" lon="13.02301"><ele>131.0</ele><time>2026-04-12T08:59:04.234Z</time></trkpt><trkpt lat="43.554295" lon="13.0229883"><ele>131.0</ele><time>2026-04-12T08:59:05.235Z</time></trkpt><trkpt lat="43.5544567" lon="13.02296"><ele>131.0</ele><time>2026-04-12T08:59:06.235Z</time></trkpt><trkpt lat="43.5546267" lon="13.0229333"><ele>130.33333333333331</ele><time>2026-04-12T08:59:07.235Z</time></trkpt><trkpt lat="43.55477" lon="13.0228833"><ele>129.66666666666666</ele><time>2026-04-12T08:59:08.235Z</time></trkpt><trkpt lat="43.554955" lon="13.02286"><ele>129.0</ele><time>2026-04-12T08:59:09.234Z</time></trkpt><trkpt lat="43.5551283" lon="13.022835"><ele>129.0</ele><time>2026-04-12T08:59:10.235Z</time></trkpt><trkpt lat="43.5553083" lon="13.022825"><ele>129.0</ele><time>2026-04-12T08:59:11.235Z</time></trkpt><trkpt lat="43.5554833" lon="13.02279"><ele>129.0</ele><time>2026-04-12T08:59:12.234Z</time></trkpt><trkpt lat="43.5556483" lon="13.0227683"><ele>128.66666666666666</ele><time>2026-04-12T08:59:13.234Z</time></trkpt><trkpt lat="43.5558133" lon="13.02275"><ele>128.33333333333331</ele><time>2026-04-12T08:59:14.235Z</time></trkpt><trkpt lat="43.5559767" lon="13.0227267"><ele>128.0</ele><time>2026-04-12T08:59:15.235Z</time></trkpt><trkpt lat="43.5561483" lon="13.022705"><ele>127.66666666666666</ele><time>2026-04-12T08:59:16.234Z</time></trkpt><trkpt lat="43.556315" lon="13.0226883"><ele>127.33333333333334</ele><time>2026-04-12T08:59:17.235Z</time></trkpt><trkpt lat="43.5564783" lon="13.02268"><ele>127.0</ele><time>2026-04-12T08:59:18.235Z</time></trkpt><trkpt lat="43.5566433" lon="13.0226433"><ele>127.0</ele><time>2026-04-12T08:59:19.235Z</time></trkpt><trkpt lat="43.5568067" lon="13.0226167"><ele>127.0</ele><time>2026-04-12T08:59:20.235Z</time></trkpt><trkpt lat="43.5569683" lon="13.0225917"><ele>127.0</ele><time>2026-04-12T08:59:21.235Z</time></trkpt><trkpt lat="43.5571267" lon="13.0225733"><ele>126.5</ele><time>2026-04-12T08:59:22.235Z</time></trkpt><trkpt lat="43.5572717" lon="13.0225683"><ele>126.0</ele><time>2026-04-12T08:59:23.235Z</time></trkpt><trkpt lat="43.5574167" lon="13.0225783"><ele>125.5</ele><time>2026-04-12T08:59:24.235Z</time></trkpt><trkpt lat="43.5575483" lon="13.0225883"><ele>125.0</ele><time>2026-04-12T08:59:25.235Z</time></trkpt><trkpt lat="43.557675" lon="13.0226183"><ele>125.0</ele><time>2026-04-12T08:59:26.235Z</time></trkpt><trkpt lat="43.557795" lon="13.0226617"><ele>125.0</ele><time>2026-04-12T08:59:27.234Z</time></trkpt><trkpt lat="43.5579017" lon="13.022705"><ele>125.0</ele><time>2026-04-12T08:59:28.235Z</time></trkpt><trkpt lat="43.558005" lon="13.02274"><ele>125.0</ele><time>2026-04-12T08:59:29.235Z</time></trkpt><trkpt lat="43.5581033" lon="13.02276"><ele>125.0</ele><time>2026-04-12T08:59:30.235Z</time></trkpt><trkpt lat="43.5581933" lon="13.0227867"><ele>124.2</ele><time>2026-04-12T08:59:31.235Z</time></trkpt><trkpt lat="43.5582883" lon="13.0228183"><ele>123.4</ele><time>2026-04-12T08:59:32.235Z</time></trkpt><trkpt lat="43.5583817" lon="13.0228633"><ele>122.6</ele><time>2026-04-12T08:59:33.235Z</time></trkpt><trkpt lat="43.55846" lon="13.0229333"><ele>121.8</ele><time>2026-04-12T08:59:34.235Z</time></trkpt><trkpt lat="43.5585333" lon="13.0230183"><ele>121.0</ele><time>2026-04-12T08:59:35.235Z</time></trkpt><trkpt lat="43.5586017" lon="13.0231267"><ele>121.0</ele><time>2026-04-12T08:59:36.235Z</time></trkpt><trkpt lat="43.5586683" lon="13.02324"><ele>121.0</ele><time>2026-04-12T08:59:37.235Z</time></trkpt><trkpt lat="43.55874" lon="13.02335"><ele>121.0</ele><time>2026-04-12T08:59:38.235Z</time></trkpt><trkpt lat="43.5588183" lon="13.0234733"><ele>121.0</ele><time>2026-04-12T08:59:39.235Z</time></trkpt><trkpt lat="43.5588983" lon="13.0236083"><ele>120.0</ele><time>2026-04-12T08:59:40.235Z</time></trkpt><trkpt lat="43.558975" lon="13.0237717"><ele>119.0</ele><time>2026-04-12T08:59:41.235Z</time></trkpt><trkpt lat="43.5590583" lon="13.0239433"><ele>118.0</ele><time>2026-04-12T08:59:42.234Z</time></trkpt><trkpt lat="43.559145" lon="13.02413"><ele>117.33333333333334</ele><time>2026-04-12T08:59:43.235Z</time></trkpt><trkpt lat="43.5592333" lon="13.0243283"><ele>116.66666666666666</ele><time>2026-04-12T08:59:44.234Z</time></trkpt><trkpt lat="43.559335" lon="13.0245317"><ele>116.0</ele><time>2026-04-12T08:59:45.235Z</time></trkpt><trkpt lat="43.559435" lon="13.0247283"><ele>116.0</ele><time>2026-04-12T08:59:46.234Z</time></trkpt><trkpt lat="43.5595317" lon="13.02493"><ele>116.0</ele><time>2026-04-12T08:59:47.235Z</time></trkpt><trkpt lat="43.55964" lon="13.0251267"><ele>116.0</ele><time>2026-04-12T08:59:48.235Z</time></trkpt><trkpt lat="43.5597433" lon="13.0253283"><ele>116.0</ele><time>2026-04-12T08:59:49.234Z</time></trkpt><trkpt lat="43.5598433" lon="13.0255267"><ele>116.0</ele><time>2026-04-12T08:59:50.235Z</time></trkpt><trkpt lat="43.5599433" lon="13.02574"><ele>116.0</ele><time>2026-04-12T08:59:51.234Z</time></trkpt><trkpt lat="43.56004" lon="13.02595"><ele>116.33333333333333</ele><time>2026-04-12T08:59:52.235Z</time></trkpt><trkpt lat="43.5601367" lon="13.026165"><ele>116.66666666666666</ele><time>2026-04-12T08:59:53.234Z</time></trkpt><trkpt lat="43.5602333" lon="13.0263767"><ele>117.0</ele><time>2026-04-12T08:59:54.235Z</time></trkpt><trkpt lat="43.5603333" lon="13.0265917"><ele>116.66666666666666</ele><time>2026-04-12T08:59:55.235Z</time></trkpt><trkpt lat="43.5604333" lon="13.0268033"><ele>116.33333333333333</ele><time>2026-04-12T08:59:56.235Z</time></trkpt><trkpt lat="43.56054" lon="13.0270017"><ele>116.0</ele><time>2026-04-12T08:59:57.235Z</time></trkpt><trkpt lat="43.5606417" lon="13.027215"><ele>116.0</ele><time>2026-04-12T08:59:58.235Z</time></trkpt><trkpt lat="43.56074" lon="13.02742"><ele>116.0</ele><time>2026-04-12T08:59:59.234Z</time></trkpt><trkpt lat="43.5608417" lon="13.0276167"><ele>116.0</ele><time>2026-04-12T09:00:00.234Z</time></trkpt><trkpt lat="43.5609367" lon="13.0278183"><ele>115.66666666666666</ele><time>2026-04-12T09:00:01.234Z</time></trkpt><trkpt lat="43.5610283" lon="13.0280033"><ele>115.33333333333334</ele><time>2026-04-12T09:00:02.235Z</time></trkpt><trkpt lat="43.5611217" lon="13.02819"><ele>115.0</ele><time>2026-04-12T09:00:03.235Z</time></trkpt><trkpt lat="43.561205" lon="13.0283667"><ele>114.33333333333334</ele><time>2026-04-12T09:00:04.235Z</time></trkpt><trkpt lat="43.5612967" lon="13.0285383"><ele>113.66666666666666</ele><time>2026-04-12T09:00:05.235Z</time></trkpt><trkpt lat="43.5613883" lon="13.0287183"><ele>113.0</ele><time>2026-04-12T09:00:06.235Z</time></trkpt><trkpt lat="43.5614633" lon="13.0288867"><ele>113.0</ele><time>2026-04-12T09:00:07.235Z</time></trkpt><trkpt lat="43.561545" lon="13.0290517"><ele>113.0</ele><time>2026-04-12T09:00:08.235Z</time></trkpt><trkpt lat="43.5616217" lon="13.0292133"><ele>113.0</ele><time>2026-04-12T09:00:09.235Z</time></trkpt><trkpt lat="43.5616983" lon="13.0293717"><ele>113.0</ele><time>2026-04-12T09:00:10.235Z</time></trkpt><trkpt lat="43.561765" lon="13.0295117"><ele>113.16666666666666</ele><time>2026-04-12T09:00:11.235Z</time></trkpt><trkpt lat="43.5618267" lon="13.0296417"><ele>113.33333333333333</ele><time>2026-04-12T09:00:12.235Z</time></trkpt><trkpt lat="43.5618817" lon="13.029755"><ele>113.5</ele><time>2026-04-12T09:00:13.234Z</time></trkpt><trkpt lat="43.5619367" lon="13.0298417"><ele>113.66666666666666</ele><time>2026-04-12T09:00:14.235Z</time></trkpt><trkpt lat="43.5619867" lon="13.0299233"><ele>113.83333333333333</ele><time>2026-04-12T09:00:15.235Z</time></trkpt><trkpt lat="43.5620433" lon="13.02998"><ele>114.0</ele><time>2026-04-12T09:00:16.235Z</time></trkpt><trkpt lat="43.5621033" lon="13.0300183"><ele>113.80000000000001</ele><time>2026-04-12T09:00:17.234Z</time></trkpt><trkpt lat="43.5621817" lon="13.03001"><ele>113.60000000000001</ele><time>2026-04-12T09:00:18.234Z</time></trkpt><trkpt lat="43.5622783" lon="13.0299717"><ele>113.4</ele><time>2026-04-12T09:00:19.235Z</time></trkpt><trkpt lat="43.562385" lon="13.02992"><ele>113.2</ele><time>2026-04-12T09:00:20.235Z</time></trkpt><trkpt lat="43.562495" lon="13.0298767"><ele>113.0</ele><time>2026-04-12T09:00:21.235Z</time></trkpt><trkpt lat="43.56261" lon="13.02983"><ele>113.0</ele><time>2026-04-12T09:00:22.235Z</time></trkpt><trkpt lat="43.56273" lon="13.029785"><ele>113.0</ele><time>2026-04-12T09:00:23.235Z</time></trkpt><trkpt lat="43.5628533" lon="13.02973"><ele>113.0</ele><time>2026-04-12T09:00:24.234Z</time></trkpt><trkpt lat="43.562985" lon="13.02968"><ele>113.0</ele><time>2026-04-12T09:00:25.235Z</time></trkpt><trkpt lat="43.5631317" lon="13.02964"><ele>113.0</ele><time>2026-04-12T09:00:26.234Z</time></trkpt><trkpt lat="43.563275" lon="13.029595"><ele>113.0</ele><time>2026-04-12T09:00:27.234Z</time></trkpt><trkpt lat="43.5634183" lon="13.0295483"><ele>113.0</ele><time>2026-04-12T09:00:28.235Z</time></trkpt><trkpt lat="43.56356" lon="13.0295"><ele>113.0</ele><time>2026-04-12T09:00:29.235Z</time></trkpt><trkpt lat="43.5636917" lon="13.0294517"><ele>114.0</ele><time>2026-04-12T09:00:30.235Z</time></trkpt><trkpt lat="43.5638167" lon="13.0294067"><ele>115.0</ele><time>2026-04-12T09:00:31.235Z</time></trkpt><trkpt lat="43.563945" lon="13.0293633"><ele>116.0</ele><time>2026-04-12T09:00:32.235Z</time></trkpt><trkpt lat="43.5640583" lon="13.0293317"><ele>117.0</ele><time>2026-04-12T09:00:33.234Z</time></trkpt><trkpt lat="43.56418" lon="13.0293"><ele>117.0</ele><time>2026-04-12T09:00:34.235Z</time></trkpt><trkpt lat="43.5643" lon="13.0292883"><ele>117.0</ele><time>2026-04-12T09:00:35.235Z</time></trkpt><trkpt lat="43.564425" lon="13.0292967"><ele>117.0</ele><time>2026-04-12T09:00:36.234Z</time></trkpt><trkpt lat="43.5645567" lon="13.029325"><ele>117.0</ele><time>2026-04-12T09:00:37.235Z</time></trkpt><trkpt lat="43.5646833" lon="13.0293767"><ele>119.25</ele><time>2026-04-12T09:00:38.235Z</time></trkpt><trkpt lat="43.56482" lon="13.0294433"><ele>121.5</ele><time>2026-04-12T09:00:39.235Z</time></trkpt><trkpt lat="43.5649567" lon="13.029515"><ele>123.75</ele><time>2026-04-12T09:00:40.234Z</time></trkpt><trkpt lat="43.5650817" lon="13.0296"><ele>126.0</ele><time>2026-04-12T09:00:41.235Z</time></trkpt><trkpt lat="43.56522" lon="13.029675"><ele>126.0</ele><time>2026-04-12T09:00:42.234Z</time></trkpt><trkpt lat="43.5653617" lon="13.0297767"><ele>126.0</ele><time>2026-04-12T09:00:43.235Z</time></trkpt><trkpt lat="43.5655067" lon="13.029865"><ele>126.0</ele><time>2026-04-12T09:00:44.235Z</time></trkpt><trkpt lat="43.5656433" lon="13.029945"><ele>126.5</ele><time>2026-04-12T09:00:45.235Z</time></trkpt><trkpt lat="43.5657717" lon="13.03002"><ele>127.0</ele><time>2026-04-12T09:00:46.235Z</time></trkpt><trkpt lat="43.5658883" lon="13.0301083"><ele>127.5</ele><time>2026-04-12T09:00:47.234Z</time></trkpt><trkpt lat="43.5659933" lon="13.0301983"><ele>128.0</ele><time>2026-04-12T09:00:48.234Z</time></trkpt><trkpt lat="43.566095" lon="13.0303167"><ele>128.0</ele><time>2026-04-12T09:00:49.235Z</time></trkpt><trkpt lat="43.5661867" lon="13.0304267"><ele>128.0</ele><time>2026-04-12T09:00:50.235Z</time></trkpt><trkpt lat="43.5662667" lon="13.0305333"><ele>128.0</ele><time>2026-04-12T09:00:51.234Z</time></trkpt><trkpt lat="43.5663467" lon="13.0306267"><ele>128.0</ele><time>2026-04-12T09:00:52.235Z</time></trkpt><trkpt lat="43.5664233" lon="13.0307083"><ele>128.0</ele><time>2026-04-12T09:00:53.235Z</time></trkpt><trkpt lat="43.56651" lon="13.0307383"><ele>130.0</ele><time>2026-04-12T09:00:54.234Z</time></trkpt><trkpt lat="43.56659" lon="13.030715"><ele>132.0</ele><time>2026-04-12T09:00:55.234Z</time></trkpt><trkpt lat="43.5666567" lon="13.0306367"><ele>134.0</ele><time>2026-04-12T09:00:56.235Z</time></trkpt><trkpt lat="43.5666783" lon="13.0305167"><ele>136.0</ele><time>2026-04-12T09:00:57.234Z</time></trkpt><trkpt lat="43.56665" lon="13.0303867"><ele>138.0</ele><time>2026-04-12T09:00:58.235Z</time></trkpt><trkpt lat="43.56658" lon="13.0302617"><ele>138.0</ele><time>2026-04-12T09:00:59.235Z</time></trkpt><trkpt lat="43.56649" lon="13.0301283"><ele>138.0</ele><time>2026-04-12T09:01:00.235Z</time></trkpt><trkpt lat="43.5664033" lon="13.0299967"><ele>138.0</ele><time>2026-04-12T09:01:01.235Z</time></trkpt><trkpt lat="43.5663167" lon="13.02986"><ele>138.0</ele><time>2026-04-12T09:01:02.234Z</time></trkpt><trkpt lat="43.56624" lon="13.029725"><ele>137.6</ele><time>2026-04-12T09:01:03.235Z</time></trkpt><trkpt lat="43.5661667" lon="13.0295917"><ele>137.20000000000002</ele><time>2026-04-12T09:01:04.235Z</time></trkpt><trkpt lat="43.5661017" lon="13.0294633"><ele>136.8</ele><time>2026-04-12T09:01:05.234Z</time></trkpt><trkpt lat="43.566045" lon="13.0293417"><ele>136.4</ele><time>2026-04-12T09:01:06.235Z</time></trkpt><trkpt lat="43.565995" lon="13.029225"><ele>136.0</ele><time>2026-04-12T09:01:07.234Z</time></trkpt><trkpt lat="43.5659567" lon="13.0291117"><ele>136.0</ele><time>2026-04-12T09:01:08.234Z</time></trkpt><trkpt lat="43.5659483" lon="13.02899"><ele>136.0</ele><time>2026-04-12T09:01:09.235Z</time></trkpt><trkpt lat="43.5659833" lon="13.0288817"><ele>136.0</ele><time>2026-04-12T09:01:10.234Z</time></trkpt><trkpt lat="43.5660533" lon="13.0287917"><ele>136.0</ele><time>2026-04-12T09:01:11.234Z</time></trkpt><trkpt lat="43.566155" lon="13.0287133"><ele>136.0</ele><time>2026-04-12T09:01:12.234Z</time></trkpt><trkpt lat="43.56629" lon="13.0286267"><ele>138.0</ele><time>2026-04-12T09:01:13.235Z</time></trkpt><trkpt lat="43.5664667" lon="13.0285433"><ele>140.0</ele><time>2026-04-12T09:01:14.235Z</time></trkpt><trkpt lat="43.566665" lon="13.0284633"><ele>142.0</ele><time>2026-04-12T09:01:15.234Z</time></trkpt><trkpt lat="43.5668667" lon="13.0283833"><ele>142.66666666666669</ele><time>2026-04-12T09:01:16.234Z</time></trkpt><trkpt lat="43.5670583" lon="13.0283033"><ele>143.33333333333334</ele><time>2026-04-12T09:01:17.235Z</time></trkpt><trkpt lat="43.5672417" lon="13.0282317"><ele>144.0</ele><time>2026-04-12T09:01:18.234Z</time></trkpt><trkpt lat="43.5674167" lon="13.0281567"><ele>144.0</ele><time>2026-04-12T09:01:19.235Z</time></trkpt><trkpt lat="43.5675883" lon="13.0281133"><ele>144.0</ele><time>2026-04-12T09:01:20.234Z</time></trkpt><trkpt lat="43.5677633" lon="13.028105"><ele>144.0</ele><time>2026-04-12T09:01:21.234Z</time></trkpt><trkpt lat="43.5679367" lon="13.02813"><ele>144.0</ele><time>2026-04-12T09:01:22.235Z</time></trkpt><trkpt lat="43.5681117" lon="13.02817"><ele>144.0</ele><time>2026-04-12T09:01:23.235Z</time></trkpt><trkpt lat="43.5682917" lon="13.0282233"><ele>144.0</ele><time>2026-04-12T09:01:24.235Z</time></trkpt><trkpt lat="43.5684833" lon="13.02827"><ele>145.66666666666666</ele><time>2026-04-12T09:01:25.235Z</time></trkpt><trkpt lat="43.5686733" lon="13.02832"><ele>147.33333333333331</ele><time>2026-04-12T09:01:26.235Z</time></trkpt><trkpt lat="43.5688733" lon="13.0283717"><ele>149.0</ele><time>2026-04-12T09:01:27.234Z</time></trkpt><trkpt lat="43.5690767" lon="13.0284083"><ele>149.0</ele><time>2026-04-12T09:01:28.235Z</time></trkpt><trkpt lat="43.5692917" lon="13.0284333"><ele>149.0</ele><time>2026-04-12T09:01:29.234Z</time></trkpt><trkpt lat="43.5695" lon="13.02843"><ele>149.0</ele><time>2026-04-12T09:01:30.235Z</time></trkpt><trkpt lat="43.56971" lon="13.0283917"><ele>149.33333333333331</ele><time>2026-04-12T09:01:31.235Z</time></trkpt><trkpt lat="43.5699067" lon="13.0283333"><ele>149.66666666666666</ele><time>2026-04-12T09:01:32.235Z</time></trkpt><trkpt lat="43.5700867" lon="13.0282483"><ele>150.0</ele><time>2026-04-12T09:01:33.235Z</time></trkpt><trkpt lat="43.5702617" lon="13.0281167"><ele>151.0</ele><time>2026-04-12T09:01:34.234Z</time></trkpt><trkpt lat="43.5704317" lon="13.0279617"><ele>152.0</ele><time>2026-04-12T09:01:35.234Z</time></trkpt><trkpt lat="43.5705967" lon="13.0278083"><ele>153.0</ele><time>2026-04-12T09:01:36.234Z</time></trkpt><trkpt lat="43.5707617" lon="13.027645"><ele>153.0</ele><time>2026-04-12T09:01:37.235Z</time></trkpt><trkpt lat="43.5709367" lon="13.0274967"><ele>153.0</ele><time>2026-04-12T09:01:38.235Z</time></trkpt><trkpt lat="43.5711167" lon="13.0273467"><ele>153.0</ele><time>2026-04-12T09:01:39.235Z</time></trkpt><trkpt lat="43.571295" lon="13.027195"><ele>154.66666666666666</ele><time>2026-04-12T09:01:40.235Z</time></trkpt><trkpt lat="43.5714833" lon="13.027055"><ele>156.33333333333331</ele><time>2026-04-12T09:01:41.235Z</time></trkpt><trkpt lat="43.57166" lon="13.0269217"><ele>158.0</ele><time>2026-04-12T09:01:42.235Z</time></trkpt><trkpt lat="43.5718233" lon="13.0267983"><ele>158.0</ele><time>2026-04-12T09:01:43.235Z</time></trkpt><trkpt lat="43.5719683" lon="13.026655"><ele>158.0</ele><time>2026-04-12T09:01:44.235Z</time></trkpt><trkpt lat="43.5720967" lon="13.0264833"><ele>158.0</ele><time>2026-04-12T09:01:45.235Z</time></trkpt><trkpt lat="43.5722083" lon="13.02628"><ele>158.0</ele><time>2026-04-12T09:01:46.234Z</time></trkpt><trkpt lat="43.5723183" lon="13.026065"><ele>158.0</ele><time>2026-04-12T09:01:47.235Z</time></trkpt><trkpt lat="43.5724167" lon="13.025855"><ele>158.0</ele><time>2026-04-12T09:01:48.235Z</time></trkpt><trkpt lat="43.5725167" lon="13.0256533"><ele>158.0</ele><time>2026-04-12T09:01:49.234Z</time></trkpt><trkpt lat="43.57262" lon="13.025485"><ele>158.0</ele><time>2026-04-12T09:01:50.234Z</time></trkpt><trkpt lat="43.57276" lon="13.025345"><ele>158.0</ele><time>2026-04-12T09:01:51.235Z</time></trkpt><trkpt lat="43.5729217" lon="13.0252683"><ele>160.0</ele><time>2026-04-12T09:01:52.234Z</time></trkpt><trkpt lat="43.573065" lon="13.0251933"><ele>162.0</ele><time>2026-04-12T09:01:53.235Z</time></trkpt><trkpt lat="43.573225" lon="13.025085"><ele>164.0</ele><time>2026-04-12T09:01:54.235Z</time></trkpt><trkpt lat="43.5733733" lon="13.024945"><ele>166.33333333333331</ele><time>2026-04-12T09:01:55.235Z</time></trkpt><trkpt lat="43.5735217" lon="13.0247717"><ele>168.66666666666666</ele><time>2026-04-12T09:01:56.235Z</time></trkpt><trkpt lat="43.5736767" lon="13.0246183"><ele>171.0</ele><time>2026-04-12T09:01:57.235Z</time></trkpt><trkpt lat="43.57383" lon="13.0244783"><ele>171.0</ele><time>2026-04-12T09:01:58.235Z</time></trkpt><trkpt lat="43.5739767" lon="13.0243717"><ele>171.0</ele><time>2026-04-12T09:01:59.235Z</time></trkpt><trkpt lat="43.5741133" lon="13.0242767"><ele>171.0</ele><time>2026-04-12T09:02:00.235Z</time></trkpt><trkpt lat="43.5742433" lon="13.0242033"><ele>172.8</ele><time>2026-04-12T09:02:01.234Z</time></trkpt><trkpt lat="43.5743483" lon="13.02413"><ele>174.60000000000002</ele><time>2026-04-12T09:02:02.235Z</time></trkpt><trkpt lat="43.5744267" lon="13.024045"><ele>176.4</ele><time>2026-04-12T09:02:03.234Z</time></trkpt><trkpt lat="43.57446" lon="13.0239267"><ele>178.2</ele><time>2026-04-12T09:02:04.235Z</time></trkpt><trkpt lat="43.574445" lon="13.0238133"><ele>180.0</ele><time>2026-04-12T09:02:05.235Z</time></trkpt><trkpt lat="43.5743883" lon="13.0237433"><ele>180.0</ele><time>2026-04-12T09:02:06.235Z</time></trkpt><trkpt lat="43.5742933" lon="13.0237217"><ele>180.0</ele><time>2026-04-12T09:02:07.235Z</time></trkpt><trkpt lat="43.5741783" lon="13.02375"><ele>180.0</ele><time>2026-04-12T09:02:08.235Z</time></trkpt><trkpt lat="43.574055" lon="13.0237983"><ele>180.0</ele><time>2026-04-12T09:02:09.235Z</time></trkpt><trkpt lat="43.5739283" lon="13.0238433"><ele>180.0</ele><time>2026-04-12T09:02:10.235Z</time></trkpt><trkpt lat="43.5738117" lon="13.02388"><ele>180.0</ele><time>2026-04-12T09:02:11.235Z</time></trkpt><trkpt lat="43.5736917" lon="13.0238933"><ele>180.0</ele><time>2026-04-12T09:02:12.234Z</time></trkpt><trkpt lat="43.5735983" lon="13.0238517"><ele>180.0</ele><time>2026-04-12T09:02:13.235Z</time></trkpt><trkpt lat="43.5735483" lon="13.023765"><ele>180.0</ele><time>2026-04-12T09:02:14.234Z</time></trkpt><trkpt lat="43.5735567" lon="13.0236567"><ele>180.0</ele><time>2026-04-12T09:02:15.235Z</time></trkpt><trkpt lat="43.573605" lon="13.0235683"><ele>180.0</ele><time>2026-04-12T09:02:16.235Z</time></trkpt><trkpt lat="43.5737" lon="13.023505"><ele>180.0</ele><time>2026-04-12T09:02:17.234Z</time></trkpt><trkpt lat="43.5738133" lon="13.0234417"><ele>180.0</ele><time>2026-04-12T09:02:18.235Z</time></trkpt><trkpt lat="43.5739333" lon="13.0233733"><ele>180.0</ele><time>2026-04-12T09:02:19.234Z</time></trkpt><trkpt lat="43.5740683" lon="13.0233017"><ele>180.33333333333334</ele><time>2026-04-12T09:02:20.235Z</time></trkpt><trkpt lat="43.5742133" lon="13.02323"><ele>180.66666666666669</ele><time>2026-04-12T09:02:21.234Z</time></trkpt><trkpt lat="43.5743667" lon="13.0231583"><ele>181.0</ele><time>2026-04-12T09:02:22.235Z</time></trkpt><trkpt lat="43.57453" lon="13.0230767"><ele>183.0</ele><time>2026-04-12T09:02:23.234Z</time></trkpt><trkpt lat="43.5747083" lon="13.0229917"><ele>185.0</ele><time>2026-04-12T09:02:24.235Z</time></trkpt><trkpt lat="43.5748917" lon="13.022905"><ele>187.0</ele><time>2026-04-12T09:02:25.235Z</time></trkpt><trkpt lat="43.5750667" lon="13.02284"><ele>187.0</ele><time>2026-04-12T09:02:26.235Z</time></trkpt><trkpt lat="43.5752333" lon="13.0227633"><ele>187.0</ele><time>2026-04-12T09:02:27.234Z</time></trkpt><trkpt lat="43.5753967" lon="13.022695"><ele>187.0</ele><time>2026-04-12T09:02:28.234Z</time></trkpt><trkpt lat="43.5755633" lon="13.0226433"><ele>190.0</ele><time>2026-04-12T09:02:29.234Z</time></trkpt><trkpt lat="43.575725" lon="13.0225983"><ele>193.0</ele><time>2026-04-12T09:02:30.235Z</time></trkpt><trkpt lat="43.5758817" lon="13.0225733"><ele>196.0</ele><time>2026-04-12T09:02:31.234Z</time></trkpt><trkpt lat="43.5760417" lon="13.0225583"><ele>198.33333333333331</ele><time>2026-04-12T09:02:32.235Z</time></trkpt><trkpt lat="43.5762017" lon="13.0225433"><ele>200.66666666666669</ele><time>2026-04-12T09:02:33.235Z</time></trkpt><trkpt lat="43.5763533" lon="13.022535"><ele>203.0</ele><time>2026-04-12T09:02:34.235Z</time></trkpt><trkpt lat="43.5765083" lon="13.022525"><ele>203.0</ele><time>2026-04-12T09:02:35.235Z</time></trkpt><trkpt lat="43.5766567" lon="13.02253"><ele>203.0</ele><time>2026-04-12T09:02:36.235Z</time></trkpt><trkpt lat="43.5768017" lon="13.0225417"><ele>203.0</ele><time>2026-04-12T09:02:37.235Z</time></trkpt><trkpt lat="43.576945" lon="13.022565"><ele>203.0</ele><time>2026-04-12T09:02:38.235Z</time></trkpt><trkpt lat="43.5770817" lon="13.0226017"><ele>205.25</ele><time>2026-04-12T09:02:39.235Z</time></trkpt><trkpt lat="43.577215" lon="13.02264"><ele>207.5</ele><time>2026-04-12T09:02:40.234Z</time></trkpt><trkpt lat="43.577355" lon="13.022665"><ele>209.75</ele><time>2026-04-12T09:02:41.235Z</time></trkpt><trkpt lat="43.5775" lon="13.022705"><ele>212.0</ele><time>2026-04-12T09:02:42.235Z</time></trkpt><trkpt lat="43.5776483" lon="13.0227517"><ele>212.0</ele><time>2026-04-12T09:02:43.235Z</time></trkpt><trkpt lat="43.5777967" lon="13.0228"><ele>212.0</ele><time>2026-04-12T09:02:44.235Z</time></trkpt><trkpt lat="43.577945" lon="13.022865"><ele>212.0</ele><time>2026-04-12T09:02:45.234Z</time></trkpt><trkpt lat="43.578095" lon="13.022945"><ele>214.0</ele><time>2026-04-12T09:02:46.234Z</time></trkpt><trkpt lat="43.57825" lon="13.0230117"><ele>216.0</ele><time>2026-04-12T09:02:47.235Z</time></trkpt><trkpt lat="43.578395" lon="13.02309"><ele>218.0</ele><time>2026-04-12T09:02:48.235Z</time></trkpt><trkpt lat="43.578535" lon="13.0231633"><ele>218.0</ele><time>2026-04-12T09:02:49.234Z</time></trkpt><trkpt lat="43.5786633" lon="13.0232333"><ele>218.0</ele><time>2026-04-12T09:02:50.234Z</time></trkpt><trkpt lat="43.5787867" lon="13.0233067"><ele>218.0</ele><time>2026-04-12T09:02:51.235Z</time></trkpt><trkpt lat="43.5789" lon="13.0233967"><ele>218.0</ele><time>2026-04-12T09:02:52.235Z</time></trkpt><trkpt lat="43.57899" lon="13.023515"><ele>218.0</ele><time>2026-04-12T09:02:53.235Z</time></trkpt><trkpt lat="43.57905" lon="13.0236583"><ele>218.0</ele><time>2026-04-12T09:02:54.235Z</time></trkpt><trkpt lat="43.579075" lon="13.0238317"><ele>218.0</ele><time>2026-04-12T09:02:55.234Z</time></trkpt><trkpt lat="43.5790883" lon="13.0240083"><ele>218.0</ele><time>2026-04-12T09:02:56.234Z</time></trkpt><trkpt lat="43.5790933" lon="13.024195"><ele>217.5</ele><time>2026-04-12T09:02:57.235Z</time></trkpt><trkpt lat="43.5791" lon="13.0243833"><ele>217.0</ele><time>2026-04-12T09:02:58.234Z</time></trkpt><trkpt lat="43.5791117" lon="13.0245817"><ele>216.5</ele><time>2026-04-12T09:02:59.234Z</time></trkpt><trkpt lat="43.5791283" lon="13.0247567"><ele>216.0</ele><time>2026-04-12T09:03:00.235Z</time></trkpt><trkpt lat="43.5791367" lon="13.0249233"><ele>215.5</ele><time>2026-04-12T09:03:01.235Z</time></trkpt><trkpt lat="43.57914" lon="13.025055"><ele>215.0</ele><time>2026-04-12T09:03:02.235Z</time></trkpt><trkpt lat="43.5791383" lon="13.0251517"><ele>214.5</ele><time>2026-04-12T09:03:03.234Z</time></trkpt><trkpt lat="43.57913" lon="13.0252383"><ele>214.0</ele><time>2026-04-12T09:03:04.235Z</time></trkpt><trkpt lat="43.5791383" lon="13.025385"><ele>213.5</ele><time>2026-04-12T09:03:06.235Z</time></trkpt><trkpt lat="43.57919" lon="13.025475"><ele>213.0</ele><time>2026-04-12T09:03:08.235Z</time></trkpt><trkpt lat="43.5793267" lon="13.0255233"><ele>213.0</ele><time>2026-04-12T09:03:10.235Z</time></trkpt><trkpt lat="43.5794317" lon="13.02555"><ele>213.0</ele><time>2026-04-12T09:03:11.234Z</time></trkpt><trkpt lat="43.579545" lon="13.0255833"><ele>213.0</ele><time>2026-04-12T09:03:12.235Z</time></trkpt><trkpt lat="43.579655" lon="13.0256033"><ele>213.0</ele><time>2026-04-12T09:03:13.235Z</time></trkpt><trkpt lat="43.579755" lon="13.0256283"><ele>213.0</ele><time>2026-04-12T09:03:14.235Z</time></trkpt><trkpt lat="43.5798517" lon="13.0256417"><ele>214.66666666666666</ele><time>2026-04-12T09:03:15.235Z</time></trkpt><trkpt lat="43.579945" lon="13.0256667"><ele>216.33333333333331</ele><time>2026-04-12T09:03:16.234Z</time></trkpt><trkpt lat="43.580025" lon="13.0256917"><ele>218.0</ele><time>2026-04-12T09:03:17.235Z</time></trkpt><trkpt lat="43.5800983" lon="13.0257083"><ele>219.66666666666666</ele><time>2026-04-12T09:03:18.235Z</time></trkpt><trkpt lat="43.5801767" lon="13.02572"><ele>221.33333333333331</ele><time>2026-04-12T09:03:19.234Z</time></trkpt><trkpt lat="43.58025" lon="13.02574"><ele>223.0</ele><time>2026-04-12T09:03:20.235Z</time></trkpt><trkpt lat="43.5803317" lon="13.0257567"><ele>223.49999999999997</ele><time>2026-04-12T09:03:21.235Z</time></trkpt><trkpt lat="43.5804067" lon="13.0257767"><ele>224.0</ele><time>2026-04-12T09:03:22.235Z</time></trkpt><trkpt lat="43.5804783" lon="13.025805"><ele>224.5</ele><time>2026-04-12T09:03:23.234Z</time></trkpt><trkpt lat="43.58056" lon="13.0258283"><ele>225.0</ele><time>2026-04-12T09:03:24.235Z</time></trkpt><trkpt lat="43.5806383" lon="13.02586"><ele>225.49999999999997</ele><time>2026-04-12T09:03:25.234Z</time></trkpt><trkpt lat="43.5807267" lon="13.0258833"><ele>226.0</ele><time>2026-04-12T09:03:27.235Z</time></trkpt><trkpt lat="43.5807967" lon="13.0259017"><ele>225.16666666666666</ele><time>2026-04-12T09:03:29.235Z</time></trkpt><trkpt lat="43.58089" lon="13.0259283"><ele>224.33333333333331</ele><time>2026-04-12T09:03:31.234Z</time></trkpt><trkpt lat="43.5809567" lon="13.0259483"><ele>223.5</ele><time>2026-04-12T09:03:32.235Z</time></trkpt><trkpt lat="43.5810317" lon="13.0259683"><ele>222.66666666666669</ele><time>2026-04-12T09:03:33.234Z</time></trkpt><trkpt lat="43.5811067" lon="13.026"><ele>221.83333333333334</ele><time>2026-04-12T09:03:34.235Z</time></trkpt><trkpt lat="43.5811983" lon="13.026025"><ele>221.0</ele><time>2026-04-12T09:03:35.235Z</time></trkpt><trkpt lat="43.581285" lon="13.0260617"><ele>221.00000000000003</ele><time>2026-04-12T09:03:36.235Z</time></trkpt><trkpt lat="43.5813633" lon="13.0260867"><ele>221.0</ele><time>2026-04-12T09:03:37.234Z</time></trkpt><trkpt lat="43.5814283" lon="13.0261217"><ele>221.0</ele><time>2026-04-12T09:03:38.234Z</time></trkpt><trkpt lat="43.5815033" lon="13.0261617"><ele>221.0</ele><time>2026-04-12T09:03:39.235Z</time></trkpt><trkpt lat="43.5815783" lon="13.0261983"><ele>221.00000000000003</ele><time>2026-04-12T09:03:40.235Z</time></trkpt><trkpt lat="43.58167" lon="13.0262333"><ele>221.0</ele><time>2026-04-12T09:03:41.235Z</time></trkpt><trkpt lat="43.5817617" lon="13.0262617"><ele>221.0</ele><time>2026-04-12T09:03:42.235Z</time></trkpt><trkpt lat="43.5818567" lon="13.0262933"><ele>221.00000000000003</ele><time>2026-04-12T09:03:43.235Z</time></trkpt><trkpt lat="43.5819483" lon="13.026335"><ele>221.00000000000003</ele><time>2026-04-12T09:03:44.235Z</time></trkpt><trkpt lat="43.5820433" lon="13.026375"><ele>221.0</ele><time>2026-04-12T09:03:45.235Z</time></trkpt><trkpt lat="43.58214" lon="13.02642"><ele>221.0</ele><time>2026-04-12T09:03:46.235Z</time></trkpt><trkpt lat="43.5822333" lon="13.0264517"><ele>220.00000000000003</ele><time>2026-04-12T09:03:47.235Z</time></trkpt><trkpt lat="43.5823233" lon="13.0264733"><ele>219.0</ele><time>2026-04-12T09:03:48.235Z</time></trkpt><trkpt lat="43.5824183" lon="13.02645"><ele>218.0</ele><time>2026-04-12T09:03:49.235Z</time></trkpt><trkpt lat="43.5824933" lon="13.0263917"><ele>217.0</ele><time>2026-04-12T09:03:50.235Z</time></trkpt><trkpt lat="43.5825617" lon="13.0263133"><ele>216.00000000000003</ele><time>2026-04-12T09:03:51.234Z</time></trkpt><trkpt lat="43.5826167" lon="13.0262267"><ele>215.0</ele><time>2026-04-12T09:03:52.235Z</time></trkpt><trkpt lat="43.5826617" lon="13.0261433"><ele>215.0</ele><time>2026-04-12T09:03:53.235Z</time></trkpt><trkpt lat="43.5827133" lon="13.0260767"><ele>215.0</ele><time>2026-04-12T09:03:54.234Z</time></trkpt><trkpt lat="43.58277" lon="13.0260233"><ele>215.0</ele><time>2026-04-12T09:03:55.234Z</time></trkpt><trkpt lat="43.58292" lon="13.0259933"><ele>215.0</ele><time>2026-04-12T09:03:57.235Z</time></trkpt><trkpt lat="43.5830017" lon="13.0259817"><ele>215.0</ele><time>2026-04-12T09:03:58.235Z</time></trkpt><trkpt lat="43.5831133" lon="13.0259817"><ele>214.0</ele><time>2026-04-12T09:03:59.235Z</time></trkpt><trkpt lat="43.5832417" lon="13.02597"><ele>213.0</ele><time>2026-04-12T09:04:00.235Z</time></trkpt><trkpt lat="43.58338" lon="13.0259683"><ele>212.0</ele><time>2026-04-12T09:04:01.234Z</time></trkpt><trkpt lat="43.5835133" lon="13.0259667"><ele>211.0</ele><time>2026-04-12T09:04:02.235Z</time></trkpt><trkpt lat="43.5836417" lon="13.0259583"><ele>209.5</ele><time>2026-04-12T09:04:03.235Z</time></trkpt><trkpt lat="43.58376" lon="13.02594"><ele>208.0</ele><time>2026-04-12T09:04:04.235Z</time></trkpt><trkpt lat="43.5838883" lon="13.02592"><ele>206.5</ele><time>2026-04-12T09:04:05.235Z</time></trkpt><trkpt lat="43.584015" lon="13.0258917"><ele>205.0</ele><time>2026-04-12T09:04:06.235Z</time></trkpt><trkpt lat="43.5841317" lon="13.0258667"><ele>205.0</ele><time>2026-04-12T09:04:07.235Z</time></trkpt><trkpt lat="43.5842433" lon="13.0258517"><ele>205.0</ele><time>2026-04-12T09:04:08.235Z</time></trkpt><trkpt lat="43.5843567" lon="13.0258383"><ele>205.0</ele><time>2026-04-12T09:04:09.234Z</time></trkpt><trkpt lat="43.58448" lon="13.0258267"><ele>205.0</ele><time>2026-04-12T09:04:10.235Z</time></trkpt><trkpt lat="43.5845933" lon="13.0258117"><ele>201.75</ele><time>2026-04-12T09:04:11.235Z</time></trkpt><trkpt lat="43.5847083" lon="13.0258"><ele>198.5</ele><time>2026-04-12T09:04:12.234Z</time></trkpt><trkpt lat="43.5848333" lon="13.0258133"><ele>195.25</ele><time>2026-04-12T09:04:13.234Z</time></trkpt><trkpt lat="43.5849567" lon="13.0258517"><ele>192.0</ele><time>2026-04-12T09:04:14.235Z</time></trkpt><trkpt lat="43.585055" lon="13.0259267"><ele>192.0</ele><time>2026-04-12T09:04:15.235Z</time></trkpt><trkpt lat="43.5851333" lon="13.0260383"><ele>192.0</ele><time>2026-04-12T09:04:16.235Z</time></trkpt><trkpt lat="43.5851933" lon="13.026165"><ele>192.0</ele><time>2026-04-12T09:04:17.234Z</time></trkpt><trkpt lat="43.585255" lon="13.0262817"><ele>192.0</ele><time>2026-04-12T09:04:18.235Z</time></trkpt><trkpt lat="43.585315" lon="13.0264"><ele>192.0</ele><time>2026-04-12T09:04:19.235Z</time></trkpt><trkpt lat="43.58538" lon="13.0265"><ele>191.39999999999998</ele><time>2026-04-12T09:04:20.234Z</time></trkpt><trkpt lat="43.58545" lon="13.0266"><ele>190.79999999999998</ele><time>2026-04-12T09:04:21.235Z</time></trkpt><trkpt lat="43.5855267" lon="13.0266817"><ele>190.2</ele><time>2026-04-12T09:04:22.235Z</time></trkpt><trkpt lat="43.5856217" lon="13.026735"><ele>189.6</ele><time>2026-04-12T09:04:23.235Z</time></trkpt><trkpt lat="43.5857167" lon="13.0267617"><ele>189.0</ele><time>2026-04-12T09:04:24.235Z</time></trkpt><trkpt lat="43.5858017" lon="13.0267717"><ele>189.0</ele><time>2026-04-12T09:04:25.234Z</time></trkpt><trkpt lat="43.5858717" lon="13.0267767"><ele>189.0</ele><time>2026-04-12T09:04:26.234Z</time></trkpt><trkpt lat="43.5859833" lon="13.0267417"><ele>189.0</ele><time>2026-04-12T09:04:28.235Z</time></trkpt><trkpt lat="43.5860567" lon="13.0266667"><ele>189.0</ele><time>2026-04-12T09:04:30.235Z</time></trkpt><trkpt lat="43.586075" lon="13.0265533"><ele>189.0</ele><time>2026-04-12T09:04:32.235Z</time></trkpt><trkpt lat="43.58608" lon="13.0263683"><ele>188.5</ele><time>2026-04-12T09:04:34.234Z</time></trkpt><trkpt lat="43.586085" lon="13.026235"><ele>188.0</ele><time>2026-04-12T09:04:35.234Z</time></trkpt><trkpt lat="43.5860883" lon="13.026085"><ele>187.5</ele><time>2026-04-12T09:04:36.235Z</time></trkpt><trkpt lat="43.5860917" lon="13.02592"><ele>187.0</ele><time>2026-04-12T09:04:37.235Z</time></trkpt><trkpt lat="43.5860933" lon="13.02574"><ele>185.33333333333334</ele><time>2026-04-12T09:04:38.235Z</time></trkpt><trkpt lat="43.586085" lon="13.0255333"><ele>183.66666666666666</ele><time>2026-04-12T09:04:39.235Z</time></trkpt><trkpt lat="43.5860833" lon="13.0253117"><ele>182.0</ele><time>2026-04-12T09:04:40.235Z</time></trkpt><trkpt lat="43.5860767" lon="13.025075"><ele>181.66666666666666</ele><time>2026-04-12T09:04:41.234Z</time></trkpt><trkpt lat="43.586075" lon="13.0248233"><ele>181.33333333333334</ele><time>2026-04-12T09:04:42.235Z</time></trkpt><trkpt lat="43.5860667" lon="13.0245717"><ele>181.0</ele><time>2026-04-12T09:04:43.234Z</time></trkpt><trkpt lat="43.58606" lon="13.0243267"><ele>179.0</ele><time>2026-04-12T09:04:44.234Z</time></trkpt><trkpt lat="43.58605" lon="13.0240917"><ele>177.0</ele><time>2026-04-12T09:04:45.235Z</time></trkpt><trkpt lat="43.5860417" lon="13.0238733"><ele>175.0</ele><time>2026-04-12T09:04:46.235Z</time></trkpt><trkpt lat="43.5860367" lon="13.0236683"><ele>175.0</ele><time>2026-04-12T09:04:47.235Z</time></trkpt><trkpt lat="43.5860433" lon="13.0234817"><ele>175.0</ele><time>2026-04-12T09:04:48.235Z</time></trkpt><trkpt lat="43.586085" lon="13.0233167"><ele>175.0</ele><time>2026-04-12T09:04:49.234Z</time></trkpt><trkpt lat="43.58616" lon="13.02317"><ele>175.0</ele><time>2026-04-12T09:04:50.234Z</time></trkpt><trkpt lat="43.5862583" lon="13.0230583"><ele>173.0</ele><time>2026-04-12T09:04:51.235Z</time></trkpt><trkpt lat="43.58638" lon="13.022975"><ele>171.0</ele><time>2026-04-12T09:04:52.235Z</time></trkpt><trkpt lat="43.58651" lon="13.0229267"><ele>169.0</ele><time>2026-04-12T09:04:53.235Z</time></trkpt><trkpt lat="43.5866383" lon="13.0229317"><ele>167.0</ele><time>2026-04-12T09:04:54.234Z</time></trkpt><trkpt lat="43.5867733" lon="13.0229867"><ele>167.0</ele><time>2026-04-12T09:04:55.234Z</time></trkpt><trkpt lat="43.58691" lon="13.0230783"><ele>167.0</ele><time>2026-04-12T09:04:56.235Z</time></trkpt><trkpt lat="43.58706" lon="13.023185"><ele>167.0</ele><time>2026-04-12T09:04:57.234Z</time></trkpt><trkpt lat="43.587215" lon="13.0232983"><ele>167.33333333333331</ele><time>2026-04-12T09:04:58.235Z</time></trkpt><trkpt lat="43.5873783" lon="13.0234233"><ele>167.66666666666666</ele><time>2026-04-12T09:04:59.234Z</time></trkpt><trkpt lat="43.5875567" lon="13.023535"><ele>168.0</ele><time>2026-04-12T09:05:00.235Z</time></trkpt><trkpt lat="43.587725" lon="13.0236467"><ele>164.33333333333334</ele><time>2026-04-12T09:05:01.235Z</time></trkpt><trkpt lat="43.5878883" lon="13.023755"><ele>160.66666666666669</ele><time>2026-04-12T09:05:02.235Z</time></trkpt><trkpt lat="43.5880467" lon="13.0238583"><ele>157.0</ele><time>2026-04-12T09:05:03.235Z</time></trkpt><trkpt lat="43.5882033" lon="13.0239683"><ele>157.0</ele><time>2026-04-12T09:05:04.235Z</time></trkpt><trkpt lat="43.5883533" lon="13.0240717"><ele>157.0</ele><time>2026-04-12T09:05:05.235Z</time></trkpt><trkpt lat="43.58849" lon="13.024155"><ele>157.0</ele><time>2026-04-12T09:05:06.235Z</time></trkpt><trkpt lat="43.5886183" lon="13.02418"><ele>157.0</ele><time>2026-04-12T09:05:07.235Z</time></trkpt><trkpt lat="43.5887517" lon="13.0241233"><ele>158.33333333333334</ele><time>2026-04-12T09:05:08.235Z</time></trkpt><trkpt lat="43.5888617" lon="13.0239967"><ele>159.66666666666666</ele><time>2026-04-12T09:05:09.235Z</time></trkpt><trkpt lat="43.588925" lon="13.0238133"><ele>161.0</ele><time>2026-04-12T09:05:10.235Z</time></trkpt><trkpt lat="43.588965" lon="13.0236"><ele>161.0</ele><time>2026-04-12T09:05:11.235Z</time></trkpt><trkpt lat="43.5889967" lon="13.0233717"><ele>161.0</ele><time>2026-04-12T09:05:12.235Z</time></trkpt><trkpt lat="43.5890267" lon="13.023155"><ele>161.0</ele><time>2026-04-12T09:05:13.234Z</time></trkpt><trkpt lat="43.5890633" lon="13.0229467"><ele>159.25</ele><time>2026-04-12T09:05:14.235Z</time></trkpt><trkpt lat="43.589115" lon="13.02277"><ele>157.5</ele><time>2026-04-12T09:05:15.234Z</time></trkpt><trkpt lat="43.58919" lon="13.02263"><ele>155.75</ele><time>2026-04-12T09:05:16.235Z</time></trkpt><trkpt lat="43.589305" lon="13.0225467"><ele>154.0</ele><time>2026-04-12T09:05:17.235Z</time></trkpt><trkpt lat="43.589435" lon="13.02251"><ele>152.0</ele><time>2026-04-12T09:05:18.235Z</time></trkpt><trkpt lat="43.589575" lon="13.0224767"><ele>150.0</ele><time>2026-04-12T09:05:19.235Z</time></trkpt><trkpt lat="43.58973" lon="13.02242"><ele>148.0</ele><time>2026-04-12T09:05:20.235Z</time></trkpt><trkpt lat="43.5898733" lon="13.0223067"><ele>148.0</ele><time>2026-04-12T09:05:21.234Z</time></trkpt><trkpt lat="43.5900133" lon="13.0221583"><ele>148.0</ele><time>2026-04-12T09:05:22.235Z</time></trkpt><trkpt lat="43.5901567" lon="13.0219933"><ele>148.0</ele><time>2026-04-12T09:05:23.234Z</time></trkpt><trkpt lat="43.590295" lon="13.0218133"><ele>146.0</ele><time>2026-04-12T09:05:24.235Z</time></trkpt><trkpt lat="43.5904367" lon="13.0216433"><ele>144.0</ele><time>2026-04-12T09:05:25.235Z</time></trkpt><trkpt lat="43.59059" lon="13.0214817"><ele>142.0</ele><time>2026-04-12T09:05:26.235Z</time></trkpt><trkpt lat="43.5907317" lon="13.0213267"><ele>142.0</ele><time>2026-04-12T09:05:27.235Z</time></trkpt><trkpt lat="43.5908683" lon="13.02118"><ele>142.0</ele><time>2026-04-12T09:05:28.234Z</time></trkpt><trkpt lat="43.5910017" lon="13.0210583"><ele>142.0</ele><time>2026-04-12T09:05:29.235Z</time></trkpt><trkpt lat="43.5911467" lon="13.0209817"><ele>140.33333333333334</ele><time>2026-04-12T09:05:30.234Z</time></trkpt><trkpt lat="43.5913" lon="13.0209683"><ele>138.66666666666666</ele><time>2026-04-12T09:05:31.234Z</time></trkpt><trkpt lat="43.5914667" lon="13.0209883"><ele>137.0</ele><time>2026-04-12T09:05:32.235Z</time></trkpt><trkpt lat="43.59164" lon="13.021015"><ele>137.0</ele><time>2026-04-12T09:05:33.235Z</time></trkpt><trkpt lat="43.5918133" lon="13.0210383"><ele>137.0</ele><time>2026-04-12T09:05:34.235Z</time></trkpt><trkpt lat="43.591985" lon="13.0210533"><ele>137.0</ele><time>2026-04-12T09:05:35.234Z</time></trkpt><trkpt lat="43.59215" lon="13.0210733"><ele>134.0</ele><time>2026-04-12T09:05:36.235Z</time></trkpt><trkpt lat="43.5923117" lon="13.0210967"><ele>131.0</ele><time>2026-04-12T09:05:37.235Z</time></trkpt><trkpt lat="43.59246" lon="13.0211617"><ele>128.0</ele><time>2026-04-12T09:05:38.235Z</time></trkpt><trkpt lat="43.5925917" lon="13.0212683"><ele>128.0</ele><time>2026-04-12T09:05:39.234Z</time></trkpt><trkpt lat="43.5927117" lon="13.0214183"><ele>128.0</ele><time>2026-04-12T09:05:40.235Z</time></trkpt><trkpt lat="43.59282" lon="13.021585"><ele>128.0</ele><time>2026-04-12T09:05:41.234Z</time></trkpt><trkpt lat="43.5929183" lon="13.0217533"><ele>126.75</ele><time>2026-04-12T09:05:42.235Z</time></trkpt><trkpt lat="43.5930033" lon="13.021915"><ele>125.5</ele><time>2026-04-12T09:05:43.235Z</time></trkpt><trkpt lat="43.5930883" lon="13.022065"><ele>124.25</ele><time>2026-04-12T09:05:44.235Z</time></trkpt><trkpt lat="43.5932017" lon="13.022145"><ele>123.0</ele><time>2026-04-12T09:05:45.235Z</time></trkpt><trkpt lat="43.5933367" lon="13.0221417"><ele>123.0</ele><time>2026-04-12T09:05:46.234Z</time></trkpt><trkpt lat="43.5934667" lon="13.0220717"><ele>123.0</ele><time>2026-04-12T09:05:47.235Z</time></trkpt><trkpt lat="43.593585" lon="13.0219417"><ele>123.0</ele><time>2026-04-12T09:05:48.234Z</time></trkpt><trkpt lat="43.5936917" lon="13.0217917"><ele>123.0</ele><time>2026-04-12T09:05:49.235Z</time></trkpt><trkpt lat="43.5938083" lon="13.021655"><ele>120.66666666666666</ele><time>2026-04-12T09:05:50.235Z</time></trkpt><trkpt lat="43.5939333" lon="13.0215283"><ele>118.33333333333333</ele><time>2026-04-12T09:05:51.235Z</time></trkpt><trkpt lat="43.5940667" lon="13.0214317"><ele>116.0</ele><time>2026-04-12T09:05:52.235Z</time></trkpt><trkpt lat="43.5942067" lon="13.0213617"><ele>116.0</ele><time>2026-04-12T09:05:53.235Z</time></trkpt><trkpt lat="43.594355" lon="13.0213267"><ele>116.0</ele><time>2026-04-12T09:05:54.235Z</time></trkpt><trkpt lat="43.594505" lon="13.0213333"><ele>116.0</ele><time>2026-04-12T09:05:55.234Z</time></trkpt><trkpt lat="43.5946367" lon="13.021375"><ele>116.0</ele><time>2026-04-12T09:05:56.235Z</time></trkpt><trkpt lat="43.5947583" lon="13.0214867"><ele>115.66666666666666</ele><time>2026-04-12T09:05:57.235Z</time></trkpt><trkpt lat="43.5948683" lon="13.0216483"><ele>115.33333333333334</ele><time>2026-04-12T09:05:58.235Z</time></trkpt><trkpt lat="43.5949867" lon="13.0217917"><ele>115.0</ele><time>2026-04-12T09:05:59.235Z</time></trkpt><trkpt lat="43.595115" lon="13.021905"><ele>115.0</ele><time>2026-04-12T09:06:00.235Z</time></trkpt><trkpt lat="43.5952617" lon="13.0219583"><ele>115.0</ele><time>2026-04-12T09:06:01.234Z</time></trkpt><trkpt lat="43.5954183" lon="13.0219367"><ele>115.0</ele><time>2026-04-12T09:06:02.235Z</time></trkpt><trkpt lat="43.5955783" lon="13.0218833"><ele>112.66666666666667</ele><time>2026-04-12T09:06:03.235Z</time></trkpt><trkpt lat="43.5957333" lon="13.0218267"><ele>110.33333333333334</ele><time>2026-04-12T09:06:04.234Z</time></trkpt><trkpt lat="43.5959017" lon="13.0217817"><ele>108.0</ele><time>2026-04-12T09:06:05.234Z</time></trkpt><trkpt lat="43.5960717" lon="13.02173"><ele>108.0</ele><time>2026-04-12T09:06:06.235Z</time></trkpt><trkpt lat="43.596245" lon="13.0216717"><ele>108.0</ele><time>2026-04-12T09:06:07.235Z</time></trkpt><trkpt lat="43.5964117" lon="13.0216267"><ele>108.0</ele><time>2026-04-12T09:06:08.235Z</time></trkpt><trkpt lat="43.5965717" lon="13.02158"><ele>108.0</ele><time>2026-04-12T09:06:09.235Z</time></trkpt><trkpt lat="43.5967233" lon="13.021535"><ele>108.0</ele><time>2026-04-12T09:06:10.235Z</time></trkpt><trkpt lat="43.596865" lon="13.0214933"><ele>108.0</ele><time>2026-04-12T09:06:11.234Z</time></trkpt><trkpt lat="43.5970017" lon="13.0214483"><ele>108.0</ele><time>2026-04-12T09:06:12.235Z</time></trkpt><trkpt lat="43.59713" lon="13.02141"><ele>107.80000000000001</ele><time>2026-04-12T09:06:13.235Z</time></trkpt><trkpt lat="43.5972433" lon="13.0213733"><ele>107.60000000000001</ele><time>2026-04-12T09:06:14.235Z</time></trkpt><trkpt lat="43.597345" lon="13.0213367"><ele>107.39999999999999</ele><time>2026-04-12T09:06:15.234Z</time></trkpt><trkpt lat="43.5974367" lon="13.0213"><ele>107.19999999999999</ele><time>2026-04-12T09:06:16.235Z</time></trkpt><trkpt lat="43.5975083" lon="13.0212717"><ele>107.0</ele><time>2026-04-12T09:06:17.235Z</time></trkpt><trkpt lat="43.5976017" lon="13.0212533"><ele>107.0</ele><time>2026-04-12T09:06:19.234Z</time></trkpt><trkpt lat="43.597685" lon="13.021255"><ele>106.99999999999999</ele><time>2026-04-12T09:06:22.234Z</time></trkpt><trkpt lat="43.59781" lon="13.02125"><ele>106.99999999999999</ele><time>2026-04-12T09:07:28.234Z</time></trkpt><trkpt lat="43.597885" lon="13.0212417"><ele>107.0</ele><time>2026-04-12T09:07:29.235Z</time></trkpt><trkpt lat="43.597975" lon="13.0212267"><ele>107.0</ele><time>2026-04-12T09:07:30.235Z</time></trkpt><trkpt lat="43.5980767" lon="13.0212283"><ele>106.39999999999999</ele><time>2026-04-12T09:07:31.235Z</time></trkpt><trkpt lat="43.59818" lon="13.0212383"><ele>105.79999999999998</ele><time>2026-04-12T09:07:32.235Z</time></trkpt><trkpt lat="43.5982817" lon="13.0212483"><ele>105.2</ele><time>2026-04-12T09:07:33.235Z</time></trkpt><trkpt lat="43.598395" lon="13.0212683"><ele>104.6</ele><time>2026-04-12T09:07:34.235Z</time></trkpt><trkpt lat="43.5985133" lon="13.0212967"><ele>104.0</ele><time>2026-04-12T09:07:35.235Z</time></trkpt><trkpt lat="43.5986283" lon="13.0213333"><ele>103.75</ele><time>2026-04-12T09:07:36.235Z</time></trkpt><trkpt lat="43.598765" lon="13.0213667"><ele>103.5</ele><time>2026-04-12T09:07:37.234Z</time></trkpt><trkpt lat="43.5989117" lon="13.021395"><ele>103.25</ele><time>2026-04-12T09:07:38.235Z</time></trkpt><trkpt lat="43.5990667" lon="13.021435"><ele>103.0</ele><time>2026-04-12T09:07:39.235Z</time></trkpt><trkpt lat="43.59923" lon="13.0214817"><ele>103.0</ele><time>2026-04-12T09:07:40.234Z</time></trkpt><trkpt lat="43.5994067" lon="13.02153"><ele>103.0</ele><time>2026-04-12T09:07:41.234Z</time></trkpt><trkpt lat="43.5995883" lon="13.0215717"><ele>103.0</ele><time>2026-04-12T09:07:42.235Z</time></trkpt><trkpt lat="43.5997767" lon="13.0216083"><ele>104.0</ele><time>2026-04-12T09:07:43.235Z</time></trkpt><trkpt lat="43.5999717" lon="13.0216267"><ele>105.0</ele><time>2026-04-12T09:07:44.235Z</time></trkpt><trkpt lat="43.6001633" lon="13.0216017"><ele>106.0</ele><time>2026-04-12T09:07:45.235Z</time></trkpt><trkpt lat="43.600365" lon="13.02156"><ele>106.33333333333334</ele><time>2026-04-12T09:07:46.235Z</time></trkpt><trkpt lat="43.6005633" lon="13.0215083"><ele>106.66666666666666</ele><time>2026-04-12T09:07:47.235Z</time></trkpt><trkpt lat="43.60076" lon="13.0214717"><ele>107.0</ele><time>2026-04-12T09:07:48.235Z</time></trkpt><trkpt lat="43.6009433" lon="13.0214367"><ele>107.0</ele><time>2026-04-12T09:07:49.235Z</time></trkpt><trkpt lat="43.6011233" lon="13.0214"><ele>107.0</ele><time>2026-04-12T09:07:50.234Z</time></trkpt><trkpt lat="43.6012917" lon="13.0213633"><ele>107.0</ele><time>2026-04-12T09:07:51.235Z</time></trkpt><trkpt lat="43.60145" lon="13.0213317"><ele>107.5</ele><time>2026-04-12T09:07:52.235Z</time></trkpt><trkpt lat="43.601605" lon="13.0213"><ele>108.0</ele><time>2026-04-12T09:07:53.235Z</time></trkpt><trkpt lat="43.601755" lon="13.02126"><ele>108.5</ele><time>2026-04-12T09:07:54.235Z</time></trkpt><trkpt lat="43.6018833" lon="13.0212"><ele>109.0</ele><time>2026-04-12T09:07:55.234Z</time></trkpt><trkpt lat="43.6020133" lon="13.0211933"><ele>109.50000000000001</ele><time>2026-04-12T09:07:56.234Z</time></trkpt><trkpt lat="43.6021267" lon="13.0211983"><ele>110.0</ele><time>2026-04-12T09:07:57.235Z</time></trkpt><trkpt lat="43.602225" lon="13.021215"><ele>110.5</ele><time>2026-04-12T09:07:58.235Z</time></trkpt><trkpt lat="43.60231" lon="13.021245"><ele>111.0</ele><time>2026-04-12T09:07:59.235Z</time></trkpt><trkpt lat="43.6023783" lon="13.0212833"><ele>111.50000000000001</ele><time>2026-04-12T09:08:00.235Z</time></trkpt><trkpt lat="43.602435" lon="13.0213483"><ele>112.0</ele><time>2026-04-12T09:08:01.234Z</time></trkpt><trkpt lat="43.6024817" lon="13.0214183"><ele>112.0</ele><time>2026-04-12T09:08:02.235Z</time></trkpt><trkpt lat="43.602535" lon="13.0215017"><ele>111.99999999999999</ele><time>2026-04-12T09:08:03.234Z</time></trkpt><trkpt lat="43.6025883" lon="13.0216117"><ele>111.99999999999999</ele><time>2026-04-12T09:08:04.235Z</time></trkpt><trkpt lat="43.6026467" lon="13.0217583"><ele>112.0</ele><time>2026-04-12T09:08:05.235Z</time></trkpt><trkpt lat="43.60271" lon="13.021925"><ele>112.0</ele><time>2026-04-12T09:08:06.235Z</time></trkpt><trkpt lat="43.6027767" lon="13.0221133"><ele>111.66666666666667</ele><time>2026-04-12T09:08:07.234Z</time></trkpt><trkpt lat="43.6028517" lon="13.0223133"><ele>111.33333333333334</ele><time>2026-04-12T09:08:08.235Z</time></trkpt><trkpt lat="43.6029367" lon="13.0225267"><ele>111.0</ele><time>2026-04-12T09:08:09.235Z</time></trkpt><trkpt lat="43.6030417" lon="13.0227467"><ele>111.0</ele><time>2026-04-12T09:08:10.234Z</time></trkpt><trkpt lat="43.603155" lon="13.0229733"><ele>111.0</ele><time>2026-04-12T09:08:11.235Z</time></trkpt><trkpt lat="43.6032883" lon="13.0232033"><ele>111.0</ele><time>2026-04-12T09:08:12.234Z</time></trkpt><trkpt lat="43.6034317" lon="13.0234333"><ele>110.5</ele><time>2026-04-12T09:08:13.235Z</time></trkpt><trkpt lat="43.60359" lon="13.0236583"><ele>110.0</ele><time>2026-04-12T09:08:14.234Z</time></trkpt><trkpt lat="43.6037583" lon="13.0239"><ele>110.0</ele><time>2026-04-12T09:08:15.235Z</time></trkpt><trkpt lat="43.6039267" lon="13.0241433"><ele>110.0</ele><time>2026-04-12T09:08:16.235Z</time></trkpt><trkpt lat="43.6040983" lon="13.0244117"><ele>110.5</ele><time>2026-04-12T09:08:17.235Z</time></trkpt><trkpt lat="43.6042667" lon="13.0246767"><ele>111.0</ele><time>2026-04-12T09:08:18.235Z</time></trkpt><trkpt lat="43.6044383" lon="13.0249417"><ele>111.0</ele><time>2026-04-12T09:08:19.235Z</time></trkpt><trkpt lat="43.60461" lon="13.0251883"><ele>111.0</ele><time>2026-04-12T09:08:20.235Z</time></trkpt><trkpt lat="43.6047833" lon="13.025435"><ele>111.0</ele><time>2026-04-12T09:08:21.234Z</time></trkpt><trkpt lat="43.6049617" lon="13.0256667"><ele>111.0</ele><time>2026-04-12T09:08:22.234Z</time></trkpt><trkpt lat="43.6051367" lon="13.025895"><ele>110.0</ele><time>2026-04-12T09:08:23.235Z</time></trkpt><trkpt lat="43.605305" lon="13.02613"><ele>109.0</ele><time>2026-04-12T09:08:24.235Z</time></trkpt><trkpt lat="43.6054733" lon="13.026365"><ele>109.5</ele><time>2026-04-12T09:08:25.235Z</time></trkpt><trkpt lat="43.6056283" lon="13.02662"><ele>110.0</ele><time>2026-04-12T09:08:26.235Z</time></trkpt><trkpt lat="43.6057767" lon="13.0268717"><ele>110.0</ele><time>2026-04-12T09:08:27.235Z</time></trkpt><trkpt lat="43.6059217" lon="13.027135"><ele>110.0</ele><time>2026-04-12T09:08:28.235Z</time></trkpt><trkpt lat="43.6060683" lon="13.027395"><ele>110.0</ele><time>2026-04-12T09:08:29.235Z</time></trkpt><trkpt lat="43.6062233" lon="13.0276583"><ele>110.0</ele><time>2026-04-12T09:08:30.235Z</time></trkpt><trkpt lat="43.6063783" lon="13.0279033"><ele>110.0</ele><time>2026-04-12T09:08:31.235Z</time></trkpt><trkpt lat="43.60653" lon="13.0281483"><ele>110.0</ele><time>2026-04-12T09:08:32.235Z</time></trkpt><trkpt lat="43.6066867" lon="13.0283833"><ele>110.0</ele><time>2026-04-12T09:08:33.235Z</time></trkpt><trkpt lat="43.6068383" lon="13.0286167"><ele>110.0</ele><time>2026-04-12T09:08:34.234Z</time></trkpt><trkpt lat="43.606985" lon="13.0288317"><ele>110.0</ele><time>2026-04-12T09:08:35.235Z</time></trkpt><trkpt lat="43.6071167" lon="13.0290017"><ele>110.0</ele><time>2026-04-12T09:08:36.234Z</time></trkpt><trkpt lat="43.60726" lon="13.0291967"><ele>110.0</ele><time>2026-04-12T09:08:37.235Z</time></trkpt><trkpt lat="43.607415" lon="13.0293733"><ele>110.0</ele><time>2026-04-12T09:08:38.235Z</time></trkpt><trkpt lat="43.6075783" lon="13.029545"><ele>110.0</ele><time>2026-04-12T09:08:39.235Z</time></trkpt><trkpt lat="43.6077517" lon="13.0297217"><ele>110.0</ele><time>2026-04-12T09:08:40.235Z</time></trkpt><trkpt lat="43.6079217" lon="13.0298917"><ele>110.0</ele><time>2026-04-12T09:08:41.234Z</time></trkpt><trkpt lat="43.6080933" lon="13.0300833"><ele>109.0</ele><time>2026-04-12T09:08:42.234Z</time></trkpt><trkpt lat="43.6082633" lon="13.030285"><ele>108.0</ele><time>2026-04-12T09:08:43.234Z</time></trkpt><trkpt lat="43.6084333" lon="13.0304867"><ele>107.0</ele><time>2026-04-12T09:08:44.234Z</time></trkpt><trkpt lat="43.6086067" lon="13.0306983"><ele>106.0</ele><time>2026-04-12T09:08:45.235Z</time></trkpt><trkpt lat="43.60878" lon="13.0308967"><ele>105.0</ele><time>2026-04-12T09:08:46.235Z</time></trkpt><trkpt lat="43.608965" lon="13.03109"><ele>105.0</ele><time>2026-04-12T09:08:47.234Z</time></trkpt><trkpt lat="43.6091617" lon="13.0312583"><ele>105.0</ele><time>2026-04-12T09:08:48.235Z</time></trkpt><trkpt lat="43.6093667" lon="13.0314133"><ele>105.5</ele><time>2026-04-12T09:08:49.234Z</time></trkpt><trkpt lat="43.6095667" lon="13.031565"><ele>106.0</ele><time>2026-04-12T09:08:50.235Z</time></trkpt><trkpt lat="43.6097783" lon="13.0317083"><ele>106.0</ele><time>2026-04-12T09:08:51.234Z</time></trkpt><trkpt lat="43.6099833" lon="13.0318517"><ele>106.0</ele><time>2026-04-12T09:08:52.235Z</time></trkpt><trkpt lat="43.6101833" lon="13.032"><ele>106.33333333333334</ele><time>2026-04-12T09:08:53.234Z</time></trkpt><trkpt lat="43.6103733" lon="13.032135"><ele>106.66666666666666</ele><time>2026-04-12T09:08:54.234Z</time></trkpt><trkpt lat="43.6105517" lon="13.0322833"><ele>107.0</ele><time>2026-04-12T09:08:55.235Z</time></trkpt><trkpt lat="43.6107183" lon="13.0324383"><ele>106.33333333333333</ele><time>2026-04-12T09:08:56.234Z</time></trkpt><trkpt lat="43.6108667" lon="13.03262"><ele>105.66666666666666</ele><time>2026-04-12T09:08:57.234Z</time></trkpt><trkpt lat="43.610975" lon="13.032835"><ele>105.0</ele><time>2026-04-12T09:08:58.234Z</time></trkpt><trkpt lat="43.6110433" lon="13.0330783"><ele>104.66666666666666</ele><time>2026-04-12T09:08:59.235Z</time></trkpt><trkpt lat="43.6110883" lon="13.0333283"><ele>104.33333333333333</ele><time>2026-04-12T09:09:00.235Z</time></trkpt><trkpt lat="43.6111617" lon="13.0335767"><ele>104.0</ele><time>2026-04-12T09:09:01.234Z</time></trkpt><trkpt lat="43.61126" lon="13.0338117"><ele>104.0</ele><time>2026-04-12T09:09:02.235Z</time></trkpt><trkpt lat="43.6113783" lon="13.0340417"><ele>104.0</ele><time>2026-04-12T09:09:03.235Z</time></trkpt><trkpt lat="43.6115017" lon="13.0342733"><ele>104.0</ele><time>2026-04-12T09:09:04.235Z</time></trkpt><trkpt lat="43.611625" lon="13.0345217"><ele>103.66666666666666</ele><time>2026-04-12T09:09:05.235Z</time></trkpt><trkpt lat="43.61174" lon="13.0347833"><ele>103.33333333333334</ele><time>2026-04-12T09:09:06.235Z</time></trkpt><trkpt lat="43.6118483" lon="13.0350483"><ele>103.0</ele><time>2026-04-12T09:09:07.235Z</time></trkpt><trkpt lat="43.6119633" lon="13.0353117"><ele>103.0</ele><time>2026-04-12T09:09:08.234Z</time></trkpt><trkpt lat="43.6120833" lon="13.0355583"><ele>103.0</ele><time>2026-04-12T09:09:09.234Z</time></trkpt><trkpt lat="43.61221" lon="13.0357967"><ele>103.0</ele><time>2026-04-12T09:09:10.235Z</time></trkpt><trkpt lat="43.6123433" lon="13.0360333"><ele>103.0</ele><time>2026-04-12T09:09:11.235Z</time></trkpt><trkpt lat="43.6124733" lon="13.03626"><ele>103.0</ele><time>2026-04-12T09:09:12.235Z</time></trkpt><trkpt lat="43.612595" lon="13.03649"><ele>103.0</ele><time>2026-04-12T09:09:13.234Z</time></trkpt><trkpt lat="43.612715" lon="13.0367133"><ele>103.0</ele><time>2026-04-12T09:09:14.235Z</time></trkpt><trkpt lat="43.6128383" lon="13.0369383"><ele>103.0</ele><time>2026-04-12T09:09:15.234Z</time></trkpt><trkpt lat="43.612975" lon="13.0371433"><ele>103.0</ele><time>2026-04-12T09:09:16.235Z</time></trkpt><trkpt lat="43.6131183" lon="13.037355"><ele>102.66666666666667</ele><time>2026-04-12T09:09:17.235Z</time></trkpt><trkpt lat="43.6132733" lon="13.0375483"><ele>102.33333333333334</ele><time>2026-04-12T09:09:18.234Z</time></trkpt><trkpt lat="43.6134433" lon="13.037725"><ele>102.0</ele><time>2026-04-12T09:09:19.235Z</time></trkpt><trkpt lat="43.6136267" lon="13.0378883"><ele>102.0</ele><time>2026-04-12T09:09:20.235Z</time></trkpt><trkpt lat="43.6138167" lon="13.03804"><ele>102.0</ele><time>2026-04-12T09:09:21.235Z</time></trkpt><trkpt lat="43.6140117" lon="13.038185"><ele>102.0</ele><time>2026-04-12T09:09:22.235Z</time></trkpt><trkpt lat="43.6142083" lon="13.038325"><ele>101.33333333333334</ele><time>2026-04-12T09:09:23.235Z</time></trkpt><trkpt lat="43.6144067" lon="13.03847"><ele>100.66666666666667</ele><time>2026-04-12T09:09:24.235Z</time></trkpt><trkpt lat="43.6145967" lon="13.0386233"><ele>100.0</ele><time>2026-04-12T09:09:25.235Z</time></trkpt><trkpt lat="43.6147867" lon="13.0387767"><ele>100.0</ele><time>2026-04-12T09:09:26.235Z</time></trkpt><trkpt lat="43.6149767" lon="13.0389533"><ele>100.0</ele><time>2026-04-12T09:09:27.234Z</time></trkpt><trkpt lat="43.6151617" lon="13.0391433"><ele>99.5</ele><time>2026-04-12T09:09:28.235Z</time></trkpt><trkpt lat="43.6153367" lon="13.0393433"><ele>99.0</ele><time>2026-04-12T09:09:29.234Z</time></trkpt><trkpt lat="43.6155133" lon="13.0395383"><ele>99.0</ele><time>2026-04-12T09:09:30.235Z</time></trkpt><trkpt lat="43.6156917" lon="13.03974"><ele>99.0</ele><time>2026-04-12T09:09:31.235Z</time></trkpt><trkpt lat="43.6158783" lon="13.03993"><ele>98.5</ele><time>2026-04-12T09:09:32.235Z</time></trkpt><trkpt lat="43.6160533" lon="13.0401183"><ele>98.0</ele><time>2026-04-12T09:09:33.235Z</time></trkpt><trkpt lat="43.6162417" lon="13.040295"><ele>97.5</ele><time>2026-04-12T09:09:34.235Z</time></trkpt><trkpt lat="43.61643" lon="13.04047"><ele>97.0</ele><time>2026-04-12T09:09:35.235Z</time></trkpt><trkpt lat="43.6166167" lon="13.04065"><ele>96.0</ele><time>2026-04-12T09:09:36.234Z</time></trkpt><trkpt lat="43.6168083" lon="13.0408233"><ele>95.0</ele><time>2026-04-12T09:09:37.235Z</time></trkpt><trkpt lat="43.617" lon="13.041"><ele>94.0</ele><time>2026-04-12T09:09:38.235Z</time></trkpt><trkpt lat="43.6171933" lon="13.04117"><ele>93.0</ele><time>2026-04-12T09:09:39.235Z</time></trkpt><trkpt lat="43.6173917" lon="13.04132"><ele>93.0</ele><time>2026-04-12T09:09:40.235Z</time></trkpt><trkpt lat="43.6176" lon="13.0414483"><ele>93.0</ele><time>2026-04-12T09:09:41.235Z</time></trkpt><trkpt lat="43.6178133" lon="13.0415533"><ele>93.5</ele><time>2026-04-12T09:09:42.234Z</time></trkpt><trkpt lat="43.6180317" lon="13.0416567"><ele>94.0</ele><time>2026-04-12T09:09:43.235Z</time></trkpt><trkpt lat="43.6182533" lon="13.0417633"><ele>94.0</ele><time>2026-04-12T09:09:44.234Z</time></trkpt><trkpt lat="43.6184667" lon="13.04188"><ele>94.0</ele><time>2026-04-12T09:09:45.235Z</time></trkpt><trkpt lat="43.6186667" lon="13.04202"><ele>94.0</ele><time>2026-04-12T09:09:46.235Z</time></trkpt><trkpt lat="43.618865" lon="13.0421683"><ele>94.0</ele><time>2026-04-12T09:09:47.235Z</time></trkpt><trkpt lat="43.6190617" lon="13.042305"><ele>94.0</ele><time>2026-04-12T09:09:48.235Z</time></trkpt><trkpt lat="43.6192567" lon="13.04245"><ele>94.0</ele><time>2026-04-12T09:09:49.235Z</time></trkpt><trkpt lat="43.61946" lon="13.0425817"><ele>94.0</ele><time>2026-04-12T09:09:50.235Z</time></trkpt><trkpt lat="43.619665" lon="13.042705"><ele>94.0</ele><time>2026-04-12T09:09:51.235Z</time></trkpt><trkpt lat="43.6198867" lon="13.0428233"><ele>93.5</ele><time>2026-04-12T09:09:52.235Z</time></trkpt><trkpt lat="43.6201083" lon="13.0429433"><ele>93.0</ele><time>2026-04-12T09:09:53.235Z</time></trkpt><trkpt lat="43.6203383" lon="13.04305"><ele>92.5</ele><time>2026-04-12T09:09:54.235Z</time></trkpt><trkpt lat="43.6205667" lon="13.04314"><ele>92.0</ele><time>2026-04-12T09:09:55.234Z</time></trkpt><trkpt lat="43.620805" lon="13.0432233"><ele>91.0</ele><time>2026-04-12T09:09:56.235Z</time></trkpt><trkpt lat="43.6210433" lon="13.04331"><ele>90.0</ele><time>2026-04-12T09:09:57.234Z</time></trkpt><trkpt lat="43.6212767" lon="13.0433917"><ele>88.5</ele><time>2026-04-12T09:09:58.235Z</time></trkpt><trkpt lat="43.6215017" lon="13.0434617"><ele>87.0</ele><time>2026-04-12T09:09:59.235Z</time></trkpt><trkpt lat="43.6217217" lon="13.0435383"><ele>87.0</ele><time>2026-04-12T09:10:00.235Z</time></trkpt><trkpt lat="43.6219233" lon="13.04363"><ele>87.0</ele><time>2026-04-12T09:10:01.235Z</time></trkpt><trkpt lat="43.622115" lon="13.0437467"><ele>87.0</ele><time>2026-04-12T09:10:02.234Z</time></trkpt><trkpt lat="43.6222883" lon="13.0439033"><ele>87.0</ele><time>2026-04-12T09:10:03.235Z</time></trkpt><trkpt lat="43.62245" lon="13.0441017"><ele>87.0</ele><time>2026-04-12T09:10:04.234Z</time></trkpt><trkpt lat="43.6226083" lon="13.0443083"><ele>87.0</ele><time>2026-04-12T09:10:05.235Z</time></trkpt><trkpt lat="43.6227517" lon="13.0445267"><ele>87.66666666666667</ele><time>2026-04-12T09:10:06.235Z</time></trkpt><trkpt lat="43.6228983" lon="13.0447417"><ele>88.33333333333334</ele><time>2026-04-12T09:10:07.235Z</time></trkpt><trkpt lat="43.6230533" lon="13.0449533"><ele>89.0</ele><time>2026-04-12T09:10:08.234Z</time></trkpt><trkpt lat="43.623215" lon="13.0451517"><ele>89.0</ele><time>2026-04-12T09:10:09.235Z</time></trkpt><trkpt lat="43.6233833" lon="13.04533"><ele>89.0</ele><time>2026-04-12T09:10:10.235Z</time></trkpt><trkpt lat="43.6235617" lon="13.04551"><ele>89.0</ele><time>2026-04-12T09:10:11.234Z</time></trkpt><trkpt lat="43.62375" lon="13.0456683"><ele>88.33333333333334</ele><time>2026-04-12T09:10:12.235Z</time></trkpt><trkpt lat="43.6239467" lon="13.0458083"><ele>87.66666666666667</ele><time>2026-04-12T09:10:13.235Z</time></trkpt><trkpt lat="43.6241317" lon="13.0459383"><ele>87.0</ele><time>2026-04-12T09:10:14.235Z</time></trkpt><trkpt lat="43.6243183" lon="13.04605"><ele>87.0</ele><time>2026-04-12T09:10:15.235Z</time></trkpt><trkpt lat="43.6245117" lon="13.0461683"><ele>87.0</ele><time>2026-04-12T09:10:16.235Z</time></trkpt><trkpt lat="43.624695" lon="13.0463017"><ele>87.0</ele><time>2026-04-12T09:10:17.235Z</time></trkpt><trkpt lat="43.6248567" lon="13.0464733"><ele>86.66666666666667</ele><time>2026-04-12T09:10:18.235Z</time></trkpt><trkpt lat="43.6249917" lon="13.0466833"><ele>86.33333333333334</ele><time>2026-04-12T09:10:19.235Z</time></trkpt><trkpt lat="43.62511" lon="13.0469083"><ele>86.0</ele><time>2026-04-12T09:10:20.235Z</time></trkpt><trkpt lat="43.6252317" lon="13.047145"><ele>86.33333333333334</ele><time>2026-04-12T09:10:21.234Z</time></trkpt><trkpt lat="43.6253533" lon="13.0473817"><ele>86.66666666666667</ele><time>2026-04-12T09:10:22.235Z</time></trkpt><trkpt lat="43.6254717" lon="13.0476267"><ele>87.0</ele><time>2026-04-12T09:10:23.235Z</time></trkpt><trkpt lat="43.6255833" lon="13.047885"><ele>87.0</ele><time>2026-04-12T09:10:24.235Z</time></trkpt><trkpt lat="43.6256817" lon="13.04817"><ele>87.0</ele><time>2026-04-12T09:10:25.235Z</time></trkpt><trkpt lat="43.62577" lon="13.04845"><ele>86.66666666666667</ele><time>2026-04-12T09:10:26.235Z</time></trkpt><trkpt lat="43.6258567" lon="13.0487233"><ele>86.33333333333334</ele><time>2026-04-12T09:10:27.235Z</time></trkpt><trkpt lat="43.62595" lon="13.0489883"><ele>86.0</ele><time>2026-04-12T09:10:28.234Z</time></trkpt><trkpt lat="43.6260617" lon="13.0492417"><ele>85.66666666666667</ele><time>2026-04-12T09:10:29.235Z</time></trkpt><trkpt lat="43.626205" lon="13.0494583"><ele>85.33333333333333</ele><time>2026-04-12T09:10:30.234Z</time></trkpt><trkpt lat="43.6263567" lon="13.049635"><ele>85.0</ele><time>2026-04-12T09:10:31.235Z</time></trkpt><trkpt lat="43.6265433" lon="13.049795"><ele>84.66666666666666</ele><time>2026-04-12T09:10:32.235Z</time></trkpt><trkpt lat="43.6267217" lon="13.049965"><ele>84.33333333333333</ele><time>2026-04-12T09:10:33.235Z</time></trkpt><trkpt lat="43.6268933" lon="13.05015"><ele>84.0</ele><time>2026-04-12T09:10:34.235Z</time></trkpt><trkpt lat="43.627065" lon="13.0503433"><ele>84.33333333333333</ele><time>2026-04-12T09:10:35.235Z</time></trkpt><trkpt lat="43.627235" lon="13.0505367"><ele>84.66666666666666</ele><time>2026-04-12T09:10:36.235Z</time></trkpt><trkpt lat="43.627405" lon="13.050735"><ele>85.0</ele><time>2026-04-12T09:10:37.235Z</time></trkpt><trkpt lat="43.62758" lon="13.0509383"><ele>85.0</ele><time>2026-04-12T09:10:38.235Z</time></trkpt><trkpt lat="43.6277567" lon="13.0511367"><ele>85.0</ele><time>2026-04-12T09:10:39.235Z</time></trkpt><trkpt lat="43.6279433" lon="13.05135"><ele>84.5</ele><time>2026-04-12T09:10:40.235Z</time></trkpt><trkpt lat="43.6281283" lon="13.0515533"><ele>84.0</ele><time>2026-04-12T09:10:41.235Z</time></trkpt><trkpt lat="43.6283117" lon="13.0517633"><ele>84.0</ele><time>2026-04-12T09:10:42.234Z</time></trkpt><trkpt lat="43.6285017" lon="13.05198"><ele>84.0</ele><time>2026-04-12T09:10:43.235Z</time></trkpt><trkpt lat="43.6286883" lon="13.0521833"><ele>84.0</ele><time>2026-04-12T09:10:44.234Z</time></trkpt><trkpt lat="43.628875" lon="13.0523883"><ele>84.0</ele><time>2026-04-12T09:10:45.235Z</time></trkpt><trkpt lat="43.6290567" lon="13.0525883"><ele>84.0</ele><time>2026-04-12T09:10:46.235Z</time></trkpt><trkpt lat="43.6292283" lon="13.0527867"><ele>84.0</ele><time>2026-04-12T09:10:47.234Z</time></trkpt><trkpt lat="43.6293967" lon="13.0529733"><ele>84.0</ele><time>2026-04-12T09:10:48.235Z</time></trkpt><trkpt lat="43.6295633" lon="13.05316"><ele>84.0</ele><time>2026-04-12T09:10:49.235Z</time></trkpt><trkpt lat="43.6297167" lon="13.05334"><ele>84.0</ele><time>2026-04-12T09:10:50.235Z</time></trkpt><trkpt lat="43.6298433" lon="13.0535483"><ele>84.0</ele><time>2026-04-12T09:10:51.235Z</time></trkpt><trkpt lat="43.6299483" lon="13.0537867"><ele>84.0</ele><time>2026-04-12T09:10:52.234Z</time></trkpt><trkpt lat="43.6300267" lon="13.05404"><ele>84.0</ele><time>2026-04-12T09:10:53.235Z</time></trkpt><trkpt lat="43.6301" lon="13.0542967"><ele>84.0</ele><time>2026-04-12T09:10:54.235Z</time></trkpt><trkpt lat="43.6301767" lon="13.0545383"><ele>83.33333333333333</ele><time>2026-04-12T09:10:55.234Z</time></trkpt><trkpt lat="43.630265" lon="13.0547783"><ele>82.66666666666666</ele><time>2026-04-12T09:10:56.235Z</time></trkpt><trkpt lat="43.6303783" lon="13.0549917"><ele>82.0</ele><time>2026-04-12T09:10:57.234Z</time></trkpt><trkpt lat="43.6305117" lon="13.0551717"><ele>82.0</ele><time>2026-04-12T09:10:58.235Z</time></trkpt><trkpt lat="43.6306583" lon="13.0553267"><ele>82.0</ele><time>2026-04-12T09:10:59.235Z</time></trkpt><trkpt lat="43.63082" lon="13.0554533"><ele>82.0</ele><time>2026-04-12T09:11:00.235Z</time></trkpt><trkpt lat="43.630985" lon="13.0555167"><ele>81.66666666666666</ele><time>2026-04-12T09:11:01.235Z</time></trkpt><trkpt lat="43.6311517" lon="13.0555633"><ele>81.33333333333333</ele><time>2026-04-12T09:11:02.235Z</time></trkpt><trkpt lat="43.63131" lon="13.055595"><ele>81.0</ele><time>2026-04-12T09:11:03.235Z</time></trkpt><trkpt lat="43.63146" lon="13.0556317"><ele>81.0</ele><time>2026-04-12T09:11:04.235Z</time></trkpt><trkpt lat="43.6315867" lon="13.0556917"><ele>81.0</ele><time>2026-04-12T09:11:05.235Z</time></trkpt><trkpt lat="43.6316833" lon="13.0557917"><ele>81.0</ele><time>2026-04-12T09:11:06.234Z</time></trkpt><trkpt lat="43.6317633" lon="13.0559383"><ele>81.0</ele><time>2026-04-12T09:11:07.235Z</time></trkpt><trkpt lat="43.631835" lon="13.056115"><ele>81.0</ele><time>2026-04-12T09:11:08.235Z</time></trkpt><trkpt lat="43.6319067" lon="13.0563167"><ele>81.0</ele><time>2026-04-12T09:11:09.234Z</time></trkpt><trkpt lat="43.631985" lon="13.0565133"><ele>81.0</ele><time>2026-04-12T09:11:10.234Z</time></trkpt><trkpt lat="43.632065" lon="13.0567117"><ele>80.66666666666667</ele><time>2026-04-12T09:11:11.235Z</time></trkpt><trkpt lat="43.6321417" lon="13.0569067"><ele>80.33333333333334</ele><time>2026-04-12T09:11:12.235Z</time></trkpt><trkpt lat="43.6322083" lon="13.05711"><ele>80.0</ele><time>2026-04-12T09:11:13.235Z</time></trkpt><trkpt lat="43.6322717" lon="13.05732"><ele>79.33333333333334</ele><time>2026-04-12T09:11:14.234Z</time></trkpt><trkpt lat="43.632335" lon="13.057525"><ele>78.66666666666667</ele><time>2026-04-12T09:11:15.235Z</time></trkpt><trkpt lat="43.63241" lon="13.05772"><ele>78.0</ele><time>2026-04-12T09:11:16.234Z</time></trkpt><trkpt lat="43.6324867" lon="13.05792"><ele>78.0</ele><time>2026-04-12T09:11:17.235Z</time></trkpt><trkpt lat="43.632575" lon="13.0581233"><ele>78.0</ele><time>2026-04-12T09:11:18.234Z</time></trkpt><trkpt lat="43.632675" lon="13.058325"><ele>78.0</ele><time>2026-04-12T09:11:19.235Z</time></trkpt><trkpt lat="43.632785" lon="13.0585183"><ele>78.0</ele><time>2026-04-12T09:11:20.235Z</time></trkpt><trkpt lat="43.6329" lon="13.058705"><ele>78.0</ele><time>2026-04-12T09:11:21.234Z</time></trkpt><trkpt lat="43.6330217" lon="13.0588883"><ele>78.0</ele><time>2026-04-12T09:11:22.234Z</time></trkpt><trkpt lat="43.6331483" lon="13.059055"><ele>78.0</ele><time>2026-04-12T09:11:23.235Z</time></trkpt><trkpt lat="43.6332867" lon="13.0592017"><ele>78.0</ele><time>2026-04-12T09:11:24.235Z</time></trkpt><trkpt lat="43.6334283" lon="13.0593333"><ele>78.0</ele><time>2026-04-12T09:11:25.234Z</time></trkpt><trkpt lat="43.6335983" lon="13.0594533"><ele>78.33333333333333</ele><time>2026-04-12T09:11:26.235Z</time></trkpt><trkpt lat="43.6337533" lon="13.0595717"><ele>78.66666666666666</ele><time>2026-04-12T09:11:27.235Z</time></trkpt><trkpt lat="43.6339167" lon="13.0596817"><ele>79.0</ele><time>2026-04-12T09:11:28.235Z</time></trkpt><trkpt lat="43.6340967" lon="13.0597933"><ele>79.0</ele><time>2026-04-12T09:11:29.235Z</time></trkpt><trkpt lat="43.6342667" lon="13.0599017"><ele>79.0</ele><time>2026-04-12T09:11:30.235Z</time></trkpt><trkpt lat="43.6344383" lon="13.0600183"><ele>79.0</ele><time>2026-04-12T09:11:31.235Z</time></trkpt><trkpt lat="43.634605" lon="13.06012"><ele>79.33333333333333</ele><time>2026-04-12T09:11:32.235Z</time></trkpt><trkpt lat="43.634775" lon="13.0602233"><ele>79.66666666666667</ele><time>2026-04-12T09:11:33.235Z</time></trkpt><trkpt lat="43.6349367" lon="13.0603167"><ele>80.0</ele><time>2026-04-12T09:11:34.235Z</time></trkpt><trkpt lat="43.6350983" lon="13.06041"><ele>80.0</ele><time>2026-04-12T09:11:35.235Z</time></trkpt><trkpt lat="43.6352583" lon="13.0605017"><ele>80.0</ele><time>2026-04-12T09:11:36.235Z</time></trkpt><trkpt lat="43.635415" lon="13.06059"><ele>80.0</ele><time>2026-04-12T09:11:37.235Z</time></trkpt><trkpt lat="43.6355717" lon="13.06068"><ele>80.0</ele><time>2026-04-12T09:11:38.235Z</time></trkpt><trkpt lat="43.6357317" lon="13.0607717"><ele>80.0</ele><time>2026-04-12T09:11:39.234Z</time></trkpt><trkpt lat="43.6358817" lon="13.060865"><ele>80.0</ele><time>2026-04-12T09:11:40.234Z</time></trkpt><trkpt lat="43.6360383" lon="13.0609517"><ele>80.0</ele><time>2026-04-12T09:11:41.235Z</time></trkpt><trkpt lat="43.6361983" lon="13.0610317"><ele>80.0</ele><time>2026-04-12T09:11:42.235Z</time></trkpt><trkpt lat="43.636365" lon="13.06106"><ele>80.0</ele><time>2026-04-12T09:11:43.234Z</time></trkpt><trkpt lat="43.6365167" lon="13.061095"><ele>80.0</ele><time>2026-04-12T09:11:44.235Z</time></trkpt><trkpt lat="43.6366783" lon="13.0610983"><ele>80.0</ele><time>2026-04-12T09:11:45.235Z</time></trkpt><trkpt lat="43.636835" lon="13.0610967"><ele>80.0</ele><time>2026-04-12T09:11:46.235Z</time></trkpt><trkpt lat="43.6369867" lon="13.0610933"><ele>80.0</ele><time>2026-04-12T09:11:47.235Z</time></trkpt><trkpt lat="43.6371367" lon="13.061085"><ele>80.0</ele><time>2026-04-12T09:11:48.234Z</time></trkpt><trkpt lat="43.6372817" lon="13.0610833"><ele>80.0</ele><time>2026-04-12T09:11:49.234Z</time></trkpt><trkpt lat="43.6374167" lon="13.0610933"><ele>80.0</ele><time>2026-04-12T09:11:50.235Z</time></trkpt><trkpt lat="43.6375267" lon="13.0611317"><ele>80.0</ele><time>2026-04-12T09:11:51.235Z</time></trkpt><trkpt lat="43.63761" lon="13.06121"><ele>80.0</ele><time>2026-04-12T09:11:52.234Z</time></trkpt><trkpt lat="43.6376717" lon="13.0613317"><ele>80.0</ele><time>2026-04-12T09:11:53.234Z</time></trkpt><trkpt lat="43.6377" lon="13.0614867"><ele>80.0</ele><time>2026-04-12T09:11:54.235Z</time></trkpt><trkpt lat="43.6377133" lon="13.0616617"><ele>80.0</ele><time>2026-04-12T09:11:55.235Z</time></trkpt><trkpt lat="43.6377233" lon="13.06184"><ele>80.0</ele><time>2026-04-12T09:11:56.234Z</time></trkpt><trkpt lat="43.6377233" lon="13.0620383"><ele>80.0</ele><time>2026-04-12T09:11:57.235Z</time></trkpt><trkpt lat="43.6377283" lon="13.062235"><ele>80.0</ele><time>2026-04-12T09:11:58.235Z</time></trkpt><trkpt lat="43.6377333" lon="13.0624383"><ele>79.25</ele><time>2026-04-12T09:11:59.235Z</time></trkpt><trkpt lat="43.6377433" lon="13.0626417"><ele>78.5</ele><time>2026-04-12T09:12:00.235Z</time></trkpt><trkpt lat="43.63775" lon="13.0628483"><ele>77.75</ele><time>2026-04-12T09:12:01.234Z</time></trkpt><trkpt lat="43.6377583" lon="13.06305"><ele>77.0</ele><time>2026-04-12T09:12:02.234Z</time></trkpt><trkpt lat="43.6377683" lon="13.0632467"><ele>77.5</ele><time>2026-04-12T09:12:03.234Z</time></trkpt><trkpt lat="43.6377733" lon="13.063435"><ele>78.0</ele><time>2026-04-12T09:12:04.234Z</time></trkpt><trkpt lat="43.6377833" lon="13.063615"><ele>78.5</ele><time>2026-04-12T09:12:05.235Z</time></trkpt><trkpt lat="43.6377867" lon="13.0637833"><ele>79.0</ele><time>2026-04-12T09:12:06.235Z</time></trkpt><trkpt lat="43.6377967" lon="13.0639433"><ele>79.0</ele><time>2026-04-12T09:12:07.234Z</time></trkpt><trkpt lat="43.6378" lon="13.0640883"><ele>79.0</ele><time>2026-04-12T09:12:08.235Z</time></trkpt><trkpt lat="43.6378217" lon="13.0642217"><ele>79.0</ele><time>2026-04-12T09:12:09.234Z</time></trkpt><trkpt lat="43.63785" lon="13.064345"><ele>79.0</ele><time>2026-04-12T09:12:10.234Z</time></trkpt><trkpt lat="43.6378817" lon="13.0644733"><ele>79.0</ele><time>2026-04-12T09:12:11.234Z</time></trkpt><trkpt lat="43.6379183" lon="13.0646133"><ele>79.0</ele><time>2026-04-12T09:12:12.235Z</time></trkpt><trkpt lat="43.637965" lon="13.0647533"><ele>79.0</ele><time>2026-04-12T09:12:13.234Z</time></trkpt><trkpt lat="43.6380167" lon="13.0648917"><ele>79.0</ele><time>2026-04-12T09:12:14.235Z</time></trkpt><trkpt lat="43.6380683" lon="13.0650217"><ele>79.0</ele><time>2026-04-12T09:12:15.234Z</time></trkpt><trkpt lat="43.6381217" lon="13.06515"><ele>79.0</ele><time>2026-04-12T09:12:16.234Z</time></trkpt><trkpt lat="43.638175" lon="13.065275"><ele>78.8</ele><time>2026-04-12T09:12:17.234Z</time></trkpt><trkpt lat="43.638225" lon="13.0653867"><ele>78.60000000000001</ele><time>2026-04-12T09:12:18.235Z</time></trkpt><trkpt lat="43.6382783" lon="13.0654933"><ele>78.4</ele><time>2026-04-12T09:12:19.234Z</time></trkpt><trkpt lat="43.6383283" lon="13.0656083"><ele>78.2</ele><time>2026-04-12T09:12:20.235Z</time></trkpt><trkpt lat="43.6383817" lon="13.0657367"><ele>78.0</ele><time>2026-04-12T09:12:21.234Z</time></trkpt><trkpt lat="43.638445" lon="13.06587"><ele>77.75</ele><time>2026-04-12T09:12:22.235Z</time></trkpt><trkpt lat="43.638525" lon="13.06599"><ele>77.5</ele><time>2026-04-12T09:12:23.234Z</time></trkpt><trkpt lat="43.6386133" lon="13.0661033"><ele>77.25</ele><time>2026-04-12T09:12:24.235Z</time></trkpt><trkpt lat="43.6387133" lon="13.0662133"><ele>77.0</ele><time>2026-04-12T09:12:25.235Z</time></trkpt><trkpt lat="43.6388117" lon="13.0663283"><ele>77.0</ele><time>2026-04-12T09:12:26.235Z</time></trkpt><trkpt lat="43.6389017" lon="13.0664433"><ele>77.0</ele><time>2026-04-12T09:12:27.235Z</time></trkpt><trkpt lat="43.6389933" lon="13.06655"><ele>77.0</ele><time>2026-04-12T09:12:28.234Z</time></trkpt><trkpt lat="43.639075" lon="13.066655"><ele>77.0</ele><time>2026-04-12T09:12:29.235Z</time></trkpt><trkpt lat="43.6391583" lon="13.0667517"><ele>76.83333333333334</ele><time>2026-04-12T09:12:30.235Z</time></trkpt><trkpt lat="43.6392317" lon="13.0668433"><ele>76.66666666666667</ele><time>2026-04-12T09:12:31.235Z</time></trkpt><trkpt lat="43.6392967" lon="13.06693"><ele>76.5</ele><time>2026-04-12T09:12:32.234Z</time></trkpt><trkpt lat="43.6393567" lon="13.06701"><ele>76.33333333333333</ele><time>2026-04-12T09:12:33.235Z</time></trkpt><trkpt lat="43.6394083" lon="13.0670917"><ele>76.16666666666666</ele><time>2026-04-12T09:12:34.234Z</time></trkpt><trkpt lat="43.6394617" lon="13.0671633"><ele>76.0</ele><time>2026-04-12T09:12:35.235Z</time></trkpt><trkpt lat="43.6395233" lon="13.0672083"><ele>76.0</ele><time>2026-04-12T09:12:36.235Z</time></trkpt><trkpt lat="43.639585" lon="13.0672317"><ele>76.0</ele><time>2026-04-12T09:12:37.235Z</time></trkpt><trkpt lat="43.639655" lon="13.0671817"><ele>76.0</ele><time>2026-04-12T09:12:38.234Z</time></trkpt><trkpt lat="43.6397133" lon="13.0670983"><ele>76.0</ele><time>2026-04-12T09:12:39.235Z</time></trkpt><trkpt lat="43.6397483" lon="13.066995"><ele>76.0</ele><time>2026-04-12T09:12:40.235Z</time></trkpt><trkpt lat="43.6397383" lon="13.0668717"><ele>76.0</ele><time>2026-04-12T09:12:41.234Z</time></trkpt><trkpt lat="43.6397033" lon="13.0667583"><ele>76.0</ele><time>2026-04-12T09:12:42.235Z</time></trkpt><trkpt lat="43.639645" lon="13.0666483"><ele>76.0</ele><time>2026-04-12T09:12:43.234Z</time></trkpt><trkpt lat="43.639575" lon="13.0665317"><ele>76.0</ele><time>2026-04-12T09:12:44.235Z</time></trkpt><trkpt lat="43.6395017" lon="13.0663917"><ele>76.0</ele><time>2026-04-12T09:12:45.234Z</time></trkpt><trkpt lat="43.6394333" lon="13.0662383"><ele>76.25</ele><time>2026-04-12T09:12:46.234Z</time></trkpt><trkpt lat="43.63938" lon="13.0660583"><ele>76.5</ele><time>2026-04-12T09:12:47.235Z</time></trkpt><trkpt lat="43.6393517" lon="13.065865"><ele>76.75</ele><time>2026-04-12T09:12:48.234Z</time></trkpt><trkpt lat="43.6393567" lon="13.0656417"><ele>77.0</ele><time>2026-04-12T09:12:49.235Z</time></trkpt><trkpt lat="43.6393817" lon="13.0654117"><ele>77.33333333333334</ele><time>2026-04-12T09:12:50.235Z</time></trkpt><trkpt lat="43.6394133" lon="13.06516"><ele>77.66666666666667</ele><time>2026-04-12T09:12:51.235Z</time></trkpt><trkpt lat="43.6394417" lon="13.0648967"><ele>78.0</ele><time>2026-04-12T09:12:52.235Z</time></trkpt><trkpt lat="43.6394317" lon="13.064625"><ele>79.33333333333333</ele><time>2026-04-12T09:12:53.234Z</time></trkpt><trkpt lat="43.6394033" lon="13.0643367"><ele>80.66666666666666</ele><time>2026-04-12T09:12:54.235Z</time></trkpt><trkpt lat="43.6393683" lon="13.0640333"><ele>82.0</ele><time>2026-04-12T09:12:55.234Z</time></trkpt><trkpt lat="43.6393167" lon="13.0637333"><ele>84.66666666666666</ele><time>2026-04-12T09:12:56.235Z</time></trkpt><trkpt lat="43.639265" lon="13.0634317"><ele>87.33333333333333</ele><time>2026-04-12T09:12:57.234Z</time></trkpt><trkpt lat="43.6392133" lon="13.063135"><ele>90.0</ele><time>2026-04-12T09:12:58.235Z</time></trkpt><trkpt lat="43.6391617" lon="13.0628433"><ele>92.0</ele><time>2026-04-12T09:12:59.235Z</time></trkpt><trkpt lat="43.63911" lon="13.0625683"><ele>94.0</ele><time>2026-04-12T09:13:00.235Z</time></trkpt><trkpt lat="43.6390633" lon="13.0622967"><ele>96.0</ele><time>2026-04-12T09:13:01.234Z</time></trkpt><trkpt lat="43.6390167" lon="13.0620333"><ele>97.66666666666666</ele><time>2026-04-12T09:13:02.234Z</time></trkpt><trkpt lat="43.63897" lon="13.061765"><ele>99.33333333333333</ele><time>2026-04-12T09:13:03.235Z</time></trkpt><trkpt lat="43.638925" lon="13.0615117"><ele>101.0</ele><time>2026-04-12T09:13:04.235Z</time></trkpt><trkpt lat="43.6388867" lon="13.06126"><ele>103.33333333333333</ele><time>2026-04-12T09:13:05.235Z</time></trkpt><trkpt lat="43.6388517" lon="13.06102"><ele>105.66666666666666</ele><time>2026-04-12T09:13:06.235Z</time></trkpt><trkpt lat="43.6388167" lon="13.0607967"><ele>108.0</ele><time>2026-04-12T09:13:07.235Z</time></trkpt><trkpt lat="43.638775" lon="13.06058"><ele>107.75</ele><time>2026-04-12T09:13:08.235Z</time></trkpt><trkpt lat="43.63874" lon="13.0603733"><ele>107.5</ele><time>2026-04-12T09:13:09.235Z</time></trkpt><trkpt lat="43.6387117" lon="13.06017"><ele>107.25</ele><time>2026-04-12T09:13:10.235Z</time></trkpt><trkpt lat="43.6387067" lon="13.0599733"><ele>107.0</ele><time>2026-04-12T09:13:11.234Z</time></trkpt><trkpt lat="43.63873" lon="13.0597783"><ele>107.0</ele><time>2026-04-12T09:13:12.234Z</time></trkpt><trkpt lat="43.6388" lon="13.05962"><ele>107.0</ele><time>2026-04-12T09:13:13.235Z</time></trkpt><trkpt lat="43.6389" lon="13.0595183"><ele>107.0</ele><time>2026-04-12T09:13:14.234Z</time></trkpt><trkpt lat="43.6390033" lon="13.0594583"><ele>107.0</ele><time>2026-04-12T09:13:15.235Z</time></trkpt><trkpt lat="43.6391267" lon="13.059425"><ele>107.0</ele><time>2026-04-12T09:13:16.234Z</time></trkpt><trkpt lat="43.639265" lon="13.0593883"><ele>107.0</ele><time>2026-04-12T09:13:17.234Z</time></trkpt><trkpt lat="43.639385" lon="13.05934"><ele>107.0</ele><time>2026-04-12T09:13:18.235Z</time></trkpt><trkpt lat="43.6394967" lon="13.0592583"><ele>107.0</ele><time>2026-04-12T09:13:19.235Z</time></trkpt><trkpt lat="43.6395967" lon="13.0591633"><ele>109.0</ele><time>2026-04-12T09:13:20.235Z</time></trkpt><trkpt lat="43.6396883" lon="13.0590383"><ele>111.0</ele><time>2026-04-12T09:13:21.235Z</time></trkpt><trkpt lat="43.639785" lon="13.0588883"><ele>113.0</ele><time>2026-04-12T09:13:22.234Z</time></trkpt><trkpt lat="43.6398983" lon="13.0587483"><ele>115.0</ele><time>2026-04-12T09:13:23.235Z</time></trkpt><trkpt lat="43.6400183" lon="13.0586233"><ele>115.0</ele><time>2026-04-12T09:13:24.234Z</time></trkpt><trkpt lat="43.6401567" lon="13.05851"><ele>115.0</ele><time>2026-04-12T09:13:25.235Z</time></trkpt><trkpt lat="43.6402917" lon="13.05842"><ele>115.0</ele><time>2026-04-12T09:13:26.235Z</time></trkpt><trkpt lat="43.6404383" lon="13.0583417"><ele>114.66666666666667</ele><time>2026-04-12T09:13:27.235Z</time></trkpt><trkpt lat="43.6405917" lon="13.0582833"><ele>114.33333333333334</ele><time>2026-04-12T09:13:28.235Z</time></trkpt><trkpt lat="43.6407417" lon="13.05826"><ele>114.0</ele><time>2026-04-12T09:13:29.235Z</time></trkpt><trkpt lat="43.640885" lon="13.0582733"><ele>115.75</ele><time>2026-04-12T09:13:30.235Z</time></trkpt><trkpt lat="43.6410167" lon="13.0583133"><ele>117.5</ele><time>2026-04-12T09:13:31.234Z</time></trkpt><trkpt lat="43.6411417" lon="13.05837"><ele>119.25</ele><time>2026-04-12T09:13:32.235Z</time></trkpt><trkpt lat="43.6412683" lon="13.0584317"><ele>121.0</ele><time>2026-04-12T09:13:33.235Z</time></trkpt><trkpt lat="43.6413833" lon="13.0584833"><ele>121.8</ele><time>2026-04-12T09:13:34.235Z</time></trkpt><trkpt lat="43.6415033" lon="13.058535"><ele>122.6</ele><time>2026-04-12T09:13:35.235Z</time></trkpt><trkpt lat="43.6416117" lon="13.0585567"><ele>123.4</ele><time>2026-04-12T09:13:36.235Z</time></trkpt><trkpt lat="43.6417167" lon="13.05855"><ele>124.2</ele><time>2026-04-12T09:13:37.235Z</time></trkpt><trkpt lat="43.64181" lon="13.05851"><ele>125.0</ele><time>2026-04-12T09:13:38.235Z</time></trkpt><trkpt lat="43.6419033" lon="13.0584167"><ele>125.0</ele><time>2026-04-12T09:13:39.235Z</time></trkpt><trkpt lat="43.6419783" lon="13.058305"><ele>125.0</ele><time>2026-04-12T09:13:40.235Z</time></trkpt><trkpt lat="43.64205" lon="13.05816"><ele>125.0</ele><time>2026-04-12T09:13:41.235Z</time></trkpt><trkpt lat="43.642125" lon="13.058"><ele>125.0</ele><time>2026-04-12T09:13:42.235Z</time></trkpt><trkpt lat="43.642215" lon="13.0578283"><ele>125.0</ele><time>2026-04-12T09:13:43.234Z</time></trkpt><trkpt lat="43.642315" lon="13.0576433"><ele>125.0</ele><time>2026-04-12T09:13:44.235Z</time></trkpt><trkpt lat="43.6424083" lon="13.0574633"><ele>125.0</ele><time>2026-04-12T09:13:45.235Z</time></trkpt><trkpt lat="43.6425133" lon="13.0572567"><ele>126.0</ele><time>2026-04-12T09:13:46.235Z</time></trkpt><trkpt lat="43.64261" lon="13.0570517"><ele>127.0</ele><time>2026-04-12T09:13:47.235Z</time></trkpt><trkpt lat="43.6427167" lon="13.0568617"><ele>128.0</ele><time>2026-04-12T09:13:48.235Z</time></trkpt><trkpt lat="43.6428117" lon="13.05668"><ele>129.33333333333331</ele><time>2026-04-12T09:13:49.235Z</time></trkpt><trkpt lat="43.642905" lon="13.0565017"><ele>130.66666666666666</ele><time>2026-04-12T09:13:50.235Z</time></trkpt><trkpt lat="43.6429883" lon="13.0563333"><ele>132.0</ele><time>2026-04-12T09:13:51.235Z</time></trkpt><trkpt lat="43.6430867" lon="13.0561667"><ele>132.0</ele><time>2026-04-12T09:13:52.235Z</time></trkpt><trkpt lat="43.6431767" lon="13.0560133"><ele>132.0</ele><time>2026-04-12T09:13:53.235Z</time></trkpt><trkpt lat="43.64327" lon="13.05586"><ele>132.0</ele><time>2026-04-12T09:13:54.235Z</time></trkpt><trkpt lat="43.6433617" lon="13.055705"><ele>132.0</ele><time>2026-04-12T09:13:55.235Z</time></trkpt><trkpt lat="43.6434467" lon="13.0555467"><ele>133.25</ele><time>2026-04-12T09:13:56.235Z</time></trkpt><trkpt lat="43.6435483" lon="13.0553933"><ele>134.5</ele><time>2026-04-12T09:13:57.234Z</time></trkpt><trkpt lat="43.64364" lon="13.0552367"><ele>135.75</ele><time>2026-04-12T09:13:58.234Z</time></trkpt><trkpt lat="43.643735" lon="13.0550917"><ele>137.0</ele><time>2026-04-12T09:13:59.235Z</time></trkpt><trkpt lat="43.643845" lon="13.0549433"><ele>138.5</ele><time>2026-04-12T09:14:00.235Z</time></trkpt><trkpt lat="43.64395" lon="13.054795"><ele>140.0</ele><time>2026-04-12T09:14:01.235Z</time></trkpt><trkpt lat="43.644055" lon="13.0546567"><ele>141.5</ele><time>2026-04-12T09:14:02.234Z</time></trkpt><trkpt lat="43.6441617" lon="13.05452"><ele>143.0</ele><time>2026-04-12T09:14:03.235Z</time></trkpt><trkpt lat="43.644275" lon="13.054395"><ele>143.0</ele><time>2026-04-12T09:14:04.235Z</time></trkpt><trkpt lat="43.6443967" lon="13.054275"><ele>143.0</ele><time>2026-04-12T09:14:05.235Z</time></trkpt><trkpt lat="43.6445267" lon="13.0541667"><ele>143.0</ele><time>2026-04-12T09:14:06.234Z</time></trkpt><trkpt lat="43.644665" lon="13.05406"><ele>143.33333333333331</ele><time>2026-04-12T09:14:07.235Z</time></trkpt><trkpt lat="43.644795" lon="13.0539583"><ele>143.66666666666666</ele><time>2026-04-12T09:14:08.235Z</time></trkpt><trkpt lat="43.6449267" lon="13.0538633"><ele>144.0</ele><time>2026-04-12T09:14:09.235Z</time></trkpt><trkpt lat="43.645065" lon="13.0537633"><ele>144.0</ele><time>2026-04-12T09:14:10.235Z</time></trkpt><trkpt lat="43.6452067" lon="13.053665"><ele>144.0</ele><time>2026-04-12T09:14:11.234Z</time></trkpt><trkpt lat="43.645345" lon="13.0535667"><ele>144.0</ele><time>2026-04-12T09:14:12.234Z</time></trkpt><trkpt lat="43.64548" lon="13.0534633"><ele>144.33333333333334</ele><time>2026-04-12T09:14:13.235Z</time></trkpt><trkpt lat="43.645625" lon="13.05336"><ele>144.66666666666669</ele><time>2026-04-12T09:14:14.235Z</time></trkpt><trkpt lat="43.6457617" lon="13.0532417"><ele>145.0</ele><time>2026-04-12T09:14:15.235Z</time></trkpt><trkpt lat="43.6458867" lon="13.05312"><ele>145.0</ele><time>2026-04-12T09:14:16.235Z</time></trkpt><trkpt lat="43.6460083" lon="13.0529883"><ele>145.0</ele><time>2026-04-12T09:14:17.235Z</time></trkpt><trkpt lat="43.64611" lon="13.052845"><ele>145.0</ele><time>2026-04-12T09:14:18.235Z</time></trkpt><trkpt lat="43.646215" lon="13.0527033"><ele>145.0</ele><time>2026-04-12T09:14:19.234Z</time></trkpt><trkpt lat="43.6463167" lon="13.0525567"><ele>147.25</ele><time>2026-04-12T09:14:20.234Z</time></trkpt><trkpt lat="43.6464183" lon="13.0524167"><ele>149.5</ele><time>2026-04-12T09:14:21.235Z</time></trkpt><trkpt lat="43.6465133" lon="13.05227"><ele>151.75</ele><time>2026-04-12T09:14:22.234Z</time></trkpt><trkpt lat="43.6466067" lon="13.0521167"><ele>154.0</ele><time>2026-04-12T09:14:23.235Z</time></trkpt><trkpt lat="43.646695" lon="13.0519733"><ele>154.0</ele><time>2026-04-12T09:14:24.235Z</time></trkpt><trkpt lat="43.646785" lon="13.05183"><ele>154.0</ele><time>2026-04-12T09:14:25.235Z</time></trkpt><trkpt lat="43.6468767" lon="13.0516883"><ele>154.0</ele><time>2026-04-12T09:14:26.234Z</time></trkpt><trkpt lat="43.6469567" lon="13.0515583"><ele>154.0</ele><time>2026-04-12T09:14:27.235Z</time></trkpt><trkpt lat="43.6470333" lon="13.0514317"><ele>154.8</ele><time>2026-04-12T09:14:28.235Z</time></trkpt><trkpt lat="43.6471133" lon="13.051315"><ele>155.60000000000002</ele><time>2026-04-12T09:14:29.235Z</time></trkpt><trkpt lat="43.6471933" lon="13.0511917"><ele>156.4</ele><time>2026-04-12T09:14:30.235Z</time></trkpt><trkpt lat="43.6472667" lon="13.0510883"><ele>157.20000000000002</ele><time>2026-04-12T09:14:31.235Z</time></trkpt><trkpt lat="43.6473417" lon="13.0509883"><ele>158.0</ele><time>2026-04-12T09:14:32.234Z</time></trkpt><trkpt lat="43.6474183" lon="13.0508817"><ele>158.0</ele><time>2026-04-12T09:14:33.235Z</time></trkpt><trkpt lat="43.64749" lon="13.0507867"><ele>158.0</ele><time>2026-04-12T09:14:34.235Z</time></trkpt><trkpt lat="43.6475567" lon="13.0506983"><ele>158.0</ele><time>2026-04-12T09:14:35.234Z</time></trkpt><trkpt lat="43.647615" lon="13.05062"><ele>158.0</ele><time>2026-04-12T09:14:36.234Z</time></trkpt><trkpt lat="43.6476717" lon="13.0505417"><ele>158.0</ele><time>2026-04-12T09:14:37.234Z</time></trkpt><trkpt lat="43.6477383" lon="13.0504633"><ele>158.0</ele><time>2026-04-12T09:14:38.235Z</time></trkpt><trkpt lat="43.6477933" lon="13.0503867"><ele>158.4</ele><time>2026-04-12T09:14:39.234Z</time></trkpt><trkpt lat="43.6478683" lon="13.0502667"><ele>158.8</ele><time>2026-04-12T09:14:41.235Z</time></trkpt><trkpt lat="43.6479483" lon="13.0501733"><ele>159.2</ele><time>2026-04-12T09:14:43.235Z</time></trkpt><trkpt lat="43.6480117" lon="13.0500833"><ele>159.6</ele><time>2026-04-12T09:14:45.234Z</time></trkpt><trkpt lat="43.6480383" lon="13.0499867"><ele>160.0</ele><time>2026-04-12T09:14:47.234Z</time></trkpt><trkpt lat="43.6480217" lon="13.049865"><ele>160.8</ele><time>2026-04-12T09:14:49.234Z</time></trkpt><trkpt lat="43.6479867" lon="13.0497083"><ele>161.6</ele><time>2026-04-12T09:14:51.235Z</time></trkpt><trkpt lat="43.647955" lon="13.0495583"><ele>162.39999999999998</ele><time>2026-04-12T09:14:53.234Z</time></trkpt><trkpt lat="43.6479517" lon="13.0494367"><ele>163.2</ele><time>2026-04-12T09:14:55.235Z</time></trkpt><trkpt lat="43.647945" lon="13.0493317"><ele>164.0</ele><time>2026-04-12T09:14:57.234Z</time></trkpt><trkpt lat="43.6479283" lon="13.049215"><ele>165.16666666666666</ele><time>2026-04-12T09:14:59.235Z</time></trkpt><trkpt lat="43.6479167" lon="13.049065"><ele>166.33333333333331</ele><time>2026-04-12T09:15:01.234Z</time></trkpt><trkpt lat="43.64788" lon="13.0488917"><ele>167.5</ele><time>2026-04-12T09:15:03.234Z</time></trkpt><trkpt lat="43.64786" lon="13.0488"><ele>168.66666666666666</ele><time>2026-04-12T09:15:04.235Z</time></trkpt><trkpt lat="43.6478383" lon="13.048715"><ele>169.83333333333334</ele><time>2026-04-12T09:15:05.235Z</time></trkpt><trkpt lat="43.6478267" lon="13.0486217"><ele>171.0</ele><time>2026-04-12T09:15:06.235Z</time></trkpt><trkpt lat="43.6478117" lon="13.048535"><ele>171.0</ele><time>2026-04-12T09:15:07.235Z</time></trkpt><trkpt lat="43.647795" lon="13.0484433"><ele>171.0</ele><time>2026-04-12T09:15:08.234Z</time></trkpt><trkpt lat="43.6477833" lon="13.0483133"><ele>171.0</ele><time>2026-04-12T09:15:10.234Z</time></trkpt><trkpt lat="43.6477767" lon="13.0482117"><ele>171.0</ele><time>2026-04-12T09:15:13.235Z</time></trkpt><trkpt lat="43.64772" lon="13.04826"><ele>171.0</ele><time>2026-04-12T09:15:27.234Z</time></trkpt><trkpt lat="43.6477533" lon="13.0484267"><ele>171.0</ele><time>2026-04-12T09:15:29.234Z</time></trkpt><trkpt lat="43.64777" lon="13.0485333"><ele>171.0</ele><time>2026-04-12T09:15:30.234Z</time></trkpt><trkpt lat="43.6477867" lon="13.04865"><ele>171.0</ele><time>2026-04-12T09:15:31.235Z</time></trkpt><trkpt lat="43.647815" lon="13.0487633"><ele>171.0</ele><time>2026-04-12T09:15:32.235Z</time></trkpt><trkpt lat="43.6478433" lon="13.04888"><ele>171.0</ele><time>2026-04-12T09:15:33.235Z</time></trkpt><trkpt lat="43.6478633" lon="13.0490017"><ele>171.0</ele><time>2026-04-12T09:15:34.235Z</time></trkpt><trkpt lat="43.6478867" lon="13.0491167"><ele>171.0</ele><time>2026-04-12T09:15:35.235Z</time></trkpt><trkpt lat="43.6478983" lon="13.0492367"><ele>169.60000000000002</ele><time>2026-04-12T09:15:36.235Z</time></trkpt><trkpt lat="43.6479133" lon="13.0493483"><ele>168.2</ele><time>2026-04-12T09:15:37.234Z</time></trkpt><trkpt lat="43.6479217" lon="13.0494533"><ele>166.8</ele><time>2026-04-12T09:15:38.235Z</time></trkpt><trkpt lat="43.64794" lon="13.0495967"><ele>165.39999999999998</ele><time>2026-04-12T09:15:40.235Z</time></trkpt><trkpt lat="43.6479467" lon="13.0497433"><ele>164.0</ele><time>2026-04-12T09:15:42.234Z</time></trkpt><trkpt lat="43.6479333" lon="13.0498933"><ele>164.0</ele><time>2026-04-12T09:15:44.235Z</time></trkpt><trkpt lat="43.647935" lon="13.0500217"><ele>164.0</ele><time>2026-04-12T09:15:46.235Z</time></trkpt><trkpt lat="43.64801" lon="13.0500817"><ele>164.0</ele><time>2026-04-12T09:15:48.235Z</time></trkpt><trkpt lat="43.648115" lon="13.05001"><ele>164.0</ele><time>2026-04-12T09:15:50.235Z</time></trkpt><trkpt lat="43.6481683" lon="13.0499583"><ele>164.0</ele><time>2026-04-12T09:15:51.234Z</time></trkpt><trkpt lat="43.6482267" lon="13.0499017"><ele>164.0</ele><time>2026-04-12T09:15:52.235Z</time></trkpt><trkpt lat="43.64829" lon="13.0498233"><ele>164.0</ele><time>2026-04-12T09:15:53.235Z</time></trkpt><trkpt lat="43.6483617" lon="13.049745"><ele>164.0</ele><time>2026-04-12T09:15:54.235Z</time></trkpt><trkpt lat="43.6484333" lon="13.04967"><ele>164.0</ele><time>2026-04-12T09:15:55.235Z</time></trkpt><trkpt lat="43.6485083" lon="13.049595"><ele>164.0</ele><time>2026-04-12T09:15:56.235Z</time></trkpt><trkpt lat="43.64858" lon="13.0495233"><ele>164.0</ele><time>2026-04-12T09:15:57.235Z</time></trkpt><trkpt lat="43.6486583" lon="13.049475"><ele>164.0</ele><time>2026-04-12T09:15:58.235Z</time></trkpt><trkpt lat="43.6487417" lon="13.049425"><ele>165.0</ele><time>2026-04-12T09:15:59.234Z</time></trkpt><trkpt lat="43.648825" lon="13.04939"><ele>166.0</ele><time>2026-04-12T09:16:00.235Z</time></trkpt><trkpt lat="43.6489067" lon="13.0493567"><ele>167.0</ele><time>2026-04-12T09:16:01.234Z</time></trkpt><trkpt lat="43.6489817" lon="13.0493167"><ele>168.0</ele><time>2026-04-12T09:16:02.235Z</time></trkpt><trkpt lat="43.6490567" lon="13.049285"><ele>169.0</ele><time>2026-04-12T09:16:03.235Z</time></trkpt><trkpt lat="43.64914" lon="13.0492467"><ele>170.0</ele><time>2026-04-12T09:16:04.235Z</time></trkpt><trkpt lat="43.6492217" lon="13.0492167"><ele>170.0</ele><time>2026-04-12T09:16:05.235Z</time></trkpt><trkpt lat="43.6493067" lon="13.049175"><ele>170.0</ele><time>2026-04-12T09:16:06.234Z</time></trkpt><trkpt lat="43.6493967" lon="13.0491383"><ele>170.0</ele><time>2026-04-12T09:16:07.235Z</time></trkpt><trkpt lat="43.6494867" lon="13.0491"><ele>170.0</ele><time>2026-04-12T09:16:08.235Z</time></trkpt><trkpt lat="43.6495767" lon="13.0490517"><ele>170.0</ele><time>2026-04-12T09:16:09.235Z</time></trkpt><trkpt lat="43.6496617" lon="13.04901"><ele>174.0</ele><time>2026-04-12T09:16:10.235Z</time></trkpt><trkpt lat="43.64976" lon="13.04897"><ele>178.0</ele><time>2026-04-12T09:16:11.234Z</time></trkpt><trkpt lat="43.649855" lon="13.0489167"><ele>182.0</ele><time>2026-04-12T09:16:12.235Z</time></trkpt><trkpt lat="43.6499467" lon="13.0488567"><ele>186.0</ele><time>2026-04-12T09:16:13.235Z</time></trkpt><trkpt lat="43.65005" lon="13.0488"><ele>190.0</ele><time>2026-04-12T09:16:14.235Z</time></trkpt><trkpt lat="43.6501467" lon="13.04874"><ele>190.0</ele><time>2026-04-12T09:16:15.235Z</time></trkpt><trkpt lat="43.6502467" lon="13.0486683"><ele>190.0</ele><time>2026-04-12T09:16:16.235Z</time></trkpt><trkpt lat="43.6503433" lon="13.0486017"><ele>190.0</ele><time>2026-04-12T09:16:17.234Z</time></trkpt><trkpt lat="43.65044" lon="13.0485383"><ele>190.0</ele><time>2026-04-12T09:16:18.235Z</time></trkpt><trkpt lat="43.6505283" lon="13.048495"><ele>190.0</ele><time>2026-04-12T09:16:19.235Z</time></trkpt><trkpt lat="43.6506" lon="13.0484633"><ele>189.4</ele><time>2026-04-12T09:16:20.235Z</time></trkpt><trkpt lat="43.6506817" lon="13.0484317"><ele>188.8</ele><time>2026-04-12T09:16:21.234Z</time></trkpt><trkpt lat="43.6507617" lon="13.0483933"><ele>188.2</ele><time>2026-04-12T09:16:22.234Z</time></trkpt><trkpt lat="43.65085" lon="13.0483567"><ele>187.6</ele><time>2026-04-12T09:16:23.234Z</time></trkpt><trkpt lat="43.6509433" lon="13.0483133"><ele>187.0</ele><time>2026-04-12T09:16:24.234Z</time></trkpt><trkpt lat="43.65104" lon="13.04828"><ele>187.0</ele><time>2026-04-12T09:16:25.235Z</time></trkpt><trkpt lat="43.65115" lon="13.0482433"><ele>187.0</ele><time>2026-04-12T09:16:26.235Z</time></trkpt><trkpt lat="43.6512633" lon="13.0481967"><ele>187.0</ele><time>2026-04-12T09:16:27.234Z</time></trkpt><trkpt lat="43.651375" lon="13.0481517"><ele>187.0</ele><time>2026-04-12T09:16:28.235Z</time></trkpt><trkpt lat="43.651485" lon="13.048115"><ele>187.0</ele><time>2026-04-12T09:16:29.235Z</time></trkpt><trkpt lat="43.651585" lon="13.0480733"><ele>187.0</ele><time>2026-04-12T09:16:30.235Z</time></trkpt><trkpt lat="43.6516767" lon="13.04803"><ele>187.0</ele><time>2026-04-12T09:16:31.235Z</time></trkpt><trkpt lat="43.651755" lon="13.047985"><ele>187.0</ele><time>2026-04-12T09:16:32.235Z</time></trkpt><trkpt lat="43.6518317" lon="13.047935"><ele>187.0</ele><time>2026-04-12T09:16:33.234Z</time></trkpt><trkpt lat="43.6519" lon="13.047915"><ele>187.0</ele><time>2026-04-12T09:16:34.235Z</time></trkpt><trkpt lat="43.65198" lon="13.0479133"><ele>186.39999999999998</ele><time>2026-04-12T09:16:35.235Z</time></trkpt><trkpt lat="43.6520717" lon="13.0479067"><ele>185.79999999999998</ele><time>2026-04-12T09:16:36.235Z</time></trkpt><trkpt lat="43.6521667" lon="13.0479167"><ele>185.2</ele><time>2026-04-12T09:16:37.235Z</time></trkpt><trkpt lat="43.652265" lon="13.0479183"><ele>184.6</ele><time>2026-04-12T09:16:38.235Z</time></trkpt><trkpt lat="43.6523633" lon="13.0479217"><ele>184.0</ele><time>2026-04-12T09:16:39.235Z</time></trkpt><trkpt lat="43.652465" lon="13.0479267"><ele>184.0</ele><time>2026-04-12T09:16:40.235Z</time></trkpt><trkpt lat="43.6525683" lon="13.0479433"><ele>184.0</ele><time>2026-04-12T09:16:41.234Z</time></trkpt><trkpt lat="43.65267" lon="13.04795"><ele>184.0</ele><time>2026-04-12T09:16:42.235Z</time></trkpt><trkpt lat="43.6527817" lon="13.0479583"><ele>184.0</ele><time>2026-04-12T09:16:43.235Z</time></trkpt><trkpt lat="43.6528967" lon="13.0479633"><ele>184.0</ele><time>2026-04-12T09:16:44.235Z</time></trkpt><trkpt lat="43.6530083" lon="13.047965"><ele>187.5</ele><time>2026-04-12T09:16:45.235Z</time></trkpt><trkpt lat="43.653125" lon="13.047965"><ele>191.0</ele><time>2026-04-12T09:16:46.235Z</time></trkpt><trkpt lat="43.6532517" lon="13.0479567"><ele>194.5</ele><time>2026-04-12T09:16:47.235Z</time></trkpt><trkpt lat="43.6533833" lon="13.047935"><ele>198.0</ele><time>2026-04-12T09:16:48.235Z</time></trkpt><trkpt lat="43.6535133" lon="13.04791"><ele>198.5</ele><time>2026-04-12T09:16:49.234Z</time></trkpt><trkpt lat="43.65364" lon="13.0478783"><ele>199.0</ele><time>2026-04-12T09:16:50.234Z</time></trkpt><trkpt lat="43.6537617" lon="13.0478467"><ele>199.5</ele><time>2026-04-12T09:16:51.234Z</time></trkpt><trkpt lat="43.6538867" lon="13.0478083"><ele>200.0</ele><time>2026-04-12T09:16:52.235Z</time></trkpt><trkpt lat="43.6540033" lon="13.0477733"><ele>200.0</ele><time>2026-04-12T09:16:53.234Z</time></trkpt><trkpt lat="43.654115" lon="13.0477483"><ele>200.0</ele><time>2026-04-12T09:16:54.235Z</time></trkpt><trkpt lat="43.6542183" lon="13.047735"><ele>200.0</ele><time>2026-04-12T09:16:55.235Z</time></trkpt><trkpt lat="43.6543083" lon="13.0477183"><ele>200.0</ele><time>2026-04-12T09:16:56.235Z</time></trkpt><trkpt lat="43.6543967" lon="13.047695"><ele>200.0</ele><time>2026-04-12T09:16:57.234Z</time></trkpt><trkpt lat="43.6544717" lon="13.04767"><ele>200.00000000000003</ele><time>2026-04-12T09:16:58.234Z</time></trkpt><trkpt lat="43.65454" lon="13.04765"><ele>200.0</ele><time>2026-04-12T09:16:59.235Z</time></trkpt><trkpt lat="43.654605" lon="13.0476367"><ele>200.0</ele><time>2026-04-12T09:17:00.235Z</time></trkpt><trkpt lat="43.6547167" lon="13.047615"><ele>200.0</ele><time>2026-04-12T09:17:02.235Z</time></trkpt><trkpt lat="43.6548267" lon="13.0475833"><ele>200.00000000000003</ele><time>2026-04-12T09:17:04.235Z</time></trkpt><trkpt lat="43.6548867" lon="13.0475567"><ele>200.0</ele><time>2026-04-12T09:17:05.235Z</time></trkpt><trkpt lat="43.654955" lon="13.0475417"><ele>200.00000000000003</ele><time>2026-04-12T09:17:06.235Z</time></trkpt><trkpt lat="43.65503" lon="13.0475283"><ele>200.0</ele><time>2026-04-12T09:17:07.235Z</time></trkpt><trkpt lat="43.6551117" lon="13.047515"><ele>200.0</ele><time>2026-04-12T09:17:08.234Z</time></trkpt><trkpt lat="43.6551867" lon="13.0474967"><ele>200.0</ele><time>2026-04-12T09:17:09.235Z</time></trkpt><trkpt lat="43.6552633" lon="13.0474817"><ele>200.00000000000003</ele><time>2026-04-12T09:17:10.234Z</time></trkpt><trkpt lat="43.6553567" lon="13.0474617"><ele>200.0</ele><time>2026-04-12T09:17:11.235Z</time></trkpt><trkpt lat="43.6554533" lon="13.0474367"><ele>200.5</ele><time>2026-04-12T09:17:12.235Z</time></trkpt><trkpt lat="43.6555633" lon="13.04741"><ele>201.0</ele><time>2026-04-12T09:17:13.235Z</time></trkpt><trkpt lat="43.6556717" lon="13.04738"><ele>201.5</ele><time>2026-04-12T09:17:14.235Z</time></trkpt><trkpt lat="43.65579" lon="13.0473667"><ele>202.0</ele><time>2026-04-12T09:17:15.235Z</time></trkpt><trkpt lat="43.65591" lon="13.0473517"><ele>202.0</ele><time>2026-04-12T09:17:16.235Z</time></trkpt><trkpt lat="43.6560167" lon="13.04733"><ele>202.0</ele><time>2026-04-12T09:17:17.235Z</time></trkpt><trkpt lat="43.656125" lon="13.0472867"><ele>202.0</ele><time>2026-04-12T09:17:18.235Z</time></trkpt><trkpt lat="43.65623" lon="13.04721"><ele>202.0</ele><time>2026-04-12T09:17:19.235Z</time></trkpt><trkpt lat="43.6563083" lon="13.0470933"><ele>205.25</ele><time>2026-04-12T09:17:20.234Z</time></trkpt><trkpt lat="43.6563633" lon="13.0469467"><ele>208.5</ele><time>2026-04-12T09:17:21.235Z</time></trkpt><trkpt lat="43.6564033" lon="13.0467867"><ele>211.75</ele><time>2026-04-12T09:17:22.234Z</time></trkpt><trkpt lat="43.656435" lon="13.04662"><ele>215.0</ele><time>2026-04-12T09:17:23.234Z</time></trkpt><trkpt lat="43.6564733" lon="13.0464483"><ele>215.0</ele><time>2026-04-12T09:17:24.234Z</time></trkpt><trkpt lat="43.6565117" lon="13.046285"><ele>215.0</ele><time>2026-04-12T09:17:25.235Z</time></trkpt><trkpt lat="43.65656" lon="13.0461167"><ele>215.0</ele><time>2026-04-12T09:17:26.235Z</time></trkpt><trkpt lat="43.6566033" lon="13.0459517"><ele>215.0</ele><time>2026-04-12T09:17:27.235Z</time></trkpt><trkpt lat="43.6566483" lon="13.0457817"><ele>215.2</ele><time>2026-04-12T09:17:28.234Z</time></trkpt><trkpt lat="43.6566833" lon="13.0456233"><ele>215.4</ele><time>2026-04-12T09:17:29.235Z</time></trkpt><trkpt lat="43.6567083" lon="13.0454683"><ele>215.60000000000002</ele><time>2026-04-12T09:17:30.235Z</time></trkpt><trkpt lat="43.6567233" lon="13.045335"><ele>215.8</ele><time>2026-04-12T09:17:31.235Z</time></trkpt><trkpt lat="43.6567333" lon="13.0451933"><ele>216.0</ele><time>2026-04-12T09:17:32.235Z</time></trkpt><trkpt lat="43.656725" lon="13.0450633"><ele>216.66666666666666</ele><time>2026-04-12T09:17:33.235Z</time></trkpt><trkpt lat="43.6567083" lon="13.04494"><ele>217.33333333333331</ele><time>2026-04-12T09:17:34.234Z</time></trkpt><trkpt lat="43.65668" lon="13.0448167"><ele>218.0</ele><time>2026-04-12T09:17:35.235Z</time></trkpt><trkpt lat="43.6566483" lon="13.0446967"><ele>218.66666666666666</ele><time>2026-04-12T09:17:36.235Z</time></trkpt><trkpt lat="43.656615" lon="13.044585"><ele>219.33333333333331</ele><time>2026-04-12T09:17:37.234Z</time></trkpt><trkpt lat="43.65658" lon="13.0444783"><ele>220.0</ele><time>2026-04-12T09:17:38.234Z</time></trkpt><trkpt lat="43.6565417" lon="13.0443733"><ele>219.99999999999997</ele><time>2026-04-12T09:17:39.234Z</time></trkpt><trkpt lat="43.6565083" lon="13.0442733"><ele>220.0</ele><time>2026-04-12T09:17:40.235Z</time></trkpt><trkpt lat="43.6564783" lon="13.0441767"><ele>220.0</ele><time>2026-04-12T09:17:41.235Z</time></trkpt><trkpt lat="43.65646" lon="13.04406"><ele>220.0</ele><time>2026-04-12T09:17:42.235Z</time></trkpt><trkpt lat="43.6564383" lon="13.0439633"><ele>219.99999999999997</ele><time>2026-04-12T09:17:43.235Z</time></trkpt><trkpt lat="43.6564283" lon="13.0438733"><ele>220.0</ele><time>2026-04-12T09:17:44.235Z</time></trkpt><trkpt lat="43.6564267" lon="13.0437767"><ele>219.16666666666666</ele><time>2026-04-12T09:17:45.235Z</time></trkpt><trkpt lat="43.6564367" lon="13.043685"><ele>218.33333333333331</ele><time>2026-04-12T09:17:46.234Z</time></trkpt><trkpt lat="43.65647" lon="13.0435967"><ele>217.5</ele><time>2026-04-12T09:17:47.235Z</time></trkpt><trkpt lat="43.6565183" lon="13.0435217"><ele>216.66666666666669</ele><time>2026-04-12T09:17:48.235Z</time></trkpt><trkpt lat="43.656575" lon="13.043465"><ele>215.83333333333334</ele><time>2026-04-12T09:17:49.235Z</time></trkpt><trkpt lat="43.6567017" lon="13.0434367"><ele>215.0</ele><time>2026-04-12T09:17:51.235Z</time></trkpt><trkpt lat="43.65677" lon="13.0434383"><ele>215.00000000000003</ele><time>2026-04-12T09:17:52.234Z</time></trkpt><trkpt lat="43.656835" lon="13.043445"><ele>215.0</ele><time>2026-04-12T09:17:53.235Z</time></trkpt><trkpt lat="43.6569383" lon="13.04349"><ele>215.0</ele><time>2026-04-12T09:17:55.234Z</time></trkpt><trkpt lat="43.656995" lon="13.0435367"><ele>215.0</ele><time>2026-04-12T09:17:56.235Z</time></trkpt><trkpt lat="43.657055" lon="13.0435983"><ele>215.00000000000003</ele><time>2026-04-12T09:17:57.234Z</time></trkpt><trkpt lat="43.6571233" lon="13.04367"><ele>215.0</ele><time>2026-04-12T09:17:58.234Z</time></trkpt><trkpt lat="43.6571917" lon="13.043745"><ele>214.6</ele><time>2026-04-12T09:17:59.234Z</time></trkpt><trkpt lat="43.6572667" lon="13.0438283"><ele>214.2</ele><time>2026-04-12T09:18:00.235Z</time></trkpt><trkpt lat="43.657335" lon="13.043915"><ele>213.8</ele><time>2026-04-12T09:18:01.235Z</time></trkpt><trkpt lat="43.6574067" lon="13.044005"><ele>213.4</ele><time>2026-04-12T09:18:02.234Z</time></trkpt><trkpt lat="43.6574817" lon="13.0440883"><ele>213.0</ele><time>2026-04-12T09:18:03.235Z</time></trkpt><trkpt lat="43.6575683" lon="13.044145"><ele>214.8</ele><time>2026-04-12T09:18:04.235Z</time></trkpt><trkpt lat="43.65766" lon="13.0441783"><ele>216.60000000000002</ele><time>2026-04-12T09:18:05.234Z</time></trkpt><trkpt lat="43.6577617" lon="13.0441683"><ele>218.39999999999998</ele><time>2026-04-12T09:18:06.235Z</time></trkpt><trkpt lat="43.6578683" lon="13.0441133"><ele>220.2</ele><time>2026-04-12T09:18:07.235Z</time></trkpt><trkpt lat="43.6579817" lon="13.044035"><ele>222.0</ele><time>2026-04-12T09:18:08.235Z</time></trkpt><trkpt lat="43.6580917" lon="13.0439417"><ele>222.0</ele><time>2026-04-12T09:18:09.235Z</time></trkpt><trkpt lat="43.6581733" lon="13.0438417"><ele>222.0</ele><time>2026-04-12T09:18:10.235Z</time></trkpt><trkpt lat="43.658245" lon="13.04374"><ele>222.0</ele><time>2026-04-12T09:18:11.235Z</time></trkpt><trkpt lat="43.6582933" lon="13.0436317"><ele>222.0</ele><time>2026-04-12T09:18:12.235Z</time></trkpt><trkpt lat="43.6583317" lon="13.0435117"><ele>222.0</ele><time>2026-04-12T09:18:13.234Z</time></trkpt><trkpt lat="43.6583683" lon="13.0433717"><ele>221.75</ele><time>2026-04-12T09:18:14.235Z</time></trkpt><trkpt lat="43.65841" lon="13.0432117"><ele>221.5</ele><time>2026-04-12T09:18:15.235Z</time></trkpt><trkpt lat="43.6584417" lon="13.0430317"><ele>221.25</ele><time>2026-04-12T09:18:16.235Z</time></trkpt><trkpt lat="43.6584517" lon="13.0428317"><ele>221.0</ele><time>2026-04-12T09:18:17.235Z</time></trkpt><trkpt lat="43.658435" lon="13.0426233"><ele>220.0</ele><time>2026-04-12T09:18:18.235Z</time></trkpt><trkpt lat="43.6584" lon="13.0424117"><ele>219.0</ele><time>2026-04-12T09:18:19.235Z</time></trkpt><trkpt lat="43.65835" lon="13.042205"><ele>218.0</ele><time>2026-04-12T09:18:20.235Z</time></trkpt><trkpt lat="43.6582933" lon="13.041995"><ele>218.0</ele><time>2026-04-12T09:18:21.235Z</time></trkpt><trkpt lat="43.6582283" lon="13.0418033"><ele>218.0</ele><time>2026-04-12T09:18:22.235Z</time></trkpt><trkpt lat="43.6581683" lon="13.04161"><ele>218.0</ele><time>2026-04-12T09:18:23.235Z</time></trkpt><trkpt lat="43.6581017" lon="13.0414267"><ele>217.0</ele><time>2026-04-12T09:18:24.234Z</time></trkpt><trkpt lat="43.6580383" lon="13.0412583"><ele>216.0</ele><time>2026-04-12T09:18:25.234Z</time></trkpt><trkpt lat="43.657975" lon="13.04111"><ele>215.0</ele><time>2026-04-12T09:18:26.235Z</time></trkpt><trkpt lat="43.657915" lon="13.040975"><ele>214.0</ele><time>2026-04-12T09:18:27.235Z</time></trkpt><trkpt lat="43.65786" lon="13.0408367"><ele>213.5</ele><time>2026-04-12T09:18:28.235Z</time></trkpt><trkpt lat="43.6578067" lon="13.0406817"><ele>213.0</ele><time>2026-04-12T09:18:29.235Z</time></trkpt><trkpt lat="43.6577417" lon="13.0405183"><ele>212.5</ele><time>2026-04-12T09:18:30.235Z</time></trkpt><trkpt lat="43.657665" lon="13.040355"><ele>212.0</ele><time>2026-04-12T09:18:31.235Z</time></trkpt><trkpt lat="43.65758" lon="13.0402"><ele>212.0</ele><time>2026-04-12T09:18:32.235Z</time></trkpt><trkpt lat="43.6574917" lon="13.0400533"><ele>212.0</ele><time>2026-04-12T09:18:33.235Z</time></trkpt><trkpt lat="43.6574033" lon="13.039915"><ele>212.0</ele><time>2026-04-12T09:18:34.234Z</time></trkpt><trkpt lat="43.6573217" lon="13.0397933"><ele>212.0</ele><time>2026-04-12T09:18:35.234Z</time></trkpt><trkpt lat="43.6572517" lon="13.0396833"><ele>211.00000000000003</ele><time>2026-04-12T09:18:36.235Z</time></trkpt><trkpt lat="43.65719" lon="13.0395883"><ele>210.0</ele><time>2026-04-12T09:18:37.235Z</time></trkpt><trkpt lat="43.6571417" lon="13.0394917"><ele>209.0</ele><time>2026-04-12T09:18:38.234Z</time></trkpt><trkpt lat="43.65711" lon="13.03939"><ele>208.0</ele><time>2026-04-12T09:18:39.235Z</time></trkpt><trkpt lat="43.6571083" lon="13.0392917"><ele>207.00000000000003</ele><time>2026-04-12T09:18:40.235Z</time></trkpt><trkpt lat="43.6571867" lon="13.0392467"><ele>206.0</ele><time>2026-04-12T09:18:41.234Z</time></trkpt><trkpt lat="43.657265" lon="13.0392467"><ele>206.0</ele><time>2026-04-12T09:18:42.234Z</time></trkpt><trkpt lat="43.6573533" lon="13.039275"><ele>206.0</ele><time>2026-04-12T09:18:43.234Z</time></trkpt><trkpt lat="43.6574467" lon="13.0393383"><ele>206.0</ele><time>2026-04-12T09:18:44.234Z</time></trkpt><trkpt lat="43.657565" lon="13.0394517"><ele>206.0</ele><time>2026-04-12T09:18:45.235Z</time></trkpt><trkpt lat="43.6576967" lon="13.039565"><ele>200.33333333333334</ele><time>2026-04-12T09:18:46.234Z</time></trkpt><trkpt lat="43.6578433" lon="13.0396833"><ele>194.66666666666669</ele><time>2026-04-12T09:18:47.235Z</time></trkpt><trkpt lat="43.657985" lon="13.0398067"><ele>189.0</ele><time>2026-04-12T09:18:48.234Z</time></trkpt><trkpt lat="43.658155" lon="13.039935"><ele>193.33333333333331</ele><time>2026-04-12T09:18:49.235Z</time></trkpt><trkpt lat="43.6583017" lon="13.0400667"><ele>197.66666666666666</ele><time>2026-04-12T09:18:50.234Z</time></trkpt><trkpt lat="43.6584417" lon="13.040225"><ele>202.0</ele><time>2026-04-12T09:18:51.235Z</time></trkpt><trkpt lat="43.6585567" lon="13.040395"><ele>198.0</ele><time>2026-04-12T09:18:52.234Z</time></trkpt><trkpt lat="43.6586817" lon="13.040545"><ele>194.0</ele><time>2026-04-12T09:18:53.234Z</time></trkpt><trkpt lat="43.6588267" lon="13.0406633"><ele>190.0</ele><time>2026-04-12T09:18:54.235Z</time></trkpt><trkpt lat="43.65898" lon="13.0407317"><ele>190.0</ele><time>2026-04-12T09:18:55.235Z</time></trkpt><trkpt lat="43.6591367" lon="13.0407533"><ele>190.0</ele><time>2026-04-12T09:18:56.235Z</time></trkpt><trkpt lat="43.659285" lon="13.0407033"><ele>190.0</ele><time>2026-04-12T09:18:57.234Z</time></trkpt><trkpt lat="43.6594233" lon="13.0405933"><ele>190.66666666666669</ele><time>2026-04-12T09:18:58.235Z</time></trkpt><trkpt lat="43.659525" lon="13.0404217"><ele>191.33333333333334</ele><time>2026-04-12T09:18:59.235Z</time></trkpt><trkpt lat="43.659585" lon="13.0402233"><ele>192.0</ele><time>2026-04-12T09:19:00.234Z</time></trkpt><trkpt lat="43.659625" lon="13.039995"><ele>191.66666666666666</ele><time>2026-04-12T09:19:01.235Z</time></trkpt><trkpt lat="43.6596433" lon="13.0397517"><ele>191.33333333333331</ele><time>2026-04-12T09:19:02.234Z</time></trkpt><trkpt lat="43.6596417" lon="13.0395133"><ele>191.0</ele><time>2026-04-12T09:19:03.235Z</time></trkpt><trkpt lat="43.65961" lon="13.0392683"><ele>191.66666666666666</ele><time>2026-04-12T09:19:04.234Z</time></trkpt><trkpt lat="43.6595533" lon="13.039025"><ele>192.33333333333331</ele><time>2026-04-12T09:19:05.235Z</time></trkpt><trkpt lat="43.659475" lon="13.0387967"><ele>193.0</ele><time>2026-04-12T09:19:06.235Z</time></trkpt><trkpt lat="43.6594067" lon="13.0385717"><ele>188.0</ele><time>2026-04-12T09:19:07.235Z</time></trkpt><trkpt lat="43.6593483" lon="13.0383417"><ele>183.0</ele><time>2026-04-12T09:19:08.235Z</time></trkpt><trkpt lat="43.659305" lon="13.0381233"><ele>178.0</ele><time>2026-04-12T09:19:09.235Z</time></trkpt><trkpt lat="43.6592783" lon="13.0379083"><ele>176.33333333333334</ele><time>2026-04-12T09:19:10.235Z</time></trkpt><trkpt lat="43.6592683" lon="13.0377017"><ele>174.66666666666666</ele><time>2026-04-12T09:19:11.235Z</time></trkpt><trkpt lat="43.6592817" lon="13.0374883"><ele>173.0</ele><time>2026-04-12T09:19:12.235Z</time></trkpt><trkpt lat="43.6593233" lon="13.0372767"><ele>172.66666666666666</ele><time>2026-04-12T09:19:13.235Z</time></trkpt><trkpt lat="43.659365" lon="13.0370717"><ele>172.33333333333334</ele><time>2026-04-12T09:19:14.235Z</time></trkpt><trkpt lat="43.6594067" lon="13.0368733"><ele>172.0</ele><time>2026-04-12T09:19:15.235Z</time></trkpt><trkpt lat="43.65946" lon="13.0366783"><ele>168.5</ele><time>2026-04-12T09:19:16.235Z</time></trkpt><trkpt lat="43.659525" lon="13.0365233"><ele>165.0</ele><time>2026-04-12T09:19:17.235Z</time></trkpt><trkpt lat="43.65961" lon="13.03641"><ele>161.5</ele><time>2026-04-12T09:19:18.234Z</time></trkpt><trkpt lat="43.6597183" lon="13.0363383"><ele>158.0</ele><time>2026-04-12T09:19:19.235Z</time></trkpt><trkpt lat="43.659855" lon="13.0362917"><ele>158.0</ele><time>2026-04-12T09:19:20.234Z</time></trkpt><trkpt lat="43.6599917" lon="13.0362567"><ele>158.0</ele><time>2026-04-12T09:19:21.235Z</time></trkpt><trkpt lat="43.6601317" lon="13.0362217"><ele>158.0</ele><time>2026-04-12T09:19:22.235Z</time></trkpt><trkpt lat="43.66027" lon="13.0361783"><ele>158.0</ele><time>2026-04-12T09:19:23.235Z</time></trkpt><trkpt lat="43.6604133" lon="13.036135"><ele>156.5</ele><time>2026-04-12T09:19:24.235Z</time></trkpt><trkpt lat="43.66055" lon="13.0361067"><ele>155.0</ele><time>2026-04-12T09:19:25.235Z</time></trkpt><trkpt lat="43.66069" lon="13.0361217"><ele>153.5</ele><time>2026-04-12T09:19:26.234Z</time></trkpt><trkpt lat="43.66083" lon="13.0361933"><ele>152.0</ele><time>2026-04-12T09:19:27.235Z</time></trkpt><trkpt lat="43.6609633" lon="13.03628"><ele>152.0</ele><time>2026-04-12T09:19:28.235Z</time></trkpt><trkpt lat="43.6610933" lon="13.036375"><ele>152.0</ele><time>2026-04-12T09:19:29.235Z</time></trkpt><trkpt lat="43.6612067" lon="13.036445"><ele>152.0</ele><time>2026-04-12T09:19:30.234Z</time></trkpt><trkpt lat="43.6613067" lon="13.0364567"><ele>152.0</ele><time>2026-04-12T09:19:31.235Z</time></trkpt><trkpt lat="43.6613867" lon="13.0363967"><ele>148.75</ele><time>2026-04-12T09:19:32.235Z</time></trkpt><trkpt lat="43.6614283" lon="13.0362767"><ele>145.5</ele><time>2026-04-12T09:19:33.234Z</time></trkpt><trkpt lat="43.661415" lon="13.036135"><ele>142.25</ele><time>2026-04-12T09:19:34.235Z</time></trkpt><trkpt lat="43.661345" lon="13.03599"><ele>139.0</ele><time>2026-04-12T09:19:35.234Z</time></trkpt><trkpt lat="43.6612583" lon="13.0358417"><ele>139.66666666666669</ele><time>2026-04-12T09:19:36.234Z</time></trkpt><trkpt lat="43.6611583" lon="13.0356833"><ele>140.33333333333334</ele><time>2026-04-12T09:19:37.235Z</time></trkpt><trkpt lat="43.6610433" lon="13.03553"><ele>141.0</ele><time>2026-04-12T09:19:38.234Z</time></trkpt><trkpt lat="43.660935" lon="13.035375"><ele>141.0</ele><time>2026-04-12T09:19:39.235Z</time></trkpt><trkpt lat="43.6608283" lon="13.0352417"><ele>141.0</ele><time>2026-04-12T09:19:40.235Z</time></trkpt><trkpt lat="43.6607117" lon="13.0351233"><ele>141.0</ele><time>2026-04-12T09:19:41.234Z</time></trkpt><trkpt lat="43.6605783" lon="13.03503"><ele>141.0</ele><time>2026-04-12T09:19:42.234Z</time></trkpt><trkpt lat="43.6604383" lon="13.0349867"><ele>141.0</ele><time>2026-04-12T09:19:43.235Z</time></trkpt><trkpt lat="43.660285" lon="13.0349817"><ele>141.0</ele><time>2026-04-12T09:19:44.234Z</time></trkpt><trkpt lat="43.6601267" lon="13.034995"><ele>141.0</ele><time>2026-04-12T09:19:45.235Z</time></trkpt><trkpt lat="43.65997" lon="13.03502"><ele>141.33333333333334</ele><time>2026-04-12T09:19:46.235Z</time></trkpt><trkpt lat="43.6598067" lon="13.035075"><ele>141.66666666666669</ele><time>2026-04-12T09:19:47.235Z</time></trkpt><trkpt lat="43.6596483" lon="13.0351633"><ele>142.0</ele><time>2026-04-12T09:19:48.234Z</time></trkpt><trkpt lat="43.6594983" lon="13.03526"><ele>140.5</ele><time>2026-04-12T09:19:49.234Z</time></trkpt><trkpt lat="43.65936" lon="13.0353483"><ele>139.0</ele><time>2026-04-12T09:19:50.235Z</time></trkpt><trkpt lat="43.6592333" lon="13.0354483"><ele>137.5</ele><time>2026-04-12T09:19:51.235Z</time></trkpt><trkpt lat="43.659115" lon="13.0355483"><ele>136.0</ele><time>2026-04-12T09:19:52.234Z</time></trkpt><trkpt lat="43.65899" lon="13.0356283"><ele>136.0</ele><time>2026-04-12T09:19:53.234Z</time></trkpt><trkpt lat="43.6588683" lon="13.0356867"><ele>136.0</ele><time>2026-04-12T09:19:54.234Z</time></trkpt><trkpt lat="43.6587433" lon="13.035705"><ele>136.0</ele><time>2026-04-12T09:19:55.235Z</time></trkpt><trkpt lat="43.65863" lon="13.0356717"><ele>136.0</ele><time>2026-04-12T09:19:56.235Z</time></trkpt><trkpt lat="43.65853" lon="13.03558"><ele>135.5</ele><time>2026-04-12T09:19:57.235Z</time></trkpt><trkpt lat="43.6584667" lon="13.0354567"><ele>135.0</ele><time>2026-04-12T09:19:58.235Z</time></trkpt><trkpt lat="43.658435" lon="13.0353"><ele>134.5</ele><time>2026-04-12T09:19:59.235Z</time></trkpt><trkpt lat="43.65844" lon="13.0351117"><ele>134.0</ele><time>2026-04-12T09:20:00.235Z</time></trkpt><trkpt lat="43.6584667" lon="13.0349117"><ele>134.0</ele><time>2026-04-12T09:20:01.234Z</time></trkpt><trkpt lat="43.6584967" lon="13.0347017"><ele>134.0</ele><time>2026-04-12T09:20:02.235Z</time></trkpt><trkpt lat="43.6585417" lon="13.03448"><ele>134.0</ele><time>2026-04-12T09:20:03.235Z</time></trkpt><trkpt lat="43.658585" lon="13.03426"><ele>130.33333333333331</ele><time>2026-04-12T09:20:04.235Z</time></trkpt><trkpt lat="43.6586333" lon="13.0340333"><ele>126.66666666666666</ele><time>2026-04-12T09:20:05.235Z</time></trkpt><trkpt lat="43.6586817" lon="13.0337917"><ele>123.0</ele><time>2026-04-12T09:20:06.235Z</time></trkpt><trkpt lat="43.6587533" lon="13.0335467"><ele>122.0</ele><time>2026-04-12T09:20:07.235Z</time></trkpt><trkpt lat="43.658825" lon="13.0332967"><ele>121.0</ele><time>2026-04-12T09:20:08.234Z</time></trkpt><trkpt lat="43.6589" lon="13.0330383"><ele>120.0</ele><time>2026-04-12T09:20:09.235Z</time></trkpt><trkpt lat="43.658975" lon="13.0327733"><ele>120.0</ele><time>2026-04-12T09:20:10.235Z</time></trkpt><trkpt lat="43.6590483" lon="13.0325"><ele>120.0</ele><time>2026-04-12T09:20:11.235Z</time></trkpt><trkpt lat="43.6591267" lon="13.0322283"><ele>120.0</ele><time>2026-04-12T09:20:12.235Z</time></trkpt><trkpt lat="43.6591983" lon="13.031955"><ele>119.66666666666666</ele><time>2026-04-12T09:20:13.235Z</time></trkpt><trkpt lat="43.65927" lon="13.0317"><ele>119.33333333333333</ele><time>2026-04-12T09:20:14.235Z</time></trkpt><trkpt lat="43.6593483" lon="13.03144"><ele>119.0</ele><time>2026-04-12T09:20:15.234Z</time></trkpt><trkpt lat="43.65942" lon="13.031185"><ele>117.66666666666666</ele><time>2026-04-12T09:20:16.234Z</time></trkpt><trkpt lat="43.6594917" lon="13.0309417"><ele>116.33333333333334</ele><time>2026-04-12T09:20:17.234Z</time></trkpt><trkpt lat="43.6595567" lon="13.0307033"><ele>115.0</ele><time>2026-04-12T09:20:18.235Z</time></trkpt><trkpt lat="43.6596083" lon="13.0304867"><ele>115.0</ele><time>2026-04-12T09:20:19.234Z</time></trkpt><trkpt lat="43.6596383" lon="13.0302617"><ele>115.0</ele><time>2026-04-12T09:20:20.235Z</time></trkpt><trkpt lat="43.659645" lon="13.03003"><ele>115.0</ele><time>2026-04-12T09:20:21.235Z</time></trkpt><trkpt lat="43.6596167" lon="13.029805"><ele>113.66666666666667</ele><time>2026-04-12T09:20:22.235Z</time></trkpt><trkpt lat="43.659565" lon="13.02957"><ele>112.33333333333334</ele><time>2026-04-12T09:20:23.234Z</time></trkpt><trkpt lat="43.65951" lon="13.0293333"><ele>111.0</ele><time>2026-04-12T09:20:24.235Z</time></trkpt><trkpt lat="43.659445" lon="13.02908"><ele>111.0</ele><time>2026-04-12T09:20:25.235Z</time></trkpt><trkpt lat="43.6593867" lon="13.02884"><ele>111.0</ele><time>2026-04-12T09:20:26.234Z</time></trkpt><trkpt lat="43.6593217" lon="13.0286133"><ele>111.0</ele><time>2026-04-12T09:20:27.234Z</time></trkpt><trkpt lat="43.6592583" lon="13.028385"><ele>109.66666666666666</ele><time>2026-04-12T09:20:28.234Z</time></trkpt><trkpt lat="43.6591983" lon="13.02815"><ele>108.33333333333333</ele><time>2026-04-12T09:20:29.235Z</time></trkpt><trkpt lat="43.6591317" lon="13.02791"><ele>107.0</ele><time>2026-04-12T09:20:30.235Z</time></trkpt><trkpt lat="43.6590767" lon="13.0276583"><ele>106.66666666666666</ele><time>2026-04-12T09:20:31.234Z</time></trkpt><trkpt lat="43.65902" lon="13.0274067"><ele>106.33333333333334</ele><time>2026-04-12T09:20:32.235Z</time></trkpt><trkpt lat="43.6589633" lon="13.027165"><ele>106.0</ele><time>2026-04-12T09:20:33.235Z</time></trkpt><trkpt lat="43.658905" lon="13.02692"><ele>106.0</ele><time>2026-04-12T09:20:34.235Z</time></trkpt><trkpt lat="43.6588467" lon="13.0266667"><ele>106.0</ele><time>2026-04-12T09:20:35.235Z</time></trkpt><trkpt lat="43.6587933" lon="13.0264067"><ele>106.0</ele><time>2026-04-12T09:20:36.235Z</time></trkpt><trkpt lat="43.6587383" lon="13.0261467"><ele>106.66666666666667</ele><time>2026-04-12T09:20:37.235Z</time></trkpt><trkpt lat="43.6586883" lon="13.02589"><ele>107.33333333333334</ele><time>2026-04-12T09:20:38.235Z</time></trkpt><trkpt lat="43.65863" lon="13.0256333"><ele>108.0</ele><time>2026-04-12T09:20:39.235Z</time></trkpt><trkpt lat="43.6585717" lon="13.02537"><ele>108.0</ele><time>2026-04-12T09:20:40.234Z</time></trkpt><trkpt lat="43.65851" lon="13.0251083"><ele>108.0</ele><time>2026-04-12T09:20:41.235Z</time></trkpt><trkpt lat="43.6584483" lon="13.0248483"><ele>108.0</ele><time>2026-04-12T09:20:42.235Z</time></trkpt><trkpt lat="43.6583933" lon="13.0245867"><ele>106.66666666666666</ele><time>2026-04-12T09:20:43.235Z</time></trkpt><trkpt lat="43.65834" lon="13.024315"><ele>105.33333333333333</ele><time>2026-04-12T09:20:44.235Z</time></trkpt><trkpt lat="43.6582833" lon="13.0240417"><ele>104.0</ele><time>2026-04-12T09:20:45.235Z</time></trkpt><trkpt lat="43.6582333" lon="13.0237633"><ele>103.33333333333333</ele><time>2026-04-12T09:20:46.235Z</time></trkpt><trkpt lat="43.6581883" lon="13.0235017"><ele>102.66666666666666</ele><time>2026-04-12T09:20:47.235Z</time></trkpt><trkpt lat="43.658155" lon="13.0232433"><ele>102.0</ele><time>2026-04-12T09:20:48.234Z</time></trkpt><trkpt lat="43.6581217" lon="13.022995"><ele>101.66666666666666</ele><time>2026-04-12T09:20:49.235Z</time></trkpt><trkpt lat="43.6581017" lon="13.0227533"><ele>101.33333333333333</ele><time>2026-04-12T09:20:50.235Z</time></trkpt><trkpt lat="43.6580983" lon="13.0225133"><ele>101.0</ele><time>2026-04-12T09:20:51.234Z</time></trkpt><trkpt lat="43.65811" lon="13.0222767"><ele>101.66666666666666</ele><time>2026-04-12T09:20:52.235Z</time></trkpt><trkpt lat="43.6581417" lon="13.0220483"><ele>102.33333333333334</ele><time>2026-04-12T09:20:53.234Z</time></trkpt><trkpt lat="43.6581967" lon="13.0218333"><ele>103.0</ele><time>2026-04-12T09:20:54.235Z</time></trkpt><trkpt lat="43.65826" lon="13.0216283"><ele>101.66666666666667</ele><time>2026-04-12T09:20:55.235Z</time></trkpt><trkpt lat="43.6583317" lon="13.02144"><ele>100.33333333333334</ele><time>2026-04-12T09:20:56.235Z</time></trkpt><trkpt lat="43.6584233" lon="13.021275"><ele>99.0</ele><time>2026-04-12T09:20:57.235Z</time></trkpt><trkpt lat="43.6585367" lon="13.02113"><ele>98.66666666666666</ele><time>2026-04-12T09:20:58.235Z</time></trkpt><trkpt lat="43.6586633" lon="13.0210017"><ele>98.33333333333333</ele><time>2026-04-12T09:20:59.234Z</time></trkpt><trkpt lat="43.65881" lon="13.020875"><ele>98.0</ele><time>2026-04-12T09:21:00.234Z</time></trkpt><trkpt lat="43.6589683" lon="13.020745"><ele>97.33333333333333</ele><time>2026-04-12T09:21:01.234Z</time></trkpt><trkpt lat="43.659135" lon="13.0206033"><ele>96.66666666666666</ele><time>2026-04-12T09:21:02.235Z</time></trkpt><trkpt lat="43.6593167" lon="13.020455"><ele>96.0</ele><time>2026-04-12T09:21:03.235Z</time></trkpt><trkpt lat="43.6594967" lon="13.0203"><ele>96.0</ele><time>2026-04-12T09:21:04.235Z</time></trkpt><trkpt lat="43.6596817" lon="13.020145"><ele>96.0</ele><time>2026-04-12T09:21:05.234Z</time></trkpt><trkpt lat="43.659875" lon="13.01999"><ele>96.0</ele><time>2026-04-12T09:21:06.235Z</time></trkpt><trkpt lat="43.66007" lon="13.01983"><ele>95.5</ele><time>2026-04-12T09:21:07.235Z</time></trkpt><trkpt lat="43.6602683" lon="13.0196667"><ele>95.0</ele><time>2026-04-12T09:21:08.234Z</time></trkpt><trkpt lat="43.66046" lon="13.019505"><ele>94.66666666666667</ele><time>2026-04-12T09:21:09.235Z</time></trkpt><trkpt lat="43.6606417" lon="13.0193417"><ele>94.33333333333333</ele><time>2026-04-12T09:21:10.235Z</time></trkpt><trkpt lat="43.66083" lon="13.0191783"><ele>94.0</ele><time>2026-04-12T09:21:11.235Z</time></trkpt><trkpt lat="43.6610133" lon="13.0190167"><ele>93.0</ele><time>2026-04-12T09:21:12.235Z</time></trkpt><trkpt lat="43.6611933" lon="13.018865"><ele>92.0</ele><time>2026-04-12T09:21:13.235Z</time></trkpt><trkpt lat="43.6613767" lon="13.01871"><ele>91.0</ele><time>2026-04-12T09:21:14.234Z</time></trkpt><trkpt lat="43.6615517" lon="13.0185717"><ele>91.0</ele><time>2026-04-12T09:21:15.235Z</time></trkpt><trkpt lat="43.661725" lon="13.0184083"><ele>91.0</ele><time>2026-04-12T09:21:16.234Z</time></trkpt><trkpt lat="43.6618867" lon="13.0182517"><ele>91.0</ele><time>2026-04-12T09:21:17.234Z</time></trkpt><trkpt lat="43.662055" lon="13.0180633"><ele>90.66666666666666</ele><time>2026-04-12T09:21:18.234Z</time></trkpt><trkpt lat="43.6622083" lon="13.0178683"><ele>90.33333333333333</ele><time>2026-04-12T09:21:19.235Z</time></trkpt><trkpt lat="43.6623617" lon="13.0176667"><ele>90.0</ele><time>2026-04-12T09:21:20.235Z</time></trkpt><trkpt lat="43.6625117" lon="13.0174733"><ele>90.0</ele><time>2026-04-12T09:21:21.235Z</time></trkpt><trkpt lat="43.6626633" lon="13.0172817"><ele>90.0</ele><time>2026-04-12T09:21:22.235Z</time></trkpt><trkpt lat="43.662815" lon="13.0170883"><ele>90.0</ele><time>2026-04-12T09:21:23.235Z</time></trkpt><trkpt lat="43.662975" lon="13.01689"><ele>90.0</ele><time>2026-04-12T09:21:24.235Z</time></trkpt><trkpt lat="43.663125" lon="13.0166867"><ele>90.0</ele><time>2026-04-12T09:21:25.235Z</time></trkpt><trkpt lat="43.6632833" lon="13.01648"><ele>90.0</ele><time>2026-04-12T09:21:26.235Z</time></trkpt><trkpt lat="43.6634383" lon="13.0162817"><ele>90.0</ele><time>2026-04-12T09:21:27.235Z</time></trkpt><trkpt lat="43.6635933" lon="13.0160867"><ele>90.0</ele><time>2026-04-12T09:21:28.235Z</time></trkpt><trkpt lat="43.6637383" lon="13.0158867"><ele>90.0</ele><time>2026-04-12T09:21:29.234Z</time></trkpt><trkpt lat="43.66389" lon="13.0156883"><ele>89.33333333333333</ele><time>2026-04-12T09:21:30.234Z</time></trkpt><trkpt lat="43.6640417" lon="13.0155017"><ele>88.66666666666666</ele><time>2026-04-12T09:21:31.234Z</time></trkpt><trkpt lat="43.6641883" lon="13.01531"><ele>88.0</ele><time>2026-04-12T09:21:32.234Z</time></trkpt><trkpt lat="43.66434" lon="13.0151333"><ele>87.33333333333333</ele><time>2026-04-12T09:21:33.235Z</time></trkpt><trkpt lat="43.6644933" lon="13.0149717"><ele>86.66666666666667</ele><time>2026-04-12T09:21:34.234Z</time></trkpt><trkpt lat="43.6646383" lon="13.01481"><ele>86.0</ele><time>2026-04-12T09:21:35.234Z</time></trkpt><trkpt lat="43.6647783" lon="13.0146633"><ele>86.0</ele><time>2026-04-12T09:21:36.235Z</time></trkpt><trkpt lat="43.6649217" lon="13.0145183"><ele>86.0</ele><time>2026-04-12T09:21:37.235Z</time></trkpt><trkpt lat="43.6650617" lon="13.0143733"><ele>86.0</ele><time>2026-04-12T09:21:38.235Z</time></trkpt><trkpt lat="43.6651983" lon="13.0142317"><ele>86.66666666666667</ele><time>2026-04-12T09:21:39.235Z</time></trkpt><trkpt lat="43.6653117" lon="13.0140933"><ele>87.33333333333333</ele><time>2026-04-12T09:21:40.235Z</time></trkpt><trkpt lat="43.66542" lon="13.0139167"><ele>88.0</ele><time>2026-04-12T09:21:41.234Z</time></trkpt><trkpt lat="43.6655" lon="13.013725"><ele>88.0</ele><time>2026-04-12T09:21:42.234Z</time></trkpt><trkpt lat="43.6655533" lon="13.0135283"><ele>88.0</ele><time>2026-04-12T09:21:43.235Z</time></trkpt><trkpt lat="43.6656083" lon="13.01331"><ele>88.0</ele><time>2026-04-12T09:21:44.234Z</time></trkpt><trkpt lat="43.6656567" lon="13.0131033"><ele>88.33333333333333</ele><time>2026-04-12T09:21:45.234Z</time></trkpt><trkpt lat="43.66571" lon="13.0128633"><ele>88.66666666666667</ele><time>2026-04-12T09:21:46.235Z</time></trkpt><trkpt lat="43.6657517" lon="13.0126717"><ele>89.0</ele><time>2026-04-12T09:21:47.235Z</time></trkpt><trkpt lat="43.6657933" lon="13.0124617"><ele>89.66666666666667</ele><time>2026-04-12T09:21:48.234Z</time></trkpt><trkpt lat="43.6658367" lon="13.012245"><ele>90.33333333333333</ele><time>2026-04-12T09:21:49.235Z</time></trkpt><trkpt lat="43.6658733" lon="13.0120333"><ele>91.0</ele><time>2026-04-12T09:21:50.234Z</time></trkpt><trkpt lat="43.6659167" lon="13.0118117"><ele>91.66666666666666</ele><time>2026-04-12T09:21:51.235Z</time></trkpt><trkpt lat="43.665965" lon="13.0115917"><ele>92.33333333333333</ele><time>2026-04-12T09:21:52.235Z</time></trkpt><trkpt lat="43.6660117" lon="13.0113717"><ele>93.0</ele><time>2026-04-12T09:21:53.235Z</time></trkpt><trkpt lat="43.66606" lon="13.0111617"><ele>93.0</ele><time>2026-04-12T09:21:54.235Z</time></trkpt><trkpt lat="43.6661067" lon="13.01094"><ele>93.0</ele><time>2026-04-12T09:21:55.234Z</time></trkpt><trkpt lat="43.6661483" lon="13.0107183"><ele>93.0</ele><time>2026-04-12T09:21:56.234Z</time></trkpt><trkpt lat="43.6661933" lon="13.0105067"><ele>94.33333333333334</ele><time>2026-04-12T09:21:57.234Z</time></trkpt><trkpt lat="43.6662333" lon="13.0102917"><ele>95.66666666666667</ele><time>2026-04-12T09:21:58.235Z</time></trkpt><trkpt lat="43.6662883" lon="13.01006"><ele>97.0</ele><time>2026-04-12T09:21:59.234Z</time></trkpt><trkpt lat="43.6663267" lon="13.00987"><ele>97.5</ele><time>2026-04-12T09:22:00.235Z</time></trkpt><trkpt lat="43.6663667" lon="13.009675"><ele>98.0</ele><time>2026-04-12T09:22:01.234Z</time></trkpt><trkpt lat="43.6664" lon="13.00949"><ele>98.5</ele><time>2026-04-12T09:22:02.235Z</time></trkpt><trkpt lat="43.6664417" lon="13.0093133"><ele>99.0</ele><time>2026-04-12T09:22:03.235Z</time></trkpt><trkpt lat="43.6664833" lon="13.0091467"><ele>99.2</ele><time>2026-04-12T09:22:04.235Z</time></trkpt><trkpt lat="43.6665217" lon="13.0089833"><ele>99.4</ele><time>2026-04-12T09:22:05.235Z</time></trkpt><trkpt lat="43.6665483" lon="13.00883"><ele>99.6</ele><time>2026-04-12T09:22:06.235Z</time></trkpt><trkpt lat="43.666575" lon="13.0086933"><ele>99.8</ele><time>2026-04-12T09:22:07.235Z</time></trkpt><trkpt lat="43.6666" lon="13.0085783"><ele>100.0</ele><time>2026-04-12T09:22:08.235Z</time></trkpt><trkpt lat="43.6666217" lon="13.0084933"><ele>100.0</ele><time>2026-04-12T09:22:09.235Z</time></trkpt><trkpt lat="43.6666583" lon="13.0083717"><ele>100.0</ele><time>2026-04-12T09:22:11.235Z</time></trkpt><trkpt lat="43.666695" lon="13.00829"><ele>100.0</ele><time>2026-04-12T09:22:13.234Z</time></trkpt><trkpt lat="43.6667467" lon="13.008165"><ele>100.0</ele><time>2026-04-12T09:22:25.235Z</time></trkpt><trkpt lat="43.66671" lon="13.00797"><ele>100.0</ele><time>2026-04-12T09:22:27.235Z</time></trkpt><trkpt lat="43.666675" lon="13.0078333"><ele>100.0</ele><time>2026-04-12T09:22:28.234Z</time></trkpt><trkpt lat="43.6666167" lon="13.007685"><ele>100.0</ele><time>2026-04-12T09:22:29.235Z</time></trkpt><trkpt lat="43.6665567" lon="13.0075367"><ele>100.0</ele><time>2026-04-12T09:22:30.235Z</time></trkpt><trkpt lat="43.6664983" lon="13.007375"><ele>100.0</ele><time>2026-04-12T09:22:31.234Z</time></trkpt><trkpt lat="43.6664383" lon="13.0072117"><ele>100.25</ele><time>2026-04-12T09:22:32.235Z</time></trkpt><trkpt lat="43.66639" lon="13.0070317"><ele>100.5</ele><time>2026-04-12T09:22:33.234Z</time></trkpt><trkpt lat="43.6663617" lon="13.0068383"><ele>100.75</ele><time>2026-04-12T09:22:34.234Z</time></trkpt><trkpt lat="43.6663467" lon="13.0066133"><ele>101.0</ele><time>2026-04-12T09:22:35.235Z</time></trkpt><trkpt lat="43.6663617" lon="13.0063733"><ele>101.66666666666666</ele><time>2026-04-12T09:22:36.235Z</time></trkpt><trkpt lat="43.666365" lon="13.006145"><ele>102.33333333333334</ele><time>2026-04-12T09:22:37.235Z</time></trkpt><trkpt lat="43.6663717" lon="13.0059167"><ele>103.0</ele><time>2026-04-12T09:22:38.235Z</time></trkpt><trkpt lat="43.666365" lon="13.005705"><ele>103.33333333333334</ele><time>2026-04-12T09:22:39.235Z</time></trkpt><trkpt lat="43.6663483" lon="13.0054933"><ele>103.66666666666666</ele><time>2026-04-12T09:22:40.235Z</time></trkpt><trkpt lat="43.6662983" lon="13.0053"><ele>104.0</ele><time>2026-04-12T09:22:41.235Z</time></trkpt><trkpt lat="43.6662233" lon="13.0051233"><ele>104.33333333333333</ele><time>2026-04-12T09:22:42.234Z</time></trkpt><trkpt lat="43.6661217" lon="13.0049617"><ele>104.66666666666666</ele><time>2026-04-12T09:22:43.235Z</time></trkpt><trkpt lat="43.6660133" lon="13.00479"><ele>105.0</ele><time>2026-04-12T09:22:44.234Z</time></trkpt><trkpt lat="43.6658933" lon="13.0046183"><ele>104.33333333333334</ele><time>2026-04-12T09:22:45.235Z</time></trkpt><trkpt lat="43.665765" lon="13.0044367"><ele>103.66666666666667</ele><time>2026-04-12T09:22:46.235Z</time></trkpt><trkpt lat="43.66563" lon="13.0042567"><ele>103.0</ele><time>2026-04-12T09:22:47.234Z</time></trkpt><trkpt lat="43.6654983" lon="13.0040583"><ele>103.0</ele><time>2026-04-12T09:22:48.234Z</time></trkpt><trkpt lat="43.6653667" lon="13.00384"><ele>103.0</ele><time>2026-04-12T09:22:49.234Z</time></trkpt><trkpt lat="43.6652283" lon="13.00365"><ele>103.0</ele><time>2026-04-12T09:22:50.235Z</time></trkpt><trkpt lat="43.6651" lon="13.0034517"><ele>102.33333333333334</ele><time>2026-04-12T09:22:51.234Z</time></trkpt><trkpt lat="43.6649733" lon="13.00327"><ele>101.66666666666666</ele><time>2026-04-12T09:22:52.235Z</time></trkpt><trkpt lat="43.6648483" lon="13.0030983"><ele>101.0</ele><time>2026-04-12T09:22:53.235Z</time></trkpt><trkpt lat="43.6647267" lon="13.0029333"><ele>101.0</ele><time>2026-04-12T09:22:54.235Z</time></trkpt><trkpt lat="43.6646317" lon="13.0027633"><ele>101.0</ele><time>2026-04-12T09:22:55.235Z</time></trkpt><trkpt lat="43.6645617" lon="13.0025633"><ele>101.0</ele><time>2026-04-12T09:22:56.235Z</time></trkpt><trkpt lat="43.664505" lon="13.0023633"><ele>101.33333333333333</ele><time>2026-04-12T09:22:57.235Z</time></trkpt><trkpt lat="43.6644667" lon="13.002155"><ele>101.66666666666666</ele><time>2026-04-12T09:22:58.235Z</time></trkpt><trkpt lat="43.6644183" lon="13.00195"><ele>102.0</ele><time>2026-04-12T09:22:59.235Z</time></trkpt><trkpt lat="43.6643717" lon="13.00174"><ele>101.66666666666666</ele><time>2026-04-12T09:23:00.235Z</time></trkpt><trkpt lat="43.664335" lon="13.0015233"><ele>101.33333333333333</ele><time>2026-04-12T09:23:01.235Z</time></trkpt><trkpt lat="43.6642933" lon="13.00132"><ele>101.0</ele><time>2026-04-12T09:23:02.235Z</time></trkpt><trkpt lat="43.6642567" lon="13.00113"><ele>101.0</ele><time>2026-04-12T09:23:03.234Z</time></trkpt><trkpt lat="43.664215" lon="13.00095"><ele>101.0</ele><time>2026-04-12T09:23:04.234Z</time></trkpt><trkpt lat="43.66418" lon="13.0007833"><ele>101.0</ele><time>2026-04-12T09:23:05.235Z</time></trkpt><trkpt lat="43.6641483" lon="13.0006217"><ele>101.0</ele><time>2026-04-12T09:23:06.234Z</time></trkpt><trkpt lat="43.6641117" lon="13.00047"><ele>101.0</ele><time>2026-04-12T09:23:07.235Z</time></trkpt><trkpt lat="43.664065" lon="13.0003317"><ele>101.0</ele><time>2026-04-12T09:23:08.235Z</time></trkpt><trkpt lat="43.6639983" lon="13.00022"><ele>101.0</ele><time>2026-04-12T09:23:09.234Z</time></trkpt><trkpt lat="43.6639183" lon="13.00013"><ele>101.0</ele><time>2026-04-12T09:23:10.235Z</time></trkpt><trkpt lat="43.663815" lon="13.00007"><ele>101.0</ele><time>2026-04-12T09:23:11.235Z</time></trkpt><trkpt lat="43.66369" lon="13.0000417"><ele>100.75</ele><time>2026-04-12T09:23:12.235Z</time></trkpt><trkpt lat="43.6635633" lon="13.0000217"><ele>100.5</ele><time>2026-04-12T09:23:13.235Z</time></trkpt><trkpt lat="43.6634433" lon="12.9999933"><ele>100.25</ele><time>2026-04-12T09:23:14.234Z</time></trkpt><trkpt lat="43.663305" lon="12.9999467"><ele>100.0</ele><time>2026-04-12T09:23:15.234Z</time></trkpt><trkpt lat="43.6631783" lon="12.999895"><ele>100.0</ele><time>2026-04-12T09:23:16.234Z</time></trkpt><trkpt lat="43.6630467" lon="12.99982"><ele>100.0</ele><time>2026-04-12T09:23:17.235Z</time></trkpt><trkpt lat="43.6629317" lon="12.99972"><ele>100.0</ele><time>2026-04-12T09:23:18.235Z</time></trkpt><trkpt lat="43.662835" lon="12.9995817"><ele>100.0</ele><time>2026-04-12T09:23:19.235Z</time></trkpt><trkpt lat="43.662735" lon="12.9994333"><ele>100.25</ele><time>2026-04-12T09:23:20.235Z</time></trkpt><trkpt lat="43.662635" lon="12.9992783"><ele>100.5</ele><time>2026-04-12T09:23:21.235Z</time></trkpt><trkpt lat="43.6625283" lon="12.9991367"><ele>100.75</ele><time>2026-04-12T09:23:22.235Z</time></trkpt><trkpt lat="43.6624267" lon="12.9989833"><ele>101.0</ele><time>2026-04-12T09:23:23.235Z</time></trkpt><trkpt lat="43.6623017" lon="12.9988617"><ele>101.0</ele><time>2026-04-12T09:23:24.235Z</time></trkpt><trkpt lat="43.662185" lon="12.9987317"><ele>101.0</ele><time>2026-04-12T09:23:25.235Z</time></trkpt><trkpt lat="43.6620583" lon="12.998615"><ele>101.0</ele><time>2026-04-12T09:23:26.234Z</time></trkpt><trkpt lat="43.6619267" lon="12.9985033"><ele>100.75</ele><time>2026-04-12T09:23:27.235Z</time></trkpt><trkpt lat="43.6618017" lon="12.9983967"><ele>100.5</ele><time>2026-04-12T09:23:28.235Z</time></trkpt><trkpt lat="43.6616767" lon="12.99829"><ele>100.25</ele><time>2026-04-12T09:23:29.235Z</time></trkpt><trkpt lat="43.6615633" lon="12.998185"><ele>100.0</ele><time>2026-04-12T09:23:30.235Z</time></trkpt><trkpt lat="43.661455" lon="12.9980883"><ele>100.0</ele><time>2026-04-12T09:23:31.235Z</time></trkpt><trkpt lat="43.6613383" lon="12.9980033"><ele>100.0</ele><time>2026-04-12T09:23:32.235Z</time></trkpt><trkpt lat="43.6612283" lon="12.9979117"><ele>100.0</ele><time>2026-04-12T09:23:33.234Z</time></trkpt><trkpt lat="43.6611233" lon="12.99783"><ele>100.0</ele><time>2026-04-12T09:23:34.235Z</time></trkpt><trkpt lat="43.6610267" lon="12.9977383"><ele>100.0</ele><time>2026-04-12T09:23:35.234Z</time></trkpt><trkpt lat="43.660945" lon="12.9976383"><ele>100.0</ele><time>2026-04-12T09:23:36.235Z</time></trkpt><trkpt lat="43.66086" lon="12.9975367"><ele>100.0</ele><time>2026-04-12T09:23:37.234Z</time></trkpt><trkpt lat="43.6607883" lon="12.9974283"><ele>100.0</ele><time>2026-04-12T09:23:38.235Z</time></trkpt><trkpt lat="43.6607217" lon="12.9973033"><ele>100.0</ele><time>2026-04-12T09:23:39.235Z</time></trkpt><trkpt lat="43.6606517" lon="12.99718"><ele>100.6</ele><time>2026-04-12T09:23:40.235Z</time></trkpt><trkpt lat="43.6605867" lon="12.9970483"><ele>101.2</ele><time>2026-04-12T09:23:41.234Z</time></trkpt><trkpt lat="43.660525" lon="12.996915"><ele>101.80000000000001</ele><time>2026-04-12T09:23:42.235Z</time></trkpt><trkpt lat="43.66047" lon="12.9967783"><ele>102.4</ele><time>2026-04-12T09:23:43.235Z</time></trkpt><trkpt lat="43.6604183" lon="12.99666"><ele>103.0</ele><time>2026-04-12T09:23:44.235Z</time></trkpt><trkpt lat="43.6603733" lon="12.9965467"><ele>103.2</ele><time>2026-04-12T09:23:45.235Z</time></trkpt><trkpt lat="43.6603233" lon="12.9964467"><ele>103.4</ele><time>2026-04-12T09:23:46.235Z</time></trkpt><trkpt lat="43.6602817" lon="12.9963483"><ele>103.60000000000001</ele><time>2026-04-12T09:23:47.234Z</time></trkpt><trkpt lat="43.6602517" lon="12.99626"><ele>103.80000000000001</ele><time>2026-04-12T09:23:48.234Z</time></trkpt><trkpt lat="43.6602083" lon="12.9961133"><ele>104.0</ele><time>2026-04-12T09:23:50.234Z</time></trkpt><trkpt lat="43.6602483" lon="12.9959867"><ele>104.2</ele><time>2026-04-12T09:23:52.235Z</time></trkpt><trkpt lat="43.6603017" lon="12.9958967"><ele>104.4</ele><time>2026-04-12T09:23:53.235Z</time></trkpt><trkpt lat="43.66038" lon="12.9957933"><ele>104.6</ele><time>2026-04-12T09:23:54.235Z</time></trkpt><trkpt lat="43.6604667" lon="12.9956783"><ele>104.8</ele><time>2026-04-12T09:23:55.235Z</time></trkpt><trkpt lat="43.660575" lon="12.9955733"><ele>105.0</ele><time>2026-04-12T09:23:56.235Z</time></trkpt><trkpt lat="43.660705" lon="12.9954617"><ele>105.0</ele><time>2026-04-12T09:23:57.235Z</time></trkpt><trkpt lat="43.6608183" lon="12.9953267"><ele>105.0</ele><time>2026-04-12T09:23:58.235Z</time></trkpt><trkpt lat="43.6609367" lon="12.9952017"><ele>105.0</ele><time>2026-04-12T09:23:59.235Z</time></trkpt><trkpt lat="43.6610517" lon="12.9950883"><ele>105.0</ele><time>2026-04-12T09:24:00.235Z</time></trkpt><trkpt lat="43.66116" lon="12.99495"><ele>105.25</ele><time>2026-04-12T09:24:01.235Z</time></trkpt><trkpt lat="43.661275" lon="12.9948167"><ele>105.5</ele><time>2026-04-12T09:24:02.235Z</time></trkpt><trkpt lat="43.6613833" lon="12.9946767"><ele>105.75</ele><time>2026-04-12T09:24:03.235Z</time></trkpt><trkpt lat="43.66149" lon="12.99454"><ele>106.0</ele><time>2026-04-12T09:24:04.234Z</time></trkpt><trkpt lat="43.6615783" lon="12.9944033"><ele>106.0</ele><time>2026-04-12T09:24:05.234Z</time></trkpt><trkpt lat="43.6616617" lon="12.994265"><ele>106.0</ele><time>2026-04-12T09:24:06.235Z</time></trkpt><trkpt lat="43.66174" lon="12.9941283"><ele>106.0</ele><time>2026-04-12T09:24:07.235Z</time></trkpt><trkpt lat="43.66182" lon="12.9939967"><ele>106.0</ele><time>2026-04-12T09:24:08.234Z</time></trkpt><trkpt lat="43.6618933" lon="12.9938717"><ele>106.0</ele><time>2026-04-12T09:24:09.235Z</time></trkpt><trkpt lat="43.66197" lon="12.9937567"><ele>106.0</ele><time>2026-04-12T09:24:10.235Z</time></trkpt><trkpt lat="43.662045" lon="12.99364"><ele>106.0</ele><time>2026-04-12T09:24:11.234Z</time></trkpt><trkpt lat="43.6621183" lon="12.9935167"><ele>106.0</ele><time>2026-04-12T09:24:12.235Z</time></trkpt><trkpt lat="43.6621967" lon="12.9934"><ele>106.4</ele><time>2026-04-12T09:24:13.234Z</time></trkpt><trkpt lat="43.6622633" lon="12.9932767"><ele>106.8</ele><time>2026-04-12T09:24:14.234Z</time></trkpt><trkpt lat="43.6623217" lon="12.9931517"><ele>107.20000000000002</ele><time>2026-04-12T09:24:15.235Z</time></trkpt><trkpt lat="43.6623783" lon="12.993035"><ele>107.60000000000001</ele><time>2026-04-12T09:24:16.235Z</time></trkpt><trkpt lat="43.6624217" lon="12.9929033"><ele>108.0</ele><time>2026-04-12T09:24:17.235Z</time></trkpt><trkpt lat="43.66243" lon="12.9927617"><ele>108.0</ele><time>2026-04-12T09:24:18.235Z</time></trkpt><trkpt lat="43.6624217" lon="12.992585"><ele>108.0</ele><time>2026-04-12T09:24:19.235Z</time></trkpt><trkpt lat="43.6624" lon="12.992405"><ele>108.0</ele><time>2026-04-12T09:24:20.235Z</time></trkpt><trkpt lat="43.6623733" lon="12.992225"><ele>108.0</ele><time>2026-04-12T09:24:21.235Z</time></trkpt><trkpt lat="43.66233" lon="12.9920483"><ele>109.0</ele><time>2026-04-12T09:24:22.235Z</time></trkpt><trkpt lat="43.6623167" lon="12.99184"><ele>110.0</ele><time>2026-04-12T09:24:23.235Z</time></trkpt><trkpt lat="43.66229" lon="12.9916217"><ele>111.0</ele><time>2026-04-12T09:24:24.234Z</time></trkpt><trkpt lat="43.66227" lon="12.9913833"><ele>112.0</ele><time>2026-04-12T09:24:25.235Z</time></trkpt><trkpt lat="43.6622417" lon="12.99113"><ele>113.0</ele><time>2026-04-12T09:24:26.234Z</time></trkpt><trkpt lat="43.66222" lon="12.9908583"><ele>114.0</ele><time>2026-04-12T09:24:27.235Z</time></trkpt><trkpt lat="43.6621967" lon="12.990575"><ele>115.0</ele><time>2026-04-12T09:24:28.234Z</time></trkpt><trkpt lat="43.662165" lon="12.9903033"><ele>116.0</ele><time>2026-04-12T09:24:29.235Z</time></trkpt><trkpt lat="43.66212" lon="12.9900417"><ele>117.0</ele><time>2026-04-12T09:24:30.235Z</time></trkpt><trkpt lat="43.6620633" lon="12.9897833"><ele>117.33333333333334</ele><time>2026-04-12T09:24:31.235Z</time></trkpt><trkpt lat="43.6619967" lon="12.9895367"><ele>117.66666666666667</ele><time>2026-04-12T09:24:32.234Z</time></trkpt><trkpt lat="43.6619117" lon="12.9893117"><ele>118.0</ele><time>2026-04-12T09:24:33.235Z</time></trkpt><trkpt lat="43.661825" lon="12.9890917"><ele>122.33333333333334</ele><time>2026-04-12T09:24:34.234Z</time></trkpt><trkpt lat="43.6617317" lon="12.9888817"><ele>126.66666666666666</ele><time>2026-04-12T09:24:35.235Z</time></trkpt><trkpt lat="43.6616317" lon="12.988695"><ele>131.0</ele><time>2026-04-12T09:24:36.234Z</time></trkpt><trkpt lat="43.6615317" lon="12.9885233"><ele>131.0</ele><time>2026-04-12T09:24:37.235Z</time></trkpt><trkpt lat="43.6614467" lon="12.98837"><ele>131.0</ele><time>2026-04-12T09:24:38.235Z</time></trkpt><trkpt lat="43.6613483" lon="12.98823"><ele>131.0</ele><time>2026-04-12T09:24:39.235Z</time></trkpt><trkpt lat="43.661255" lon="12.9880933"><ele>131.0</ele><time>2026-04-12T09:24:40.235Z</time></trkpt><trkpt lat="43.661175" lon="12.9879383"><ele>132.0</ele><time>2026-04-12T09:24:41.235Z</time></trkpt><trkpt lat="43.6611333" lon="12.987765"><ele>133.0</ele><time>2026-04-12T09:24:42.234Z</time></trkpt><trkpt lat="43.661125" lon="12.9875817"><ele>134.0</ele><time>2026-04-12T09:24:43.234Z</time></trkpt><trkpt lat="43.6611267" lon="12.9873867"><ele>135.0</ele><time>2026-04-12T09:24:44.234Z</time></trkpt><trkpt lat="43.6611167" lon="12.9871833"><ele>136.5</ele><time>2026-04-12T09:24:45.235Z</time></trkpt><trkpt lat="43.6610933" lon="12.9869817"><ele>138.0</ele><time>2026-04-12T09:24:46.235Z</time></trkpt><trkpt lat="43.6610367" lon="12.9867933"><ele>139.5</ele><time>2026-04-12T09:24:47.234Z</time></trkpt><trkpt lat="43.6609583" lon="12.9866183"><ele>141.0</ele><time>2026-04-12T09:24:48.235Z</time></trkpt><trkpt lat="43.6608617" lon="12.9864583"><ele>142.5</ele><time>2026-04-12T09:24:49.234Z</time></trkpt><trkpt lat="43.66076" lon="12.9862983"><ele>144.0</ele><time>2026-04-12T09:24:50.235Z</time></trkpt><trkpt lat="43.660675" lon="12.986125"><ele>145.5</ele><time>2026-04-12T09:24:51.234Z</time></trkpt><trkpt lat="43.6606333" lon="12.98596"><ele>147.0</ele><time>2026-04-12T09:24:52.234Z</time></trkpt><trkpt lat="43.6606517" lon="12.9857967"><ele>147.25</ele><time>2026-04-12T09:24:53.235Z</time></trkpt><trkpt lat="43.660695" lon="12.9856083"><ele>147.5</ele><time>2026-04-12T09:24:54.235Z</time></trkpt><trkpt lat="43.6607617" lon="12.9854317"><ele>147.75</ele><time>2026-04-12T09:24:55.234Z</time></trkpt><trkpt lat="43.66086" lon="12.9852583"><ele>148.0</ele><time>2026-04-12T09:24:56.234Z</time></trkpt><trkpt lat="43.66098" lon="12.985105"><ele>148.66666666666669</ele><time>2026-04-12T09:24:57.235Z</time></trkpt><trkpt lat="43.6610917" lon="12.984955"><ele>149.33333333333334</ele><time>2026-04-12T09:24:58.235Z</time></trkpt><trkpt lat="43.6612233" lon="12.9848167"><ele>150.0</ele><time>2026-04-12T09:24:59.235Z</time></trkpt><trkpt lat="43.6613517" lon="12.9846733"><ele>150.0</ele><time>2026-04-12T09:25:00.234Z</time></trkpt><trkpt lat="43.6614733" lon="12.9845133"><ele>150.0</ele><time>2026-04-12T09:25:01.235Z</time></trkpt><trkpt lat="43.661605" lon="12.9843267"><ele>150.0</ele><time>2026-04-12T09:25:02.235Z</time></trkpt><trkpt lat="43.6617317" lon="12.98414"><ele>153.66666666666666</ele><time>2026-04-12T09:25:03.235Z</time></trkpt><trkpt lat="43.66186" lon="12.9839467"><ele>157.33333333333331</ele><time>2026-04-12T09:25:04.234Z</time></trkpt><trkpt lat="43.661975" lon="12.983755"><ele>161.0</ele><time>2026-04-12T09:25:05.235Z</time></trkpt><trkpt lat="43.6620917" lon="12.98356"><ele>161.33333333333331</ele><time>2026-04-12T09:25:06.235Z</time></trkpt><trkpt lat="43.6622083" lon="12.9833783"><ele>161.66666666666666</ele><time>2026-04-12T09:25:07.235Z</time></trkpt><trkpt lat="43.6623233" lon="12.98318"><ele>162.0</ele><time>2026-04-12T09:25:08.235Z</time></trkpt><trkpt lat="43.6624317" lon="12.9830117"><ele>164.0</ele><time>2026-04-12T09:25:09.235Z</time></trkpt><trkpt lat="43.6625367" lon="12.9828467"><ele>166.0</ele><time>2026-04-12T09:25:10.234Z</time></trkpt><trkpt lat="43.662655" lon="12.9827"><ele>168.0</ele><time>2026-04-12T09:25:11.235Z</time></trkpt><trkpt lat="43.6627667" lon="12.9826067"><ele>170.0</ele><time>2026-04-12T09:25:12.234Z</time></trkpt><trkpt lat="43.66289" lon="12.9825633"><ele>170.0</ele><time>2026-04-12T09:25:13.235Z</time></trkpt><trkpt lat="43.663015" lon="12.9825783"><ele>170.0</ele><time>2026-04-12T09:25:14.234Z</time></trkpt><trkpt lat="43.6631283" lon="12.9825967"><ele>170.0</ele><time>2026-04-12T09:25:15.235Z</time></trkpt><trkpt lat="43.66323" lon="12.9825617"><ele>170.0</ele><time>2026-04-12T09:25:16.234Z</time></trkpt><trkpt lat="43.6633333" lon="12.98247"><ele>169.75</ele><time>2026-04-12T09:25:17.234Z</time></trkpt><trkpt lat="43.6634333" lon="12.9823467"><ele>169.5</ele><time>2026-04-12T09:25:18.235Z</time></trkpt><trkpt lat="43.663545" lon="12.9821983"><ele>169.25</ele><time>2026-04-12T09:25:19.235Z</time></trkpt><trkpt lat="43.663665" lon="12.982055"><ele>169.0</ele><time>2026-04-12T09:25:20.235Z</time></trkpt><trkpt lat="43.663795" lon="12.9819233"><ele>169.0</ele><time>2026-04-12T09:25:21.235Z</time></trkpt><trkpt lat="43.6639067" lon="12.98178"><ele>169.0</ele><time>2026-04-12T09:25:22.235Z</time></trkpt><trkpt lat="43.6640117" lon="12.9816017"><ele>169.0</ele><time>2026-04-12T09:25:23.235Z</time></trkpt><trkpt lat="43.664095" lon="12.9814033"><ele>172.33333333333334</ele><time>2026-04-12T09:25:24.235Z</time></trkpt><trkpt lat="43.6641667" lon="12.9811717"><ele>175.66666666666666</ele><time>2026-04-12T09:25:25.235Z</time></trkpt><trkpt lat="43.6642133" lon="12.980935"><ele>179.0</ele><time>2026-04-12T09:25:26.235Z</time></trkpt><trkpt lat="43.6642617" lon="12.9807167"><ele>175.66666666666666</ele><time>2026-04-12T09:25:27.235Z</time></trkpt><trkpt lat="43.6643183" lon="12.9805083"><ele>172.33333333333334</ele><time>2026-04-12T09:25:28.235Z</time></trkpt><trkpt lat="43.6643967" lon="12.9802983"><ele>169.0</ele><time>2026-04-12T09:25:29.235Z</time></trkpt><trkpt lat="43.66447" lon="12.9800983"><ele>171.5</ele><time>2026-04-12T09:25:30.235Z</time></trkpt><trkpt lat="43.6645417" lon="12.97992"><ele>174.0</ele><time>2026-04-12T09:25:31.235Z</time></trkpt><trkpt lat="43.6646083" lon="12.9797683"><ele>176.5</ele><time>2026-04-12T09:25:32.235Z</time></trkpt><trkpt lat="43.664675" lon="12.9796367"><ele>179.0</ele><time>2026-04-12T09:25:33.234Z</time></trkpt><trkpt lat="43.6647533" lon="12.9795017"><ele>179.0</ele><time>2026-04-12T09:25:34.235Z</time></trkpt><trkpt lat="43.664845" lon="12.9793583"><ele>179.0</ele><time>2026-04-12T09:25:35.235Z</time></trkpt><trkpt lat="43.6649467" lon="12.9792083"><ele>179.0</ele><time>2026-04-12T09:25:36.235Z</time></trkpt><trkpt lat="43.6650567" lon="12.9790417"><ele>178.0</ele><time>2026-04-12T09:25:37.234Z</time></trkpt><trkpt lat="43.6651733" lon="12.9788683"><ele>177.0</ele><time>2026-04-12T09:25:38.235Z</time></trkpt><trkpt lat="43.6652933" lon="12.9786917"><ele>176.0</ele><time>2026-04-12T09:25:39.235Z</time></trkpt><trkpt lat="43.6654317" lon="12.978525"><ele>176.0</ele><time>2026-04-12T09:25:40.235Z</time></trkpt><trkpt lat="43.6655783" lon="12.978375"><ele>176.0</ele><time>2026-04-12T09:25:41.235Z</time></trkpt><trkpt lat="43.66574" lon="12.9782383"><ele>176.0</ele><time>2026-04-12T09:25:42.234Z</time></trkpt><trkpt lat="43.66591" lon="12.9781217"><ele>177.0</ele><time>2026-04-12T09:25:43.234Z</time></trkpt><trkpt lat="43.6660867" lon="12.9780233"><ele>178.0</ele><time>2026-04-12T09:25:44.235Z</time></trkpt><trkpt lat="43.66625" lon="12.977935"><ele>179.0</ele><time>2026-04-12T09:25:45.235Z</time></trkpt><trkpt lat="43.6664267" lon="12.9778583"><ele>179.0</ele><time>2026-04-12T09:25:46.234Z</time></trkpt><trkpt lat="43.666595" lon="12.9777983"><ele>179.0</ele><time>2026-04-12T09:25:47.235Z</time></trkpt><trkpt lat="43.666765" lon="12.9777483"><ele>179.0</ele><time>2026-04-12T09:25:48.235Z</time></trkpt><trkpt lat="43.6669317" lon="12.9776883"><ele>177.0</ele><time>2026-04-12T09:25:49.235Z</time></trkpt><trkpt lat="43.6670933" lon="12.9776217"><ele>175.0</ele><time>2026-04-12T09:25:50.234Z</time></trkpt><trkpt lat="43.6672517" lon="12.9775767"><ele>173.0</ele><time>2026-04-12T09:25:51.235Z</time></trkpt><trkpt lat="43.6674167" lon="12.9775417"><ele>173.0</ele><time>2026-04-12T09:25:52.234Z</time></trkpt><trkpt lat="43.6675767" lon="12.9775383"><ele>173.0</ele><time>2026-04-12T09:25:53.234Z</time></trkpt><trkpt lat="43.6677417" lon="12.9775317"><ele>173.0</ele><time>2026-04-12T09:25:54.235Z</time></trkpt><trkpt lat="43.6679" lon="12.977495"><ele>177.33333333333331</ele><time>2026-04-12T09:25:55.235Z</time></trkpt><trkpt lat="43.6680617" lon="12.9774233"><ele>181.66666666666666</ele><time>2026-04-12T09:25:56.235Z</time></trkpt><trkpt lat="43.6682367" lon="12.9773233"><ele>186.0</ele><time>2026-04-12T09:25:57.234Z</time></trkpt><trkpt lat="43.6684183" lon="12.9772117"><ele>186.0</ele><time>2026-04-12T09:25:58.234Z</time></trkpt><trkpt lat="43.6686067" lon="12.9771017"><ele>186.0</ele><time>2026-04-12T09:25:59.235Z</time></trkpt><trkpt lat="43.6687933" lon="12.9769967"><ele>186.0</ele><time>2026-04-12T09:26:00.234Z</time></trkpt><trkpt lat="43.668975" lon="12.9768967"><ele>185.66666666666666</ele><time>2026-04-12T09:26:01.235Z</time></trkpt><trkpt lat="43.66915" lon="12.9768067"><ele>185.33333333333331</ele><time>2026-04-12T09:26:02.235Z</time></trkpt><trkpt lat="43.6693383" lon="12.9767267"><ele>185.0</ele><time>2026-04-12T09:26:03.235Z</time></trkpt><trkpt lat="43.6695217" lon="12.9766533"><ele>185.0</ele><time>2026-04-12T09:26:04.235Z</time></trkpt><trkpt lat="43.6696983" lon="12.9765767"><ele>185.0</ele><time>2026-04-12T09:26:05.235Z</time></trkpt><trkpt lat="43.6698683" lon="12.9765033"><ele>185.0</ele><time>2026-04-12T09:26:06.235Z</time></trkpt><trkpt lat="43.6700233" lon="12.9764233"><ele>185.0</ele><time>2026-04-12T09:26:07.235Z</time></trkpt><trkpt lat="43.6701683" lon="12.9763133"><ele>185.0</ele><time>2026-04-12T09:26:08.235Z</time></trkpt><trkpt lat="43.6702967" lon="12.9761833"><ele>185.0</ele><time>2026-04-12T09:26:09.235Z</time></trkpt><trkpt lat="43.6703917" lon="12.9760083"><ele>185.33333333333331</ele><time>2026-04-12T09:26:10.235Z</time></trkpt><trkpt lat="43.6704517" lon="12.9758083"><ele>185.66666666666666</ele><time>2026-04-12T09:26:11.235Z</time></trkpt><trkpt lat="43.6705067" lon="12.9756133"><ele>186.0</ele><time>2026-04-12T09:26:12.235Z</time></trkpt><trkpt lat="43.67059" lon="12.9754333"><ele>186.0</ele><time>2026-04-12T09:26:13.234Z</time></trkpt><trkpt lat="43.6707067" lon="12.975295"><ele>186.0</ele><time>2026-04-12T09:26:14.235Z</time></trkpt><trkpt lat="43.6708517" lon="12.9751667"><ele>186.0</ele><time>2026-04-12T09:26:15.235Z</time></trkpt><trkpt lat="43.6710017" lon="12.97504"><ele>187.66666666666666</ele><time>2026-04-12T09:26:16.234Z</time></trkpt><trkpt lat="43.671155" lon="12.9749067"><ele>189.33333333333331</ele><time>2026-04-12T09:26:17.235Z</time></trkpt><trkpt lat="43.67131" lon="12.9747733"><ele>191.0</ele><time>2026-04-12T09:26:18.235Z</time></trkpt><trkpt lat="43.6714617" lon="12.9746483"><ele>191.0</ele><time>2026-04-12T09:26:19.235Z</time></trkpt><trkpt lat="43.6715967" lon="12.9745383"><ele>191.0</ele><time>2026-04-12T09:26:20.235Z</time></trkpt><trkpt lat="43.67171" lon="12.9744167"><ele>191.0</ele><time>2026-04-12T09:26:21.235Z</time></trkpt><trkpt lat="43.6717867" lon="12.9742783"><ele>191.0</ele><time>2026-04-12T09:26:22.235Z</time></trkpt><trkpt lat="43.6718117" lon="12.9741067"><ele>192.5</ele><time>2026-04-12T09:26:23.235Z</time></trkpt><trkpt lat="43.6717867" lon="12.9739283"><ele>194.0</ele><time>2026-04-12T09:26:24.234Z</time></trkpt><trkpt lat="43.6717217" lon="12.9737833"><ele>195.5</ele><time>2026-04-12T09:26:25.234Z</time></trkpt><trkpt lat="43.6716317" lon="12.9736533"><ele>197.0</ele><time>2026-04-12T09:26:26.235Z</time></trkpt><trkpt lat="43.67155" lon="12.973525"><ele>197.0</ele><time>2026-04-12T09:26:27.235Z</time></trkpt><trkpt lat="43.6714833" lon="12.9733833"><ele>197.0</ele><time>2026-04-12T09:26:28.235Z</time></trkpt><trkpt lat="43.6714767" lon="12.973245"><ele>197.0</ele><time>2026-04-12T09:26:29.235Z</time></trkpt><trkpt lat="43.67151" lon="12.97311"><ele>197.0</ele><time>2026-04-12T09:26:30.235Z</time></trkpt><trkpt lat="43.671585" lon="12.973005"><ele>197.0</ele><time>2026-04-12T09:26:31.235Z</time></trkpt><trkpt lat="43.6716933" lon="12.972915"><ele>199.0</ele><time>2026-04-12T09:26:32.235Z</time></trkpt><trkpt lat="43.671815" lon="12.9728233"><ele>201.0</ele><time>2026-04-12T09:26:33.235Z</time></trkpt><trkpt lat="43.6719317" lon="12.97272"><ele>203.0</ele><time>2026-04-12T09:26:34.235Z</time></trkpt><trkpt lat="43.6720533" lon="12.9726233"><ele>205.0</ele><time>2026-04-12T09:26:35.235Z</time></trkpt><trkpt lat="43.672175" lon="12.9725267"><ele>208.25</ele><time>2026-04-12T09:26:36.235Z</time></trkpt><trkpt lat="43.6722917" lon="12.9724233"><ele>211.5</ele><time>2026-04-12T09:26:37.234Z</time></trkpt><trkpt lat="43.672405" lon="12.9723317"><ele>214.75</ele><time>2026-04-12T09:26:38.235Z</time></trkpt><trkpt lat="43.6725383" lon="12.9722333"><ele>218.0</ele><time>2026-04-12T09:26:39.235Z</time></trkpt><trkpt lat="43.672675" lon="12.9721517"><ele>218.5</ele><time>2026-04-12T09:26:40.235Z</time></trkpt><trkpt lat="43.6728133" lon="12.9720817"><ele>219.0</ele><time>2026-04-12T09:26:41.235Z</time></trkpt><trkpt lat="43.6729583" lon="12.9720333"><ele>219.5</ele><time>2026-04-12T09:26:42.235Z</time></trkpt><trkpt lat="43.6730917" lon="12.971995"><ele>220.0</ele><time>2026-04-12T09:26:43.235Z</time></trkpt><trkpt lat="43.6732133" lon="12.971955"><ele>220.0</ele><time>2026-04-12T09:26:44.235Z</time></trkpt><trkpt lat="43.67332" lon="12.9718983"><ele>220.0</ele><time>2026-04-12T09:26:45.235Z</time></trkpt><trkpt lat="43.67341" lon="12.971805"><ele>220.0</ele><time>2026-04-12T09:26:46.235Z</time></trkpt><trkpt lat="43.6734683" lon="12.9716817"><ele>220.0</ele><time>2026-04-12T09:26:47.235Z</time></trkpt><trkpt lat="43.673475" lon="12.9715283"><ele>220.0</ele><time>2026-04-12T09:26:48.235Z</time></trkpt><trkpt lat="43.6734383" lon="12.9713733"><ele>222.5</ele><time>2026-04-12T09:26:49.235Z</time></trkpt><trkpt lat="43.67335" lon="12.9712517"><ele>225.0</ele><time>2026-04-12T09:26:50.234Z</time></trkpt><trkpt lat="43.673225" lon="12.971175"><ele>227.5</ele><time>2026-04-12T09:26:51.235Z</time></trkpt><trkpt lat="43.6730783" lon="12.9711167"><ele>230.0</ele><time>2026-04-12T09:26:52.234Z</time></trkpt><trkpt lat="43.67294" lon="12.97106"><ele>230.0</ele><time>2026-04-12T09:26:53.234Z</time></trkpt><trkpt lat="43.6728117" lon="12.9709967"><ele>230.0</ele><time>2026-04-12T09:26:54.234Z</time></trkpt><trkpt lat="43.6727" lon="12.9709083"><ele>230.0</ele><time>2026-04-12T09:26:55.235Z</time></trkpt><trkpt lat="43.6726067" lon="12.970785"><ele>230.0</ele><time>2026-04-12T09:26:56.234Z</time></trkpt><trkpt lat="43.67255" lon="12.97064"><ele>232.25</ele><time>2026-04-12T09:26:57.235Z</time></trkpt><trkpt lat="43.6725067" lon="12.9704833"><ele>234.5</ele><time>2026-04-12T09:26:58.234Z</time></trkpt><trkpt lat="43.67252" lon="12.97032"><ele>236.75</ele><time>2026-04-12T09:26:59.235Z</time></trkpt><trkpt lat="43.6725583" lon="12.9701533"><ele>239.0</ele><time>2026-04-12T09:27:00.235Z</time></trkpt><trkpt lat="43.67263" lon="12.97001"><ele>240.5</ele><time>2026-04-12T09:27:01.235Z</time></trkpt><trkpt lat="43.6727133" lon="12.9698717"><ele>242.0</ele><time>2026-04-12T09:27:02.234Z</time></trkpt><trkpt lat="43.6728067" lon="12.9697267"><ele>243.5</ele><time>2026-04-12T09:27:03.235Z</time></trkpt><trkpt lat="43.6728967" lon="12.9695783"><ele>245.0</ele><time>2026-04-12T09:27:04.234Z</time></trkpt><trkpt lat="43.6729817" lon="12.9694083"><ele>248.0</ele><time>2026-04-12T09:27:05.235Z</time></trkpt><trkpt lat="43.6730533" lon="12.9692317"><ele>251.0</ele><time>2026-04-12T09:27:06.235Z</time></trkpt><trkpt lat="43.6731117" lon="12.969045"><ele>254.0</ele><time>2026-04-12T09:27:07.235Z</time></trkpt><trkpt lat="43.673155" lon="12.9688567"><ele>257.0</ele><time>2026-04-12T09:27:08.235Z</time></trkpt><trkpt lat="43.6732" lon="12.9686683"><ele>258.0</ele><time>2026-04-12T09:27:09.235Z</time></trkpt><trkpt lat="43.6732633" lon="12.9684983"><ele>259.0</ele><time>2026-04-12T09:27:10.234Z</time></trkpt><trkpt lat="43.6733133" lon="12.9683267"><ele>260.0</ele><time>2026-04-12T09:27:11.235Z</time></trkpt><trkpt lat="43.67335" lon="12.968165"><ele>261.0</ele><time>2026-04-12T09:27:12.235Z</time></trkpt><trkpt lat="43.6733917" lon="12.9680217"><ele>261.0</ele><time>2026-04-12T09:27:13.234Z</time></trkpt><trkpt lat="43.6734417" lon="12.9678883"><ele>261.0</ele><time>2026-04-12T09:27:14.235Z</time></trkpt><trkpt lat="43.6734783" lon="12.96776"><ele>261.0</ele><time>2026-04-12T09:27:15.234Z</time></trkpt><trkpt lat="43.6735267" lon="12.9676367"><ele>261.0</ele><time>2026-04-12T09:27:16.235Z</time></trkpt><trkpt lat="43.6735817" lon="12.96752"><ele>261.0</ele><time>2026-04-12T09:27:17.235Z</time></trkpt><trkpt lat="43.67364" lon="12.96739"><ele>262.2</ele><time>2026-04-12T09:27:18.235Z</time></trkpt><trkpt lat="43.6737" lon="12.96725"><ele>263.40000000000003</ele><time>2026-04-12T09:27:19.235Z</time></trkpt><trkpt lat="43.6737583" lon="12.9671167"><ele>264.6</ele><time>2026-04-12T09:27:20.235Z</time></trkpt><trkpt lat="43.6738183" lon="12.966985"><ele>265.8</ele><time>2026-04-12T09:27:21.235Z</time></trkpt><trkpt lat="43.6738867" lon="12.966875"><ele>267.0</ele><time>2026-04-12T09:27:22.235Z</time></trkpt><trkpt lat="43.67395" lon="12.96676"><ele>265.0</ele><time>2026-04-12T09:27:23.234Z</time></trkpt><trkpt lat="43.6740167" lon="12.9666567"><ele>263.0</ele><time>2026-04-12T09:27:24.235Z</time></trkpt><trkpt lat="43.67409" lon="12.966555"><ele>261.0</ele><time>2026-04-12T09:27:25.235Z</time></trkpt><trkpt lat="43.6741733" lon="12.9664683"><ele>259.0</ele><time>2026-04-12T09:27:26.234Z</time></trkpt><trkpt lat="43.6742517" lon="12.9663717"><ele>257.0</ele><time>2026-04-12T09:27:27.234Z</time></trkpt><trkpt lat="43.6743367" lon="12.9662733"><ele>257.0</ele><time>2026-04-12T09:27:28.234Z</time></trkpt><trkpt lat="43.6744333" lon="12.96618"><ele>257.0</ele><time>2026-04-12T09:27:29.235Z</time></trkpt><trkpt lat="43.6745267" lon="12.966085"><ele>257.0</ele><time>2026-04-12T09:27:30.235Z</time></trkpt><trkpt lat="43.6746283" lon="12.965985"><ele>257.0</ele><time>2026-04-12T09:27:31.234Z</time></trkpt><trkpt lat="43.6747367" lon="12.9658933"><ele>254.75</ele><time>2026-04-12T09:27:32.235Z</time></trkpt><trkpt lat="43.6748583" lon="12.965785"><ele>252.5</ele><time>2026-04-12T09:27:33.234Z</time></trkpt><trkpt lat="43.6749667" lon="12.965675"><ele>250.25</ele><time>2026-04-12T09:27:34.234Z</time></trkpt><trkpt lat="43.67508" lon="12.9655717"><ele>248.0</ele><time>2026-04-12T09:27:35.235Z</time></trkpt><trkpt lat="43.6752" lon="12.9654667"><ele>245.25</ele><time>2026-04-12T09:27:36.234Z</time></trkpt><trkpt lat="43.6753133" lon="12.9653733"><ele>242.5</ele><time>2026-04-12T09:27:37.235Z</time></trkpt><trkpt lat="43.6754283" lon="12.96527"><ele>239.75</ele><time>2026-04-12T09:27:38.235Z</time></trkpt><trkpt lat="43.67555" lon="12.9651683"><ele>237.0</ele><time>2026-04-12T09:27:39.235Z</time></trkpt><trkpt lat="43.6756633" lon="12.96507"><ele>236.5</ele><time>2026-04-12T09:27:40.235Z</time></trkpt><trkpt lat="43.6757833" lon="12.9649667"><ele>236.0</ele><time>2026-04-12T09:27:41.234Z</time></trkpt><trkpt lat="43.6759017" lon="12.96486"><ele>235.5</ele><time>2026-04-12T09:27:42.235Z</time></trkpt><trkpt lat="43.6760183" lon="12.9647567"><ele>235.0</ele><time>2026-04-12T09:27:43.234Z</time></trkpt><trkpt lat="43.6761383" lon="12.964645"><ele>235.0</ele><time>2026-04-12T09:27:44.235Z</time></trkpt><trkpt lat="43.6762633" lon="12.9645333"><ele>235.0</ele><time>2026-04-12T09:27:45.234Z</time></trkpt><trkpt lat="43.676385" lon="12.9644267"><ele>235.0</ele><time>2026-04-12T09:27:46.235Z</time></trkpt><trkpt lat="43.6765167" lon="12.9643133"><ele>235.0</ele><time>2026-04-12T09:27:47.235Z</time></trkpt><trkpt lat="43.6766333" lon="12.9642"><ele>235.0</ele><time>2026-04-12T09:27:48.235Z</time></trkpt><trkpt lat="43.676755" lon="12.9640833"><ele>235.0</ele><time>2026-04-12T09:27:49.234Z</time></trkpt><trkpt lat="43.6768833" lon="12.9639683"><ele>235.0</ele><time>2026-04-12T09:27:50.235Z</time></trkpt><trkpt lat="43.6770083" lon="12.9638567"><ele>235.0</ele><time>2026-04-12T09:27:51.235Z</time></trkpt><trkpt lat="43.6771483" lon="12.9637483"><ele>235.0</ele><time>2026-04-12T09:27:52.234Z</time></trkpt><trkpt lat="43.677285" lon="12.96365"><ele>235.0</ele><time>2026-04-12T09:27:53.235Z</time></trkpt><trkpt lat="43.6774083" lon="12.963555"><ele>235.0</ele><time>2026-04-12T09:27:54.235Z</time></trkpt><trkpt lat="43.677535" lon="12.963445"><ele>235.0</ele><time>2026-04-12T09:27:55.234Z</time></trkpt><trkpt lat="43.6776717" lon="12.9633233"><ele>235.0</ele><time>2026-04-12T09:27:56.234Z</time></trkpt><trkpt lat="43.6778033" lon="12.963215"><ele>236.66666666666666</ele><time>2026-04-12T09:27:57.235Z</time></trkpt><trkpt lat="43.6779383" lon="12.9630917"><ele>238.33333333333331</ele><time>2026-04-12T09:27:58.235Z</time></trkpt><trkpt lat="43.6780567" lon="12.96296"><ele>240.0</ele><time>2026-04-12T09:27:59.235Z</time></trkpt><trkpt lat="43.678175" lon="12.9628317"><ele>240.0</ele><time>2026-04-12T09:28:00.235Z</time></trkpt><trkpt lat="43.6782967" lon="12.962695"><ele>240.0</ele><time>2026-04-12T09:28:01.235Z</time></trkpt><trkpt lat="43.6784283" lon="12.962555"><ele>240.0</ele><time>2026-04-12T09:28:02.234Z</time></trkpt><trkpt lat="43.6785617" lon="12.962425"><ele>241.66666666666669</ele><time>2026-04-12T09:28:03.235Z</time></trkpt><trkpt lat="43.6787117" lon="12.962285"><ele>243.33333333333334</ele><time>2026-04-12T09:28:04.235Z</time></trkpt><trkpt lat="43.6788567" lon="12.9621417"><ele>245.0</ele><time>2026-04-12T09:28:05.235Z</time></trkpt><trkpt lat="43.678995" lon="12.9619933"><ele>245.0</ele><time>2026-04-12T09:28:06.235Z</time></trkpt><trkpt lat="43.6791217" lon="12.9618383"><ele>245.0</ele><time>2026-04-12T09:28:07.235Z</time></trkpt><trkpt lat="43.6792617" lon="12.9616933"><ele>245.0</ele><time>2026-04-12T09:28:08.235Z</time></trkpt><trkpt lat="43.6793983" lon="12.9615483"><ele>247.0</ele><time>2026-04-12T09:28:09.234Z</time></trkpt><trkpt lat="43.6795383" lon="12.96141"><ele>249.0</ele><time>2026-04-12T09:28:10.235Z</time></trkpt><trkpt lat="43.6796767" lon="12.96127"><ele>251.0</ele><time>2026-04-12T09:28:11.234Z</time></trkpt><trkpt lat="43.67983" lon="12.9611267"><ele>251.0</ele><time>2026-04-12T09:28:12.235Z</time></trkpt><trkpt lat="43.67997" lon="12.96099"><ele>251.0</ele><time>2026-04-12T09:28:13.235Z</time></trkpt><trkpt lat="43.6801117" lon="12.960855"><ele>251.0</ele><time>2026-04-12T09:28:14.235Z</time></trkpt><trkpt lat="43.6802567" lon="12.9607167"><ele>252.66666666666669</ele><time>2026-04-12T09:28:15.235Z</time></trkpt><trkpt lat="43.68039" lon="12.9605783"><ele>254.33333333333331</ele><time>2026-04-12T09:28:16.235Z</time></trkpt><trkpt lat="43.6805283" lon="12.9604467"><ele>256.0</ele><time>2026-04-12T09:28:17.235Z</time></trkpt><trkpt lat="43.680635" lon="12.9603133"><ele>256.0</ele><time>2026-04-12T09:28:18.234Z</time></trkpt><trkpt lat="43.68074" lon="12.9601783"><ele>256.0</ele><time>2026-04-12T09:28:19.235Z</time></trkpt><trkpt lat="43.6808283" lon="12.9600383"><ele>256.0</ele><time>2026-04-12T09:28:20.235Z</time></trkpt><trkpt lat="43.6809183" lon="12.9598883"><ele>256.0</ele><time>2026-04-12T09:28:21.235Z</time></trkpt><trkpt lat="43.68101" lon="12.9597483"><ele>256.0</ele><time>2026-04-12T09:28:22.235Z</time></trkpt><trkpt lat="43.6810933" lon="12.9596133"><ele>256.0</ele><time>2026-04-12T09:28:23.235Z</time></trkpt><trkpt lat="43.6811733" lon="12.9594867"><ele>256.0</ele><time>2026-04-12T09:28:24.234Z</time></trkpt><trkpt lat="43.68126" lon="12.9593817"><ele>256.0</ele><time>2026-04-12T09:28:25.235Z</time></trkpt><trkpt lat="43.681355" lon="12.9592867"><ele>256.0</ele><time>2026-04-12T09:28:26.235Z</time></trkpt><trkpt lat="43.6814683" lon="12.9592183"><ele>256.0</ele><time>2026-04-12T09:28:27.234Z</time></trkpt><trkpt lat="43.6815833" lon="12.9591583"><ele>256.0</ele><time>2026-04-12T09:28:28.235Z</time></trkpt><trkpt lat="43.6817133" lon="12.9591083"><ele>256.0</ele><time>2026-04-12T09:28:29.234Z</time></trkpt><trkpt lat="43.6818333" lon="12.959055"><ele>257.0</ele><time>2026-04-12T09:28:30.234Z</time></trkpt><trkpt lat="43.6819633" lon="12.9590283"><ele>258.0</ele><time>2026-04-12T09:28:31.235Z</time></trkpt><trkpt lat="43.6820883" lon="12.9589817"><ele>259.0</ele><time>2026-04-12T09:28:32.234Z</time></trkpt><trkpt lat="43.6822067" lon="12.958935"><ele>260.0</ele><time>2026-04-12T09:28:33.235Z</time></trkpt><trkpt lat="43.6823317" lon="12.9588917"><ele>260.0</ele><time>2026-04-12T09:28:34.234Z</time></trkpt><trkpt lat="43.6824317" lon="12.958845"><ele>260.0</ele><time>2026-04-12T09:28:35.235Z</time></trkpt><trkpt lat="43.68253" lon="12.9587983"><ele>260.0</ele><time>2026-04-12T09:28:36.235Z</time></trkpt><trkpt lat="43.6826083" lon="12.9587583"><ele>260.0</ele><time>2026-04-12T09:28:37.234Z</time></trkpt><trkpt lat="43.68267" lon="12.9587167"><ele>260.0</ele><time>2026-04-12T09:28:38.235Z</time></trkpt><trkpt lat="43.682745" lon="12.95866"><ele>260.0</ele><time>2026-04-12T09:28:40.235Z</time></trkpt><trkpt lat="43.68278" lon="12.9585317"><ele>260.0</ele><time>2026-04-12T09:28:43.235Z</time></trkpt><trkpt lat="43.6827567" lon="12.95838"><ele>260.0</ele><time>2026-04-12T09:28:45.234Z</time></trkpt><trkpt lat="43.682705" lon="12.9582983"><ele>260.0</ele><time>2026-04-12T09:28:46.234Z</time></trkpt><trkpt lat="43.68265" lon="12.9582117"><ele>260.0</ele><time>2026-04-12T09:28:47.234Z</time></trkpt><trkpt lat="43.6825917" lon="12.9581133"><ele>260.0</ele><time>2026-04-12T09:28:48.235Z</time></trkpt><trkpt lat="43.6825517" lon="12.9580017"><ele>260.2</ele><time>2026-04-12T09:28:49.235Z</time></trkpt><trkpt lat="43.6825217" lon="12.9578817"><ele>260.4</ele><time>2026-04-12T09:28:50.235Z</time></trkpt><trkpt lat="43.682495" lon="12.9577533"><ele>260.6</ele><time>2026-04-12T09:28:51.235Z</time></trkpt><trkpt lat="43.682485" lon="12.9576167"><ele>260.8</ele><time>2026-04-12T09:28:52.234Z</time></trkpt><trkpt lat="43.6824883" lon="12.9574717"><ele>261.0</ele><time>2026-04-12T09:28:53.235Z</time></trkpt><trkpt lat="43.6825" lon="12.9573283"><ele>261.0</ele><time>2026-04-12T09:28:54.235Z</time></trkpt><trkpt lat="43.6825183" lon="12.9571817"><ele>261.0</ele><time>2026-04-12T09:28:55.235Z</time></trkpt><trkpt lat="43.6825417" lon="12.957035"><ele>261.0</ele><time>2026-04-12T09:28:56.235Z</time></trkpt><trkpt lat="43.68257" lon="12.956885"><ele>261.0</ele><time>2026-04-12T09:28:57.235Z</time></trkpt><trkpt lat="43.6825933" lon="12.9567383"><ele>261.0</ele><time>2026-04-12T09:28:58.235Z</time></trkpt><trkpt lat="43.6826167" lon="12.9565917"><ele>260.75</ele><time>2026-04-12T09:28:59.234Z</time></trkpt><trkpt lat="43.6826283" lon="12.9564283"><ele>260.5</ele><time>2026-04-12T09:29:00.234Z</time></trkpt><trkpt lat="43.682625" lon="12.9562633"><ele>260.25</ele><time>2026-04-12T09:29:01.235Z</time></trkpt><trkpt lat="43.682605" lon="12.9560917"><ele>260.0</ele><time>2026-04-12T09:29:02.235Z</time></trkpt><trkpt lat="43.68258" lon="12.9559217"><ele>259.0</ele><time>2026-04-12T09:29:03.235Z</time></trkpt><trkpt lat="43.6825483" lon="12.9557667"><ele>258.0</ele><time>2026-04-12T09:29:04.235Z</time></trkpt><trkpt lat="43.682495" lon="12.95561"><ele>257.0</ele><time>2026-04-12T09:29:05.235Z</time></trkpt><trkpt lat="43.6824283" lon="12.95545"><ele>256.0</ele><time>2026-04-12T09:29:06.234Z</time></trkpt><trkpt lat="43.6823567" lon="12.9553017"><ele>256.0</ele><time>2026-04-12T09:29:07.235Z</time></trkpt><trkpt lat="43.682265" lon="12.9551633"><ele>256.0</ele><time>2026-04-12T09:29:08.235Z</time></trkpt><trkpt lat="43.6821583" lon="12.955035"><ele>256.0</ele><time>2026-04-12T09:29:09.234Z</time></trkpt><trkpt lat="43.6820483" lon="12.9549217"><ele>256.0</ele><time>2026-04-12T09:29:10.235Z</time></trkpt><trkpt lat="43.6819367" lon="12.9548267"><ele>254.5</ele><time>2026-04-12T09:29:11.235Z</time></trkpt><trkpt lat="43.6818167" lon="12.954735"><ele>253.0</ele><time>2026-04-12T09:29:12.235Z</time></trkpt><trkpt lat="43.6816983" lon="12.9546317"><ele>251.5</ele><time>2026-04-12T09:29:13.235Z</time></trkpt><trkpt lat="43.6815833" lon="12.9545067"><ele>250.0</ele><time>2026-04-12T09:29:14.235Z</time></trkpt><trkpt lat="43.6814667" lon="12.9543583"><ele>244.66666666666666</ele><time>2026-04-12T09:29:15.234Z</time></trkpt><trkpt lat="43.681355" lon="12.9541967"><ele>239.33333333333331</ele><time>2026-04-12T09:29:16.235Z</time></trkpt><trkpt lat="43.68125" lon="12.9540367"><ele>234.0</ele><time>2026-04-12T09:29:17.234Z</time></trkpt><trkpt lat="43.6811633" lon="12.9538717"><ele>234.75</ele><time>2026-04-12T09:29:18.235Z</time></trkpt><trkpt lat="43.681075" lon="12.9537067"><ele>235.5</ele><time>2026-04-12T09:29:19.234Z</time></trkpt><trkpt lat="43.68099" lon="12.95355"><ele>236.25</ele><time>2026-04-12T09:29:20.235Z</time></trkpt><trkpt lat="43.68092" lon="12.9533867"><ele>237.0</ele><time>2026-04-12T09:29:21.235Z</time></trkpt><trkpt lat="43.680865" lon="12.9532167"><ele>237.0</ele><time>2026-04-12T09:29:22.235Z</time></trkpt><trkpt lat="43.6808217" lon="12.95304"><ele>237.0</ele><time>2026-04-12T09:29:23.234Z</time></trkpt><trkpt lat="43.680795" lon="12.9528517"><ele>237.0</ele><time>2026-04-12T09:29:24.235Z</time></trkpt><trkpt lat="43.680795" lon="12.95266"><ele>237.0</ele><time>2026-04-12T09:29:25.234Z</time></trkpt><trkpt lat="43.6808" lon="12.95247"><ele>236.25</ele><time>2026-04-12T09:29:26.235Z</time></trkpt><trkpt lat="43.6808133" lon="12.95227"><ele>235.5</ele><time>2026-04-12T09:29:27.234Z</time></trkpt><trkpt lat="43.6808183" lon="12.9520767"><ele>234.75</ele><time>2026-04-12T09:29:28.235Z</time></trkpt><trkpt lat="43.680785" lon="12.9519067"><ele>234.0</ele><time>2026-04-12T09:29:29.234Z</time></trkpt><trkpt lat="43.6807367" lon="12.9517483"><ele>234.0</ele><time>2026-04-12T09:29:30.235Z</time></trkpt><trkpt lat="43.680665" lon="12.9516017"><ele>234.0</ele><time>2026-04-12T09:29:31.235Z</time></trkpt><trkpt lat="43.6805833" lon="12.9514767"><ele>234.0</ele><time>2026-04-12T09:29:32.234Z</time></trkpt><trkpt lat="43.6804983" lon="12.951365"><ele>234.0</ele><time>2026-04-12T09:29:33.234Z</time></trkpt><trkpt lat="43.680405" lon="12.9512617"><ele>234.0</ele><time>2026-04-12T09:29:34.235Z</time></trkpt><trkpt lat="43.680315" lon="12.951165"><ele>234.0</ele><time>2026-04-12T09:29:35.235Z</time></trkpt><trkpt lat="43.68023" lon="12.9510717"><ele>234.0</ele><time>2026-04-12T09:29:36.235Z</time></trkpt><trkpt lat="43.6801383" lon="12.9509783"><ele>234.0</ele><time>2026-04-12T09:29:37.234Z</time></trkpt><trkpt lat="43.6800433" lon="12.9508783"><ele>235.0</ele><time>2026-04-12T09:29:38.235Z</time></trkpt><trkpt lat="43.67994" lon="12.9507733"><ele>236.0</ele><time>2026-04-12T09:29:39.235Z</time></trkpt><trkpt lat="43.6798383" lon="12.9506567"><ele>237.0</ele><time>2026-04-12T09:29:40.235Z</time></trkpt><trkpt lat="43.679735" lon="12.9505433"><ele>238.0</ele><time>2026-04-12T09:29:41.234Z</time></trkpt><trkpt lat="43.6796317" lon="12.9504183"><ele>238.0</ele><time>2026-04-12T09:29:42.235Z</time></trkpt><trkpt lat="43.6795367" lon="12.9503083"><ele>238.0</ele><time>2026-04-12T09:29:43.235Z</time></trkpt><trkpt lat="43.6794467" lon="12.9502167"><ele>238.0</ele><time>2026-04-12T09:29:44.235Z</time></trkpt><trkpt lat="43.6793717" lon="12.9501433"><ele>238.0</ele><time>2026-04-12T09:29:45.235Z</time></trkpt><trkpt lat="43.67933" lon="12.950075"><ele>238.0</ele><time>2026-04-12T09:29:46.235Z</time></trkpt><trkpt lat="43.6793583" lon="12.9499083"><ele>238.0</ele><time>2026-04-12T09:29:48.235Z</time></trkpt><trkpt lat="43.679415" lon="12.949845"><ele>238.0</ele><time>2026-04-12T09:29:49.234Z</time></trkpt><trkpt lat="43.6795" lon="12.9497983"><ele>238.0</ele><time>2026-04-12T09:29:50.234Z</time></trkpt><trkpt lat="43.6796083" lon="12.9497567"><ele>238.0</ele><time>2026-04-12T09:29:51.234Z</time></trkpt><trkpt lat="43.679725" lon="12.949705"><ele>238.0</ele><time>2026-04-12T09:29:52.235Z</time></trkpt><trkpt lat="43.6798517" lon="12.949645"><ele>238.0</ele><time>2026-04-12T09:29:53.235Z</time></trkpt><trkpt lat="43.6800067" lon="12.94958"><ele>238.0</ele><time>2026-04-12T09:29:54.234Z</time></trkpt><trkpt lat="43.6801633" lon="12.949515"><ele>238.0</ele><time>2026-04-12T09:29:55.235Z</time></trkpt><trkpt lat="43.680325" lon="12.9494517"><ele>236.66666666666666</ele><time>2026-04-12T09:29:56.234Z</time></trkpt><trkpt lat="43.6804917" lon="12.9494017"><ele>235.33333333333331</ele><time>2026-04-12T09:29:57.234Z</time></trkpt><trkpt lat="43.6806583" lon="12.9493533"><ele>234.0</ele><time>2026-04-12T09:29:58.235Z</time></trkpt><trkpt lat="43.6808233" lon="12.9492983"><ele>234.0</ele><time>2026-04-12T09:29:59.234Z</time></trkpt><trkpt lat="43.6809833" lon="12.94922"><ele>234.0</ele><time>2026-04-12T09:30:00.235Z</time></trkpt><trkpt lat="43.6811267" lon="12.94911"><ele>234.0</ele><time>2026-04-12T09:30:01.235Z</time></trkpt><trkpt lat="43.6812733" lon="12.9489783"><ele>230.66666666666669</ele><time>2026-04-12T09:30:02.235Z</time></trkpt><trkpt lat="43.68142" lon="12.9488433"><ele>227.33333333333334</ele><time>2026-04-12T09:30:03.235Z</time></trkpt><trkpt lat="43.6815717" lon="12.948715"><ele>224.0</ele><time>2026-04-12T09:30:04.234Z</time></trkpt><trkpt lat="43.6817433" lon="12.9485867"><ele>224.0</ele><time>2026-04-12T09:30:05.235Z</time></trkpt><trkpt lat="43.6819233" lon="12.9484667"><ele>224.0</ele><time>2026-04-12T09:30:06.235Z</time></trkpt><trkpt lat="43.6821033" lon="12.94835"><ele>224.0</ele><time>2026-04-12T09:30:07.234Z</time></trkpt><trkpt lat="43.6822883" lon="12.9482367"><ele>221.0</ele><time>2026-04-12T09:30:08.235Z</time></trkpt><trkpt lat="43.6824667" lon="12.9481217"><ele>218.0</ele><time>2026-04-12T09:30:09.235Z</time></trkpt><trkpt lat="43.6826467" lon="12.9480067"><ele>215.0</ele><time>2026-04-12T09:30:10.235Z</time></trkpt><trkpt lat="43.6828267" lon="12.9478683"><ele>213.66666666666669</ele><time>2026-04-12T09:30:11.234Z</time></trkpt><trkpt lat="43.683" lon="12.94772"><ele>212.33333333333331</ele><time>2026-04-12T09:30:12.234Z</time></trkpt><trkpt lat="43.68317" lon="12.947555"><ele>211.0</ele><time>2026-04-12T09:30:13.235Z</time></trkpt><trkpt lat="43.6833333" lon="12.9473717"><ele>211.0</ele><time>2026-04-12T09:30:14.235Z</time></trkpt><trkpt lat="43.6834917" lon="12.9471967"><ele>211.0</ele><time>2026-04-12T09:30:15.235Z</time></trkpt><trkpt lat="43.6836483" lon="12.94703"><ele>211.0</ele><time>2026-04-12T09:30:16.235Z</time></trkpt><trkpt lat="43.6838033" lon="12.9468617"><ele>209.0</ele><time>2026-04-12T09:30:17.235Z</time></trkpt><trkpt lat="43.68395" lon="12.9467"><ele>207.0</ele><time>2026-04-12T09:30:18.234Z</time></trkpt><trkpt lat="43.6841" lon="12.94655"><ele>205.0</ele><time>2026-04-12T09:30:19.235Z</time></trkpt><trkpt lat="43.6842383" lon="12.9463967"><ele>205.0</ele><time>2026-04-12T09:30:20.235Z</time></trkpt><trkpt lat="43.68438" lon="12.9462467"><ele>205.0</ele><time>2026-04-12T09:30:21.235Z</time></trkpt><trkpt lat="43.6845267" lon="12.94611"><ele>205.0</ele><time>2026-04-12T09:30:22.235Z</time></trkpt><trkpt lat="43.68468" lon="12.9459967"><ele>200.0</ele><time>2026-04-12T09:30:23.234Z</time></trkpt><trkpt lat="43.6848517" lon="12.9459383"><ele>195.0</ele><time>2026-04-12T09:30:24.235Z</time></trkpt><trkpt lat="43.6850367" lon="12.9459167"><ele>190.0</ele><time>2026-04-12T09:30:25.235Z</time></trkpt><trkpt lat="43.6852283" lon="12.945925"><ele>186.66666666666669</ele><time>2026-04-12T09:30:26.234Z</time></trkpt><trkpt lat="43.6854133" lon="12.9459583"><ele>183.33333333333334</ele><time>2026-04-12T09:30:27.234Z</time></trkpt><trkpt lat="43.6856283" lon="12.9459967"><ele>180.0</ele><time>2026-04-12T09:30:28.235Z</time></trkpt><trkpt lat="43.6858517" lon="12.9460433"><ele>180.0</ele><time>2026-04-12T09:30:29.235Z</time></trkpt><trkpt lat="43.6860617" lon="12.9460967"><ele>180.0</ele><time>2026-04-12T09:30:30.235Z</time></trkpt><trkpt lat="43.686275" lon="12.946145"><ele>180.0</ele><time>2026-04-12T09:30:31.235Z</time></trkpt><trkpt lat="43.6864833" lon="12.9461967"><ele>177.33333333333334</ele><time>2026-04-12T09:30:32.235Z</time></trkpt><trkpt lat="43.6866883" lon="12.9462567"><ele>174.66666666666669</ele><time>2026-04-12T09:30:33.234Z</time></trkpt><trkpt lat="43.6868933" lon="12.9463083"><ele>172.0</ele><time>2026-04-12T09:30:34.235Z</time></trkpt><trkpt lat="43.6871" lon="12.9463633"><ele>172.0</ele><time>2026-04-12T09:30:35.235Z</time></trkpt><trkpt lat="43.687305" lon="12.946415"><ele>172.0</ele><time>2026-04-12T09:30:36.235Z</time></trkpt><trkpt lat="43.6875083" lon="12.9464633"><ele>172.0</ele><time>2026-04-12T09:30:37.235Z</time></trkpt><trkpt lat="43.68771" lon="12.946515"><ele>170.0</ele><time>2026-04-12T09:30:38.234Z</time></trkpt><trkpt lat="43.6879083" lon="12.9465533"><ele>168.0</ele><time>2026-04-12T09:30:39.234Z</time></trkpt><trkpt lat="43.688105" lon="12.9465867"><ele>166.0</ele><time>2026-04-12T09:30:40.235Z</time></trkpt><trkpt lat="43.6883083" lon="12.94661"><ele>166.0</ele><time>2026-04-12T09:30:41.235Z</time></trkpt><trkpt lat="43.6884917" lon="12.9466017"><ele>166.0</ele><time>2026-04-12T09:30:42.235Z</time></trkpt><trkpt lat="43.6886917" lon="12.9465567"><ele>166.0</ele><time>2026-04-12T09:30:43.235Z</time></trkpt><trkpt lat="43.6888833" lon="12.9465133"><ele>164.33333333333334</ele><time>2026-04-12T09:30:44.235Z</time></trkpt><trkpt lat="43.68908" lon="12.9464533"><ele>162.66666666666666</ele><time>2026-04-12T09:30:45.235Z</time></trkpt><trkpt lat="43.6892633" lon="12.9464233"><ele>161.0</ele><time>2026-04-12T09:30:46.235Z</time></trkpt><trkpt lat="43.689455" lon="12.9464217"><ele>160.33333333333331</ele><time>2026-04-12T09:30:47.234Z</time></trkpt><trkpt lat="43.6896467" lon="12.946465"><ele>159.66666666666666</ele><time>2026-04-12T09:30:48.234Z</time></trkpt><trkpt lat="43.6898367" lon="12.9465333"><ele>159.0</ele><time>2026-04-12T09:30:49.235Z</time></trkpt><trkpt lat="43.6900367" lon="12.9466183"><ele>159.0</ele><time>2026-04-12T09:30:50.235Z</time></trkpt><trkpt lat="43.690235" lon="12.9467"><ele>159.0</ele><time>2026-04-12T09:30:51.234Z</time></trkpt><trkpt lat="43.69043" lon="12.94677"><ele>159.0</ele><time>2026-04-12T09:30:52.235Z</time></trkpt><trkpt lat="43.6906183" lon="12.946835"><ele>157.0</ele><time>2026-04-12T09:30:53.234Z</time></trkpt><trkpt lat="43.6908033" lon="12.946885"><ele>155.0</ele><time>2026-04-12T09:30:54.235Z</time></trkpt><trkpt lat="43.6909783" lon="12.9469083"><ele>153.0</ele><time>2026-04-12T09:30:55.234Z</time></trkpt><trkpt lat="43.69114" lon="12.9468983"><ele>153.0</ele><time>2026-04-12T09:30:56.235Z</time></trkpt><trkpt lat="43.6912867" lon="12.94683"><ele>153.0</ele><time>2026-04-12T09:30:57.235Z</time></trkpt><trkpt lat="43.6914167" lon="12.9467017"><ele>153.0</ele><time>2026-04-12T09:30:58.234Z</time></trkpt><trkpt lat="43.69152" lon="12.9465317"><ele>155.0</ele><time>2026-04-12T09:30:59.235Z</time></trkpt><trkpt lat="43.6915967" lon="12.9463433"><ele>157.0</ele><time>2026-04-12T09:31:00.235Z</time></trkpt><trkpt lat="43.6916833" lon="12.9461317"><ele>159.0</ele><time>2026-04-12T09:31:01.235Z</time></trkpt><trkpt lat="43.6917667" lon="12.9459067"><ele>158.66666666666666</ele><time>2026-04-12T09:31:02.235Z</time></trkpt><trkpt lat="43.6918533" lon="12.94568"><ele>158.33333333333331</ele><time>2026-04-12T09:31:03.234Z</time></trkpt><trkpt lat="43.6919317" lon="12.9454533"><ele>158.0</ele><time>2026-04-12T09:31:04.235Z</time></trkpt><trkpt lat="43.6920033" lon="12.9452383"><ele>160.0</ele><time>2026-04-12T09:31:05.235Z</time></trkpt><trkpt lat="43.692075" lon="12.94504"><ele>162.0</ele><time>2026-04-12T09:31:06.235Z</time></trkpt><trkpt lat="43.69215" lon="12.9448617"><ele>164.0</ele><time>2026-04-12T09:31:07.234Z</time></trkpt><trkpt lat="43.6922533" lon="12.944705"><ele>164.0</ele><time>2026-04-12T09:31:08.235Z</time></trkpt><trkpt lat="43.6923783" lon="12.944585"><ele>164.0</ele><time>2026-04-12T09:31:09.234Z</time></trkpt><trkpt lat="43.692525" lon="12.9445283"><ele>164.0</ele><time>2026-04-12T09:31:10.235Z</time></trkpt><trkpt lat="43.69267" lon="12.9445333"><ele>162.66666666666666</ele><time>2026-04-12T09:31:11.234Z</time></trkpt><trkpt lat="43.69282" lon="12.94459"><ele>161.33333333333334</ele><time>2026-04-12T09:31:12.234Z</time></trkpt><trkpt lat="43.6929517" lon="12.9447017"><ele>160.0</ele><time>2026-04-12T09:31:13.235Z</time></trkpt><trkpt lat="43.6930683" lon="12.94486"><ele>160.0</ele><time>2026-04-12T09:31:14.235Z</time></trkpt><trkpt lat="43.6931783" lon="12.9450267"><ele>160.0</ele><time>2026-04-12T09:31:15.235Z</time></trkpt><trkpt lat="43.693295" lon="12.9451983"><ele>160.0</ele><time>2026-04-12T09:31:16.235Z</time></trkpt><trkpt lat="43.693425" lon="12.9453483"><ele>160.0</ele><time>2026-04-12T09:31:17.235Z</time></trkpt><trkpt lat="43.6935683" lon="12.945455"><ele>160.0</ele><time>2026-04-12T09:31:18.234Z</time></trkpt><trkpt lat="43.6937283" lon="12.9455367"><ele>160.0</ele><time>2026-04-12T09:31:19.235Z</time></trkpt><trkpt lat="43.6938867" lon="12.9455967"><ele>160.0</ele><time>2026-04-12T09:31:20.234Z</time></trkpt><trkpt lat="43.6940417" lon="12.9456533"><ele>160.0</ele><time>2026-04-12T09:31:21.234Z</time></trkpt><trkpt lat="43.69421" lon="12.94567"><ele>160.0</ele><time>2026-04-12T09:31:22.235Z</time></trkpt><trkpt lat="43.69437" lon="12.9456383"><ele>159.66666666666669</ele><time>2026-04-12T09:31:23.235Z</time></trkpt><trkpt lat="43.6945133" lon="12.94553"><ele>159.33333333333334</ele><time>2026-04-12T09:31:24.234Z</time></trkpt><trkpt lat="43.6946433" lon="12.9453767"><ele>159.0</ele><time>2026-04-12T09:31:25.235Z</time></trkpt><trkpt lat="43.6947783" lon="12.9452033"><ele>157.66666666666666</ele><time>2026-04-12T09:31:26.235Z</time></trkpt><trkpt lat="43.694915" lon="12.9450283"><ele>156.33333333333331</ele><time>2026-04-12T09:31:27.234Z</time></trkpt><trkpt lat="43.6950483" lon="12.94486"><ele>155.0</ele><time>2026-04-12T09:31:28.234Z</time></trkpt><trkpt lat="43.6951783" lon="12.9446983"><ele>155.0</ele><time>2026-04-12T09:31:29.235Z</time></trkpt><trkpt lat="43.695305" lon="12.94455"><ele>155.0</ele><time>2026-04-12T09:31:30.235Z</time></trkpt><trkpt lat="43.69543" lon="12.9443983"><ele>155.0</ele><time>2026-04-12T09:31:31.234Z</time></trkpt><trkpt lat="43.69556" lon="12.944265"><ele>151.0</ele><time>2026-04-12T09:31:32.234Z</time></trkpt><trkpt lat="43.6956967" lon="12.9441533"><ele>147.0</ele><time>2026-04-12T09:31:33.235Z</time></trkpt><trkpt lat="43.6958467" lon="12.9440667"><ele>143.0</ele><time>2026-04-12T09:31:34.235Z</time></trkpt><trkpt lat="43.69601" lon="12.9440217"><ele>143.66666666666666</ele><time>2026-04-12T09:31:35.234Z</time></trkpt><trkpt lat="43.6961783" lon="12.9439883"><ele>144.33333333333334</ele><time>2026-04-12T09:31:36.235Z</time></trkpt><trkpt lat="43.6963333" lon="12.9439433"><ele>145.0</ele><time>2026-04-12T09:31:37.234Z</time></trkpt><trkpt lat="43.6965133" lon="12.9438933"><ele>145.0</ele><time>2026-04-12T09:31:38.235Z</time></trkpt><trkpt lat="43.696675" lon="12.9438133"><ele>145.0</ele><time>2026-04-12T09:31:39.235Z</time></trkpt><trkpt lat="43.6968333" lon="12.9437133"><ele>145.0</ele><time>2026-04-12T09:31:40.235Z</time></trkpt><trkpt lat="43.6969867" lon="12.9435983"><ele>146.0</ele><time>2026-04-12T09:31:41.235Z</time></trkpt><trkpt lat="43.69714" lon="12.943475"><ele>147.0</ele><time>2026-04-12T09:31:42.235Z</time></trkpt><trkpt lat="43.6972983" lon="12.9433467"><ele>148.0</ele><time>2026-04-12T09:31:43.235Z</time></trkpt><trkpt lat="43.69747" lon="12.94321"><ele>145.33333333333334</ele><time>2026-04-12T09:31:44.235Z</time></trkpt><trkpt lat="43.6976233" lon="12.9430533"><ele>142.66666666666666</ele><time>2026-04-12T09:31:45.235Z</time></trkpt><trkpt lat="43.6977567" lon="12.9428883"><ele>140.0</ele><time>2026-04-12T09:31:46.234Z</time></trkpt><trkpt lat="43.6979017" lon="12.942715"><ele>137.66666666666666</ele><time>2026-04-12T09:31:47.235Z</time></trkpt><trkpt lat="43.6980317" lon="12.942545"><ele>135.33333333333334</ele><time>2026-04-12T09:31:48.235Z</time></trkpt><trkpt lat="43.69816" lon="12.9423833"><ele>133.0</ele><time>2026-04-12T09:31:49.235Z</time></trkpt><trkpt lat="43.69829" lon="12.9422417"><ele>133.0</ele><time>2026-04-12T09:31:50.234Z</time></trkpt><trkpt lat="43.6984333" lon="12.942125"><ele>133.0</ele><time>2026-04-12T09:31:51.235Z</time></trkpt><trkpt lat="43.6985933" lon="12.942035"><ele>133.0</ele><time>2026-04-12T09:31:52.235Z</time></trkpt><trkpt lat="43.698765" lon="12.9419567"><ele>135.0</ele><time>2026-04-12T09:31:53.234Z</time></trkpt><trkpt lat="43.698935" lon="12.9418817"><ele>137.0</ele><time>2026-04-12T09:31:54.235Z</time></trkpt><trkpt lat="43.6991233" lon="12.9418083"><ele>139.0</ele><time>2026-04-12T09:31:55.235Z</time></trkpt><trkpt lat="43.699315" lon="12.9417217"><ele>133.66666666666669</ele><time>2026-04-12T09:31:56.235Z</time></trkpt><trkpt lat="43.6995067" lon="12.9416467"><ele>128.33333333333334</ele><time>2026-04-12T09:31:57.235Z</time></trkpt><trkpt lat="43.699705" lon="12.941575"><ele>123.0</ele><time>2026-04-12T09:31:58.235Z</time></trkpt><trkpt lat="43.6999033" lon="12.9415"><ele>123.0</ele><time>2026-04-12T09:31:59.235Z</time></trkpt><trkpt lat="43.700095" lon="12.9414433"><ele>123.0</ele><time>2026-04-12T09:32:00.235Z</time></trkpt><trkpt lat="43.70029" lon="12.9414017"><ele>123.0</ele><time>2026-04-12T09:32:01.234Z</time></trkpt><trkpt lat="43.7004817" lon="12.941385"><ele>121.33333333333334</ele><time>2026-04-12T09:32:02.235Z</time></trkpt><trkpt lat="43.70067" lon="12.9413983"><ele>119.66666666666667</ele><time>2026-04-12T09:32:03.234Z</time></trkpt><trkpt lat="43.7008617" lon="12.94145"><ele>118.0</ele><time>2026-04-12T09:32:04.235Z</time></trkpt><trkpt lat="43.7010517" lon="12.9415317"><ele>119.0</ele><time>2026-04-12T09:32:05.235Z</time></trkpt><trkpt lat="43.7012317" lon="12.9416317"><ele>120.0</ele><time>2026-04-12T09:32:06.234Z</time></trkpt><trkpt lat="43.7014133" lon="12.94173"><ele>121.0</ele><time>2026-04-12T09:32:07.234Z</time></trkpt><trkpt lat="43.7015917" lon="12.94182"><ele>121.0</ele><time>2026-04-12T09:32:08.234Z</time></trkpt><trkpt lat="43.7017633" lon="12.9418967"><ele>121.0</ele><time>2026-04-12T09:32:09.234Z</time></trkpt><trkpt lat="43.701935" lon="12.9419467"><ele>121.0</ele><time>2026-04-12T09:32:10.235Z</time></trkpt><trkpt lat="43.7021033" lon="12.9419633"><ele>120.0</ele><time>2026-04-12T09:32:11.234Z</time></trkpt><trkpt lat="43.7022717" lon="12.941915"><ele>119.0</ele><time>2026-04-12T09:32:12.235Z</time></trkpt><trkpt lat="43.70245" lon="12.9418517"><ele>118.0</ele><time>2026-04-12T09:32:13.234Z</time></trkpt><trkpt lat="43.70262" lon="12.9417867"><ele>115.0</ele><time>2026-04-12T09:32:14.234Z</time></trkpt><trkpt lat="43.7027883" lon="12.941735"><ele>112.0</ele><time>2026-04-12T09:32:15.235Z</time></trkpt><trkpt lat="43.70295" lon="12.94169"><ele>109.0</ele><time>2026-04-12T09:32:16.235Z</time></trkpt><trkpt lat="43.7031133" lon="12.9416467"><ele>106.66666666666667</ele><time>2026-04-12T09:32:17.235Z</time></trkpt><trkpt lat="43.703285" lon="12.9416067"><ele>104.33333333333334</ele><time>2026-04-12T09:32:18.235Z</time></trkpt><trkpt lat="43.7034583" lon="12.9415667"><ele>102.0</ele><time>2026-04-12T09:32:19.235Z</time></trkpt><trkpt lat="43.7036083" lon="12.9415217"><ele>100.25</ele><time>2026-04-12T09:32:20.234Z</time></trkpt><trkpt lat="43.703755" lon="12.9414767"><ele>98.5</ele><time>2026-04-12T09:32:21.235Z</time></trkpt><trkpt lat="43.7038767" lon="12.9413833"><ele>96.75</ele><time>2026-04-12T09:32:22.235Z</time></trkpt><trkpt lat="43.7039717" lon="12.9412383"><ele>95.0</ele><time>2026-04-12T09:32:23.235Z</time></trkpt><trkpt lat="43.7040383" lon="12.941045"><ele>94.33333333333334</ele><time>2026-04-12T09:32:24.235Z</time></trkpt><trkpt lat="43.7040933" lon="12.940835"><ele>93.66666666666667</ele><time>2026-04-12T09:32:25.235Z</time></trkpt><trkpt lat="43.7041517" lon="12.940615"><ele>93.0</ele><time>2026-04-12T09:32:26.235Z</time></trkpt><trkpt lat="43.7042083" lon="12.9403883"><ele>93.0</ele><time>2026-04-12T09:32:27.235Z</time></trkpt><trkpt lat="43.704285" lon="12.9401717"><ele>93.0</ele><time>2026-04-12T09:32:28.235Z</time></trkpt><trkpt lat="43.704365" lon="12.93996"><ele>93.0</ele><time>2026-04-12T09:32:29.235Z</time></trkpt><trkpt lat="43.7044517" lon="12.9397683"><ele>91.0</ele><time>2026-04-12T09:32:30.235Z</time></trkpt><trkpt lat="43.70454" lon="12.9395833"><ele>89.0</ele><time>2026-04-12T09:32:31.235Z</time></trkpt><trkpt lat="43.704615" lon="12.9393967"><ele>87.0</ele><time>2026-04-12T09:32:32.234Z</time></trkpt><trkpt lat="43.7046583" lon="12.9392033"><ele>86.5</ele><time>2026-04-12T09:32:33.235Z</time></trkpt><trkpt lat="43.7046683" lon="12.9390133"><ele>86.0</ele><time>2026-04-12T09:32:34.235Z</time></trkpt><trkpt lat="43.7046833" lon="12.9388233"><ele>85.5</ele><time>2026-04-12T09:32:35.235Z</time></trkpt><trkpt lat="43.7047167" lon="12.9386433"><ele>85.0</ele><time>2026-04-12T09:32:36.234Z</time></trkpt><trkpt lat="43.70477" lon="12.9384883"><ele>85.25</ele><time>2026-04-12T09:32:37.235Z</time></trkpt><trkpt lat="43.7048583" lon="12.938345"><ele>85.5</ele><time>2026-04-12T09:32:38.234Z</time></trkpt><trkpt lat="43.7049633" lon="12.9381967"><ele>85.75</ele><time>2026-04-12T09:32:39.235Z</time></trkpt><trkpt lat="43.7050667" lon="12.9380283"><ele>86.0</ele><time>2026-04-12T09:32:40.234Z</time></trkpt><trkpt lat="43.7051517" lon="12.9378367"><ele>86.0</ele><time>2026-04-12T09:32:41.234Z</time></trkpt><trkpt lat="43.7052283" lon="12.9376367"><ele>86.0</ele><time>2026-04-12T09:32:42.234Z</time></trkpt><trkpt lat="43.7053133" lon="12.93743"><ele>86.0</ele><time>2026-04-12T09:32:43.235Z</time></trkpt><trkpt lat="43.7054167" lon="12.9372383"><ele>85.66666666666667</ele><time>2026-04-12T09:32:44.235Z</time></trkpt><trkpt lat="43.70553" lon="12.937065"><ele>85.33333333333333</ele><time>2026-04-12T09:32:45.235Z</time></trkpt><trkpt lat="43.7056517" lon="12.9369033"><ele>85.0</ele><time>2026-04-12T09:32:46.234Z</time></trkpt><trkpt lat="43.7057817" lon="12.93675"><ele>84.66666666666666</ele><time>2026-04-12T09:32:47.235Z</time></trkpt><trkpt lat="43.705915" lon="12.9366033"><ele>84.33333333333333</ele><time>2026-04-12T09:32:48.234Z</time></trkpt><trkpt lat="43.7060633" lon="12.93648"><ele>84.0</ele><time>2026-04-12T09:32:49.235Z</time></trkpt><trkpt lat="43.7062067" lon="12.9363617"><ele>84.0</ele><time>2026-04-12T09:32:50.234Z</time></trkpt><trkpt lat="43.7063483" lon="12.93627"><ele>84.0</ele><time>2026-04-12T09:32:51.235Z</time></trkpt><trkpt lat="43.7064933" lon="12.936205"><ele>84.0</ele><time>2026-04-12T09:32:52.234Z</time></trkpt><trkpt lat="43.7066483" lon="12.9361817"><ele>84.0</ele><time>2026-04-12T09:32:53.235Z</time></trkpt><trkpt lat="43.7067917" lon="12.9361717"><ele>84.0</ele><time>2026-04-12T09:32:54.234Z</time></trkpt><trkpt lat="43.706935" lon="12.9361717"><ele>84.0</ele><time>2026-04-12T09:32:55.234Z</time></trkpt><trkpt lat="43.7070583" lon="12.9361633"><ele>84.0</ele><time>2026-04-12T09:32:56.235Z</time></trkpt><trkpt lat="43.7071783" lon="12.9361"><ele>85.75</ele><time>2026-04-12T09:32:57.235Z</time></trkpt><trkpt lat="43.7072817" lon="12.9359817"><ele>87.5</ele><time>2026-04-12T09:32:58.234Z</time></trkpt><trkpt lat="43.70735" lon="12.9358117"><ele>89.25</ele><time>2026-04-12T09:32:59.235Z</time></trkpt><trkpt lat="43.7074067" lon="12.9356517"><ele>91.0</ele><time>2026-04-12T09:33:00.235Z</time></trkpt><trkpt lat="43.7074667" lon="12.9354683"><ele>91.0</ele><time>2026-04-12T09:33:01.234Z</time></trkpt><trkpt lat="43.7075667" lon="12.93532"><ele>91.0</ele><time>2026-04-12T09:33:02.235Z</time></trkpt><trkpt lat="43.707675" lon="12.93517"><ele>91.0</ele><time>2026-04-12T09:33:03.235Z</time></trkpt><trkpt lat="43.7077917" lon="12.9350367"><ele>94.0</ele><time>2026-04-12T09:33:04.235Z</time></trkpt><trkpt lat="43.7079083" lon="12.9349083"><ele>97.0</ele><time>2026-04-12T09:33:05.234Z</time></trkpt><trkpt lat="43.708045" lon="12.93477"><ele>100.0</ele><time>2026-04-12T09:33:06.235Z</time></trkpt><trkpt lat="43.7081833" lon="12.9346333"><ele>100.0</ele><time>2026-04-12T09:33:07.234Z</time></trkpt><trkpt lat="43.708315" lon="12.9344917"><ele>100.0</ele><time>2026-04-12T09:33:08.235Z</time></trkpt><trkpt lat="43.708465" lon="12.9343517"><ele>100.0</ele><time>2026-04-12T09:33:09.235Z</time></trkpt><trkpt lat="43.7085933" lon="12.93424"><ele>102.33333333333334</ele><time>2026-04-12T09:33:10.234Z</time></trkpt><trkpt lat="43.7087317" lon="12.9341067"><ele>104.66666666666666</ele><time>2026-04-12T09:33:11.235Z</time></trkpt><trkpt lat="43.7088467" lon="12.9339733"><ele>107.0</ele><time>2026-04-12T09:33:12.234Z</time></trkpt><trkpt lat="43.7089517" lon="12.9338283"><ele>107.0</ele><time>2026-04-12T09:33:13.235Z</time></trkpt><trkpt lat="43.7090483" lon="12.9336833"><ele>107.0</ele><time>2026-04-12T09:33:14.234Z</time></trkpt><trkpt lat="43.7091283" lon="12.9335433"><ele>107.0</ele><time>2026-04-12T09:33:15.235Z</time></trkpt><trkpt lat="43.7092167" lon="12.9334017"><ele>107.0</ele><time>2026-04-12T09:33:16.234Z</time></trkpt><trkpt lat="43.7093133" lon="12.9332417"><ele>110.66666666666666</ele><time>2026-04-12T09:33:17.235Z</time></trkpt><trkpt lat="43.7094333" lon="12.9330617"><ele>114.33333333333334</ele><time>2026-04-12T09:33:18.234Z</time></trkpt><trkpt lat="43.7095583" lon="12.9328767"><ele>118.0</ele><time>2026-04-12T09:33:19.235Z</time></trkpt><trkpt lat="43.7097" lon="12.932675"><ele>114.0</ele><time>2026-04-12T09:33:20.235Z</time></trkpt><trkpt lat="43.70985" lon="12.932475"><ele>110.0</ele><time>2026-04-12T09:33:21.234Z</time></trkpt><trkpt lat="43.7100083" lon="12.9322733"><ele>106.0</ele><time>2026-04-12T09:33:22.235Z</time></trkpt><trkpt lat="43.7101583" lon="12.9320733"><ele>107.0</ele><time>2026-04-12T09:33:23.234Z</time></trkpt><trkpt lat="43.7103033" lon="12.931885"><ele>108.0</ele><time>2026-04-12T09:33:24.234Z</time></trkpt><trkpt lat="43.710445" lon="12.9316983"><ele>109.0</ele><time>2026-04-12T09:33:25.235Z</time></trkpt><trkpt lat="43.7105967" lon="12.9314917"><ele>109.0</ele><time>2026-04-12T09:33:26.235Z</time></trkpt><trkpt lat="43.710745" lon="12.9313"><ele>109.0</ele><time>2026-04-12T09:33:27.234Z</time></trkpt><trkpt lat="43.71089" lon="12.931115"><ele>109.0</ele><time>2026-04-12T09:33:28.235Z</time></trkpt><trkpt lat="43.7110367" lon="12.93094"><ele>108.33333333333334</ele><time>2026-04-12T09:33:29.234Z</time></trkpt><trkpt lat="43.7111883" lon="12.9307967"><ele>107.66666666666666</ele><time>2026-04-12T09:33:30.234Z</time></trkpt><trkpt lat="43.7113433" lon="12.930685"><ele>107.0</ele><time>2026-04-12T09:33:31.235Z</time></trkpt><trkpt lat="43.711515" lon="12.9305933"><ele>107.0</ele><time>2026-04-12T09:33:32.235Z</time></trkpt><trkpt lat="43.71168" lon="12.930495"><ele>107.0</ele><time>2026-04-12T09:33:33.235Z</time></trkpt><trkpt lat="43.711835" lon="12.9303883"><ele>107.0</ele><time>2026-04-12T09:33:34.234Z</time></trkpt><trkpt lat="43.7119983" lon="12.9302567"><ele>107.33333333333333</ele><time>2026-04-12T09:33:35.234Z</time></trkpt><trkpt lat="43.7121417" lon="12.9300833"><ele>107.66666666666666</ele><time>2026-04-12T09:33:36.234Z</time></trkpt><trkpt lat="43.71225" lon="12.92989"><ele>108.0</ele><time>2026-04-12T09:33:37.235Z</time></trkpt><trkpt lat="43.7123667" lon="12.929695"><ele>106.0</ele><time>2026-04-12T09:33:38.235Z</time></trkpt><trkpt lat="43.7124933" lon="12.9295083"><ele>104.0</ele><time>2026-04-12T09:33:39.234Z</time></trkpt><trkpt lat="43.7126267" lon="12.92932"><ele>102.0</ele><time>2026-04-12T09:33:40.235Z</time></trkpt><trkpt lat="43.7127683" lon="12.929145"><ele>101.66666666666666</ele><time>2026-04-12T09:33:41.234Z</time></trkpt><trkpt lat="43.712905" lon="12.9289833"><ele>101.33333333333333</ele><time>2026-04-12T09:33:42.235Z</time></trkpt><trkpt lat="43.7130367" lon="12.928835"><ele>101.0</ele><time>2026-04-12T09:33:43.234Z</time></trkpt><trkpt lat="43.713175" lon="12.9286883"><ele>101.0</ele><time>2026-04-12T09:33:44.235Z</time></trkpt><trkpt lat="43.71328" lon="12.9285317"><ele>101.0</ele><time>2026-04-12T09:33:45.235Z</time></trkpt><trkpt lat="43.7133633" lon="12.9283517"><ele>101.0</ele><time>2026-04-12T09:33:46.234Z</time></trkpt><trkpt lat="43.7134083" lon="12.9281583"><ele>98.25</ele><time>2026-04-12T09:33:47.234Z</time></trkpt><trkpt lat="43.713425" lon="12.9279683"><ele>95.5</ele><time>2026-04-12T09:33:48.235Z</time></trkpt><trkpt lat="43.7134483" lon="12.927765"><ele>92.75</ele><time>2026-04-12T09:33:49.234Z</time></trkpt><trkpt lat="43.7135067" lon="12.92759"><ele>90.0</ele><time>2026-04-12T09:33:50.234Z</time></trkpt><trkpt lat="43.7136017" lon="12.927445"><ele>88.5</ele><time>2026-04-12T09:33:51.235Z</time></trkpt><trkpt lat="43.7137217" lon="12.927365"><ele>87.0</ele><time>2026-04-12T09:33:52.235Z</time></trkpt><trkpt lat="43.713855" lon="12.9273533"><ele>85.5</ele><time>2026-04-12T09:33:53.235Z</time></trkpt><trkpt lat="43.713985" lon="12.9273983"><ele>84.0</ele><time>2026-04-12T09:33:54.235Z</time></trkpt><trkpt lat="43.71412" lon="12.9274533"><ele>84.0</ele><time>2026-04-12T09:33:55.235Z</time></trkpt><trkpt lat="43.7142633" lon="12.9275017"><ele>84.0</ele><time>2026-04-12T09:33:56.234Z</time></trkpt><trkpt lat="43.7144067" lon="12.9275033"><ele>84.0</ele><time>2026-04-12T09:33:57.235Z</time></trkpt><trkpt lat="43.7145483" lon="12.9274817"><ele>84.0</ele><time>2026-04-12T09:33:58.235Z</time></trkpt><trkpt lat="43.7146933" lon="12.92744"><ele>84.0</ele><time>2026-04-12T09:33:59.234Z</time></trkpt><trkpt lat="43.714825" lon="12.92735"><ele>84.0</ele><time>2026-04-12T09:34:00.235Z</time></trkpt><trkpt lat="43.7149417" lon="12.92722"><ele>84.0</ele><time>2026-04-12T09:34:01.235Z</time></trkpt><trkpt lat="43.7150517" lon="12.9270683"><ele>84.0</ele><time>2026-04-12T09:34:02.235Z</time></trkpt><trkpt lat="43.7151633" lon="12.9269033"><ele>84.0</ele><time>2026-04-12T09:34:03.234Z</time></trkpt><trkpt lat="43.71528" lon="12.92674"><ele>84.0</ele><time>2026-04-12T09:34:04.235Z</time></trkpt><trkpt lat="43.7153833" lon="12.9265883"><ele>87.66666666666667</ele><time>2026-04-12T09:34:05.235Z</time></trkpt><trkpt lat="43.71549" lon="12.926445"><ele>91.33333333333334</ele><time>2026-04-12T09:34:06.235Z</time></trkpt><trkpt lat="43.7156133" lon="12.926335"><ele>95.0</ele><time>2026-04-12T09:34:07.235Z</time></trkpt><trkpt lat="43.7157583" lon="12.9262467"><ele>95.0</ele><time>2026-04-12T09:34:08.234Z</time></trkpt><trkpt lat="43.7159183" lon="12.9261783"><ele>95.0</ele><time>2026-04-12T09:34:09.235Z</time></trkpt><trkpt lat="43.716085" lon="12.9261133"><ele>95.0</ele><time>2026-04-12T09:34:10.235Z</time></trkpt><trkpt lat="43.7162567" lon="12.92604"><ele>95.66666666666667</ele><time>2026-04-12T09:34:11.234Z</time></trkpt><trkpt lat="43.7164317" lon="12.9259617"><ele>96.33333333333334</ele><time>2026-04-12T09:34:12.235Z</time></trkpt><trkpt lat="43.7166133" lon="12.925875"><ele>97.0</ele><time>2026-04-12T09:34:13.235Z</time></trkpt><trkpt lat="43.7168" lon="12.9257833"><ele>100.66666666666667</ele><time>2026-04-12T09:34:14.235Z</time></trkpt><trkpt lat="43.7169933" lon="12.92569"><ele>104.33333333333334</ele><time>2026-04-12T09:34:15.235Z</time></trkpt><trkpt lat="43.7171917" lon="12.9255867"><ele>108.0</ele><time>2026-04-12T09:34:16.234Z</time></trkpt><trkpt lat="43.717395" lon="12.9254733"><ele>108.0</ele><time>2026-04-12T09:34:17.235Z</time></trkpt><trkpt lat="43.717605" lon="12.925375"><ele>108.0</ele><time>2026-04-12T09:34:18.235Z</time></trkpt><trkpt lat="43.7178117" lon="12.9252717"><ele>108.0</ele><time>2026-04-12T09:34:19.235Z</time></trkpt><trkpt lat="43.718015" lon="12.92517"><ele>106.33333333333334</ele><time>2026-04-12T09:34:20.235Z</time></trkpt><trkpt lat="43.7182067" lon="12.9250817"><ele>104.66666666666667</ele><time>2026-04-12T09:34:21.235Z</time></trkpt><trkpt lat="43.7184017" lon="12.9249917"><ele>103.0</ele><time>2026-04-12T09:34:22.235Z</time></trkpt><trkpt lat="43.7186" lon="12.9249083"><ele>106.66666666666667</ele><time>2026-04-12T09:34:23.235Z</time></trkpt><trkpt lat="43.7187817" lon="12.9248267"><ele>110.33333333333334</ele><time>2026-04-12T09:34:24.235Z</time></trkpt><trkpt lat="43.7189533" lon="12.9247133"><ele>114.0</ele><time>2026-04-12T09:34:25.235Z</time></trkpt><trkpt lat="43.7191133" lon="12.9245683"><ele>114.0</ele><time>2026-04-12T09:34:26.234Z</time></trkpt><trkpt lat="43.7192617" lon="12.9243733"><ele>114.0</ele><time>2026-04-12T09:34:27.235Z</time></trkpt><trkpt lat="43.7193917" lon="12.9241717"><ele>114.0</ele><time>2026-04-12T09:34:28.235Z</time></trkpt><trkpt lat="43.71952" lon="12.9239683"><ele>112.0</ele><time>2026-04-12T09:34:29.235Z</time></trkpt><trkpt lat="43.7196467" lon="12.9237567"><ele>110.0</ele><time>2026-04-12T09:34:30.234Z</time></trkpt><trkpt lat="43.719765" lon="12.9235283"><ele>108.0</ele><time>2026-04-12T09:34:31.234Z</time></trkpt><trkpt lat="43.719865" lon="12.92329"><ele>108.0</ele><time>2026-04-12T09:34:32.235Z</time></trkpt><trkpt lat="43.7199583" lon="12.9230483"><ele>108.0</ele><time>2026-04-12T09:34:33.235Z</time></trkpt><trkpt lat="43.7200233" lon="12.9227833"><ele>108.0</ele><time>2026-04-12T09:34:34.235Z</time></trkpt><trkpt lat="43.72008" lon="12.9225067"><ele>109.33333333333334</ele><time>2026-04-12T09:34:35.235Z</time></trkpt><trkpt lat="43.720145" lon="12.9222283"><ele>110.66666666666667</ele><time>2026-04-12T09:34:36.234Z</time></trkpt><trkpt lat="43.7202217" lon="12.9219633"><ele>112.0</ele><time>2026-04-12T09:34:37.235Z</time></trkpt><trkpt lat="43.72029" lon="12.921695"><ele>112.0</ele><time>2026-04-12T09:34:38.235Z</time></trkpt><trkpt lat="43.72036" lon="12.92143"><ele>112.0</ele><time>2026-04-12T09:34:39.235Z</time></trkpt><trkpt lat="43.7204183" lon="12.9211867"><ele>112.0</ele><time>2026-04-12T09:34:40.235Z</time></trkpt><trkpt lat="43.72048" lon="12.92093"><ele>109.0</ele><time>2026-04-12T09:34:41.235Z</time></trkpt><trkpt lat="43.7205317" lon="12.9206767"><ele>106.0</ele><time>2026-04-12T09:34:42.234Z</time></trkpt><trkpt lat="43.72054" lon="12.9204333"><ele>103.0</ele><time>2026-04-12T09:34:43.235Z</time></trkpt><trkpt lat="43.720535" lon="12.92019"><ele>100.66666666666667</ele><time>2026-04-12T09:34:44.235Z</time></trkpt><trkpt lat="43.7205267" lon="12.9199517"><ele>98.33333333333334</ele><time>2026-04-12T09:34:45.235Z</time></trkpt><trkpt lat="43.7205333" lon="12.91973"><ele>96.0</ele><time>2026-04-12T09:34:46.235Z</time></trkpt><trkpt lat="43.72055" lon="12.9195183"><ele>96.0</ele><time>2026-04-12T09:34:47.234Z</time></trkpt><trkpt lat="43.7206033" lon="12.9193017"><ele>96.0</ele><time>2026-04-12T09:34:48.234Z</time></trkpt><trkpt lat="43.7206933" lon="12.9190883"><ele>96.0</ele><time>2026-04-12T09:34:49.235Z</time></trkpt><trkpt lat="43.7207967" lon="12.9188783"><ele>96.33333333333334</ele><time>2026-04-12T09:34:50.234Z</time></trkpt><trkpt lat="43.7209067" lon="12.9186767"><ele>96.66666666666667</ele><time>2026-04-12T09:34:51.234Z</time></trkpt><trkpt lat="43.7210117" lon="12.918475"><ele>97.0</ele><time>2026-04-12T09:34:52.235Z</time></trkpt><trkpt lat="43.721115" lon="12.91827"><ele>97.0</ele><time>2026-04-12T09:34:53.235Z</time></trkpt><trkpt lat="43.721225" lon="12.9180883"><ele>97.0</ele><time>2026-04-12T09:34:54.235Z</time></trkpt><trkpt lat="43.721335" lon="12.9179033"><ele>97.0</ele><time>2026-04-12T09:34:55.235Z</time></trkpt><trkpt lat="43.7214483" lon="12.917715"><ele>95.0</ele><time>2026-04-12T09:34:56.234Z</time></trkpt><trkpt lat="43.7215533" lon="12.9175233"><ele>93.0</ele><time>2026-04-12T09:34:57.235Z</time></trkpt><trkpt lat="43.7216383" lon="12.9173217"><ele>91.0</ele><time>2026-04-12T09:34:58.235Z</time></trkpt><trkpt lat="43.7217317" lon="12.9171283"><ele>91.0</ele><time>2026-04-12T09:34:59.235Z</time></trkpt><trkpt lat="43.7218367" lon="12.9169533"><ele>91.0</ele><time>2026-04-12T09:35:00.235Z</time></trkpt><trkpt lat="43.721955" lon="12.916795"><ele>91.0</ele><time>2026-04-12T09:35:01.235Z</time></trkpt><trkpt lat="43.722085" lon="12.9166867"><ele>88.66666666666666</ele><time>2026-04-12T09:35:02.234Z</time></trkpt><trkpt lat="43.7222283" lon="12.9166267"><ele>86.33333333333333</ele><time>2026-04-12T09:35:03.235Z</time></trkpt><trkpt lat="43.7223817" lon="12.91663"><ele>84.0</ele><time>2026-04-12T09:35:04.235Z</time></trkpt><trkpt lat="43.7225367" lon="12.9167017"><ele>84.33333333333333</ele><time>2026-04-12T09:35:05.235Z</time></trkpt><trkpt lat="43.7226783" lon="12.9168067"><ele>84.66666666666666</ele><time>2026-04-12T09:35:06.235Z</time></trkpt><trkpt lat="43.7228167" lon="12.916945"><ele>85.0</ele><time>2026-04-12T09:35:07.235Z</time></trkpt><trkpt lat="43.722945" lon="12.9170883"><ele>85.0</ele><time>2026-04-12T09:35:08.235Z</time></trkpt><trkpt lat="43.7230767" lon="12.91724"><ele>85.0</ele><time>2026-04-12T09:35:09.235Z</time></trkpt><trkpt lat="43.7232133" lon="12.9174067"><ele>85.0</ele><time>2026-04-12T09:35:10.234Z</time></trkpt><trkpt lat="43.7233583" lon="12.9175817"><ele>84.66666666666666</ele><time>2026-04-12T09:35:11.235Z</time></trkpt><trkpt lat="43.7235033" lon="12.91776"><ele>84.33333333333333</ele><time>2026-04-12T09:35:12.234Z</time></trkpt><trkpt lat="43.723655" lon="12.917945"><ele>84.0</ele><time>2026-04-12T09:35:13.235Z</time></trkpt><trkpt lat="43.7238083" lon="12.9181383"><ele>84.0</ele><time>2026-04-12T09:35:14.234Z</time></trkpt><trkpt lat="43.7239717" lon="12.9183267"><ele>84.0</ele><time>2026-04-12T09:35:15.235Z</time></trkpt><trkpt lat="43.7241267" lon="12.9185133"><ele>84.0</ele><time>2026-04-12T09:35:16.235Z</time></trkpt><trkpt lat="43.72428" lon="12.9186833"><ele>85.0</ele><time>2026-04-12T09:35:17.235Z</time></trkpt><trkpt lat="43.724445" lon="12.9188383"><ele>86.0</ele><time>2026-04-12T09:35:18.235Z</time></trkpt><trkpt lat="43.72461" lon="12.9189867"><ele>87.0</ele><time>2026-04-12T09:35:19.235Z</time></trkpt><trkpt lat="43.7247767" lon="12.9191317"><ele>87.66666666666667</ele><time>2026-04-12T09:35:20.235Z</time></trkpt><trkpt lat="43.72495" lon="12.919275"><ele>88.33333333333334</ele><time>2026-04-12T09:35:21.235Z</time></trkpt><trkpt lat="43.7251233" lon="12.919415"><ele>89.0</ele><time>2026-04-12T09:35:22.234Z</time></trkpt><trkpt lat="43.7253" lon="12.919545"><ele>89.0</ele><time>2026-04-12T09:35:23.234Z</time></trkpt><trkpt lat="43.725475" lon="12.9196833"><ele>89.0</ele><time>2026-04-12T09:35:24.235Z</time></trkpt><trkpt lat="43.7256483" lon="12.9198217"><ele>89.0</ele><time>2026-04-12T09:35:25.235Z</time></trkpt><trkpt lat="43.725825" lon="12.9199617"><ele>89.33333333333334</ele><time>2026-04-12T09:35:26.235Z</time></trkpt><trkpt lat="43.726005" lon="12.9201017"><ele>89.66666666666667</ele><time>2026-04-12T09:35:27.235Z</time></trkpt><trkpt lat="43.726185" lon="12.9202417"><ele>90.0</ele><time>2026-04-12T09:35:28.235Z</time></trkpt><trkpt lat="43.726355" lon="12.9203883"><ele>90.0</ele><time>2026-04-12T09:35:29.234Z</time></trkpt><trkpt lat="43.72652" lon="12.92053"><ele>90.0</ele><time>2026-04-12T09:35:30.235Z</time></trkpt><trkpt lat="43.7266817" lon="12.9206567"><ele>90.0</ele><time>2026-04-12T09:35:31.234Z</time></trkpt><trkpt lat="43.7268367" lon="12.92077"><ele>88.66666666666667</ele><time>2026-04-12T09:35:32.235Z</time></trkpt><trkpt lat="43.7269883" lon="12.9208683"><ele>87.33333333333334</ele><time>2026-04-12T09:35:33.234Z</time></trkpt><trkpt lat="43.727155" lon="12.92092"><ele>86.0</ele><time>2026-04-12T09:35:34.234Z</time></trkpt><trkpt lat="43.727325" lon="12.920975"><ele>86.0</ele><time>2026-04-12T09:35:35.235Z</time></trkpt><trkpt lat="43.727505" lon="12.9210117"><ele>86.0</ele><time>2026-04-12T09:35:36.235Z</time></trkpt><trkpt lat="43.7276883" lon="12.9210417"><ele>86.0</ele><time>2026-04-12T09:35:37.234Z</time></trkpt><trkpt lat="43.7278733" lon="12.9210683"><ele>86.0</ele><time>2026-04-12T09:35:38.235Z</time></trkpt><trkpt lat="43.7280567" lon="12.9211017"><ele>86.0</ele><time>2026-04-12T09:35:39.235Z</time></trkpt><trkpt lat="43.72824" lon="12.9211417"><ele>86.0</ele><time>2026-04-12T09:35:40.235Z</time></trkpt><trkpt lat="43.72841" lon="12.9211933"><ele>86.0</ele><time>2026-04-12T09:35:41.235Z</time></trkpt><trkpt lat="43.7285767" lon="12.921255"><ele>86.0</ele><time>2026-04-12T09:35:42.234Z</time></trkpt><trkpt lat="43.7287317" lon="12.92132"><ele>86.0</ele><time>2026-04-12T09:35:43.235Z</time></trkpt><trkpt lat="43.7288883" lon="12.921395"><ele>86.0</ele><time>2026-04-12T09:35:44.235Z</time></trkpt><trkpt lat="43.72904" lon="12.9214633"><ele>86.0</ele><time>2026-04-12T09:35:45.235Z</time></trkpt><trkpt lat="43.7291867" lon="12.92154"><ele>86.0</ele><time>2026-04-12T09:35:46.234Z</time></trkpt><trkpt lat="43.7293383" lon="12.921615"><ele>85.33333333333334</ele><time>2026-04-12T09:35:47.235Z</time></trkpt><trkpt lat="43.7294883" lon="12.9216867"><ele>84.66666666666667</ele><time>2026-04-12T09:35:48.234Z</time></trkpt><trkpt lat="43.72964" lon="12.921755"><ele>84.0</ele><time>2026-04-12T09:35:49.234Z</time></trkpt><trkpt lat="43.7297833" lon="12.9218117"><ele>84.0</ele><time>2026-04-12T09:35:50.235Z</time></trkpt><trkpt lat="43.72992" lon="12.9218767"><ele>84.0</ele><time>2026-04-12T09:35:51.234Z</time></trkpt><trkpt lat="43.73006" lon="12.92193"><ele>84.0</ele><time>2026-04-12T09:35:52.235Z</time></trkpt><trkpt lat="43.7301917" lon="12.9219867"><ele>84.0</ele><time>2026-04-12T09:35:53.235Z</time></trkpt><trkpt lat="43.730345" lon="12.92201"><ele>83.2</ele><time>2026-04-12T09:35:54.235Z</time></trkpt><trkpt lat="43.7304433" lon="12.9220867"><ele>82.4</ele><time>2026-04-12T09:35:55.235Z</time></trkpt><trkpt lat="43.7305233" lon="12.922155"><ele>81.6</ele><time>2026-04-12T09:35:56.235Z</time></trkpt><trkpt lat="43.7305817" lon="12.9222183"><ele>80.8</ele><time>2026-04-12T09:35:57.235Z</time></trkpt><trkpt lat="43.7306617" lon="12.9223017"><ele>80.0</ele><time>2026-04-12T09:35:59.235Z</time></trkpt><trkpt lat="43.7307383" lon="12.922295"><ele>80.0</ele><time>2026-04-12T09:36:01.234Z</time></trkpt><trkpt lat="43.7307567" lon="12.9221817"><ele>80.0</ele><time>2026-04-12T09:36:03.235Z</time></trkpt><trkpt lat="43.7307417" lon="12.92208"><ele>80.0</ele><time>2026-04-12T09:36:04.235Z</time></trkpt><trkpt lat="43.7307383" lon="12.9219533"><ele>80.0</ele><time>2026-04-12T09:36:05.235Z</time></trkpt><trkpt lat="43.7307733" lon="12.9218467"><ele>80.0</ele><time>2026-04-12T09:36:06.235Z</time></trkpt><trkpt lat="43.730855" lon="12.9217767"><ele>80.0</ele><time>2026-04-12T09:36:07.235Z</time></trkpt><trkpt lat="43.730965" lon="12.9217383"><ele>78.5</ele><time>2026-04-12T09:36:08.235Z</time></trkpt><trkpt lat="43.731085" lon="12.9217017"><ele>77.0</ele><time>2026-04-12T09:36:09.234Z</time></trkpt><trkpt lat="43.7312183" lon="12.92167"><ele>75.5</ele><time>2026-04-12T09:36:10.235Z</time></trkpt><trkpt lat="43.731355" lon="12.9216517"><ele>74.0</ele><time>2026-04-12T09:36:11.235Z</time></trkpt><trkpt lat="43.7314983" lon="12.9216283"><ele>74.0</ele><time>2026-04-12T09:36:12.235Z</time></trkpt><trkpt lat="43.7316483" lon="12.9215967"><ele>74.0</ele><time>2026-04-12T09:36:13.235Z</time></trkpt><trkpt lat="43.731795" lon="12.921565"><ele>74.0</ele><time>2026-04-12T09:36:14.235Z</time></trkpt><trkpt lat="43.7319567" lon="12.9215367"><ele>73.5</ele><time>2026-04-12T09:36:15.234Z</time></trkpt><trkpt lat="43.7320883" lon="12.9215167"><ele>73.0</ele><time>2026-04-12T09:36:16.235Z</time></trkpt><trkpt lat="43.7322333" lon="12.9214967"><ele>72.5</ele><time>2026-04-12T09:36:17.235Z</time></trkpt><trkpt lat="43.7323817" lon="12.92148"><ele>72.0</ele><time>2026-04-12T09:36:18.235Z</time></trkpt><trkpt lat="43.7325367" lon="12.921485"><ele>72.0</ele><time>2026-04-12T09:36:19.234Z</time></trkpt><trkpt lat="43.7327133" lon="12.9214867"><ele>72.0</ele><time>2026-04-12T09:36:20.235Z</time></trkpt><trkpt lat="43.7328617" lon="12.9215017"><ele>72.0</ele><time>2026-04-12T09:36:21.235Z</time></trkpt><trkpt lat="43.733005" lon="12.9214917"><ele>71.75</ele><time>2026-04-12T09:36:22.235Z</time></trkpt><trkpt lat="43.73315" lon="12.921515"><ele>71.5</ele><time>2026-04-12T09:36:23.235Z</time></trkpt><trkpt lat="43.7332883" lon="12.9215367"><ele>71.25</ele><time>2026-04-12T09:36:24.235Z</time></trkpt><trkpt lat="43.7334483" lon="12.9215533"><ele>71.0</ele><time>2026-04-12T09:36:25.235Z</time></trkpt><trkpt lat="43.733565" lon="12.9215967"><ele>70.75</ele><time>2026-04-12T09:36:26.235Z</time></trkpt><trkpt lat="43.7336967" lon="12.9216467"><ele>70.5</ele><time>2026-04-12T09:36:27.235Z</time></trkpt><trkpt lat="43.7338217" lon="12.9216983"><ele>70.25</ele><time>2026-04-12T09:36:28.235Z</time></trkpt><trkpt lat="43.73394" lon="12.921755"><ele>70.0</ele><time>2026-04-12T09:36:29.235Z</time></trkpt><trkpt lat="43.73405" lon="12.921835"><ele>70.5</ele><time>2026-04-12T09:36:30.234Z</time></trkpt><trkpt lat="43.73415" lon="12.921925"><ele>71.0</ele><time>2026-04-12T09:36:31.235Z</time></trkpt><trkpt lat="43.734255" lon="12.9220233"><ele>71.5</ele><time>2026-04-12T09:36:32.235Z</time></trkpt><trkpt lat="43.734365" lon="12.9221383"><ele>72.0</ele><time>2026-04-12T09:36:33.234Z</time></trkpt><trkpt lat="43.7344917" lon="12.9222683"><ele>72.0</ele><time>2026-04-12T09:36:34.235Z</time></trkpt><trkpt lat="43.7346133" lon="12.9223917"><ele>72.0</ele><time>2026-04-12T09:36:35.234Z</time></trkpt><trkpt lat="43.73474" lon="12.922515"><ele>72.0</ele><time>2026-04-12T09:36:36.235Z</time></trkpt><trkpt lat="43.7348833" lon="12.92264"><ele>71.66666666666667</ele><time>2026-04-12T09:36:37.234Z</time></trkpt><trkpt lat="43.7350167" lon="12.92277"><ele>71.33333333333334</ele><time>2026-04-12T09:36:38.235Z</time></trkpt><trkpt lat="43.73514" lon="12.9228983"><ele>71.0</ele><time>2026-04-12T09:36:39.234Z</time></trkpt><trkpt lat="43.7352683" lon="12.9230233"><ele>71.0</ele><time>2026-04-12T09:36:40.234Z</time></trkpt><trkpt lat="43.7354017" lon="12.9231483"><ele>71.0</ele><time>2026-04-12T09:36:41.234Z</time></trkpt><trkpt lat="43.7355333" lon="12.923275"><ele>71.0</ele><time>2026-04-12T09:36:42.235Z</time></trkpt><trkpt lat="43.735665" lon="12.9234"><ele>71.0</ele><time>2026-04-12T09:36:43.235Z</time></trkpt><trkpt lat="43.7357883" lon="12.923525"><ele>71.0</ele><time>2026-04-12T09:36:44.234Z</time></trkpt><trkpt lat="43.7359183" lon="12.9236483"><ele>71.0</ele><time>2026-04-12T09:36:45.235Z</time></trkpt><trkpt lat="43.73605" lon="12.923775"><ele>71.33333333333334</ele><time>2026-04-12T09:36:46.235Z</time></trkpt><trkpt lat="43.73618" lon="12.9239017"><ele>71.66666666666667</ele><time>2026-04-12T09:36:47.235Z</time></trkpt><trkpt lat="43.7363117" lon="12.9240217"><ele>72.0</ele><time>2026-04-12T09:36:48.235Z</time></trkpt><trkpt lat="43.736445" lon="12.92415"><ele>71.75</ele><time>2026-04-12T09:36:49.234Z</time></trkpt><trkpt lat="43.7365667" lon="12.9242667"><ele>71.5</ele><time>2026-04-12T09:36:50.234Z</time></trkpt><trkpt lat="43.7366883" lon="12.924375"><ele>71.25</ele><time>2026-04-12T09:36:51.234Z</time></trkpt><trkpt lat="43.7368133" lon="12.9244883"><ele>71.0</ele><time>2026-04-12T09:36:52.235Z</time></trkpt><trkpt lat="43.7369417" lon="12.9246117"><ele>71.0</ele><time>2026-04-12T09:36:53.235Z</time></trkpt><trkpt lat="43.7370617" lon="12.92475"><ele>71.0</ele><time>2026-04-12T09:36:54.235Z</time></trkpt><trkpt lat="43.737175" lon="12.9248967"><ele>71.0</ele><time>2026-04-12T09:36:55.235Z</time></trkpt><trkpt lat="43.7372817" lon="12.9250517"><ele>70.66666666666667</ele><time>2026-04-12T09:36:56.235Z</time></trkpt><trkpt lat="43.7373867" lon="12.92522"><ele>70.33333333333333</ele><time>2026-04-12T09:36:57.234Z</time></trkpt><trkpt lat="43.73749" lon="12.9253983"><ele>70.0</ele><time>2026-04-12T09:36:58.235Z</time></trkpt><trkpt lat="43.7376" lon="12.925575"><ele>70.0</ele><time>2026-04-12T09:36:59.234Z</time></trkpt><trkpt lat="43.7377083" lon="12.9257517"><ele>70.0</ele><time>2026-04-12T09:37:00.234Z</time></trkpt><trkpt lat="43.7378283" lon="12.92593"><ele>70.0</ele><time>2026-04-12T09:37:01.235Z</time></trkpt><trkpt lat="43.7379433" lon="12.9261067"><ele>69.66666666666666</ele><time>2026-04-12T09:37:02.235Z</time></trkpt><trkpt lat="43.738055" lon="12.926275"><ele>69.33333333333333</ele><time>2026-04-12T09:37:03.234Z</time></trkpt><trkpt lat="43.7381583" lon="12.926445"><ele>69.0</ele><time>2026-04-12T09:37:04.234Z</time></trkpt><trkpt lat="43.73825" lon="12.9266217"><ele>69.66666666666667</ele><time>2026-04-12T09:37:05.235Z</time></trkpt><trkpt lat="43.7383317" lon="12.9268067"><ele>70.33333333333334</ele><time>2026-04-12T09:37:06.235Z</time></trkpt><trkpt lat="43.7383983" lon="12.9270017"><ele>71.0</ele><time>2026-04-12T09:37:07.235Z</time></trkpt><trkpt lat="43.7384567" lon="12.9272033"><ele>71.0</ele><time>2026-04-12T09:37:08.235Z</time></trkpt><trkpt lat="43.7385117" lon="12.92742"><ele>71.0</ele><time>2026-04-12T09:37:09.235Z</time></trkpt><trkpt lat="43.738565" lon="12.9276383"><ele>71.0</ele><time>2026-04-12T09:37:10.235Z</time></trkpt><trkpt lat="43.7386433" lon="12.9278283"><ele>70.66666666666667</ele><time>2026-04-12T09:37:11.235Z</time></trkpt><trkpt lat="43.73872" lon="12.928055"><ele>70.33333333333333</ele><time>2026-04-12T09:37:12.234Z</time></trkpt><trkpt lat="43.738815" lon="12.928265"><ele>70.0</ele><time>2026-04-12T09:37:13.235Z</time></trkpt><trkpt lat="43.7389183" lon="12.9284467"><ele>70.0</ele><time>2026-04-12T09:37:14.235Z</time></trkpt><trkpt lat="43.7390167" lon="12.9286183"><ele>70.0</ele><time>2026-04-12T09:37:15.235Z</time></trkpt><trkpt lat="43.73911" lon="12.928785"><ele>70.0</ele><time>2026-04-12T09:37:16.235Z</time></trkpt><trkpt lat="43.7391833" lon="12.9289433"><ele>70.0</ele><time>2026-04-12T09:37:17.235Z</time></trkpt><trkpt lat="43.7392483" lon="12.9290933"><ele>69.8</ele><time>2026-04-12T09:37:18.235Z</time></trkpt><trkpt lat="43.7393067" lon="12.929235"><ele>69.6</ele><time>2026-04-12T09:37:19.235Z</time></trkpt><trkpt lat="43.73937" lon="12.92936"><ele>69.4</ele><time>2026-04-12T09:37:20.235Z</time></trkpt><trkpt lat="43.7394517" lon="12.9294467"><ele>69.2</ele><time>2026-04-12T09:37:21.235Z</time></trkpt><trkpt lat="43.7395467" lon="12.9294817"><ele>69.0</ele><time>2026-04-12T09:37:22.234Z</time></trkpt><trkpt lat="43.7396617" lon="12.9294517"><ele>69.0</ele><time>2026-04-12T09:37:23.234Z</time></trkpt><trkpt lat="43.73979" lon="12.9294183"><ele>69.0</ele><time>2026-04-12T09:37:24.235Z</time></trkpt><trkpt lat="43.739925" lon="12.9293667"><ele>69.0</ele><time>2026-04-12T09:37:25.234Z</time></trkpt><trkpt lat="43.740075" lon="12.9293183"><ele>69.0</ele><time>2026-04-12T09:37:26.234Z</time></trkpt><trkpt lat="43.74024" lon="12.9292633"><ele>68.0</ele><time>2026-04-12T09:37:27.235Z</time></trkpt><trkpt lat="43.7404017" lon="12.9292133"><ele>67.0</ele><time>2026-04-12T09:37:28.235Z</time></trkpt><trkpt lat="43.7405667" lon="12.92916"><ele>66.0</ele><time>2026-04-12T09:37:29.235Z</time></trkpt><trkpt lat="43.7407317" lon="12.92911"><ele>66.0</ele><time>2026-04-12T09:37:30.235Z</time></trkpt><trkpt lat="43.740905" lon="12.9290517"><ele>66.0</ele><time>2026-04-12T09:37:31.235Z</time></trkpt><trkpt lat="43.7410817" lon="12.9289933"><ele>66.0</ele><time>2026-04-12T09:37:32.235Z</time></trkpt><trkpt lat="43.7412517" lon="12.9289267"><ele>63.66666666666667</ele><time>2026-04-12T09:37:33.235Z</time></trkpt><trkpt lat="43.741425" lon="12.9288633"><ele>61.333333333333336</ele><time>2026-04-12T09:37:34.235Z</time></trkpt><trkpt lat="43.7415883" lon="12.928785"><ele>59.0</ele><time>2026-04-12T09:37:35.235Z</time></trkpt><trkpt lat="43.741745" lon="12.9286867"><ele>58.333333333333336</ele><time>2026-04-12T09:37:36.235Z</time></trkpt><trkpt lat="43.7418933" lon="12.9285817"><ele>57.66666666666667</ele><time>2026-04-12T09:37:37.234Z</time></trkpt><trkpt lat="43.742045" lon="12.928475"><ele>57.0</ele><time>2026-04-12T09:37:38.234Z</time></trkpt><trkpt lat="43.7422033" lon="12.92837"><ele>56.33333333333333</ele><time>2026-04-12T09:37:39.235Z</time></trkpt><trkpt lat="43.7423483" lon="12.9282617"><ele>55.666666666666664</ele><time>2026-04-12T09:37:40.234Z</time></trkpt><trkpt lat="43.74249" lon="12.9281583"><ele>55.0</ele><time>2026-04-12T09:37:41.235Z</time></trkpt><trkpt lat="43.74261" lon="12.9280683"><ele>55.2</ele><time>2026-04-12T09:37:42.235Z</time></trkpt><trkpt lat="43.742725" lon="12.9280083"><ele>55.4</ele><time>2026-04-12T09:37:43.234Z</time></trkpt><trkpt lat="43.7428317" lon="12.9279917"><ele>55.599999999999994</ele><time>2026-04-12T09:37:44.235Z</time></trkpt><trkpt lat="43.7429317" lon="12.9279983"><ele>55.8</ele><time>2026-04-12T09:37:45.235Z</time></trkpt><trkpt lat="43.74303" lon="12.9280383"><ele>56.0</ele><time>2026-04-12T09:37:46.235Z</time></trkpt><trkpt lat="43.7431083" lon="12.928125"><ele>56.0</ele><time>2026-04-12T09:37:47.234Z</time></trkpt><trkpt lat="43.7431733" lon="12.9282417"><ele>56.0</ele><time>2026-04-12T09:37:48.235Z</time></trkpt><trkpt lat="43.7432267" lon="12.92838"><ele>56.0</ele><time>2026-04-12T09:37:49.235Z</time></trkpt><trkpt lat="43.7432783" lon="12.928535"><ele>56.0</ele><time>2026-04-12T09:37:50.235Z</time></trkpt><trkpt lat="43.743345" lon="12.92869"><ele>56.199999999999996</ele><time>2026-04-12T09:37:51.234Z</time></trkpt><trkpt lat="43.74341" lon="12.9288267"><ele>56.39999999999999</ele><time>2026-04-12T09:37:52.235Z</time></trkpt><trkpt lat="43.7434717" lon="12.92896"><ele>56.6</ele><time>2026-04-12T09:37:53.235Z</time></trkpt><trkpt lat="43.74352" lon="12.929075"><ele>56.8</ele><time>2026-04-12T09:37:54.235Z</time></trkpt><trkpt lat="43.7435567" lon="12.9291717"><ele>57.0</ele><time>2026-04-12T09:37:55.234Z</time></trkpt><trkpt lat="43.743585" lon="12.9292717"><ele>56.0</ele><time>2026-04-12T09:37:57.235Z</time></trkpt><trkpt lat="43.743625" lon="12.9293783"><ele>55.0</ele><time>2026-04-12T09:37:59.235Z</time></trkpt><trkpt lat="43.7437233" lon="12.9294433"><ele>54.0</ele><time>2026-04-12T09:38:01.235Z</time></trkpt><trkpt lat="43.7437917" lon="12.92941"><ele>53.0</ele><time>2026-04-12T09:38:02.234Z</time></trkpt><trkpt lat="43.7438717" lon="12.92933"><ele>52.0</ele><time>2026-04-12T09:38:03.234Z</time></trkpt><trkpt lat="43.743965" lon="12.9292383"><ele>52.25</ele><time>2026-04-12T09:38:04.235Z</time></trkpt><trkpt lat="43.7440633" lon="12.9291367"><ele>52.5</ele><time>2026-04-12T09:38:05.235Z</time></trkpt><trkpt lat="43.744175" lon="12.9290083"><ele>52.75</ele><time>2026-04-12T09:38:06.235Z</time></trkpt><trkpt lat="43.7442983" lon="12.928875"><ele>53.0</ele><time>2026-04-12T09:38:07.234Z</time></trkpt><trkpt lat="43.7444283" lon="12.92872"><ele>53.0</ele><time>2026-04-12T09:38:08.235Z</time></trkpt><trkpt lat="43.744565" lon="12.9285567"><ele>53.0</ele><time>2026-04-12T09:38:09.235Z</time></trkpt><trkpt lat="43.7447" lon="12.9283783"><ele>53.0</ele><time>2026-04-12T09:38:10.235Z</time></trkpt><trkpt lat="43.744825" lon="12.9281833"><ele>52.66666666666667</ele><time>2026-04-12T09:38:11.234Z</time></trkpt><trkpt lat="43.744955" lon="12.9279833"><ele>52.33333333333333</ele><time>2026-04-12T09:38:12.235Z</time></trkpt><trkpt lat="43.7450783" lon="12.9277867"><ele>52.0</ele><time>2026-04-12T09:38:13.235Z</time></trkpt><trkpt lat="43.745205" lon="12.9275933"><ele>50.0</ele><time>2026-04-12T09:38:14.235Z</time></trkpt><trkpt lat="43.7453233" lon="12.9273967"><ele>48.0</ele><time>2026-04-12T09:38:15.234Z</time></trkpt><trkpt lat="43.74544" lon="12.9272067"><ele>46.0</ele><time>2026-04-12T09:38:16.234Z</time></trkpt><trkpt lat="43.7455617" lon="12.9270217"><ele>46.0</ele><time>2026-04-12T09:38:17.234Z</time></trkpt><trkpt lat="43.7456767" lon="12.9268383"><ele>46.0</ele><time>2026-04-12T09:38:18.235Z</time></trkpt><trkpt lat="43.7457867" lon="12.9266533"><ele>46.0</ele><time>2026-04-12T09:38:19.235Z</time></trkpt><trkpt lat="43.7459033" lon="12.926465"><ele>45.66666666666667</ele><time>2026-04-12T09:38:20.235Z</time></trkpt><trkpt lat="43.7460167" lon="12.9262883"><ele>45.333333333333336</ele><time>2026-04-12T09:38:21.235Z</time></trkpt><trkpt lat="43.7461333" lon="12.9261117"><ele>45.0</ele><time>2026-04-12T09:38:22.234Z</time></trkpt><trkpt lat="43.7462467" lon="12.9259433"><ele>43.666666666666664</ele><time>2026-04-12T09:38:23.235Z</time></trkpt><trkpt lat="43.7463483" lon="12.9257767"><ele>42.33333333333333</ele><time>2026-04-12T09:38:24.235Z</time></trkpt><trkpt lat="43.7464533" lon="12.925605"><ele>41.0</ele><time>2026-04-12T09:38:25.235Z</time></trkpt><trkpt lat="43.7465533" lon="12.9254433"><ele>41.0</ele><time>2026-04-12T09:38:26.234Z</time></trkpt><trkpt lat="43.7466517" lon="12.9252833"><ele>41.0</ele><time>2026-04-12T09:38:27.235Z</time></trkpt><trkpt lat="43.746745" lon="12.9251283"><ele>41.0</ele><time>2026-04-12T09:38:28.235Z</time></trkpt><trkpt lat="43.7468383" lon="12.9249733"><ele>41.0</ele><time>2026-04-12T09:38:29.235Z</time></trkpt><trkpt lat="43.74694" lon="12.9248217"><ele>41.75</ele><time>2026-04-12T09:38:30.235Z</time></trkpt><trkpt lat="43.7470283" lon="12.9246683"><ele>42.5</ele><time>2026-04-12T09:38:31.234Z</time></trkpt><trkpt lat="43.7471233" lon="12.9245183"><ele>43.25</ele><time>2026-04-12T09:38:32.235Z</time></trkpt><trkpt lat="43.7472267" lon="12.9243833"><ele>44.0</ele><time>2026-04-12T09:38:33.234Z</time></trkpt><trkpt lat="43.7473167" lon="12.9242267"><ele>44.75</ele><time>2026-04-12T09:38:34.235Z</time></trkpt><trkpt lat="43.747405" lon="12.9240733"><ele>45.5</ele><time>2026-04-12T09:38:35.235Z</time></trkpt><trkpt lat="43.7474983" lon="12.9239283"><ele>46.25</ele><time>2026-04-12T09:38:36.235Z</time></trkpt><trkpt lat="43.747585" lon="12.9237883"><ele>47.0</ele><time>2026-04-12T09:38:37.235Z</time></trkpt><trkpt lat="43.74767" lon="12.9236567"><ele>46.5</ele><time>2026-04-12T09:38:38.234Z</time></trkpt><trkpt lat="43.7477483" lon="12.92352"><ele>46.0</ele><time>2026-04-12T09:38:39.235Z</time></trkpt><trkpt lat="43.7478317" lon="12.9233883"><ele>45.5</ele><time>2026-04-12T09:38:40.235Z</time></trkpt><trkpt lat="43.7479167" lon="12.9232617"><ele>45.0</ele><time>2026-04-12T09:38:41.234Z</time></trkpt><trkpt lat="43.747995" lon="12.9231333"><ele>45.0</ele><time>2026-04-12T09:38:42.235Z</time></trkpt><trkpt lat="43.7480717" lon="12.9230033"><ele>45.0</ele><time>2026-04-12T09:38:43.234Z</time></trkpt><trkpt lat="43.7481517" lon="12.9228667"><ele>45.0</ele><time>2026-04-12T09:38:44.235Z</time></trkpt><trkpt lat="43.7482383" lon="12.92274"><ele>45.0</ele><time>2026-04-12T09:38:45.235Z</time></trkpt><trkpt lat="43.748325" lon="12.9226083"><ele>45.5</ele><time>2026-04-12T09:38:46.235Z</time></trkpt><trkpt lat="43.7484017" lon="12.9224617"><ele>46.0</ele><time>2026-04-12T09:38:47.235Z</time></trkpt><trkpt lat="43.7484833" lon="12.9223167"><ele>46.5</ele><time>2026-04-12T09:38:48.235Z</time></trkpt><trkpt lat="43.7485633" lon="12.9221817"><ele>47.0</ele><time>2026-04-12T09:38:49.235Z</time></trkpt><trkpt lat="43.7486567" lon="12.9220533"><ele>47.5</ele><time>2026-04-12T09:38:50.234Z</time></trkpt><trkpt lat="43.7487517" lon="12.921925"><ele>48.0</ele><time>2026-04-12T09:38:51.234Z</time></trkpt><trkpt lat="43.7488433" lon="12.9218117"><ele>48.5</ele><time>2026-04-12T09:38:52.234Z</time></trkpt><trkpt lat="43.748925" lon="12.9216917"><ele>49.0</ele><time>2026-04-12T09:38:53.234Z</time></trkpt><trkpt lat="43.7489933" lon="12.921565"><ele>49.400000000000006</ele><time>2026-04-12T09:38:54.234Z</time></trkpt><trkpt lat="43.749065" lon="12.9214417"><ele>49.8</ele><time>2026-04-12T09:38:55.235Z</time></trkpt><trkpt lat="43.7491283" lon="12.921325"><ele>50.2</ele><time>2026-04-12T09:38:56.235Z</time></trkpt><trkpt lat="43.7491883" lon="12.921215"><ele>50.599999999999994</ele><time>2026-04-12T09:38:57.234Z</time></trkpt><trkpt lat="43.7492517" lon="12.92113"><ele>51.0</ele><time>2026-04-12T09:38:58.235Z</time></trkpt><trkpt lat="43.7493083" lon="12.9210683"><ele>52.199999999999996</ele><time>2026-04-12T09:38:59.235Z</time></trkpt><trkpt lat="43.7493983" lon="12.9209867"><ele>53.4</ele><time>2026-04-12T09:39:01.235Z</time></trkpt><trkpt lat="43.7495117" lon="12.9209833"><ele>54.6</ele><time>2026-04-12T09:39:03.234Z</time></trkpt><trkpt lat="43.74961" lon="12.9208967"><ele>55.8</ele><time>2026-04-12T09:39:05.235Z</time></trkpt><trkpt lat="43.7496267" lon="12.9208"><ele>57.0</ele><time>2026-04-12T09:39:06.235Z</time></trkpt><trkpt lat="43.7496367" lon="12.9207067"><ele>57.333333333333336</ele><time>2026-04-12T09:39:07.235Z</time></trkpt><trkpt lat="43.7496483" lon="12.9206167"><ele>57.66666666666667</ele><time>2026-04-12T09:39:08.234Z</time></trkpt><trkpt lat="43.7496717" lon="12.9205117"><ele>58.0</ele><time>2026-04-12T09:39:09.234Z</time></trkpt><trkpt lat="43.7497033" lon="12.9204117"><ele>58.333333333333336</ele><time>2026-04-12T09:39:10.235Z</time></trkpt><trkpt lat="43.7497467" lon="12.9203167"><ele>58.66666666666667</ele><time>2026-04-12T09:39:11.235Z</time></trkpt><trkpt lat="43.7498" lon="12.92023"><ele>59.0</ele><time>2026-04-12T09:39:12.235Z</time></trkpt><trkpt lat="43.7498633" lon="12.9201483"><ele>59.400000000000006</ele><time>2026-04-12T09:39:13.235Z</time></trkpt><trkpt lat="43.7499267" lon="12.920055"><ele>59.800000000000004</ele><time>2026-04-12T09:39:14.235Z</time></trkpt><trkpt lat="43.7499917" lon="12.9199617"><ele>60.199999999999996</ele><time>2026-04-12T09:39:15.235Z</time></trkpt><trkpt lat="43.750055" lon="12.9198583"><ele>60.599999999999994</ele><time>2026-04-12T09:39:16.235Z</time></trkpt><trkpt lat="43.7501117" lon="12.9197583"><ele>61.0</ele><time>2026-04-12T09:39:17.235Z</time></trkpt><trkpt lat="43.75017" lon="12.9196583"><ele>61.49999999999999</ele><time>2026-04-12T09:39:18.234Z</time></trkpt><trkpt lat="43.7502317" lon="12.9195617"><ele>62.0</ele><time>2026-04-12T09:39:19.235Z</time></trkpt><trkpt lat="43.75029" lon="12.9194667"><ele>62.5</ele><time>2026-04-12T09:39:20.235Z</time></trkpt><trkpt lat="43.750345" lon="12.91939"><ele>63.0</ele><time>2026-04-12T09:39:21.234Z</time></trkpt><trkpt lat="43.7503933" lon="12.9193183"><ele>63.49999999999999</ele><time>2026-04-12T09:39:22.234Z</time></trkpt><trkpt lat="43.75044" lon="12.919255"><ele>64.0</ele><time>2026-04-12T09:39:23.234Z</time></trkpt><trkpt lat="43.7505033" lon="12.919135"><ele>64.33333333333333</ele><time>2026-04-12T09:39:25.235Z</time></trkpt><trkpt lat="43.75056" lon="12.9190283"><ele>64.66666666666666</ele><time>2026-04-12T09:39:27.235Z</time></trkpt><trkpt lat="43.75062" lon="12.9189483"><ele>65.0</ele><time>2026-04-12T09:39:29.235Z</time></trkpt><trkpt lat="43.7506717" lon="12.9188817"><ele>65.33333333333333</ele><time>2026-04-12T09:39:32.234Z</time></trkpt><trkpt lat="43.7507183" lon="12.918785"><ele>65.66666666666667</ele><time>2026-04-12T09:39:56.234Z</time></trkpt><trkpt lat="43.7507833" lon="12.918695"><ele>66.0</ele><time>2026-04-12T09:39:58.235Z</time></trkpt><trkpt lat="43.750845" lon="12.9185833"><ele>66.0</ele><time>2026-04-12T09:40:00.235Z</time></trkpt><trkpt lat="43.75092" lon="12.9184467"><ele>66.0</ele><time>2026-04-12T09:40:02.235Z</time></trkpt><trkpt lat="43.7509533" lon="12.9183667"><ele>66.0</ele><time>2026-04-12T09:40:03.235Z</time></trkpt><trkpt lat="43.750995" lon="12.9182983"><ele>66.0</ele><time>2026-04-12T09:40:04.234Z</time></trkpt><trkpt lat="43.7510267" lon="12.918215"><ele>66.0</ele><time>2026-04-12T09:40:05.235Z</time></trkpt><trkpt lat="43.7510583" lon="12.9181"><ele>66.0</ele><time>2026-04-12T09:40:06.234Z</time></trkpt><trkpt lat="43.751095" lon="12.9179833"><ele>66.6</ele><time>2026-04-12T09:40:07.235Z</time></trkpt><trkpt lat="43.7511383" lon="12.9178433"><ele>67.19999999999999</ele><time>2026-04-12T09:40:08.234Z</time></trkpt><trkpt lat="43.7511833" lon="12.917705"><ele>67.80000000000001</ele><time>2026-04-12T09:40:09.235Z</time></trkpt><trkpt lat="43.7512183" lon="12.9175533"><ele>68.4</ele><time>2026-04-12T09:40:10.235Z</time></trkpt><trkpt lat="43.7512583" lon="12.917415"><ele>69.0</ele><time>2026-04-12T09:40:11.235Z</time></trkpt><trkpt lat="43.751295" lon="12.9172883"><ele>69.4</ele><time>2026-04-12T09:40:12.234Z</time></trkpt><trkpt lat="43.7513267" lon="12.9171683"><ele>69.80000000000001</ele><time>2026-04-12T09:40:13.235Z</time></trkpt><trkpt lat="43.7513633" lon="12.917055"><ele>70.19999999999999</ele><time>2026-04-12T09:40:14.235Z</time></trkpt><trkpt lat="43.7514067" lon="12.9169383"><ele>70.6</ele><time>2026-04-12T09:40:15.234Z</time></trkpt><trkpt lat="43.7514483" lon="12.9168117"><ele>71.0</ele><time>2026-04-12T09:40:16.235Z</time></trkpt><trkpt lat="43.7515" lon="12.916685"><ele>71.2</ele><time>2026-04-12T09:40:17.234Z</time></trkpt><trkpt lat="43.7515483" lon="12.916555"><ele>71.39999999999999</ele><time>2026-04-12T09:40:18.234Z</time></trkpt><trkpt lat="43.7515933" lon="12.91642"><ele>71.6</ele><time>2026-04-12T09:40:19.235Z</time></trkpt><trkpt lat="43.751625" lon="12.9162883"><ele>71.8</ele><time>2026-04-12T09:40:20.235Z</time></trkpt><trkpt lat="43.75167" lon="12.9161617"><ele>72.0</ele><time>2026-04-12T09:40:21.235Z</time></trkpt><trkpt lat="43.7517033" lon="12.916045"><ele>72.0</ele><time>2026-04-12T09:40:22.235Z</time></trkpt><trkpt lat="43.7517417" lon="12.9159267"><ele>72.0</ele><time>2026-04-12T09:40:23.235Z</time></trkpt><trkpt lat="43.75177" lon="12.9158133"><ele>72.0</ele><time>2026-04-12T09:40:24.234Z</time></trkpt><trkpt lat="43.7518033" lon="12.9156833"><ele>72.0</ele><time>2026-04-12T09:40:25.235Z</time></trkpt><trkpt lat="43.75183" lon="12.9155533"><ele>72.0</ele><time>2026-04-12T09:40:26.235Z</time></trkpt><trkpt lat="43.7518533" lon="12.9154233"><ele>74.6</ele><time>2026-04-12T09:40:27.234Z</time></trkpt><trkpt lat="43.751875" lon="12.9152917"><ele>77.2</ele><time>2026-04-12T09:40:28.235Z</time></trkpt><trkpt lat="43.7518933" lon="12.9151517"><ele>79.8</ele><time>2026-04-12T09:40:29.235Z</time></trkpt><trkpt lat="43.751915" lon="12.9150083"><ele>82.4</ele><time>2026-04-12T09:40:30.235Z</time></trkpt><trkpt lat="43.7519433" lon="12.9148717"><ele>85.0</ele><time>2026-04-12T09:40:31.234Z</time></trkpt><trkpt lat="43.7519767" lon="12.914735"><ele>85.0</ele><time>2026-04-12T09:40:32.235Z</time></trkpt><trkpt lat="43.7520083" lon="12.9145933"><ele>85.0</ele><time>2026-04-12T09:40:33.234Z</time></trkpt><trkpt lat="43.7520417" lon="12.9144617"><ele>85.0</ele><time>2026-04-12T09:40:34.234Z</time></trkpt><trkpt lat="43.752085" lon="12.91431"><ele>85.0</ele><time>2026-04-12T09:40:35.235Z</time></trkpt><trkpt lat="43.7521317" lon="12.91416"><ele>85.0</ele><time>2026-04-12T09:40:36.234Z</time></trkpt><trkpt lat="43.75218" lon="12.9140083"><ele>84.25</ele><time>2026-04-12T09:40:37.235Z</time></trkpt><trkpt lat="43.7522283" lon="12.9138483"><ele>83.5</ele><time>2026-04-12T09:40:38.235Z</time></trkpt><trkpt lat="43.7522833" lon="12.913695"><ele>82.75</ele><time>2026-04-12T09:40:39.235Z</time></trkpt><trkpt lat="43.752345" lon="12.913545"><ele>82.0</ele><time>2026-04-12T09:40:40.235Z</time></trkpt><trkpt lat="43.7524117" lon="12.9133983"><ele>81.5</ele><time>2026-04-12T09:40:41.235Z</time></trkpt><trkpt lat="43.7524817" lon="12.9132683"><ele>81.0</ele><time>2026-04-12T09:40:42.235Z</time></trkpt><trkpt lat="43.752545" lon="12.91314"><ele>80.5</ele><time>2026-04-12T09:40:43.234Z</time></trkpt><trkpt lat="43.75261" lon="12.9130167"><ele>80.0</ele><time>2026-04-12T09:40:44.234Z</time></trkpt><trkpt lat="43.7526783" lon="12.912885"><ele>83.0</ele><time>2026-04-12T09:40:45.234Z</time></trkpt><trkpt lat="43.75275" lon="12.9127517"><ele>86.0</ele><time>2026-04-12T09:40:46.235Z</time></trkpt><trkpt lat="43.7528167" lon="12.9126117"><ele>89.0</ele><time>2026-04-12T09:40:47.235Z</time></trkpt><trkpt lat="43.75289" lon="12.9124583"><ele>92.0</ele><time>2026-04-12T09:40:48.235Z</time></trkpt><trkpt lat="43.752965" lon="12.9122933"><ele>92.0</ele><time>2026-04-12T09:40:49.235Z</time></trkpt><trkpt lat="43.7530267" lon="12.9121267"><ele>92.0</ele><time>2026-04-12T09:40:50.235Z</time></trkpt><trkpt lat="43.75307" lon="12.9119667"><ele>92.0</ele><time>2026-04-12T09:40:51.235Z</time></trkpt><trkpt lat="43.7531217" lon="12.9118033"><ele>92.0</ele><time>2026-04-12T09:40:52.235Z</time></trkpt><trkpt lat="43.7531667" lon="12.9116383"><ele>90.75</ele><time>2026-04-12T09:40:53.235Z</time></trkpt><trkpt lat="43.7532" lon="12.9114717"><ele>89.5</ele><time>2026-04-12T09:40:54.235Z</time></trkpt><trkpt lat="43.7532283" lon="12.9113033"><ele>88.25</ele><time>2026-04-12T09:40:55.235Z</time></trkpt><trkpt lat="43.7532633" lon="12.91113"><ele>87.0</ele><time>2026-04-12T09:40:56.235Z</time></trkpt><trkpt lat="43.7532967" lon="12.9109567"><ele>86.66666666666667</ele><time>2026-04-12T09:40:57.235Z</time></trkpt><trkpt lat="43.75333" lon="12.9107617"><ele>86.33333333333334</ele><time>2026-04-12T09:40:58.234Z</time></trkpt><trkpt lat="43.7533617" lon="12.910555"><ele>86.0</ele><time>2026-04-12T09:40:59.235Z</time></trkpt><trkpt lat="43.7534033" lon="12.9103383"><ele>86.0</ele><time>2026-04-12T09:41:00.235Z</time></trkpt><trkpt lat="43.7534417" lon="12.91013"><ele>86.0</ele><time>2026-04-12T09:41:01.234Z</time></trkpt><trkpt lat="43.753485" lon="12.909915"><ele>86.0</ele><time>2026-04-12T09:41:02.235Z</time></trkpt><trkpt lat="43.7535233" lon="12.9097033"><ele>88.5</ele><time>2026-04-12T09:41:03.234Z</time></trkpt><trkpt lat="43.7535583" lon="12.9095"><ele>91.0</ele><time>2026-04-12T09:41:04.234Z</time></trkpt><trkpt lat="43.7535933" lon="12.909295"><ele>93.5</ele><time>2026-04-12T09:41:05.235Z</time></trkpt><trkpt lat="43.75362" lon="12.9091"><ele>96.0</ele><time>2026-04-12T09:41:06.235Z</time></trkpt><trkpt lat="43.7536433" lon="12.9089017"><ele>96.75</ele><time>2026-04-12T09:41:07.235Z</time></trkpt><trkpt lat="43.75366" lon="12.9087133"><ele>97.5</ele><time>2026-04-12T09:41:08.235Z</time></trkpt><trkpt lat="43.7536567" lon="12.9085333"><ele>98.25</ele><time>2026-04-12T09:41:09.235Z</time></trkpt><trkpt lat="43.7536383" lon="12.9083567"><ele>99.0</ele><time>2026-04-12T09:41:10.235Z</time></trkpt><trkpt lat="43.75361" lon="12.9081717"><ele>99.75</ele><time>2026-04-12T09:41:11.234Z</time></trkpt><trkpt lat="43.7535667" lon="12.90798"><ele>100.5</ele><time>2026-04-12T09:41:12.234Z</time></trkpt><trkpt lat="43.7535217" lon="12.9077867"><ele>101.25</ele><time>2026-04-12T09:41:13.235Z</time></trkpt><trkpt lat="43.7534717" lon="12.9075867"><ele>102.0</ele><time>2026-04-12T09:41:14.234Z</time></trkpt><trkpt lat="43.7534217" lon="12.907385"><ele>102.0</ele><time>2026-04-12T09:41:15.235Z</time></trkpt><trkpt lat="43.75336" lon="12.9071767"><ele>102.0</ele><time>2026-04-12T09:41:16.235Z</time></trkpt><trkpt lat="43.753305" lon="12.906965"><ele>102.0</ele><time>2026-04-12T09:41:17.235Z</time></trkpt><trkpt lat="43.753255" lon="12.906755"><ele>104.0</ele><time>2026-04-12T09:41:18.235Z</time></trkpt><trkpt lat="43.7532017" lon="12.9065433"><ele>106.0</ele><time>2026-04-12T09:41:19.235Z</time></trkpt><trkpt lat="43.7531517" lon="12.9063367"><ele>108.0</ele><time>2026-04-12T09:41:20.234Z</time></trkpt><trkpt lat="43.7531083" lon="12.9061367"><ele>108.0</ele><time>2026-04-12T09:41:21.234Z</time></trkpt><trkpt lat="43.7530717" lon="12.9059467"><ele>108.0</ele><time>2026-04-12T09:41:22.234Z</time></trkpt><trkpt lat="43.7530367" lon="12.905745"><ele>108.0</ele><time>2026-04-12T09:41:23.235Z</time></trkpt><trkpt lat="43.7530067" lon="12.9055517"><ele>108.0</ele><time>2026-04-12T09:41:24.234Z</time></trkpt><trkpt lat="43.7529617" lon="12.9053667"><ele>109.5</ele><time>2026-04-12T09:41:25.235Z</time></trkpt><trkpt lat="43.75293" lon="12.90517"><ele>111.0</ele><time>2026-04-12T09:41:26.235Z</time></trkpt><trkpt lat="43.7528983" lon="12.9049683"><ele>112.5</ele><time>2026-04-12T09:41:27.235Z</time></trkpt><trkpt lat="43.7528617" lon="12.9047783"><ele>114.0</ele><time>2026-04-12T09:41:28.234Z</time></trkpt><trkpt lat="43.7528167" lon="12.904575"><ele>112.75</ele><time>2026-04-12T09:41:29.235Z</time></trkpt><trkpt lat="43.7527683" lon="12.904375"><ele>111.5</ele><time>2026-04-12T09:41:30.234Z</time></trkpt><trkpt lat="43.75273" lon="12.904175"><ele>110.25</ele><time>2026-04-12T09:41:31.235Z</time></trkpt><trkpt lat="43.7526933" lon="12.9039883"><ele>109.0</ele><time>2026-04-12T09:41:32.234Z</time></trkpt><trkpt lat="43.7526567" lon="12.9038133"><ele>109.0</ele><time>2026-04-12T09:41:33.235Z</time></trkpt><trkpt lat="43.7526233" lon="12.9036467"><ele>109.0</ele><time>2026-04-12T09:41:34.235Z</time></trkpt><trkpt lat="43.752595" lon="12.9034883"><ele>109.0</ele><time>2026-04-12T09:41:35.235Z</time></trkpt><trkpt lat="43.7525667" lon="12.9033217"><ele>109.0</ele><time>2026-04-12T09:41:36.234Z</time></trkpt><trkpt lat="43.75253" lon="12.9031483"><ele>110.0</ele><time>2026-04-12T09:41:37.234Z</time></trkpt><trkpt lat="43.7525017" lon="12.9029667"><ele>111.0</ele><time>2026-04-12T09:41:38.234Z</time></trkpt><trkpt lat="43.7524733" lon="12.9027883"><ele>112.0</ele><time>2026-04-12T09:41:39.235Z</time></trkpt><trkpt lat="43.7524433" lon="12.9026133"><ele>113.0</ele><time>2026-04-12T09:41:40.234Z</time></trkpt><trkpt lat="43.7524" lon="12.9024333"><ele>114.25</ele><time>2026-04-12T09:41:41.234Z</time></trkpt><trkpt lat="43.752365" lon="12.9022467"><ele>115.5</ele><time>2026-04-12T09:41:42.234Z</time></trkpt><trkpt lat="43.75232" lon="12.9020633"><ele>116.75</ele><time>2026-04-12T09:41:43.234Z</time></trkpt><trkpt lat="43.7522783" lon="12.9018833"><ele>118.0</ele><time>2026-04-12T09:41:44.234Z</time></trkpt><trkpt lat="43.7522433" lon="12.90169"><ele>119.75</ele><time>2026-04-12T09:41:45.234Z</time></trkpt><trkpt lat="43.7522017" lon="12.901495"><ele>121.5</ele><time>2026-04-12T09:41:46.235Z</time></trkpt><trkpt lat="43.7521683" lon="12.9012983"><ele>123.25</ele><time>2026-04-12T09:41:47.235Z</time></trkpt><trkpt lat="43.7521267" lon="12.90111"><ele>125.0</ele><time>2026-04-12T09:41:48.235Z</time></trkpt><trkpt lat="43.752085" lon="12.9009383"><ele>127.75</ele><time>2026-04-12T09:41:49.235Z</time></trkpt><trkpt lat="43.752055" lon="12.9007617"><ele>130.5</ele><time>2026-04-12T09:41:50.235Z</time></trkpt><trkpt lat="43.7520317" lon="12.9005783"><ele>133.25</ele><time>2026-04-12T09:41:51.235Z</time></trkpt><trkpt lat="43.7520383" lon="12.9003967"><ele>136.0</ele><time>2026-04-12T09:41:52.235Z</time></trkpt><trkpt lat="43.7520683" lon="12.90023"><ele>134.75</ele><time>2026-04-12T09:41:53.235Z</time></trkpt><trkpt lat="43.7521283" lon="12.90008"><ele>133.5</ele><time>2026-04-12T09:41:54.235Z</time></trkpt><trkpt lat="43.7521867" lon="12.8999417"><ele>132.25</ele><time>2026-04-12T09:41:55.235Z</time></trkpt><trkpt lat="43.7522733" lon="12.8998367"><ele>131.0</ele><time>2026-04-12T09:41:56.234Z</time></trkpt><trkpt lat="43.7523817" lon="12.8997583"><ele>131.0</ele><time>2026-04-12T09:41:57.235Z</time></trkpt><trkpt lat="43.7525" lon="12.899705"><ele>131.0</ele><time>2026-04-12T09:41:58.234Z</time></trkpt><trkpt lat="43.7526267" lon="12.8996633"><ele>131.0</ele><time>2026-04-12T09:41:59.234Z</time></trkpt><trkpt lat="43.7527617" lon="12.899625"><ele>131.0</ele><time>2026-04-12T09:42:00.235Z</time></trkpt><trkpt lat="43.7529017" lon="12.89959"><ele>134.33333333333331</ele><time>2026-04-12T09:42:01.234Z</time></trkpt><trkpt lat="43.7530383" lon="12.89954"><ele>137.66666666666666</ele><time>2026-04-12T09:42:02.235Z</time></trkpt><trkpt lat="43.753185" lon="12.8994883"><ele>141.0</ele><time>2026-04-12T09:42:03.235Z</time></trkpt><trkpt lat="43.7533383" lon="12.8994333"><ele>141.0</ele><time>2026-04-12T09:42:04.235Z</time></trkpt><trkpt lat="43.7534967" lon="12.8993717"><ele>141.0</ele><time>2026-04-12T09:42:05.235Z</time></trkpt><trkpt lat="43.753645" lon="12.8993183"><ele>141.0</ele><time>2026-04-12T09:42:06.234Z</time></trkpt><trkpt lat="43.753795" lon="12.8992667"><ele>140.5</ele><time>2026-04-12T09:42:07.235Z</time></trkpt><trkpt lat="43.7539383" lon="12.8992133"><ele>140.0</ele><time>2026-04-12T09:42:08.235Z</time></trkpt><trkpt lat="43.7540833" lon="12.8991667"><ele>139.5</ele><time>2026-04-12T09:42:09.234Z</time></trkpt><trkpt lat="43.7542233" lon="12.8991133"><ele>139.0</ele><time>2026-04-12T09:42:10.235Z</time></trkpt><trkpt lat="43.7543567" lon="12.8990683"><ele>140.5</ele><time>2026-04-12T09:42:11.235Z</time></trkpt><trkpt lat="43.7544733" lon="12.8990283"><ele>142.0</ele><time>2026-04-12T09:42:12.235Z</time></trkpt><trkpt lat="43.7545817" lon="12.89898"><ele>143.5</ele><time>2026-04-12T09:42:13.235Z</time></trkpt><trkpt lat="43.7546817" lon="12.8989067"><ele>145.0</ele><time>2026-04-12T09:42:14.235Z</time></trkpt><trkpt lat="43.75476" lon="12.89879"><ele>145.0</ele><time>2026-04-12T09:42:15.235Z</time></trkpt><trkpt lat="43.7548167" lon="12.89863"><ele>145.0</ele><time>2026-04-12T09:42:16.235Z</time></trkpt><trkpt lat="43.7548383" lon="12.8984517"><ele>145.0</ele><time>2026-04-12T09:42:17.235Z</time></trkpt><trkpt lat="43.7548117" lon="12.8982917"><ele>145.0</ele><time>2026-04-12T09:42:18.235Z</time></trkpt><trkpt lat="43.75473" lon="12.89815"><ele>144.25</ele><time>2026-04-12T09:42:19.235Z</time></trkpt><trkpt lat="43.7546233" lon="12.8980583"><ele>143.5</ele><time>2026-04-12T09:42:20.234Z</time></trkpt><trkpt lat="43.754495" lon="12.8980167"><ele>142.75</ele><time>2026-04-12T09:42:21.234Z</time></trkpt><trkpt lat="43.7543483" lon="12.8980317"><ele>142.0</ele><time>2026-04-12T09:42:22.235Z</time></trkpt><trkpt lat="43.7542067" lon="12.8980717"><ele>141.0</ele><time>2026-04-12T09:42:23.234Z</time></trkpt><trkpt lat="43.7540667" lon="12.8981217"><ele>140.0</ele><time>2026-04-12T09:42:24.235Z</time></trkpt><trkpt lat="43.75392" lon="12.8981583"><ele>139.0</ele><time>2026-04-12T09:42:25.235Z</time></trkpt><trkpt lat="43.7537717" lon="12.8982033"><ele>138.0</ele><time>2026-04-12T09:42:26.234Z</time></trkpt><trkpt lat="43.753615" lon="12.8982467"><ele>139.0</ele><time>2026-04-12T09:42:27.235Z</time></trkpt><trkpt lat="43.7534617" lon="12.8982867"><ele>140.0</ele><time>2026-04-12T09:42:28.235Z</time></trkpt><trkpt lat="43.7533167" lon="12.8983233"><ele>141.0</ele><time>2026-04-12T09:42:29.235Z</time></trkpt><trkpt lat="43.7531833" lon="12.8983467"><ele>142.0</ele><time>2026-04-12T09:42:30.235Z</time></trkpt><trkpt lat="43.7530583" lon="12.8983567"><ele>142.0</ele><time>2026-04-12T09:42:31.234Z</time></trkpt><trkpt lat="43.7529367" lon="12.8983367"><ele>142.0</ele><time>2026-04-12T09:42:32.235Z</time></trkpt><trkpt lat="43.7528333" lon="12.8982767"><ele>142.0</ele><time>2026-04-12T09:42:33.234Z</time></trkpt><trkpt lat="43.752755" lon="12.8982017"><ele>142.0</ele><time>2026-04-12T09:42:34.235Z</time></trkpt><trkpt lat="43.7527" lon="12.8980967"><ele>142.0</ele><time>2026-04-12T09:42:35.235Z</time></trkpt><trkpt lat="43.7526633" lon="12.89799"><ele>142.0</ele><time>2026-04-12T09:42:36.235Z</time></trkpt><trkpt lat="43.7526433" lon="12.8978833"><ele>142.0</ele><time>2026-04-12T09:42:37.235Z</time></trkpt><trkpt lat="43.7526683" lon="12.8977533"><ele>142.0</ele><time>2026-04-12T09:42:38.235Z</time></trkpt><trkpt lat="43.7527267" lon="12.8976233"><ele>142.0</ele><time>2026-04-12T09:42:39.234Z</time></trkpt><trkpt lat="43.7527883" lon="12.8975067"><ele>142.0</ele><time>2026-04-12T09:42:40.234Z</time></trkpt><trkpt lat="43.7528917" lon="12.897435"><ele>144.0</ele><time>2026-04-12T09:42:41.235Z</time></trkpt><trkpt lat="43.7529683" lon="12.8973417"><ele>146.0</ele><time>2026-04-12T09:42:42.234Z</time></trkpt><trkpt lat="43.7530433" lon="12.8972733"><ele>148.0</ele><time>2026-04-12T09:42:43.234Z</time></trkpt><trkpt lat="43.7531117" lon="12.8972067"><ele>150.0</ele><time>2026-04-12T09:42:44.234Z</time></trkpt><trkpt lat="43.7531733" lon="12.89714"><ele>152.0</ele><time>2026-04-12T09:42:45.235Z</time></trkpt><trkpt lat="43.7532267" lon="12.8970867"><ele>154.0</ele><time>2026-04-12T09:42:46.235Z</time></trkpt><trkpt lat="43.7532817" lon="12.89704"><ele>154.0</ele><time>2026-04-12T09:42:47.234Z</time></trkpt><trkpt lat="43.7533767" lon="12.89695"><ele>154.0</ele><time>2026-04-12T09:42:49.235Z</time></trkpt><trkpt lat="43.7534567" lon="12.8968633"><ele>154.0</ele><time>2026-04-12T09:42:51.235Z</time></trkpt><trkpt lat="43.7534883" lon="12.8967283"><ele>154.0</ele><time>2026-04-12T09:42:53.235Z</time></trkpt><trkpt lat="43.7535" lon="12.8966383"><ele>154.0</ele><time>2026-04-12T09:42:54.235Z</time></trkpt><trkpt lat="43.7535" lon="12.896545"><ele>153.2</ele><time>2026-04-12T09:42:55.235Z</time></trkpt><trkpt lat="43.75347" lon="12.8964417"><ele>152.4</ele><time>2026-04-12T09:42:56.235Z</time></trkpt><trkpt lat="43.7534283" lon="12.8963383"><ele>151.6</ele><time>2026-04-12T09:42:57.235Z</time></trkpt><trkpt lat="43.7533617" lon="12.896255"><ele>150.8</ele><time>2026-04-12T09:42:58.235Z</time></trkpt><trkpt lat="43.7532683" lon="12.89621"><ele>150.0</ele><time>2026-04-12T09:42:59.235Z</time></trkpt><trkpt lat="43.7531667" lon="12.8961933"><ele>150.0</ele><time>2026-04-12T09:43:00.235Z</time></trkpt><trkpt lat="43.7530567" lon="12.8961933"><ele>150.0</ele><time>2026-04-12T09:43:01.235Z</time></trkpt><trkpt lat="43.752955" lon="12.8961833"><ele>150.0</ele><time>2026-04-12T09:43:02.234Z</time></trkpt><trkpt lat="43.7528417" lon="12.896185"><ele>150.0</ele><time>2026-04-12T09:43:03.235Z</time></trkpt><trkpt lat="43.7527233" lon="12.896185"><ele>150.0</ele><time>2026-04-12T09:43:04.235Z</time></trkpt><trkpt lat="43.7526" lon="12.8961633"><ele>148.75</ele><time>2026-04-12T09:43:05.234Z</time></trkpt><trkpt lat="43.7524717" lon="12.8961367"><ele>147.5</ele><time>2026-04-12T09:43:06.235Z</time></trkpt><trkpt lat="43.7523383" lon="12.8961167"><ele>146.25</ele><time>2026-04-12T09:43:07.235Z</time></trkpt><trkpt lat="43.7522017" lon="12.8961033"><ele>145.0</ele><time>2026-04-12T09:43:08.235Z</time></trkpt><trkpt lat="43.7520633" lon="12.8960917"><ele>145.0</ele><time>2026-04-12T09:43:09.235Z</time></trkpt><trkpt lat="43.7519217" lon="12.8960933"><ele>145.0</ele><time>2026-04-12T09:43:10.235Z</time></trkpt><trkpt lat="43.75177" lon="12.8960933"><ele>145.0</ele><time>2026-04-12T09:43:11.234Z</time></trkpt><trkpt lat="43.7516267" lon="12.896105"><ele>145.0</ele><time>2026-04-12T09:43:12.235Z</time></trkpt><trkpt lat="43.7514883" lon="12.8961083"><ele>144.75</ele><time>2026-04-12T09:43:13.234Z</time></trkpt><trkpt lat="43.7513483" lon="12.89613"><ele>144.5</ele><time>2026-04-12T09:43:14.234Z</time></trkpt><trkpt lat="43.751205" lon="12.89614"><ele>144.25</ele><time>2026-04-12T09:43:15.234Z</time></trkpt><trkpt lat="43.7510617" lon="12.8961433"><ele>144.0</ele><time>2026-04-12T09:43:16.235Z</time></trkpt><trkpt lat="43.7509183" lon="12.896155"><ele>146.5</ele><time>2026-04-12T09:43:17.235Z</time></trkpt><trkpt lat="43.7507833" lon="12.89616"><ele>149.0</ele><time>2026-04-12T09:43:18.234Z</time></trkpt><trkpt lat="43.7506467" lon="12.896155"><ele>151.5</ele><time>2026-04-12T09:43:19.235Z</time></trkpt><trkpt lat="43.7505167" lon="12.8961367"><ele>154.0</ele><time>2026-04-12T09:43:20.235Z</time></trkpt><trkpt lat="43.7503983" lon="12.8960967"><ele>154.0</ele><time>2026-04-12T09:43:21.235Z</time></trkpt><trkpt lat="43.7502917" lon="12.8960267"><ele>154.0</ele><time>2026-04-12T09:43:22.235Z</time></trkpt><trkpt lat="43.7502" lon="12.8959283"><ele>154.0</ele><time>2026-04-12T09:43:23.235Z</time></trkpt><trkpt lat="43.7501233" lon="12.8957867"><ele>154.0</ele><time>2026-04-12T09:43:24.235Z</time></trkpt><trkpt lat="43.750075" lon="12.895635"><ele>157.75</ele><time>2026-04-12T09:43:25.234Z</time></trkpt><trkpt lat="43.7500633" lon="12.8954567"><ele>161.5</ele><time>2026-04-12T09:43:26.235Z</time></trkpt><trkpt lat="43.7500783" lon="12.8952767"><ele>165.25</ele><time>2026-04-12T09:43:27.234Z</time></trkpt><trkpt lat="43.7501267" lon="12.8951083"><ele>169.0</ele><time>2026-04-12T09:43:28.235Z</time></trkpt><trkpt lat="43.7502017" lon="12.8949517"><ele>170.25</ele><time>2026-04-12T09:43:29.234Z</time></trkpt><trkpt lat="43.750305" lon="12.8948383"><ele>171.5</ele><time>2026-04-12T09:43:30.234Z</time></trkpt><trkpt lat="43.7504317" lon="12.8947433"><ele>172.75</ele><time>2026-04-12T09:43:31.234Z</time></trkpt><trkpt lat="43.7505833" lon="12.894675"><ele>174.0</ele><time>2026-04-12T09:43:32.235Z</time></trkpt><trkpt lat="43.750735" lon="12.894615"><ele>174.0</ele><time>2026-04-12T09:43:33.235Z</time></trkpt><trkpt lat="43.7508817" lon="12.8945417"><ele>174.0</ele><time>2026-04-12T09:43:34.235Z</time></trkpt><trkpt lat="43.7510167" lon="12.894455"><ele>174.0</ele><time>2026-04-12T09:43:35.235Z</time></trkpt><trkpt lat="43.7511383" lon="12.894335"><ele>178.0</ele><time>2026-04-12T09:43:36.235Z</time></trkpt><trkpt lat="43.75123" lon="12.8941717"><ele>182.0</ele><time>2026-04-12T09:43:37.235Z</time></trkpt><trkpt lat="43.7512967" lon="12.89398"><ele>186.0</ele><time>2026-04-12T09:43:38.235Z</time></trkpt><trkpt lat="43.75134" lon="12.8937783"><ele>186.0</ele><time>2026-04-12T09:43:39.235Z</time></trkpt><trkpt lat="43.7513617" lon="12.8935833"><ele>186.0</ele><time>2026-04-12T09:43:40.234Z</time></trkpt><trkpt lat="43.75136" lon="12.893385"><ele>186.0</ele><time>2026-04-12T09:43:41.235Z</time></trkpt><trkpt lat="43.7513433" lon="12.8931817"><ele>186.0</ele><time>2026-04-12T09:43:42.235Z</time></trkpt><trkpt lat="43.7513267" lon="12.8929767"><ele>187.25</ele><time>2026-04-12T09:43:43.235Z</time></trkpt><trkpt lat="43.7513083" lon="12.8927883"><ele>188.5</ele><time>2026-04-12T09:43:44.235Z</time></trkpt><trkpt lat="43.751295" lon="12.8926017"><ele>189.75</ele><time>2026-04-12T09:43:45.235Z</time></trkpt><trkpt lat="43.7513" lon="12.8924217"><ele>191.0</ele><time>2026-04-12T09:43:46.234Z</time></trkpt><trkpt lat="43.7513317" lon="12.8922417"><ele>191.25</ele><time>2026-04-12T09:43:47.235Z</time></trkpt><trkpt lat="43.75139" lon="12.892075"><ele>191.5</ele><time>2026-04-12T09:43:48.234Z</time></trkpt><trkpt lat="43.7514867" lon="12.89192"><ele>191.75</ele><time>2026-04-12T09:43:49.234Z</time></trkpt><trkpt lat="43.7516167" lon="12.89181"><ele>192.0</ele><time>2026-04-12T09:43:50.234Z</time></trkpt><trkpt lat="43.751755" lon="12.8917233"><ele>192.75</ele><time>2026-04-12T09:43:51.235Z</time></trkpt><trkpt lat="43.7519" lon="12.8916617"><ele>193.5</ele><time>2026-04-12T09:43:52.234Z</time></trkpt><trkpt lat="43.75204" lon="12.89161"><ele>194.25</ele><time>2026-04-12T09:43:53.234Z</time></trkpt><trkpt lat="43.7521883" lon="12.891575"><ele>195.0</ele><time>2026-04-12T09:43:54.234Z</time></trkpt><trkpt lat="43.7523467" lon="12.891555"><ele>195.0</ele><time>2026-04-12T09:43:55.235Z</time></trkpt><trkpt lat="43.7525033" lon="12.8915483"><ele>195.0</ele><time>2026-04-12T09:43:56.235Z</time></trkpt><trkpt lat="43.75265" lon="12.8915467"><ele>195.0</ele><time>2026-04-12T09:43:57.234Z</time></trkpt><trkpt lat="43.752795" lon="12.8915367"><ele>195.0</ele><time>2026-04-12T09:43:58.235Z</time></trkpt><trkpt lat="43.75295" lon="12.891535"><ele>196.75</ele><time>2026-04-12T09:43:59.235Z</time></trkpt><trkpt lat="43.753105" lon="12.8915283"><ele>198.5</ele><time>2026-04-12T09:44:00.234Z</time></trkpt><trkpt lat="43.7532417" lon="12.8915083"><ele>200.25</ele><time>2026-04-12T09:44:01.235Z</time></trkpt><trkpt lat="43.7533767" lon="12.8914833"><ele>202.0</ele><time>2026-04-12T09:44:02.235Z</time></trkpt><trkpt lat="43.7535033" lon="12.891415"><ele>205.25</ele><time>2026-04-12T09:44:03.235Z</time></trkpt><trkpt lat="43.7536017" lon="12.8912733"><ele>208.5</ele><time>2026-04-12T09:44:04.234Z</time></trkpt><trkpt lat="43.75366" lon="12.89109"><ele>211.75</ele><time>2026-04-12T09:44:05.235Z</time></trkpt><trkpt lat="43.7536733" lon="12.8909067"><ele>215.0</ele><time>2026-04-12T09:44:06.234Z</time></trkpt><trkpt lat="43.753645" lon="12.8907333"><ele>215.0</ele><time>2026-04-12T09:44:07.235Z</time></trkpt><trkpt lat="43.7536133" lon="12.8905667"><ele>215.0</ele><time>2026-04-12T09:44:08.234Z</time></trkpt><trkpt lat="43.75359" lon="12.8904067"><ele>215.0</ele><time>2026-04-12T09:44:09.235Z</time></trkpt><trkpt lat="43.7535917" lon="12.8902367"><ele>215.0</ele><time>2026-04-12T09:44:10.234Z</time></trkpt><trkpt lat="43.7536217" lon="12.8900867"><ele>213.5</ele><time>2026-04-12T09:44:11.234Z</time></trkpt><trkpt lat="43.7536983" lon="12.889955"><ele>212.0</ele><time>2026-04-12T09:44:12.234Z</time></trkpt><trkpt lat="43.7538033" lon="12.889875"><ele>210.5</ele><time>2026-04-12T09:44:13.235Z</time></trkpt><trkpt lat="43.7539183" lon="12.88984"><ele>209.0</ele><time>2026-04-12T09:44:14.234Z</time></trkpt><trkpt lat="43.754045" lon="12.88984"><ele>209.0</ele><time>2026-04-12T09:44:15.234Z</time></trkpt><trkpt lat="43.7541783" lon="12.8898483"><ele>209.0</ele><time>2026-04-12T09:44:16.235Z</time></trkpt><trkpt lat="43.7543133" lon="12.8898483"><ele>209.0</ele><time>2026-04-12T09:44:17.235Z</time></trkpt><trkpt lat="43.7544483" lon="12.8898417"><ele>209.0</ele><time>2026-04-12T09:44:18.235Z</time></trkpt><trkpt lat="43.754575" lon="12.8898167"><ele>212.0</ele><time>2026-04-12T09:44:19.235Z</time></trkpt><trkpt lat="43.754695" lon="12.889755"><ele>215.0</ele><time>2026-04-12T09:44:20.234Z</time></trkpt><trkpt lat="43.7548017" lon="12.8896433"><ele>218.0</ele><time>2026-04-12T09:44:21.234Z</time></trkpt><trkpt lat="43.754885" lon="12.8894833"><ele>221.0</ele><time>2026-04-12T09:44:22.235Z</time></trkpt><trkpt lat="43.75493" lon="12.8893017"><ele>218.75</ele><time>2026-04-12T09:44:23.235Z</time></trkpt><trkpt lat="43.7549467" lon="12.8891117"><ele>216.5</ele><time>2026-04-12T09:44:24.234Z</time></trkpt><trkpt lat="43.754985" lon="12.8889367"><ele>214.25</ele><time>2026-04-12T09:44:25.234Z</time></trkpt><trkpt lat="43.7550433" lon="12.88878"><ele>212.0</ele><time>2026-04-12T09:44:26.234Z</time></trkpt><trkpt lat="43.7551283" lon="12.8886533"><ele>215.75</ele><time>2026-04-12T09:44:27.235Z</time></trkpt><trkpt lat="43.7552383" lon="12.8885717"><ele>219.5</ele><time>2026-04-12T09:44:28.235Z</time></trkpt><trkpt lat="43.7553717" lon="12.8885367"><ele>223.25</ele><time>2026-04-12T09:44:29.234Z</time></trkpt><trkpt lat="43.7555067" lon="12.888535"><ele>227.0</ele><time>2026-04-12T09:44:30.235Z</time></trkpt><trkpt lat="43.7556517" lon="12.8885267"><ele>227.0</ele><time>2026-04-12T09:44:31.235Z</time></trkpt><trkpt lat="43.755795" lon="12.8885133"><ele>227.0</ele><time>2026-04-12T09:44:32.235Z</time></trkpt><trkpt lat="43.7559367" lon="12.8884917"><ele>227.0</ele><time>2026-04-12T09:44:33.234Z</time></trkpt><trkpt lat="43.7560833" lon="12.88847"><ele>227.0</ele><time>2026-04-12T09:44:34.235Z</time></trkpt><trkpt lat="43.7562283" lon="12.8884533"><ele>229.0</ele><time>2026-04-12T09:44:35.234Z</time></trkpt><trkpt lat="43.7563617" lon="12.8884383"><ele>231.0</ele><time>2026-04-12T09:44:36.235Z</time></trkpt><trkpt lat="43.7565033" lon="12.8884167"><ele>233.0</ele><time>2026-04-12T09:44:37.235Z</time></trkpt><trkpt lat="43.7566383" lon="12.8884083"><ele>235.0</ele><time>2026-04-12T09:44:38.235Z</time></trkpt><trkpt lat="43.7567717" lon="12.8883917"><ele>230.75</ele><time>2026-04-12T09:44:39.234Z</time></trkpt><trkpt lat="43.756895" lon="12.88837"><ele>226.5</ele><time>2026-04-12T09:44:40.235Z</time></trkpt><trkpt lat="43.7570183" lon="12.8883433"><ele>222.25</ele><time>2026-04-12T09:44:41.235Z</time></trkpt><trkpt lat="43.7571383" lon="12.888295"><ele>218.0</ele><time>2026-04-12T09:44:42.234Z</time></trkpt><trkpt lat="43.7572533" lon="12.8882183"><ele>218.0</ele><time>2026-04-12T09:44:43.234Z</time></trkpt><trkpt lat="43.7573517" lon="12.8880983"><ele>218.0</ele><time>2026-04-12T09:44:44.235Z</time></trkpt><trkpt lat="43.7574167" lon="12.8879483"><ele>218.0</ele><time>2026-04-12T09:44:45.235Z</time></trkpt><trkpt lat="43.7574417" lon="12.8877717"><ele>218.0</ele><time>2026-04-12T09:44:46.235Z</time></trkpt><trkpt lat="43.7574467" lon="12.887585"><ele>218.5</ele><time>2026-04-12T09:44:47.235Z</time></trkpt><trkpt lat="43.7574183" lon="12.88741"><ele>219.0</ele><time>2026-04-12T09:44:48.234Z</time></trkpt><trkpt lat="43.75737" lon="12.88725"><ele>219.5</ele><time>2026-04-12T09:44:49.235Z</time></trkpt><trkpt lat="43.7573183" lon="12.8870967"><ele>220.0</ele><time>2026-04-12T09:44:50.234Z</time></trkpt><trkpt lat="43.75727" lon="12.8869517"><ele>220.0</ele><time>2026-04-12T09:44:51.235Z</time></trkpt><trkpt lat="43.7572217" lon="12.8867983"><ele>220.0</ele><time>2026-04-12T09:44:52.234Z</time></trkpt><trkpt lat="43.7571967" lon="12.8866733"><ele>220.0</ele><time>2026-04-12T09:44:53.235Z</time></trkpt><trkpt lat="43.757135" lon="12.88652"><ele>220.0</ele><time>2026-04-12T09:44:54.235Z</time></trkpt><trkpt lat="43.7570783" lon="12.8863717"><ele>220.6</ele><time>2026-04-12T09:44:55.235Z</time></trkpt><trkpt lat="43.7570367" lon="12.8862133"><ele>221.2</ele><time>2026-04-12T09:44:56.235Z</time></trkpt><trkpt lat="43.75703" lon="12.8860667"><ele>221.8</ele><time>2026-04-12T09:44:57.235Z</time></trkpt><trkpt lat="43.757055" lon="12.8859283"><ele>222.4</ele><time>2026-04-12T09:44:58.235Z</time></trkpt><trkpt lat="43.7571167" lon="12.8857967"><ele>223.0</ele><time>2026-04-12T09:44:59.235Z</time></trkpt><trkpt lat="43.757215" lon="12.8857083"><ele>221.5</ele><time>2026-04-12T09:45:00.235Z</time></trkpt><trkpt lat="43.7573367" lon="12.88567"><ele>220.0</ele><time>2026-04-12T09:45:01.235Z</time></trkpt><trkpt lat="43.7574767" lon="12.8856817"><ele>218.5</ele><time>2026-04-12T09:45:02.235Z</time></trkpt><trkpt lat="43.757605" lon="12.8857133"><ele>217.0</ele><time>2026-04-12T09:45:03.235Z</time></trkpt><trkpt lat="43.75773" lon="12.8857533"><ele>215.75</ele><time>2026-04-12T09:45:04.235Z</time></trkpt><trkpt lat="43.75785" lon="12.8857983"><ele>214.5</ele><time>2026-04-12T09:45:05.235Z</time></trkpt><trkpt lat="43.7579667" lon="12.885845"><ele>213.25</ele><time>2026-04-12T09:45:06.235Z</time></trkpt><trkpt lat="43.7580867" lon="12.8859"><ele>212.0</ele><time>2026-04-12T09:45:07.235Z</time></trkpt><trkpt lat="43.75821" lon="12.8859517"><ele>212.25</ele><time>2026-04-12T09:45:08.235Z</time></trkpt><trkpt lat="43.7583317" lon="12.8860333"><ele>212.5</ele><time>2026-04-12T09:45:09.234Z</time></trkpt><trkpt lat="43.7584583" lon="12.8861383"><ele>212.75</ele><time>2026-04-12T09:45:10.235Z</time></trkpt><trkpt lat="43.7585633" lon="12.8862417"><ele>213.0</ele><time>2026-04-12T09:45:11.234Z</time></trkpt><trkpt lat="43.75866" lon="12.8863667"><ele>213.0</ele><time>2026-04-12T09:45:12.235Z</time></trkpt><trkpt lat="43.7587533" lon="12.8864967"><ele>213.0</ele><time>2026-04-12T09:45:13.234Z</time></trkpt><trkpt lat="43.7588417" lon="12.8866283"><ele>213.0</ele><time>2026-04-12T09:45:14.235Z</time></trkpt><trkpt lat="43.7589283" lon="12.8867633"><ele>213.0</ele><time>2026-04-12T09:45:15.235Z</time></trkpt><trkpt lat="43.7589933" lon="12.8869083"><ele>215.75</ele><time>2026-04-12T09:45:16.234Z</time></trkpt><trkpt lat="43.7590667" lon="12.887055"><ele>218.5</ele><time>2026-04-12T09:45:17.235Z</time></trkpt><trkpt lat="43.75914" lon="12.8872167"><ele>221.25</ele><time>2026-04-12T09:45:18.235Z</time></trkpt><trkpt lat="43.75921" lon="12.8873783"><ele>224.0</ele><time>2026-04-12T09:45:19.234Z</time></trkpt><trkpt lat="43.75928" lon="12.8875467"><ele>226.0</ele><time>2026-04-12T09:45:20.234Z</time></trkpt><trkpt lat="43.75934" lon="12.8877167"><ele>228.0</ele><time>2026-04-12T09:45:21.235Z</time></trkpt><trkpt lat="43.7593983" lon="12.8879017"><ele>230.0</ele><time>2026-04-12T09:45:22.234Z</time></trkpt><trkpt lat="43.7594533" lon="12.888075"><ele>232.0</ele><time>2026-04-12T09:45:23.235Z</time></trkpt><trkpt lat="43.7595133" lon="12.88824"><ele>229.5</ele><time>2026-04-12T09:45:24.234Z</time></trkpt><trkpt lat="43.7595717" lon="12.8884"><ele>227.0</ele><time>2026-04-12T09:45:25.235Z</time></trkpt><trkpt lat="43.7596317" lon="12.8885633"><ele>224.5</ele><time>2026-04-12T09:45:26.235Z</time></trkpt><trkpt lat="43.759705" lon="12.8887217"><ele>222.0</ele><time>2026-04-12T09:45:27.235Z</time></trkpt><trkpt lat="43.7597883" lon="12.8888667"><ele>222.0</ele><time>2026-04-12T09:45:28.235Z</time></trkpt><trkpt lat="43.759885" lon="12.888995"><ele>222.0</ele><time>2026-04-12T09:45:29.235Z</time></trkpt><trkpt lat="43.75999" lon="12.889095"><ele>222.0</ele><time>2026-04-12T09:45:30.235Z</time></trkpt><trkpt lat="43.7601067" lon="12.8891667"><ele>222.0</ele><time>2026-04-12T09:45:31.234Z</time></trkpt><trkpt lat="43.760235" lon="12.889215"><ele>222.75</ele><time>2026-04-12T09:45:32.234Z</time></trkpt><trkpt lat="43.7603617" lon="12.8892317"><ele>223.5</ele><time>2026-04-12T09:45:33.234Z</time></trkpt><trkpt lat="43.76049" lon="12.8892133"><ele>224.25</ele><time>2026-04-12T09:45:34.235Z</time></trkpt><trkpt lat="43.7606217" lon="12.8891817"><ele>225.0</ele><time>2026-04-12T09:45:35.235Z</time></trkpt><trkpt lat="43.760745" lon="12.8891217"><ele>225.0</ele><time>2026-04-12T09:45:36.235Z</time></trkpt><trkpt lat="43.760865" lon="12.8890383"><ele>225.0</ele><time>2026-04-12T09:45:37.234Z</time></trkpt><trkpt lat="43.7609767" lon="12.8889433"><ele>225.0</ele><time>2026-04-12T09:45:38.234Z</time></trkpt><trkpt lat="43.7610767" lon="12.8888367"><ele>225.0</ele><time>2026-04-12T09:45:39.234Z</time></trkpt><trkpt lat="43.7611683" lon="12.8887133"><ele>225.25</ele><time>2026-04-12T09:45:40.235Z</time></trkpt><trkpt lat="43.7612617" lon="12.8885817"><ele>225.5</ele><time>2026-04-12T09:45:41.235Z</time></trkpt><trkpt lat="43.761355" lon="12.888435"><ele>225.75</ele><time>2026-04-12T09:45:42.235Z</time></trkpt><trkpt lat="43.76144" lon="12.8882867"><ele>226.0</ele><time>2026-04-12T09:45:43.235Z</time></trkpt><trkpt lat="43.7615183" lon="12.8881467"><ele>226.0</ele><time>2026-04-12T09:45:44.234Z</time></trkpt><trkpt lat="43.7615767" lon="12.88798"><ele>226.0</ele><time>2026-04-12T09:45:45.234Z</time></trkpt><trkpt lat="43.7616167" lon="12.8878483"><ele>226.0</ele><time>2026-04-12T09:45:46.235Z</time></trkpt><trkpt lat="43.7616583" lon="12.8877133"><ele>226.0</ele><time>2026-04-12T09:45:47.235Z</time></trkpt><trkpt lat="43.761715" lon="12.8875867"><ele>226.4</ele><time>2026-04-12T09:45:48.235Z</time></trkpt><trkpt lat="43.7617833" lon="12.8874783"><ele>226.8</ele><time>2026-04-12T09:45:49.234Z</time></trkpt><trkpt lat="43.7618683" lon="12.8874"><ele>227.20000000000002</ele><time>2026-04-12T09:45:50.235Z</time></trkpt><trkpt lat="43.76197" lon="12.8873433"><ele>227.60000000000002</ele><time>2026-04-12T09:45:51.235Z</time></trkpt><trkpt lat="43.76209" lon="12.887325"><ele>228.0</ele><time>2026-04-12T09:45:52.235Z</time></trkpt><trkpt lat="43.7622133" lon="12.88733"><ele>228.0</ele><time>2026-04-12T09:45:53.235Z</time></trkpt><trkpt lat="43.7623367" lon="12.8873433"><ele>228.0</ele><time>2026-04-12T09:45:54.235Z</time></trkpt><trkpt lat="43.762455" lon="12.8873667"><ele>228.0</ele><time>2026-04-12T09:45:55.235Z</time></trkpt><trkpt lat="43.7625633" lon="12.8873833"><ele>228.0</ele><time>2026-04-12T09:45:56.234Z</time></trkpt><trkpt lat="43.76266" lon="12.8873917"><ele>228.0</ele><time>2026-04-12T09:45:57.235Z</time></trkpt><trkpt lat="43.76277" lon="12.8873933"><ele>228.75</ele><time>2026-04-12T09:45:58.234Z</time></trkpt><trkpt lat="43.7628817" lon="12.8873833"><ele>229.5</ele><time>2026-04-12T09:45:59.235Z</time></trkpt><trkpt lat="43.7629883" lon="12.8873233"><ele>230.25</ele><time>2026-04-12T09:46:00.234Z</time></trkpt><trkpt lat="43.7630917" lon="12.8872317"><ele>231.0</ele><time>2026-04-12T09:46:01.235Z</time></trkpt><trkpt lat="43.76317" lon="12.88711"><ele>231.0</ele><time>2026-04-12T09:46:02.234Z</time></trkpt><trkpt lat="43.7632233" lon="12.8869683"><ele>231.0</ele><time>2026-04-12T09:46:03.235Z</time></trkpt><trkpt lat="43.7632683" lon="12.886815"><ele>231.0</ele><time>2026-04-12T09:46:04.235Z</time></trkpt><trkpt lat="43.763305" lon="12.886665"><ele>231.0</ele><time>2026-04-12T09:46:05.234Z</time></trkpt><trkpt lat="43.76334" lon="12.886505"><ele>230.60000000000002</ele><time>2026-04-12T09:46:06.235Z</time></trkpt><trkpt lat="43.7633733" lon="12.8863533"><ele>230.20000000000002</ele><time>2026-04-12T09:46:07.235Z</time></trkpt><trkpt lat="43.7634117" lon="12.886215"><ele>229.79999999999998</ele><time>2026-04-12T09:46:08.235Z</time></trkpt><trkpt lat="43.76344" lon="12.8860933"><ele>229.39999999999998</ele><time>2026-04-12T09:46:09.235Z</time></trkpt><trkpt lat="43.7634633" lon="12.885995"><ele>229.0</ele><time>2026-04-12T09:46:10.235Z</time></trkpt><trkpt lat="43.7634917" lon="12.8859067"><ele>228.79999999999998</ele><time>2026-04-12T09:46:11.235Z</time></trkpt><trkpt lat="43.7635283" lon="12.8858133"><ele>228.59999999999997</ele><time>2026-04-12T09:46:12.235Z</time></trkpt><trkpt lat="43.76357" lon="12.885705"><ele>228.4</ele><time>2026-04-12T09:46:13.235Z</time></trkpt><trkpt lat="43.76362" lon="12.8855917"><ele>228.2</ele><time>2026-04-12T09:46:14.235Z</time></trkpt><trkpt lat="43.7636767" lon="12.8854683"><ele>228.0</ele><time>2026-04-12T09:46:15.234Z</time></trkpt><trkpt lat="43.7637383" lon="12.88534"><ele>228.0</ele><time>2026-04-12T09:46:16.235Z</time></trkpt><trkpt lat="43.763795" lon="12.8852033"><ele>228.0</ele><time>2026-04-12T09:46:17.235Z</time></trkpt><trkpt lat="43.76386" lon="12.8850633"><ele>228.0</ele><time>2026-04-12T09:46:18.235Z</time></trkpt><trkpt lat="43.763925" lon="12.8849283"><ele>228.0</ele><time>2026-04-12T09:46:19.235Z</time></trkpt><trkpt lat="43.7639883" lon="12.8847933"><ele>226.75</ele><time>2026-04-12T09:46:20.235Z</time></trkpt><trkpt lat="43.764045" lon="12.8846683"><ele>225.5</ele><time>2026-04-12T09:46:21.234Z</time></trkpt><trkpt lat="43.76411" lon="12.8845317"><ele>224.25</ele><time>2026-04-12T09:46:22.235Z</time></trkpt><trkpt lat="43.764175" lon="12.8843917"><ele>223.0</ele><time>2026-04-12T09:46:23.235Z</time></trkpt><trkpt lat="43.7642333" lon="12.8842533"><ele>223.0</ele><time>2026-04-12T09:46:24.235Z</time></trkpt><trkpt lat="43.764295" lon="12.884125"><ele>223.0</ele><time>2026-04-12T09:46:25.235Z</time></trkpt><trkpt lat="43.7643567" lon="12.8839983"><ele>223.0</ele><time>2026-04-12T09:46:26.235Z</time></trkpt><trkpt lat="43.76442" lon="12.88388"><ele>223.0</ele><time>2026-04-12T09:46:27.235Z</time></trkpt><trkpt lat="43.7644767" lon="12.8837533"><ele>223.0</ele><time>2026-04-12T09:46:28.235Z</time></trkpt><trkpt lat="43.76454" lon="12.8836283"><ele>221.5</ele><time>2026-04-12T09:46:29.235Z</time></trkpt><trkpt lat="43.764595" lon="12.8834667"><ele>220.0</ele><time>2026-04-12T09:46:30.234Z</time></trkpt><trkpt lat="43.7646583" lon="12.8833167"><ele>218.5</ele><time>2026-04-12T09:46:31.234Z</time></trkpt><trkpt lat="43.7647167" lon="12.8831483"><ele>217.0</ele><time>2026-04-12T09:46:32.235Z</time></trkpt><trkpt lat="43.7647867" lon="12.8829717"><ele>217.0</ele><time>2026-04-12T09:46:33.235Z</time></trkpt><trkpt lat="43.76485" lon="12.88279"><ele>217.0</ele><time>2026-04-12T09:46:34.234Z</time></trkpt><trkpt lat="43.7649233" lon="12.8826117"><ele>217.0</ele><time>2026-04-12T09:46:35.234Z</time></trkpt><trkpt lat="43.7649917" lon="12.8824283"><ele>217.0</ele><time>2026-04-12T09:46:36.235Z</time></trkpt><trkpt lat="43.7650617" lon="12.882245"><ele>218.25</ele><time>2026-04-12T09:46:37.235Z</time></trkpt><trkpt lat="43.7651367" lon="12.8820717"><ele>219.5</ele><time>2026-04-12T09:46:38.235Z</time></trkpt><trkpt lat="43.7652317" lon="12.8819167"><ele>220.75</ele><time>2026-04-12T09:46:39.235Z</time></trkpt><trkpt lat="43.7653233" lon="12.8817733"><ele>222.0</ele><time>2026-04-12T09:46:40.234Z</time></trkpt><trkpt lat="43.7654117" lon="12.881635"><ele>222.0</ele><time>2026-04-12T09:46:41.234Z</time></trkpt><trkpt lat="43.7654967" lon="12.8815"><ele>222.0</ele><time>2026-04-12T09:46:42.235Z</time></trkpt><trkpt lat="43.7655867" lon="12.8813733"><ele>222.0</ele><time>2026-04-12T09:46:43.235Z</time></trkpt><trkpt lat="43.7656817" lon="12.8812733"><ele>222.0</ele><time>2026-04-12T09:46:44.234Z</time></trkpt><trkpt lat="43.7657833" lon="12.88121"><ele>222.0</ele><time>2026-04-12T09:46:45.235Z</time></trkpt><trkpt lat="43.7658933" lon="12.8811883"><ele>222.0</ele><time>2026-04-12T09:46:46.234Z</time></trkpt><trkpt lat="43.766005" lon="12.8811867"><ele>222.0</ele><time>2026-04-12T09:46:47.235Z</time></trkpt><trkpt lat="43.76612" lon="12.88121"><ele>222.0</ele><time>2026-04-12T09:46:48.234Z</time></trkpt><trkpt lat="43.7662467" lon="12.8812483"><ele>221.75</ele><time>2026-04-12T09:46:49.234Z</time></trkpt><trkpt lat="43.766375" lon="12.88128"><ele>221.5</ele><time>2026-04-12T09:46:50.235Z</time></trkpt><trkpt lat="43.7665067" lon="12.8813433"><ele>221.25</ele><time>2026-04-12T09:46:51.234Z</time></trkpt><trkpt lat="43.76665" lon="12.881385"><ele>221.0</ele><time>2026-04-12T09:46:52.235Z</time></trkpt><trkpt lat="43.7667967" lon="12.8814117"><ele>222.25</ele><time>2026-04-12T09:46:53.235Z</time></trkpt><trkpt lat="43.766935" lon="12.8814283"><ele>223.5</ele><time>2026-04-12T09:46:54.235Z</time></trkpt><trkpt lat="43.7670667" lon="12.8814533"><ele>224.75</ele><time>2026-04-12T09:46:55.235Z</time></trkpt><trkpt lat="43.7672017" lon="12.8814767"><ele>226.0</ele><time>2026-04-12T09:46:56.235Z</time></trkpt><trkpt lat="43.7673267" lon="12.8815117"><ele>226.0</ele><time>2026-04-12T09:46:57.234Z</time></trkpt><trkpt lat="43.7674533" lon="12.88154"><ele>226.0</ele><time>2026-04-12T09:46:58.235Z</time></trkpt><trkpt lat="43.7675883" lon="12.8815517"><ele>226.0</ele><time>2026-04-12T09:46:59.235Z</time></trkpt><trkpt lat="43.7677183" lon="12.8815383"><ele>226.0</ele><time>2026-04-12T09:47:00.235Z</time></trkpt><trkpt lat="43.76785" lon="12.881515"><ele>227.25</ele><time>2026-04-12T09:47:01.234Z</time></trkpt><trkpt lat="43.767975" lon="12.8814717"><ele>228.5</ele><time>2026-04-12T09:47:02.234Z</time></trkpt><trkpt lat="43.76809" lon="12.8814433"><ele>229.75</ele><time>2026-04-12T09:47:03.234Z</time></trkpt><trkpt lat="43.7682133" lon="12.8814017"><ele>231.0</ele><time>2026-04-12T09:47:04.235Z</time></trkpt><trkpt lat="43.7683267" lon="12.8813633"><ele>231.0</ele><time>2026-04-12T09:47:05.234Z</time></trkpt><trkpt lat="43.7684283" lon="12.8813033"><ele>231.00000000000003</ele><time>2026-04-12T09:47:06.235Z</time></trkpt><trkpt lat="43.7685033" lon="12.8812233"><ele>231.00000000000003</ele><time>2026-04-12T09:47:07.234Z</time></trkpt><trkpt lat="43.7685383" lon="12.8811033"><ele>231.0</ele><time>2026-04-12T09:47:08.234Z</time></trkpt><trkpt lat="43.7685383" lon="12.8809783"><ele>231.0</ele><time>2026-04-12T09:47:09.235Z</time></trkpt><trkpt lat="43.76851" lon="12.8808467"><ele>231.60000000000002</ele><time>2026-04-12T09:47:10.235Z</time></trkpt><trkpt lat="43.768465" lon="12.8807267"><ele>232.20000000000002</ele><time>2026-04-12T09:47:11.235Z</time></trkpt><trkpt lat="43.7683967" lon="12.880635"><ele>232.79999999999998</ele><time>2026-04-12T09:47:12.235Z</time></trkpt><trkpt lat="43.76832" lon="12.880585"><ele>233.39999999999998</ele><time>2026-04-12T09:47:13.235Z</time></trkpt><trkpt lat="43.7682183" lon="12.8805867"><ele>234.0</ele><time>2026-04-12T09:47:14.235Z</time></trkpt><trkpt lat="43.7681117" lon="12.8806333"><ele>234.0</ele><time>2026-04-12T09:47:15.235Z</time></trkpt><trkpt lat="43.7680183" lon="12.8807233"><ele>234.0</ele><time>2026-04-12T09:47:16.234Z</time></trkpt><trkpt lat="43.767935" lon="12.8808367"><ele>234.0</ele><time>2026-04-12T09:47:17.234Z</time></trkpt><trkpt lat="43.7678583" lon="12.8809767"><ele>234.0</ele><time>2026-04-12T09:47:18.234Z</time></trkpt><trkpt lat="43.7677783" lon="12.8811"><ele>232.39999999999998</ele><time>2026-04-12T09:47:19.235Z</time></trkpt><trkpt lat="43.7676933" lon="12.8811833"><ele>230.79999999999998</ele><time>2026-04-12T09:47:20.235Z</time></trkpt><trkpt lat="43.767605" lon="12.8812433"><ele>229.20000000000002</ele><time>2026-04-12T09:47:21.234Z</time></trkpt><trkpt lat="43.76751" lon="12.88127"><ele>227.60000000000002</ele><time>2026-04-12T09:47:22.234Z</time></trkpt><trkpt lat="43.767405" lon="12.8812417"><ele>226.0</ele><time>2026-04-12T09:47:23.235Z</time></trkpt><trkpt lat="43.7673" lon="12.8811767"><ele>226.0</ele><time>2026-04-12T09:47:24.235Z</time></trkpt><trkpt lat="43.7672167" lon="12.8810717"><ele>226.0</ele><time>2026-04-12T09:47:25.234Z</time></trkpt><trkpt lat="43.7671217" lon="12.88093"><ele>226.0</ele><time>2026-04-12T09:47:26.235Z</time></trkpt><trkpt lat="43.7670133" lon="12.880755"><ele>226.0</ele><time>2026-04-12T09:47:27.235Z</time></trkpt><trkpt lat="43.7668917" lon="12.8805433"><ele>229.33333333333331</ele><time>2026-04-12T09:47:28.235Z</time></trkpt><trkpt lat="43.76678" lon="12.8803433"><ele>232.66666666666669</ele><time>2026-04-12T09:47:29.235Z</time></trkpt><trkpt lat="43.7666833" lon="12.8801617"><ele>236.0</ele><time>2026-04-12T09:47:30.235Z</time></trkpt><trkpt lat="43.7666117" lon="12.8799967"><ele>239.5</ele><time>2026-04-12T09:47:31.235Z</time></trkpt><trkpt lat="43.7665783" lon="12.8798183"><ele>243.0</ele><time>2026-04-12T09:47:32.235Z</time></trkpt><trkpt lat="43.7665883" lon="12.87965"><ele>246.5</ele><time>2026-04-12T09:47:33.235Z</time></trkpt><trkpt lat="43.7666417" lon="12.8794917"><ele>250.0</ele><time>2026-04-12T09:47:34.235Z</time></trkpt><trkpt lat="43.7667333" lon="12.8793467"><ele>249.25</ele><time>2026-04-12T09:47:35.234Z</time></trkpt><trkpt lat="43.76684" lon="12.8791983"><ele>248.5</ele><time>2026-04-12T09:47:36.235Z</time></trkpt><trkpt lat="43.7669217" lon="12.879035"><ele>247.75</ele><time>2026-04-12T09:47:37.235Z</time></trkpt><trkpt lat="43.7669867" lon="12.8788417"><ele>247.0</ele><time>2026-04-12T09:47:38.235Z</time></trkpt><trkpt lat="43.7670167" lon="12.8786267"><ele>248.0</ele><time>2026-04-12T09:47:39.234Z</time></trkpt><trkpt lat="43.7670283" lon="12.8783917"><ele>249.0</ele><time>2026-04-12T09:47:40.235Z</time></trkpt><trkpt lat="43.7670317" lon="12.87815"><ele>250.0</ele><time>2026-04-12T09:47:41.234Z</time></trkpt><trkpt lat="43.7670417" lon="12.87791"><ele>250.0</ele><time>2026-04-12T09:47:42.235Z</time></trkpt><trkpt lat="43.7670433" lon="12.877685"><ele>250.0</ele><time>2026-04-12T09:47:43.235Z</time></trkpt><trkpt lat="43.767025" lon="12.8774633"><ele>250.0</ele><time>2026-04-12T09:47:44.235Z</time></trkpt><trkpt lat="43.76699" lon="12.8772467"><ele>251.0</ele><time>2026-04-12T09:47:45.234Z</time></trkpt><trkpt lat="43.76694" lon="12.87702"><ele>252.0</ele><time>2026-04-12T09:47:46.235Z</time></trkpt><trkpt lat="43.7668767" lon="12.876795"><ele>253.0</ele><time>2026-04-12T09:47:47.234Z</time></trkpt><trkpt lat="43.7668033" lon="12.8765633"><ele>260.0</ele><time>2026-04-12T09:47:48.235Z</time></trkpt><trkpt lat="43.7667133" lon="12.8763267"><ele>267.0</ele><time>2026-04-12T09:47:49.235Z</time></trkpt><trkpt lat="43.76661" lon="12.8760983"><ele>274.0</ele><time>2026-04-12T09:47:50.235Z</time></trkpt><trkpt lat="43.7664933" lon="12.8758667"><ele>274.0</ele><time>2026-04-12T09:47:51.235Z</time></trkpt><trkpt lat="43.7664117" lon="12.87561"><ele>274.0</ele><time>2026-04-12T09:47:52.234Z</time></trkpt><trkpt lat="43.7663417" lon="12.875345"><ele>274.0</ele><time>2026-04-12T09:47:53.235Z</time></trkpt><trkpt lat="43.766275" lon="12.875085"><ele>274.3333333333333</ele><time>2026-04-12T09:47:54.235Z</time></trkpt><trkpt lat="43.7662217" lon="12.8748267"><ele>274.6666666666667</ele><time>2026-04-12T09:47:55.235Z</time></trkpt><trkpt lat="43.7661783" lon="12.8745817"><ele>275.0</ele><time>2026-04-12T09:47:56.235Z</time></trkpt><trkpt lat="43.76614" lon="12.8743517"><ele>276.33333333333337</ele><time>2026-04-12T09:47:57.235Z</time></trkpt><trkpt lat="43.766135" lon="12.8741117"><ele>277.6666666666667</ele><time>2026-04-12T09:47:58.234Z</time></trkpt><trkpt lat="43.766145" lon="12.87387"><ele>279.0</ele><time>2026-04-12T09:47:59.234Z</time></trkpt><trkpt lat="43.7661467" lon="12.8736483"><ele>281.0</ele><time>2026-04-12T09:48:00.235Z</time></trkpt><trkpt lat="43.766155" lon="12.87342"><ele>283.0</ele><time>2026-04-12T09:48:01.235Z</time></trkpt><trkpt lat="43.76615" lon="12.8731867"><ele>285.0</ele><time>2026-04-12T09:48:02.235Z</time></trkpt><trkpt lat="43.7661433" lon="12.872945"><ele>285.0</ele><time>2026-04-12T09:48:03.235Z</time></trkpt><trkpt lat="43.7661267" lon="12.872705"><ele>285.0</ele><time>2026-04-12T09:48:04.235Z</time></trkpt><trkpt lat="43.7661" lon="12.87247"><ele>285.0</ele><time>2026-04-12T09:48:05.234Z</time></trkpt><trkpt lat="43.766075" lon="12.872235"><ele>286.3333333333333</ele><time>2026-04-12T09:48:06.234Z</time></trkpt><trkpt lat="43.766055" lon="12.8719917"><ele>287.66666666666663</ele><time>2026-04-12T09:48:07.235Z</time></trkpt><trkpt lat="43.7660267" lon="12.8717417"><ele>289.0</ele><time>2026-04-12T09:48:08.235Z</time></trkpt><trkpt lat="43.7659983" lon="12.8714817"><ele>292.66666666666663</ele><time>2026-04-12T09:48:09.235Z</time></trkpt><trkpt lat="43.7659867" lon="12.8712317"><ele>296.3333333333333</ele><time>2026-04-12T09:48:10.234Z</time></trkpt><trkpt lat="43.765955" lon="12.87101"><ele>300.0</ele><time>2026-04-12T09:48:11.234Z</time></trkpt><trkpt lat="43.7659417" lon="12.8707967"><ele>300.0</ele><time>2026-04-12T09:48:12.234Z</time></trkpt><trkpt lat="43.76592" lon="12.87059"><ele>300.0</ele><time>2026-04-12T09:48:13.235Z</time></trkpt><trkpt lat="43.7659083" lon="12.87039"><ele>300.0</ele><time>2026-04-12T09:48:14.235Z</time></trkpt><trkpt lat="43.7659267" lon="12.8701817"><ele>300.0</ele><time>2026-04-12T09:48:15.235Z</time></trkpt><trkpt lat="43.7659717" lon="12.869985"><ele>302.0</ele><time>2026-04-12T09:48:16.235Z</time></trkpt><trkpt lat="43.766015" lon="12.869795"><ele>304.0</ele><time>2026-04-12T09:48:17.235Z</time></trkpt><trkpt lat="43.7660683" lon="12.86959"><ele>306.0</ele><time>2026-04-12T09:48:18.234Z</time></trkpt><trkpt lat="43.7661017" lon="12.8693883"><ele>303.5</ele><time>2026-04-12T09:48:19.235Z</time></trkpt><trkpt lat="43.766125" lon="12.8691917"><ele>301.0</ele><time>2026-04-12T09:48:20.235Z</time></trkpt><trkpt lat="43.7661583" lon="12.86899"><ele>298.5</ele><time>2026-04-12T09:48:21.235Z</time></trkpt><trkpt lat="43.766205" lon="12.86881"><ele>296.0</ele><time>2026-04-12T09:48:22.234Z</time></trkpt><trkpt lat="43.7662717" lon="12.868655"><ele>296.0</ele><time>2026-04-12T09:48:23.235Z</time></trkpt><trkpt lat="43.76636" lon="12.8685167"><ele>296.0</ele><time>2026-04-12T09:48:24.234Z</time></trkpt><trkpt lat="43.7664617" lon="12.86839"><ele>296.0</ele><time>2026-04-12T09:48:25.235Z</time></trkpt><trkpt lat="43.766565" lon="12.8682533"><ele>296.0</ele><time>2026-04-12T09:48:26.235Z</time></trkpt><trkpt lat="43.7666717" lon="12.86812"><ele>297.0</ele><time>2026-04-12T09:48:27.234Z</time></trkpt><trkpt lat="43.76679" lon="12.867975"><ele>298.0</ele><time>2026-04-12T09:48:28.234Z</time></trkpt><trkpt lat="43.7669133" lon="12.8678433"><ele>299.0</ele><time>2026-04-12T09:48:29.235Z</time></trkpt><trkpt lat="43.7670633" lon="12.86774"><ele>299.0</ele><time>2026-04-12T09:48:30.234Z</time></trkpt><trkpt lat="43.7672283" lon="12.867665"><ele>299.0</ele><time>2026-04-12T09:48:31.235Z</time></trkpt><trkpt lat="43.767405" lon="12.8675983"><ele>299.0</ele><time>2026-04-12T09:48:32.235Z</time></trkpt><trkpt lat="43.7675833" lon="12.86752"><ele>300.6666666666667</ele><time>2026-04-12T09:48:33.235Z</time></trkpt><trkpt lat="43.76776" lon="12.867435"><ele>302.3333333333333</ele><time>2026-04-12T09:48:34.235Z</time></trkpt><trkpt lat="43.767945" lon="12.8673517"><ele>304.0</ele><time>2026-04-12T09:48:35.235Z</time></trkpt><trkpt lat="43.7681" lon="12.8672667"><ele>304.0</ele><time>2026-04-12T09:48:36.235Z</time></trkpt><trkpt lat="43.76824" lon="12.8671717"><ele>304.0</ele><time>2026-04-12T09:48:37.235Z</time></trkpt><trkpt lat="43.76838" lon="12.8670333"><ele>304.0</ele><time>2026-04-12T09:48:38.234Z</time></trkpt><trkpt lat="43.7685083" lon="12.8668833"><ele>309.66666666666663</ele><time>2026-04-12T09:48:39.235Z</time></trkpt><trkpt lat="43.7686017" lon="12.86671"><ele>315.3333333333333</ele><time>2026-04-12T09:48:40.234Z</time></trkpt><trkpt lat="43.7686717" lon="12.866515"><ele>321.0</ele><time>2026-04-12T09:48:41.235Z</time></trkpt><trkpt lat="43.7687083" lon="12.8663183"><ele>321.0</ele><time>2026-04-12T09:48:42.235Z</time></trkpt><trkpt lat="43.7687" lon="12.8661267"><ele>321.0</ele><time>2026-04-12T09:48:43.235Z</time></trkpt><trkpt lat="43.768655" lon="12.8659467"><ele>321.0</ele><time>2026-04-12T09:48:44.235Z</time></trkpt><trkpt lat="43.76859" lon="12.8657683"><ele>321.0</ele><time>2026-04-12T09:48:45.235Z</time></trkpt><trkpt lat="43.76853" lon="12.86559"><ele>321.5</ele><time>2026-04-12T09:48:46.235Z</time></trkpt><trkpt lat="43.7684967" lon="12.8654017"><ele>322.0</ele><time>2026-04-12T09:48:47.234Z</time></trkpt><trkpt lat="43.7684917" lon="12.8652083"><ele>322.5</ele><time>2026-04-12T09:48:48.235Z</time></trkpt><trkpt lat="43.768505" lon="12.8649967"><ele>323.0</ele><time>2026-04-12T09:48:49.235Z</time></trkpt><trkpt lat="43.7685167" lon="12.8647933"><ele>325.0</ele><time>2026-04-12T09:48:50.235Z</time></trkpt><trkpt lat="43.7685383" lon="12.8646183"><ele>327.0</ele><time>2026-04-12T09:48:51.234Z</time></trkpt><trkpt lat="43.7685717" lon="12.8644533"><ele>329.0</ele><time>2026-04-12T09:48:52.235Z</time></trkpt><trkpt lat="43.7686333" lon="12.8643417"><ele>331.0</ele><time>2026-04-12T09:48:53.235Z</time></trkpt><trkpt lat="43.7687267" lon="12.86427"><ele>331.0</ele><time>2026-04-12T09:48:54.235Z</time></trkpt><trkpt lat="43.7688367" lon="12.8642567"><ele>331.0</ele><time>2026-04-12T09:48:55.235Z</time></trkpt><trkpt lat="43.7689683" lon="12.8642883"><ele>331.0</ele><time>2026-04-12T09:48:56.235Z</time></trkpt><trkpt lat="43.7691083" lon="12.8643167"><ele>331.0</ele><time>2026-04-12T09:48:57.234Z</time></trkpt><trkpt lat="43.7692583" lon="12.86434"><ele>335.3333333333333</ele><time>2026-04-12T09:48:58.235Z</time></trkpt><trkpt lat="43.7694067" lon="12.86433"><ele>339.6666666666667</ele><time>2026-04-12T09:48:59.235Z</time></trkpt><trkpt lat="43.76956" lon="12.8642917"><ele>344.0</ele><time>2026-04-12T09:49:00.234Z</time></trkpt><trkpt lat="43.769715" lon="12.864215"><ele>344.0</ele><time>2026-04-12T09:49:01.235Z</time></trkpt><trkpt lat="43.7698617" lon="12.8641217"><ele>344.0</ele><time>2026-04-12T09:49:02.235Z</time></trkpt><trkpt lat="43.76999" lon="12.864"><ele>344.0</ele><time>2026-04-12T09:49:03.235Z</time></trkpt><trkpt lat="43.7701033" lon="12.8638383"><ele>344.0</ele><time>2026-04-12T09:49:04.235Z</time></trkpt><trkpt lat="43.770185" lon="12.8636567"><ele>344.0</ele><time>2026-04-12T09:49:05.235Z</time></trkpt><trkpt lat="43.7702617" lon="12.8634717"><ele>344.0</ele><time>2026-04-12T09:49:06.234Z</time></trkpt><trkpt lat="43.77034" lon="12.8632983"><ele>345.75</ele><time>2026-04-12T09:49:07.235Z</time></trkpt><trkpt lat="43.770435" lon="12.8631483"><ele>347.5</ele><time>2026-04-12T09:49:08.235Z</time></trkpt><trkpt lat="43.7705483" lon="12.86301"><ele>349.25</ele><time>2026-04-12T09:49:09.235Z</time></trkpt><trkpt lat="43.7706767" lon="12.8629"><ele>351.0</ele><time>2026-04-12T09:49:10.235Z</time></trkpt><trkpt lat="43.7708267" lon="12.8628217"><ele>351.0</ele><time>2026-04-12T09:49:11.234Z</time></trkpt><trkpt lat="43.7709783" lon="12.8627933"><ele>351.0</ele><time>2026-04-12T09:49:12.235Z</time></trkpt><trkpt lat="43.7711317" lon="12.8627783"><ele>351.0</ele><time>2026-04-12T09:49:13.234Z</time></trkpt><trkpt lat="43.77129" lon="12.86274"><ele>350.6666666666667</ele><time>2026-04-12T09:49:14.234Z</time></trkpt><trkpt lat="43.7714367" lon="12.86265"><ele>350.33333333333337</ele><time>2026-04-12T09:49:15.234Z</time></trkpt><trkpt lat="43.7715683" lon="12.8625067"><ele>350.0</ele><time>2026-04-12T09:49:16.234Z</time></trkpt><trkpt lat="43.771695" lon="12.8623317"><ele>350.0</ele><time>2026-04-12T09:49:17.235Z</time></trkpt><trkpt lat="43.7718217" lon="12.862145"><ele>350.0</ele><time>2026-04-12T09:49:18.235Z</time></trkpt><trkpt lat="43.7719433" lon="12.86195"><ele>350.0</ele><time>2026-04-12T09:49:19.235Z</time></trkpt><trkpt lat="43.7720767" lon="12.861745"><ele>350.33333333333337</ele><time>2026-04-12T09:49:20.234Z</time></trkpt><trkpt lat="43.7722117" lon="12.86154"><ele>350.6666666666667</ele><time>2026-04-12T09:49:21.235Z</time></trkpt><trkpt lat="43.77234" lon="12.86133"><ele>351.0</ele><time>2026-04-12T09:49:22.235Z</time></trkpt><trkpt lat="43.772455" lon="12.8611233"><ele>348.6666666666667</ele><time>2026-04-12T09:49:23.235Z</time></trkpt><trkpt lat="43.7725717" lon="12.860915"><ele>346.33333333333337</ele><time>2026-04-12T09:49:24.235Z</time></trkpt><trkpt lat="43.7726717" lon="12.8607117"><ele>344.0</ele><time>2026-04-12T09:49:25.234Z</time></trkpt><trkpt lat="43.7727667" lon="12.86051"><ele>343.6666666666667</ele><time>2026-04-12T09:49:26.235Z</time></trkpt><trkpt lat="43.77285" lon="12.8603067"><ele>343.3333333333333</ele><time>2026-04-12T09:49:27.234Z</time></trkpt><trkpt lat="43.7729167" lon="12.8600817"><ele>343.0</ele><time>2026-04-12T09:49:28.235Z</time></trkpt><trkpt lat="43.7729717" lon="12.8598467"><ele>343.0</ele><time>2026-04-12T09:49:29.235Z</time></trkpt><trkpt lat="43.773" lon="12.859595"><ele>343.0</ele><time>2026-04-12T09:49:30.235Z</time></trkpt><trkpt lat="43.7730067" lon="12.85934"><ele>343.0</ele><time>2026-04-12T09:49:31.235Z</time></trkpt><trkpt lat="43.7730167" lon="12.8590867"><ele>343.0</ele><time>2026-04-12T09:49:32.235Z</time></trkpt><trkpt lat="43.773025" lon="12.8588267"><ele>343.0</ele><time>2026-04-12T09:49:33.235Z</time></trkpt><trkpt lat="43.7730333" lon="12.858565"><ele>343.0</ele><time>2026-04-12T09:49:34.235Z</time></trkpt><trkpt lat="43.7730433" lon="12.8582917"><ele>343.0</ele><time>2026-04-12T09:49:35.235Z</time></trkpt><trkpt lat="43.7730483" lon="12.8580133"><ele>343.0</ele><time>2026-04-12T09:49:36.234Z</time></trkpt><trkpt lat="43.7730567" lon="12.857755"><ele>343.0</ele><time>2026-04-12T09:49:37.235Z</time></trkpt><trkpt lat="43.773075" lon="12.8575117"><ele>343.0</ele><time>2026-04-12T09:49:38.235Z</time></trkpt><trkpt lat="43.7731067" lon="12.8572733"><ele>343.0</ele><time>2026-04-12T09:49:39.234Z</time></trkpt><trkpt lat="43.773155" lon="12.8570417"><ele>343.0</ele><time>2026-04-12T09:49:40.235Z</time></trkpt><trkpt lat="43.7732133" lon="12.8568133"><ele>345.3333333333333</ele><time>2026-04-12T09:49:41.235Z</time></trkpt><trkpt lat="43.773285" lon="12.856595"><ele>347.6666666666667</ele><time>2026-04-12T09:49:42.234Z</time></trkpt><trkpt lat="43.77337" lon="12.8564"><ele>350.0</ele><time>2026-04-12T09:49:43.235Z</time></trkpt><trkpt lat="43.7734683" lon="12.8562183"><ele>348.33333333333337</ele><time>2026-04-12T09:49:44.234Z</time></trkpt><trkpt lat="43.7735967" lon="12.856065"><ele>346.6666666666667</ele><time>2026-04-12T09:49:45.235Z</time></trkpt><trkpt lat="43.7737383" lon="12.8559167"><ele>345.0</ele><time>2026-04-12T09:49:46.235Z</time></trkpt><trkpt lat="43.77389" lon="12.8557683"><ele>345.0</ele><time>2026-04-12T09:49:47.234Z</time></trkpt><trkpt lat="43.7740333" lon="12.8556167"><ele>345.0</ele><time>2026-04-12T09:49:48.235Z</time></trkpt><trkpt lat="43.7741883" lon="12.8554917"><ele>345.0</ele><time>2026-04-12T09:49:49.235Z</time></trkpt><trkpt lat="43.7743433" lon="12.8553967"><ele>343.3333333333333</ele><time>2026-04-12T09:49:50.235Z</time></trkpt><trkpt lat="43.7745283" lon="12.8553133"><ele>341.66666666666663</ele><time>2026-04-12T09:49:51.235Z</time></trkpt><trkpt lat="43.774715" lon="12.8552667"><ele>340.0</ele><time>2026-04-12T09:49:52.235Z</time></trkpt><trkpt lat="43.7749067" lon="12.8552267"><ele>340.0</ele><time>2026-04-12T09:49:53.235Z</time></trkpt><trkpt lat="43.775095" lon="12.8551867"><ele>340.0</ele><time>2026-04-12T09:49:54.234Z</time></trkpt><trkpt lat="43.7752783" lon="12.8551283"><ele>340.0</ele><time>2026-04-12T09:49:55.234Z</time></trkpt><trkpt lat="43.7754567" lon="12.8550683"><ele>342.0</ele><time>2026-04-12T09:49:56.235Z</time></trkpt><trkpt lat="43.7756283" lon="12.8549767"><ele>344.0</ele><time>2026-04-12T09:49:57.235Z</time></trkpt><trkpt lat="43.7757883" lon="12.8548567"><ele>346.0</ele><time>2026-04-12T09:49:58.235Z</time></trkpt><trkpt lat="43.77595" lon="12.854725"><ele>343.0</ele><time>2026-04-12T09:49:59.235Z</time></trkpt><trkpt lat="43.7761133" lon="12.8545867"><ele>340.0</ele><time>2026-04-12T09:50:00.234Z</time></trkpt><trkpt lat="43.7762767" lon="12.854445"><ele>337.0</ele><time>2026-04-12T09:50:01.235Z</time></trkpt><trkpt lat="43.7764383" lon="12.8542967"><ele>338.3333333333333</ele><time>2026-04-12T09:50:02.234Z</time></trkpt><trkpt lat="43.776605" lon="12.8541467"><ele>339.6666666666667</ele><time>2026-04-12T09:50:03.234Z</time></trkpt><trkpt lat="43.7767767" lon="12.8539967"><ele>341.0</ele><time>2026-04-12T09:50:04.235Z</time></trkpt><trkpt lat="43.7769467" lon="12.8538483"><ele>341.0</ele><time>2026-04-12T09:50:05.234Z</time></trkpt><trkpt lat="43.7771133" lon="12.8537"><ele>341.0</ele><time>2026-04-12T09:50:06.235Z</time></trkpt><trkpt lat="43.7772883" lon="12.8535517"><ele>341.0</ele><time>2026-04-12T09:50:07.235Z</time></trkpt><trkpt lat="43.7774567" lon="12.853415"><ele>343.33333333333337</ele><time>2026-04-12T09:50:08.235Z</time></trkpt><trkpt lat="43.777615" lon="12.8532733"><ele>345.6666666666667</ele><time>2026-04-12T09:50:09.235Z</time></trkpt><trkpt lat="43.7777667" lon="12.8531383"><ele>348.0</ele><time>2026-04-12T09:50:10.235Z</time></trkpt><trkpt lat="43.777895" lon="12.852995"><ele>350.0</ele><time>2026-04-12T09:50:11.235Z</time></trkpt><trkpt lat="43.7779983" lon="12.8528317"><ele>352.0</ele><time>2026-04-12T09:50:12.235Z</time></trkpt><trkpt lat="43.7780667" lon="12.852635"><ele>354.0</ele><time>2026-04-12T09:50:13.234Z</time></trkpt><trkpt lat="43.778105" lon="12.85242"><ele>357.0</ele><time>2026-04-12T09:50:14.235Z</time></trkpt><trkpt lat="43.778135" lon="12.8522083"><ele>360.0</ele><time>2026-04-12T09:50:15.234Z</time></trkpt><trkpt lat="43.7781717" lon="12.8519967"><ele>363.0</ele><time>2026-04-12T09:50:16.235Z</time></trkpt><trkpt lat="43.7782117" lon="12.851795"><ele>363.2</ele><time>2026-04-12T09:50:17.235Z</time></trkpt><trkpt lat="43.778255" lon="12.8516067"><ele>363.4</ele><time>2026-04-12T09:50:18.235Z</time></trkpt><trkpt lat="43.7783017" lon="12.8514683"><ele>363.59999999999997</ele><time>2026-04-12T09:50:19.235Z</time></trkpt><trkpt lat="43.7783567" lon="12.851385"><ele>363.79999999999995</ele><time>2026-04-12T09:50:20.235Z</time></trkpt><trkpt lat="43.77842" lon="12.8513683"><ele>364.0</ele><time>2026-04-12T09:50:21.235Z</time></trkpt><trkpt lat="43.7784767" lon="12.8514133"><ele>364.0</ele><time>2026-04-12T09:50:22.235Z</time></trkpt><trkpt lat="43.7785217" lon="12.8514867"><ele>364.0</ele><time>2026-04-12T09:50:23.235Z</time></trkpt><trkpt lat="43.778515" lon="12.8516017"><ele>364.0</ele><time>2026-04-12T09:50:24.235Z</time></trkpt><trkpt lat="43.7784883" lon="12.851725"><ele>364.0</ele><time>2026-04-12T09:50:25.234Z</time></trkpt><trkpt lat="43.7784717" lon="12.8518717"><ele>364.0</ele><time>2026-04-12T09:50:26.235Z</time></trkpt><trkpt lat="43.7784817" lon="12.8520233"><ele>363.75</ele><time>2026-04-12T09:50:27.235Z</time></trkpt><trkpt lat="43.7785167" lon="12.852175"><ele>363.5</ele><time>2026-04-12T09:50:28.235Z</time></trkpt><trkpt lat="43.77858" lon="12.852305"><ele>363.25</ele><time>2026-04-12T09:50:29.235Z</time></trkpt><trkpt lat="43.778665" lon="12.8524083"><ele>363.0</ele><time>2026-04-12T09:50:30.234Z</time></trkpt><trkpt lat="43.77877" lon="12.852485"><ele>365.3333333333333</ele><time>2026-04-12T09:50:31.235Z</time></trkpt><trkpt lat="43.7788983" lon="12.8525567"><ele>367.66666666666663</ele><time>2026-04-12T09:50:32.235Z</time></trkpt><trkpt lat="43.7790467" lon="12.852635"><ele>370.0</ele><time>2026-04-12T09:50:33.235Z</time></trkpt><trkpt lat="43.7791883" lon="12.8527283"><ele>370.0</ele><time>2026-04-12T09:50:34.234Z</time></trkpt><trkpt lat="43.7793133" lon="12.85285"><ele>370.0</ele><time>2026-04-12T09:50:35.234Z</time></trkpt><trkpt lat="43.7794383" lon="12.8529967"><ele>370.0</ele><time>2026-04-12T09:50:36.235Z</time></trkpt><trkpt lat="43.77956" lon="12.8531517"><ele>373.66666666666663</ele><time>2026-04-12T09:50:37.234Z</time></trkpt><trkpt lat="43.77968" lon="12.8533"><ele>377.3333333333333</ele><time>2026-04-12T09:50:38.235Z</time></trkpt><trkpt lat="43.7797933" lon="12.853435"><ele>381.0</ele><time>2026-04-12T09:50:39.235Z</time></trkpt><trkpt lat="43.7799117" lon="12.8535567"><ele>381.0</ele><time>2026-04-12T09:50:40.235Z</time></trkpt><trkpt lat="43.7800283" lon="12.8536733"><ele>381.0</ele><time>2026-04-12T09:50:41.235Z</time></trkpt><trkpt lat="43.7801283" lon="12.853805"><ele>381.0</ele><time>2026-04-12T09:50:42.235Z</time></trkpt><trkpt lat="43.780225" lon="12.853955"><ele>381.0</ele><time>2026-04-12T09:50:43.234Z</time></trkpt><trkpt lat="43.780325" lon="12.854115"><ele>384.0</ele><time>2026-04-12T09:50:44.235Z</time></trkpt><trkpt lat="43.7804133" lon="12.8542833"><ele>387.0</ele><time>2026-04-12T09:50:45.235Z</time></trkpt><trkpt lat="43.7804967" lon="12.85444"><ele>390.0</ele><time>2026-04-12T09:50:46.235Z</time></trkpt><trkpt lat="43.7805783" lon="12.854565"><ele>393.0</ele><time>2026-04-12T09:50:47.235Z</time></trkpt><trkpt lat="43.7806783" lon="12.8546617"><ele>393.0</ele><time>2026-04-12T09:50:48.235Z</time></trkpt><trkpt lat="43.7807983" lon="12.85473"><ele>393.0</ele><time>2026-04-12T09:50:49.234Z</time></trkpt><trkpt lat="43.780925" lon="12.8547917"><ele>393.0</ele><time>2026-04-12T09:50:50.235Z</time></trkpt><trkpt lat="43.781055" lon="12.8548633"><ele>393.0</ele><time>2026-04-12T09:50:51.234Z</time></trkpt><trkpt lat="43.781165" lon="12.8549617"><ele>395.75</ele><time>2026-04-12T09:50:52.235Z</time></trkpt><trkpt lat="43.7812717" lon="12.8550517"><ele>398.5</ele><time>2026-04-12T09:50:53.235Z</time></trkpt><trkpt lat="43.78139" lon="12.855115"><ele>401.25</ele><time>2026-04-12T09:50:54.234Z</time></trkpt><trkpt lat="43.781515" lon="12.85513"><ele>404.0</ele><time>2026-04-12T09:50:55.235Z</time></trkpt><trkpt lat="43.7816383" lon="12.8551117"><ele>404.0</ele><time>2026-04-12T09:50:56.234Z</time></trkpt><trkpt lat="43.7817583" lon="12.8550433"><ele>404.0</ele><time>2026-04-12T09:50:57.235Z</time></trkpt><trkpt lat="43.7818683" lon="12.8549333"><ele>404.0</ele><time>2026-04-12T09:50:58.235Z</time></trkpt><trkpt lat="43.7819433" lon="12.8547733"><ele>404.0</ele><time>2026-04-12T09:50:59.235Z</time></trkpt><trkpt lat="43.782005" lon="12.854595"><ele>402.25</ele><time>2026-04-12T09:51:00.234Z</time></trkpt><trkpt lat="43.782075" lon="12.85444"><ele>400.5</ele><time>2026-04-12T09:51:01.234Z</time></trkpt><trkpt lat="43.7821517" lon="12.8543017"><ele>398.75</ele><time>2026-04-12T09:51:02.235Z</time></trkpt><trkpt lat="43.78224" lon="12.85419"><ele>397.0</ele><time>2026-04-12T09:51:03.234Z</time></trkpt><trkpt lat="43.7823517" lon="12.8541167"><ele>401.75</ele><time>2026-04-12T09:51:04.235Z</time></trkpt><trkpt lat="43.78247" lon="12.8540917"><ele>406.5</ele><time>2026-04-12T09:51:05.235Z</time></trkpt><trkpt lat="43.782595" lon="12.854095"><ele>411.25</ele><time>2026-04-12T09:51:06.234Z</time></trkpt><trkpt lat="43.78274" lon="12.8541617"><ele>416.0</ele><time>2026-04-12T09:51:07.235Z</time></trkpt><trkpt lat="43.7828767" lon="12.85425"><ele>415.0</ele><time>2026-04-12T09:51:08.235Z</time></trkpt><trkpt lat="43.783" lon="12.8543617"><ele>414.0</ele><time>2026-04-12T09:51:09.235Z</time></trkpt><trkpt lat="43.7831333" lon="12.8544733"><ele>413.0</ele><time>2026-04-12T09:51:10.235Z</time></trkpt><trkpt lat="43.783265" lon="12.8545767"><ele>413.0</ele><time>2026-04-12T09:51:11.235Z</time></trkpt><trkpt lat="43.783385" lon="12.85469"><ele>413.0</ele><time>2026-04-12T09:51:12.234Z</time></trkpt><trkpt lat="43.7834833" lon="12.85481"><ele>413.0</ele><time>2026-04-12T09:51:13.235Z</time></trkpt><trkpt lat="43.7835483" lon="12.8549667"><ele>413.0</ele><time>2026-04-12T09:51:14.234Z</time></trkpt><trkpt lat="43.7835967" lon="12.8551133"><ele>413.0</ele><time>2026-04-12T09:51:15.235Z</time></trkpt><trkpt lat="43.7836467" lon="12.8552533"><ele>413.0</ele><time>2026-04-12T09:51:16.235Z</time></trkpt><trkpt lat="43.783695" lon="12.8554033"><ele>413.0</ele><time>2026-04-12T09:51:17.235Z</time></trkpt><trkpt lat="43.7837433" lon="12.8555417"><ele>413.0</ele><time>2026-04-12T09:51:18.234Z</time></trkpt><trkpt lat="43.7838017" lon="12.8556733"><ele>413.0</ele><time>2026-04-12T09:51:19.234Z</time></trkpt><trkpt lat="43.7838767" lon="12.8557817"><ele>413.0</ele><time>2026-04-12T09:51:20.234Z</time></trkpt><trkpt lat="43.7839733" lon="12.855845"><ele>413.0</ele><time>2026-04-12T09:51:21.235Z</time></trkpt><trkpt lat="43.78409" lon="12.85586"><ele>413.0</ele><time>2026-04-12T09:51:22.234Z</time></trkpt><trkpt lat="43.78421" lon="12.855845"><ele>413.0</ele><time>2026-04-12T09:51:23.234Z</time></trkpt><trkpt lat="43.7843333" lon="12.855805"><ele>413.0</ele><time>2026-04-12T09:51:24.235Z</time></trkpt><trkpt lat="43.7844517" lon="12.8557583"><ele>413.0</ele><time>2026-04-12T09:51:25.235Z</time></trkpt><trkpt lat="43.78456" lon="12.85573"><ele>413.0</ele><time>2026-04-12T09:51:26.235Z</time></trkpt><trkpt lat="43.7846717" lon="12.855725"><ele>413.25</ele><time>2026-04-12T09:51:27.235Z</time></trkpt><trkpt lat="43.7847833" lon="12.85577"><ele>413.5</ele><time>2026-04-12T09:51:28.234Z</time></trkpt><trkpt lat="43.7848867" lon="12.8558767"><ele>413.75</ele><time>2026-04-12T09:51:29.235Z</time></trkpt><trkpt lat="43.78498" lon="12.85601"><ele>414.0</ele><time>2026-04-12T09:51:30.235Z</time></trkpt><trkpt lat="43.78506" lon="12.85617"><ele>410.5</ele><time>2026-04-12T09:51:31.235Z</time></trkpt><trkpt lat="43.7851367" lon="12.8563267"><ele>407.0</ele><time>2026-04-12T09:51:32.235Z</time></trkpt><trkpt lat="43.7852183" lon="12.8564817"><ele>403.5</ele><time>2026-04-12T09:51:33.235Z</time></trkpt><trkpt lat="43.7853133" lon="12.8566183"><ele>400.0</ele><time>2026-04-12T09:51:34.235Z</time></trkpt><trkpt lat="43.7854167" lon="12.8567467"><ele>394.25</ele><time>2026-04-12T09:51:35.235Z</time></trkpt><trkpt lat="43.7855317" lon="12.8568483"><ele>388.5</ele><time>2026-04-12T09:51:36.234Z</time></trkpt><trkpt lat="43.7856667" lon="12.8569283"><ele>382.75</ele><time>2026-04-12T09:51:37.234Z</time></trkpt><trkpt lat="43.7858133" lon="12.8569833"><ele>377.0</ele><time>2026-04-12T09:51:38.235Z</time></trkpt><trkpt lat="43.78596" lon="12.857065"><ele>378.0</ele><time>2026-04-12T09:51:39.235Z</time></trkpt><trkpt lat="43.786095" lon="12.8571433"><ele>379.0</ele><time>2026-04-12T09:51:40.235Z</time></trkpt><trkpt lat="43.78623" lon="12.85719"><ele>380.0</ele><time>2026-04-12T09:51:41.235Z</time></trkpt><trkpt lat="43.7863633" lon="12.8571967"><ele>381.0</ele><time>2026-04-12T09:51:42.235Z</time></trkpt><trkpt lat="43.7864783" lon="12.85716"><ele>381.0</ele><time>2026-04-12T09:51:43.235Z</time></trkpt><trkpt lat="43.7865733" lon="12.8570933"><ele>381.0</ele><time>2026-04-12T09:51:44.235Z</time></trkpt><trkpt lat="43.786655" lon="12.857035"><ele>381.0</ele><time>2026-04-12T09:51:45.234Z</time></trkpt><trkpt lat="43.7867267" lon="12.8570083"><ele>381.0</ele><time>2026-04-12T09:51:46.235Z</time></trkpt><trkpt lat="43.7867933" lon="12.857045"><ele>381.0</ele><time>2026-04-12T09:51:47.235Z</time></trkpt><trkpt lat="43.7868467" lon="12.85714"><ele>381.0</ele><time>2026-04-12T09:51:48.235Z</time></trkpt><trkpt lat="43.786885" lon="12.85727"><ele>378.8</ele><time>2026-04-12T09:51:49.235Z</time></trkpt><trkpt lat="43.7869133" lon="12.85742"><ele>376.6</ele><time>2026-04-12T09:51:50.235Z</time></trkpt><trkpt lat="43.78692" lon="12.8575767"><ele>374.4</ele><time>2026-04-12T09:51:51.234Z</time></trkpt><trkpt lat="43.7869083" lon="12.8577267"><ele>372.2</ele><time>2026-04-12T09:51:52.235Z</time></trkpt><trkpt lat="43.786875" lon="12.8578633"><ele>370.0</ele><time>2026-04-12T09:51:53.234Z</time></trkpt><trkpt lat="43.7868067" lon="12.8580033"><ele>370.0</ele><time>2026-04-12T09:51:54.234Z</time></trkpt><trkpt lat="43.786715" lon="12.8581017"><ele>370.0</ele><time>2026-04-12T09:51:55.234Z</time></trkpt><trkpt lat="43.786615" lon="12.8581583"><ele>370.0</ele><time>2026-04-12T09:51:56.235Z</time></trkpt><trkpt lat="43.7865167" lon="12.85816"><ele>370.0</ele><time>2026-04-12T09:51:57.234Z</time></trkpt><trkpt lat="43.7864283" lon="12.8581183"><ele>370.0</ele><time>2026-04-12T09:51:58.235Z</time></trkpt><trkpt lat="43.7863617" lon="12.8580767"><ele>370.0</ele><time>2026-04-12T09:51:59.235Z</time></trkpt><trkpt lat="43.7862917" lon="12.8580767"><ele>370.0</ele><time>2026-04-12T09:52:00.235Z</time></trkpt><trkpt lat="43.786275" lon="12.8582283"><ele>370.0</ele><time>2026-04-12T09:52:02.235Z</time></trkpt><trkpt lat="43.7863217" lon="12.8583167"><ele>370.0</ele><time>2026-04-12T09:52:03.235Z</time></trkpt><trkpt lat="43.786395" lon="12.8584017"><ele>370.0</ele><time>2026-04-12T09:52:04.235Z</time></trkpt><trkpt lat="43.786495" lon="12.8584933"><ele>366.75</ele><time>2026-04-12T09:52:05.235Z</time></trkpt><trkpt lat="43.7866033" lon="12.8586117"><ele>363.5</ele><time>2026-04-12T09:52:06.235Z</time></trkpt><trkpt lat="43.7866967" lon="12.8587533"><ele>360.25</ele><time>2026-04-12T09:52:07.235Z</time></trkpt><trkpt lat="43.7867683" lon="12.8589067"><ele>357.0</ele><time>2026-04-12T09:52:08.235Z</time></trkpt><trkpt lat="43.7868317" lon="12.8590533"><ele>357.6</ele><time>2026-04-12T09:52:09.234Z</time></trkpt><trkpt lat="43.7868983" lon="12.859185"><ele>358.20000000000005</ele><time>2026-04-12T09:52:10.234Z</time></trkpt><trkpt lat="43.7869683" lon="12.859275"><ele>358.8</ele><time>2026-04-12T09:52:11.234Z</time></trkpt><trkpt lat="43.78705" lon="12.8593133"><ele>359.4</ele><time>2026-04-12T09:52:12.235Z</time></trkpt><trkpt lat="43.7871467" lon="12.859345"><ele>360.0</ele><time>2026-04-12T09:52:13.234Z</time></trkpt><trkpt lat="43.7872317" lon="12.8593733"><ele>360.0</ele><time>2026-04-12T09:52:14.234Z</time></trkpt><trkpt lat="43.787325" lon="12.8593883"><ele>360.0</ele><time>2026-04-12T09:52:15.235Z</time></trkpt><trkpt lat="43.7874017" lon="12.8594083"><ele>360.0</ele><time>2026-04-12T09:52:16.235Z</time></trkpt><trkpt lat="43.78752" lon="12.8593883"><ele>360.0</ele><time>2026-04-12T09:52:18.235Z</time></trkpt><trkpt lat="43.78759" lon="12.8592633"><ele>360.0</ele><time>2026-04-12T09:52:20.234Z</time></trkpt><trkpt lat="43.78763" lon="12.8591383"><ele>360.0</ele><time>2026-04-12T09:52:21.234Z</time></trkpt><trkpt lat="43.78765" lon="12.8590067"><ele>360.0</ele><time>2026-04-12T09:52:22.235Z</time></trkpt><trkpt lat="43.7876733" lon="12.8588517"><ele>360.0</ele><time>2026-04-12T09:52:23.235Z</time></trkpt><trkpt lat="43.787705" lon="12.85872"><ele>360.0</ele><time>2026-04-12T09:52:24.235Z</time></trkpt><trkpt lat="43.7877267" lon="12.8585833"><ele>360.0</ele><time>2026-04-12T09:52:25.235Z</time></trkpt><trkpt lat="43.78775" lon="12.8584333"><ele>359.0</ele><time>2026-04-12T09:52:26.235Z</time></trkpt><trkpt lat="43.7877817" lon="12.8582783"><ele>358.0</ele><time>2026-04-12T09:52:27.235Z</time></trkpt><trkpt lat="43.7877983" lon="12.8581067"><ele>357.0</ele><time>2026-04-12T09:52:28.234Z</time></trkpt><trkpt lat="43.7878083" lon="12.85794"><ele>356.0</ele><time>2026-04-12T09:52:29.235Z</time></trkpt><trkpt lat="43.7878067" lon="12.8577833"><ele>356.0</ele><time>2026-04-12T09:52:30.235Z</time></trkpt><trkpt lat="43.7877917" lon="12.857635"><ele>356.0</ele><time>2026-04-12T09:52:31.235Z</time></trkpt><trkpt lat="43.7877833" lon="12.8574817"><ele>356.0</ele><time>2026-04-12T09:52:32.234Z</time></trkpt><trkpt lat="43.7877717" lon="12.8573417"><ele>356.0</ele><time>2026-04-12T09:52:33.235Z</time></trkpt><trkpt lat="43.78777" lon="12.8572083"><ele>356.0</ele><time>2026-04-12T09:52:34.235Z</time></trkpt><trkpt lat="43.7877867" lon="12.8570833"><ele>354.20000000000005</ele><time>2026-04-12T09:52:35.235Z</time></trkpt><trkpt lat="43.78783" lon="12.856965"><ele>352.40000000000003</ele><time>2026-04-12T09:52:36.235Z</time></trkpt><trkpt lat="43.7878967" lon="12.8568817"><ele>350.6</ele><time>2026-04-12T09:52:37.235Z</time></trkpt><trkpt lat="43.7879783" lon="12.856845"><ele>348.8</ele><time>2026-04-12T09:52:38.235Z</time></trkpt><trkpt lat="43.788075" lon="12.8568467"><ele>347.0</ele><time>2026-04-12T09:52:39.235Z</time></trkpt><trkpt lat="43.788175" lon="12.8568517"><ele>347.0</ele><time>2026-04-12T09:52:40.235Z</time></trkpt><trkpt lat="43.78828" lon="12.8568517"><ele>347.0</ele><time>2026-04-12T09:52:41.235Z</time></trkpt><trkpt lat="43.7883883" lon="12.856845"><ele>347.0</ele><time>2026-04-12T09:52:42.235Z</time></trkpt><trkpt lat="43.7885" lon="12.8568117"><ele>347.0</ele><time>2026-04-12T09:52:43.234Z</time></trkpt><trkpt lat="43.788605" lon="12.856765"><ele>347.0</ele><time>2026-04-12T09:52:44.235Z</time></trkpt><trkpt lat="43.788705" lon="12.8567133"><ele>343.5</ele><time>2026-04-12T09:52:45.235Z</time></trkpt><trkpt lat="43.7888133" lon="12.856655"><ele>340.0</ele><time>2026-04-12T09:52:46.235Z</time></trkpt><trkpt lat="43.7889183" lon="12.8566017"><ele>336.5</ele><time>2026-04-12T09:52:47.235Z</time></trkpt><trkpt lat="43.7890233" lon="12.856555"><ele>333.0</ele><time>2026-04-12T09:52:48.234Z</time></trkpt><trkpt lat="43.7891317" lon="12.8565067"><ele>333.0</ele><time>2026-04-12T09:52:49.234Z</time></trkpt><trkpt lat="43.7892317" lon="12.8564633"><ele>333.0</ele><time>2026-04-12T09:52:50.235Z</time></trkpt><trkpt lat="43.7893133" lon="12.85642"><ele>333.0</ele><time>2026-04-12T09:52:51.235Z</time></trkpt><trkpt lat="43.7893883" lon="12.8563733"><ele>333.0</ele><time>2026-04-12T09:52:52.235Z</time></trkpt><trkpt lat="43.789455" lon="12.8563183"><ele>333.0</ele><time>2026-04-12T09:52:53.234Z</time></trkpt><trkpt lat="43.7895133" lon="12.8562567"><ele>333.0</ele><time>2026-04-12T09:52:54.235Z</time></trkpt><trkpt lat="43.78956" lon="12.85617"><ele>332.3333333333333</ele><time>2026-04-12T09:52:55.235Z</time></trkpt><trkpt lat="43.7895933" lon="12.85606"><ele>331.6666666666667</ele><time>2026-04-12T09:52:56.234Z</time></trkpt><trkpt lat="43.789615" lon="12.8559517"><ele>331.0</ele><time>2026-04-12T09:52:57.234Z</time></trkpt><trkpt lat="43.7896217" lon="12.85584"><ele>330.33333333333337</ele><time>2026-04-12T09:52:58.235Z</time></trkpt><trkpt lat="43.7896183" lon="12.85575"><ele>329.6666666666667</ele><time>2026-04-12T09:52:59.235Z</time></trkpt><trkpt lat="43.7896417" lon="12.8556"><ele>329.0</ele><time>2026-04-12T09:53:01.234Z</time></trkpt><trkpt lat="43.7897133" lon="12.855485"><ele>329.0</ele><time>2026-04-12T09:53:03.235Z</time></trkpt><trkpt lat="43.7897767" lon="12.8554667"><ele>329.0</ele><time>2026-04-12T09:53:04.235Z</time></trkpt><trkpt lat="43.7898467" lon="12.8554583"><ele>329.0</ele><time>2026-04-12T09:53:05.234Z</time></trkpt><trkpt lat="43.78998" lon="12.8554833"><ele>329.0</ele><time>2026-04-12T09:53:07.236Z</time></trkpt><trkpt lat="43.7900533" lon="12.8554967"><ele>329.0</ele><time>2026-04-12T09:53:08.236Z</time></trkpt><trkpt lat="43.79012" lon="12.85552"><ele>329.0</ele><time>2026-04-12T09:53:09.236Z</time></trkpt><trkpt lat="43.7901833" lon="12.8555683"><ele>325.0</ele><time>2026-04-12T09:53:10.235Z</time></trkpt><trkpt lat="43.7902267" lon="12.855635"><ele>321.0</ele><time>2026-04-12T09:53:11.235Z</time></trkpt><trkpt lat="43.7902517" lon="12.8557267"><ele>317.0</ele><time>2026-04-12T09:53:12.236Z</time></trkpt><trkpt lat="43.790255" lon="12.8558333"><ele>313.0</ele><time>2026-04-12T09:53:13.236Z</time></trkpt><trkpt lat="43.7902433" lon="12.8559467"><ele>309.0</ele><time>2026-04-12T09:53:14.235Z</time></trkpt><trkpt lat="43.79022" lon="12.8560667"><ele>305.0</ele><time>2026-04-12T09:53:15.235Z</time></trkpt><trkpt lat="43.790195" lon="12.8561767"><ele>307.6666666666667</ele><time>2026-04-12T09:53:16.235Z</time></trkpt><trkpt lat="43.7901683" lon="12.856285"><ele>310.33333333333337</ele><time>2026-04-12T09:53:17.236Z</time></trkpt><trkpt lat="43.790135" lon="12.856385"><ele>313.0</ele><time>2026-04-12T09:53:18.236Z</time></trkpt><trkpt lat="43.7900883" lon="12.85647"><ele>315.6666666666667</ele><time>2026-04-12T09:53:19.235Z</time></trkpt><trkpt lat="43.7900267" lon="12.8565683"><ele>318.3333333333333</ele><time>2026-04-12T09:53:20.236Z</time></trkpt><trkpt lat="43.789965" lon="12.856645"><ele>321.0</ele><time>2026-04-12T09:53:21.236Z</time></trkpt><trkpt lat="43.7899067" lon="12.8567033"><ele>320.0</ele><time>2026-04-12T09:53:22.235Z</time></trkpt><trkpt lat="43.7898217" lon="12.8567917"><ele>319.0</ele><time>2026-04-12T09:53:24.235Z</time></trkpt><trkpt lat="43.78976" lon="12.8569233"><ele>318.0</ele><time>2026-04-12T09:53:26.235Z</time></trkpt><trkpt lat="43.7897917" lon="12.8570467"><ele>317.0</ele><time>2026-04-12T09:53:28.235Z</time></trkpt><trkpt lat="43.789925" lon="12.8569883"><ele>317.0</ele><time>2026-04-12T09:53:30.236Z</time></trkpt><trkpt lat="43.790005" lon="12.85691"><ele>317.0</ele><time>2026-04-12T09:53:31.235Z</time></trkpt><trkpt lat="43.79009" lon="12.8568183"><ele>317.0</ele><time>2026-04-12T09:53:32.236Z</time></trkpt><trkpt lat="43.7902017" lon="12.8567317"><ele>317.0</ele><time>2026-04-12T09:53:33.236Z</time></trkpt><trkpt lat="43.7903617" lon="12.8566633"><ele>312.33333333333337</ele><time>2026-04-12T09:53:34.236Z</time></trkpt><trkpt lat="43.7905383" lon="12.856605"><ele>307.6666666666667</ele><time>2026-04-12T09:53:35.236Z</time></trkpt><trkpt lat="43.7907233" lon="12.8565667"><ele>303.0</ele><time>2026-04-12T09:53:36.236Z</time></trkpt><trkpt lat="43.7909033" lon="12.8565033"><ele>298.6666666666667</ele><time>2026-04-12T09:53:37.235Z</time></trkpt><trkpt lat="43.7910567" lon="12.8564317"><ele>294.33333333333337</ele><time>2026-04-12T09:53:38.235Z</time></trkpt><trkpt lat="43.7912167" lon="12.85635"><ele>290.0</ele><time>2026-04-12T09:53:39.235Z</time></trkpt><trkpt lat="43.7913683" lon="12.8562633"><ele>290.0</ele><time>2026-04-12T09:53:40.235Z</time></trkpt><trkpt lat="43.791515" lon="12.8561833"><ele>290.0</ele><time>2026-04-12T09:53:41.236Z</time></trkpt><trkpt lat="43.7916617" lon="12.8560933"><ele>290.0</ele><time>2026-04-12T09:53:42.236Z</time></trkpt><trkpt lat="43.79181" lon="12.8560133"><ele>291.0</ele><time>2026-04-12T09:53:43.236Z</time></trkpt><trkpt lat="43.791955" lon="12.85593"><ele>292.0</ele><time>2026-04-12T09:53:44.236Z</time></trkpt><trkpt lat="43.792085" lon="12.8558617"><ele>293.0</ele><time>2026-04-12T09:53:45.235Z</time></trkpt><trkpt lat="43.7922133" lon="12.8558133"><ele>294.0</ele><time>2026-04-12T09:53:46.236Z</time></trkpt><trkpt lat="43.7923483" lon="12.855765"><ele>294.0</ele><time>2026-04-12T09:53:47.236Z</time></trkpt><trkpt lat="43.7924783" lon="12.8557283"><ele>294.0</ele><time>2026-04-12T09:53:48.235Z</time></trkpt><trkpt lat="43.7926133" lon="12.8556917"><ele>294.0</ele><time>2026-04-12T09:53:49.235Z</time></trkpt><trkpt lat="43.7927417" lon="12.855645"><ele>294.0</ele><time>2026-04-12T09:53:50.236Z</time></trkpt><trkpt lat="43.7928617" lon="12.85558"><ele>292.0</ele><time>2026-04-12T09:53:51.236Z</time></trkpt><trkpt lat="43.7929867" lon="12.8555583"><ele>290.0</ele><time>2026-04-12T09:53:52.236Z</time></trkpt><trkpt lat="43.7931083" lon="12.8555283"><ele>288.0</ele><time>2026-04-12T09:53:53.236Z</time></trkpt><trkpt lat="43.7932133" lon="12.8555117"><ele>286.0</ele><time>2026-04-12T09:53:54.236Z</time></trkpt><trkpt lat="43.7933133" lon="12.8554867"><ele>286.0</ele><time>2026-04-12T09:53:55.236Z</time></trkpt><trkpt lat="43.7934" lon="12.8554667"><ele>286.0</ele><time>2026-04-12T09:53:56.236Z</time></trkpt><trkpt lat="43.793465" lon="12.8554433"><ele>286.0</ele><time>2026-04-12T09:53:57.236Z</time></trkpt><trkpt lat="43.793555" lon="12.85543"><ele>286.0</ele><time>2026-04-12T09:53:59.236Z</time></trkpt><trkpt lat="43.7936333" lon="12.8554067"><ele>286.0</ele><time>2026-04-12T09:54:03.235Z</time></trkpt><trkpt lat="43.7937317" lon="12.8552983"><ele>284.75</ele><time>2026-04-12T09:54:05.236Z</time></trkpt><trkpt lat="43.7937967" lon="12.8552033"><ele>283.5</ele><time>2026-04-12T09:54:06.236Z</time></trkpt><trkpt lat="43.7938733" lon="12.8550867"><ele>282.25</ele><time>2026-04-12T09:54:07.236Z</time></trkpt><trkpt lat="43.7939567" lon="12.85493"><ele>281.0</ele><time>2026-04-12T09:54:08.236Z</time></trkpt><trkpt lat="43.7940267" lon="12.8547783"><ele>283.40000000000003</ele><time>2026-04-12T09:54:09.235Z</time></trkpt><trkpt lat="43.794095" lon="12.854645"><ele>285.8</ele><time>2026-04-12T09:54:10.235Z</time></trkpt><trkpt lat="43.794155" lon="12.854555"><ele>288.20000000000005</ele><time>2026-04-12T09:54:11.236Z</time></trkpt><trkpt lat="43.79423" lon="12.85453"><ele>290.6</ele><time>2026-04-12T09:54:12.236Z</time></trkpt><trkpt lat="43.7943067" lon="12.8545817"><ele>293.0</ele><time>2026-04-12T09:54:13.236Z</time></trkpt><trkpt lat="43.7943767" lon="12.8546683"><ele>292.0</ele><time>2026-04-12T09:54:14.236Z</time></trkpt><trkpt lat="43.7944417" lon="12.8547883"><ele>291.0</ele><time>2026-04-12T09:54:15.236Z</time></trkpt><trkpt lat="43.794495" lon="12.8549283"><ele>290.0</ele><time>2026-04-12T09:54:16.236Z</time></trkpt><trkpt lat="43.7945583" lon="12.8550717"><ele>289.0</ele><time>2026-04-12T09:54:17.235Z</time></trkpt><trkpt lat="43.7946317" lon="12.8552133"><ele>289.0</ele><time>2026-04-12T09:54:18.235Z</time></trkpt><trkpt lat="43.7947167" lon="12.8553267"><ele>289.0</ele><time>2026-04-12T09:54:19.236Z</time></trkpt><trkpt lat="43.79481" lon="12.8554067"><ele>289.0</ele><time>2026-04-12T09:54:20.236Z</time></trkpt><trkpt lat="43.7949083" lon="12.8554483"><ele>289.0</ele><time>2026-04-12T09:54:21.236Z</time></trkpt><trkpt lat="43.7950017" lon="12.8554767"><ele>289.0</ele><time>2026-04-12T09:54:22.236Z</time></trkpt><trkpt lat="43.7950967" lon="12.8554867"><ele>291.0</ele><time>2026-04-12T09:54:23.236Z</time></trkpt><trkpt lat="43.7951817" lon="12.8554767"><ele>293.0</ele><time>2026-04-12T09:54:24.235Z</time></trkpt><trkpt lat="43.7952617" lon="12.8554317"><ele>295.0</ele><time>2026-04-12T09:54:25.236Z</time></trkpt><trkpt lat="43.7952867" lon="12.85532"><ele>297.0</ele><time>2026-04-12T09:54:26.235Z</time></trkpt><trkpt lat="43.7952967" lon="12.8551767"><ele>299.0</ele><time>2026-04-12T09:54:27.236Z</time></trkpt><trkpt lat="43.79531" lon="12.85504"><ele>302.59999999999997</ele><time>2026-04-12T09:54:28.235Z</time></trkpt><trkpt lat="43.7953" lon="12.8549067"><ele>306.2</ele><time>2026-04-12T09:54:29.236Z</time></trkpt><trkpt lat="43.7953" lon="12.85478"><ele>309.79999999999995</ele><time>2026-04-12T09:54:30.236Z</time></trkpt><trkpt lat="43.795305" lon="12.85465"><ele>313.4</ele><time>2026-04-12T09:54:31.236Z</time></trkpt><trkpt lat="43.7953083" lon="12.8545117"><ele>317.0</ele><time>2026-04-12T09:54:32.236Z</time></trkpt><trkpt lat="43.7953283" lon="12.8543783"><ele>316.6666666666667</ele><time>2026-04-12T09:54:33.236Z</time></trkpt><trkpt lat="43.7953567" lon="12.8542567"><ele>316.33333333333337</ele><time>2026-04-12T09:54:34.235Z</time></trkpt><trkpt lat="43.7953917" lon="12.8541567"><ele>316.0</ele><time>2026-04-12T09:54:35.236Z</time></trkpt><trkpt lat="43.7954383" lon="12.854075"><ele>315.6666666666667</ele><time>2026-04-12T09:54:36.235Z</time></trkpt><trkpt lat="43.7954883" lon="12.8540033"><ele>315.3333333333333</ele><time>2026-04-12T09:54:37.236Z</time></trkpt><trkpt lat="43.7955467" lon="12.8539483"><ele>315.0</ele><time>2026-04-12T09:54:38.236Z</time></trkpt><trkpt lat="43.7956117" lon="12.8539167"><ele>315.0</ele><time>2026-04-12T09:54:39.236Z</time></trkpt><trkpt lat="43.795685" lon="12.8539"><ele>315.0</ele><time>2026-04-12T09:54:40.236Z</time></trkpt><trkpt lat="43.7957667" lon="12.853885"><ele>315.0</ele><time>2026-04-12T09:54:41.236Z</time></trkpt><trkpt lat="43.7958567" lon="12.8538683"><ele>315.0</ele><time>2026-04-12T09:54:42.235Z</time></trkpt><trkpt lat="43.7959467" lon="12.8538567"><ele>315.0</ele><time>2026-04-12T09:54:43.236Z</time></trkpt><trkpt lat="43.7960383" lon="12.8538417"><ele>315.0</ele><time>2026-04-12T09:54:44.236Z</time></trkpt><trkpt lat="43.7961333" lon="12.85381"><ele>315.0</ele><time>2026-04-12T09:54:45.236Z</time></trkpt><trkpt lat="43.7962267" lon="12.8537683"><ele>315.0</ele><time>2026-04-12T09:54:46.236Z</time></trkpt><trkpt lat="43.7963133" lon="12.8537117"><ele>315.0</ele><time>2026-04-12T09:54:47.236Z</time></trkpt><trkpt lat="43.796405" lon="12.853655"><ele>315.0</ele><time>2026-04-12T09:54:48.236Z</time></trkpt><trkpt lat="43.7964917" lon="12.8535983"><ele>315.0</ele><time>2026-04-12T09:54:49.235Z</time></trkpt><trkpt lat="43.796575" lon="12.8535633"><ele>315.0</ele><time>2026-04-12T09:54:50.236Z</time></trkpt><trkpt lat="43.7966633" lon="12.85356"><ele>315.0</ele><time>2026-04-12T09:54:51.235Z</time></trkpt><trkpt lat="43.7967667" lon="12.8536567"><ele>315.0</ele><time>2026-04-12T09:54:52.236Z</time></trkpt><trkpt lat="43.7968767" lon="12.85378"><ele>315.0</ele><time>2026-04-12T09:54:53.236Z</time></trkpt><trkpt lat="43.79698" lon="12.85391"><ele>311.0</ele><time>2026-04-12T09:54:54.236Z</time></trkpt><trkpt lat="43.797065" lon="12.85403"><ele>307.0</ele><time>2026-04-12T09:54:55.235Z</time></trkpt><trkpt lat="43.797145" lon="12.8541433"><ele>303.0</ele><time>2026-04-12T09:54:56.236Z</time></trkpt><trkpt lat="43.7972267" lon="12.8542467"><ele>299.0</ele><time>2026-04-12T09:54:57.235Z</time></trkpt><trkpt lat="43.7973167" lon="12.854325"><ele>299.0</ele><time>2026-04-12T09:54:58.236Z</time></trkpt><trkpt lat="43.7974217" lon="12.8543583"><ele>299.0</ele><time>2026-04-12T09:54:59.236Z</time></trkpt><trkpt lat="43.7975383" lon="12.8543333"><ele>299.0</ele><time>2026-04-12T09:55:00.236Z</time></trkpt><trkpt lat="43.79765" lon="12.854255"><ele>299.0</ele><time>2026-04-12T09:55:01.235Z</time></trkpt><trkpt lat="43.797745" lon="12.8541533"><ele>298.5</ele><time>2026-04-12T09:55:02.236Z</time></trkpt><trkpt lat="43.7978367" lon="12.8540217"><ele>298.0</ele><time>2026-04-12T09:55:03.235Z</time></trkpt><trkpt lat="43.7979" lon="12.8538617"><ele>297.5</ele><time>2026-04-12T09:55:04.236Z</time></trkpt><trkpt lat="43.7979367" lon="12.853665"><ele>297.0</ele><time>2026-04-12T09:55:05.235Z</time></trkpt><trkpt lat="43.7979433" lon="12.853455"><ele>300.0</ele><time>2026-04-12T09:55:06.236Z</time></trkpt><trkpt lat="43.7979383" lon="12.8532533"><ele>303.0</ele><time>2026-04-12T09:55:07.236Z</time></trkpt><trkpt lat="43.7979317" lon="12.8530383"><ele>306.0</ele><time>2026-04-12T09:55:08.236Z</time></trkpt><trkpt lat="43.79792" lon="12.85282"><ele>304.75</ele><time>2026-04-12T09:55:09.236Z</time></trkpt><trkpt lat="43.7979083" lon="12.8526183"><ele>303.5</ele><time>2026-04-12T09:55:10.236Z</time></trkpt><trkpt lat="43.7978983" lon="12.8524217"><ele>302.25</ele><time>2026-04-12T09:55:11.236Z</time></trkpt><trkpt lat="43.7978833" lon="12.8522283"><ele>301.0</ele><time>2026-04-12T09:55:12.236Z</time></trkpt><trkpt lat="43.7978683" lon="12.8520633"><ele>301.0</ele><time>2026-04-12T09:55:13.235Z</time></trkpt><trkpt lat="43.797875" lon="12.85191"><ele>301.0</ele><time>2026-04-12T09:55:14.235Z</time></trkpt><trkpt lat="43.7979133" lon="12.8517783"><ele>301.0</ele><time>2026-04-12T09:55:15.236Z</time></trkpt><trkpt lat="43.79797" lon="12.8516667"><ele>301.0</ele><time>2026-04-12T09:55:16.236Z</time></trkpt><trkpt lat="43.7980367" lon="12.851595"><ele>301.0</ele><time>2026-04-12T09:55:17.236Z</time></trkpt><trkpt lat="43.79816" lon="12.851625"><ele>301.0</ele><time>2026-04-12T09:55:18.236Z</time></trkpt><trkpt lat="43.7982833" lon="12.8516867"><ele>301.0</ele><time>2026-04-12T09:55:19.236Z</time></trkpt><trkpt lat="43.7984133" lon="12.851745"><ele>301.0</ele><time>2026-04-12T09:55:20.235Z</time></trkpt><trkpt lat="43.7985567" lon="12.851795"><ele>301.0</ele><time>2026-04-12T09:55:21.236Z</time></trkpt><trkpt lat="43.79871" lon="12.8518283"><ele>301.0</ele><time>2026-04-12T09:55:22.235Z</time></trkpt><trkpt lat="43.7988733" lon="12.8518533"><ele>301.0</ele><time>2026-04-12T09:55:23.236Z</time></trkpt><trkpt lat="43.79904" lon="12.8518433"><ele>301.0</ele><time>2026-04-12T09:55:24.236Z</time></trkpt><trkpt lat="43.799205" lon="12.8518217"><ele>296.3333333333333</ele><time>2026-04-12T09:55:25.236Z</time></trkpt><trkpt lat="43.7993617" lon="12.8517767"><ele>291.6666666666667</ele><time>2026-04-12T09:55:26.236Z</time></trkpt><trkpt lat="43.7995217" lon="12.851705"><ele>287.0</ele><time>2026-04-12T09:55:27.236Z</time></trkpt><trkpt lat="43.7996517" lon="12.85162"><ele>287.0</ele><time>2026-04-12T09:55:28.235Z</time></trkpt><trkpt lat="43.79977" lon="12.8514883"><ele>287.0</ele><time>2026-04-12T09:55:29.236Z</time></trkpt><trkpt lat="43.7998333" lon="12.851315"><ele>287.0</ele><time>2026-04-12T09:55:30.236Z</time></trkpt><trkpt lat="43.799845" lon="12.851105"><ele>287.0</ele><time>2026-04-12T09:55:31.235Z</time></trkpt><trkpt lat="43.7998233" lon="12.8508917"><ele>284.6666666666667</ele><time>2026-04-12T09:55:32.236Z</time></trkpt><trkpt lat="43.7997817" lon="12.85068"><ele>282.3333333333333</ele><time>2026-04-12T09:55:33.236Z</time></trkpt><trkpt lat="43.7997417" lon="12.8504733"><ele>280.0</ele><time>2026-04-12T09:55:34.236Z</time></trkpt><trkpt lat="43.7997" lon="12.8502717"><ele>277.75</ele><time>2026-04-12T09:55:35.236Z</time></trkpt><trkpt lat="43.7996517" lon="12.850085"><ele>275.5</ele><time>2026-04-12T09:55:36.236Z</time></trkpt><trkpt lat="43.7996083" lon="12.84992"><ele>273.25</ele><time>2026-04-12T09:55:37.236Z</time></trkpt><trkpt lat="43.79959" lon="12.8497483"><ele>271.0</ele><time>2026-04-12T09:55:38.236Z</time></trkpt><trkpt lat="43.799595" lon="12.849615"><ele>271.0</ele><time>2026-04-12T09:55:39.236Z</time></trkpt><trkpt lat="43.7996533" lon="12.8495167"><ele>271.0</ele><time>2026-04-12T09:55:40.235Z</time></trkpt><trkpt lat="43.7997433" lon="12.8495017"><ele>271.0</ele><time>2026-04-12T09:55:41.235Z</time></trkpt><trkpt lat="43.79982" lon="12.8495467"><ele>271.0</ele><time>2026-04-12T09:55:42.236Z</time></trkpt><trkpt lat="43.7998983" lon="12.8496317"><ele>271.0</ele><time>2026-04-12T09:55:43.236Z</time></trkpt><trkpt lat="43.79998" lon="12.8497417"><ele>271.0</ele><time>2026-04-12T09:55:44.236Z</time></trkpt><trkpt lat="43.8000717" lon="12.8498483"><ele>271.0</ele><time>2026-04-12T09:55:45.236Z</time></trkpt><trkpt lat="43.80017" lon="12.8499267"><ele>271.0</ele><time>2026-04-12T09:55:46.236Z</time></trkpt><trkpt lat="43.8002917" lon="12.8499717"><ele>271.0</ele><time>2026-04-12T09:55:47.236Z</time></trkpt><trkpt lat="43.800425" lon="12.84998"><ele>269.66666666666663</ele><time>2026-04-12T09:55:48.236Z</time></trkpt><trkpt lat="43.8005717" lon="12.8499533"><ele>268.3333333333333</ele><time>2026-04-12T09:55:49.236Z</time></trkpt><trkpt lat="43.8007167" lon="12.849895"><ele>267.0</ele><time>2026-04-12T09:55:50.235Z</time></trkpt><trkpt lat="43.800855" lon="12.84981"><ele>267.0</ele><time>2026-04-12T09:55:51.235Z</time></trkpt><trkpt lat="43.8009883" lon="12.8497117"><ele>267.0</ele><time>2026-04-12T09:55:52.236Z</time></trkpt><trkpt lat="43.80111" lon="12.8495867"><ele>267.0</ele><time>2026-04-12T09:55:53.236Z</time></trkpt><trkpt lat="43.8012283" lon="12.8494433"><ele>264.3333333333333</ele><time>2026-04-12T09:55:54.236Z</time></trkpt><trkpt lat="43.8013517" lon="12.8492817"><ele>261.66666666666663</ele><time>2026-04-12T09:55:55.236Z</time></trkpt><trkpt lat="43.8014717" lon="12.8491183"><ele>259.0</ele><time>2026-04-12T09:55:56.236Z</time></trkpt><trkpt lat="43.8015983" lon="12.848965"><ele>259.0</ele><time>2026-04-12T09:55:57.235Z</time></trkpt><trkpt lat="43.8017183" lon="12.8488017"><ele>259.0</ele><time>2026-04-12T09:55:58.236Z</time></trkpt><trkpt lat="43.8018383" lon="12.8486483"><ele>259.0</ele><time>2026-04-12T09:55:59.235Z</time></trkpt><trkpt lat="43.8019617" lon="12.8485117"><ele>259.0</ele><time>2026-04-12T09:56:00.235Z</time></trkpt><trkpt lat="43.802065" lon="12.848365"><ele>259.0</ele><time>2026-04-12T09:56:01.236Z</time></trkpt><trkpt lat="43.8021367" lon="12.8482017"><ele>259.0</ele><time>2026-04-12T09:56:02.235Z</time></trkpt><trkpt lat="43.8021933" lon="12.8480367"><ele>259.0</ele><time>2026-04-12T09:56:03.236Z</time></trkpt><trkpt lat="43.802255" lon="12.8478783"><ele>259.0</ele><time>2026-04-12T09:56:04.236Z</time></trkpt><trkpt lat="43.8023283" lon="12.8477433"><ele>259.0</ele><time>2026-04-12T09:56:05.235Z</time></trkpt><trkpt lat="43.8024317" lon="12.8476683"><ele>259.0</ele><time>2026-04-12T09:56:06.235Z</time></trkpt><trkpt lat="43.8025467" lon="12.84763"><ele>259.0</ele><time>2026-04-12T09:56:07.235Z</time></trkpt><trkpt lat="43.8026833" lon="12.8476433"><ele>259.3333333333333</ele><time>2026-04-12T09:56:08.236Z</time></trkpt><trkpt lat="43.80283" lon="12.84766"><ele>259.6666666666667</ele><time>2026-04-12T09:56:09.236Z</time></trkpt><trkpt lat="43.8029883" lon="12.8476283"><ele>260.0</ele><time>2026-04-12T09:56:10.235Z</time></trkpt><trkpt lat="43.8031467" lon="12.8475683"><ele>252.33333333333334</ele><time>2026-04-12T09:56:11.236Z</time></trkpt><trkpt lat="43.8033017" lon="12.8475017"><ele>244.66666666666669</ele><time>2026-04-12T09:56:12.235Z</time></trkpt><trkpt lat="43.8034633" lon="12.8474317"><ele>237.0</ele><time>2026-04-12T09:56:13.236Z</time></trkpt><trkpt lat="43.8036217" lon="12.847385"><ele>237.0</ele><time>2026-04-12T09:56:14.236Z</time></trkpt><trkpt lat="43.8037867" lon="12.847375"><ele>237.0</ele><time>2026-04-12T09:56:15.236Z</time></trkpt><trkpt lat="43.8039383" lon="12.8473517"><ele>237.0</ele><time>2026-04-12T09:56:16.236Z</time></trkpt><trkpt lat="43.8040967" lon="12.8472867"><ele>237.0</ele><time>2026-04-12T09:56:17.236Z</time></trkpt><trkpt lat="43.8042317" lon="12.8471767"><ele>237.0</ele><time>2026-04-12T09:56:18.236Z</time></trkpt><trkpt lat="43.8043333" lon="12.847035"><ele>237.0</ele><time>2026-04-12T09:56:19.236Z</time></trkpt><trkpt lat="43.8044283" lon="12.8468567"><ele>235.0</ele><time>2026-04-12T09:56:20.236Z</time></trkpt><trkpt lat="43.80453" lon="12.8466717"><ele>233.0</ele><time>2026-04-12T09:56:21.236Z</time></trkpt><trkpt lat="43.8046217" lon="12.8464883"><ele>231.0</ele><time>2026-04-12T09:56:22.236Z</time></trkpt><trkpt lat="43.8047067" lon="12.8463033"><ele>231.0</ele><time>2026-04-12T09:56:23.236Z</time></trkpt><trkpt lat="43.8047667" lon="12.8460967"><ele>231.0</ele><time>2026-04-12T09:56:24.236Z</time></trkpt><trkpt lat="43.8048017" lon="12.8458717"><ele>231.0</ele><time>2026-04-12T09:56:25.236Z</time></trkpt><trkpt lat="43.8048133" lon="12.84565"><ele>228.33333333333331</ele><time>2026-04-12T09:56:26.235Z</time></trkpt><trkpt lat="43.804825" lon="12.84543"><ele>225.66666666666666</ele><time>2026-04-12T09:56:27.235Z</time></trkpt><trkpt lat="43.804845" lon="12.8452133"><ele>223.0</ele><time>2026-04-12T09:56:28.235Z</time></trkpt><trkpt lat="43.80487" lon="12.8450067"><ele>221.25</ele><time>2026-04-12T09:56:29.236Z</time></trkpt><trkpt lat="43.8049017" lon="12.844835"><ele>219.5</ele><time>2026-04-12T09:56:30.235Z</time></trkpt><trkpt lat="43.804965" lon="12.8446833"><ele>217.75</ele><time>2026-04-12T09:56:31.236Z</time></trkpt><trkpt lat="43.8050467" lon="12.844565"><ele>216.0</ele><time>2026-04-12T09:56:32.236Z</time></trkpt><trkpt lat="43.80514" lon="12.8444917"><ele>215.25</ele><time>2026-04-12T09:56:33.236Z</time></trkpt><trkpt lat="43.80526" lon="12.8444883"><ele>214.5</ele><time>2026-04-12T09:56:34.236Z</time></trkpt><trkpt lat="43.80538" lon="12.84454"><ele>213.75</ele><time>2026-04-12T09:56:35.236Z</time></trkpt><trkpt lat="43.8054933" lon="12.8446"><ele>213.0</ele><time>2026-04-12T09:56:36.236Z</time></trkpt><trkpt lat="43.8056" lon="12.8446517"><ele>213.0</ele><time>2026-04-12T09:56:37.235Z</time></trkpt><trkpt lat="43.805715" lon="12.8446933"><ele>213.0</ele><time>2026-04-12T09:56:38.236Z</time></trkpt><trkpt lat="43.805825" lon="12.8447283"><ele>213.0</ele><time>2026-04-12T09:56:39.236Z</time></trkpt><trkpt lat="43.8059117" lon="12.844735"><ele>213.0</ele><time>2026-04-12T09:56:40.236Z</time></trkpt><trkpt lat="43.8059917" lon="12.84473"><ele>213.0</ele><time>2026-04-12T09:56:41.236Z</time></trkpt><trkpt lat="43.8060067" lon="12.8446367"><ele>213.0</ele><time>2026-04-12T09:56:42.236Z</time></trkpt><trkpt lat="43.8059833" lon="12.8445283"><ele>213.0</ele><time>2026-04-12T09:56:43.235Z</time></trkpt><trkpt lat="43.8059417" lon="12.844415"><ele>213.0</ele><time>2026-04-12T09:56:44.236Z</time></trkpt><trkpt lat="43.80587" lon="12.8443"><ele>213.0</ele><time>2026-04-12T09:56:45.236Z</time></trkpt><trkpt lat="43.80579" lon="12.8441767"><ele>213.0</ele><time>2026-04-12T09:56:46.235Z</time></trkpt><trkpt lat="43.8057383" lon="12.8440367"><ele>209.25</ele><time>2026-04-12T09:56:47.235Z</time></trkpt><trkpt lat="43.8056767" lon="12.843865"><ele>205.5</ele><time>2026-04-12T09:56:48.235Z</time></trkpt><trkpt lat="43.8056417" lon="12.84368"><ele>201.75</ele><time>2026-04-12T09:56:49.235Z</time></trkpt><trkpt lat="43.8056017" lon="12.8435067"><ele>198.0</ele><time>2026-04-12T09:56:50.236Z</time></trkpt><trkpt lat="43.80554" lon="12.8433483"><ele>196.5</ele><time>2026-04-12T09:56:51.236Z</time></trkpt><trkpt lat="43.8054733" lon="12.8432083"><ele>195.0</ele><time>2026-04-12T09:56:52.236Z</time></trkpt><trkpt lat="43.8053833" lon="12.8430833"><ele>193.5</ele><time>2026-04-12T09:56:53.236Z</time></trkpt><trkpt lat="43.8052783" lon="12.8429933"><ele>192.0</ele><time>2026-04-12T09:56:54.236Z</time></trkpt><trkpt lat="43.8051567" lon="12.8429233"><ele>192.0</ele><time>2026-04-12T09:56:55.236Z</time></trkpt><trkpt lat="43.8050283" lon="12.8428933"><ele>192.0</ele><time>2026-04-12T09:56:56.236Z</time></trkpt><trkpt lat="43.8048767" lon="12.8429133"><ele>192.0</ele><time>2026-04-12T09:56:57.236Z</time></trkpt><trkpt lat="43.804735" lon="12.8429617"><ele>192.0</ele><time>2026-04-12T09:56:58.235Z</time></trkpt><trkpt lat="43.8045883" lon="12.8430267"><ele>192.0</ele><time>2026-04-12T09:56:59.236Z</time></trkpt><trkpt lat="43.8044467" lon="12.84311"><ele>192.0</ele><time>2026-04-12T09:57:00.236Z</time></trkpt><trkpt lat="43.80432" lon="12.843215"><ele>192.0</ele><time>2026-04-12T09:57:01.236Z</time></trkpt><trkpt lat="43.80421" lon="12.8433283"><ele>192.0</ele><time>2026-04-12T09:57:02.235Z</time></trkpt><trkpt lat="43.804105" lon="12.8434317"><ele>191.5</ele><time>2026-04-12T09:57:03.236Z</time></trkpt><trkpt lat="43.8040233" lon="12.8435217"><ele>191.0</ele><time>2026-04-12T09:57:04.236Z</time></trkpt><trkpt lat="43.8039467" lon="12.8435833"><ele>190.5</ele><time>2026-04-12T09:57:05.235Z</time></trkpt><trkpt lat="43.80387" lon="12.8435967"><ele>190.0</ele><time>2026-04-12T09:57:06.235Z</time></trkpt><trkpt lat="43.8038117" lon="12.8435517"><ele>189.5</ele><time>2026-04-12T09:57:07.236Z</time></trkpt><trkpt lat="43.8037967" lon="12.8434567"><ele>189.0</ele><time>2026-04-12T09:57:08.235Z</time></trkpt><trkpt lat="43.8038" lon="12.843365"><ele>186.5</ele><time>2026-04-12T09:57:09.236Z</time></trkpt><trkpt lat="43.803885" lon="12.8432533"><ele>184.0</ele><time>2026-04-12T09:57:10.236Z</time></trkpt><trkpt lat="43.803985" lon="12.8431383"><ele>181.5</ele><time>2026-04-12T09:57:11.236Z</time></trkpt><trkpt lat="43.804095" lon="12.843015"><ele>179.0</ele><time>2026-04-12T09:57:12.235Z</time></trkpt><trkpt lat="43.8042133" lon="12.8428883"><ele>177.0</ele><time>2026-04-12T09:57:13.235Z</time></trkpt><trkpt lat="43.8043333" lon="12.8427617"><ele>175.0</ele><time>2026-04-12T09:57:14.236Z</time></trkpt><trkpt lat="43.8044633" lon="12.8426383"><ele>173.0</ele><time>2026-04-12T09:57:15.235Z</time></trkpt><trkpt lat="43.8046017" lon="12.8425067"><ele>173.0</ele><time>2026-04-12T09:57:16.236Z</time></trkpt><trkpt lat="43.8047367" lon="12.8423817"><ele>173.0</ele><time>2026-04-12T09:57:17.236Z</time></trkpt><trkpt lat="43.80488" lon="12.8422633"><ele>173.0</ele><time>2026-04-12T09:57:18.236Z</time></trkpt><trkpt lat="43.8050217" lon="12.8421633"><ele>173.0</ele><time>2026-04-12T09:57:19.236Z</time></trkpt><trkpt lat="43.8051583" lon="12.8420667"><ele>173.0</ele><time>2026-04-12T09:57:20.236Z</time></trkpt><trkpt lat="43.8053067" lon="12.8419833"><ele>173.0</ele><time>2026-04-12T09:57:21.236Z</time></trkpt><trkpt lat="43.8054283" lon="12.8418833"><ele>170.0</ele><time>2026-04-12T09:57:22.236Z</time></trkpt><trkpt lat="43.8055333" lon="12.8417483"><ele>167.0</ele><time>2026-04-12T09:57:23.236Z</time></trkpt><trkpt lat="43.8056183" lon="12.8415967"><ele>164.0</ele><time>2026-04-12T09:57:24.236Z</time></trkpt><trkpt lat="43.805705" lon="12.8414517"><ele>161.0</ele><time>2026-04-12T09:57:25.236Z</time></trkpt><trkpt lat="43.8058" lon="12.841345"><ele>161.0</ele><time>2026-04-12T09:57:26.236Z</time></trkpt><trkpt lat="43.80592" lon="12.8412833"><ele>161.0</ele><time>2026-04-12T09:57:27.236Z</time></trkpt><trkpt lat="43.8060667" lon="12.8412867"><ele>161.0</ele><time>2026-04-12T09:57:28.235Z</time></trkpt><trkpt lat="43.806225" lon="12.8413167"><ele>161.0</ele><time>2026-04-12T09:57:29.236Z</time></trkpt><trkpt lat="43.806385" lon="12.84133"><ele>159.33333333333331</ele><time>2026-04-12T09:57:30.236Z</time></trkpt><trkpt lat="43.8065383" lon="12.84136"><ele>157.66666666666666</ele><time>2026-04-12T09:57:31.236Z</time></trkpt><trkpt lat="43.80669" lon="12.8413967"><ele>156.0</ele><time>2026-04-12T09:57:32.236Z</time></trkpt><trkpt lat="43.806835" lon="12.841475"><ele>154.5</ele><time>2026-04-12T09:57:33.236Z</time></trkpt><trkpt lat="43.8069683" lon="12.8415717"><ele>153.0</ele><time>2026-04-12T09:57:34.236Z</time></trkpt><trkpt lat="43.80709" lon="12.8416933"><ele>151.5</ele><time>2026-04-12T09:57:35.236Z</time></trkpt><trkpt lat="43.80721" lon="12.8417767"><ele>150.0</ele><time>2026-04-12T09:57:36.235Z</time></trkpt><trkpt lat="43.8073533" lon="12.8418067"><ele>148.0</ele><time>2026-04-12T09:57:37.236Z</time></trkpt><trkpt lat="43.80751" lon="12.841795"><ele>146.0</ele><time>2026-04-12T09:57:38.235Z</time></trkpt><trkpt lat="43.807675" lon="12.84174"><ele>144.0</ele><time>2026-04-12T09:57:39.236Z</time></trkpt><trkpt lat="43.8078183" lon="12.8416783"><ele>142.25</ele><time>2026-04-12T09:57:40.236Z</time></trkpt><trkpt lat="43.80795" lon="12.841615"><ele>140.5</ele><time>2026-04-12T09:57:41.235Z</time></trkpt><trkpt lat="43.808065" lon="12.8415567"><ele>138.75</ele><time>2026-04-12T09:57:42.236Z</time></trkpt><trkpt lat="43.80815" lon="12.8414967"><ele>137.0</ele><time>2026-04-12T09:57:43.236Z</time></trkpt><trkpt lat="43.8082167" lon="12.8413983"><ele>137.0</ele><time>2026-04-12T09:57:44.236Z</time></trkpt><trkpt lat="43.8082283" lon="12.84127"><ele>137.0</ele><time>2026-04-12T09:57:45.235Z</time></trkpt><trkpt lat="43.8081967" lon="12.8411383"><ele>137.0</ele><time>2026-04-12T09:57:46.236Z</time></trkpt><trkpt lat="43.8081233" lon="12.841035"><ele>137.0</ele><time>2026-04-12T09:57:47.235Z</time></trkpt><trkpt lat="43.8080317" lon="12.8409667"><ele>137.0</ele><time>2026-04-12T09:57:48.235Z</time></trkpt><trkpt lat="43.8079133" lon="12.8409133"><ele>136.5</ele><time>2026-04-12T09:57:49.236Z</time></trkpt><trkpt lat="43.8077933" lon="12.8408717"><ele>136.0</ele><time>2026-04-12T09:57:50.235Z</time></trkpt><trkpt lat="43.8076833" lon="12.84083"><ele>135.5</ele><time>2026-04-12T09:57:51.236Z</time></trkpt><trkpt lat="43.80758" lon="12.84079"><ele>135.0</ele><time>2026-04-12T09:57:52.236Z</time></trkpt><trkpt lat="43.80748" lon="12.8407383"><ele>135.0</ele><time>2026-04-12T09:57:53.236Z</time></trkpt><trkpt lat="43.807385" lon="12.8406533"><ele>135.0</ele><time>2026-04-12T09:57:54.236Z</time></trkpt><trkpt lat="43.8073083" lon="12.8405367"><ele>135.0</ele><time>2026-04-12T09:57:55.236Z</time></trkpt><trkpt lat="43.8072567" lon="12.84038"><ele>135.0</ele><time>2026-04-12T09:57:56.236Z</time></trkpt><trkpt lat="43.8072267" lon="12.8401967"><ele>131.66666666666666</ele><time>2026-04-12T09:57:57.236Z</time></trkpt><trkpt lat="43.8072083" lon="12.8399883"><ele>128.33333333333331</ele><time>2026-04-12T09:57:58.236Z</time></trkpt><trkpt lat="43.8072" lon="12.83977"><ele>125.0</ele><time>2026-04-12T09:57:59.235Z</time></trkpt><trkpt lat="43.807195" lon="12.8395517"><ele>125.0</ele><time>2026-04-12T09:58:00.235Z</time></trkpt><trkpt lat="43.8072067" lon="12.8393383"><ele>125.0</ele><time>2026-04-12T09:58:01.236Z</time></trkpt><trkpt lat="43.8072367" lon="12.83914"><ele>125.0</ele><time>2026-04-12T09:58:02.236Z</time></trkpt><trkpt lat="43.80731" lon="12.8389367"><ele>123.33333333333333</ele><time>2026-04-12T09:58:03.236Z</time></trkpt><trkpt lat="43.8074017" lon="12.838735"><ele>121.66666666666666</ele><time>2026-04-12T09:58:04.236Z</time></trkpt><trkpt lat="43.80751" lon="12.838535"><ele>120.0</ele><time>2026-04-12T09:58:05.236Z</time></trkpt><trkpt lat="43.8076183" lon="12.8383317"><ele>118.66666666666666</ele><time>2026-04-12T09:58:06.236Z</time></trkpt><trkpt lat="43.8077" lon="12.8381467"><ele>117.33333333333333</ele><time>2026-04-12T09:58:07.236Z</time></trkpt><trkpt lat="43.8077867" lon="12.83796"><ele>116.0</ele><time>2026-04-12T09:58:08.235Z</time></trkpt><trkpt lat="43.8078717" lon="12.8377717"><ele>116.5</ele><time>2026-04-12T09:58:09.235Z</time></trkpt><trkpt lat="43.807965" lon="12.8375917"><ele>117.0</ele><time>2026-04-12T09:58:10.236Z</time></trkpt><trkpt lat="43.808045" lon="12.8374183"><ele>117.5</ele><time>2026-04-12T09:58:11.236Z</time></trkpt><trkpt lat="43.8081133" lon="12.83725"><ele>118.0</ele><time>2026-04-12T09:58:12.235Z</time></trkpt><trkpt lat="43.808155" lon="12.8370783"><ele>118.0</ele><time>2026-04-12T09:58:13.236Z</time></trkpt><trkpt lat="43.80816" lon="12.8368967"><ele>118.0</ele><time>2026-04-12T09:58:14.236Z</time></trkpt><trkpt lat="43.8081267" lon="12.8367283"><ele>118.0</ele><time>2026-04-12T09:58:15.235Z</time></trkpt><trkpt lat="43.8080467" lon="12.8365733"><ele>118.0</ele><time>2026-04-12T09:58:16.236Z</time></trkpt><trkpt lat="43.8079317" lon="12.8364467"><ele>118.25</ele><time>2026-04-12T09:58:17.236Z</time></trkpt><trkpt lat="43.8078017" lon="12.8363417"><ele>118.5</ele><time>2026-04-12T09:58:18.236Z</time></trkpt><trkpt lat="43.80766" lon="12.8362767"><ele>118.75</ele><time>2026-04-12T09:58:19.235Z</time></trkpt><trkpt lat="43.8075283" lon="12.836225"><ele>119.0</ele><time>2026-04-12T09:58:20.236Z</time></trkpt><trkpt lat="43.8073967" lon="12.83619"><ele>119.0</ele><time>2026-04-12T09:58:21.235Z</time></trkpt><trkpt lat="43.807285" lon="12.8361233"><ele>119.0</ele><time>2026-04-12T09:58:22.236Z</time></trkpt><trkpt lat="43.8071833" lon="12.8360333"><ele>119.0</ele><time>2026-04-12T09:58:23.236Z</time></trkpt><trkpt lat="43.807145" lon="12.8358867"><ele>119.0</ele><time>2026-04-12T09:58:24.235Z</time></trkpt><trkpt lat="43.8071283" lon="12.8357317"><ele>123.0</ele><time>2026-04-12T09:58:25.236Z</time></trkpt><trkpt lat="43.8071367" lon="12.8355583"><ele>127.0</ele><time>2026-04-12T09:58:26.236Z</time></trkpt><trkpt lat="43.8071667" lon="12.8353567"><ele>131.0</ele><time>2026-04-12T09:58:27.236Z</time></trkpt><trkpt lat="43.8071917" lon="12.8351417"><ele>135.0</ele><time>2026-04-12T09:58:28.236Z</time></trkpt><trkpt lat="43.8072267" lon="12.834915"><ele>136.33333333333334</ele><time>2026-04-12T09:58:29.236Z</time></trkpt><trkpt lat="43.8072533" lon="12.8346933"><ele>137.66666666666669</ele><time>2026-04-12T09:58:30.236Z</time></trkpt><trkpt lat="43.8072783" lon="12.83448"><ele>139.0</ele><time>2026-04-12T09:58:31.235Z</time></trkpt><trkpt lat="43.8073033" lon="12.8342667"><ele>139.0</ele><time>2026-04-12T09:58:32.236Z</time></trkpt><trkpt lat="43.8073333" lon="12.83406"><ele>139.0</ele><time>2026-04-12T09:58:33.235Z</time></trkpt><trkpt lat="43.8073767" lon="12.8338583"><ele>139.0</ele><time>2026-04-12T09:58:34.235Z</time></trkpt><trkpt lat="43.807435" lon="12.8336467"><ele>136.33333333333334</ele><time>2026-04-12T09:58:35.236Z</time></trkpt><trkpt lat="43.8075117" lon="12.833435"><ele>133.66666666666666</ele><time>2026-04-12T09:58:36.236Z</time></trkpt><trkpt lat="43.8075933" lon="12.8332417"><ele>131.0</ele><time>2026-04-12T09:58:37.236Z</time></trkpt><trkpt lat="43.807675" lon="12.8330617"><ele>136.0</ele><time>2026-04-12T09:58:38.235Z</time></trkpt><trkpt lat="43.8077567" lon="12.83289"><ele>141.0</ele><time>2026-04-12T09:58:39.235Z</time></trkpt><trkpt lat="43.8078533" lon="12.8327217"><ele>146.0</ele><time>2026-04-12T09:58:40.236Z</time></trkpt><trkpt lat="43.807965" lon="12.8325767"><ele>146.0</ele><time>2026-04-12T09:58:41.236Z</time></trkpt><trkpt lat="43.8080783" lon="12.83245"><ele>146.0</ele><time>2026-04-12T09:58:42.236Z</time></trkpt><trkpt lat="43.8081833" lon="12.8323167"><ele>146.0</ele><time>2026-04-12T09:58:43.236Z</time></trkpt><trkpt lat="43.808275" lon="12.8321567"><ele>146.0</ele><time>2026-04-12T09:58:44.236Z</time></trkpt><trkpt lat="43.808345" lon="12.83198"><ele>146.0</ele><time>2026-04-12T09:58:45.235Z</time></trkpt><trkpt lat="43.8083967" lon="12.8318133"><ele>146.0</ele><time>2026-04-12T09:58:46.235Z</time></trkpt><trkpt lat="43.80843" lon="12.8316483"><ele>146.0</ele><time>2026-04-12T09:58:47.235Z</time></trkpt><trkpt lat="43.8084583" lon="12.8315067"><ele>146.0</ele><time>2026-04-12T09:58:48.235Z</time></trkpt><trkpt lat="43.8084767" lon="12.8313733"><ele>148.66666666666666</ele><time>2026-04-12T09:58:49.236Z</time></trkpt><trkpt lat="43.8084983" lon="12.83125"><ele>151.33333333333331</ele><time>2026-04-12T09:58:50.236Z</time></trkpt><trkpt lat="43.80852" lon="12.8311417"><ele>154.0</ele><time>2026-04-12T09:58:51.236Z</time></trkpt><trkpt lat="43.8085517" lon="12.83104"><ele>156.66666666666666</ele><time>2026-04-12T09:58:52.235Z</time></trkpt><trkpt lat="43.8085867" lon="12.8309467"><ele>159.33333333333334</ele><time>2026-04-12T09:58:53.236Z</time></trkpt><trkpt lat="43.8086183" lon="12.8308567"><ele>162.0</ele><time>2026-04-12T09:58:54.236Z</time></trkpt><trkpt lat="43.8086567" lon="12.83075"><ele>162.0</ele><time>2026-04-12T09:58:55.236Z</time></trkpt><trkpt lat="43.8087083" lon="12.8306317"><ele>162.0</ele><time>2026-04-12T09:58:56.235Z</time></trkpt><trkpt lat="43.8087767" lon="12.8304933"><ele>162.0</ele><time>2026-04-12T09:58:57.236Z</time></trkpt><trkpt lat="43.808855" lon="12.8303433"><ele>162.0</ele><time>2026-04-12T09:58:58.236Z</time></trkpt><trkpt lat="43.8089433" lon="12.830195"><ele>162.75</ele><time>2026-04-12T09:58:59.236Z</time></trkpt><trkpt lat="43.8090433" lon="12.8300567"><ele>163.5</ele><time>2026-04-12T09:59:00.236Z</time></trkpt><trkpt lat="43.8091533" lon="12.829915"><ele>164.25</ele><time>2026-04-12T09:59:01.236Z</time></trkpt><trkpt lat="43.809255" lon="12.829795"><ele>165.0</ele><time>2026-04-12T09:59:02.236Z</time></trkpt><trkpt lat="43.8093533" lon="12.8296983"><ele>165.0</ele><time>2026-04-12T09:59:03.236Z</time></trkpt><trkpt lat="43.8094667" lon="12.8296333"><ele>165.0</ele><time>2026-04-12T09:59:04.236Z</time></trkpt><trkpt lat="43.8095783" lon="12.8296083"><ele>165.0</ele><time>2026-04-12T09:59:05.236Z</time></trkpt><trkpt lat="43.8097" lon="12.8296033"><ele>165.0</ele><time>2026-04-12T09:59:06.236Z</time></trkpt><trkpt lat="43.8098233" lon="12.829595"><ele>165.0</ele><time>2026-04-12T09:59:07.236Z</time></trkpt><trkpt lat="43.809935" lon="12.829585"><ele>165.0</ele><time>2026-04-12T09:59:08.236Z</time></trkpt><trkpt lat="43.81005" lon="12.8295783"><ele>165.0</ele><time>2026-04-12T09:59:09.236Z</time></trkpt><trkpt lat="43.810155" lon="12.8295567"><ele>165.0</ele><time>2026-04-12T09:59:10.235Z</time></trkpt><trkpt lat="43.8102667" lon="12.8295283"><ele>165.0</ele><time>2026-04-12T09:59:11.235Z</time></trkpt><trkpt lat="43.810365" lon="12.8294683"><ele>164.6</ele><time>2026-04-12T09:59:12.235Z</time></trkpt><trkpt lat="43.8104183" lon="12.8293683"><ele>164.2</ele><time>2026-04-12T09:59:13.236Z</time></trkpt><trkpt lat="43.8104217" lon="12.82925"><ele>163.8</ele><time>2026-04-12T09:59:14.236Z</time></trkpt><trkpt lat="43.8103667" lon="12.8291383"><ele>163.4</ele><time>2026-04-12T09:59:15.235Z</time></trkpt><trkpt lat="43.810285" lon="12.8290567"><ele>163.0</ele><time>2026-04-12T09:59:16.236Z</time></trkpt><trkpt lat="43.81019" lon="12.8289767"><ele>161.6</ele><time>2026-04-12T09:59:17.236Z</time></trkpt><trkpt lat="43.8101017" lon="12.8288917"><ele>160.20000000000002</ele><time>2026-04-12T09:59:18.236Z</time></trkpt><trkpt lat="43.81003" lon="12.828795"><ele>158.8</ele><time>2026-04-12T09:59:19.236Z</time></trkpt><trkpt lat="43.8100017" lon="12.8286833"><ele>157.4</ele><time>2026-04-12T09:59:20.236Z</time></trkpt><trkpt lat="43.81003" lon="12.828565"><ele>156.0</ele><time>2026-04-12T09:59:21.235Z</time></trkpt><trkpt lat="43.8100883" lon="12.8284733"><ele>160.5</ele><time>2026-04-12T09:59:22.236Z</time></trkpt><trkpt lat="43.8101783" lon="12.82838"><ele>165.0</ele><time>2026-04-12T09:59:23.236Z</time></trkpt><trkpt lat="43.8102767" lon="12.8282983"><ele>169.5</ele><time>2026-04-12T09:59:24.235Z</time></trkpt><trkpt lat="43.8103767" lon="12.8282067"><ele>174.0</ele><time>2026-04-12T09:59:25.236Z</time></trkpt><trkpt lat="43.8104683" lon="12.828095"><ele>174.0</ele><time>2026-04-12T09:59:26.235Z</time></trkpt><trkpt lat="43.81054" lon="12.827955"><ele>174.0</ele><time>2026-04-12T09:59:27.236Z</time></trkpt><trkpt lat="43.8105883" lon="12.827785"><ele>174.0</ele><time>2026-04-12T09:59:28.235Z</time></trkpt><trkpt lat="43.8106233" lon="12.8275983"><ele>174.0</ele><time>2026-04-12T09:59:29.235Z</time></trkpt><trkpt lat="43.8106567" lon="12.827415"><ele>173.6</ele><time>2026-04-12T09:59:30.236Z</time></trkpt><trkpt lat="43.8106867" lon="12.8272533"><ele>173.2</ele><time>2026-04-12T09:59:31.236Z</time></trkpt><trkpt lat="43.8107367" lon="12.8271067"><ele>172.79999999999998</ele><time>2026-04-12T09:59:32.235Z</time></trkpt><trkpt lat="43.8108067" lon="12.8270017"><ele>172.39999999999998</ele><time>2026-04-12T09:59:33.236Z</time></trkpt><trkpt lat="43.8109" lon="12.8269333"><ele>172.0</ele><time>2026-04-12T09:59:34.236Z</time></trkpt><trkpt lat="43.8110433" lon="12.8269133"><ele>176.75</ele><time>2026-04-12T09:59:35.236Z</time></trkpt><trkpt lat="43.811195" lon="12.8269067"><ele>181.5</ele><time>2026-04-12T09:59:36.235Z</time></trkpt><trkpt lat="43.8113417" lon="12.826905"><ele>186.25</ele><time>2026-04-12T09:59:37.236Z</time></trkpt><trkpt lat="43.8114917" lon="12.8269"><ele>191.0</ele><time>2026-04-12T09:59:38.236Z</time></trkpt><trkpt lat="43.8116483" lon="12.8269033"><ele>191.0</ele><time>2026-04-12T09:59:39.236Z</time></trkpt><trkpt lat="43.8117983" lon="12.8269483"><ele>191.0</ele><time>2026-04-12T09:59:40.235Z</time></trkpt><trkpt lat="43.81196" lon="12.8270183"><ele>191.0</ele><time>2026-04-12T09:59:41.236Z</time></trkpt><trkpt lat="43.8121633" lon="12.82704"><ele>194.0</ele><time>2026-04-12T09:59:42.235Z</time></trkpt><trkpt lat="43.8123483" lon="12.8270667"><ele>197.0</ele><time>2026-04-12T09:59:43.235Z</time></trkpt><trkpt lat="43.8125583" lon="12.8270567"><ele>200.0</ele><time>2026-04-12T09:59:44.236Z</time></trkpt><trkpt lat="43.8127633" lon="12.827035"><ele>201.33333333333334</ele><time>2026-04-12T09:59:45.236Z</time></trkpt><trkpt lat="43.8129683" lon="12.8270217"><ele>202.66666666666669</ele><time>2026-04-12T09:59:46.235Z</time></trkpt><trkpt lat="43.8131567" lon="12.8270067"><ele>204.0</ele><time>2026-04-12T09:59:47.235Z</time></trkpt><trkpt lat="43.81334" lon="12.8269783"><ele>204.33333333333331</ele><time>2026-04-12T09:59:48.236Z</time></trkpt><trkpt lat="43.8135017" lon="12.8269417"><ele>204.66666666666666</ele><time>2026-04-12T09:59:49.236Z</time></trkpt><trkpt lat="43.8136567" lon="12.8269167"><ele>205.0</ele><time>2026-04-12T09:59:50.236Z</time></trkpt><trkpt lat="43.813795" lon="12.826925"><ele>205.0</ele><time>2026-04-12T09:59:51.236Z</time></trkpt><trkpt lat="43.8139183" lon="12.8269783"><ele>205.0</ele><time>2026-04-12T09:59:52.236Z</time></trkpt><trkpt lat="43.814035" lon="12.827075"><ele>205.0</ele><time>2026-04-12T09:59:53.235Z</time></trkpt><trkpt lat="43.8141483" lon="12.8271783"><ele>205.0</ele><time>2026-04-12T09:59:54.236Z</time></trkpt><trkpt lat="43.8142567" lon="12.8272917"><ele>205.5</ele><time>2026-04-12T09:59:55.235Z</time></trkpt><trkpt lat="43.814375" lon="12.827375"><ele>206.0</ele><time>2026-04-12T09:59:56.236Z</time></trkpt><trkpt lat="43.814515" lon="12.8274117"><ele>206.5</ele><time>2026-04-12T09:59:57.236Z</time></trkpt><trkpt lat="43.8146583" lon="12.8273967"><ele>207.0</ele><time>2026-04-12T09:59:58.236Z</time></trkpt><trkpt lat="43.8148167" lon="12.8273783"><ele>207.0</ele><time>2026-04-12T09:59:59.236Z</time></trkpt><trkpt lat="43.8150033" lon="12.8273317"><ele>207.0</ele><time>2026-04-12T10:00:00.236Z</time></trkpt><trkpt lat="43.8151833" lon="12.8272867"><ele>207.0</ele><time>2026-04-12T10:00:01.235Z</time></trkpt><trkpt lat="43.81538" lon="12.8272433"><ele>209.66666666666669</ele><time>2026-04-12T10:00:02.236Z</time></trkpt><trkpt lat="43.8155733" lon="12.8272033"><ele>212.33333333333334</ele><time>2026-04-12T10:00:03.236Z</time></trkpt><trkpt lat="43.8157767" lon="12.8271617"><ele>215.0</ele><time>2026-04-12T10:00:04.236Z</time></trkpt><trkpt lat="43.8159483" lon="12.8271283"><ele>216.66666666666669</ele><time>2026-04-12T10:00:05.236Z</time></trkpt><trkpt lat="43.8161117" lon="12.8270833"><ele>218.33333333333331</ele><time>2026-04-12T10:00:06.235Z</time></trkpt><trkpt lat="43.81626" lon="12.82705"><ele>220.0</ele><time>2026-04-12T10:00:07.236Z</time></trkpt><trkpt lat="43.8163967" lon="12.8270167"><ele>220.0</ele><time>2026-04-12T10:00:08.236Z</time></trkpt><trkpt lat="43.8165183" lon="12.82696"><ele>220.0</ele><time>2026-04-12T10:00:09.236Z</time></trkpt><trkpt lat="43.816615" lon="12.8268467"><ele>220.0</ele><time>2026-04-12T10:00:10.236Z</time></trkpt><trkpt lat="43.8166767" lon="12.8266767"><ele>220.0</ele><time>2026-04-12T10:00:11.236Z</time></trkpt><trkpt lat="43.8167083" lon="12.82649"><ele>219.0</ele><time>2026-04-12T10:00:12.236Z</time></trkpt><trkpt lat="43.81669" lon="12.82631"><ele>218.0</ele><time>2026-04-12T10:00:13.236Z</time></trkpt><trkpt lat="43.81664" lon="12.826145"><ele>217.0</ele><time>2026-04-12T10:00:14.236Z</time></trkpt><trkpt lat="43.8165467" lon="12.8260233"><ele>216.0</ele><time>2026-04-12T10:00:15.236Z</time></trkpt><trkpt lat="43.8164217" lon="12.82594"><ele>217.33333333333331</ele><time>2026-04-12T10:00:16.236Z</time></trkpt><trkpt lat="43.81627" lon="12.8258917"><ele>218.66666666666666</ele><time>2026-04-12T10:00:17.235Z</time></trkpt><trkpt lat="43.8161167" lon="12.8258517"><ele>220.0</ele><time>2026-04-12T10:00:18.235Z</time></trkpt><trkpt lat="43.8159733" lon="12.8257967"><ele>220.0</ele><time>2026-04-12T10:00:19.235Z</time></trkpt><trkpt lat="43.8158417" lon="12.8257583"><ele>220.0</ele><time>2026-04-12T10:00:20.236Z</time></trkpt><trkpt lat="43.8157233" lon="12.8257067"><ele>220.0</ele><time>2026-04-12T10:00:21.235Z</time></trkpt><trkpt lat="43.81562" lon="12.8256267"><ele>220.0</ele><time>2026-04-12T10:00:22.236Z</time></trkpt><trkpt lat="43.8155433" lon="12.8255167"><ele>220.0</ele><time>2026-04-12T10:00:23.236Z</time></trkpt><trkpt lat="43.8155067" lon="12.8253833"><ele>220.0</ele><time>2026-04-12T10:00:24.236Z</time></trkpt><trkpt lat="43.815505" lon="12.8252333"><ele>220.0</ele><time>2026-04-12T10:00:25.236Z</time></trkpt><trkpt lat="43.8155433" lon="12.8250967"><ele>220.0</ele><time>2026-04-12T10:00:26.236Z</time></trkpt><trkpt lat="43.8156083" lon="12.8249717"><ele>220.0</ele><time>2026-04-12T10:00:27.235Z</time></trkpt><trkpt lat="43.8157217" lon="12.824855"><ele>223.33333333333331</ele><time>2026-04-12T10:00:28.235Z</time></trkpt><trkpt lat="43.815875" lon="12.8247467"><ele>226.66666666666669</ele><time>2026-04-12T10:00:29.236Z</time></trkpt><trkpt lat="43.8160367" lon="12.8246333"><ele>230.0</ele><time>2026-04-12T10:00:30.236Z</time></trkpt><trkpt lat="43.8161883" lon="12.8244967"><ele>234.0</ele><time>2026-04-12T10:00:31.236Z</time></trkpt><trkpt lat="43.8163417" lon="12.8243617"><ele>238.0</ele><time>2026-04-12T10:00:32.236Z</time></trkpt><trkpt lat="43.81649" lon="12.824235"><ele>242.0</ele><time>2026-04-12T10:00:33.235Z</time></trkpt><trkpt lat="43.8166383" lon="12.8241233"><ele>242.0</ele><time>2026-04-12T10:00:34.236Z</time></trkpt><trkpt lat="43.8167883" lon="12.8240183"><ele>242.0</ele><time>2026-04-12T10:00:35.235Z</time></trkpt><trkpt lat="43.81692" lon="12.82389"><ele>242.0</ele><time>2026-04-12T10:00:36.235Z</time></trkpt><trkpt lat="43.8170367" lon="12.823735"><ele>245.33333333333334</ele><time>2026-04-12T10:00:37.235Z</time></trkpt><trkpt lat="43.81712" lon="12.8235433"><ele>248.66666666666669</ele><time>2026-04-12T10:00:38.235Z</time></trkpt><trkpt lat="43.81718" lon="12.8233433"><ele>252.0</ele><time>2026-04-12T10:00:39.236Z</time></trkpt><trkpt lat="43.817225" lon="12.823145"><ele>252.75</ele><time>2026-04-12T10:00:40.235Z</time></trkpt><trkpt lat="43.81725" lon="12.8229583"><ele>253.5</ele><time>2026-04-12T10:00:41.236Z</time></trkpt><trkpt lat="43.8172433" lon="12.82278"><ele>254.25</ele><time>2026-04-12T10:00:42.236Z</time></trkpt><trkpt lat="43.8171933" lon="12.8226283"><ele>255.0</ele><time>2026-04-12T10:00:43.235Z</time></trkpt><trkpt lat="43.81711" lon="12.822515"><ele>255.25</ele><time>2026-04-12T10:00:44.235Z</time></trkpt><trkpt lat="43.816995" lon="12.8224367"><ele>255.5</ele><time>2026-04-12T10:00:45.236Z</time></trkpt><trkpt lat="43.8168567" lon="12.8223883"><ele>255.75</ele><time>2026-04-12T10:00:46.236Z</time></trkpt><trkpt lat="43.8167267" lon="12.8223333"><ele>256.0</ele><time>2026-04-12T10:00:47.235Z</time></trkpt><trkpt lat="43.816605" lon="12.8222733"><ele>256.6</ele><time>2026-04-12T10:00:48.236Z</time></trkpt><trkpt lat="43.8165033" lon="12.8222117"><ele>257.20000000000005</ele><time>2026-04-12T10:00:49.235Z</time></trkpt><trkpt lat="43.816435" lon="12.822105"><ele>257.79999999999995</ele><time>2026-04-12T10:00:50.235Z</time></trkpt><trkpt lat="43.8163883" lon="12.8219933"><ele>258.4</ele><time>2026-04-12T10:00:51.236Z</time></trkpt><trkpt lat="43.8163867" lon="12.8218533"><ele>259.0</ele><time>2026-04-12T10:00:52.236Z</time></trkpt><trkpt lat="43.8164233" lon="12.8217083"><ele>259.0</ele><time>2026-04-12T10:00:53.235Z</time></trkpt><trkpt lat="43.8164917" lon="12.82155"><ele>259.0</ele><time>2026-04-12T10:00:54.236Z</time></trkpt><trkpt lat="43.8165783" lon="12.8213983"><ele>259.0</ele><time>2026-04-12T10:00:55.236Z</time></trkpt><trkpt lat="43.81666" lon="12.821245"><ele>259.0</ele><time>2026-04-12T10:00:56.235Z</time></trkpt><trkpt lat="43.8167083" lon="12.82107"><ele>258.5</ele><time>2026-04-12T10:00:57.236Z</time></trkpt><trkpt lat="43.816735" lon="12.8208867"><ele>258.0</ele><time>2026-04-12T10:00:58.236Z</time></trkpt><trkpt lat="43.816735" lon="12.8206833"><ele>257.5</ele><time>2026-04-12T10:00:59.235Z</time></trkpt><trkpt lat="43.8166767" lon="12.8204717"><ele>257.0</ele><time>2026-04-12T10:01:00.236Z</time></trkpt><trkpt lat="43.8166017" lon="12.820275"><ele>258.0</ele><time>2026-04-12T10:01:01.235Z</time></trkpt><trkpt lat="43.8165183" lon="12.8200817"><ele>259.0</ele><time>2026-04-12T10:01:02.235Z</time></trkpt><trkpt lat="43.8164267" lon="12.8198833"><ele>260.0</ele><time>2026-04-12T10:01:03.236Z</time></trkpt><trkpt lat="43.8163133" lon="12.8197017"><ele>260.0</ele><time>2026-04-12T10:01:04.235Z</time></trkpt><trkpt lat="43.81618" lon="12.819555"><ele>260.0</ele><time>2026-04-12T10:01:05.236Z</time></trkpt><trkpt lat="43.8160317" lon="12.8194333"><ele>260.0</ele><time>2026-04-12T10:01:06.236Z</time></trkpt><trkpt lat="43.81588" lon="12.81933"><ele>263.33333333333337</ele><time>2026-04-12T10:01:07.236Z</time></trkpt><trkpt lat="43.8157383" lon="12.8192283"><ele>266.6666666666667</ele><time>2026-04-12T10:01:08.236Z</time></trkpt><trkpt lat="43.8156033" lon="12.81912"><ele>270.0</ele><time>2026-04-12T10:01:09.236Z</time></trkpt><trkpt lat="43.8154867" lon="12.8189967"><ele>270.0</ele><time>2026-04-12T10:01:10.235Z</time></trkpt><trkpt lat="43.8153867" lon="12.8188517"><ele>270.0</ele><time>2026-04-12T10:01:11.236Z</time></trkpt><trkpt lat="43.81531" lon="12.8186933"><ele>270.0</ele><time>2026-04-12T10:01:12.235Z</time></trkpt><trkpt lat="43.8152633" lon="12.818535"><ele>270.0</ele><time>2026-04-12T10:01:13.236Z</time></trkpt><trkpt lat="43.81523" lon="12.8183633"><ele>272.5</ele><time>2026-04-12T10:01:14.236Z</time></trkpt><trkpt lat="43.8152333" lon="12.8181783"><ele>275.0</ele><time>2026-04-12T10:01:15.235Z</time></trkpt><trkpt lat="43.8152617" lon="12.8180183"><ele>277.5</ele><time>2026-04-12T10:01:16.236Z</time></trkpt><trkpt lat="43.8153117" lon="12.8178617"><ele>280.0</ele><time>2026-04-12T10:01:17.236Z</time></trkpt><trkpt lat="43.815405" lon="12.8177067"><ele>278.3333333333333</ele><time>2026-04-12T10:01:18.236Z</time></trkpt><trkpt lat="43.8155167" lon="12.8175683"><ele>276.6666666666667</ele><time>2026-04-12T10:01:19.236Z</time></trkpt><trkpt lat="43.8156483" lon="12.81745"><ele>275.0</ele><time>2026-04-12T10:01:20.235Z</time></trkpt><trkpt lat="43.8157833" lon="12.8173367"><ele>275.0</ele><time>2026-04-12T10:01:21.236Z</time></trkpt><trkpt lat="43.8159033" lon="12.8172117"><ele>275.0</ele><time>2026-04-12T10:01:22.235Z</time></trkpt><trkpt lat="43.8160017" lon="12.8170667"><ele>275.0</ele><time>2026-04-12T10:01:23.236Z</time></trkpt><trkpt lat="43.8160567" lon="12.81688"><ele>275.0</ele><time>2026-04-12T10:01:24.235Z</time></trkpt><trkpt lat="43.81607" lon="12.8166717"><ele>274.25</ele><time>2026-04-12T10:01:25.236Z</time></trkpt><trkpt lat="43.8160467" lon="12.8164633"><ele>273.5</ele><time>2026-04-12T10:01:26.235Z</time></trkpt><trkpt lat="43.8159933" lon="12.81629"><ele>272.75</ele><time>2026-04-12T10:01:27.236Z</time></trkpt><trkpt lat="43.8159117" lon="12.8161533"><ele>272.0</ele><time>2026-04-12T10:01:28.236Z</time></trkpt><trkpt lat="43.8157933" lon="12.8160567"><ele>272.0</ele><time>2026-04-12T10:01:29.236Z</time></trkpt><trkpt lat="43.81565" lon="12.8159883"><ele>272.0</ele><time>2026-04-12T10:01:30.236Z</time></trkpt><trkpt lat="43.81549" lon="12.8159367"><ele>272.0</ele><time>2026-04-12T10:01:31.235Z</time></trkpt><trkpt lat="43.815325" lon="12.8158717"><ele>273.33333333333337</ele><time>2026-04-12T10:01:32.236Z</time></trkpt><trkpt lat="43.815165" lon="12.8157917"><ele>274.6666666666667</ele><time>2026-04-12T10:01:33.235Z</time></trkpt><trkpt lat="43.81501" lon="12.8156967"><ele>276.0</ele><time>2026-04-12T10:01:34.235Z</time></trkpt><trkpt lat="43.814865" lon="12.8155967"><ele>276.0</ele><time>2026-04-12T10:01:35.236Z</time></trkpt><trkpt lat="43.8147367" lon="12.81549"><ele>276.0</ele><time>2026-04-12T10:01:36.236Z</time></trkpt><trkpt lat="43.8146317" lon="12.815375"><ele>276.0</ele><time>2026-04-12T10:01:37.236Z</time></trkpt><trkpt lat="43.81456" lon="12.8152467"><ele>276.0</ele><time>2026-04-12T10:01:38.236Z</time></trkpt><trkpt lat="43.8145167" lon="12.815105"><ele>279.0</ele><time>2026-04-12T10:01:39.236Z</time></trkpt><trkpt lat="43.8145" lon="12.8149417"><ele>282.0</ele><time>2026-04-12T10:01:40.236Z</time></trkpt><trkpt lat="43.8145133" lon="12.8147417"><ele>285.0</ele><time>2026-04-12T10:01:41.235Z</time></trkpt><trkpt lat="43.8145267" lon="12.8145267"><ele>288.0</ele><time>2026-04-12T10:01:42.236Z</time></trkpt><trkpt lat="43.8145467" lon="12.814315"><ele>288.5</ele><time>2026-04-12T10:01:43.236Z</time></trkpt><trkpt lat="43.8145633" lon="12.8140983"><ele>289.0</ele><time>2026-04-12T10:01:44.236Z</time></trkpt><trkpt lat="43.814565" lon="12.8139"><ele>289.5</ele><time>2026-04-12T10:01:45.236Z</time></trkpt><trkpt lat="43.8145867" lon="12.8137183"><ele>290.0</ele><time>2026-04-12T10:01:46.235Z</time></trkpt><trkpt lat="43.8146317" lon="12.813555"><ele>288.25</ele><time>2026-04-12T10:01:47.236Z</time></trkpt><trkpt lat="43.81471" lon="12.8134367"><ele>286.5</ele><time>2026-04-12T10:01:48.236Z</time></trkpt><trkpt lat="43.8148183" lon="12.8133833"><ele>284.75</ele><time>2026-04-12T10:01:49.235Z</time></trkpt><trkpt lat="43.81495" lon="12.813365"><ele>283.0</ele><time>2026-04-12T10:01:50.236Z</time></trkpt><trkpt lat="43.8151067" lon="12.8133533"><ele>287.25</ele><time>2026-04-12T10:01:51.235Z</time></trkpt><trkpt lat="43.8152717" lon="12.8133233"><ele>291.5</ele><time>2026-04-12T10:01:52.236Z</time></trkpt><trkpt lat="43.8154133" lon="12.8132617"><ele>295.75</ele><time>2026-04-12T10:01:53.235Z</time></trkpt><trkpt lat="43.8155133" lon="12.8131583"><ele>300.0</ele><time>2026-04-12T10:01:54.235Z</time></trkpt><trkpt lat="43.81558" lon="12.8130167"><ele>300.0</ele><time>2026-04-12T10:01:55.236Z</time></trkpt><trkpt lat="43.8156017" lon="12.81283"><ele>300.0</ele><time>2026-04-12T10:01:56.236Z</time></trkpt><trkpt lat="43.8155867" lon="12.8126233"><ele>300.0</ele><time>2026-04-12T10:01:57.235Z</time></trkpt><trkpt lat="43.8155733" lon="12.8124267"><ele>300.0</ele><time>2026-04-12T10:01:58.236Z</time></trkpt><trkpt lat="43.81557" lon="12.8122417"><ele>300.0</ele><time>2026-04-12T10:01:59.236Z</time></trkpt><trkpt lat="43.8155967" lon="12.8120617"><ele>300.0</ele><time>2026-04-12T10:02:00.236Z</time></trkpt><trkpt lat="43.8156617" lon="12.8118917"><ele>300.0</ele><time>2026-04-12T10:02:01.235Z</time></trkpt><trkpt lat="43.8157483" lon="12.8117367"><ele>300.0</ele><time>2026-04-12T10:02:02.235Z</time></trkpt><trkpt lat="43.815815" lon="12.8115617"><ele>300.25</ele><time>2026-04-12T10:02:03.236Z</time></trkpt><trkpt lat="43.81585" lon="12.8113667"><ele>300.5</ele><time>2026-04-12T10:02:04.236Z</time></trkpt><trkpt lat="43.8158367" lon="12.81117"><ele>300.75</ele><time>2026-04-12T10:02:05.235Z</time></trkpt><trkpt lat="43.8158167" lon="12.81099"><ele>301.0</ele><time>2026-04-12T10:02:06.235Z</time></trkpt><trkpt lat="43.8158133" lon="12.8108033"><ele>301.0</ele><time>2026-04-12T10:02:07.236Z</time></trkpt><trkpt lat="43.815825" lon="12.810635"><ele>301.0</ele><time>2026-04-12T10:02:08.236Z</time></trkpt><trkpt lat="43.8158783" lon="12.8104617"><ele>301.0</ele><time>2026-04-12T10:02:09.236Z</time></trkpt><trkpt lat="43.8159733" lon="12.810295"><ele>301.0</ele><time>2026-04-12T10:02:10.236Z</time></trkpt><trkpt lat="43.8160833" lon="12.8101483"><ele>306.0</ele><time>2026-04-12T10:02:11.235Z</time></trkpt><trkpt lat="43.81621" lon="12.8100017"><ele>311.0</ele><time>2026-04-12T10:02:12.236Z</time></trkpt><trkpt lat="43.8163517" lon="12.8098583"><ele>316.0</ele><time>2026-04-12T10:02:13.236Z</time></trkpt><trkpt lat="43.8164833" lon="12.8096867"><ele>316.0</ele><time>2026-04-12T10:02:14.236Z</time></trkpt><trkpt lat="43.8166017" lon="12.8095167"><ele>316.0</ele><time>2026-04-12T10:02:15.235Z</time></trkpt><trkpt lat="43.8166883" lon="12.80933"><ele>316.0</ele><time>2026-04-12T10:02:16.236Z</time></trkpt><trkpt lat="43.81675" lon="12.809135"><ele>314.3333333333333</ele><time>2026-04-12T10:02:17.236Z</time></trkpt><trkpt lat="43.8167733" lon="12.808925"><ele>312.6666666666667</ele><time>2026-04-12T10:02:18.235Z</time></trkpt><trkpt lat="43.8167517" lon="12.8087217"><ele>311.0</ele><time>2026-04-12T10:02:19.235Z</time></trkpt><trkpt lat="43.816705" lon="12.8085217"><ele>312.0</ele><time>2026-04-12T10:02:20.235Z</time></trkpt><trkpt lat="43.8166283" lon="12.808335"><ele>313.0</ele><time>2026-04-12T10:02:21.235Z</time></trkpt><trkpt lat="43.816545" lon="12.808155"><ele>314.0</ele><time>2026-04-12T10:02:22.235Z</time></trkpt><trkpt lat="43.8164717" lon="12.8079733"><ele>314.0</ele><time>2026-04-12T10:02:23.236Z</time></trkpt><trkpt lat="43.8164017" lon="12.807805"><ele>314.0</ele><time>2026-04-12T10:02:24.236Z</time></trkpt><trkpt lat="43.8163417" lon="12.80765"><ele>314.0</ele><time>2026-04-12T10:02:25.235Z</time></trkpt><trkpt lat="43.81631" lon="12.8075"><ele>314.0</ele><time>2026-04-12T10:02:26.236Z</time></trkpt><trkpt lat="43.8163167" lon="12.8073533"><ele>315.79999999999995</ele><time>2026-04-12T10:02:27.236Z</time></trkpt><trkpt lat="43.816335" lon="12.807205"><ele>317.59999999999997</ele><time>2026-04-12T10:02:28.235Z</time></trkpt><trkpt lat="43.8163483" lon="12.8070717"><ele>319.4</ele><time>2026-04-12T10:02:29.235Z</time></trkpt><trkpt lat="43.8163483" lon="12.8069433"><ele>321.2</ele><time>2026-04-12T10:02:30.235Z</time></trkpt><trkpt lat="43.8163333" lon="12.8068083"><ele>323.0</ele><time>2026-04-12T10:02:31.236Z</time></trkpt><trkpt lat="43.8163017" lon="12.80666"><ele>323.0</ele><time>2026-04-12T10:02:32.236Z</time></trkpt><trkpt lat="43.8162667" lon="12.806525"><ele>323.0</ele><time>2026-04-12T10:02:33.236Z</time></trkpt><trkpt lat="43.8162183" lon="12.8063933"><ele>323.0</ele><time>2026-04-12T10:02:34.236Z</time></trkpt><trkpt lat="43.81617" lon="12.8062783"><ele>323.0</ele><time>2026-04-12T10:02:35.235Z</time></trkpt><trkpt lat="43.8161133" lon="12.8061783"><ele>323.0</ele><time>2026-04-12T10:02:36.236Z</time></trkpt><trkpt lat="43.8160383" lon="12.8060967"><ele>321.79999999999995</ele><time>2026-04-12T10:02:37.235Z</time></trkpt><trkpt lat="43.8159583" lon="12.8060317"><ele>320.59999999999997</ele><time>2026-04-12T10:02:38.236Z</time></trkpt><trkpt lat="43.8158733" lon="12.8059617"><ele>319.4</ele><time>2026-04-12T10:02:39.235Z</time></trkpt><trkpt lat="43.81579" lon="12.8058917"><ele>318.2</ele><time>2026-04-12T10:02:40.235Z</time></trkpt><trkpt lat="43.8157117" lon="12.8058067"><ele>317.0</ele><time>2026-04-12T10:02:41.236Z</time></trkpt><trkpt lat="43.8156417" lon="12.8057033"><ele>317.0</ele><time>2026-04-12T10:02:42.236Z</time></trkpt><trkpt lat="43.8155883" lon="12.8055683"><ele>317.0</ele><time>2026-04-12T10:02:43.236Z</time></trkpt><trkpt lat="43.815565" lon="12.8054367"><ele>317.0</ele><time>2026-04-12T10:02:44.236Z</time></trkpt><trkpt lat="43.815585" lon="12.805295"><ele>317.0</ele><time>2026-04-12T10:02:45.236Z</time></trkpt><trkpt lat="43.81564" lon="12.8051483"><ele>317.0</ele><time>2026-04-12T10:02:46.236Z</time></trkpt><trkpt lat="43.8157183" lon="12.804985"><ele>317.33333333333337</ele><time>2026-04-12T10:02:47.236Z</time></trkpt><trkpt lat="43.8158" lon="12.8048133"><ele>317.6666666666667</ele><time>2026-04-12T10:02:48.235Z</time></trkpt><trkpt lat="43.81588" lon="12.80463"><ele>318.0</ele><time>2026-04-12T10:02:49.235Z</time></trkpt><trkpt lat="43.81595" lon="12.8044267"><ele>316.0</ele><time>2026-04-12T10:02:50.236Z</time></trkpt><trkpt lat="43.8159867" lon="12.8041967"><ele>314.0</ele><time>2026-04-12T10:02:51.236Z</time></trkpt><trkpt lat="43.8159933" lon="12.80397"><ele>312.0</ele><time>2026-04-12T10:02:52.236Z</time></trkpt><trkpt lat="43.8159833" lon="12.8037467"><ele>312.0</ele><time>2026-04-12T10:02:53.236Z</time></trkpt><trkpt lat="43.8159733" lon="12.8035317"><ele>312.0</ele><time>2026-04-12T10:02:54.235Z</time></trkpt><trkpt lat="43.8159767" lon="12.8033267"><ele>312.0</ele><time>2026-04-12T10:02:55.236Z</time></trkpt><trkpt lat="43.8159933" lon="12.8031217"><ele>318.3333333333333</ele><time>2026-04-12T10:02:56.235Z</time></trkpt><trkpt lat="43.8160233" lon="12.802915"><ele>324.66666666666663</ele><time>2026-04-12T10:02:57.236Z</time></trkpt><trkpt lat="43.8160717" lon="12.80272"><ele>331.0</ele><time>2026-04-12T10:02:58.236Z</time></trkpt><trkpt lat="43.81615" lon="12.8025317"><ele>331.0</ele><time>2026-04-12T10:02:59.236Z</time></trkpt><trkpt lat="43.8162483" lon="12.8023617"><ele>331.0</ele><time>2026-04-12T10:03:00.236Z</time></trkpt><trkpt lat="43.8163617" lon="12.8022133"><ele>331.0</ele><time>2026-04-12T10:03:01.236Z</time></trkpt><trkpt lat="43.8164833" lon="12.8020833"><ele>331.0</ele><time>2026-04-12T10:03:02.236Z</time></trkpt><trkpt lat="43.8166233" lon="12.80198"><ele>331.0</ele><time>2026-04-12T10:03:03.236Z</time></trkpt><trkpt lat="43.8167717" lon="12.8018883"><ele>331.0</ele><time>2026-04-12T10:03:04.235Z</time></trkpt><trkpt lat="43.8169317" lon="12.8018017"><ele>328.0</ele><time>2026-04-12T10:03:05.235Z</time></trkpt><trkpt lat="43.81709" lon="12.801725"><ele>325.0</ele><time>2026-04-12T10:03:06.236Z</time></trkpt><trkpt lat="43.8172383" lon="12.8016367"><ele>322.0</ele><time>2026-04-12T10:03:07.236Z</time></trkpt><trkpt lat="43.8173933" lon="12.8015283"><ele>322.0</ele><time>2026-04-12T10:03:08.236Z</time></trkpt><trkpt lat="43.8175383" lon="12.8013967"><ele>322.0</ele><time>2026-04-12T10:03:09.235Z</time></trkpt><trkpt lat="43.81768" lon="12.80124"><ele>322.0</ele><time>2026-04-12T10:03:10.235Z</time></trkpt><trkpt lat="43.8177983" lon="12.801055"><ele>323.66666666666663</ele><time>2026-04-12T10:03:11.236Z</time></trkpt><trkpt lat="43.817915" lon="12.800845"><ele>325.3333333333333</ele><time>2026-04-12T10:03:12.236Z</time></trkpt><trkpt lat="43.8180233" lon="12.800625"><ele>327.0</ele><time>2026-04-12T10:03:13.236Z</time></trkpt><trkpt lat="43.8181217" lon="12.8003967"><ele>327.0</ele><time>2026-04-12T10:03:14.235Z</time></trkpt><trkpt lat="43.8182133" lon="12.8001817"><ele>327.0</ele><time>2026-04-12T10:03:15.236Z</time></trkpt><trkpt lat="43.818305" lon="12.799965"><ele>327.0</ele><time>2026-04-12T10:03:16.236Z</time></trkpt><trkpt lat="43.81839" lon="12.799765"><ele>326.3333333333333</ele><time>2026-04-12T10:03:17.236Z</time></trkpt><trkpt lat="43.8184783" lon="12.7995633"><ele>325.66666666666663</ele><time>2026-04-12T10:03:18.236Z</time></trkpt><trkpt lat="43.8185567" lon="12.7993917"><ele>325.0</ele><time>2026-04-12T10:03:19.235Z</time></trkpt><trkpt lat="43.8186467" lon="12.79924"><ele>325.0</ele><time>2026-04-12T10:03:20.236Z</time></trkpt><trkpt lat="43.8187483" lon="12.7991133"><ele>325.0</ele><time>2026-04-12T10:03:21.236Z</time></trkpt><trkpt lat="43.8188767" lon="12.7990317"><ele>325.0</ele><time>2026-04-12T10:03:22.235Z</time></trkpt><trkpt lat="43.8190217" lon="12.79898"><ele>325.0</ele><time>2026-04-12T10:03:23.236Z</time></trkpt><trkpt lat="43.8191667" lon="12.7989433"><ele>325.0</ele><time>2026-04-12T10:03:24.235Z</time></trkpt><trkpt lat="43.8192967" lon="12.7989117"><ele>325.0</ele><time>2026-04-12T10:03:25.236Z</time></trkpt><trkpt lat="43.8194183" lon="12.7988767"><ele>325.0</ele><time>2026-04-12T10:03:26.236Z</time></trkpt><trkpt lat="43.8195383" lon="12.798855"><ele>325.0</ele><time>2026-04-12T10:03:27.236Z</time></trkpt><trkpt lat="43.81966" lon="12.7988317"><ele>325.2</ele><time>2026-04-12T10:03:28.236Z</time></trkpt><trkpt lat="43.8197517" lon="12.798795"><ele>325.4</ele><time>2026-04-12T10:03:29.236Z</time></trkpt><trkpt lat="43.81984" lon="12.798735"><ele>325.6</ele><time>2026-04-12T10:03:30.235Z</time></trkpt><trkpt lat="43.8199133" lon="12.79867"><ele>325.8</ele><time>2026-04-12T10:03:31.236Z</time></trkpt><trkpt lat="43.8199883" lon="12.7985867"><ele>326.0</ele><time>2026-04-12T10:03:32.236Z</time></trkpt><trkpt lat="43.8200633" lon="12.7985033"><ele>324.5</ele><time>2026-04-12T10:03:33.235Z</time></trkpt><trkpt lat="43.820165" lon="12.7984117"><ele>323.0</ele><time>2026-04-12T10:03:34.236Z</time></trkpt><trkpt lat="43.8202833" lon="12.7983283"><ele>321.5</ele><time>2026-04-12T10:03:35.236Z</time></trkpt><trkpt lat="43.820395" lon="12.798245"><ele>320.0</ele><time>2026-04-12T10:03:36.236Z</time></trkpt><trkpt lat="43.82051" lon="12.7981833"><ele>320.0</ele><time>2026-04-12T10:03:37.236Z</time></trkpt><trkpt lat="43.8206233" lon="12.7981433"><ele>320.0</ele><time>2026-04-12T10:03:38.236Z</time></trkpt><trkpt lat="43.8207383" lon="12.7981433"><ele>320.0</ele><time>2026-04-12T10:03:39.236Z</time></trkpt><trkpt lat="43.8208617" lon="12.798185"><ele>320.0</ele><time>2026-04-12T10:03:40.236Z</time></trkpt><trkpt lat="43.82099" lon="12.79824"><ele>322.0</ele><time>2026-04-12T10:03:41.236Z</time></trkpt><trkpt lat="43.8211417" lon="12.79827"><ele>324.0</ele><time>2026-04-12T10:03:42.236Z</time></trkpt><trkpt lat="43.821305" lon="12.7982567"><ele>326.0</ele><time>2026-04-12T10:03:43.236Z</time></trkpt><trkpt lat="43.821455" lon="12.7982083"><ele>326.0</ele><time>2026-04-12T10:03:44.236Z</time></trkpt><trkpt lat="43.8215983" lon="12.7981717"><ele>326.0</ele><time>2026-04-12T10:03:45.236Z</time></trkpt><trkpt lat="43.82172" lon="12.7981383"><ele>326.0</ele><time>2026-04-12T10:03:46.236Z</time></trkpt><trkpt lat="43.8218283" lon="12.7981283"><ele>326.0</ele><time>2026-04-12T10:03:47.236Z</time></trkpt><trkpt lat="43.8219333" lon="12.7981717"><ele>323.40000000000003</ele><time>2026-04-12T10:03:48.236Z</time></trkpt><trkpt lat="43.822035" lon="12.7982467"><ele>320.8</ele><time>2026-04-12T10:03:49.235Z</time></trkpt><trkpt lat="43.822115" lon="12.7983583"><ele>318.20000000000005</ele><time>2026-04-12T10:03:50.235Z</time></trkpt><trkpt lat="43.822155" lon="12.7984967"><ele>315.6</ele><time>2026-04-12T10:03:51.236Z</time></trkpt><trkpt lat="43.82215" lon="12.7986467"><ele>313.0</ele><time>2026-04-12T10:03:52.235Z</time></trkpt><trkpt lat="43.8220967" lon="12.7987933"><ele>311.5</ele><time>2026-04-12T10:03:53.236Z</time></trkpt><trkpt lat="43.82204" lon="12.7989467"><ele>310.0</ele><time>2026-04-12T10:03:54.235Z</time></trkpt><trkpt lat="43.8219683" lon="12.79912"><ele>308.5</ele><time>2026-04-12T10:03:55.236Z</time></trkpt><trkpt lat="43.821895" lon="12.7993033"><ele>307.0</ele><time>2026-04-12T10:03:56.235Z</time></trkpt><trkpt lat="43.8218317" lon="12.7995117"><ele>313.0</ele><time>2026-04-12T10:03:57.235Z</time></trkpt><trkpt lat="43.8217883" lon="12.7997367"><ele>319.0</ele><time>2026-04-12T10:03:58.236Z</time></trkpt><trkpt lat="43.8217517" lon="12.7999567"><ele>325.0</ele><time>2026-04-12T10:03:59.235Z</time></trkpt><trkpt lat="43.8217233" lon="12.8001717"><ele>326.3333333333333</ele><time>2026-04-12T10:04:00.236Z</time></trkpt><trkpt lat="43.8217317" lon="12.80039"><ele>327.6666666666667</ele><time>2026-04-12T10:04:01.236Z</time></trkpt><trkpt lat="43.821775" lon="12.8006033"><ele>329.0</ele><time>2026-04-12T10:04:02.236Z</time></trkpt><trkpt lat="43.8218517" lon="12.8008133"><ele>328.33333333333337</ele><time>2026-04-12T10:04:03.236Z</time></trkpt><trkpt lat="43.821935" lon="12.8010017"><ele>327.6666666666667</ele><time>2026-04-12T10:04:04.236Z</time></trkpt><trkpt lat="43.822035" lon="12.8011583"><ele>327.0</ele><time>2026-04-12T10:04:05.236Z</time></trkpt><trkpt lat="43.8221583" lon="12.8012733"><ele>327.0</ele><time>2026-04-12T10:04:06.236Z</time></trkpt><trkpt lat="43.8222967" lon="12.8013517"><ele>327.0</ele><time>2026-04-12T10:04:07.236Z</time></trkpt><trkpt lat="43.8224317" lon="12.8014217"><ele>327.0</ele><time>2026-04-12T10:04:08.236Z</time></trkpt><trkpt lat="43.8225783" lon="12.80147"><ele>327.0</ele><time>2026-04-12T10:04:09.236Z</time></trkpt><trkpt lat="43.8227617" lon="12.80148"><ele>322.6666666666667</ele><time>2026-04-12T10:04:10.236Z</time></trkpt><trkpt lat="43.8229167" lon="12.801545"><ele>318.33333333333337</ele><time>2026-04-12T10:04:11.236Z</time></trkpt><trkpt lat="43.82306" lon="12.8016683"><ele>314.0</ele><time>2026-04-12T10:04:12.236Z</time></trkpt><trkpt lat="43.8231967" lon="12.8018117"><ele>315.33333333333337</ele><time>2026-04-12T10:04:13.236Z</time></trkpt><trkpt lat="43.8233333" lon="12.8019333"><ele>316.6666666666667</ele><time>2026-04-12T10:04:14.235Z</time></trkpt><trkpt lat="43.8234867" lon="12.80204"><ele>318.0</ele><time>2026-04-12T10:04:15.235Z</time></trkpt><trkpt lat="43.823625" lon="12.8021533"><ele>318.0</ele><time>2026-04-12T10:04:16.236Z</time></trkpt><trkpt lat="43.8237733" lon="12.8022333"><ele>318.0</ele><time>2026-04-12T10:04:17.236Z</time></trkpt><trkpt lat="43.8239067" lon="12.8022867"><ele>318.0</ele><time>2026-04-12T10:04:18.236Z</time></trkpt><trkpt lat="43.8240433" lon="12.8022967"><ele>318.0</ele><time>2026-04-12T10:04:19.236Z</time></trkpt><trkpt lat="43.8241917" lon="12.8022617"><ele>316.75</ele><time>2026-04-12T10:04:20.236Z</time></trkpt><trkpt lat="43.8243283" lon="12.8022167"><ele>315.5</ele><time>2026-04-12T10:04:21.236Z</time></trkpt><trkpt lat="43.8244517" lon="12.8021783"><ele>314.25</ele><time>2026-04-12T10:04:22.236Z</time></trkpt><trkpt lat="43.824555" lon="12.8021517"><ele>313.0</ele><time>2026-04-12T10:04:23.236Z</time></trkpt><trkpt lat="43.82466" lon="12.8021733"><ele>313.0</ele><time>2026-04-12T10:04:24.236Z</time></trkpt><trkpt lat="43.8247567" lon="12.8022333"><ele>313.0</ele><time>2026-04-12T10:04:25.235Z</time></trkpt><trkpt lat="43.8248683" lon="12.8023067"><ele>313.0</ele><time>2026-04-12T10:04:26.235Z</time></trkpt><trkpt lat="43.8249517" lon="12.802385"><ele>313.0</ele><time>2026-04-12T10:04:27.236Z</time></trkpt><trkpt lat="43.8250267" lon="12.8024733"><ele>313.0</ele><time>2026-04-12T10:04:28.236Z</time></trkpt><trkpt lat="43.8250967" lon="12.80256"><ele>312.0</ele><time>2026-04-12T10:04:29.236Z</time></trkpt><trkpt lat="43.8251617" lon="12.80265"><ele>311.0</ele><time>2026-04-12T10:04:30.235Z</time></trkpt><trkpt lat="43.8252217" lon="12.802735"><ele>310.0</ele><time>2026-04-12T10:04:31.236Z</time></trkpt><trkpt lat="43.8252733" lon="12.802815"><ele>309.0</ele><time>2026-04-12T10:04:32.236Z</time></trkpt><trkpt lat="43.8253283" lon="12.8028867"><ele>308.0</ele><time>2026-04-12T10:04:33.236Z</time></trkpt><trkpt lat="43.8253717" lon="12.8029533"><ele>307.0</ele><time>2026-04-12T10:04:34.236Z</time></trkpt><trkpt lat="43.8254117" lon="12.803035"><ele>307.0</ele><time>2026-04-12T10:04:35.236Z</time></trkpt><trkpt lat="43.8254217" lon="12.80318"><ele>307.0</ele><time>2026-04-12T10:04:37.236Z</time></trkpt><trkpt lat="43.8254033" lon="12.8032683"><ele>307.0</ele><time>2026-04-12T10:04:39.235Z</time></trkpt><trkpt lat="43.8254717" lon="12.80338"><ele>307.0</ele><time>2026-04-12T10:04:42.236Z</time></trkpt><trkpt lat="43.8255417" lon="12.803385"><ele>307.0</ele><time>2026-04-12T10:04:43.236Z</time></trkpt><trkpt lat="43.8256233" lon="12.8033883"><ele>307.0</ele><time>2026-04-12T10:04:44.235Z</time></trkpt><trkpt lat="43.8257167" lon="12.803385"><ele>307.0</ele><time>2026-04-12T10:04:45.235Z</time></trkpt><trkpt lat="43.825815" lon="12.8033633"><ele>307.0</ele><time>2026-04-12T10:04:46.235Z</time></trkpt><trkpt lat="43.82592" lon="12.8033333"><ele>307.0</ele><time>2026-04-12T10:04:47.235Z</time></trkpt><trkpt lat="43.8260283" lon="12.8032933"><ele>307.0</ele><time>2026-04-12T10:04:48.235Z</time></trkpt><trkpt lat="43.8261283" lon="12.8032383"><ele>307.0</ele><time>2026-04-12T10:04:49.236Z</time></trkpt><trkpt lat="43.82624" lon="12.8031733"><ele>305.4</ele><time>2026-04-12T10:04:50.236Z</time></trkpt><trkpt lat="43.82635" lon="12.8031033"><ele>303.79999999999995</ele><time>2026-04-12T10:04:51.235Z</time></trkpt><trkpt lat="43.826455" lon="12.8030367"><ele>302.2</ele><time>2026-04-12T10:04:52.236Z</time></trkpt><trkpt lat="43.8265533" lon="12.8029817"><ele>300.59999999999997</ele><time>2026-04-12T10:04:53.236Z</time></trkpt><trkpt lat="43.826655" lon="12.80295"><ele>299.0</ele><time>2026-04-12T10:04:54.236Z</time></trkpt><trkpt lat="43.8267583" lon="12.8029317"><ele>298.75</ele><time>2026-04-12T10:04:55.236Z</time></trkpt><trkpt lat="43.82687" lon="12.8029433"><ele>298.5</ele><time>2026-04-12T10:04:56.235Z</time></trkpt><trkpt lat="43.82699" lon="12.8029683"><ele>298.25</ele><time>2026-04-12T10:04:57.235Z</time></trkpt><trkpt lat="43.8271133" lon="12.8030167"><ele>298.0</ele><time>2026-04-12T10:04:58.236Z</time></trkpt><trkpt lat="43.8272367" lon="12.80308"><ele>298.0</ele><time>2026-04-12T10:04:59.236Z</time></trkpt><trkpt lat="43.8273633" lon="12.803145"><ele>298.0</ele><time>2026-04-12T10:05:00.236Z</time></trkpt><trkpt lat="43.827485" lon="12.8032067"><ele>298.0</ele><time>2026-04-12T10:05:01.236Z</time></trkpt><trkpt lat="43.8275983" lon="12.8032567"><ele>298.0</ele><time>2026-04-12T10:05:02.236Z</time></trkpt><trkpt lat="43.8277083" lon="12.8033183"><ele>296.8</ele><time>2026-04-12T10:05:03.236Z</time></trkpt><trkpt lat="43.8278133" lon="12.803365"><ele>295.6</ele><time>2026-04-12T10:05:04.236Z</time></trkpt><trkpt lat="43.827925" lon="12.8033783"><ele>294.4</ele><time>2026-04-12T10:05:05.236Z</time></trkpt><trkpt lat="43.8280283" lon="12.80338"><ele>293.2</ele><time>2026-04-12T10:05:06.236Z</time></trkpt><trkpt lat="43.8281233" lon="12.8033467"><ele>292.0</ele><time>2026-04-12T10:05:07.236Z</time></trkpt><trkpt lat="43.828205" lon="12.80329"><ele>292.0</ele><time>2026-04-12T10:05:08.236Z</time></trkpt><trkpt lat="43.828265" lon="12.803185"><ele>292.0</ele><time>2026-04-12T10:05:09.236Z</time></trkpt><trkpt lat="43.8283117" lon="12.8030883"><ele>292.0</ele><time>2026-04-12T10:05:10.236Z</time></trkpt><trkpt lat="43.828355" lon="12.803"><ele>292.0</ele><time>2026-04-12T10:05:11.236Z</time></trkpt><trkpt lat="43.8284067" lon="12.8029133"><ele>292.0</ele><time>2026-04-12T10:05:12.236Z</time></trkpt><trkpt lat="43.82847" lon="12.8028217"><ele>292.0</ele><time>2026-04-12T10:05:13.235Z</time></trkpt><trkpt lat="43.8285417" lon="12.802715"><ele>293.4</ele><time>2026-04-12T10:05:14.235Z</time></trkpt><trkpt lat="43.828595" lon="12.8025967"><ele>294.79999999999995</ele><time>2026-04-12T10:05:15.235Z</time></trkpt><trkpt lat="43.8286117" lon="12.802465"><ele>296.2</ele><time>2026-04-12T10:05:16.235Z</time></trkpt><trkpt lat="43.8285867" lon="12.8023333"><ele>297.59999999999997</ele><time>2026-04-12T10:05:17.236Z</time></trkpt><trkpt lat="43.8285233" lon="12.80221"><ele>299.0</ele><time>2026-04-12T10:05:18.236Z</time></trkpt><trkpt lat="43.8284317" lon="12.802115"><ele>299.0</ele><time>2026-04-12T10:05:19.235Z</time></trkpt><trkpt lat="43.8283117" lon="12.8020433"><ele>299.0</ele><time>2026-04-12T10:05:20.236Z</time></trkpt><trkpt lat="43.8281767" lon="12.801995"><ele>299.0</ele><time>2026-04-12T10:05:21.236Z</time></trkpt><trkpt lat="43.8280283" lon="12.8019367"><ele>299.0</ele><time>2026-04-12T10:05:22.235Z</time></trkpt><trkpt lat="43.8278867" lon="12.8018667"><ele>297.33333333333337</ele><time>2026-04-12T10:05:23.236Z</time></trkpt><trkpt lat="43.8277567" lon="12.8017717"><ele>295.6666666666667</ele><time>2026-04-12T10:05:24.236Z</time></trkpt><trkpt lat="43.8276383" lon="12.8016417"><ele>294.0</ele><time>2026-04-12T10:05:25.236Z</time></trkpt><trkpt lat="43.82753" lon="12.8014883"><ele>294.0</ele><time>2026-04-12T10:05:26.235Z</time></trkpt><trkpt lat="43.8274167" lon="12.8013133"><ele>294.0</ele><time>2026-04-12T10:05:27.236Z</time></trkpt><trkpt lat="43.8273183" lon="12.8011267"><ele>294.0</ele><time>2026-04-12T10:05:28.236Z</time></trkpt><trkpt lat="43.82719" lon="12.80096"><ele>289.5</ele><time>2026-04-12T10:05:29.235Z</time></trkpt><trkpt lat="43.8271183" lon="12.8007867"><ele>285.0</ele><time>2026-04-12T10:05:30.236Z</time></trkpt><trkpt lat="43.827055" lon="12.8006133"><ele>280.5</ele><time>2026-04-12T10:05:31.235Z</time></trkpt><trkpt lat="43.8270033" lon="12.80045"><ele>276.0</ele><time>2026-04-12T10:05:32.235Z</time></trkpt><trkpt lat="43.82697" lon="12.800285"><ele>274.0</ele><time>2026-04-12T10:05:33.236Z</time></trkpt><trkpt lat="43.8269533" lon="12.8001067"><ele>272.0</ele><time>2026-04-12T10:05:34.236Z</time></trkpt><trkpt lat="43.8269617" lon="12.79991"><ele>270.0</ele><time>2026-04-12T10:05:35.235Z</time></trkpt><trkpt lat="43.8269883" lon="12.7997067"><ele>268.0</ele><time>2026-04-12T10:05:36.236Z</time></trkpt><trkpt lat="43.8270117" lon="12.7994967"><ele>267.0</ele><time>2026-04-12T10:05:37.236Z</time></trkpt><trkpt lat="43.8270417" lon="12.7992933"><ele>266.0</ele><time>2026-04-12T10:05:38.236Z</time></trkpt><trkpt lat="43.8270717" lon="12.7990967"><ele>265.0</ele><time>2026-04-12T10:05:39.236Z</time></trkpt><trkpt lat="43.82711" lon="12.7988967"><ele>264.0</ele><time>2026-04-12T10:05:40.236Z</time></trkpt><trkpt lat="43.827175" lon="12.7986967"><ele>264.0</ele><time>2026-04-12T10:05:41.236Z</time></trkpt><trkpt lat="43.8272433" lon="12.7985133"><ele>264.0</ele><time>2026-04-12T10:05:42.236Z</time></trkpt><trkpt lat="43.82733" lon="12.79832"><ele>264.0</ele><time>2026-04-12T10:05:43.235Z</time></trkpt><trkpt lat="43.8274133" lon="12.7981217"><ele>264.0</ele><time>2026-04-12T10:05:44.236Z</time></trkpt><trkpt lat="43.8275083" lon="12.7979433"><ele>264.0</ele><time>2026-04-12T10:05:45.236Z</time></trkpt><trkpt lat="43.8276117" lon="12.79776"><ele>264.0</ele><time>2026-04-12T10:05:46.235Z</time></trkpt><trkpt lat="43.8277217" lon="12.7975917"><ele>261.3333333333333</ele><time>2026-04-12T10:05:47.236Z</time></trkpt><trkpt lat="43.827835" lon="12.797435"><ele>258.66666666666663</ele><time>2026-04-12T10:05:48.235Z</time></trkpt><trkpt lat="43.82795" lon="12.7973017"><ele>256.0</ele><time>2026-04-12T10:05:49.236Z</time></trkpt><trkpt lat="43.8280867" lon="12.797185"><ele>256.0</ele><time>2026-04-12T10:05:50.236Z</time></trkpt><trkpt lat="43.8282267" lon="12.79709"><ele>256.0</ele><time>2026-04-12T10:05:51.236Z</time></trkpt><trkpt lat="43.8283783" lon="12.7970433"><ele>256.0</ele><time>2026-04-12T10:05:52.236Z</time></trkpt><trkpt lat="43.8285283" lon="12.7970117"><ele>255.5</ele><time>2026-04-12T10:05:53.236Z</time></trkpt><trkpt lat="43.828665" lon="12.79698"><ele>255.0</ele><time>2026-04-12T10:05:54.236Z</time></trkpt><trkpt lat="43.8287933" lon="12.7969067"><ele>254.5</ele><time>2026-04-12T10:05:55.235Z</time></trkpt><trkpt lat="43.8289167" lon="12.79679"><ele>254.0</ele><time>2026-04-12T10:05:56.235Z</time></trkpt><trkpt lat="43.82902" lon="12.7966483"><ele>254.0</ele><time>2026-04-12T10:05:57.235Z</time></trkpt><trkpt lat="43.8291217" lon="12.7964733"><ele>254.0</ele><time>2026-04-12T10:05:58.235Z</time></trkpt><trkpt lat="43.8292217" lon="12.7962917"><ele>254.0</ele><time>2026-04-12T10:05:59.236Z</time></trkpt><trkpt lat="43.829315" lon="12.796095"><ele>253.33333333333334</ele><time>2026-04-12T10:06:00.236Z</time></trkpt><trkpt lat="43.8294117" lon="12.7959017"><ele>252.66666666666669</ele><time>2026-04-12T10:06:01.235Z</time></trkpt><trkpt lat="43.829505" lon="12.79571"><ele>252.0</ele><time>2026-04-12T10:06:02.236Z</time></trkpt><trkpt lat="43.829615" lon="12.79554"><ele>252.0</ele><time>2026-04-12T10:06:03.236Z</time></trkpt><trkpt lat="43.829725" lon="12.7953817"><ele>252.0</ele><time>2026-04-12T10:06:04.236Z</time></trkpt><trkpt lat="43.8298333" lon="12.7952467"><ele>252.0</ele><time>2026-04-12T10:06:05.236Z</time></trkpt><trkpt lat="43.82994" lon="12.79511"><ele>252.0</ele><time>2026-04-12T10:06:06.236Z</time></trkpt><trkpt lat="43.8300383" lon="12.7949517"><ele>253.0</ele><time>2026-04-12T10:06:07.235Z</time></trkpt><trkpt lat="43.8301383" lon="12.7947833"><ele>254.0</ele><time>2026-04-12T10:06:08.236Z</time></trkpt><trkpt lat="43.8302367" lon="12.7946083"><ele>255.0</ele><time>2026-04-12T10:06:09.236Z</time></trkpt><trkpt lat="43.8303317" lon="12.7944283"><ele>257.6666666666667</ele><time>2026-04-12T10:06:10.235Z</time></trkpt><trkpt lat="43.830435" lon="12.7942533"><ele>260.33333333333337</ele><time>2026-04-12T10:06:11.236Z</time></trkpt><trkpt lat="43.8305317" lon="12.7940783"><ele>263.0</ele><time>2026-04-12T10:06:12.236Z</time></trkpt><trkpt lat="43.8306133" lon="12.7938867"><ele>263.0</ele><time>2026-04-12T10:06:13.235Z</time></trkpt><trkpt lat="43.8306833" lon="12.793685"><ele>263.0</ele><time>2026-04-12T10:06:14.236Z</time></trkpt><trkpt lat="43.83073" lon="12.79349"><ele>263.0</ele><time>2026-04-12T10:06:15.236Z</time></trkpt><trkpt lat="43.8307417" lon="12.7932733"><ele>262.33333333333337</ele><time>2026-04-12T10:06:16.235Z</time></trkpt><trkpt lat="43.8307117" lon="12.79306"><ele>261.6666666666667</ele><time>2026-04-12T10:06:17.236Z</time></trkpt><trkpt lat="43.8306767" lon="12.79284"><ele>261.0</ele><time>2026-04-12T10:06:18.235Z</time></trkpt><trkpt lat="43.83062" lon="12.7926233"><ele>263.3333333333333</ele><time>2026-04-12T10:06:19.235Z</time></trkpt><trkpt lat="43.8305583" lon="12.7924333"><ele>265.66666666666663</ele><time>2026-04-12T10:06:20.236Z</time></trkpt><trkpt lat="43.8304883" lon="12.7922483"><ele>268.0</ele><time>2026-04-12T10:06:21.236Z</time></trkpt><trkpt lat="43.8304017" lon="12.7920633"><ele>268.0</ele><time>2026-04-12T10:06:22.235Z</time></trkpt><trkpt lat="43.83033" lon="12.7919017"><ele>268.0</ele><time>2026-04-12T10:06:23.235Z</time></trkpt><trkpt lat="43.8302517" lon="12.7917567"><ele>268.0</ele><time>2026-04-12T10:06:24.236Z</time></trkpt><trkpt lat="43.8302033" lon="12.7915867"><ele>268.0</ele><time>2026-04-12T10:06:25.236Z</time></trkpt><trkpt lat="43.8301833" lon="12.7914233"><ele>269.25</ele><time>2026-04-12T10:06:26.236Z</time></trkpt><trkpt lat="43.8301967" lon="12.7912617"><ele>270.5</ele><time>2026-04-12T10:06:27.236Z</time></trkpt><trkpt lat="43.8302317" lon="12.7911017"><ele>271.75</ele><time>2026-04-12T10:06:28.236Z</time></trkpt><trkpt lat="43.83029" lon="12.7909267"><ele>273.0</ele><time>2026-04-12T10:06:29.235Z</time></trkpt><trkpt lat="43.8303633" lon="12.7907483"><ele>273.0</ele><time>2026-04-12T10:06:30.236Z</time></trkpt><trkpt lat="43.8304383" lon="12.7905667"><ele>273.0</ele><time>2026-04-12T10:06:31.236Z</time></trkpt><trkpt lat="43.8305117" lon="12.790385"><ele>273.0</ele><time>2026-04-12T10:06:32.236Z</time></trkpt><trkpt lat="43.8305783" lon="12.7902133"><ele>273.0</ele><time>2026-04-12T10:06:33.235Z</time></trkpt><trkpt lat="43.83065" lon="12.7900333"><ele>274.0</ele><time>2026-04-12T10:06:34.236Z</time></trkpt><trkpt lat="43.830725" lon="12.789865"><ele>275.0</ele><time>2026-04-12T10:06:35.236Z</time></trkpt><trkpt lat="43.83081" lon="12.789715"><ele>276.0</ele><time>2026-04-12T10:06:36.236Z</time></trkpt><trkpt lat="43.83092" lon="12.7895883"><ele>277.0</ele><time>2026-04-12T10:06:37.236Z</time></trkpt><trkpt lat="43.83105" lon="12.7894767"><ele>277.0</ele><time>2026-04-12T10:06:38.236Z</time></trkpt><trkpt lat="43.8311967" lon="12.7893783"><ele>277.0</ele><time>2026-04-12T10:06:39.235Z</time></trkpt><trkpt lat="43.8313517" lon="12.789285"><ele>277.0</ele><time>2026-04-12T10:06:40.236Z</time></trkpt><trkpt lat="43.8315083" lon="12.7891817"><ele>273.0</ele><time>2026-04-12T10:06:41.236Z</time></trkpt><trkpt lat="43.8316617" lon="12.7890933"><ele>269.0</ele><time>2026-04-12T10:06:42.235Z</time></trkpt><trkpt lat="43.8318083" lon="12.7889933"><ele>265.0</ele><time>2026-04-12T10:06:43.235Z</time></trkpt><trkpt lat="43.8319517" lon="12.7888967"><ele>265.0</ele><time>2026-04-12T10:06:44.236Z</time></trkpt><trkpt lat="43.832075" lon="12.7888083"><ele>265.0</ele><time>2026-04-12T10:06:45.235Z</time></trkpt><trkpt lat="43.832185" lon="12.7887317"><ele>265.0</ele><time>2026-04-12T10:06:46.236Z</time></trkpt><trkpt lat="43.8322817" lon="12.7886767"><ele>265.0</ele><time>2026-04-12T10:06:47.236Z</time></trkpt><trkpt lat="43.8323667" lon="12.788625"><ele>265.0</ele><time>2026-04-12T10:06:48.236Z</time></trkpt><trkpt lat="43.8324417" lon="12.7885817"><ele>265.0</ele><time>2026-04-12T10:06:49.235Z</time></trkpt><trkpt lat="43.8325017" lon="12.788545"><ele>265.0</ele><time>2026-04-12T10:06:50.236Z</time></trkpt><trkpt lat="43.83256" lon="12.78851"><ele>265.0</ele><time>2026-04-12T10:06:51.235Z</time></trkpt><trkpt lat="43.8326617" lon="12.7884467"><ele>265.0</ele><time>2026-04-12T10:06:53.236Z</time></trkpt><trkpt lat="43.8327417" lon="12.7884"><ele>265.0</ele><time>2026-04-12T10:06:55.236Z</time></trkpt><trkpt lat="43.8328233" lon="12.7883433"><ele>263.6</ele><time>2026-04-12T10:06:57.235Z</time></trkpt><trkpt lat="43.8328933" lon="12.7882917"><ele>262.2</ele><time>2026-04-12T10:06:59.236Z</time></trkpt><trkpt lat="43.8330133" lon="12.78821"><ele>260.8</ele><time>2026-04-12T10:11:39.236Z</time></trkpt><trkpt lat="43.8331" lon="12.7881133"><ele>259.4</ele><time>2026-04-12T10:11:41.235Z</time></trkpt><trkpt lat="43.83316" lon="12.7880617"><ele>258.0</ele><time>2026-04-12T10:11:42.235Z</time></trkpt><trkpt lat="43.833225" lon="12.787995"><ele>258.0</ele><time>2026-04-12T10:11:43.236Z</time></trkpt><trkpt lat="43.8332917" lon="12.7879183"><ele>258.0</ele><time>2026-04-12T10:11:44.236Z</time></trkpt><trkpt lat="43.8333617" lon="12.7878483"><ele>258.0</ele><time>2026-04-12T10:11:45.235Z</time></trkpt><trkpt lat="43.8334317" lon="12.787775"><ele>258.0</ele><time>2026-04-12T10:11:46.236Z</time></trkpt><trkpt lat="43.8335033" lon="12.787705"><ele>258.0</ele><time>2026-04-12T10:11:47.236Z</time></trkpt><trkpt lat="43.8335783" lon="12.7876267"><ele>258.0</ele><time>2026-04-12T10:11:48.236Z</time></trkpt><trkpt lat="43.8336617" lon="12.7875517"><ele>254.75</ele><time>2026-04-12T10:11:49.236Z</time></trkpt><trkpt lat="43.83375" lon="12.787465"><ele>251.5</ele><time>2026-04-12T10:11:50.236Z</time></trkpt><trkpt lat="43.8338433" lon="12.78738"><ele>248.25</ele><time>2026-04-12T10:11:51.236Z</time></trkpt><trkpt lat="43.8339433" lon="12.7872967"><ele>245.0</ele><time>2026-04-12T10:11:52.236Z</time></trkpt><trkpt lat="43.8340483" lon="12.7872033"><ele>245.0</ele><time>2026-04-12T10:11:53.236Z</time></trkpt><trkpt lat="43.8341517" lon="12.7871117"><ele>245.0</ele><time>2026-04-12T10:11:54.236Z</time></trkpt><trkpt lat="43.8342583" lon="12.787"><ele>245.0</ele><time>2026-04-12T10:11:55.236Z</time></trkpt><trkpt lat="43.834365" lon="12.7868983"><ele>245.0</ele><time>2026-04-12T10:11:56.236Z</time></trkpt><trkpt lat="43.83447" lon="12.7867917"><ele>240.75</ele><time>2026-04-12T10:11:57.236Z</time></trkpt><trkpt lat="43.834575" lon="12.7866733"><ele>236.5</ele><time>2026-04-12T10:11:58.235Z</time></trkpt><trkpt lat="43.8346867" lon="12.7865533"><ele>232.25</ele><time>2026-04-12T10:11:59.236Z</time></trkpt><trkpt lat="43.8347917" lon="12.7864367"><ele>228.0</ele><time>2026-04-12T10:12:00.235Z</time></trkpt><trkpt lat="43.8349083" lon="12.7863167"><ele>228.0</ele><time>2026-04-12T10:12:01.235Z</time></trkpt><trkpt lat="43.83501" lon="12.78618"><ele>228.0</ele><time>2026-04-12T10:12:02.236Z</time></trkpt><trkpt lat="43.8351067" lon="12.7860217"><ele>228.0</ele><time>2026-04-12T10:12:03.236Z</time></trkpt><trkpt lat="43.8351933" lon="12.7858433"><ele>228.0</ele><time>2026-04-12T10:12:04.236Z</time></trkpt><trkpt lat="43.835275" lon="12.7856667"><ele>226.66666666666669</ele><time>2026-04-12T10:12:05.235Z</time></trkpt><trkpt lat="43.8353583" lon="12.78548"><ele>225.33333333333334</ele><time>2026-04-12T10:12:06.236Z</time></trkpt><trkpt lat="43.8354383" lon="12.785295"><ele>224.0</ele><time>2026-04-12T10:12:07.236Z</time></trkpt><trkpt lat="43.835515" lon="12.7851083"><ele>224.0</ele><time>2026-04-12T10:12:08.236Z</time></trkpt><trkpt lat="43.8355967" lon="12.7849233"><ele>224.0</ele><time>2026-04-12T10:12:09.235Z</time></trkpt><trkpt lat="43.8356767" lon="12.7847383"><ele>224.0</ele><time>2026-04-12T10:12:10.236Z</time></trkpt><trkpt lat="43.835755" lon="12.7845533"><ele>224.0</ele><time>2026-04-12T10:12:11.236Z</time></trkpt><trkpt lat="43.8358383" lon="12.7843767"><ele>224.0</ele><time>2026-04-12T10:12:12.236Z</time></trkpt><trkpt lat="43.8359167" lon="12.7842083"><ele>224.0</ele><time>2026-04-12T10:12:13.235Z</time></trkpt><trkpt lat="43.83601" lon="12.7840383"><ele>221.0</ele><time>2026-04-12T10:12:14.236Z</time></trkpt><trkpt lat="43.8361" lon="12.7838667"><ele>218.0</ele><time>2026-04-12T10:12:15.236Z</time></trkpt><trkpt lat="43.8361917" lon="12.78369"><ele>215.0</ele><time>2026-04-12T10:12:16.235Z</time></trkpt><trkpt lat="43.8362767" lon="12.783515"><ele>215.5</ele><time>2026-04-12T10:12:17.236Z</time></trkpt><trkpt lat="43.8363667" lon="12.7833433"><ele>216.0</ele><time>2026-04-12T10:12:18.235Z</time></trkpt><trkpt lat="43.83645" lon="12.7831667"><ele>216.5</ele><time>2026-04-12T10:12:19.235Z</time></trkpt><trkpt lat="43.83652" lon="12.7829933"><ele>217.0</ele><time>2026-04-12T10:12:20.236Z</time></trkpt><trkpt lat="43.836585" lon="12.782805"><ele>216.0</ele><time>2026-04-12T10:12:21.236Z</time></trkpt><trkpt lat="43.8366483" lon="12.7826017"><ele>215.0</ele><time>2026-04-12T10:12:22.235Z</time></trkpt><trkpt lat="43.83671" lon="12.782395"><ele>214.0</ele><time>2026-04-12T10:12:23.236Z</time></trkpt><trkpt lat="43.8367567" lon="12.782195"><ele>211.66666666666666</ele><time>2026-04-12T10:12:24.236Z</time></trkpt><trkpt lat="43.8368033" lon="12.7819883"><ele>209.33333333333331</ele><time>2026-04-12T10:12:25.235Z</time></trkpt><trkpt lat="43.8368367" lon="12.7817833"><ele>207.0</ele><time>2026-04-12T10:12:26.236Z</time></trkpt><trkpt lat="43.83686" lon="12.7815767"><ele>206.0</ele><time>2026-04-12T10:12:27.235Z</time></trkpt><trkpt lat="43.8368717" lon="12.781375"><ele>205.0</ele><time>2026-04-12T10:12:28.235Z</time></trkpt><trkpt lat="43.8368833" lon="12.7811717"><ele>204.0</ele><time>2026-04-12T10:12:29.236Z</time></trkpt><trkpt lat="43.83689" lon="12.7809667"><ele>203.0</ele><time>2026-04-12T10:12:30.236Z</time></trkpt><trkpt lat="43.8368983" lon="12.7807633"><ele>203.0</ele><time>2026-04-12T10:12:31.236Z</time></trkpt><trkpt lat="43.8368917" lon="12.7805733"><ele>203.0</ele><time>2026-04-12T10:12:32.236Z</time></trkpt><trkpt lat="43.8368867" lon="12.78039"><ele>203.0</ele><time>2026-04-12T10:12:33.235Z</time></trkpt><trkpt lat="43.83688" lon="12.7801967"><ele>203.0</ele><time>2026-04-12T10:12:34.236Z</time></trkpt><trkpt lat="43.836845" lon="12.7800083"><ele>204.0</ele><time>2026-04-12T10:12:35.236Z</time></trkpt><trkpt lat="43.8367983" lon="12.7798383"><ele>205.0</ele><time>2026-04-12T10:12:36.236Z</time></trkpt><trkpt lat="43.8367633" lon="12.7796733"><ele>206.0</ele><time>2026-04-12T10:12:37.236Z</time></trkpt><trkpt lat="43.836725" lon="12.7795283"><ele>207.0</ele><time>2026-04-12T10:12:38.235Z</time></trkpt><trkpt lat="43.8366883" lon="12.7793917"><ele>206.5</ele><time>2026-04-12T10:12:39.236Z</time></trkpt><trkpt lat="43.83666" lon="12.77923"><ele>206.0</ele><time>2026-04-12T10:12:40.236Z</time></trkpt><trkpt lat="43.8366617" lon="12.779065"><ele>205.5</ele><time>2026-04-12T10:12:41.236Z</time></trkpt><trkpt lat="43.8366733" lon="12.778895"><ele>205.0</ele><time>2026-04-12T10:12:42.235Z</time></trkpt><trkpt lat="43.8366967" lon="12.7787217"><ele>205.0</ele><time>2026-04-12T10:12:43.235Z</time></trkpt><trkpt lat="43.83672" lon="12.7785383"><ele>205.0</ele><time>2026-04-12T10:12:44.235Z</time></trkpt><trkpt lat="43.836745" lon="12.778355"><ele>205.0</ele><time>2026-04-12T10:12:45.236Z</time></trkpt><trkpt lat="43.8367683" lon="12.7781667"><ele>205.0</ele><time>2026-04-12T10:12:46.236Z</time></trkpt><trkpt lat="43.836795" lon="12.7779767"><ele>201.25</ele><time>2026-04-12T10:12:47.235Z</time></trkpt><trkpt lat="43.8368183" lon="12.7777833"><ele>197.5</ele><time>2026-04-12T10:12:48.235Z</time></trkpt><trkpt lat="43.83684" lon="12.777585"><ele>193.75</ele><time>2026-04-12T10:12:49.235Z</time></trkpt><trkpt lat="43.8368667" lon="12.777395"><ele>190.0</ele><time>2026-04-12T10:12:50.235Z</time></trkpt><trkpt lat="43.8368883" lon="12.7772067"><ele>188.25</ele><time>2026-04-12T10:12:51.236Z</time></trkpt><trkpt lat="43.8369183" lon="12.7770233"><ele>186.5</ele><time>2026-04-12T10:12:52.236Z</time></trkpt><trkpt lat="43.836945" lon="12.77685"><ele>184.75</ele><time>2026-04-12T10:12:53.235Z</time></trkpt><trkpt lat="43.8369683" lon="12.77669"><ele>183.0</ele><time>2026-04-12T10:12:54.236Z</time></trkpt><trkpt lat="43.8369817" lon="12.77654"><ele>182.60000000000002</ele><time>2026-04-12T10:12:55.235Z</time></trkpt><trkpt lat="43.83698" lon="12.7764"><ele>182.20000000000002</ele><time>2026-04-12T10:12:56.235Z</time></trkpt><trkpt lat="43.8369417" lon="12.7762867"><ele>181.8</ele><time>2026-04-12T10:12:57.236Z</time></trkpt><trkpt lat="43.8368767" lon="12.7762033"><ele>181.4</ele><time>2026-04-12T10:12:58.235Z</time></trkpt><trkpt lat="43.8368033" lon="12.77617"><ele>181.0</ele><time>2026-04-12T10:12:59.236Z</time></trkpt><trkpt lat="43.8367067" lon="12.77618"><ele>184.20000000000002</ele><time>2026-04-12T10:13:00.236Z</time></trkpt><trkpt lat="43.8366" lon="12.776215"><ele>187.4</ele><time>2026-04-12T10:13:01.235Z</time></trkpt><trkpt lat="43.8365017" lon="12.7762533"><ele>190.6</ele><time>2026-04-12T10:13:02.236Z</time></trkpt><trkpt lat="43.8364183" lon="12.7762933"><ele>193.8</ele><time>2026-04-12T10:13:03.235Z</time></trkpt><trkpt lat="43.836345" lon="12.7763067"><ele>197.0</ele><time>2026-04-12T10:13:04.236Z</time></trkpt><trkpt lat="43.8362433" lon="12.7762283"><ele>197.0</ele><time>2026-04-12T10:13:06.236Z</time></trkpt><trkpt lat="43.83627" lon="12.77607"><ele>197.0</ele><time>2026-04-12T10:13:08.236Z</time></trkpt><trkpt lat="43.8363333" lon="12.77599"><ele>197.0</ele><time>2026-04-12T10:13:09.236Z</time></trkpt><trkpt lat="43.836405" lon="12.77591"><ele>197.0</ele><time>2026-04-12T10:13:10.235Z</time></trkpt><trkpt lat="43.8364833" lon="12.7758317"><ele>197.0</ele><time>2026-04-12T10:13:11.236Z</time></trkpt><trkpt lat="43.8365633" lon="12.7757533"><ele>195.8</ele><time>2026-04-12T10:13:12.235Z</time></trkpt><trkpt lat="43.8366367" lon="12.7756717"><ele>194.6</ele><time>2026-04-12T10:13:13.236Z</time></trkpt><trkpt lat="43.836705" lon="12.77558"><ele>193.4</ele><time>2026-04-12T10:13:14.236Z</time></trkpt><trkpt lat="43.8367683" lon="12.7754783"><ele>192.20000000000002</ele><time>2026-04-12T10:13:15.235Z</time></trkpt><trkpt lat="43.8368017" lon="12.775365"><ele>191.0</ele><time>2026-04-12T10:13:16.235Z</time></trkpt><trkpt lat="43.8367917" lon="12.77525"><ele>188.20000000000002</ele><time>2026-04-12T10:13:17.236Z</time></trkpt><trkpt lat="43.8367417" lon="12.7751533"><ele>185.4</ele><time>2026-04-12T10:13:18.235Z</time></trkpt><trkpt lat="43.8366667" lon="12.7750983"><ele>182.6</ele><time>2026-04-12T10:13:19.236Z</time></trkpt><trkpt lat="43.8365783" lon="12.775085"><ele>179.8</ele><time>2026-04-12T10:13:20.236Z</time></trkpt><trkpt lat="43.8364767" lon="12.7751133"><ele>177.0</ele><time>2026-04-12T10:13:21.235Z</time></trkpt><trkpt lat="43.8363683" lon="12.77516"><ele>177.6</ele><time>2026-04-12T10:13:22.236Z</time></trkpt><trkpt lat="43.836265" lon="12.7752033"><ele>178.2</ele><time>2026-04-12T10:13:23.235Z</time></trkpt><trkpt lat="43.8361667" lon="12.7752433"><ele>178.8</ele><time>2026-04-12T10:13:24.236Z</time></trkpt><trkpt lat="43.836065" lon="12.7752767"><ele>179.4</ele><time>2026-04-12T10:13:25.236Z</time></trkpt><trkpt lat="43.8359683" lon="12.77531"><ele>180.0</ele><time>2026-04-12T10:13:26.235Z</time></trkpt><trkpt lat="43.8358717" lon="12.775345"><ele>180.0</ele><time>2026-04-12T10:13:27.236Z</time></trkpt><trkpt lat="43.8357817" lon="12.77537"><ele>180.0</ele><time>2026-04-12T10:13:28.235Z</time></trkpt><trkpt lat="43.8356883" lon="12.7753917"><ele>180.0</ele><time>2026-04-12T10:13:29.236Z</time></trkpt><trkpt lat="43.8355933" lon="12.7754017"><ele>180.0</ele><time>2026-04-12T10:13:30.236Z</time></trkpt><trkpt lat="43.8355017" lon="12.7753783"><ele>180.0</ele><time>2026-04-12T10:13:31.235Z</time></trkpt><trkpt lat="43.8354267" lon="12.7753117"><ele>180.0</ele><time>2026-04-12T10:13:32.236Z</time></trkpt><trkpt lat="43.83539" lon="12.7752083"><ele>180.0</ele><time>2026-04-12T10:13:33.236Z</time></trkpt><trkpt lat="43.8353883" lon="12.7750983"><ele>180.0</ele><time>2026-04-12T10:13:34.235Z</time></trkpt><trkpt lat="43.835435" lon="12.7749733"><ele>180.0</ele><time>2026-04-12T10:13:35.236Z</time></trkpt><trkpt lat="43.8354917" lon="12.7748483"><ele>180.0</ele><time>2026-04-12T10:13:36.236Z</time></trkpt><trkpt lat="43.8355567" lon="12.7747267"><ele>178.4</ele><time>2026-04-12T10:13:37.236Z</time></trkpt><trkpt lat="43.8356183" lon="12.774605"><ele>176.8</ele><time>2026-04-12T10:13:38.235Z</time></trkpt><trkpt lat="43.8356717" lon="12.7744917"><ele>175.2</ele><time>2026-04-12T10:13:39.236Z</time></trkpt><trkpt lat="43.8357183" lon="12.774385"><ele>173.6</ele><time>2026-04-12T10:13:40.236Z</time></trkpt><trkpt lat="43.8357733" lon="12.7742733"><ele>172.0</ele><time>2026-04-12T10:13:41.236Z</time></trkpt><trkpt lat="43.8358283" lon="12.7741733"><ele>170.6</ele><time>2026-04-12T10:13:42.235Z</time></trkpt><trkpt lat="43.8358883" lon="12.77407"><ele>169.2</ele><time>2026-04-12T10:13:43.235Z</time></trkpt><trkpt lat="43.83596" lon="12.7739733"><ele>167.8</ele><time>2026-04-12T10:13:44.236Z</time></trkpt><trkpt lat="43.836045" lon="12.7738883"><ele>166.4</ele><time>2026-04-12T10:13:45.235Z</time></trkpt><trkpt lat="43.8361317" lon="12.77381"><ele>165.0</ele><time>2026-04-12T10:13:46.236Z</time></trkpt><trkpt lat="43.8362283" lon="12.7737417"><ele>165.0</ele><time>2026-04-12T10:13:47.236Z</time></trkpt><trkpt lat="43.83632" lon="12.7736733"><ele>165.0</ele><time>2026-04-12T10:13:48.236Z</time></trkpt><trkpt lat="43.8364183" lon="12.7736083"><ele>165.0</ele><time>2026-04-12T10:13:49.236Z</time></trkpt><trkpt lat="43.8365133" lon="12.773545"><ele>165.0</ele><time>2026-04-12T10:13:50.236Z</time></trkpt><trkpt lat="43.83661" lon="12.7734667"><ele>165.0</ele><time>2026-04-12T10:13:51.236Z</time></trkpt><trkpt lat="43.8366933" lon="12.7733683"><ele>162.25</ele><time>2026-04-12T10:13:52.236Z</time></trkpt><trkpt lat="43.83676" lon="12.7732433"><ele>159.5</ele><time>2026-04-12T10:13:53.236Z</time></trkpt><trkpt lat="43.836805" lon="12.7731017"><ele>156.75</ele><time>2026-04-12T10:13:54.235Z</time></trkpt><trkpt lat="43.8368433" lon="12.7729517"><ele>154.0</ele><time>2026-04-12T10:13:55.236Z</time></trkpt><trkpt lat="43.8368817" lon="12.77279"><ele>151.4</ele><time>2026-04-12T10:13:56.236Z</time></trkpt><trkpt lat="43.83691" lon="12.7726283"><ele>148.8</ele><time>2026-04-12T10:13:57.236Z</time></trkpt><trkpt lat="43.8369433" lon="12.7724733"><ele>146.2</ele><time>2026-04-12T10:13:58.236Z</time></trkpt><trkpt lat="43.8369783" lon="12.7723283"><ele>143.6</ele><time>2026-04-12T10:13:59.236Z</time></trkpt><trkpt lat="43.8370117" lon="12.772195"><ele>141.0</ele><time>2026-04-12T10:14:00.235Z</time></trkpt><trkpt lat="43.837045" lon="12.7720733"><ele>141.0</ele><time>2026-04-12T10:14:01.235Z</time></trkpt><trkpt lat="43.83708" lon="12.77197"><ele>141.0</ele><time>2026-04-12T10:14:02.236Z</time></trkpt><trkpt lat="43.8371267" lon="12.7719017"><ele>141.0</ele><time>2026-04-12T10:14:03.236Z</time></trkpt><trkpt lat="43.837245" lon="12.7719217"><ele>141.0</ele><time>2026-04-12T10:14:05.236Z</time></trkpt><trkpt lat="43.8373033" lon="12.7720083"><ele>141.0</ele><time>2026-04-12T10:14:06.236Z</time></trkpt><trkpt lat="43.8373583" lon="12.772135"><ele>141.0</ele><time>2026-04-12T10:14:07.236Z</time></trkpt><trkpt lat="43.8374083" lon="12.7722833"><ele>141.0</ele><time>2026-04-12T10:14:08.235Z</time></trkpt><trkpt lat="43.8374583" lon="12.77242"><ele>141.0</ele><time>2026-04-12T10:14:09.235Z</time></trkpt><trkpt lat="43.8375217" lon="12.7725583"><ele>141.0</ele><time>2026-04-12T10:14:10.236Z</time></trkpt><trkpt lat="43.8375933" lon="12.7726767"><ele>139.8</ele><time>2026-04-12T10:14:11.236Z</time></trkpt><trkpt lat="43.8376767" lon="12.772775"><ele>138.6</ele><time>2026-04-12T10:14:12.235Z</time></trkpt><trkpt lat="43.8377583" lon="12.7728617"><ele>137.4</ele><time>2026-04-12T10:14:13.236Z</time></trkpt><trkpt lat="43.837845" lon="12.772945"><ele>136.2</ele><time>2026-04-12T10:14:14.236Z</time></trkpt><trkpt lat="43.8379117" lon="12.7730183"><ele>135.0</ele><time>2026-04-12T10:14:15.236Z</time></trkpt><trkpt lat="43.83797" lon="12.7730833"><ele>135.0</ele><time>2026-04-12T10:14:16.235Z</time></trkpt><trkpt lat="43.838035" lon="12.7731167"><ele>135.0</ele><time>2026-04-12T10:14:17.235Z</time></trkpt><trkpt lat="43.8381" lon="12.7730983"><ele>135.0</ele><time>2026-04-12T10:14:18.236Z</time></trkpt><trkpt lat="43.8381433" lon="12.7730333"><ele>135.0</ele><time>2026-04-12T10:14:19.235Z</time></trkpt><trkpt lat="43.8381417" lon="12.7729317"><ele>135.0</ele><time>2026-04-12T10:14:20.236Z</time></trkpt><trkpt lat="43.8380967" lon="12.7728267"><ele>135.0</ele><time>2026-04-12T10:14:21.236Z</time></trkpt><trkpt lat="43.8380367" lon="12.7727367"><ele>135.0</ele><time>2026-04-12T10:14:22.235Z</time></trkpt><trkpt lat="43.8379583" lon="12.772655"><ele>132.83333333333334</ele><time>2026-04-12T10:14:23.236Z</time></trkpt><trkpt lat="43.8378883" lon="12.772575"><ele>130.66666666666666</ele><time>2026-04-12T10:14:24.236Z</time></trkpt><trkpt lat="43.8378167" lon="12.77251"><ele>128.5</ele><time>2026-04-12T10:14:25.235Z</time></trkpt><trkpt lat="43.8377717" lon="12.7724383"><ele>126.33333333333333</ele><time>2026-04-12T10:14:26.236Z</time></trkpt><trkpt lat="43.8377367" lon="12.7723567"><ele>124.16666666666666</ele><time>2026-04-12T10:14:27.236Z</time></trkpt><trkpt lat="43.8377633" lon="12.772245"><ele>122.0</ele><time>2026-04-12T10:14:29.236Z</time></trkpt><trkpt lat="43.837875" lon="12.7723183"><ele>122.0</ele><time>2026-04-12T10:14:31.236Z</time></trkpt><trkpt lat="43.8379433" lon="12.77241"><ele>121.99999999999999</ele><time>2026-04-12T10:14:32.235Z</time></trkpt><trkpt lat="43.8380183" lon="12.77251"><ele>121.99999999999999</ele><time>2026-04-12T10:14:33.236Z</time></trkpt><trkpt lat="43.8381033" lon="12.772625"><ele>122.0</ele><time>2026-04-12T10:14:34.236Z</time></trkpt><trkpt lat="43.8381967" lon="12.7727317"><ele>122.0</ele><time>2026-04-12T10:14:35.236Z</time></trkpt><trkpt lat="43.8383117" lon="12.7728517"><ele>120.8</ele><time>2026-04-12T10:14:36.236Z</time></trkpt><trkpt lat="43.8384083" lon="12.77294"><ele>119.6</ele><time>2026-04-12T10:14:37.235Z</time></trkpt><trkpt lat="43.8385017" lon="12.7730417"><ele>118.39999999999999</ele><time>2026-04-12T10:14:38.236Z</time></trkpt><trkpt lat="43.8385667" lon="12.77313"><ele>117.19999999999999</ele><time>2026-04-12T10:14:39.235Z</time></trkpt><trkpt lat="43.8386333" lon="12.773225"><ele>116.0</ele><time>2026-04-12T10:14:40.235Z</time></trkpt><trkpt lat="43.8387" lon="12.7733217"><ele>115.99999999999999</ele><time>2026-04-12T10:14:41.235Z</time></trkpt><trkpt lat="43.838775" lon="12.7733983"><ele>116.0</ele><time>2026-04-12T10:14:42.236Z</time></trkpt><trkpt lat="43.83885" lon="12.7734333"><ele>116.0</ele><time>2026-04-12T10:14:43.236Z</time></trkpt><trkpt lat="43.8389283" lon="12.77343"><ele>116.0</ele><time>2026-04-12T10:14:44.236Z</time></trkpt><trkpt lat="43.8389967" lon="12.773365"><ele>115.99999999999999</ele><time>2026-04-12T10:14:45.236Z</time></trkpt><trkpt lat="43.8390133" lon="12.7732533"><ele>116.0</ele><time>2026-04-12T10:14:46.236Z</time></trkpt><trkpt lat="43.839005" lon="12.773125"><ele>116.0</ele><time>2026-04-12T10:14:47.236Z</time></trkpt><trkpt lat="43.8389667" lon="12.7729917"><ele>116.0</ele><time>2026-04-12T10:14:48.236Z</time></trkpt><trkpt lat="43.8389117" lon="12.77286"><ele>116.0</ele><time>2026-04-12T10:14:49.236Z</time></trkpt><trkpt lat="43.8388483" lon="12.7727367"><ele>116.0</ele><time>2026-04-12T10:14:50.235Z</time></trkpt><trkpt lat="43.8387867" lon="12.77261"><ele>116.0</ele><time>2026-04-12T10:14:51.236Z</time></trkpt><trkpt lat="43.8387283" lon="12.7724883"><ele>114.6</ele><time>2026-04-12T10:14:52.236Z</time></trkpt><trkpt lat="43.8386633" lon="12.7723667"><ele>113.19999999999999</ele><time>2026-04-12T10:14:53.236Z</time></trkpt><trkpt lat="43.8386117" lon="12.772255"><ele>111.80000000000001</ele><time>2026-04-12T10:14:54.235Z</time></trkpt><trkpt lat="43.83857" lon="12.7721483"><ele>110.4</ele><time>2026-04-12T10:14:55.235Z</time></trkpt><trkpt lat="43.8385317" lon="12.7719733"><ele>109.0</ele><time>2026-04-12T10:14:57.236Z</time></trkpt><trkpt lat="43.838555" lon="12.7718917"><ele>109.0</ele><time>2026-04-12T10:14:58.236Z</time></trkpt><trkpt lat="43.838625" lon="12.7718467"><ele>109.0</ele><time>2026-04-12T10:14:59.236Z</time></trkpt><trkpt lat="43.8387117" lon="12.77185"><ele>109.0</ele><time>2026-04-12T10:15:00.236Z</time></trkpt><trkpt lat="43.838805" lon="12.7718883"><ele>109.0</ele><time>2026-04-12T10:15:01.236Z</time></trkpt><trkpt lat="43.8389017" lon="12.7719467"><ele>109.0</ele><time>2026-04-12T10:15:02.236Z</time></trkpt><trkpt lat="43.8390117" lon="12.7720167"><ele>109.0</ele><time>2026-04-12T10:15:03.236Z</time></trkpt><trkpt lat="43.8391267" lon="12.772075"><ele>109.0</ele><time>2026-04-12T10:15:04.236Z</time></trkpt><trkpt lat="43.839235" lon="12.772135"><ele>109.0</ele><time>2026-04-12T10:15:05.235Z</time></trkpt><trkpt lat="43.839345" lon="12.7721933"><ele>109.0</ele><time>2026-04-12T10:15:06.236Z</time></trkpt><trkpt lat="43.83946" lon="12.77226"><ele>106.4</ele><time>2026-04-12T10:15:07.235Z</time></trkpt><trkpt lat="43.8395617" lon="12.772345"><ele>103.80000000000001</ele><time>2026-04-12T10:15:08.236Z</time></trkpt><trkpt lat="43.83965" lon="12.7724367"><ele>101.19999999999999</ele><time>2026-04-12T10:15:09.236Z</time></trkpt><trkpt lat="43.8397283" lon="12.7725433"><ele>98.6</ele><time>2026-04-12T10:15:10.236Z</time></trkpt><trkpt lat="43.8397967" lon="12.7726367"><ele>96.0</ele><time>2026-04-12T10:15:11.236Z</time></trkpt><trkpt lat="43.839855" lon="12.77273"><ele>96.0</ele><time>2026-04-12T10:15:12.235Z</time></trkpt><trkpt lat="43.8399067" lon="12.77281"><ele>96.0</ele><time>2026-04-12T10:15:13.235Z</time></trkpt><trkpt lat="43.8399617" lon="12.772855"><ele>96.0</ele><time>2026-04-12T10:15:14.236Z</time></trkpt><trkpt lat="43.840075" lon="12.7728267"><ele>96.0</ele><time>2026-04-12T10:15:16.235Z</time></trkpt><trkpt lat="43.8401017" lon="12.77274"><ele>96.0</ele><time>2026-04-12T10:15:17.236Z</time></trkpt><trkpt lat="43.84009" lon="12.7726167"><ele>96.0</ele><time>2026-04-12T10:15:18.236Z</time></trkpt><trkpt lat="43.8400517" lon="12.772485"><ele>94.5</ele><time>2026-04-12T10:15:19.235Z</time></trkpt><trkpt lat="43.8399933" lon="12.77235"><ele>93.0</ele><time>2026-04-12T10:15:20.236Z</time></trkpt><trkpt lat="43.83992" lon="12.77222"><ele>91.5</ele><time>2026-04-12T10:15:21.236Z</time></trkpt><trkpt lat="43.83985" lon="12.7720933"><ele>90.0</ele><time>2026-04-12T10:15:22.236Z</time></trkpt><trkpt lat="43.8397933" lon="12.771965"><ele>88.0</ele><time>2026-04-12T10:15:23.236Z</time></trkpt><trkpt lat="43.839745" lon="12.77183"><ele>86.0</ele><time>2026-04-12T10:15:24.235Z</time></trkpt><trkpt lat="43.8397067" lon="12.771695"><ele>84.0</ele><time>2026-04-12T10:15:25.236Z</time></trkpt><trkpt lat="43.8396867" lon="12.7715417"><ele>82.0</ele><time>2026-04-12T10:15:26.236Z</time></trkpt><trkpt lat="43.8396783" lon="12.771385"><ele>80.0</ele><time>2026-04-12T10:15:27.236Z</time></trkpt><trkpt lat="43.8396783" lon="12.77123"><ele>80.0</ele><time>2026-04-12T10:15:28.236Z</time></trkpt><trkpt lat="43.8396867" lon="12.7710683"><ele>80.0</ele><time>2026-04-12T10:15:29.236Z</time></trkpt><trkpt lat="43.8396933" lon="12.770905"><ele>80.0</ele><time>2026-04-12T10:15:30.236Z</time></trkpt><trkpt lat="43.839705" lon="12.770745"><ele>80.0</ele><time>2026-04-12T10:15:31.235Z</time></trkpt><trkpt lat="43.8397083" lon="12.7706067"><ele>79.6</ele><time>2026-04-12T10:15:32.236Z</time></trkpt><trkpt lat="43.839725" lon="12.7704617"><ele>79.2</ele><time>2026-04-12T10:15:33.235Z</time></trkpt><trkpt lat="43.8397333" lon="12.7703317"><ele>78.8</ele><time>2026-04-12T10:15:34.236Z</time></trkpt><trkpt lat="43.8397417" lon="12.7702183"><ele>78.4</ele><time>2026-04-12T10:15:35.235Z</time></trkpt><trkpt lat="43.83975" lon="12.7701217"><ele>78.0</ele><time>2026-04-12T10:15:36.235Z</time></trkpt><trkpt lat="43.8397717" lon="12.769965"><ele>77.5</ele><time>2026-04-12T10:15:38.236Z</time></trkpt><trkpt lat="43.8398117" lon="12.7698717"><ele>77.0</ele><time>2026-04-12T10:15:40.236Z</time></trkpt><trkpt lat="43.8398717" lon="12.7697517"><ele>76.5</ele><time>2026-04-12T10:15:42.236Z</time></trkpt><trkpt lat="43.8398933" lon="12.7696633"><ele>76.0</ele><time>2026-04-12T10:15:43.235Z</time></trkpt><trkpt lat="43.8399133" lon="12.76956"><ele>75.5</ele><time>2026-04-12T10:15:44.236Z</time></trkpt><trkpt lat="43.8399367" lon="12.769445"><ele>75.0</ele><time>2026-04-12T10:15:45.236Z</time></trkpt><trkpt lat="43.8399767" lon="12.769325"><ele>74.4</ele><time>2026-04-12T10:15:46.235Z</time></trkpt><trkpt lat="43.840025" lon="12.7692017"><ele>73.8</ele><time>2026-04-12T10:15:47.235Z</time></trkpt><trkpt lat="43.8400783" lon="12.76908"><ele>73.2</ele><time>2026-04-12T10:15:48.235Z</time></trkpt><trkpt lat="43.840135" lon="12.7689483"><ele>72.6</ele><time>2026-04-12T10:15:49.235Z</time></trkpt><trkpt lat="43.8401917" lon="12.76882"><ele>72.0</ele><time>2026-04-12T10:15:50.235Z</time></trkpt><trkpt lat="43.840245" lon="12.768685"><ele>71.0</ele><time>2026-04-12T10:15:51.236Z</time></trkpt><trkpt lat="43.8403033" lon="12.7685517"><ele>70.0</ele><time>2026-04-12T10:15:52.236Z</time></trkpt><trkpt lat="43.84036" lon="12.7684283"><ele>69.0</ele><time>2026-04-12T10:15:53.236Z</time></trkpt><trkpt lat="43.840415" lon="12.7683117"><ele>68.0</ele><time>2026-04-12T10:15:54.236Z</time></trkpt><trkpt lat="43.840465" lon="12.768205"><ele>67.0</ele><time>2026-04-12T10:15:55.236Z</time></trkpt><trkpt lat="43.8405133" lon="12.7681117"><ele>67.0</ele><time>2026-04-12T10:15:56.236Z</time></trkpt><trkpt lat="43.8405617" lon="12.7680417"><ele>67.0</ele><time>2026-04-12T10:15:57.236Z</time></trkpt><trkpt lat="43.840635" lon="12.7679617"><ele>67.0</ele><time>2026-04-12T10:15:59.236Z</time></trkpt><trkpt lat="43.840705" lon="12.7679217"><ele>67.0</ele><time>2026-04-12T10:16:01.236Z</time></trkpt><trkpt lat="43.8408033" lon="12.7678933"><ele>67.0</ele><time>2026-04-12T10:16:03.235Z</time></trkpt><trkpt lat="43.8408833" lon="12.7679"><ele>67.0</ele><time>2026-04-12T10:16:04.236Z</time></trkpt><trkpt lat="43.840975" lon="12.7679417"><ele>66.25</ele><time>2026-04-12T10:16:05.236Z</time></trkpt><trkpt lat="43.8410667" lon="12.7680183"><ele>65.5</ele><time>2026-04-12T10:16:06.236Z</time></trkpt><trkpt lat="43.8411617" lon="12.7681167"><ele>64.75</ele><time>2026-04-12T10:16:07.235Z</time></trkpt><trkpt lat="43.8412667" lon="12.768225"><ele>64.0</ele><time>2026-04-12T10:16:08.235Z</time></trkpt><trkpt lat="43.8413767" lon="12.7683433"><ele>64.0</ele><time>2026-04-12T10:16:09.236Z</time></trkpt><trkpt lat="43.84149" lon="12.76847"><ele>64.0</ele><time>2026-04-12T10:16:10.236Z</time></trkpt><trkpt lat="43.8416017" lon="12.7686117"><ele>64.0</ele><time>2026-04-12T10:16:11.236Z</time></trkpt><trkpt lat="43.841725" lon="12.7687517"><ele>63.33333333333333</ele><time>2026-04-12T10:16:12.236Z</time></trkpt><trkpt lat="43.8418517" lon="12.7689"><ele>62.66666666666667</ele><time>2026-04-12T10:16:13.236Z</time></trkpt><trkpt lat="43.8419783" lon="12.7690533"><ele>62.0</ele><time>2026-04-12T10:16:14.236Z</time></trkpt><trkpt lat="43.842105" lon="12.7692083"><ele>62.66666666666667</ele><time>2026-04-12T10:16:15.236Z</time></trkpt><trkpt lat="43.8422333" lon="12.7693717"><ele>63.33333333333333</ele><time>2026-04-12T10:16:16.236Z</time></trkpt><trkpt lat="43.8423683" lon="12.7695317"><ele>64.0</ele><time>2026-04-12T10:16:17.236Z</time></trkpt><trkpt lat="43.8425067" lon="12.7696933"><ele>63.0</ele><time>2026-04-12T10:16:18.236Z</time></trkpt><trkpt lat="43.842645" lon="12.7698667"><ele>62.0</ele><time>2026-04-12T10:16:19.236Z</time></trkpt><trkpt lat="43.8427883" lon="12.7700433"><ele>61.0</ele><time>2026-04-12T10:16:20.236Z</time></trkpt><trkpt lat="43.84293" lon="12.770215"><ele>61.0</ele><time>2026-04-12T10:16:21.235Z</time></trkpt><trkpt lat="43.843065" lon="12.77038"><ele>61.0</ele><time>2026-04-12T10:16:22.235Z</time></trkpt><trkpt lat="43.8431983" lon="12.7705433"><ele>61.0</ele><time>2026-04-12T10:16:23.236Z</time></trkpt><trkpt lat="43.8433233" lon="12.7706967"><ele>61.0</ele><time>2026-04-12T10:16:24.236Z</time></trkpt><trkpt lat="43.8434517" lon="12.77085"><ele>61.0</ele><time>2026-04-12T10:16:25.236Z</time></trkpt><trkpt lat="43.843575" lon="12.7709933"><ele>61.0</ele><time>2026-04-12T10:16:26.235Z</time></trkpt><trkpt lat="43.8436983" lon="12.7711417"><ele>60.0</ele><time>2026-04-12T10:16:27.236Z</time></trkpt><trkpt lat="43.8438133" lon="12.7712967"><ele>59.0</ele><time>2026-04-12T10:16:28.236Z</time></trkpt><trkpt lat="43.8439283" lon="12.7714417"><ele>58.0</ele><time>2026-04-12T10:16:29.236Z</time></trkpt><trkpt lat="43.8440417" lon="12.7715917"><ele>58.0</ele><time>2026-04-12T10:16:30.236Z</time></trkpt><trkpt lat="43.8441583" lon="12.771745"><ele>58.0</ele><time>2026-04-12T10:16:31.236Z</time></trkpt><trkpt lat="43.8442733" lon="12.7719067"><ele>58.0</ele><time>2026-04-12T10:16:32.235Z</time></trkpt><trkpt lat="43.844395" lon="12.7720783"><ele>57.0</ele><time>2026-04-12T10:16:33.236Z</time></trkpt><trkpt lat="43.8445017" lon="12.7722617"><ele>56.0</ele><time>2026-04-12T10:16:34.236Z</time></trkpt><trkpt lat="43.8446017" lon="12.7724517"><ele>55.0</ele><time>2026-04-12T10:16:35.236Z</time></trkpt><trkpt lat="43.8446967" lon="12.7726533"><ele>55.33333333333333</ele><time>2026-04-12T10:16:36.236Z</time></trkpt><trkpt lat="43.8447867" lon="12.7728667"><ele>55.66666666666667</ele><time>2026-04-12T10:16:37.236Z</time></trkpt><trkpt lat="43.8448683" lon="12.77309"><ele>56.0</ele><time>2026-04-12T10:16:38.236Z</time></trkpt><trkpt lat="43.844945" lon="12.7733217"><ele>55.333333333333336</ele><time>2026-04-12T10:16:39.236Z</time></trkpt><trkpt lat="43.845015" lon="12.7735633"><ele>54.66666666666667</ele><time>2026-04-12T10:16:40.236Z</time></trkpt><trkpt lat="43.8450767" lon="12.7738133"><ele>54.0</ele><time>2026-04-12T10:16:41.236Z</time></trkpt><trkpt lat="43.845135" lon="12.7740667"><ele>54.0</ele><time>2026-04-12T10:16:42.235Z</time></trkpt><trkpt lat="43.84519" lon="12.7743183"><ele>54.0</ele><time>2026-04-12T10:16:43.236Z</time></trkpt><trkpt lat="43.8452533" lon="12.7745833"><ele>54.0</ele><time>2026-04-12T10:16:44.236Z</time></trkpt><trkpt lat="43.8453183" lon="12.7748417"><ele>53.0</ele><time>2026-04-12T10:16:45.236Z</time></trkpt><trkpt lat="43.8453767" lon="12.7751133"><ele>52.0</ele><time>2026-04-12T10:16:46.236Z</time></trkpt><trkpt lat="43.8454367" lon="12.7753883"><ele>51.0</ele><time>2026-04-12T10:16:47.236Z</time></trkpt><trkpt lat="43.845495" lon="12.77566"><ele>49.0</ele><time>2026-04-12T10:16:48.235Z</time></trkpt><trkpt lat="43.8455567" lon="12.7759383"><ele>47.0</ele><time>2026-04-12T10:16:49.236Z</time></trkpt><trkpt lat="43.84562" lon="12.776225"><ele>45.0</ele><time>2026-04-12T10:16:50.236Z</time></trkpt><trkpt lat="43.8456817" lon="12.776515"><ele>44.0</ele><time>2026-04-12T10:16:51.236Z</time></trkpt><trkpt lat="43.84575" lon="12.7768033"><ele>43.0</ele><time>2026-04-12T10:16:52.236Z</time></trkpt><trkpt lat="43.845815" lon="12.7770983"><ele>42.0</ele><time>2026-04-12T10:16:53.236Z</time></trkpt><trkpt lat="43.8458867" lon="12.7773933"><ele>40.5</ele><time>2026-04-12T10:16:54.235Z</time></trkpt><trkpt lat="43.8459683" lon="12.7776833"><ele>39.0</ele><time>2026-04-12T10:16:55.235Z</time></trkpt><trkpt lat="43.84606" lon="12.7779717"><ele>38.5</ele><time>2026-04-12T10:16:56.236Z</time></trkpt><trkpt lat="43.84616" lon="12.7782583"><ele>38.0</ele><time>2026-04-12T10:16:57.236Z</time></trkpt><trkpt lat="43.8462667" lon="12.7785433"><ele>38.0</ele><time>2026-04-12T10:16:58.235Z</time></trkpt><trkpt lat="43.84639" lon="12.7788167"><ele>38.0</ele><time>2026-04-12T10:16:59.235Z</time></trkpt><trkpt lat="43.8465233" lon="12.7790833"><ele>38.0</ele><time>2026-04-12T10:17:00.235Z</time></trkpt><trkpt lat="43.8466667" lon="12.7793417"><ele>38.0</ele><time>2026-04-12T10:17:01.236Z</time></trkpt><trkpt lat="43.8468033" lon="12.7796117"><ele>39.5</ele><time>2026-04-12T10:17:02.235Z</time></trkpt><trkpt lat="43.8469383" lon="12.7798817"><ele>41.0</ele><time>2026-04-12T10:17:03.235Z</time></trkpt><trkpt lat="43.84707" lon="12.78015"><ele>40.5</ele><time>2026-04-12T10:17:04.235Z</time></trkpt><trkpt lat="43.8472033" lon="12.780425"><ele>40.0</ele><time>2026-04-12T10:17:05.236Z</time></trkpt><trkpt lat="43.8473333" lon="12.7806883"><ele>40.0</ele><time>2026-04-12T10:17:06.236Z</time></trkpt><trkpt lat="43.8474633" lon="12.7809417"><ele>40.0</ele><time>2026-04-12T10:17:07.236Z</time></trkpt><trkpt lat="43.8475883" lon="12.7811917"><ele>40.0</ele><time>2026-04-12T10:17:08.236Z</time></trkpt><trkpt lat="43.847715" lon="12.781435"><ele>40.66666666666667</ele><time>2026-04-12T10:17:09.236Z</time></trkpt><trkpt lat="43.847835" lon="12.78168"><ele>41.333333333333336</ele><time>2026-04-12T10:17:10.236Z</time></trkpt><trkpt lat="43.84796" lon="12.781915"><ele>42.0</ele><time>2026-04-12T10:17:11.236Z</time></trkpt><trkpt lat="43.84808" lon="12.7821567"><ele>42.666666666666664</ele><time>2026-04-12T10:17:12.236Z</time></trkpt><trkpt lat="43.8482" lon="12.7823917"><ele>43.33333333333333</ele><time>2026-04-12T10:17:13.236Z</time></trkpt><trkpt lat="43.84832" lon="12.7826167"><ele>44.0</ele><time>2026-04-12T10:17:14.235Z</time></trkpt><trkpt lat="43.8484417" lon="12.7828483"><ele>44.0</ele><time>2026-04-12T10:17:15.236Z</time></trkpt><trkpt lat="43.8485583" lon="12.7830783"><ele>44.0</ele><time>2026-04-12T10:17:16.236Z</time></trkpt><trkpt lat="43.8486733" lon="12.78331"><ele>44.0</ele><time>2026-04-12T10:17:17.236Z</time></trkpt><trkpt lat="43.8487933" lon="12.7835433"><ele>43.666666666666664</ele><time>2026-04-12T10:17:18.236Z</time></trkpt><trkpt lat="43.8489117" lon="12.7837717"><ele>43.333333333333336</ele><time>2026-04-12T10:17:19.236Z</time></trkpt><trkpt lat="43.849025" lon="12.7839967"><ele>43.0</ele><time>2026-04-12T10:17:20.235Z</time></trkpt><trkpt lat="43.849145" lon="12.78422"><ele>43.333333333333336</ele><time>2026-04-12T10:17:21.235Z</time></trkpt><trkpt lat="43.8492633" lon="12.7844433"><ele>43.666666666666664</ele><time>2026-04-12T10:17:22.235Z</time></trkpt><trkpt lat="43.8493783" lon="12.78467"><ele>44.0</ele><time>2026-04-12T10:17:23.236Z</time></trkpt><trkpt lat="43.84949" lon="12.7848917"><ele>43.33333333333333</ele><time>2026-04-12T10:17:24.236Z</time></trkpt><trkpt lat="43.8496033" lon="12.7851033"><ele>42.666666666666664</ele><time>2026-04-12T10:17:25.236Z</time></trkpt><trkpt lat="43.849715" lon="12.7853167"><ele>42.0</ele><time>2026-04-12T10:17:26.236Z</time></trkpt><trkpt lat="43.8498267" lon="12.7855183"><ele>42.0</ele><time>2026-04-12T10:17:27.235Z</time></trkpt><trkpt lat="43.84994" lon="12.7857067"><ele>42.0</ele><time>2026-04-12T10:17:28.236Z</time></trkpt><trkpt lat="43.85005" lon="12.7858933"><ele>42.0</ele><time>2026-04-12T10:17:29.235Z</time></trkpt><trkpt lat="43.8501483" lon="12.7860717"><ele>41.0</ele><time>2026-04-12T10:17:30.236Z</time></trkpt><trkpt lat="43.85024" lon="12.786245"><ele>40.0</ele><time>2026-04-12T10:17:31.236Z</time></trkpt><trkpt lat="43.850335" lon="12.786415"><ele>39.0</ele><time>2026-04-12T10:17:32.236Z</time></trkpt><trkpt lat="43.850425" lon="12.7865817"><ele>39.0</ele><time>2026-04-12T10:17:33.235Z</time></trkpt><trkpt lat="43.8505033" lon="12.786735"><ele>39.0</ele><time>2026-04-12T10:17:34.236Z</time></trkpt><trkpt lat="43.8505817" lon="12.7868867"><ele>39.0</ele><time>2026-04-12T10:17:35.235Z</time></trkpt><trkpt lat="43.8506567" lon="12.787025"><ele>39.0</ele><time>2026-04-12T10:17:36.236Z</time></trkpt><trkpt lat="43.8507267" lon="12.7871517"><ele>39.333333333333336</ele><time>2026-04-12T10:17:37.236Z</time></trkpt><trkpt lat="43.8507867" lon="12.78727"><ele>39.666666666666664</ele><time>2026-04-12T10:17:38.235Z</time></trkpt><trkpt lat="43.85083" lon="12.7873833"><ele>40.0</ele><time>2026-04-12T10:17:39.236Z</time></trkpt><trkpt lat="43.8508617" lon="12.787495"><ele>40.33333333333333</ele><time>2026-04-12T10:17:40.236Z</time></trkpt><trkpt lat="43.85088" lon="12.787595"><ele>40.666666666666664</ele><time>2026-04-12T10:17:41.235Z</time></trkpt><trkpt lat="43.8508933" lon="12.7876867"><ele>41.0</ele><time>2026-04-12T10:17:42.236Z</time></trkpt><trkpt lat="43.8509167" lon="12.787775"><ele>41.0</ele><time>2026-04-12T10:17:43.236Z</time></trkpt><trkpt lat="43.851015" lon="12.787845"><ele>41.0</ele><time>2026-04-12T10:17:45.236Z</time></trkpt><trkpt lat="43.851075" lon="12.7877933"><ele>41.0</ele><time>2026-04-12T10:17:46.236Z</time></trkpt><trkpt lat="43.8511217" lon="12.7877083"><ele>41.0</ele><time>2026-04-12T10:17:47.236Z</time></trkpt><trkpt lat="43.851165" lon="12.7876033"><ele>41.0</ele><time>2026-04-12T10:17:48.235Z</time></trkpt><trkpt lat="43.8512167" lon="12.7874983"><ele>41.0</ele><time>2026-04-12T10:17:49.235Z</time></trkpt><trkpt lat="43.8512833" lon="12.78741"><ele>40.25</ele><time>2026-04-12T10:17:50.236Z</time></trkpt><trkpt lat="43.8513667" lon="12.7873183"><ele>39.5</ele><time>2026-04-12T10:17:51.235Z</time></trkpt><trkpt lat="43.851455" lon="12.7872233"><ele>38.75</ele><time>2026-04-12T10:17:52.236Z</time></trkpt><trkpt lat="43.8515433" lon="12.7871233"><ele>38.0</ele><time>2026-04-12T10:17:53.236Z</time></trkpt><trkpt lat="43.8516417" lon="12.787015"><ele>38.0</ele><time>2026-04-12T10:17:54.236Z</time></trkpt><trkpt lat="43.8517433" lon="12.7869033"><ele>38.0</ele><time>2026-04-12T10:17:55.236Z</time></trkpt><trkpt lat="43.8518467" lon="12.7867883"><ele>38.0</ele><time>2026-04-12T10:17:56.236Z</time></trkpt><trkpt lat="43.851955" lon="12.78668"><ele>38.0</ele><time>2026-04-12T10:17:57.235Z</time></trkpt><trkpt lat="43.85206" lon="12.7865583"><ele>38.5</ele><time>2026-04-12T10:17:58.236Z</time></trkpt><trkpt lat="43.8521617" lon="12.7864417"><ele>39.0</ele><time>2026-04-12T10:17:59.236Z</time></trkpt><trkpt lat="43.8522633" lon="12.7863267"><ele>39.5</ele><time>2026-04-12T10:18:00.236Z</time></trkpt><trkpt lat="43.8523683" lon="12.78621"><ele>40.0</ele><time>2026-04-12T10:18:01.235Z</time></trkpt><trkpt lat="43.8524667" lon="12.7860783"><ele>40.5</ele><time>2026-04-12T10:18:02.236Z</time></trkpt><trkpt lat="43.85256" lon="12.7859383"><ele>41.0</ele><time>2026-04-12T10:18:03.236Z</time></trkpt><trkpt lat="43.852655" lon="12.7857867"><ele>41.5</ele><time>2026-04-12T10:18:04.236Z</time></trkpt><trkpt lat="43.8527467" lon="12.7856417"><ele>42.0</ele><time>2026-04-12T10:18:05.235Z</time></trkpt><trkpt lat="43.8528333" lon="12.7854967"><ele>42.0</ele><time>2026-04-12T10:18:06.236Z</time></trkpt><trkpt lat="43.8529233" lon="12.7853467"><ele>42.0</ele><time>2026-04-12T10:18:07.235Z</time></trkpt><trkpt lat="43.853015" lon="12.7851983"><ele>42.0</ele><time>2026-04-12T10:18:08.235Z</time></trkpt><trkpt lat="43.8531117" lon="12.7850433"><ele>42.0</ele><time>2026-04-12T10:18:09.236Z</time></trkpt><trkpt lat="43.8532033" lon="12.7848967"><ele>42.0</ele><time>2026-04-12T10:18:10.235Z</time></trkpt><trkpt lat="43.8532967" lon="12.78474"><ele>42.0</ele><time>2026-04-12T10:18:11.236Z</time></trkpt><trkpt lat="43.8533933" lon="12.7845817"><ele>42.0</ele><time>2026-04-12T10:18:12.236Z</time></trkpt><trkpt lat="43.8534867" lon="12.7844233"><ele>42.0</ele><time>2026-04-12T10:18:13.235Z</time></trkpt><trkpt lat="43.8535783" lon="12.7842717"><ele>43.0</ele><time>2026-04-12T10:18:14.235Z</time></trkpt><trkpt lat="43.8536667" lon="12.7841233"><ele>44.0</ele><time>2026-04-12T10:18:15.236Z</time></trkpt><trkpt lat="43.85375" lon="12.783975"><ele>45.0</ele><time>2026-04-12T10:18:16.236Z</time></trkpt><trkpt lat="43.8538267" lon="12.7838333"><ele>46.0</ele><time>2026-04-12T10:18:17.236Z</time></trkpt><trkpt lat="43.8539033" lon="12.7837033"><ele>46.0</ele><time>2026-04-12T10:18:18.236Z</time></trkpt><trkpt lat="43.8539783" lon="12.7835733"><ele>46.0</ele><time>2026-04-12T10:18:19.236Z</time></trkpt><trkpt lat="43.8540617" lon="12.7834417"><ele>46.0</ele><time>2026-04-12T10:18:20.235Z</time></trkpt><trkpt lat="43.85414" lon="12.78331"><ele>46.0</ele><time>2026-04-12T10:18:21.236Z</time></trkpt><trkpt lat="43.85422" lon="12.783185"><ele>46.0</ele><time>2026-04-12T10:18:22.236Z</time></trkpt><trkpt lat="43.8542883" lon="12.783065"><ele>46.0</ele><time>2026-04-12T10:18:23.235Z</time></trkpt><trkpt lat="43.8543583" lon="12.7829533"><ele>46.0</ele><time>2026-04-12T10:18:24.236Z</time></trkpt><trkpt lat="43.8544267" lon="12.7828467"><ele>46.0</ele><time>2026-04-12T10:18:25.235Z</time></trkpt><trkpt lat="43.8544833" lon="12.7827517"><ele>46.0</ele><time>2026-04-12T10:18:26.236Z</time></trkpt><trkpt lat="43.854535" lon="12.7826633"><ele>45.833333333333336</ele><time>2026-04-12T10:18:27.236Z</time></trkpt><trkpt lat="43.8545867" lon="12.7825917"><ele>45.66666666666667</ele><time>2026-04-12T10:18:28.236Z</time></trkpt><trkpt lat="43.8546333" lon="12.7825317"><ele>45.5</ele><time>2026-04-12T10:18:29.236Z</time></trkpt><trkpt lat="43.8547383" lon="12.782445"><ele>45.333333333333336</ele><time>2026-04-12T10:18:31.236Z</time></trkpt><trkpt lat="43.854795" lon="12.7823983"><ele>45.166666666666664</ele><time>2026-04-12T10:18:32.236Z</time></trkpt><trkpt lat="43.8548417" lon="12.7823283"><ele>45.0</ele><time>2026-04-12T10:18:33.236Z</time></trkpt><trkpt lat="43.8548783" lon="12.7822283"><ele>45.0</ele><time>2026-04-12T10:18:34.236Z</time></trkpt><trkpt lat="43.854915" lon="12.782105"><ele>45.0</ele><time>2026-04-12T10:18:35.235Z</time></trkpt><trkpt lat="43.8549533" lon="12.7819717"><ele>45.0</ele><time>2026-04-12T10:18:36.236Z</time></trkpt><trkpt lat="43.854995" lon="12.7818267"><ele>45.0</ele><time>2026-04-12T10:18:37.235Z</time></trkpt><trkpt lat="43.8550317" lon="12.7816733"><ele>45.0</ele><time>2026-04-12T10:18:38.236Z</time></trkpt><trkpt lat="43.8550583" lon="12.7815117"><ele>45.0</ele><time>2026-04-12T10:18:39.236Z</time></trkpt><trkpt lat="43.855075" lon="12.7813467"><ele>45.0</ele><time>2026-04-12T10:18:40.235Z</time></trkpt><trkpt lat="43.8550717" lon="12.7811717"><ele>45.0</ele><time>2026-04-12T10:18:41.236Z</time></trkpt><trkpt lat="43.8550533" lon="12.780965"><ele>45.0</ele><time>2026-04-12T10:18:42.236Z</time></trkpt><trkpt lat="43.8550433" lon="12.78073"><ele>45.333333333333336</ele><time>2026-04-12T10:18:43.235Z</time></trkpt><trkpt lat="43.855035" lon="12.78047"><ele>45.66666666666667</ele><time>2026-04-12T10:18:44.235Z</time></trkpt><trkpt lat="43.85503" lon="12.780195"><ele>46.0</ele><time>2026-04-12T10:18:45.235Z</time></trkpt><trkpt lat="43.8550233" lon="12.77989"><ele>46.0</ele><time>2026-04-12T10:18:46.236Z</time></trkpt><trkpt lat="43.855005" lon="12.7796233"><ele>46.0</ele><time>2026-04-12T10:18:47.235Z</time></trkpt><trkpt lat="43.8549983" lon="12.7793533"><ele>46.0</ele><time>2026-04-12T10:18:48.235Z</time></trkpt><trkpt lat="43.8550083" lon="12.7790883"><ele>46.0</ele><time>2026-04-12T10:18:49.236Z</time></trkpt><trkpt lat="43.8550333" lon="12.7788417"><ele>46.0</ele><time>2026-04-12T10:18:50.235Z</time></trkpt><trkpt lat="43.855085" lon="12.778605"><ele>46.0</ele><time>2026-04-12T10:18:51.236Z</time></trkpt><trkpt lat="43.8551467" lon="12.7783833"><ele>46.333333333333336</ele><time>2026-04-12T10:18:52.236Z</time></trkpt><trkpt lat="43.855225" lon="12.7781717"><ele>46.666666666666664</ele><time>2026-04-12T10:18:53.236Z</time></trkpt><trkpt lat="43.855315" lon="12.777965"><ele>47.0</ele><time>2026-04-12T10:18:54.236Z</time></trkpt><trkpt lat="43.855415" lon="12.777765"><ele>46.666666666666664</ele><time>2026-04-12T10:18:55.236Z</time></trkpt><trkpt lat="43.8555117" lon="12.7775667"><ele>46.333333333333336</ele><time>2026-04-12T10:18:56.236Z</time></trkpt><trkpt lat="43.8556083" lon="12.7773633"><ele>46.0</ele><time>2026-04-12T10:18:57.236Z</time></trkpt><trkpt lat="43.8557067" lon="12.7771617"><ele>46.0</ele><time>2026-04-12T10:18:58.236Z</time></trkpt><trkpt lat="43.855805" lon="12.7769717"><ele>46.0</ele><time>2026-04-12T10:18:59.236Z</time></trkpt><trkpt lat="43.8558983" lon="12.776785"><ele>46.0</ele><time>2026-04-12T10:19:00.236Z</time></trkpt><trkpt lat="43.8559917" lon="12.7766083"><ele>46.0</ele><time>2026-04-12T10:19:01.235Z</time></trkpt><trkpt lat="43.8560733" lon="12.7764383"><ele>46.0</ele><time>2026-04-12T10:19:02.236Z</time></trkpt><trkpt lat="43.8561567" lon="12.77627"><ele>46.0</ele><time>2026-04-12T10:19:03.236Z</time></trkpt><trkpt lat="43.8562367" lon="12.776125"><ele>46.0</ele><time>2026-04-12T10:19:04.236Z</time></trkpt><trkpt lat="43.856315" lon="12.7760017"><ele>46.0</ele><time>2026-04-12T10:19:05.235Z</time></trkpt><trkpt lat="43.85639" lon="12.775905"><ele>46.0</ele><time>2026-04-12T10:19:06.235Z</time></trkpt><trkpt lat="43.85647" lon="12.7758367"><ele>46.0</ele><time>2026-04-12T10:19:07.235Z</time></trkpt><trkpt lat="43.8565417" lon="12.7757817"><ele>46.0</ele><time>2026-04-12T10:19:08.236Z</time></trkpt><trkpt lat="43.85662" lon="12.7757167"><ele>46.0</ele><time>2026-04-12T10:19:09.235Z</time></trkpt><trkpt lat="43.8566917" lon="12.775635"><ele>46.0</ele><time>2026-04-12T10:19:10.236Z</time></trkpt><trkpt lat="43.8567433" lon="12.7755317"><ele>46.0</ele><time>2026-04-12T10:19:11.236Z</time></trkpt><trkpt lat="43.8567833" lon="12.7754033"><ele>46.0</ele><time>2026-04-12T10:19:12.236Z</time></trkpt><trkpt lat="43.8568167" lon="12.7752617"><ele>46.0</ele><time>2026-04-12T10:19:13.236Z</time></trkpt><trkpt lat="43.8568617" lon="12.7751183"><ele>46.0</ele><time>2026-04-12T10:19:14.236Z</time></trkpt><trkpt lat="43.8569267" lon="12.7749767"><ele>46.25</ele><time>2026-04-12T10:19:15.236Z</time></trkpt><trkpt lat="43.857" lon="12.7748333"><ele>46.5</ele><time>2026-04-12T10:19:16.236Z</time></trkpt><trkpt lat="43.8570933" lon="12.7747"><ele>46.75</ele><time>2026-04-12T10:19:17.236Z</time></trkpt><trkpt lat="43.8571967" lon="12.7745633"><ele>47.0</ele><time>2026-04-12T10:19:18.236Z</time></trkpt><trkpt lat="43.8573167" lon="12.7744017"><ele>47.33333333333333</ele><time>2026-04-12T10:19:19.236Z</time></trkpt><trkpt lat="43.8574317" lon="12.7742767"><ele>47.666666666666664</ele><time>2026-04-12T10:19:20.236Z</time></trkpt><trkpt lat="43.8575533" lon="12.7741233"><ele>48.0</ele><time>2026-04-12T10:19:21.236Z</time></trkpt><trkpt lat="43.8576767" lon="12.7739567"><ele>48.0</ele><time>2026-04-12T10:19:22.236Z</time></trkpt><trkpt lat="43.8578067" lon="12.77379"><ele>48.0</ele><time>2026-04-12T10:19:23.235Z</time></trkpt><trkpt lat="43.8579317" lon="12.7736117"><ele>48.0</ele><time>2026-04-12T10:19:24.236Z</time></trkpt><trkpt lat="43.85806" lon="12.7734483"><ele>48.33333333333333</ele><time>2026-04-12T10:19:25.235Z</time></trkpt><trkpt lat="43.8581917" lon="12.7732917"><ele>48.666666666666664</ele><time>2026-04-12T10:19:26.236Z</time></trkpt><trkpt lat="43.8583183" lon="12.7731367"><ele>49.0</ele><time>2026-04-12T10:19:27.235Z</time></trkpt><trkpt lat="43.8584367" lon="12.772985"><ele>48.75</ele><time>2026-04-12T10:19:28.236Z</time></trkpt><trkpt lat="43.8585517" lon="12.7728383"><ele>48.5</ele><time>2026-04-12T10:19:29.236Z</time></trkpt><trkpt lat="43.8586567" lon="12.772705"><ele>48.25</ele><time>2026-04-12T10:19:30.236Z</time></trkpt><trkpt lat="43.85876" lon="12.7725767"><ele>48.0</ele><time>2026-04-12T10:19:31.236Z</time></trkpt><trkpt lat="43.8588533" lon="12.7724583"><ele>48.4</ele><time>2026-04-12T10:19:32.236Z</time></trkpt><trkpt lat="43.8589433" lon="12.772365"><ele>48.8</ele><time>2026-04-12T10:19:33.236Z</time></trkpt><trkpt lat="43.8590383" lon="12.7722717"><ele>49.2</ele><time>2026-04-12T10:19:34.235Z</time></trkpt><trkpt lat="43.8591233" lon="12.7721567"><ele>49.6</ele><time>2026-04-12T10:19:35.236Z</time></trkpt><trkpt lat="43.8592017" lon="12.7720717"><ele>50.0</ele><time>2026-04-12T10:19:36.236Z</time></trkpt><trkpt lat="43.8592833" lon="12.7719533"><ele>49.75</ele><time>2026-04-12T10:19:37.235Z</time></trkpt><trkpt lat="43.85937" lon="12.7718267"><ele>49.5</ele><time>2026-04-12T10:19:38.236Z</time></trkpt><trkpt lat="43.85946" lon="12.7716933"><ele>49.25</ele><time>2026-04-12T10:19:39.236Z</time></trkpt><trkpt lat="43.859565" lon="12.77156"><ele>49.0</ele><time>2026-04-12T10:19:40.235Z</time></trkpt><trkpt lat="43.85967" lon="12.77142"><ele>49.0</ele><time>2026-04-12T10:19:41.235Z</time></trkpt><trkpt lat="43.8597767" lon="12.77128"><ele>49.0</ele><time>2026-04-12T10:19:42.235Z</time></trkpt><trkpt lat="43.8598833" lon="12.7711433"><ele>49.0</ele><time>2026-04-12T10:19:43.236Z</time></trkpt><trkpt lat="43.859995" lon="12.7710067"><ele>49.0</ele><time>2026-04-12T10:19:44.236Z</time></trkpt><trkpt lat="43.8601033" lon="12.770865"><ele>50.75</ele><time>2026-04-12T10:19:45.236Z</time></trkpt><trkpt lat="43.8602033" lon="12.7707283"><ele>52.5</ele><time>2026-04-12T10:19:46.236Z</time></trkpt><trkpt lat="43.8603" lon="12.77061"><ele>54.25</ele><time>2026-04-12T10:19:47.235Z</time></trkpt><trkpt lat="43.8603883" lon="12.7705"><ele>56.0</ele><time>2026-04-12T10:19:48.236Z</time></trkpt><trkpt lat="43.86048" lon="12.770395"><ele>56.00000000000001</ele><time>2026-04-12T10:19:49.236Z</time></trkpt><trkpt lat="43.8605633" lon="12.7703133"><ele>56.0</ele><time>2026-04-12T10:19:50.236Z</time></trkpt><trkpt lat="43.86064" lon="12.7702583"><ele>56.0</ele><time>2026-04-12T10:19:51.236Z</time></trkpt><trkpt lat="43.8607083" lon="12.7702417"><ele>56.0</ele><time>2026-04-12T10:19:53.235Z</time></trkpt><trkpt lat="43.8608183" lon="12.77022"><ele>56.00000000000001</ele><time>2026-04-12T10:19:56.236Z</time></trkpt><trkpt lat="43.8608783" lon="12.7701867"><ele>56.0</ele><time>2026-04-12T10:19:57.235Z</time></trkpt><trkpt lat="43.8609267" lon="12.77012"><ele>56.50000000000001</ele><time>2026-04-12T10:19:58.235Z</time></trkpt><trkpt lat="43.8609517" lon="12.77002"><ele>57.0</ele><time>2026-04-12T10:19:59.235Z</time></trkpt><trkpt lat="43.8609317" lon="12.769915"><ele>57.5</ele><time>2026-04-12T10:20:00.236Z</time></trkpt><trkpt lat="43.8608817" lon="12.76982"><ele>58.0</ele><time>2026-04-12T10:20:01.235Z</time></trkpt><trkpt lat="43.8608233" lon="12.7697217"><ele>58.50000000000001</ele><time>2026-04-12T10:20:02.236Z</time></trkpt><trkpt lat="43.8607783" lon="12.7696067"><ele>59.0</ele><time>2026-04-12T10:20:03.235Z</time></trkpt><trkpt lat="43.8607417" lon="12.7694767"><ele>59.400000000000006</ele><time>2026-04-12T10:20:04.235Z</time></trkpt><trkpt lat="43.8606933" lon="12.7693517"><ele>59.800000000000004</ele><time>2026-04-12T10:20:05.236Z</time></trkpt><trkpt lat="43.8606367" lon="12.7692333"><ele>60.199999999999996</ele><time>2026-04-12T10:20:06.236Z</time></trkpt><trkpt lat="43.86058" lon="12.769115"><ele>60.599999999999994</ele><time>2026-04-12T10:20:07.236Z</time></trkpt><trkpt lat="43.8605233" lon="12.7689917"><ele>61.0</ele><time>2026-04-12T10:20:08.236Z</time></trkpt><trkpt lat="43.8604633" lon="12.768885"><ele>60.99999999999999</ele><time>2026-04-12T10:20:09.235Z</time></trkpt><trkpt lat="43.8604083" lon="12.7687767"><ele>61.0</ele><time>2026-04-12T10:20:10.235Z</time></trkpt><trkpt lat="43.8603517" lon="12.7686767"><ele>61.0</ele><time>2026-04-12T10:20:11.236Z</time></trkpt><trkpt lat="43.8603033" lon="12.7685783"><ele>61.0</ele><time>2026-04-12T10:20:12.235Z</time></trkpt><trkpt lat="43.8602533" lon="12.7684833"><ele>60.99999999999999</ele><time>2026-04-12T10:20:13.235Z</time></trkpt><trkpt lat="43.8602017" lon="12.7683917"><ele>61.0</ele><time>2026-04-12T10:20:14.236Z</time></trkpt><trkpt lat="43.8601517" lon="12.7683083"><ele>59.49999999999999</ele><time>2026-04-12T10:20:15.236Z</time></trkpt><trkpt lat="43.8600967" lon="12.7682333"><ele>58.0</ele><time>2026-04-12T10:20:16.235Z</time></trkpt><trkpt lat="43.8600483" lon="12.7681767"><ele>56.5</ele><time>2026-04-12T10:20:17.236Z</time></trkpt><trkpt lat="43.8599633" lon="12.7681133"><ele>55.0</ele><time>2026-04-12T10:20:19.236Z</time></trkpt><trkpt lat="43.8599" lon="12.76806"><ele>53.49999999999999</ele><time>2026-04-12T10:20:22.235Z</time></trkpt><trkpt lat="43.8598667" lon="12.7679367"><ele>52.0</ele><time>2026-04-12T10:25:07.235Z</time></trkpt><trkpt lat="43.859885" lon="12.7678517"><ele>52.0</ele><time>2026-04-12T10:25:18.234Z</time></trkpt><trkpt lat="43.8598517" lon="12.7677383"><ele>52.0</ele><time>2026-04-12T10:25:21.234Z</time></trkpt><trkpt lat="43.85982" lon="12.7676567"><ele>52.0</ele><time>2026-04-12T10:25:23.235Z</time></trkpt><trkpt lat="43.8598133" lon="12.76754"><ele>52.0</ele><time>2026-04-12T10:25:25.235Z</time></trkpt><trkpt lat="43.85982" lon="12.7674517"><ele>52.0</ele><time>2026-04-12T10:25:26.235Z</time></trkpt><trkpt lat="43.8598417" lon="12.7673617"><ele>52.0</ele><time>2026-04-12T10:25:27.235Z</time></trkpt><trkpt lat="43.859885" lon="12.76728"><ele>52.0</ele><time>2026-04-12T10:25:28.235Z</time></trkpt><trkpt lat="43.8599383" lon="12.767195"><ele>52.6</ele><time>2026-04-12T10:25:29.235Z</time></trkpt><trkpt lat="43.8599933" lon="12.7671083"><ele>53.2</ele><time>2026-04-12T10:25:30.234Z</time></trkpt><trkpt lat="43.8600583" lon="12.7670183"><ele>53.8</ele><time>2026-04-12T10:25:31.235Z</time></trkpt><trkpt lat="43.8601383" lon="12.7669167"><ele>54.4</ele><time>2026-04-12T10:25:32.234Z</time></trkpt><trkpt lat="43.8602133" lon="12.76681"><ele>55.0</ele><time>2026-04-12T10:25:33.235Z</time></trkpt><trkpt lat="43.8602933" lon="12.7666983"><ele>58.5</ele><time>2026-04-12T10:25:34.235Z</time></trkpt><trkpt lat="43.8603717" lon="12.7665717"><ele>62.0</ele><time>2026-04-12T10:25:35.235Z</time></trkpt><trkpt lat="43.8604383" lon="12.7664333"><ele>65.5</ele><time>2026-04-12T10:25:36.235Z</time></trkpt><trkpt lat="43.8604983" lon="12.7662983"><ele>69.0</ele><time>2026-04-12T10:25:37.235Z</time></trkpt><trkpt lat="43.860565" lon="12.7661533"><ele>67.75</ele><time>2026-04-12T10:25:38.235Z</time></trkpt><trkpt lat="43.860615" lon="12.7659983"><ele>66.5</ele><time>2026-04-12T10:25:39.234Z</time></trkpt><trkpt lat="43.8606767" lon="12.7658417"><ele>65.25</ele><time>2026-04-12T10:25:40.234Z</time></trkpt><trkpt lat="43.8607367" lon="12.765685"><ele>64.0</ele><time>2026-04-12T10:25:41.235Z</time></trkpt><trkpt lat="43.8608017" lon="12.7655367"><ele>64.0</ele><time>2026-04-12T10:25:42.235Z</time></trkpt><trkpt lat="43.8608583" lon="12.7653883"><ele>64.0</ele><time>2026-04-12T10:25:43.234Z</time></trkpt><trkpt lat="43.860935" lon="12.765255"><ele>64.0</ele><time>2026-04-12T10:25:44.235Z</time></trkpt><trkpt lat="43.86103" lon="12.7651167"><ele>64.0</ele><time>2026-04-12T10:25:45.235Z</time></trkpt><trkpt lat="43.8611383" lon="12.7649783"><ele>64.75</ele><time>2026-04-12T10:25:46.235Z</time></trkpt><trkpt lat="43.8612533" lon="12.7648517"><ele>65.5</ele><time>2026-04-12T10:25:47.235Z</time></trkpt><trkpt lat="43.8613733" lon="12.76472"><ele>66.25</ele><time>2026-04-12T10:25:48.235Z</time></trkpt><trkpt lat="43.86149" lon="12.7645983"><ele>67.0</ele><time>2026-04-12T10:25:49.234Z</time></trkpt><trkpt lat="43.861615" lon="12.7644783"><ele>67.0</ele><time>2026-04-12T10:25:50.235Z</time></trkpt><trkpt lat="43.8617433" lon="12.7643683"><ele>67.0</ele><time>2026-04-12T10:25:51.234Z</time></trkpt><trkpt lat="43.861885" lon="12.7642667"><ele>67.0</ele><time>2026-04-12T10:25:52.235Z</time></trkpt><trkpt lat="43.862035" lon="12.7641733"><ele>65.33333333333333</ele><time>2026-04-12T10:25:53.234Z</time></trkpt><trkpt lat="43.8621883" lon="12.7640817"><ele>63.66666666666667</ele><time>2026-04-12T10:25:54.235Z</time></trkpt><trkpt lat="43.8623467" lon="12.763995"><ele>62.0</ele><time>2026-04-12T10:25:55.235Z</time></trkpt><trkpt lat="43.8625017" lon="12.7639033"><ele>62.333333333333336</ele><time>2026-04-12T10:25:56.235Z</time></trkpt><trkpt lat="43.862665" lon="12.7638017"><ele>62.66666666666667</ele><time>2026-04-12T10:25:57.234Z</time></trkpt><trkpt lat="43.8628217" lon="12.7637067"><ele>63.0</ele><time>2026-04-12T10:25:58.235Z</time></trkpt><trkpt lat="43.8629683" lon="12.7636033"><ele>62.0</ele><time>2026-04-12T10:25:59.234Z</time></trkpt><trkpt lat="43.8631367" lon="12.76352"><ele>61.0</ele><time>2026-04-12T10:26:00.235Z</time></trkpt><trkpt lat="43.8633017" lon="12.7634233"><ele>60.0</ele><time>2026-04-12T10:26:01.235Z</time></trkpt><trkpt lat="43.86346" lon="12.7633267"><ele>62.66666666666667</ele><time>2026-04-12T10:26:02.234Z</time></trkpt><trkpt lat="43.8636133" lon="12.763225"><ele>65.33333333333334</ele><time>2026-04-12T10:26:03.235Z</time></trkpt><trkpt lat="43.86377" lon="12.763095"><ele>68.0</ele><time>2026-04-12T10:26:04.235Z</time></trkpt><trkpt lat="43.8639117" lon="12.762955"><ele>68.0</ele><time>2026-04-12T10:26:05.234Z</time></trkpt><trkpt lat="43.8640533" lon="12.7627983"><ele>68.0</ele><time>2026-04-12T10:26:06.235Z</time></trkpt><trkpt lat="43.8641933" lon="12.7626483"><ele>68.0</ele><time>2026-04-12T10:26:07.235Z</time></trkpt><trkpt lat="43.86433" lon="12.7624983"><ele>67.0</ele><time>2026-04-12T10:26:08.234Z</time></trkpt><trkpt lat="43.8644717" lon="12.7623517"><ele>66.0</ele><time>2026-04-12T10:26:09.235Z</time></trkpt><trkpt lat="43.864615" lon="12.7622033"><ele>65.0</ele><time>2026-04-12T10:26:10.234Z</time></trkpt><trkpt lat="43.8647383" lon="12.7620567"><ele>65.0</ele><time>2026-04-12T10:26:11.234Z</time></trkpt><trkpt lat="43.864875" lon="12.7619133"><ele>65.0</ele><time>2026-04-12T10:26:12.235Z</time></trkpt><trkpt lat="43.8650067" lon="12.76176"><ele>65.0</ele><time>2026-04-12T10:26:13.234Z</time></trkpt><trkpt lat="43.8651283" lon="12.7616017"><ele>64.33333333333334</ele><time>2026-04-12T10:26:14.235Z</time></trkpt><trkpt lat="43.8652383" lon="12.7614183"><ele>63.66666666666667</ele><time>2026-04-12T10:26:15.234Z</time></trkpt><trkpt lat="43.8653367" lon="12.7612333"><ele>63.0</ele><time>2026-04-12T10:26:16.235Z</time></trkpt><trkpt lat="43.8654283" lon="12.76105"><ele>63.33333333333333</ele><time>2026-04-12T10:26:17.235Z</time></trkpt><trkpt lat="43.8655217" lon="12.7608533"><ele>63.666666666666664</ele><time>2026-04-12T10:26:18.235Z</time></trkpt><trkpt lat="43.8656083" lon="12.76066"><ele>64.0</ele><time>2026-04-12T10:26:19.235Z</time></trkpt><trkpt lat="43.86569" lon="12.7604683"><ele>64.0</ele><time>2026-04-12T10:26:20.234Z</time></trkpt><trkpt lat="43.8657783" lon="12.7602767"><ele>64.0</ele><time>2026-04-12T10:26:21.235Z</time></trkpt><trkpt lat="43.8658683" lon="12.7600983"><ele>64.0</ele><time>2026-04-12T10:26:22.235Z</time></trkpt><trkpt lat="43.8659617" lon="12.7599167"><ele>64.66666666666666</ele><time>2026-04-12T10:26:23.234Z</time></trkpt><trkpt lat="43.866055" lon="12.7597333"><ele>65.33333333333333</ele><time>2026-04-12T10:26:24.235Z</time></trkpt><trkpt lat="43.8661533" lon="12.75955"><ele>66.0</ele><time>2026-04-12T10:26:25.235Z</time></trkpt><trkpt lat="43.866245" lon="12.7593617"><ele>66.0</ele><time>2026-04-12T10:26:26.235Z</time></trkpt><trkpt lat="43.8663383" lon="12.7591583"><ele>66.0</ele><time>2026-04-12T10:26:27.235Z</time></trkpt><trkpt lat="43.8664383" lon="12.75896"><ele>66.0</ele><time>2026-04-12T10:26:28.235Z</time></trkpt><trkpt lat="43.8665317" lon="12.758785"><ele>66.0</ele><time>2026-04-12T10:26:29.235Z</time></trkpt><trkpt lat="43.8666233" lon="12.758605"><ele>66.0</ele><time>2026-04-12T10:26:30.235Z</time></trkpt><trkpt lat="43.8667167" lon="12.7584333"><ele>66.0</ele><time>2026-04-12T10:26:31.234Z</time></trkpt><trkpt lat="43.866825" lon="12.7582667"><ele>68.33333333333333</ele><time>2026-04-12T10:26:32.235Z</time></trkpt><trkpt lat="43.8669467" lon="12.7580983"><ele>70.66666666666666</ele><time>2026-04-12T10:26:33.235Z</time></trkpt><trkpt lat="43.8670783" lon="12.7579317"><ele>73.0</ele><time>2026-04-12T10:26:34.235Z</time></trkpt><trkpt lat="43.8672" lon="12.75777"><ele>70.66666666666666</ele><time>2026-04-12T10:26:35.235Z</time></trkpt><trkpt lat="43.867325" lon="12.7576117"><ele>68.33333333333333</ele><time>2026-04-12T10:26:36.235Z</time></trkpt><trkpt lat="43.867455" lon="12.75745"><ele>66.0</ele><time>2026-04-12T10:26:37.234Z</time></trkpt><trkpt lat="43.8675817" lon="12.7572967"><ele>65.33333333333333</ele><time>2026-04-12T10:26:38.235Z</time></trkpt><trkpt lat="43.8677" lon="12.7571417"><ele>64.66666666666666</ele><time>2026-04-12T10:26:39.234Z</time></trkpt><trkpt lat="43.86782" lon="12.75699"><ele>64.0</ele><time>2026-04-12T10:26:40.234Z</time></trkpt><trkpt lat="43.86794" lon="12.7568483"><ele>64.0</ele><time>2026-04-12T10:26:41.235Z</time></trkpt><trkpt lat="43.8680683" lon="12.7567083"><ele>64.0</ele><time>2026-04-12T10:26:42.234Z</time></trkpt><trkpt lat="43.8682" lon="12.7565933"><ele>64.0</ele><time>2026-04-12T10:26:43.234Z</time></trkpt><trkpt lat="43.8683367" lon="12.7565017"><ele>65.33333333333333</ele><time>2026-04-12T10:26:44.234Z</time></trkpt><trkpt lat="43.8684783" lon="12.7564183"><ele>66.66666666666667</ele><time>2026-04-12T10:26:45.234Z</time></trkpt><trkpt lat="43.86864" lon="12.756365"><ele>68.0</ele><time>2026-04-12T10:26:46.235Z</time></trkpt><trkpt lat="43.8688083" lon="12.7563317"><ele>68.0</ele><time>2026-04-12T10:26:47.234Z</time></trkpt><trkpt lat="43.86897" lon="12.7563083"><ele>68.0</ele><time>2026-04-12T10:26:48.235Z</time></trkpt><trkpt lat="43.8691367" lon="12.7562817"><ele>68.0</ele><time>2026-04-12T10:26:49.234Z</time></trkpt><trkpt lat="43.8693117" lon="12.75625"><ele>67.33333333333334</ele><time>2026-04-12T10:26:50.235Z</time></trkpt><trkpt lat="43.8694783" lon="12.7562217"><ele>66.66666666666667</ele><time>2026-04-12T10:26:51.234Z</time></trkpt><trkpt lat="43.8696417" lon="12.7561983"><ele>66.0</ele><time>2026-04-12T10:26:52.234Z</time></trkpt><trkpt lat="43.8698117" lon="12.7561783"><ele>66.0</ele><time>2026-04-12T10:26:53.234Z</time></trkpt><trkpt lat="43.8699833" lon="12.7561517"><ele>66.0</ele><time>2026-04-12T10:26:54.235Z</time></trkpt><trkpt lat="43.8701583" lon="12.756125"><ele>66.0</ele><time>2026-04-12T10:26:55.235Z</time></trkpt><trkpt lat="43.8703333" lon="12.7560917"><ele>66.33333333333333</ele><time>2026-04-12T10:26:56.234Z</time></trkpt><trkpt lat="43.8705117" lon="12.7560617"><ele>66.66666666666666</ele><time>2026-04-12T10:26:57.235Z</time></trkpt><trkpt lat="43.87068" lon="12.7560333"><ele>67.0</ele><time>2026-04-12T10:26:58.234Z</time></trkpt><trkpt lat="43.870845" lon="12.75602"><ele>68.33333333333333</ele><time>2026-04-12T10:26:59.235Z</time></trkpt><trkpt lat="43.8710083" lon="12.756"><ele>69.66666666666667</ele><time>2026-04-12T10:27:00.235Z</time></trkpt><trkpt lat="43.871165" lon="12.7559967"><ele>71.0</ele><time>2026-04-12T10:27:01.235Z</time></trkpt><trkpt lat="43.871325" lon="12.7559933"><ele>70.66666666666667</ele><time>2026-04-12T10:27:02.234Z</time></trkpt><trkpt lat="43.871475" lon="12.7560383"><ele>70.33333333333333</ele><time>2026-04-12T10:27:03.235Z</time></trkpt><trkpt lat="43.8716317" lon="12.756095"><ele>70.0</ele><time>2026-04-12T10:27:04.235Z</time></trkpt><trkpt lat="43.871775" lon="12.7561733"><ele>72.0</ele><time>2026-04-12T10:27:05.235Z</time></trkpt><trkpt lat="43.8719233" lon="12.7562517"><ele>74.0</ele><time>2026-04-12T10:27:06.235Z</time></trkpt><trkpt lat="43.8720683" lon="12.75634"><ele>76.0</ele><time>2026-04-12T10:27:07.235Z</time></trkpt><trkpt lat="43.8722117" lon="12.7564333"><ele>76.0</ele><time>2026-04-12T10:27:08.235Z</time></trkpt><trkpt lat="43.8723533" lon="12.75653"><ele>76.0</ele><time>2026-04-12T10:27:09.235Z</time></trkpt><trkpt lat="43.8724967" lon="12.756635"><ele>76.0</ele><time>2026-04-12T10:27:10.235Z</time></trkpt><trkpt lat="43.87264" lon="12.7567317"><ele>76.0</ele><time>2026-04-12T10:27:11.234Z</time></trkpt><trkpt lat="43.8727833" lon="12.75682"><ele>76.0</ele><time>2026-04-12T10:27:12.235Z</time></trkpt><trkpt lat="43.8729183" lon="12.756925"><ele>76.0</ele><time>2026-04-12T10:27:13.235Z</time></trkpt><trkpt lat="43.8730583" lon="12.7570267"><ele>76.0</ele><time>2026-04-12T10:27:14.234Z</time></trkpt><trkpt lat="43.8732" lon="12.7571217"><ele>76.0</ele><time>2026-04-12T10:27:15.235Z</time></trkpt><trkpt lat="43.87334" lon="12.757215"><ele>76.0</ele><time>2026-04-12T10:27:16.234Z</time></trkpt><trkpt lat="43.8734783" lon="12.7573083"><ele>78.66666666666666</ele><time>2026-04-12T10:27:17.234Z</time></trkpt><trkpt lat="43.8736217" lon="12.7574033"><ele>81.33333333333333</ele><time>2026-04-12T10:27:18.235Z</time></trkpt><trkpt lat="43.87376" lon="12.7574967"><ele>84.0</ele><time>2026-04-12T10:27:19.234Z</time></trkpt><trkpt lat="43.8739" lon="12.757595"><ele>84.0</ele><time>2026-04-12T10:27:20.235Z</time></trkpt><trkpt lat="43.874045" lon="12.757685"><ele>84.0</ele><time>2026-04-12T10:27:21.234Z</time></trkpt><trkpt lat="43.8741867" lon="12.757785"><ele>84.0</ele><time>2026-04-12T10:27:22.234Z</time></trkpt><trkpt lat="43.8743233" lon="12.7578767"><ele>84.66666666666667</ele><time>2026-04-12T10:27:23.234Z</time></trkpt><trkpt lat="43.8744633" lon="12.7579717"><ele>85.33333333333334</ele><time>2026-04-12T10:27:24.235Z</time></trkpt><trkpt lat="43.874595" lon="12.758065"><ele>86.0</ele><time>2026-04-12T10:27:25.234Z</time></trkpt><trkpt lat="43.87473" lon="12.7581583"><ele>86.0</ele><time>2026-04-12T10:27:26.234Z</time></trkpt><trkpt lat="43.8748583" lon="12.758245"><ele>86.0</ele><time>2026-04-12T10:27:27.235Z</time></trkpt><trkpt lat="43.874985" lon="12.7583267"><ele>86.0</ele><time>2026-04-12T10:27:28.234Z</time></trkpt><trkpt lat="43.8751067" lon="12.758415"><ele>86.0</ele><time>2026-04-12T10:27:29.235Z</time></trkpt><trkpt lat="43.8752267" lon="12.7585017"><ele>85.75</ele><time>2026-04-12T10:27:30.235Z</time></trkpt><trkpt lat="43.87534" lon="12.758575"><ele>85.5</ele><time>2026-04-12T10:27:31.235Z</time></trkpt><trkpt lat="43.8754417" lon="12.7586517"><ele>85.25</ele><time>2026-04-12T10:27:32.235Z</time></trkpt><trkpt lat="43.8755417" lon="12.7587167"><ele>85.0</ele><time>2026-04-12T10:27:33.235Z</time></trkpt><trkpt lat="43.875635" lon="12.75877"><ele>85.0</ele><time>2026-04-12T10:27:34.234Z</time></trkpt><trkpt lat="43.8757217" lon="12.758805"><ele>85.0</ele><time>2026-04-12T10:27:35.235Z</time></trkpt><trkpt lat="43.8758083" lon="12.75882"><ele>85.0</ele><time>2026-04-12T10:27:36.235Z</time></trkpt><trkpt lat="43.8758867" lon="12.758765"><ele>85.0</ele><time>2026-04-12T10:27:37.235Z</time></trkpt><trkpt lat="43.87595" lon="12.758665"><ele>85.0</ele><time>2026-04-12T10:27:38.235Z</time></trkpt><trkpt lat="43.875985" lon="12.7585433"><ele>87.0</ele><time>2026-04-12T10:27:39.234Z</time></trkpt><trkpt lat="43.8759833" lon="12.7584117"><ele>89.0</ele><time>2026-04-12T10:27:40.235Z</time></trkpt><trkpt lat="43.8759483" lon="12.7582767"><ele>91.0</ele><time>2026-04-12T10:27:41.235Z</time></trkpt><trkpt lat="43.8758733" lon="12.758145"><ele>93.0</ele><time>2026-04-12T10:27:42.234Z</time></trkpt><trkpt lat="43.8757583" lon="12.7580017"><ele>93.0</ele><time>2026-04-12T10:27:43.234Z</time></trkpt><trkpt lat="43.8756183" lon="12.7578367"><ele>93.0</ele><time>2026-04-12T10:27:44.235Z</time></trkpt><trkpt lat="43.8754767" lon="12.7576417"><ele>93.0</ele><time>2026-04-12T10:27:45.234Z</time></trkpt><trkpt lat="43.8753283" lon="12.7574283"><ele>93.33333333333333</ele><time>2026-04-12T10:27:46.234Z</time></trkpt><trkpt lat="43.8751833" lon="12.7572017"><ele>93.66666666666666</ele><time>2026-04-12T10:27:47.234Z</time></trkpt><trkpt lat="43.8750483" lon="12.7569933"><ele>94.0</ele><time>2026-04-12T10:27:48.235Z</time></trkpt><trkpt lat="43.8749117" lon="12.75679"><ele>97.33333333333333</ele><time>2026-04-12T10:27:49.234Z</time></trkpt><trkpt lat="43.8747833" lon="12.75661"><ele>100.66666666666666</ele><time>2026-04-12T10:27:50.234Z</time></trkpt><trkpt lat="43.8746583" lon="12.75644"><ele>104.0</ele><time>2026-04-12T10:27:51.235Z</time></trkpt><trkpt lat="43.8745483" lon="12.75629"><ele>104.0</ele><time>2026-04-12T10:27:52.235Z</time></trkpt><trkpt lat="43.8744467" lon="12.7561533"><ele>104.0</ele><time>2026-04-12T10:27:53.235Z</time></trkpt><trkpt lat="43.8743617" lon="12.7560133"><ele>104.0</ele><time>2026-04-12T10:27:54.235Z</time></trkpt><trkpt lat="43.8743067" lon="12.7558717"><ele>104.0</ele><time>2026-04-12T10:27:55.235Z</time></trkpt><trkpt lat="43.8743067" lon="12.75573"><ele>105.4</ele><time>2026-04-12T10:27:56.235Z</time></trkpt><trkpt lat="43.8743517" lon="12.7556133"><ele>106.80000000000001</ele><time>2026-04-12T10:27:57.235Z</time></trkpt><trkpt lat="43.874435" lon="12.7555383"><ele>108.19999999999999</ele><time>2026-04-12T10:27:58.235Z</time></trkpt><trkpt lat="43.8745367" lon="12.7555317"><ele>109.6</ele><time>2026-04-12T10:27:59.234Z</time></trkpt><trkpt lat="43.8746533" lon="12.7555683"><ele>111.0</ele><time>2026-04-12T10:28:00.234Z</time></trkpt><trkpt lat="43.87478" lon="12.7556367"><ele>111.0</ele><time>2026-04-12T10:28:01.234Z</time></trkpt><trkpt lat="43.8749167" lon="12.7557117"><ele>111.0</ele><time>2026-04-12T10:28:02.234Z</time></trkpt><trkpt lat="43.8750617" lon="12.7557867"><ele>111.0</ele><time>2026-04-12T10:28:03.235Z</time></trkpt><trkpt lat="43.87521" lon="12.755865"><ele>111.33333333333334</ele><time>2026-04-12T10:28:04.235Z</time></trkpt><trkpt lat="43.875375" lon="12.7559417"><ele>111.66666666666667</ele><time>2026-04-12T10:28:05.235Z</time></trkpt><trkpt lat="43.8755517" lon="12.7560217"><ele>112.0</ele><time>2026-04-12T10:28:06.235Z</time></trkpt><trkpt lat="43.8757333" lon="12.7560983"><ele>112.0</ele><time>2026-04-12T10:28:07.235Z</time></trkpt><trkpt lat="43.8759183" lon="12.756185"><ele>112.0</ele><time>2026-04-12T10:28:08.234Z</time></trkpt><trkpt lat="43.8761033" lon="12.75626"><ele>112.0</ele><time>2026-04-12T10:28:09.235Z</time></trkpt><trkpt lat="43.87628" lon="12.7563467"><ele>114.33333333333334</ele><time>2026-04-12T10:28:10.235Z</time></trkpt><trkpt lat="43.8764567" lon="12.7564233"><ele>116.66666666666666</ele><time>2026-04-12T10:28:11.235Z</time></trkpt><trkpt lat="43.87664" lon="12.7564967"><ele>119.0</ele><time>2026-04-12T10:28:12.235Z</time></trkpt><trkpt lat="43.8768233" lon="12.7565683"><ele>122.0</ele><time>2026-04-12T10:28:13.235Z</time></trkpt><trkpt lat="43.877005" lon="12.7566533"><ele>125.0</ele><time>2026-04-12T10:28:14.235Z</time></trkpt><trkpt lat="43.8772017" lon="12.7567383"><ele>128.0</ele><time>2026-04-12T10:28:15.235Z</time></trkpt><trkpt lat="43.877385" lon="12.7568267"><ele>127.66666666666666</ele><time>2026-04-12T10:28:16.234Z</time></trkpt><trkpt lat="43.8775717" lon="12.7569183"><ele>127.33333333333334</ele><time>2026-04-12T10:28:17.235Z</time></trkpt><trkpt lat="43.8777617" lon="12.75701"><ele>127.0</ele><time>2026-04-12T10:28:18.235Z</time></trkpt><trkpt lat="43.8779383" lon="12.757085"><ele>127.0</ele><time>2026-04-12T10:28:19.235Z</time></trkpt><trkpt lat="43.8781117" lon="12.75716"><ele>127.0</ele><time>2026-04-12T10:28:20.235Z</time></trkpt><trkpt lat="43.878275" lon="12.75724"><ele>127.0</ele><time>2026-04-12T10:28:21.234Z</time></trkpt><trkpt lat="43.87844" lon="12.7572817"><ele>127.0</ele><time>2026-04-12T10:28:22.235Z</time></trkpt><trkpt lat="43.8786083" lon="12.757275"><ele>127.0</ele><time>2026-04-12T10:28:23.235Z</time></trkpt><trkpt lat="43.87876" lon="12.7572383"><ele>127.0</ele><time>2026-04-12T10:28:24.234Z</time></trkpt><trkpt lat="43.8789183" lon="12.75715"><ele>127.0</ele><time>2026-04-12T10:28:25.234Z</time></trkpt><trkpt lat="43.879065" lon="12.7570233"><ele>127.0</ele><time>2026-04-12T10:28:26.235Z</time></trkpt><trkpt lat="43.8792067" lon="12.756865"><ele>127.0</ele><time>2026-04-12T10:28:27.234Z</time></trkpt><trkpt lat="43.8793567" lon="12.7567033"><ele>130.33333333333334</ele><time>2026-04-12T10:28:28.235Z</time></trkpt><trkpt lat="43.879515" lon="12.7565817"><ele>133.66666666666666</ele><time>2026-04-12T10:28:29.235Z</time></trkpt><trkpt lat="43.8796833" lon="12.756485"><ele>137.0</ele><time>2026-04-12T10:28:30.234Z</time></trkpt><trkpt lat="43.8798667" lon="12.75642"><ele>137.0</ele><time>2026-04-12T10:28:31.235Z</time></trkpt><trkpt lat="43.8800433" lon="12.7563933"><ele>137.0</ele><time>2026-04-12T10:28:32.234Z</time></trkpt><trkpt lat="43.8802217" lon="12.756395"><ele>137.0</ele><time>2026-04-12T10:28:33.234Z</time></trkpt><trkpt lat="43.8804067" lon="12.75642"><ele>138.66666666666666</ele><time>2026-04-12T10:28:34.235Z</time></trkpt><trkpt lat="43.880595" lon="12.75647"><ele>140.33333333333334</ele><time>2026-04-12T10:28:35.234Z</time></trkpt><trkpt lat="43.880775" lon="12.7565067"><ele>142.0</ele><time>2026-04-12T10:28:36.235Z</time></trkpt><trkpt lat="43.880955" lon="12.7565533"><ele>143.33333333333334</ele><time>2026-04-12T10:28:37.234Z</time></trkpt><trkpt lat="43.8811317" lon="12.7566167"><ele>144.66666666666666</ele><time>2026-04-12T10:28:38.235Z</time></trkpt><trkpt lat="43.88131" lon="12.7566683"><ele>146.0</ele><time>2026-04-12T10:28:39.234Z</time></trkpt><trkpt lat="43.8814867" lon="12.7567167"><ele>146.0</ele><time>2026-04-12T10:28:40.235Z</time></trkpt><trkpt lat="43.881665" lon="12.756765"><ele>146.0</ele><time>2026-04-12T10:28:41.234Z</time></trkpt><trkpt lat="43.8818383" lon="12.7568217"><ele>146.0</ele><time>2026-04-12T10:28:42.234Z</time></trkpt><trkpt lat="43.8819933" lon="12.7568667"><ele>145.66666666666666</ele><time>2026-04-12T10:28:43.235Z</time></trkpt><trkpt lat="43.8821567" lon="12.7569117"><ele>145.33333333333334</ele><time>2026-04-12T10:28:44.234Z</time></trkpt><trkpt lat="43.88231" lon="12.7569767"><ele>145.0</ele><time>2026-04-12T10:28:45.234Z</time></trkpt><trkpt lat="43.88246" lon="12.757055"><ele>145.0</ele><time>2026-04-12T10:28:46.235Z</time></trkpt><trkpt lat="43.8825933" lon="12.75716"><ele>145.0</ele><time>2026-04-12T10:28:47.235Z</time></trkpt><trkpt lat="43.882715" lon="12.7572883"><ele>145.0</ele><time>2026-04-12T10:28:48.235Z</time></trkpt><trkpt lat="43.88284" lon="12.7574433"><ele>145.33333333333334</ele><time>2026-04-12T10:28:49.235Z</time></trkpt><trkpt lat="43.8829633" lon="12.757605"><ele>145.66666666666666</ele><time>2026-04-12T10:28:50.234Z</time></trkpt><trkpt lat="43.88309" lon="12.75779"><ele>146.0</ele><time>2026-04-12T10:28:51.235Z</time></trkpt><trkpt lat="43.8832217" lon="12.7579733"><ele>146.0</ele><time>2026-04-12T10:28:52.235Z</time></trkpt><trkpt lat="43.8833567" lon="12.7581717"><ele>146.0</ele><time>2026-04-12T10:28:53.235Z</time></trkpt><trkpt lat="43.8834983" lon="12.75837"><ele>146.0</ele><time>2026-04-12T10:28:54.234Z</time></trkpt><trkpt lat="43.8836467" lon="12.75857"><ele>147.0</ele><time>2026-04-12T10:28:55.235Z</time></trkpt><trkpt lat="43.8837967" lon="12.758785"><ele>148.0</ele><time>2026-04-12T10:28:56.234Z</time></trkpt><trkpt lat="43.8839567" lon="12.7590117"><ele>149.0</ele><time>2026-04-12T10:28:57.234Z</time></trkpt><trkpt lat="43.8841167" lon="12.759225"><ele>150.33333333333331</ele><time>2026-04-12T10:28:58.234Z</time></trkpt><trkpt lat="43.8842717" lon="12.759445"><ele>151.66666666666666</ele><time>2026-04-12T10:28:59.235Z</time></trkpt><trkpt lat="43.884425" lon="12.759665"><ele>153.0</ele><time>2026-04-12T10:29:00.234Z</time></trkpt><trkpt lat="43.8845783" lon="12.7598783"><ele>153.0</ele><time>2026-04-12T10:29:01.235Z</time></trkpt><trkpt lat="43.8847233" lon="12.7600883"><ele>153.0</ele><time>2026-04-12T10:29:02.235Z</time></trkpt><trkpt lat="43.884865" lon="12.76029"><ele>153.0</ele><time>2026-04-12T10:29:03.235Z</time></trkpt><trkpt lat="43.884995" lon="12.7604867"><ele>155.33333333333334</ele><time>2026-04-12T10:29:04.234Z</time></trkpt><trkpt lat="43.8851233" lon="12.7606667"><ele>157.66666666666669</ele><time>2026-04-12T10:29:05.235Z</time></trkpt><trkpt lat="43.8852467" lon="12.7608383"><ele>160.0</ele><time>2026-04-12T10:29:06.235Z</time></trkpt><trkpt lat="43.8853683" lon="12.761"><ele>158.66666666666669</ele><time>2026-04-12T10:29:07.234Z</time></trkpt><trkpt lat="43.88549" lon="12.76115"><ele>157.33333333333334</ele><time>2026-04-12T10:29:08.234Z</time></trkpt><trkpt lat="43.8856067" lon="12.7612967"><ele>156.0</ele><time>2026-04-12T10:29:09.235Z</time></trkpt><trkpt lat="43.8857267" lon="12.761435"><ele>156.0</ele><time>2026-04-12T10:29:10.235Z</time></trkpt><trkpt lat="43.8858567" lon="12.761555"><ele>156.0</ele><time>2026-04-12T10:29:11.235Z</time></trkpt><trkpt lat="43.8859917" lon="12.761685"><ele>156.0</ele><time>2026-04-12T10:29:12.235Z</time></trkpt><trkpt lat="43.88613" lon="12.7618133"><ele>155.66666666666666</ele><time>2026-04-12T10:29:13.235Z</time></trkpt><trkpt lat="43.8862767" lon="12.76195"><ele>155.33333333333331</ele><time>2026-04-12T10:29:14.235Z</time></trkpt><trkpt lat="43.88642" lon="12.7620983"><ele>155.0</ele><time>2026-04-12T10:29:15.234Z</time></trkpt><trkpt lat="43.8865667" lon="12.762265"><ele>155.0</ele><time>2026-04-12T10:29:16.235Z</time></trkpt><trkpt lat="43.8867083" lon="12.7624367"><ele>155.0</ele><time>2026-04-12T10:29:17.235Z</time></trkpt><trkpt lat="43.8868483" lon="12.7626167"><ele>155.0</ele><time>2026-04-12T10:29:18.235Z</time></trkpt><trkpt lat="43.8869917" lon="12.7628133"><ele>155.33333333333331</ele><time>2026-04-12T10:29:19.235Z</time></trkpt><trkpt lat="43.8871283" lon="12.76301"><ele>155.66666666666666</ele><time>2026-04-12T10:29:20.235Z</time></trkpt><trkpt lat="43.88727" lon="12.7632017"><ele>156.0</ele><time>2026-04-12T10:29:21.235Z</time></trkpt><trkpt lat="43.8874" lon="12.7633967"><ele>157.33333333333334</ele><time>2026-04-12T10:29:22.234Z</time></trkpt><trkpt lat="43.8875333" lon="12.763595"><ele>158.66666666666669</ele><time>2026-04-12T10:29:23.234Z</time></trkpt><trkpt lat="43.8876683" lon="12.763785"><ele>160.0</ele><time>2026-04-12T10:29:24.235Z</time></trkpt><trkpt lat="43.8877983" lon="12.7639617"><ele>160.66666666666669</ele><time>2026-04-12T10:29:25.234Z</time></trkpt><trkpt lat="43.8879433" lon="12.76412"><ele>161.33333333333334</ele><time>2026-04-12T10:29:26.234Z</time></trkpt><trkpt lat="43.8881017" lon="12.7642517"><ele>162.0</ele><time>2026-04-12T10:29:27.234Z</time></trkpt><trkpt lat="43.8882667" lon="12.7643717"><ele>164.33333333333334</ele><time>2026-04-12T10:29:28.235Z</time></trkpt><trkpt lat="43.88843" lon="12.7644967"><ele>166.66666666666669</ele><time>2026-04-12T10:29:29.235Z</time></trkpt><trkpt lat="43.8885967" lon="12.76461"><ele>169.0</ele><time>2026-04-12T10:29:30.235Z</time></trkpt><trkpt lat="43.8887617" lon="12.7647167"><ele>169.0</ele><time>2026-04-12T10:29:31.234Z</time></trkpt><trkpt lat="43.888925" lon="12.764825"><ele>169.0</ele><time>2026-04-12T10:29:32.234Z</time></trkpt><trkpt lat="43.8890817" lon="12.7649367"><ele>169.0</ele><time>2026-04-12T10:29:33.234Z</time></trkpt><trkpt lat="43.8892367" lon="12.7650467"><ele>171.66666666666669</ele><time>2026-04-12T10:29:34.235Z</time></trkpt><trkpt lat="43.889395" lon="12.7651667"><ele>174.33333333333334</ele><time>2026-04-12T10:29:35.235Z</time></trkpt><trkpt lat="43.8895483" lon="12.7652883"><ele>177.0</ele><time>2026-04-12T10:29:36.234Z</time></trkpt><trkpt lat="43.88971" lon="12.7654067"><ele>177.0</ele><time>2026-04-12T10:29:37.235Z</time></trkpt><trkpt lat="43.88988" lon="12.765505"><ele>177.0</ele><time>2026-04-12T10:29:38.235Z</time></trkpt><trkpt lat="43.8900583" lon="12.7655783"><ele>177.0</ele><time>2026-04-12T10:29:39.235Z</time></trkpt><trkpt lat="43.8902417" lon="12.765645"><ele>176.0</ele><time>2026-04-12T10:29:40.235Z</time></trkpt><trkpt lat="43.8904283" lon="12.7656933"><ele>175.0</ele><time>2026-04-12T10:29:41.234Z</time></trkpt><trkpt lat="43.89062" lon="12.765735"><ele>174.0</ele><time>2026-04-12T10:29:42.235Z</time></trkpt><trkpt lat="43.8908033" lon="12.7657717"><ele>173.0</ele><time>2026-04-12T10:29:43.235Z</time></trkpt><trkpt lat="43.8909867" lon="12.7658233"><ele>172.0</ele><time>2026-04-12T10:29:44.235Z</time></trkpt><trkpt lat="43.8911583" lon="12.7658983"><ele>171.0</ele><time>2026-04-12T10:29:45.235Z</time></trkpt><trkpt lat="43.8913267" lon="12.76599"><ele>175.0</ele><time>2026-04-12T10:29:46.234Z</time></trkpt><trkpt lat="43.89149" lon="12.766105"><ele>179.0</ele><time>2026-04-12T10:29:47.234Z</time></trkpt><trkpt lat="43.8916483" lon="12.7662167"><ele>183.0</ele><time>2026-04-12T10:29:48.235Z</time></trkpt><trkpt lat="43.8918083" lon="12.766335"><ele>183.0</ele><time>2026-04-12T10:29:49.235Z</time></trkpt><trkpt lat="43.8919617" lon="12.7664483"><ele>183.0</ele><time>2026-04-12T10:29:50.234Z</time></trkpt><trkpt lat="43.892115" lon="12.766555"><ele>183.0</ele><time>2026-04-12T10:29:51.235Z</time></trkpt><trkpt lat="43.8922533" lon="12.76666"><ele>183.0</ele><time>2026-04-12T10:29:52.235Z</time></trkpt><trkpt lat="43.89238" lon="12.7667567"><ele>183.0</ele><time>2026-04-12T10:29:53.234Z</time></trkpt><trkpt lat="43.8924983" lon="12.7668417"><ele>183.0</ele><time>2026-04-12T10:29:54.235Z</time></trkpt><trkpt lat="43.8926067" lon="12.7669233"><ele>183.0</ele><time>2026-04-12T10:29:55.235Z</time></trkpt><trkpt lat="43.8927017" lon="12.767005"><ele>182.83333333333334</ele><time>2026-04-12T10:29:56.235Z</time></trkpt><trkpt lat="43.8927783" lon="12.7670833"><ele>182.66666666666666</ele><time>2026-04-12T10:29:57.235Z</time></trkpt><trkpt lat="43.89283" lon="12.7671467"><ele>182.5</ele><time>2026-04-12T10:29:58.235Z</time></trkpt><trkpt lat="43.8928867" lon="12.7672383"><ele>182.33333333333331</ele><time>2026-04-12T10:30:00.234Z</time></trkpt><trkpt lat="43.89294" lon="12.767305"><ele>182.16666666666666</ele><time>2026-04-12T10:30:02.235Z</time></trkpt><trkpt lat="43.8930483" lon="12.7673267"><ele>182.0</ele><time>2026-04-12T10:30:04.235Z</time></trkpt><trkpt lat="43.893125" lon="12.7673083"><ele>182.0</ele><time>2026-04-12T10:30:05.235Z</time></trkpt><trkpt lat="43.8932083" lon="12.767275"><ele>182.0</ele><time>2026-04-12T10:30:06.234Z</time></trkpt><trkpt lat="43.8933033" lon="12.76724"><ele>182.0</ele><time>2026-04-12T10:30:07.235Z</time></trkpt><trkpt lat="43.8934133" lon="12.76721"><ele>182.0</ele><time>2026-04-12T10:30:08.234Z</time></trkpt><trkpt lat="43.8935317" lon="12.7671667"><ele>182.0</ele><time>2026-04-12T10:30:09.234Z</time></trkpt><trkpt lat="43.89366" lon="12.76712"><ele>182.0</ele><time>2026-04-12T10:30:10.235Z</time></trkpt><trkpt lat="43.89379" lon="12.76707"><ele>182.0</ele><time>2026-04-12T10:30:11.235Z</time></trkpt><trkpt lat="43.8939217" lon="12.7670183"><ele>182.0</ele><time>2026-04-12T10:30:12.235Z</time></trkpt><trkpt lat="43.8940583" lon="12.76696"><ele>182.0</ele><time>2026-04-12T10:30:13.235Z</time></trkpt><trkpt lat="43.8942" lon="12.7669033"><ele>183.5</ele><time>2026-04-12T10:30:14.235Z</time></trkpt><trkpt lat="43.8943383" lon="12.7668383"><ele>185.0</ele><time>2026-04-12T10:30:15.234Z</time></trkpt><trkpt lat="43.894475" lon="12.7667833"><ele>186.5</ele><time>2026-04-12T10:30:16.235Z</time></trkpt><trkpt lat="43.8946" lon="12.7667267"><ele>188.0</ele><time>2026-04-12T10:30:17.235Z</time></trkpt><trkpt lat="43.8947233" lon="12.7666517"><ele>188.0</ele><time>2026-04-12T10:30:18.235Z</time></trkpt><trkpt lat="43.8948383" lon="12.7665583"><ele>188.0</ele><time>2026-04-12T10:30:19.235Z</time></trkpt><trkpt lat="43.8949467" lon="12.7664617"><ele>188.0</ele><time>2026-04-12T10:30:20.235Z</time></trkpt><trkpt lat="43.8950483" lon="12.7663433"><ele>188.0</ele><time>2026-04-12T10:30:21.234Z</time></trkpt><trkpt lat="43.8951433" lon="12.766215"><ele>190.5</ele><time>2026-04-12T10:30:22.234Z</time></trkpt><trkpt lat="43.89524" lon="12.7660683"><ele>193.0</ele><time>2026-04-12T10:30:23.235Z</time></trkpt><trkpt lat="43.8953333" lon="12.765915"><ele>195.5</ele><time>2026-04-12T10:30:24.235Z</time></trkpt><trkpt lat="43.8954333" lon="12.765745"><ele>198.0</ele><time>2026-04-12T10:30:25.234Z</time></trkpt><trkpt lat="43.89553" lon="12.7655767"><ele>198.66666666666669</ele><time>2026-04-12T10:30:26.234Z</time></trkpt><trkpt lat="43.895625" lon="12.7653967"><ele>199.33333333333334</ele><time>2026-04-12T10:30:27.234Z</time></trkpt><trkpt lat="43.8957267" lon="12.7652133"><ele>200.0</ele><time>2026-04-12T10:30:28.235Z</time></trkpt><trkpt lat="43.8958217" lon="12.7650233"><ele>197.66666666666669</ele><time>2026-04-12T10:30:29.235Z</time></trkpt><trkpt lat="43.89592" lon="12.7648367"><ele>195.33333333333331</ele><time>2026-04-12T10:30:30.235Z</time></trkpt><trkpt lat="43.896015" lon="12.7646433"><ele>193.0</ele><time>2026-04-12T10:30:31.235Z</time></trkpt><trkpt lat="43.8961167" lon="12.764445"><ele>198.0</ele><time>2026-04-12T10:30:32.234Z</time></trkpt><trkpt lat="43.8962133" lon="12.7642533"><ele>203.0</ele><time>2026-04-12T10:30:33.235Z</time></trkpt><trkpt lat="43.8963017" lon="12.764045"><ele>208.0</ele><time>2026-04-12T10:30:34.235Z</time></trkpt><trkpt lat="43.89638" lon="12.76384"><ele>208.0</ele><time>2026-04-12T10:30:35.234Z</time></trkpt><trkpt lat="43.896445" lon="12.7636333"><ele>208.0</ele><time>2026-04-12T10:30:36.234Z</time></trkpt><trkpt lat="43.8965017" lon="12.7634333"><ele>208.0</ele><time>2026-04-12T10:30:37.235Z</time></trkpt><trkpt lat="43.8965583" lon="12.7632383"><ele>204.66666666666666</ele><time>2026-04-12T10:30:38.235Z</time></trkpt><trkpt lat="43.896615" lon="12.7630417"><ele>201.33333333333331</ele><time>2026-04-12T10:30:39.234Z</time></trkpt><trkpt lat="43.8966733" lon="12.7628483"><ele>198.0</ele><time>2026-04-12T10:30:40.235Z</time></trkpt><trkpt lat="43.8967267" lon="12.762655"><ele>201.0</ele><time>2026-04-12T10:30:41.235Z</time></trkpt><trkpt lat="43.8967867" lon="12.7624667"><ele>204.0</ele><time>2026-04-12T10:30:42.235Z</time></trkpt><trkpt lat="43.8968433" lon="12.7622783"><ele>207.0</ele><time>2026-04-12T10:30:43.235Z</time></trkpt><trkpt lat="43.8968967" lon="12.7620933"><ele>210.0</ele><time>2026-04-12T10:30:44.235Z</time></trkpt><trkpt lat="43.8969517" lon="12.7619033"><ele>208.5</ele><time>2026-04-12T10:30:45.234Z</time></trkpt><trkpt lat="43.89701" lon="12.7617117"><ele>207.0</ele><time>2026-04-12T10:30:46.235Z</time></trkpt><trkpt lat="43.8970667" lon="12.7615183"><ele>205.5</ele><time>2026-04-12T10:30:47.235Z</time></trkpt><trkpt lat="43.8971183" lon="12.7613317"><ele>204.0</ele><time>2026-04-12T10:30:48.235Z</time></trkpt><trkpt lat="43.8971633" lon="12.76115"><ele>202.0</ele><time>2026-04-12T10:30:49.235Z</time></trkpt><trkpt lat="43.8971983" lon="12.7609667"><ele>200.0</ele><time>2026-04-12T10:30:50.235Z</time></trkpt><trkpt lat="43.897215" lon="12.76078"><ele>198.0</ele><time>2026-04-12T10:30:51.234Z</time></trkpt><trkpt lat="43.89724" lon="12.7605933"><ele>196.0</ele><time>2026-04-12T10:30:52.235Z</time></trkpt><trkpt lat="43.897245" lon="12.7604233"><ele>196.0</ele><time>2026-04-12T10:30:53.234Z</time></trkpt><trkpt lat="43.8972567" lon="12.760255"><ele>196.0</ele><time>2026-04-12T10:30:54.235Z</time></trkpt><trkpt lat="43.8972917" lon="12.76009"><ele>196.0</ele><time>2026-04-12T10:30:55.234Z</time></trkpt><trkpt lat="43.8973383" lon="12.7599317"><ele>196.0</ele><time>2026-04-12T10:30:56.234Z</time></trkpt><trkpt lat="43.8974" lon="12.7597933"><ele>194.25</ele><time>2026-04-12T10:30:57.234Z</time></trkpt><trkpt lat="43.8974667" lon="12.7596433"><ele>192.5</ele><time>2026-04-12T10:30:58.234Z</time></trkpt><trkpt lat="43.897545" lon="12.75953"><ele>190.75</ele><time>2026-04-12T10:30:59.235Z</time></trkpt><trkpt lat="43.8976333" lon="12.7594233"><ele>189.0</ele><time>2026-04-12T10:31:00.235Z</time></trkpt><trkpt lat="43.8977183" lon="12.7592967"><ele>187.0</ele><time>2026-04-12T10:31:01.235Z</time></trkpt><trkpt lat="43.89781" lon="12.7591817"><ele>185.0</ele><time>2026-04-12T10:31:02.235Z</time></trkpt><trkpt lat="43.8979" lon="12.75908"><ele>183.0</ele><time>2026-04-12T10:31:03.235Z</time></trkpt><trkpt lat="43.897995" lon="12.7590083"><ele>181.0</ele><time>2026-04-12T10:31:04.235Z</time></trkpt><trkpt lat="43.89809" lon="12.7589717"><ele>179.0</ele><time>2026-04-12T10:31:05.235Z</time></trkpt><trkpt lat="43.898185" lon="12.75895"><ele>179.0</ele><time>2026-04-12T10:31:06.234Z</time></trkpt><trkpt lat="43.8982883" lon="12.75895"><ele>179.0</ele><time>2026-04-12T10:31:07.235Z</time></trkpt><trkpt lat="43.8983733" lon="12.7589417"><ele>179.0</ele><time>2026-04-12T10:31:08.235Z</time></trkpt><trkpt lat="43.898445" lon="12.7588983"><ele>179.0</ele><time>2026-04-12T10:31:09.234Z</time></trkpt><trkpt lat="43.898495" lon="12.7588133"><ele>179.0</ele><time>2026-04-12T10:31:10.235Z</time></trkpt><trkpt lat="43.898505" lon="12.7586967"><ele>179.0</ele><time>2026-04-12T10:31:11.234Z</time></trkpt><trkpt lat="43.8984733" lon="12.7585833"><ele>178.0</ele><time>2026-04-12T10:31:12.235Z</time></trkpt><trkpt lat="43.8984217" lon="12.7584783"><ele>177.0</ele><time>2026-04-12T10:31:13.235Z</time></trkpt><trkpt lat="43.8983517" lon="12.7583717"><ele>176.0</ele><time>2026-04-12T10:31:14.234Z</time></trkpt><trkpt lat="43.8982917" lon="12.7582583"><ele>175.0</ele><time>2026-04-12T10:31:15.234Z</time></trkpt><trkpt lat="43.89824" lon="12.75815"><ele>174.0</ele><time>2026-04-12T10:31:16.235Z</time></trkpt><trkpt lat="43.8982033" lon="12.7580367"><ele>174.0</ele><time>2026-04-12T10:31:17.235Z</time></trkpt><trkpt lat="43.89817" lon="12.757925"><ele>174.0</ele><time>2026-04-12T10:31:18.235Z</time></trkpt><trkpt lat="43.89814" lon="12.757805"><ele>174.0</ele><time>2026-04-12T10:31:19.234Z</time></trkpt><trkpt lat="43.8981183" lon="12.7576817"><ele>174.0</ele><time>2026-04-12T10:31:20.235Z</time></trkpt><trkpt lat="43.8981067" lon="12.7575483"><ele>174.0</ele><time>2026-04-12T10:31:21.235Z</time></trkpt><trkpt lat="43.8980967" lon="12.75741"><ele>172.2</ele><time>2026-04-12T10:31:22.235Z</time></trkpt><trkpt lat="43.8980967" lon="12.7572767"><ele>170.39999999999998</ele><time>2026-04-12T10:31:23.235Z</time></trkpt><trkpt lat="43.8980867" lon="12.757145"><ele>168.6</ele><time>2026-04-12T10:31:24.235Z</time></trkpt><trkpt lat="43.8980883" lon="12.7570067"><ele>166.8</ele><time>2026-04-12T10:31:25.235Z</time></trkpt><trkpt lat="43.8980883" lon="12.7568667"><ele>165.0</ele><time>2026-04-12T10:31:26.235Z</time></trkpt><trkpt lat="43.89808" lon="12.7567267"><ele>164.4</ele><time>2026-04-12T10:31:27.234Z</time></trkpt><trkpt lat="43.8980733" lon="12.756595"><ele>163.8</ele><time>2026-04-12T10:31:28.235Z</time></trkpt><trkpt lat="43.898065" lon="12.7564533"><ele>163.2</ele><time>2026-04-12T10:31:29.235Z</time></trkpt><trkpt lat="43.898055" lon="12.7563217"><ele>162.6</ele><time>2026-04-12T10:31:30.234Z</time></trkpt><trkpt lat="43.8980483" lon="12.756195"><ele>162.0</ele><time>2026-04-12T10:31:31.235Z</time></trkpt><trkpt lat="43.8980383" lon="12.7560733"><ele>162.6</ele><time>2026-04-12T10:31:32.235Z</time></trkpt><trkpt lat="43.8980283" lon="12.7559517"><ele>163.2</ele><time>2026-04-12T10:31:33.234Z</time></trkpt><trkpt lat="43.8980117" lon="12.7558317"><ele>163.8</ele><time>2026-04-12T10:31:34.234Z</time></trkpt><trkpt lat="43.8979933" lon="12.755705"><ele>164.4</ele><time>2026-04-12T10:31:35.234Z</time></trkpt><trkpt lat="43.89797" lon="12.7555717"><ele>165.0</ele><time>2026-04-12T10:31:36.235Z</time></trkpt><trkpt lat="43.897955" lon="12.7554317"><ele>165.0</ele><time>2026-04-12T10:31:37.235Z</time></trkpt><trkpt lat="43.89796" lon="12.7553"><ele>165.0</ele><time>2026-04-12T10:31:38.235Z</time></trkpt><trkpt lat="43.8979733" lon="12.755165"><ele>165.0</ele><time>2026-04-12T10:31:39.235Z</time></trkpt><trkpt lat="43.8979583" lon="12.7550233"><ele>165.0</ele><time>2026-04-12T10:31:40.234Z</time></trkpt><trkpt lat="43.8979633" lon="12.7548817"><ele>165.0</ele><time>2026-04-12T10:31:41.234Z</time></trkpt><trkpt lat="43.8979633" lon="12.754755"><ele>165.16666666666666</ele><time>2026-04-12T10:31:42.234Z</time></trkpt><trkpt lat="43.89797" lon="12.7546333"><ele>165.33333333333334</ele><time>2026-04-12T10:31:43.235Z</time></trkpt><trkpt lat="43.897975" lon="12.7545117"><ele>165.5</ele><time>2026-04-12T10:31:44.235Z</time></trkpt><trkpt lat="43.8979883" lon="12.7544"><ele>165.66666666666669</ele><time>2026-04-12T10:31:45.235Z</time></trkpt><trkpt lat="43.8979983" lon="12.7542917"><ele>165.83333333333334</ele><time>2026-04-12T10:31:46.234Z</time></trkpt><trkpt lat="43.8980283" lon="12.7541933"><ele>166.0</ele><time>2026-04-12T10:31:47.234Z</time></trkpt><trkpt lat="43.8980583" lon="12.7540983"><ele>166.0</ele><time>2026-04-12T10:31:48.234Z</time></trkpt><trkpt lat="43.8980883" lon="12.7540117"><ele>166.0</ele><time>2026-04-12T10:31:49.234Z</time></trkpt><trkpt lat="43.89814" lon="12.7538667"><ele>166.0</ele><time>2026-04-12T10:31:51.234Z</time></trkpt><trkpt lat="43.8981683" lon="12.7537883"><ele>166.0</ele><time>2026-04-12T10:31:52.235Z</time></trkpt><trkpt lat="43.8981917" lon="12.7537033"><ele>166.0</ele><time>2026-04-12T10:31:53.235Z</time></trkpt><trkpt lat="43.898215" lon="12.7536133"><ele>166.0</ele><time>2026-04-12T10:31:54.234Z</time></trkpt><trkpt lat="43.8981983" lon="12.75352"><ele>165.0</ele><time>2026-04-12T10:31:55.235Z</time></trkpt><trkpt lat="43.89818" lon="12.7534267"><ele>164.0</ele><time>2026-04-12T10:31:56.235Z</time></trkpt><trkpt lat="43.898165" lon="12.7533367"><ele>163.0</ele><time>2026-04-12T10:31:57.235Z</time></trkpt><trkpt lat="43.898125" lon="12.7532567"><ele>162.0</ele><time>2026-04-12T10:31:58.234Z</time></trkpt><trkpt lat="43.898095" lon="12.753175"><ele>161.0</ele><time>2026-04-12T10:31:59.235Z</time></trkpt><trkpt lat="43.8980617" lon="12.7530917"><ele>160.0</ele><time>2026-04-12T10:32:00.235Z</time></trkpt><trkpt lat="43.89803" lon="12.753"><ele>159.0</ele><time>2026-04-12T10:32:01.235Z</time></trkpt><trkpt lat="43.8980017" lon="12.7529167"><ele>159.0</ele><time>2026-04-12T10:32:02.235Z</time></trkpt><trkpt lat="43.8979867" lon="12.7528217"><ele>159.0</ele><time>2026-04-12T10:32:03.235Z</time></trkpt><trkpt lat="43.8979767" lon="12.7527217"><ele>159.0</ele><time>2026-04-12T10:32:04.234Z</time></trkpt><trkpt lat="43.8979583" lon="12.7526217"><ele>159.0</ele><time>2026-04-12T10:32:05.235Z</time></trkpt><trkpt lat="43.8979483" lon="12.7525233"><ele>159.0</ele><time>2026-04-12T10:32:06.235Z</time></trkpt><trkpt lat="43.8979317" lon="12.752425"><ele>159.0</ele><time>2026-04-12T10:32:07.235Z</time></trkpt><trkpt lat="43.897925" lon="12.7523283"><ele>159.0</ele><time>2026-04-12T10:32:08.235Z</time></trkpt><trkpt lat="43.89791" lon="12.7522167"><ele>157.2</ele><time>2026-04-12T10:32:09.235Z</time></trkpt><trkpt lat="43.8978767" lon="12.7521217"><ele>155.4</ele><time>2026-04-12T10:32:10.235Z</time></trkpt><trkpt lat="43.8978167" lon="12.752025"><ele>153.6</ele><time>2026-04-12T10:32:11.235Z</time></trkpt><trkpt lat="43.8977583" lon="12.7519233"><ele>151.8</ele><time>2026-04-12T10:32:12.235Z</time></trkpt><trkpt lat="43.8976883" lon="12.751815"><ele>150.0</ele><time>2026-04-12T10:32:13.234Z</time></trkpt><trkpt lat="43.8976167" lon="12.7517067"><ele>150.0</ele><time>2026-04-12T10:32:14.235Z</time></trkpt><trkpt lat="43.8975383" lon="12.7516033"><ele>150.0</ele><time>2026-04-12T10:32:15.235Z</time></trkpt><trkpt lat="43.8974583" lon="12.7514833"><ele>150.0</ele><time>2026-04-12T10:32:16.235Z</time></trkpt><trkpt lat="43.8973783" lon="12.7513583"><ele>150.0</ele><time>2026-04-12T10:32:17.235Z</time></trkpt><trkpt lat="43.897305" lon="12.7512367"><ele>150.0</ele><time>2026-04-12T10:32:18.234Z</time></trkpt><trkpt lat="43.89723" lon="12.7511117"><ele>150.0</ele><time>2026-04-12T10:32:19.235Z</time></trkpt><trkpt lat="43.8971583" lon="12.750995"><ele>150.0</ele><time>2026-04-12T10:32:20.235Z</time></trkpt><trkpt lat="43.8970867" lon="12.7508717"><ele>150.0</ele><time>2026-04-12T10:32:21.235Z</time></trkpt><trkpt lat="43.8970183" lon="12.7507533"><ele>150.4</ele><time>2026-04-12T10:32:22.234Z</time></trkpt><trkpt lat="43.896945" lon="12.7506383"><ele>150.8</ele><time>2026-04-12T10:32:23.235Z</time></trkpt><trkpt lat="43.89688" lon="12.7505317"><ele>151.2</ele><time>2026-04-12T10:32:24.235Z</time></trkpt><trkpt lat="43.896815" lon="12.750425"><ele>151.6</ele><time>2026-04-12T10:32:25.235Z</time></trkpt><trkpt lat="43.8967483" lon="12.7503183"><ele>152.0</ele><time>2026-04-12T10:32:26.234Z</time></trkpt><trkpt lat="43.8966917" lon="12.7502133"><ele>150.4</ele><time>2026-04-12T10:32:27.235Z</time></trkpt><trkpt lat="43.8966417" lon="12.7501117"><ele>148.79999999999998</ele><time>2026-04-12T10:32:28.235Z</time></trkpt><trkpt lat="43.8966083" lon="12.7500167"><ele>147.2</ele><time>2026-04-12T10:32:29.234Z</time></trkpt><trkpt lat="43.89659" lon="12.7499267"><ele>145.6</ele><time>2026-04-12T10:32:30.234Z</time></trkpt><trkpt lat="43.8965933" lon="12.7497617"><ele>144.0</ele><time>2026-04-12T10:32:32.235Z</time></trkpt><trkpt lat="43.8966667" lon="12.7496117"><ele>144.0</ele><time>2026-04-12T10:32:34.235Z</time></trkpt><trkpt lat="43.89671" lon="12.7495233"><ele>144.0</ele><time>2026-04-12T10:32:35.235Z</time></trkpt><trkpt lat="43.8967433" lon="12.7494267"><ele>144.0</ele><time>2026-04-12T10:32:36.234Z</time></trkpt><trkpt lat="43.8968067" lon="12.7493567"><ele>144.0</ele><time>2026-04-12T10:32:37.235Z</time></trkpt><trkpt lat="43.8968983" lon="12.749315"><ele>144.0</ele><time>2026-04-12T10:32:38.235Z</time></trkpt><trkpt lat="43.8970017" lon="12.7492983"><ele>144.0</ele><time>2026-04-12T10:32:39.234Z</time></trkpt><trkpt lat="43.89712" lon="12.7492783"><ele>142.25</ele><time>2026-04-12T10:32:40.234Z</time></trkpt><trkpt lat="43.8972433" lon="12.74926"><ele>140.5</ele><time>2026-04-12T10:32:41.235Z</time></trkpt><trkpt lat="43.8973467" lon="12.74923"><ele>138.75</ele><time>2026-04-12T10:32:42.234Z</time></trkpt><trkpt lat="43.897465" lon="12.74919"><ele>137.0</ele><time>2026-04-12T10:32:43.235Z</time></trkpt><trkpt lat="43.8975633" lon="12.749135"><ele>135.75</ele><time>2026-04-12T10:32:44.235Z</time></trkpt><trkpt lat="43.8976633" lon="12.7490583"><ele>134.5</ele><time>2026-04-12T10:32:45.235Z</time></trkpt><trkpt lat="43.8977667" lon="12.7489717"><ele>133.25</ele><time>2026-04-12T10:32:46.235Z</time></trkpt><trkpt lat="43.8978733" lon="12.7488767"><ele>132.0</ele><time>2026-04-12T10:32:47.235Z</time></trkpt><trkpt lat="43.8979767" lon="12.7487833"><ele>132.0</ele><time>2026-04-12T10:32:48.235Z</time></trkpt><trkpt lat="43.89807" lon="12.748695"><ele>132.0</ele><time>2026-04-12T10:32:49.234Z</time></trkpt><trkpt lat="43.8981533" lon="12.7486117"><ele>132.0</ele><time>2026-04-12T10:32:50.235Z</time></trkpt><trkpt lat="43.89823" lon="12.7485383"><ele>132.0</ele><time>2026-04-12T10:32:51.235Z</time></trkpt><trkpt lat="43.8982933" lon="12.7484783"><ele>132.0</ele><time>2026-04-12T10:32:52.235Z</time></trkpt><trkpt lat="43.89839" lon="12.7484283"><ele>130.4</ele><time>2026-04-12T10:32:54.235Z</time></trkpt><trkpt lat="43.898485" lon="12.7484617"><ele>128.79999999999998</ele><time>2026-04-12T10:32:56.234Z</time></trkpt><trkpt lat="43.8985983" lon="12.7484717"><ele>127.2</ele><time>2026-04-12T10:32:58.235Z</time></trkpt><trkpt lat="43.89866" lon="12.74835"><ele>125.6</ele><time>2026-04-12T10:33:00.235Z</time></trkpt><trkpt lat="43.8987067" lon="12.7482417"><ele>124.0</ele><time>2026-04-12T10:33:01.234Z</time></trkpt><trkpt lat="43.89875" lon="12.7481333"><ele>124.0</ele><time>2026-04-12T10:33:02.235Z</time></trkpt><trkpt lat="43.8988133" lon="12.7480317"><ele>124.0</ele><time>2026-04-12T10:33:03.234Z</time></trkpt><trkpt lat="43.8988917" lon="12.7479483"><ele>124.0</ele><time>2026-04-12T10:33:04.235Z</time></trkpt><trkpt lat="43.8989833" lon="12.74788"><ele>124.0</ele><time>2026-04-12T10:33:05.234Z</time></trkpt><trkpt lat="43.8990683" lon="12.7478133"><ele>124.0</ele><time>2026-04-12T10:33:06.235Z</time></trkpt><trkpt lat="43.8991567" lon="12.7477317"><ele>120.75</ele><time>2026-04-12T10:33:07.235Z</time></trkpt><trkpt lat="43.899255" lon="12.7476367"><ele>117.5</ele><time>2026-04-12T10:33:08.235Z</time></trkpt><trkpt lat="43.8993333" lon="12.74752"><ele>114.25</ele><time>2026-04-12T10:33:09.234Z</time></trkpt><trkpt lat="43.8994033" lon="12.7473933"><ele>111.0</ele><time>2026-04-12T10:33:10.234Z</time></trkpt><trkpt lat="43.899465" lon="12.74726"><ele>111.0</ele><time>2026-04-12T10:33:11.235Z</time></trkpt><trkpt lat="43.8995167" lon="12.7471267"><ele>111.0</ele><time>2026-04-12T10:33:12.235Z</time></trkpt><trkpt lat="43.899565" lon="12.7469967"><ele>111.0</ele><time>2026-04-12T10:33:13.235Z</time></trkpt><trkpt lat="43.8996067" lon="12.7468583"><ele>111.0</ele><time>2026-04-12T10:33:14.235Z</time></trkpt><trkpt lat="43.89964" lon="12.7467167"><ele>111.0</ele><time>2026-04-12T10:33:15.235Z</time></trkpt><trkpt lat="43.8996567" lon="12.746555"><ele>111.0</ele><time>2026-04-12T10:33:16.235Z</time></trkpt><trkpt lat="43.89967" lon="12.74639"><ele>111.0</ele><time>2026-04-12T10:33:17.234Z</time></trkpt><trkpt lat="43.89969" lon="12.74621"><ele>111.0</ele><time>2026-04-12T10:33:18.235Z</time></trkpt><trkpt lat="43.899695" lon="12.7460367"><ele>111.0</ele><time>2026-04-12T10:33:19.234Z</time></trkpt><trkpt lat="43.899705" lon="12.7458583"><ele>110.0</ele><time>2026-04-12T10:33:20.235Z</time></trkpt><trkpt lat="43.8997083" lon="12.7456767"><ele>109.0</ele><time>2026-04-12T10:33:21.234Z</time></trkpt><trkpt lat="43.8997133" lon="12.74549"><ele>108.0</ele><time>2026-04-12T10:33:22.235Z</time></trkpt><trkpt lat="43.8997233" lon="12.745305"><ele>107.0</ele><time>2026-04-12T10:33:23.235Z</time></trkpt><trkpt lat="43.8997433" lon="12.745125"><ele>107.0</ele><time>2026-04-12T10:33:24.234Z</time></trkpt><trkpt lat="43.89975" lon="12.7449417"><ele>107.0</ele><time>2026-04-12T10:33:25.234Z</time></trkpt><trkpt lat="43.8997583" lon="12.7447617"><ele>107.0</ele><time>2026-04-12T10:33:26.235Z</time></trkpt><trkpt lat="43.899765" lon="12.7445817"><ele>107.0</ele><time>2026-04-12T10:33:27.235Z</time></trkpt><trkpt lat="43.89976" lon="12.7444"><ele>106.5</ele><time>2026-04-12T10:33:28.234Z</time></trkpt><trkpt lat="43.8997417" lon="12.7442167"><ele>106.0</ele><time>2026-04-12T10:33:29.235Z</time></trkpt><trkpt lat="43.8997083" lon="12.744025"><ele>105.5</ele><time>2026-04-12T10:33:30.235Z</time></trkpt><trkpt lat="43.8996567" lon="12.743835"><ele>105.0</ele><time>2026-04-12T10:33:31.235Z</time></trkpt><trkpt lat="43.899605" lon="12.7436483"><ele>104.75</ele><time>2026-04-12T10:33:32.235Z</time></trkpt><trkpt lat="43.899555" lon="12.7434683"><ele>104.5</ele><time>2026-04-12T10:33:33.235Z</time></trkpt><trkpt lat="43.8995133" lon="12.7432833"><ele>104.25</ele><time>2026-04-12T10:33:34.235Z</time></trkpt><trkpt lat="43.89947" lon="12.7431033"><ele>104.0</ele><time>2026-04-12T10:33:35.235Z</time></trkpt><trkpt lat="43.8994317" lon="12.742935"><ele>104.0</ele><time>2026-04-12T10:33:36.234Z</time></trkpt><trkpt lat="43.8993817" lon="12.74276"><ele>104.0</ele><time>2026-04-12T10:33:37.235Z</time></trkpt><trkpt lat="43.89933" lon="12.7425983"><ele>104.0</ele><time>2026-04-12T10:33:38.235Z</time></trkpt><trkpt lat="43.899265" lon="12.7424483"><ele>104.0</ele><time>2026-04-12T10:33:39.235Z</time></trkpt><trkpt lat="43.8992217" lon="12.742285"><ele>102.75</ele><time>2026-04-12T10:33:40.234Z</time></trkpt><trkpt lat="43.89918" lon="12.7421283"><ele>101.5</ele><time>2026-04-12T10:33:41.235Z</time></trkpt><trkpt lat="43.8991417" lon="12.7419733"><ele>100.25</ele><time>2026-04-12T10:33:42.234Z</time></trkpt><trkpt lat="43.8991083" lon="12.741815"><ele>99.0</ele><time>2026-04-12T10:33:43.235Z</time></trkpt><trkpt lat="43.8990833" lon="12.7416583"><ele>99.0</ele><time>2026-04-12T10:33:44.235Z</time></trkpt><trkpt lat="43.8990683" lon="12.7414933"><ele>99.0</ele><time>2026-04-12T10:33:45.235Z</time></trkpt><trkpt lat="43.8990767" lon="12.7413217"><ele>99.0</ele><time>2026-04-12T10:33:46.235Z</time></trkpt><trkpt lat="43.8990933" lon="12.741155"><ele>99.0</ele><time>2026-04-12T10:33:47.235Z</time></trkpt><trkpt lat="43.8991183" lon="12.7409917"><ele>99.0</ele><time>2026-04-12T10:33:48.234Z</time></trkpt><trkpt lat="43.89916" lon="12.7408167"><ele>99.0</ele><time>2026-04-12T10:33:49.234Z</time></trkpt><trkpt lat="43.8992233" lon="12.7406583"><ele>99.0</ele><time>2026-04-12T10:33:50.235Z</time></trkpt><trkpt lat="43.8993033" lon="12.7405083"><ele>99.0</ele><time>2026-04-12T10:33:51.235Z</time></trkpt><trkpt lat="43.899395" lon="12.7403767"><ele>99.0</ele><time>2026-04-12T10:33:52.235Z</time></trkpt><trkpt lat="43.8995067" lon="12.740265"><ele>99.0</ele><time>2026-04-12T10:33:53.235Z</time></trkpt><trkpt lat="43.8996267" lon="12.7401583"><ele>99.0</ele><time>2026-04-12T10:33:54.235Z</time></trkpt><trkpt lat="43.8997683" lon="12.7400617"><ele>99.0</ele><time>2026-04-12T10:33:55.235Z</time></trkpt><trkpt lat="43.8999133" lon="12.73995"><ele>96.33333333333333</ele><time>2026-04-12T10:33:56.235Z</time></trkpt><trkpt lat="43.9000767" lon="12.739825"><ele>93.66666666666666</ele><time>2026-04-12T10:33:57.235Z</time></trkpt><trkpt lat="43.90025" lon="12.73971"><ele>91.0</ele><time>2026-04-12T10:33:58.235Z</time></trkpt><trkpt lat="43.9004367" lon="12.7395983"><ele>91.0</ele><time>2026-04-12T10:33:59.234Z</time></trkpt><trkpt lat="43.90063" lon="12.7394917"><ele>91.0</ele><time>2026-04-12T10:34:00.235Z</time></trkpt><trkpt lat="43.9008367" lon="12.7393867"><ele>91.0</ele><time>2026-04-12T10:34:01.235Z</time></trkpt><trkpt lat="43.9010383" lon="12.73927"><ele>87.33333333333333</ele><time>2026-04-12T10:34:02.235Z</time></trkpt><trkpt lat="43.9012283" lon="12.7391567"><ele>83.66666666666667</ele><time>2026-04-12T10:34:03.235Z</time></trkpt><trkpt lat="43.9014183" lon="12.7390433"><ele>80.0</ele><time>2026-04-12T10:34:04.235Z</time></trkpt><trkpt lat="43.9016017" lon="12.7389283"><ele>80.33333333333334</ele><time>2026-04-12T10:34:05.235Z</time></trkpt><trkpt lat="43.901775" lon="12.7388133"><ele>80.66666666666667</ele><time>2026-04-12T10:34:06.235Z</time></trkpt><trkpt lat="43.9019533" lon="12.7387033"><ele>81.0</ele><time>2026-04-12T10:34:07.234Z</time></trkpt><trkpt lat="43.90213" lon="12.7385983"><ele>79.0</ele><time>2026-04-12T10:34:08.235Z</time></trkpt><trkpt lat="43.9022933" lon="12.7384933"><ele>77.0</ele><time>2026-04-12T10:34:09.235Z</time></trkpt><trkpt lat="43.902465" lon="12.7383867"><ele>75.0</ele><time>2026-04-12T10:34:10.234Z</time></trkpt><trkpt lat="43.9026383" lon="12.7382817"><ele>75.0</ele><time>2026-04-12T10:34:11.235Z</time></trkpt><trkpt lat="43.9028133" lon="12.73817"><ele>75.0</ele><time>2026-04-12T10:34:12.235Z</time></trkpt><trkpt lat="43.902985" lon="12.7380733"><ele>75.0</ele><time>2026-04-12T10:34:13.235Z</time></trkpt><trkpt lat="43.9031567" lon="12.737975"><ele>75.0</ele><time>2026-04-12T10:34:14.235Z</time></trkpt><trkpt lat="43.9033283" lon="12.7378667"><ele>75.0</ele><time>2026-04-12T10:34:15.235Z</time></trkpt><trkpt lat="43.9034833" lon="12.7377717"><ele>75.0</ele><time>2026-04-12T10:34:16.234Z</time></trkpt><trkpt lat="43.903645" lon="12.7376683"><ele>73.33333333333333</ele><time>2026-04-12T10:34:17.235Z</time></trkpt><trkpt lat="43.9038067" lon="12.7375633"><ele>71.66666666666666</ele><time>2026-04-12T10:34:18.235Z</time></trkpt><trkpt lat="43.90396" lon="12.7374483"><ele>70.0</ele><time>2026-04-12T10:34:19.235Z</time></trkpt><trkpt lat="43.904095" lon="12.737315"><ele>70.0</ele><time>2026-04-12T10:34:20.235Z</time></trkpt><trkpt lat="43.904215" lon="12.737165"><ele>70.0</ele><time>2026-04-12T10:34:21.234Z</time></trkpt><trkpt lat="43.904335" lon="12.73701"><ele>70.0</ele><time>2026-04-12T10:34:22.235Z</time></trkpt><trkpt lat="43.9044533" lon="12.73685"><ele>66.66666666666666</ele><time>2026-04-12T10:34:23.235Z</time></trkpt><trkpt lat="43.90457" lon="12.7367"><ele>63.33333333333333</ele><time>2026-04-12T10:34:24.234Z</time></trkpt><trkpt lat="43.9046867" lon="12.7365633"><ele>60.0</ele><time>2026-04-12T10:34:25.235Z</time></trkpt><trkpt lat="43.9047917" lon="12.736425"><ele>60.0</ele><time>2026-04-12T10:34:26.235Z</time></trkpt><trkpt lat="43.9048867" lon="12.7362967"><ele>60.0</ele><time>2026-04-12T10:34:27.235Z</time></trkpt><trkpt lat="43.9049717" lon="12.736185"><ele>60.0</ele><time>2026-04-12T10:34:28.235Z</time></trkpt><trkpt lat="43.9050483" lon="12.7360917"><ele>60.0</ele><time>2026-04-12T10:34:29.234Z</time></trkpt><trkpt lat="43.9051283" lon="12.736005"><ele>57.6</ele><time>2026-04-12T10:34:30.235Z</time></trkpt><trkpt lat="43.905215" lon="12.7359433"><ele>55.2</ele><time>2026-04-12T10:34:31.235Z</time></trkpt><trkpt lat="43.9053017" lon="12.7358733"><ele>52.8</ele><time>2026-04-12T10:34:32.235Z</time></trkpt><trkpt lat="43.9053767" lon="12.7357867"><ele>50.4</ele><time>2026-04-12T10:34:33.235Z</time></trkpt><trkpt lat="43.9054583" lon="12.735695"><ele>48.0</ele><time>2026-04-12T10:34:34.235Z</time></trkpt><trkpt lat="43.9055533" lon="12.7356017"><ele>48.0</ele><time>2026-04-12T10:34:35.234Z</time></trkpt><trkpt lat="43.90566" lon="12.7355083"><ele>48.0</ele><time>2026-04-12T10:34:36.235Z</time></trkpt><trkpt lat="43.9057783" lon="12.7354133"><ele>48.0</ele><time>2026-04-12T10:34:37.235Z</time></trkpt><trkpt lat="43.905905" lon="12.735315"><ele>48.0</ele><time>2026-04-12T10:34:38.234Z</time></trkpt><trkpt lat="43.90603" lon="12.7352067"><ele>45.333333333333336</ele><time>2026-04-12T10:34:39.235Z</time></trkpt><trkpt lat="43.9061667" lon="12.7350917"><ele>42.66666666666667</ele><time>2026-04-12T10:34:40.235Z</time></trkpt><trkpt lat="43.9063033" lon="12.7349833"><ele>40.0</ele><time>2026-04-12T10:34:41.234Z</time></trkpt><trkpt lat="43.9064467" lon="12.7348633"><ele>40.0</ele><time>2026-04-12T10:34:42.235Z</time></trkpt><trkpt lat="43.9065967" lon="12.7347383"><ele>40.0</ele><time>2026-04-12T10:34:43.235Z</time></trkpt><trkpt lat="43.9067533" lon="12.7346117"><ele>40.0</ele><time>2026-04-12T10:34:44.235Z</time></trkpt><trkpt lat="43.9069167" lon="12.73448"><ele>38.333333333333336</ele><time>2026-04-12T10:34:45.235Z</time></trkpt><trkpt lat="43.907095" lon="12.7343383"><ele>36.666666666666664</ele><time>2026-04-12T10:34:46.235Z</time></trkpt><trkpt lat="43.9072733" lon="12.7341967"><ele>35.0</ele><time>2026-04-12T10:34:47.234Z</time></trkpt><trkpt lat="43.907455" lon="12.73405"><ele>35.666666666666664</ele><time>2026-04-12T10:34:48.234Z</time></trkpt><trkpt lat="43.9076267" lon="12.7339117"><ele>36.333333333333336</ele><time>2026-04-12T10:34:49.235Z</time></trkpt><trkpt lat="43.907795" lon="12.73377"><ele>37.0</ele><time>2026-04-12T10:34:50.235Z</time></trkpt><trkpt lat="43.9079617" lon="12.73363"><ele>37.0</ele><time>2026-04-12T10:34:51.235Z</time></trkpt><trkpt lat="43.9081083" lon="12.7335033"><ele>37.0</ele><time>2026-04-12T10:34:52.235Z</time></trkpt><trkpt lat="43.908255" lon="12.733385"><ele>37.0</ele><time>2026-04-12T10:34:53.235Z</time></trkpt><trkpt lat="43.9084" lon="12.7332817"><ele>39.333333333333336</ele><time>2026-04-12T10:34:54.235Z</time></trkpt><trkpt lat="43.9085633" lon="12.7331933"><ele>41.666666666666664</ele><time>2026-04-12T10:34:55.235Z</time></trkpt><trkpt lat="43.9087317" lon="12.733135"><ele>44.0</ele><time>2026-04-12T10:34:56.235Z</time></trkpt><trkpt lat="43.9088917" lon="12.7330983"><ele>44.0</ele><time>2026-04-12T10:34:57.234Z</time></trkpt><trkpt lat="43.9090617" lon="12.733085"><ele>44.0</ele><time>2026-04-12T10:34:58.235Z</time></trkpt><trkpt lat="43.9092367" lon="12.7331"><ele>44.0</ele><time>2026-04-12T10:34:59.235Z</time></trkpt><trkpt lat="43.9094267" lon="12.7331317"><ele>44.0</ele><time>2026-04-12T10:35:00.234Z</time></trkpt><trkpt lat="43.9096167" lon="12.733165"><ele>44.0</ele><time>2026-04-12T10:35:01.235Z</time></trkpt><trkpt lat="43.909805" lon="12.73319"><ele>44.0</ele><time>2026-04-12T10:35:02.235Z</time></trkpt><trkpt lat="43.9099817" lon="12.7332333"><ele>43.666666666666664</ele><time>2026-04-12T10:35:03.235Z</time></trkpt><trkpt lat="43.9101883" lon="12.73327"><ele>43.333333333333336</ele><time>2026-04-12T10:35:04.235Z</time></trkpt><trkpt lat="43.9103867" lon="12.7332933"><ele>43.0</ele><time>2026-04-12T10:35:05.234Z</time></trkpt><trkpt lat="43.91058" lon="12.73331"><ele>43.0</ele><time>2026-04-12T10:35:06.234Z</time></trkpt><trkpt lat="43.910765" lon="12.73333"><ele>43.0</ele><time>2026-04-12T10:35:07.235Z</time></trkpt><trkpt lat="43.9109583" lon="12.7333467"><ele>43.0</ele><time>2026-04-12T10:35:08.235Z</time></trkpt><trkpt lat="43.911145" lon="12.7333533"><ele>44.0</ele><time>2026-04-12T10:35:09.235Z</time></trkpt><trkpt lat="43.9113267" lon="12.7333517"><ele>45.0</ele><time>2026-04-12T10:35:10.235Z</time></trkpt><trkpt lat="43.91151" lon="12.7333183"><ele>46.0</ele><time>2026-04-12T10:35:11.234Z</time></trkpt><trkpt lat="43.9116917" lon="12.7332717"><ele>45.0</ele><time>2026-04-12T10:35:12.234Z</time></trkpt><trkpt lat="43.9118767" lon="12.7332117"><ele>44.0</ele><time>2026-04-12T10:35:13.235Z</time></trkpt><trkpt lat="43.91206" lon="12.7331483"><ele>43.0</ele><time>2026-04-12T10:35:14.234Z</time></trkpt><trkpt lat="43.9122517" lon="12.7330817"><ele>43.0</ele><time>2026-04-12T10:35:15.234Z</time></trkpt><trkpt lat="43.9124467" lon="12.7329983"><ele>43.0</ele><time>2026-04-12T10:35:16.234Z</time></trkpt><trkpt lat="43.91265" lon="12.73292"><ele>43.0</ele><time>2026-04-12T10:35:17.234Z</time></trkpt><trkpt lat="43.9128317" lon="12.7328517"><ele>42.333333333333336</ele><time>2026-04-12T10:35:18.234Z</time></trkpt><trkpt lat="43.9130033" lon="12.73279"><ele>41.666666666666664</ele><time>2026-04-12T10:35:19.235Z</time></trkpt><trkpt lat="43.91318" lon="12.7327267"><ele>41.0</ele><time>2026-04-12T10:35:20.235Z</time></trkpt><trkpt lat="43.9133433" lon="12.7326633"><ele>39.0</ele><time>2026-04-12T10:35:21.235Z</time></trkpt><trkpt lat="43.9135017" lon="12.732605"><ele>37.0</ele><time>2026-04-12T10:35:22.235Z</time></trkpt><trkpt lat="43.91366" lon="12.7325483"><ele>35.0</ele><time>2026-04-12T10:35:23.235Z</time></trkpt><trkpt lat="43.9138217" lon="12.73249"><ele>35.0</ele><time>2026-04-12T10:35:24.234Z</time></trkpt><trkpt lat="43.9139683" lon="12.732435"><ele>35.0</ele><time>2026-04-12T10:35:25.235Z</time></trkpt><trkpt lat="43.9141033" lon="12.7323867"><ele>35.0</ele><time>2026-04-12T10:35:26.235Z</time></trkpt><trkpt lat="43.9142283" lon="12.73234"><ele>35.0</ele><time>2026-04-12T10:35:27.235Z</time></trkpt><trkpt lat="43.9143267" lon="12.7323067"><ele>35.0</ele><time>2026-04-12T10:35:28.234Z</time></trkpt><trkpt lat="43.9144" lon="12.732285"><ele>35.0</ele><time>2026-04-12T10:35:29.234Z</time></trkpt><trkpt lat="43.914475" lon="12.73229"><ele>35.0</ele><time>2026-04-12T10:35:30.235Z</time></trkpt><trkpt lat="43.91455" lon="12.7322783"><ele>35.0</ele><time>2026-04-12T10:35:31.235Z</time></trkpt><trkpt lat="43.9146283" lon="12.7322333"><ele>35.0</ele><time>2026-04-12T10:35:32.234Z</time></trkpt><trkpt lat="43.9147067" lon="12.7321833"><ele>35.0</ele><time>2026-04-12T10:35:33.235Z</time></trkpt><trkpt lat="43.9147967" lon="12.7321417"><ele>35.0</ele><time>2026-04-12T10:35:34.235Z</time></trkpt><trkpt lat="43.9148983" lon="12.7320983"><ele>35.0</ele><time>2026-04-12T10:35:35.235Z</time></trkpt><trkpt lat="43.9150167" lon="12.7320483"><ele>35.0</ele><time>2026-04-12T10:35:36.235Z</time></trkpt><trkpt lat="43.9151333" lon="12.7319967"><ele>35.0</ele><time>2026-04-12T10:35:37.235Z</time></trkpt><trkpt lat="43.9152617" lon="12.73192"><ele>35.0</ele><time>2026-04-12T10:35:38.235Z</time></trkpt><trkpt lat="43.9153833" lon="12.73183"><ele>35.0</ele><time>2026-04-12T10:35:39.235Z</time></trkpt><trkpt lat="43.9155" lon="12.731725"><ele>35.0</ele><time>2026-04-12T10:35:40.234Z</time></trkpt><trkpt lat="43.915615" lon="12.7316067"><ele>35.0</ele><time>2026-04-12T10:35:41.235Z</time></trkpt><trkpt lat="43.9157133" lon="12.7314567"><ele>35.0</ele><time>2026-04-12T10:35:42.235Z</time></trkpt><trkpt lat="43.9158133" lon="12.7312917"><ele>35.0</ele><time>2026-04-12T10:35:43.235Z</time></trkpt><trkpt lat="43.9159017" lon="12.7311117"><ele>35.0</ele><time>2026-04-12T10:35:44.235Z</time></trkpt><trkpt lat="43.9159883" lon="12.7309183"><ele>34.0</ele><time>2026-04-12T10:35:45.234Z</time></trkpt><trkpt lat="43.9160733" lon="12.73072"><ele>33.0</ele><time>2026-04-12T10:35:46.235Z</time></trkpt><trkpt lat="43.91615" lon="12.7305083"><ele>32.0</ele><time>2026-04-12T10:35:47.235Z</time></trkpt><trkpt lat="43.9162217" lon="12.73031"><ele>31.0</ele><time>2026-04-12T10:35:48.235Z</time></trkpt><trkpt lat="43.916315" lon="12.730115"><ele>30.0</ele><time>2026-04-12T10:35:49.235Z</time></trkpt><trkpt lat="43.91639" lon="12.7299117"><ele>29.0</ele><time>2026-04-12T10:35:50.235Z</time></trkpt><trkpt lat="43.9164617" lon="12.7297117"><ele>29.0</ele><time>2026-04-12T10:35:51.235Z</time></trkpt><trkpt lat="43.9165433" lon="12.72951"><ele>29.0</ele><time>2026-04-12T10:35:52.235Z</time></trkpt><trkpt lat="43.916625" lon="12.7292967"><ele>29.0</ele><time>2026-04-12T10:35:53.234Z</time></trkpt><trkpt lat="43.916705" lon="12.7290967"><ele>28.666666666666664</ele><time>2026-04-12T10:35:54.235Z</time></trkpt><trkpt lat="43.916785" lon="12.7289033"><ele>28.333333333333336</ele><time>2026-04-12T10:35:55.234Z</time></trkpt><trkpt lat="43.9168767" lon="12.7287133"><ele>28.0</ele><time>2026-04-12T10:35:56.235Z</time></trkpt><trkpt lat="43.9169633" lon="12.7285317"><ele>29.0</ele><time>2026-04-12T10:35:57.234Z</time></trkpt><trkpt lat="43.9170583" lon="12.72837"><ele>30.0</ele><time>2026-04-12T10:35:58.235Z</time></trkpt><trkpt lat="43.9171667" lon="12.7282267"><ele>31.0</ele><time>2026-04-12T10:35:59.235Z</time></trkpt><trkpt lat="43.917285" lon="12.7280933"><ele>31.0</ele><time>2026-04-12T10:36:00.235Z</time></trkpt><trkpt lat="43.9174167" lon="12.72799"><ele>31.0</ele><time>2026-04-12T10:36:01.235Z</time></trkpt><trkpt lat="43.9175383" lon="12.7278917"><ele>31.0</ele><time>2026-04-12T10:36:02.234Z</time></trkpt><trkpt lat="43.9176633" lon="12.7278067"><ele>31.0</ele><time>2026-04-12T10:36:03.235Z</time></trkpt><trkpt lat="43.91777" lon="12.72771"><ele>31.25</ele><time>2026-04-12T10:36:04.234Z</time></trkpt><trkpt lat="43.917895" lon="12.7276267"><ele>31.5</ele><time>2026-04-12T10:36:05.235Z</time></trkpt><trkpt lat="43.9180183" lon="12.7275317"><ele>31.75</ele><time>2026-04-12T10:36:06.234Z</time></trkpt><trkpt lat="43.9181283" lon="12.7274367"><ele>32.0</ele><time>2026-04-12T10:36:07.235Z</time></trkpt><trkpt lat="43.9182417" lon="12.7273467"><ele>32.0</ele><time>2026-04-12T10:36:08.234Z</time></trkpt><trkpt lat="43.9183617" lon="12.7272533"><ele>32.0</ele><time>2026-04-12T10:36:09.235Z</time></trkpt><trkpt lat="43.9184817" lon="12.7271567"><ele>32.0</ele><time>2026-04-12T10:36:10.235Z</time></trkpt><trkpt lat="43.9186067" lon="12.7270617"><ele>32.0</ele><time>2026-04-12T10:36:11.235Z</time></trkpt><trkpt lat="43.918735" lon="12.7269567"><ele>31.333333333333332</ele><time>2026-04-12T10:36:12.235Z</time></trkpt><trkpt lat="43.9188633" lon="12.7268533"><ele>30.666666666666664</ele><time>2026-04-12T10:36:13.235Z</time></trkpt><trkpt lat="43.9189983" lon="12.7267483"><ele>30.0</ele><time>2026-04-12T10:36:14.235Z</time></trkpt><trkpt lat="43.9191417" lon="12.72664"><ele>29.75</ele><time>2026-04-12T10:36:15.234Z</time></trkpt><trkpt lat="43.9192733" lon="12.7265367"><ele>29.5</ele><time>2026-04-12T10:36:16.235Z</time></trkpt><trkpt lat="43.9194" lon="12.7264317"><ele>29.25</ele><time>2026-04-12T10:36:17.234Z</time></trkpt><trkpt lat="43.9195233" lon="12.7263233"><ele>29.0</ele><time>2026-04-12T10:36:18.234Z</time></trkpt><trkpt lat="43.9196467" lon="12.7262167"><ele>29.0</ele><time>2026-04-12T10:36:19.235Z</time></trkpt><trkpt lat="43.9197617" lon="12.7261183"><ele>29.0</ele><time>2026-04-12T10:36:20.235Z</time></trkpt><trkpt lat="43.9198783" lon="12.7260183"><ele>29.0</ele><time>2026-04-12T10:36:21.234Z</time></trkpt><trkpt lat="43.92001" lon="12.72592"><ele>29.0</ele><time>2026-04-12T10:36:22.235Z</time></trkpt><trkpt lat="43.920135" lon="12.7258217"><ele>29.5</ele><time>2026-04-12T10:36:23.235Z</time></trkpt><trkpt lat="43.9202583" lon="12.7257167"><ele>30.0</ele><time>2026-04-12T10:36:24.235Z</time></trkpt><trkpt lat="43.920375" lon="12.7256133"><ele>30.5</ele><time>2026-04-12T10:36:25.234Z</time></trkpt><trkpt lat="43.9204967" lon="12.725515"><ele>31.0</ele><time>2026-04-12T10:36:26.235Z</time></trkpt><trkpt lat="43.92063" lon="12.7254017"><ele>31.0</ele><time>2026-04-12T10:36:27.234Z</time></trkpt><trkpt lat="43.9207867" lon="12.7252717"><ele>31.0</ele><time>2026-04-12T10:36:28.235Z</time></trkpt><trkpt lat="43.9209467" lon="12.7251367"><ele>31.0</ele><time>2026-04-12T10:36:29.234Z</time></trkpt><trkpt lat="43.9211017" lon="12.7250133"><ele>30.666666666666668</ele><time>2026-04-12T10:36:30.235Z</time></trkpt><trkpt lat="43.9212717" lon="12.7248933"><ele>30.333333333333336</ele><time>2026-04-12T10:36:31.234Z</time></trkpt><trkpt lat="43.92144" lon="12.7247783"><ele>30.0</ele><time>2026-04-12T10:36:32.235Z</time></trkpt><trkpt lat="43.9216067" lon="12.7246633"><ele>30.0</ele><time>2026-04-12T10:36:33.234Z</time></trkpt><trkpt lat="43.92178" lon="12.7245517"><ele>30.0</ele><time>2026-04-12T10:36:34.235Z</time></trkpt><trkpt lat="43.9219483" lon="12.72445"><ele>30.0</ele><time>2026-04-12T10:36:35.235Z</time></trkpt><trkpt lat="43.9221183" lon="12.7243567"><ele>31.0</ele><time>2026-04-12T10:36:36.234Z</time></trkpt><trkpt lat="43.9222817" lon="12.72428"><ele>32.0</ele><time>2026-04-12T10:36:37.235Z</time></trkpt><trkpt lat="43.9224383" lon="12.7242083"><ele>33.0</ele><time>2026-04-12T10:36:38.234Z</time></trkpt><trkpt lat="43.9226" lon="12.7241333"><ele>33.0</ele><time>2026-04-12T10:36:39.235Z</time></trkpt><trkpt lat="43.92275" lon="12.7240683"><ele>33.0</ele><time>2026-04-12T10:36:40.234Z</time></trkpt><trkpt lat="43.922915" lon="12.7240033"><ele>33.0</ele><time>2026-04-12T10:36:41.234Z</time></trkpt><trkpt lat="43.92307" lon="12.7239367"><ele>33.0</ele><time>2026-04-12T10:36:42.235Z</time></trkpt><trkpt lat="43.923215" lon="12.723865"><ele>33.0</ele><time>2026-04-12T10:36:43.235Z</time></trkpt><trkpt lat="43.9233717" lon="12.7238017"><ele>33.0</ele><time>2026-04-12T10:36:44.235Z</time></trkpt><trkpt lat="43.9235267" lon="12.7237317"><ele>32.666666666666664</ele><time>2026-04-12T10:36:45.235Z</time></trkpt><trkpt lat="43.9236917" lon="12.7236517"><ele>32.33333333333333</ele><time>2026-04-12T10:36:46.234Z</time></trkpt><trkpt lat="43.9238533" lon="12.7235783"><ele>32.0</ele><time>2026-04-12T10:36:47.235Z</time></trkpt><trkpt lat="43.9240117" lon="12.7235067"><ele>32.0</ele><time>2026-04-12T10:36:48.235Z</time></trkpt><trkpt lat="43.924165" lon="12.7234383"><ele>32.0</ele><time>2026-04-12T10:36:49.235Z</time></trkpt><trkpt lat="43.9243217" lon="12.7233633"><ele>32.0</ele><time>2026-04-12T10:36:50.235Z</time></trkpt><trkpt lat="43.9244867" lon="12.72329"><ele>31.0</ele><time>2026-04-12T10:36:51.235Z</time></trkpt><trkpt lat="43.92464" lon="12.7232183"><ele>30.0</ele><time>2026-04-12T10:36:52.235Z</time></trkpt><trkpt lat="43.9247933" lon="12.723145"><ele>29.0</ele><time>2026-04-12T10:36:53.235Z</time></trkpt><trkpt lat="43.924945" lon="12.72307"><ele>28.0</ele><time>2026-04-12T10:36:54.234Z</time></trkpt><trkpt lat="43.9251" lon="12.7229833"><ele>27.0</ele><time>2026-04-12T10:36:55.235Z</time></trkpt><trkpt lat="43.92525" lon="12.7229067"><ele>26.0</ele><time>2026-04-12T10:36:56.234Z</time></trkpt><trkpt lat="43.9254" lon="12.7228217"><ele>26.0</ele><time>2026-04-12T10:36:57.235Z</time></trkpt><trkpt lat="43.9255467" lon="12.7227367"><ele>26.0</ele><time>2026-04-12T10:36:58.235Z</time></trkpt><trkpt lat="43.925685" lon="12.7226567"><ele>26.0</ele><time>2026-04-12T10:36:59.235Z</time></trkpt><trkpt lat="43.9258233" lon="12.7225783"><ele>26.5</ele><time>2026-04-12T10:37:00.235Z</time></trkpt><trkpt lat="43.9259633" lon="12.72251"><ele>27.0</ele><time>2026-04-12T10:37:01.235Z</time></trkpt><trkpt lat="43.9260967" lon="12.7224433"><ele>27.5</ele><time>2026-04-12T10:37:02.235Z</time></trkpt><trkpt lat="43.92622" lon="12.72237"><ele>28.0</ele><time>2026-04-12T10:37:03.235Z</time></trkpt><trkpt lat="43.926335" lon="12.7223117"><ele>28.0</ele><time>2026-04-12T10:37:04.235Z</time></trkpt><trkpt lat="43.9264583" lon="12.72225"><ele>28.0</ele><time>2026-04-12T10:37:05.235Z</time></trkpt><trkpt lat="43.9265767" lon="12.7221917"><ele>28.0</ele><time>2026-04-12T10:37:06.234Z</time></trkpt><trkpt lat="43.92668" lon="12.7221283"><ele>28.0</ele><time>2026-04-12T10:37:07.235Z</time></trkpt><trkpt lat="43.926795" lon="12.7220733"><ele>28.333333333333336</ele><time>2026-04-12T10:37:08.235Z</time></trkpt><trkpt lat="43.9268833" lon="12.7220283"><ele>28.666666666666668</ele><time>2026-04-12T10:37:09.234Z</time></trkpt><trkpt lat="43.9269567" lon="12.7219917"><ele>29.0</ele><time>2026-04-12T10:37:10.234Z</time></trkpt><trkpt lat="43.92702" lon="12.7219617"><ele>29.333333333333336</ele><time>2026-04-12T10:37:11.235Z</time></trkpt><trkpt lat="43.9270817" lon="12.721925"><ele>29.666666666666668</ele><time>2026-04-12T10:37:12.234Z</time></trkpt><trkpt lat="43.9271983" lon="12.7219167"><ele>30.0</ele><time>2026-04-12T10:37:14.235Z</time></trkpt><trkpt lat="43.9272517" lon="12.7219817"><ele>30.0</ele><time>2026-04-12T10:37:15.235Z</time></trkpt><trkpt lat="43.92729" lon="12.7220983"><ele>30.0</ele><time>2026-04-12T10:37:16.234Z</time></trkpt><trkpt lat="43.9273317" lon="12.7222233"><ele>30.0</ele><time>2026-04-12T10:37:17.234Z</time></trkpt><trkpt lat="43.927375" lon="12.72235"><ele>30.0</ele><time>2026-04-12T10:37:18.235Z</time></trkpt><trkpt lat="43.927425" lon="12.72248"><ele>30.0</ele><time>2026-04-12T10:37:19.235Z</time></trkpt><trkpt lat="43.927485" lon="12.7226133"><ele>29.5</ele><time>2026-04-12T10:37:20.234Z</time></trkpt><trkpt lat="43.927545" lon="12.7227533"><ele>29.0</ele><time>2026-04-12T10:37:21.235Z</time></trkpt><trkpt lat="43.9276" lon="12.7228983"><ele>28.5</ele><time>2026-04-12T10:37:22.234Z</time></trkpt><trkpt lat="43.9276633" lon="12.7230333"><ele>28.0</ele><time>2026-04-12T10:37:23.235Z</time></trkpt><trkpt lat="43.92772" lon="12.72316"><ele>27.5</ele><time>2026-04-12T10:37:24.235Z</time></trkpt><trkpt lat="43.9277783" lon="12.7232833"><ele>27.0</ele><time>2026-04-12T10:37:25.235Z</time></trkpt><trkpt lat="43.9278417" lon="12.72342"><ele>26.5</ele><time>2026-04-12T10:37:26.235Z</time></trkpt><trkpt lat="43.927905" lon="12.7235567"><ele>26.0</ele><time>2026-04-12T10:37:27.235Z</time></trkpt><trkpt lat="43.927975" lon="12.7237067"><ele>26.0</ele><time>2026-04-12T10:37:28.235Z</time></trkpt><trkpt lat="43.9280533" lon="12.723865"><ele>26.0</ele><time>2026-04-12T10:37:29.235Z</time></trkpt><trkpt lat="43.92813" lon="12.724035"><ele>26.0</ele><time>2026-04-12T10:37:30.235Z</time></trkpt><trkpt lat="43.9282017" lon="12.72421"><ele>26.0</ele><time>2026-04-12T10:37:31.234Z</time></trkpt><trkpt lat="43.9282783" lon="12.72438"><ele>26.25</ele><time>2026-04-12T10:37:32.235Z</time></trkpt><trkpt lat="43.9283567" lon="12.7245483"><ele>26.5</ele><time>2026-04-12T10:37:33.235Z</time></trkpt><trkpt lat="43.9284317" lon="12.7247167"><ele>26.75</ele><time>2026-04-12T10:37:34.235Z</time></trkpt><trkpt lat="43.9285067" lon="12.7248833"><ele>27.0</ele><time>2026-04-12T10:37:35.235Z</time></trkpt><trkpt lat="43.92858" lon="12.7250433"><ele>26.75</ele><time>2026-04-12T10:37:36.234Z</time></trkpt><trkpt lat="43.9286717" lon="12.7251817"><ele>26.5</ele><time>2026-04-12T10:37:37.235Z</time></trkpt><trkpt lat="43.928785" lon="12.7253033"><ele>26.25</ele><time>2026-04-12T10:37:38.234Z</time></trkpt><trkpt lat="43.9289" lon="12.7254083"><ele>26.0</ele><time>2026-04-12T10:37:39.235Z</time></trkpt><trkpt lat="43.9290183" lon="12.7255017"><ele>26.0</ele><time>2026-04-12T10:37:40.234Z</time></trkpt><trkpt lat="43.9291383" lon="12.72559"><ele>26.0</ele><time>2026-04-12T10:37:41.235Z</time></trkpt><trkpt lat="43.9292517" lon="12.72568"><ele>26.0</ele><time>2026-04-12T10:37:42.235Z</time></trkpt><trkpt lat="43.92937" lon="12.725765"><ele>26.0</ele><time>2026-04-12T10:37:43.235Z</time></trkpt><trkpt lat="43.9294767" lon="12.7258567"><ele>26.0</ele><time>2026-04-12T10:37:44.234Z</time></trkpt><trkpt lat="43.9295867" lon="12.72594"><ele>26.0</ele><time>2026-04-12T10:37:45.235Z</time></trkpt><trkpt lat="43.9296983" lon="12.726015"><ele>26.0</ele><time>2026-04-12T10:37:46.235Z</time></trkpt><trkpt lat="43.9298183" lon="12.726085"><ele>26.0</ele><time>2026-04-12T10:37:47.235Z</time></trkpt><trkpt lat="43.9299317" lon="12.7261567"><ele>26.0</ele><time>2026-04-12T10:37:48.235Z</time></trkpt><trkpt lat="43.9300433" lon="12.72624"><ele>26.0</ele><time>2026-04-12T10:37:49.235Z</time></trkpt><trkpt lat="43.930155" lon="12.726325"><ele>26.0</ele><time>2026-04-12T10:37:50.235Z</time></trkpt><trkpt lat="43.930265" lon="12.72641"><ele>26.0</ele><time>2026-04-12T10:37:51.235Z</time></trkpt><trkpt lat="43.93036" lon="12.7265117"><ele>25.75</ele><time>2026-04-12T10:37:52.234Z</time></trkpt><trkpt lat="43.930445" lon="12.7266233"><ele>25.5</ele><time>2026-04-12T10:37:53.235Z</time></trkpt><trkpt lat="43.930525" lon="12.7267467"><ele>25.25</ele><time>2026-04-12T10:37:54.235Z</time></trkpt><trkpt lat="43.9305967" lon="12.7268867"><ele>25.0</ele><time>2026-04-12T10:37:55.235Z</time></trkpt><trkpt lat="43.93067" lon="12.7270283"><ele>24.75</ele><time>2026-04-12T10:37:56.234Z</time></trkpt><trkpt lat="43.9307417" lon="12.727175"><ele>24.5</ele><time>2026-04-12T10:37:57.235Z</time></trkpt><trkpt lat="43.9308083" lon="12.7273233"><ele>24.25</ele><time>2026-04-12T10:37:58.235Z</time></trkpt><trkpt lat="43.9308867" lon="12.72747"><ele>24.0</ele><time>2026-04-12T10:37:59.235Z</time></trkpt><trkpt lat="43.9309567" lon="12.72762"><ele>24.0</ele><time>2026-04-12T10:38:00.234Z</time></trkpt><trkpt lat="43.931035" lon="12.7277683"><ele>24.0</ele><time>2026-04-12T10:38:01.234Z</time></trkpt><trkpt lat="43.9311183" lon="12.727925"><ele>24.0</ele><time>2026-04-12T10:38:02.235Z</time></trkpt><trkpt lat="43.9311983" lon="12.72809"><ele>24.0</ele><time>2026-04-12T10:38:03.234Z</time></trkpt><trkpt lat="43.9312833" lon="12.7282533"><ele>24.0</ele><time>2026-04-12T10:38:04.235Z</time></trkpt><trkpt lat="43.931365" lon="12.7284283"><ele>24.0</ele><time>2026-04-12T10:38:05.235Z</time></trkpt><trkpt lat="43.9314483" lon="12.7286033"><ele>24.0</ele><time>2026-04-12T10:38:06.235Z</time></trkpt><trkpt lat="43.9315317" lon="12.728775"><ele>24.0</ele><time>2026-04-12T10:38:07.235Z</time></trkpt><trkpt lat="43.9316217" lon="12.7289433"><ele>24.0</ele><time>2026-04-12T10:38:08.234Z</time></trkpt><trkpt lat="43.9317167" lon="12.7291083"><ele>24.0</ele><time>2026-04-12T10:38:09.235Z</time></trkpt><trkpt lat="43.93181" lon="12.7292717"><ele>23.333333333333332</ele><time>2026-04-12T10:38:10.234Z</time></trkpt><trkpt lat="43.93191" lon="12.72944"><ele>22.666666666666664</ele><time>2026-04-12T10:38:11.234Z</time></trkpt><trkpt lat="43.9320133" lon="12.7296067"><ele>22.0</ele><time>2026-04-12T10:38:12.235Z</time></trkpt><trkpt lat="43.9321083" lon="12.7297717"><ele>22.0</ele><time>2026-04-12T10:38:13.234Z</time></trkpt><trkpt lat="43.9322133" lon="12.72994"><ele>22.0</ele><time>2026-04-12T10:38:14.235Z</time></trkpt><trkpt lat="43.9323117" lon="12.7301"><ele>22.0</ele><time>2026-04-12T10:38:15.234Z</time></trkpt><trkpt lat="43.9323933" lon="12.7302517"><ele>22.0</ele><time>2026-04-12T10:38:16.235Z</time></trkpt><trkpt lat="43.9324667" lon="12.7303867"><ele>22.0</ele><time>2026-04-12T10:38:17.235Z</time></trkpt><trkpt lat="43.9325417" lon="12.7305117"><ele>22.0</ele><time>2026-04-12T10:38:18.235Z</time></trkpt><trkpt lat="43.9326217" lon="12.7306433"><ele>22.0</ele><time>2026-04-12T10:38:19.234Z</time></trkpt><trkpt lat="43.9327" lon="12.7307883"><ele>22.0</ele><time>2026-04-12T10:38:20.234Z</time></trkpt><trkpt lat="43.9327867" lon="12.73094"><ele>21.666666666666664</ele><time>2026-04-12T10:38:21.234Z</time></trkpt><trkpt lat="43.9328767" lon="12.7310983"><ele>21.333333333333332</ele><time>2026-04-12T10:38:22.235Z</time></trkpt><trkpt lat="43.9329733" lon="12.73126"><ele>21.0</ele><time>2026-04-12T10:38:23.234Z</time></trkpt><trkpt lat="43.933075" lon="12.731425"><ele>21.0</ele><time>2026-04-12T10:38:24.235Z</time></trkpt><trkpt lat="43.9331783" lon="12.7316083"><ele>21.0</ele><time>2026-04-12T10:38:25.235Z</time></trkpt><trkpt lat="43.9332917" lon="12.731775"><ele>21.0</ele><time>2026-04-12T10:38:26.234Z</time></trkpt><trkpt lat="43.9333967" lon="12.731925"><ele>20.5</ele><time>2026-04-12T10:38:27.235Z</time></trkpt><trkpt lat="43.933505" lon="12.73207"><ele>20.0</ele><time>2026-04-12T10:38:28.235Z</time></trkpt><trkpt lat="43.93361" lon="12.732205"><ele>19.5</ele><time>2026-04-12T10:38:29.234Z</time></trkpt><trkpt lat="43.9337117" lon="12.7323283"><ele>19.0</ele><time>2026-04-12T10:38:30.235Z</time></trkpt><trkpt lat="43.9338083" lon="12.7324467"><ele>19.0</ele><time>2026-04-12T10:38:31.234Z</time></trkpt><trkpt lat="43.933895" lon="12.7325533"><ele>19.0</ele><time>2026-04-12T10:38:32.234Z</time></trkpt><trkpt lat="43.9339783" lon="12.732645"><ele>19.0</ele><time>2026-04-12T10:38:33.231Z</time></trkpt><trkpt lat="43.93406" lon="12.7327417"><ele>19.0</ele><time>2026-04-12T10:38:34.234Z</time></trkpt><trkpt lat="43.934145" lon="12.732845"><ele>19.0</ele><time>2026-04-12T10:38:35.234Z</time></trkpt><trkpt lat="43.934235" lon="12.73298"><ele>19.5</ele><time>2026-04-12T10:38:36.235Z</time></trkpt><trkpt lat="43.9343333" lon="12.7331183"><ele>20.0</ele><time>2026-04-12T10:38:37.234Z</time></trkpt><trkpt lat="43.9344383" lon="12.7332583"><ele>20.5</ele><time>2026-04-12T10:38:38.234Z</time></trkpt><trkpt lat="43.93455" lon="12.73341"><ele>21.0</ele><time>2026-04-12T10:38:39.234Z</time></trkpt><trkpt lat="43.934665" lon="12.7335667"><ele>21.0</ele><time>2026-04-12T10:38:40.235Z</time></trkpt><trkpt lat="43.9347783" lon="12.7337333"><ele>21.0</ele><time>2026-04-12T10:38:41.235Z</time></trkpt><trkpt lat="43.9348833" lon="12.7338967"><ele>21.0</ele><time>2026-04-12T10:38:42.234Z</time></trkpt><trkpt lat="43.9349933" lon="12.734055"><ele>21.0</ele><time>2026-04-12T10:38:43.235Z</time></trkpt><trkpt lat="43.9351083" lon="12.7342117"><ele>21.0</ele><time>2026-04-12T10:38:44.235Z</time></trkpt><trkpt lat="43.93522" lon="12.7343717"><ele>21.0</ele><time>2026-04-12T10:38:45.235Z</time></trkpt><trkpt lat="43.935325" lon="12.734525"><ele>21.0</ele><time>2026-04-12T10:38:46.234Z</time></trkpt><trkpt lat="43.93543" lon="12.73468"><ele>21.0</ele><time>2026-04-12T10:38:47.235Z</time></trkpt><trkpt lat="43.9355333" lon="12.73482"><ele>21.0</ele><time>2026-04-12T10:38:48.234Z</time></trkpt><trkpt lat="43.935635" lon="12.7349617"><ele>21.0</ele><time>2026-04-12T10:38:49.235Z</time></trkpt><trkpt lat="43.9357267" lon="12.7351017"><ele>20.25</ele><time>2026-04-12T10:38:50.235Z</time></trkpt><trkpt lat="43.9358167" lon="12.73523"><ele>19.5</ele><time>2026-04-12T10:38:51.235Z</time></trkpt><trkpt lat="43.9359033" lon="12.7353583"><ele>18.75</ele><time>2026-04-12T10:38:52.235Z</time></trkpt><trkpt lat="43.9359867" lon="12.73548"><ele>18.0</ele><time>2026-04-12T10:38:53.234Z</time></trkpt><trkpt lat="43.936065" lon="12.7355933"><ele>18.0</ele><time>2026-04-12T10:38:54.234Z</time></trkpt><trkpt lat="43.93614" lon="12.735705"><ele>18.0</ele><time>2026-04-12T10:38:55.235Z</time></trkpt><trkpt lat="43.9362167" lon="12.735815"><ele>18.0</ele><time>2026-04-12T10:38:56.235Z</time></trkpt><trkpt lat="43.9363" lon="12.73592"><ele>18.0</ele><time>2026-04-12T10:38:57.235Z</time></trkpt><trkpt lat="43.9363817" lon="12.7360483"><ele>18.0</ele><time>2026-04-12T10:38:58.234Z</time></trkpt><trkpt lat="43.9364617" lon="12.736185"><ele>18.0</ele><time>2026-04-12T10:38:59.235Z</time></trkpt><trkpt lat="43.9365233" lon="12.7363367"><ele>18.0</ele><time>2026-04-12T10:39:00.234Z</time></trkpt><trkpt lat="43.936575" lon="12.73649"><ele>18.0</ele><time>2026-04-12T10:39:01.235Z</time></trkpt><trkpt lat="43.93661" lon="12.7366483"><ele>18.0</ele><time>2026-04-12T10:39:02.235Z</time></trkpt><trkpt lat="43.93665" lon="12.7368"><ele>18.0</ele><time>2026-04-12T10:39:03.235Z</time></trkpt><trkpt lat="43.9367133" lon="12.7369367"><ele>18.0</ele><time>2026-04-12T10:39:04.235Z</time></trkpt><trkpt lat="43.9368133" lon="12.737045"><ele>18.0</ele><time>2026-04-12T10:39:05.235Z</time></trkpt><trkpt lat="43.9369283" lon="12.7371317"><ele>17.75</ele><time>2026-04-12T10:39:06.234Z</time></trkpt><trkpt lat="43.937065" lon="12.737195"><ele>17.5</ele><time>2026-04-12T10:39:07.234Z</time></trkpt><trkpt lat="43.9371983" lon="12.73727"><ele>17.25</ele><time>2026-04-12T10:39:08.235Z</time></trkpt><trkpt lat="43.9373333" lon="12.73736"><ele>17.0</ele><time>2026-04-12T10:39:09.235Z</time></trkpt><trkpt lat="43.937455" lon="12.73748"><ele>17.0</ele><time>2026-04-12T10:39:10.235Z</time></trkpt><trkpt lat="43.9375733" lon="12.737605"><ele>17.0</ele><time>2026-04-12T10:39:11.235Z</time></trkpt><trkpt lat="43.9376967" lon="12.7377183"><ele>17.0</ele><time>2026-04-12T10:39:12.234Z</time></trkpt><trkpt lat="43.937815" lon="12.737835"><ele>17.0</ele><time>2026-04-12T10:39:13.235Z</time></trkpt><trkpt lat="43.93793" lon="12.7379233"><ele>16.5</ele><time>2026-04-12T10:39:14.234Z</time></trkpt><trkpt lat="43.9380417" lon="12.738"><ele>16.0</ele><time>2026-04-12T10:39:15.235Z</time></trkpt><trkpt lat="43.9381433" lon="12.7380783"><ele>15.5</ele><time>2026-04-12T10:39:16.234Z</time></trkpt><trkpt lat="43.9382483" lon="12.7381617"><ele>15.0</ele><time>2026-04-12T10:39:17.235Z</time></trkpt><trkpt lat="43.9383533" lon="12.7382433"><ele>15.25</ele><time>2026-04-12T10:39:18.235Z</time></trkpt><trkpt lat="43.9384717" lon="12.7383333"><ele>15.5</ele><time>2026-04-12T10:39:19.234Z</time></trkpt><trkpt lat="43.9385967" lon="12.7384217"><ele>15.75</ele><time>2026-04-12T10:39:20.234Z</time></trkpt><trkpt lat="43.9387183" lon="12.7385133"><ele>16.0</ele><time>2026-04-12T10:39:21.235Z</time></trkpt><trkpt lat="43.938835" lon="12.7386"><ele>16.0</ele><time>2026-04-12T10:39:22.235Z</time></trkpt><trkpt lat="43.9389417" lon="12.7386867"><ele>16.0</ele><time>2026-04-12T10:39:23.235Z</time></trkpt><trkpt lat="43.9390333" lon="12.7387683"><ele>16.0</ele><time>2026-04-12T10:39:24.235Z</time></trkpt><trkpt lat="43.9391083" lon="12.738845"><ele>16.0</ele><time>2026-04-12T10:39:25.235Z</time></trkpt><trkpt lat="43.93916" lon="12.738925"><ele>16.0</ele><time>2026-04-12T10:39:26.235Z</time></trkpt><trkpt lat="43.939195" lon="12.73901"><ele>16.0</ele><time>2026-04-12T10:39:27.235Z</time></trkpt><trkpt lat="43.939215" lon="12.7391117"><ele>16.0</ele><time>2026-04-12T10:39:28.235Z</time></trkpt><trkpt lat="43.9392167" lon="12.7392283"><ele>16.0</ele><time>2026-04-12T10:39:29.234Z</time></trkpt><trkpt lat="43.9392017" lon="12.7393617"><ele>16.0</ele><time>2026-04-12T10:39:30.235Z</time></trkpt><trkpt lat="43.9391467" lon="12.7395067"><ele>16.0</ele><time>2026-04-12T10:39:31.234Z</time></trkpt><trkpt lat="43.93909" lon="12.73965"><ele>16.0</ele><time>2026-04-12T10:39:32.235Z</time></trkpt><trkpt lat="43.9390317" lon="12.7397967"><ele>16.0</ele><time>2026-04-12T10:39:33.234Z</time></trkpt><trkpt lat="43.9389783" lon="12.7399517"><ele>16.0</ele><time>2026-04-12T10:39:34.234Z</time></trkpt><trkpt lat="43.938925" lon="12.7401"><ele>16.0</ele><time>2026-04-12T10:39:35.235Z</time></trkpt><trkpt lat="43.9388633" lon="12.7402583"><ele>16.0</ele><time>2026-04-12T10:39:36.235Z</time></trkpt><trkpt lat="43.9388117" lon="12.7404133"><ele>16.0</ele><time>2026-04-12T10:39:37.234Z</time></trkpt><trkpt lat="43.938775" lon="12.7405717"><ele>16.0</ele><time>2026-04-12T10:39:38.235Z</time></trkpt><trkpt lat="43.9387483" lon="12.7407133"><ele>16.0</ele><time>2026-04-12T10:39:39.234Z</time></trkpt><trkpt lat="43.93873" lon="12.74083"><ele>16.0</ele><time>2026-04-12T10:39:40.234Z</time></trkpt><trkpt lat="43.9387133" lon="12.7409383"><ele>15.999999999999998</ele><time>2026-04-12T10:39:41.235Z</time></trkpt><trkpt lat="43.9387" lon="12.7410483"><ele>16.0</ele><time>2026-04-12T10:39:42.234Z</time></trkpt><trkpt lat="43.9386883" lon="12.741155"><ele>16.0</ele><time>2026-04-12T10:39:43.235Z</time></trkpt><trkpt lat="43.9386733" lon="12.741245"><ele>16.0</ele><time>2026-04-12T10:39:44.235Z</time></trkpt><trkpt lat="43.9385967" lon="12.7413783"><ele>15.999999999999998</ele><time>2026-04-12T10:39:46.235Z</time></trkpt><trkpt lat="43.9385317" lon="12.7414083"><ele>16.0</ele><time>2026-04-12T10:39:47.235Z</time></trkpt><trkpt lat="43.9384583" lon="12.7414133"><ele>16.400000000000002</ele><time>2026-04-12T10:39:48.235Z</time></trkpt><trkpt lat="43.9383717" lon="12.74141"><ele>16.8</ele><time>2026-04-12T10:39:49.234Z</time></trkpt><trkpt lat="43.9382767" lon="12.7414067"><ele>17.200000000000003</ele><time>2026-04-12T10:39:50.235Z</time></trkpt><trkpt lat="43.9381783" lon="12.741405"><ele>17.6</ele><time>2026-04-12T10:39:51.235Z</time></trkpt><trkpt lat="43.938085" lon="12.7413933"><ele>18.0</ele><time>2026-04-12T10:39:52.235Z</time></trkpt><trkpt lat="43.9380017" lon="12.7413883"><ele>18.0</ele><time>2026-04-12T10:39:53.235Z</time></trkpt><trkpt lat="43.93792" lon="12.7413717"><ele>18.0</ele><time>2026-04-12T10:39:54.235Z</time></trkpt><trkpt lat="43.93783" lon="12.7413483"><ele>18.0</ele><time>2026-04-12T10:39:55.235Z</time></trkpt><trkpt lat="43.937745" lon="12.7413367"><ele>18.0</ele><time>2026-04-12T10:39:56.235Z</time></trkpt><trkpt lat="43.9376483" lon="12.7413167"><ele>18.0</ele><time>2026-04-12T10:39:57.235Z</time></trkpt><trkpt lat="43.9375433" lon="12.7413383"><ele>19.25</ele><time>2026-04-12T10:39:58.234Z</time></trkpt><trkpt lat="43.9374317" lon="12.741385"><ele>20.5</ele><time>2026-04-12T10:39:59.234Z</time></trkpt><trkpt lat="43.937315" lon="12.7414467"><ele>21.75</ele><time>2026-04-12T10:40:00.235Z</time></trkpt><trkpt lat="43.9372017" lon="12.74151"><ele>23.0</ele><time>2026-04-12T10:40:01.235Z</time></trkpt><trkpt lat="43.937085" lon="12.7415467"><ele>23.0</ele><time>2026-04-12T10:40:02.234Z</time></trkpt><trkpt lat="43.9369533" lon="12.7415533"><ele>23.0</ele><time>2026-04-12T10:40:03.235Z</time></trkpt><trkpt lat="43.936825" lon="12.7415117"><ele>23.0</ele><time>2026-04-12T10:40:04.235Z</time></trkpt><trkpt lat="43.9367017" lon="12.741455"><ele>23.0</ele><time>2026-04-12T10:40:05.234Z</time></trkpt><trkpt lat="43.93658" lon="12.74141"><ele>25.5</ele><time>2026-04-12T10:40:06.234Z</time></trkpt><trkpt lat="43.936455" lon="12.7413783"><ele>28.0</ele><time>2026-04-12T10:40:07.234Z</time></trkpt><trkpt lat="43.936325" lon="12.74136"><ele>30.5</ele><time>2026-04-12T10:40:08.234Z</time></trkpt><trkpt lat="43.9361933" lon="12.7413467"><ele>33.0</ele><time>2026-04-12T10:40:09.235Z</time></trkpt><trkpt lat="43.93607" lon="12.7413467"><ele>33.0</ele><time>2026-04-12T10:40:10.235Z</time></trkpt><trkpt lat="43.9359617" lon="12.7413567"><ele>33.0</ele><time>2026-04-12T10:40:11.234Z</time></trkpt><trkpt lat="43.9358717" lon="12.741375"><ele>33.0</ele><time>2026-04-12T10:40:12.235Z</time></trkpt><trkpt lat="43.93581" lon="12.7413933"><ele>33.0</ele><time>2026-04-12T10:40:13.235Z</time></trkpt><trkpt lat="43.9357233" lon="12.7414883"><ele>33.0</ele><time>2026-04-12T10:40:15.234Z</time></trkpt><trkpt lat="43.9357483" lon="12.741625"><ele>34.333333333333336</ele><time>2026-04-12T10:40:17.235Z</time></trkpt><trkpt lat="43.9357933" lon="12.7416983"><ele>35.666666666666664</ele><time>2026-04-12T10:40:18.235Z</time></trkpt><trkpt lat="43.93585" lon="12.741775"><ele>37.0</ele><time>2026-04-12T10:40:19.234Z</time></trkpt><trkpt lat="43.935895" lon="12.7418833"><ele>38.33333333333333</ele><time>2026-04-12T10:40:20.235Z</time></trkpt><trkpt lat="43.9359333" lon="12.742"><ele>39.666666666666664</ele><time>2026-04-12T10:40:21.235Z</time></trkpt><trkpt lat="43.9359667" lon="12.7421217"><ele>41.0</ele><time>2026-04-12T10:40:22.235Z</time></trkpt><trkpt lat="43.9360033" lon="12.7422483"><ele>41.0</ele><time>2026-04-12T10:40:23.234Z</time></trkpt><trkpt lat="43.9360483" lon="12.7423867"><ele>41.0</ele><time>2026-04-12T10:40:24.235Z</time></trkpt><trkpt lat="43.9360983" lon="12.7425333"><ele>41.0</ele><time>2026-04-12T10:40:25.234Z</time></trkpt><trkpt lat="43.93615" lon="12.7426767"><ele>41.0</ele><time>2026-04-12T10:40:26.235Z</time></trkpt><trkpt lat="43.9362033" lon="12.7428217"><ele>43.0</ele><time>2026-04-12T10:40:27.235Z</time></trkpt><trkpt lat="43.9362433" lon="12.7429867"><ele>45.0</ele><time>2026-04-12T10:40:28.235Z</time></trkpt><trkpt lat="43.9362783" lon="12.7431367"><ele>47.0</ele><time>2026-04-12T10:40:29.235Z</time></trkpt><trkpt lat="43.936315" lon="12.7432783"><ele>49.0</ele><time>2026-04-12T10:40:30.235Z</time></trkpt><trkpt lat="43.9363567" lon="12.7434133"><ele>49.800000000000004</ele><time>2026-04-12T10:40:31.234Z</time></trkpt><trkpt lat="43.9364017" lon="12.7435517"><ele>50.6</ele><time>2026-04-12T10:40:32.235Z</time></trkpt><trkpt lat="43.9364433" lon="12.743685"><ele>51.4</ele><time>2026-04-12T10:40:33.234Z</time></trkpt><trkpt lat="43.9364867" lon="12.7438233"><ele>52.2</ele><time>2026-04-12T10:40:34.235Z</time></trkpt><trkpt lat="43.93653" lon="12.7439533"><ele>53.0</ele><time>2026-04-12T10:40:35.235Z</time></trkpt><trkpt lat="43.9365667" lon="12.7440817"><ele>53.0</ele><time>2026-04-12T10:40:36.235Z</time></trkpt><trkpt lat="43.9366" lon="12.744215"><ele>53.0</ele><time>2026-04-12T10:40:37.235Z</time></trkpt><trkpt lat="43.9366433" lon="12.7443467"><ele>53.0</ele><time>2026-04-12T10:40:38.235Z</time></trkpt><trkpt lat="43.9366983" lon="12.7444683"><ele>53.0</ele><time>2026-04-12T10:40:39.234Z</time></trkpt><trkpt lat="43.93675" lon="12.7445983"><ele>53.0</ele><time>2026-04-12T10:40:40.235Z</time></trkpt><trkpt lat="43.9368083" lon="12.7447333"><ele>52.4</ele><time>2026-04-12T10:40:41.235Z</time></trkpt><trkpt lat="43.9368633" lon="12.744875"><ele>51.8</ele><time>2026-04-12T10:40:42.235Z</time></trkpt><trkpt lat="43.93692" lon="12.74501"><ele>51.2</ele><time>2026-04-12T10:40:43.234Z</time></trkpt><trkpt lat="43.9369667" lon="12.74515"><ele>50.6</ele><time>2026-04-12T10:40:44.235Z</time></trkpt><trkpt lat="43.9369967" lon="12.745295"><ele>50.0</ele><time>2026-04-12T10:40:45.234Z</time></trkpt><trkpt lat="43.937005" lon="12.7454317"><ele>50.0</ele><time>2026-04-12T10:40:46.235Z</time></trkpt><trkpt lat="43.936995" lon="12.7455417"><ele>50.0</ele><time>2026-04-12T10:40:47.235Z</time></trkpt><trkpt lat="43.9369583" lon="12.7456433"><ele>50.0</ele><time>2026-04-12T10:40:48.235Z</time></trkpt><trkpt lat="43.93689" lon="12.74574"><ele>50.0</ele><time>2026-04-12T10:40:49.235Z</time></trkpt><trkpt lat="43.9368167" lon="12.74585"><ele>50.0</ele><time>2026-04-12T10:40:50.235Z</time></trkpt><trkpt lat="43.9367283" lon="12.7459717"><ele>53.25</ele><time>2026-04-12T10:40:51.235Z</time></trkpt><trkpt lat="43.93663" lon="12.7461"><ele>56.5</ele><time>2026-04-12T10:40:52.235Z</time></trkpt><trkpt lat="43.9365333" lon="12.7462383"><ele>59.75</ele><time>2026-04-12T10:40:53.235Z</time></trkpt><trkpt lat="43.9364367" lon="12.7463833"><ele>63.0</ele><time>2026-04-12T10:40:54.235Z</time></trkpt><trkpt lat="43.93635" lon="12.74653"><ele>63.0</ele><time>2026-04-12T10:40:55.235Z</time></trkpt><trkpt lat="43.93626" lon="12.7466683"><ele>63.0</ele><time>2026-04-12T10:40:56.235Z</time></trkpt><trkpt lat="43.9361767" lon="12.7468033"><ele>63.0</ele><time>2026-04-12T10:40:57.234Z</time></trkpt><trkpt lat="43.9361" lon="12.7469333"><ele>63.0</ele><time>2026-04-12T10:40:58.234Z</time></trkpt><trkpt lat="43.936025" lon="12.7470633"><ele>63.0</ele><time>2026-04-12T10:40:59.235Z</time></trkpt><trkpt lat="43.9359517" lon="12.7471933"><ele>63.0</ele><time>2026-04-12T10:41:00.235Z</time></trkpt><trkpt lat="43.935875" lon="12.747325"><ele>63.0</ele><time>2026-04-12T10:41:01.234Z</time></trkpt><trkpt lat="43.935795" lon="12.7474467"><ele>63.0</ele><time>2026-04-12T10:41:02.235Z</time></trkpt><trkpt lat="43.935725" lon="12.74755"><ele>64.4</ele><time>2026-04-12T10:41:03.234Z</time></trkpt><trkpt lat="43.9356483" lon="12.7476483"><ele>65.8</ele><time>2026-04-12T10:41:04.235Z</time></trkpt><trkpt lat="43.9355733" lon="12.7477467"><ele>67.2</ele><time>2026-04-12T10:41:05.234Z</time></trkpt><trkpt lat="43.935495" lon="12.7478483"><ele>68.6</ele><time>2026-04-12T10:41:06.235Z</time></trkpt><trkpt lat="43.9354067" lon="12.7479517"><ele>70.0</ele><time>2026-04-12T10:41:07.235Z</time></trkpt><trkpt lat="43.9353283" lon="12.7480667"><ele>70.0</ele><time>2026-04-12T10:41:08.234Z</time></trkpt><trkpt lat="43.9352633" lon="12.7481983"><ele>70.0</ele><time>2026-04-12T10:41:09.235Z</time></trkpt><trkpt lat="43.935215" lon="12.7483533"><ele>70.0</ele><time>2026-04-12T10:41:10.235Z</time></trkpt><trkpt lat="43.9351583" lon="12.7485017"><ele>70.0</ele><time>2026-04-12T10:41:11.235Z</time></trkpt><trkpt lat="43.935085" lon="12.7486483"><ele>70.25</ele><time>2026-04-12T10:41:12.235Z</time></trkpt><trkpt lat="43.935015" lon="12.7487867"><ele>70.5</ele><time>2026-04-12T10:41:13.235Z</time></trkpt><trkpt lat="43.9349333" lon="12.7489117"><ele>70.75</ele><time>2026-04-12T10:41:14.235Z</time></trkpt><trkpt lat="43.9348383" lon="12.749035"><ele>71.0</ele><time>2026-04-12T10:41:15.235Z</time></trkpt><trkpt lat="43.9347283" lon="12.7491583"><ele>71.0</ele><time>2026-04-12T10:41:16.235Z</time></trkpt><trkpt lat="43.934615" lon="12.7492883"><ele>71.0</ele><time>2026-04-12T10:41:17.235Z</time></trkpt><trkpt lat="43.9345067" lon="12.7494333"><ele>71.0</ele><time>2026-04-12T10:41:18.235Z</time></trkpt><trkpt lat="43.9344017" lon="12.7495733"><ele>71.0</ele><time>2026-04-12T10:41:19.235Z</time></trkpt><trkpt lat="43.934295" lon="12.7497133"><ele>71.25</ele><time>2026-04-12T10:41:20.235Z</time></trkpt><trkpt lat="43.9341817" lon="12.7498533"><ele>71.5</ele><time>2026-04-12T10:41:21.235Z</time></trkpt><trkpt lat="43.9340733" lon="12.74998"><ele>71.75</ele><time>2026-04-12T10:41:22.234Z</time></trkpt><trkpt lat="43.9339683" lon="12.7501167"><ele>72.0</ele><time>2026-04-12T10:41:23.235Z</time></trkpt><trkpt lat="43.9338583" lon="12.7502583"><ele>72.0</ele><time>2026-04-12T10:41:24.235Z</time></trkpt><trkpt lat="43.9337483" lon="12.7503833"><ele>72.0</ele><time>2026-04-12T10:41:25.235Z</time></trkpt><trkpt lat="43.933645" lon="12.7505"><ele>72.0</ele><time>2026-04-12T10:41:26.235Z</time></trkpt><trkpt lat="43.9335483" lon="12.7506033"><ele>72.0</ele><time>2026-04-12T10:41:27.234Z</time></trkpt><trkpt lat="43.93346" lon="12.7507033"><ele>72.0</ele><time>2026-04-12T10:41:28.234Z</time></trkpt><trkpt lat="43.9333917" lon="12.7507883"><ele>72.0</ele><time>2026-04-12T10:41:29.235Z</time></trkpt><trkpt lat="43.9333217" lon="12.7508667"><ele>72.0</ele><time>2026-04-12T10:41:30.235Z</time></trkpt><trkpt lat="43.9332617" lon="12.7509383"><ele>72.0</ele><time>2026-04-12T10:41:31.235Z</time></trkpt><trkpt lat="43.933205" lon="12.751"><ele>72.0</ele><time>2026-04-12T10:41:32.234Z</time></trkpt><trkpt lat="43.9331333" lon="12.75105"><ele>72.0</ele><time>2026-04-12T10:41:34.235Z</time></trkpt><trkpt lat="43.933175" lon="12.7511483"><ele>72.5</ele><time>2026-04-12T10:41:38.234Z</time></trkpt><trkpt lat="43.9332417" lon="12.7511783"><ele>73.0</ele><time>2026-04-12T10:41:39.235Z</time></trkpt><trkpt lat="43.93331" lon="12.7512183"><ele>73.5</ele><time>2026-04-12T10:41:40.235Z</time></trkpt><trkpt lat="43.9333767" lon="12.7512667"><ele>74.0</ele><time>2026-04-12T10:41:41.235Z</time></trkpt><trkpt lat="43.9334467" lon="12.75133"><ele>74.5</ele><time>2026-04-12T10:41:42.234Z</time></trkpt><trkpt lat="43.9335117" lon="12.7513983"><ele>75.0</ele><time>2026-04-12T10:41:43.235Z</time></trkpt><trkpt lat="43.9335833" lon="12.751465"><ele>75.0</ele><time>2026-04-12T10:41:44.235Z</time></trkpt><trkpt lat="43.933665" lon="12.7515483"><ele>75.0</ele><time>2026-04-12T10:41:45.235Z</time></trkpt><trkpt lat="43.93373" lon="12.751625"><ele>75.0</ele><time>2026-04-12T10:41:46.235Z</time></trkpt><trkpt lat="43.933795" lon="12.7517267"><ele>75.0</ele><time>2026-04-12T10:41:47.235Z</time></trkpt><trkpt lat="43.9338533" lon="12.7518383"><ele>75.0</ele><time>2026-04-12T10:41:48.234Z</time></trkpt><trkpt lat="43.9339033" lon="12.7519633"><ele>76.75</ele><time>2026-04-12T10:41:49.235Z</time></trkpt><trkpt lat="43.9339383" lon="12.7521183"><ele>78.5</ele><time>2026-04-12T10:41:50.235Z</time></trkpt><trkpt lat="43.93397" lon="12.7522833"><ele>80.25</ele><time>2026-04-12T10:41:51.235Z</time></trkpt><trkpt lat="43.9340017" lon="12.75245"><ele>82.0</ele><time>2026-04-12T10:41:52.234Z</time></trkpt><trkpt lat="43.9340383" lon="12.752615"><ele>82.39999999999999</ele><time>2026-04-12T10:41:53.235Z</time></trkpt><trkpt lat="43.9340767" lon="12.75277"><ele>82.8</ele><time>2026-04-12T10:41:54.235Z</time></trkpt><trkpt lat="43.9341083" lon="12.7529117"><ele>83.2</ele><time>2026-04-12T10:41:55.235Z</time></trkpt><trkpt lat="43.93414" lon="12.753045"><ele>83.6</ele><time>2026-04-12T10:41:56.235Z</time></trkpt><trkpt lat="43.93417" lon="12.7531717"><ele>84.0</ele><time>2026-04-12T10:41:57.235Z</time></trkpt><trkpt lat="43.9341967" lon="12.7532817"><ele>84.0</ele><time>2026-04-12T10:41:58.234Z</time></trkpt><trkpt lat="43.9342217" lon="12.75337"><ele>84.0</ele><time>2026-04-12T10:41:59.235Z</time></trkpt><trkpt lat="43.9342367" lon="12.75349"><ele>84.0</ele><time>2026-04-12T10:42:01.235Z</time></trkpt><trkpt lat="43.9341383" lon="12.7535217"><ele>84.0</ele><time>2026-04-12T10:42:11.235Z</time></trkpt><trkpt lat="43.9340183" lon="12.7534483"><ele>84.0</ele><time>2026-04-12T10:42:13.234Z</time></trkpt><trkpt lat="43.9339333" lon="12.7534067"><ele>84.0</ele><time>2026-04-12T10:42:14.235Z</time></trkpt><trkpt lat="43.9338317" lon="12.7533767"><ele>84.0</ele><time>2026-04-12T10:42:15.234Z</time></trkpt><trkpt lat="43.9337233" lon="12.7533617"><ele>84.0</ele><time>2026-04-12T10:42:16.235Z</time></trkpt><trkpt lat="43.9336067" lon="12.7533567"><ele>84.0</ele><time>2026-04-12T10:42:17.235Z</time></trkpt><trkpt lat="43.9334667" lon="12.7533767"><ele>85.5</ele><time>2026-04-12T10:42:18.234Z</time></trkpt><trkpt lat="43.9333233" lon="12.7534033"><ele>87.0</ele><time>2026-04-12T10:42:19.234Z</time></trkpt><trkpt lat="43.933185" lon="12.753435"><ele>88.5</ele><time>2026-04-12T10:42:20.235Z</time></trkpt><trkpt lat="43.9330467" lon="12.7534683"><ele>90.0</ele><time>2026-04-12T10:42:21.235Z</time></trkpt><trkpt lat="43.9329033" lon="12.7535033"><ele>90.0</ele><time>2026-04-12T10:42:22.235Z</time></trkpt><trkpt lat="43.932765" lon="12.753525"><ele>90.0</ele><time>2026-04-12T10:42:23.235Z</time></trkpt><trkpt lat="43.9326317" lon="12.75356"><ele>90.0</ele><time>2026-04-12T10:42:24.234Z</time></trkpt><trkpt lat="43.9325017" lon="12.7536"><ele>90.0</ele><time>2026-04-12T10:42:25.234Z</time></trkpt><trkpt lat="43.9323833" lon="12.753635"><ele>89.75</ele><time>2026-04-12T10:42:26.235Z</time></trkpt><trkpt lat="43.9322683" lon="12.7536583"><ele>89.5</ele><time>2026-04-12T10:42:27.234Z</time></trkpt><trkpt lat="43.9321517" lon="12.7536917"><ele>89.25</ele><time>2026-04-12T10:42:28.235Z</time></trkpt><trkpt lat="43.9320217" lon="12.7537183"><ele>89.0</ele><time>2026-04-12T10:42:29.235Z</time></trkpt><trkpt lat="43.931885" lon="12.7537367"><ele>89.0</ele><time>2026-04-12T10:42:30.235Z</time></trkpt><trkpt lat="43.931735" lon="12.7537967"><ele>89.0</ele><time>2026-04-12T10:42:31.234Z</time></trkpt><trkpt lat="43.9315883" lon="12.7538617"><ele>89.0</ele><time>2026-04-12T10:42:32.235Z</time></trkpt><trkpt lat="43.9314283" lon="12.753925"><ele>91.33333333333334</ele><time>2026-04-12T10:42:33.234Z</time></trkpt><trkpt lat="43.93127" lon="12.753985"><ele>93.66666666666667</ele><time>2026-04-12T10:42:34.235Z</time></trkpt><trkpt lat="43.931115" lon="12.7540517"><ele>96.0</ele><time>2026-04-12T10:42:35.235Z</time></trkpt><trkpt lat="43.9309667" lon="12.7541133"><ele>97.33333333333334</ele><time>2026-04-12T10:42:36.234Z</time></trkpt><trkpt lat="43.9308183" lon="12.7541817"><ele>98.66666666666667</ele><time>2026-04-12T10:42:37.234Z</time></trkpt><trkpt lat="43.9306567" lon="12.75425"><ele>100.0</ele><time>2026-04-12T10:42:38.235Z</time></trkpt><trkpt lat="43.9305033" lon="12.7543067"><ele>100.0</ele><time>2026-04-12T10:42:39.235Z</time></trkpt><trkpt lat="43.930355" lon="12.7543633"><ele>100.0</ele><time>2026-04-12T10:42:40.234Z</time></trkpt><trkpt lat="43.93021" lon="12.7544233"><ele>100.0</ele><time>2026-04-12T10:42:41.235Z</time></trkpt><trkpt lat="43.9300683" lon="12.7544783"><ele>101.5</ele><time>2026-04-12T10:42:42.234Z</time></trkpt><trkpt lat="43.9299283" lon="12.7545367"><ele>103.0</ele><time>2026-04-12T10:42:43.235Z</time></trkpt><trkpt lat="43.9298033" lon="12.7545967"><ele>104.5</ele><time>2026-04-12T10:42:44.235Z</time></trkpt><trkpt lat="43.9296833" lon="12.7546433"><ele>106.0</ele><time>2026-04-12T10:42:45.235Z</time></trkpt><trkpt lat="43.9295683" lon="12.7546917"><ele>106.0</ele><time>2026-04-12T10:42:46.235Z</time></trkpt><trkpt lat="43.9294667" lon="12.754745"><ele>106.0</ele><time>2026-04-12T10:42:47.235Z</time></trkpt><trkpt lat="43.9293567" lon="12.7548"><ele>106.0</ele><time>2026-04-12T10:42:48.235Z</time></trkpt><trkpt lat="43.9292433" lon="12.754845"><ele>106.0</ele><time>2026-04-12T10:42:49.235Z</time></trkpt><trkpt lat="43.9291083" lon="12.7549"><ele>106.0</ele><time>2026-04-12T10:42:50.235Z</time></trkpt><trkpt lat="43.9289667" lon="12.75495"><ele>106.0</ele><time>2026-04-12T10:42:51.235Z</time></trkpt><trkpt lat="43.9288117" lon="12.7550133"><ele>106.0</ele><time>2026-04-12T10:42:52.235Z</time></trkpt><trkpt lat="43.9286517" lon="12.75507"><ele>106.0</ele><time>2026-04-12T10:42:53.234Z</time></trkpt><trkpt lat="43.9284867" lon="12.755125"><ele>106.0</ele><time>2026-04-12T10:42:54.235Z</time></trkpt><trkpt lat="43.928325" lon="12.7551783"><ele>106.0</ele><time>2026-04-12T10:42:55.234Z</time></trkpt><trkpt lat="43.9281667" lon="12.7552233"><ele>102.66666666666667</ele><time>2026-04-12T10:42:56.234Z</time></trkpt><trkpt lat="43.9280117" lon="12.7552667"><ele>99.33333333333334</ele><time>2026-04-12T10:42:57.235Z</time></trkpt><trkpt lat="43.9278583" lon="12.75531"><ele>96.0</ele><time>2026-04-12T10:42:58.234Z</time></trkpt><trkpt lat="43.9277133" lon="12.7553533"><ele>96.0</ele><time>2026-04-12T10:42:59.235Z</time></trkpt><trkpt lat="43.9275617" lon="12.7553983"><ele>96.0</ele><time>2026-04-12T10:43:00.235Z</time></trkpt><trkpt lat="43.9274183" lon="12.7554483"><ele>96.0</ele><time>2026-04-12T10:43:01.235Z</time></trkpt><trkpt lat="43.92729" lon="12.7555017"><ele>96.0</ele><time>2026-04-12T10:43:02.235Z</time></trkpt><trkpt lat="43.9271783" lon="12.755555"><ele>97.6</ele><time>2026-04-12T10:43:03.235Z</time></trkpt><trkpt lat="43.9270833" lon="12.7556017"><ele>99.19999999999999</ele><time>2026-04-12T10:43:04.235Z</time></trkpt><trkpt lat="43.9269967" lon="12.7556433"><ele>100.80000000000001</ele><time>2026-04-12T10:43:05.235Z</time></trkpt><trkpt lat="43.926915" lon="12.7556967"><ele>102.4</ele><time>2026-04-12T10:43:06.235Z</time></trkpt><trkpt lat="43.9268133" lon="12.75576"><ele>104.0</ele><time>2026-04-12T10:43:07.234Z</time></trkpt><trkpt lat="43.9267117" lon="12.7558183"><ele>105.25</ele><time>2026-04-12T10:43:08.235Z</time></trkpt><trkpt lat="43.9266017" lon="12.755905"><ele>106.5</ele><time>2026-04-12T10:43:09.235Z</time></trkpt><trkpt lat="43.9264867" lon="12.7559533"><ele>107.75</ele><time>2026-04-12T10:43:10.235Z</time></trkpt><trkpt lat="43.9263583" lon="12.755975"><ele>109.0</ele><time>2026-04-12T10:43:11.234Z</time></trkpt><trkpt lat="43.9262233" lon="12.7559983"><ele>109.0</ele><time>2026-04-12T10:43:12.234Z</time></trkpt><trkpt lat="43.9260767" lon="12.7560067"><ele>109.0</ele><time>2026-04-12T10:43:13.235Z</time></trkpt><trkpt lat="43.9259267" lon="12.756015"><ele>109.0</ele><time>2026-04-12T10:43:14.234Z</time></trkpt><trkpt lat="43.925775" lon="12.7560167"><ele>109.0</ele><time>2026-04-12T10:43:15.234Z</time></trkpt><trkpt lat="43.9256367" lon="12.756015"><ele>107.5</ele><time>2026-04-12T10:43:16.235Z</time></trkpt><trkpt lat="43.925505" lon="12.755995"><ele>106.0</ele><time>2026-04-12T10:43:17.234Z</time></trkpt><trkpt lat="43.9253817" lon="12.755965"><ele>104.5</ele><time>2026-04-12T10:43:18.234Z</time></trkpt><trkpt lat="43.9252567" lon="12.755955"><ele>103.0</ele><time>2026-04-12T10:43:19.234Z</time></trkpt><trkpt lat="43.9251433" lon="12.75594"><ele>102.75</ele><time>2026-04-12T10:43:20.233Z</time></trkpt><trkpt lat="43.92501" lon="12.7559467"><ele>102.5</ele><time>2026-04-12T10:43:21.234Z</time></trkpt><trkpt lat="43.924885" lon="12.755975"><ele>102.25</ele><time>2026-04-12T10:43:22.234Z</time></trkpt><trkpt lat="43.924765" lon="12.7560183"><ele>102.0</ele><time>2026-04-12T10:43:23.234Z</time></trkpt><trkpt lat="43.9246467" lon="12.7560717"><ele>101.39999999999999</ele><time>2026-04-12T10:43:24.234Z</time></trkpt><trkpt lat="43.92455" lon="12.7561383"><ele>100.8</ele><time>2026-04-12T10:43:25.233Z</time></trkpt><trkpt lat="43.9244517" lon="12.7562167"><ele>100.2</ele><time>2026-04-12T10:43:26.234Z</time></trkpt><trkpt lat="43.924355" lon="12.756295"><ele>99.6</ele><time>2026-04-12T10:43:27.233Z</time></trkpt><trkpt lat="43.9242617" lon="12.7563817"><ele>99.0</ele><time>2026-04-12T10:43:28.234Z</time></trkpt><trkpt lat="43.9241617" lon="12.7564567"><ele>99.0</ele><time>2026-04-12T10:43:29.233Z</time></trkpt><trkpt lat="43.9240533" lon="12.7565317"><ele>99.0</ele><time>2026-04-12T10:43:30.234Z</time></trkpt><trkpt lat="43.92395" lon="12.7566183"><ele>99.0</ele><time>2026-04-12T10:43:31.234Z</time></trkpt><trkpt lat="43.9238633" lon="12.75671"><ele>99.0</ele><time>2026-04-12T10:43:32.233Z</time></trkpt><trkpt lat="43.92378" lon="12.7568233"><ele>97.5</ele><time>2026-04-12T10:43:33.234Z</time></trkpt><trkpt lat="43.92371" lon="12.7569667"><ele>96.0</ele><time>2026-04-12T10:43:34.234Z</time></trkpt><trkpt lat="43.92363" lon="12.7571"><ele>94.5</ele><time>2026-04-12T10:43:35.234Z</time></trkpt><trkpt lat="43.9235583" lon="12.7572383"><ele>93.0</ele><time>2026-04-12T10:43:36.234Z</time></trkpt><trkpt lat="43.923475" lon="12.757375"><ele>94.25</ele><time>2026-04-12T10:43:37.233Z</time></trkpt><trkpt lat="43.9233883" lon="12.7575033"><ele>95.5</ele><time>2026-04-12T10:43:38.234Z</time></trkpt><trkpt lat="43.923305" lon="12.7576267"><ele>96.75</ele><time>2026-04-12T10:43:39.234Z</time></trkpt><trkpt lat="43.923235" lon="12.7577517"><ele>98.0</ele><time>2026-04-12T10:43:40.234Z</time></trkpt><trkpt lat="43.9231683" lon="12.75788"><ele>98.5</ele><time>2026-04-12T10:43:41.233Z</time></trkpt><trkpt lat="43.923105" lon="12.7580083"><ele>99.0</ele><time>2026-04-12T10:43:42.234Z</time></trkpt><trkpt lat="43.9230433" lon="12.758145"><ele>99.5</ele><time>2026-04-12T10:43:43.234Z</time></trkpt><trkpt lat="43.9229817" lon="12.758295"><ele>100.0</ele><time>2026-04-12T10:43:44.234Z</time></trkpt><trkpt lat="43.9229267" lon="12.7584483"><ele>99.6</ele><time>2026-04-12T10:43:45.234Z</time></trkpt><trkpt lat="43.922875" lon="12.7585933"><ele>99.2</ele><time>2026-04-12T10:43:46.233Z</time></trkpt><trkpt lat="43.922815" lon="12.7587233"><ele>98.80000000000001</ele><time>2026-04-12T10:43:47.234Z</time></trkpt><trkpt lat="43.9227567" lon="12.75884"><ele>98.4</ele><time>2026-04-12T10:43:48.234Z</time></trkpt><trkpt lat="43.9226917" lon="12.7589417"><ele>98.0</ele><time>2026-04-12T10:43:49.233Z</time></trkpt><trkpt lat="43.9226233" lon="12.75904"><ele>100.2</ele><time>2026-04-12T10:43:50.234Z</time></trkpt><trkpt lat="43.9225617" lon="12.75914"><ele>102.4</ele><time>2026-04-12T10:43:51.234Z</time></trkpt><trkpt lat="43.92251" lon="12.7592417"><ele>104.60000000000001</ele><time>2026-04-12T10:43:52.234Z</time></trkpt><trkpt lat="43.9224783" lon="12.75935"><ele>106.80000000000001</ele><time>2026-04-12T10:43:53.234Z</time></trkpt><trkpt lat="43.9224917" lon="12.7594717"><ele>109.0</ele><time>2026-04-12T10:43:54.234Z</time></trkpt><trkpt lat="43.9225317" lon="12.7595933"><ele>108.33333333333334</ele><time>2026-04-12T10:43:55.234Z</time></trkpt><trkpt lat="43.9225917" lon="12.759705"><ele>107.66666666666667</ele><time>2026-04-12T10:43:56.234Z</time></trkpt><trkpt lat="43.92265" lon="12.759805"><ele>107.0</ele><time>2026-04-12T10:43:57.234Z</time></trkpt><trkpt lat="43.922685" lon="12.759915"><ele>106.33333333333334</ele><time>2026-04-12T10:43:58.234Z</time></trkpt><trkpt lat="43.922705" lon="12.7600233"><ele>105.66666666666667</ele><time>2026-04-12T10:43:59.233Z</time></trkpt><trkpt lat="43.9226833" lon="12.76013"><ele>105.0</ele><time>2026-04-12T10:44:00.234Z</time></trkpt><trkpt lat="43.92264" lon="12.760215"><ele>105.0</ele><time>2026-04-12T10:44:01.234Z</time></trkpt><trkpt lat="43.9225683" lon="12.76029"><ele>105.0</ele><time>2026-04-12T10:44:02.234Z</time></trkpt><trkpt lat="43.9224817" lon="12.7603633"><ele>105.0</ele><time>2026-04-12T10:44:03.233Z</time></trkpt><trkpt lat="43.9223817" lon="12.760445"><ele>105.0</ele><time>2026-04-12T10:44:04.234Z</time></trkpt><trkpt lat="43.92227" lon="12.7605333"><ele>105.0</ele><time>2026-04-12T10:44:05.234Z</time></trkpt><trkpt lat="43.9221683" lon="12.76062"><ele>107.75</ele><time>2026-04-12T10:44:06.234Z</time></trkpt><trkpt lat="43.9220717" lon="12.7607067"><ele>110.5</ele><time>2026-04-12T10:44:07.234Z</time></trkpt><trkpt lat="43.921975" lon="12.76077"><ele>113.25</ele><time>2026-04-12T10:44:08.234Z</time></trkpt><trkpt lat="43.9218667" lon="12.760845"><ele>116.0</ele><time>2026-04-12T10:44:09.234Z</time></trkpt><trkpt lat="43.921755" lon="12.76092"><ele>116.75</ele><time>2026-04-12T10:44:10.234Z</time></trkpt><trkpt lat="43.9216517" lon="12.76101"><ele>117.5</ele><time>2026-04-12T10:44:11.234Z</time></trkpt><trkpt lat="43.9215567" lon="12.76113"><ele>118.25</ele><time>2026-04-12T10:44:12.234Z</time></trkpt><trkpt lat="43.9214767" lon="12.7612633"><ele>119.0</ele><time>2026-04-12T10:44:13.234Z</time></trkpt><trkpt lat="43.9214117" lon="12.761415"><ele>117.5</ele><time>2026-04-12T10:44:14.234Z</time></trkpt><trkpt lat="43.9213433" lon="12.7615617"><ele>116.0</ele><time>2026-04-12T10:44:15.234Z</time></trkpt><trkpt lat="43.9212683" lon="12.7617067"><ele>114.5</ele><time>2026-04-12T10:44:16.234Z</time></trkpt><trkpt lat="43.92119" lon="12.7618367"><ele>113.0</ele><time>2026-04-12T10:44:17.234Z</time></trkpt><trkpt lat="43.9211133" lon="12.7619683"><ele>113.0</ele><time>2026-04-12T10:44:18.233Z</time></trkpt><trkpt lat="43.9210367" lon="12.7620817"><ele>113.00000000000001</ele><time>2026-04-12T10:44:19.234Z</time></trkpt><trkpt lat="43.9209617" lon="12.7621983"><ele>113.00000000000001</ele><time>2026-04-12T10:44:20.234Z</time></trkpt><trkpt lat="43.9208883" lon="12.7622983"><ele>113.0</ele><time>2026-04-12T10:44:21.233Z</time></trkpt><trkpt lat="43.9208317" lon="12.7623817"><ele>113.0</ele><time>2026-04-12T10:44:22.234Z</time></trkpt><trkpt lat="43.9207783" lon="12.762455"><ele>114.2</ele><time>2026-04-12T10:44:23.234Z</time></trkpt><trkpt lat="43.9207267" lon="12.7625633"><ele>115.4</ele><time>2026-04-12T10:44:25.234Z</time></trkpt><trkpt lat="43.9207417" lon="12.762655"><ele>116.60000000000001</ele><time>2026-04-12T10:44:27.234Z</time></trkpt><trkpt lat="43.9208583" lon="12.762735"><ele>117.80000000000001</ele><time>2026-04-12T10:44:29.234Z</time></trkpt><trkpt lat="43.92093" lon="12.7627783"><ele>119.0</ele><time>2026-04-12T10:44:30.234Z</time></trkpt><trkpt lat="43.921005" lon="12.7628383"><ele>119.0</ele><time>2026-04-12T10:44:31.234Z</time></trkpt><trkpt lat="43.921085" lon="12.7629167"><ele>119.0</ele><time>2026-04-12T10:44:32.234Z</time></trkpt><trkpt lat="43.92117" lon="12.7630083"><ele>119.0</ele><time>2026-04-12T10:44:33.234Z</time></trkpt><trkpt lat="43.9212617" lon="12.763115"><ele>119.0</ele><time>2026-04-12T10:44:34.234Z</time></trkpt><trkpt lat="43.92137" lon="12.7632217"><ele>119.0</ele><time>2026-04-12T10:44:35.234Z</time></trkpt><trkpt lat="43.9214683" lon="12.763345"><ele>119.0</ele><time>2026-04-12T10:44:36.234Z</time></trkpt><trkpt lat="43.92156" lon="12.7634667"><ele>119.0</ele><time>2026-04-12T10:44:37.234Z</time></trkpt><trkpt lat="43.92165" lon="12.7636117"><ele>119.0</ele><time>2026-04-12T10:44:38.234Z</time></trkpt><trkpt lat="43.9217283" lon="12.7637767"><ele>114.66666666666666</ele><time>2026-04-12T10:44:39.234Z</time></trkpt><trkpt lat="43.9217883" lon="12.7639633"><ele>110.33333333333334</ele><time>2026-04-12T10:44:40.234Z</time></trkpt><trkpt lat="43.9218383" lon="12.76416"><ele>106.0</ele><time>2026-04-12T10:44:41.234Z</time></trkpt><trkpt lat="43.9218783" lon="12.764365"><ele>106.0</ele><time>2026-04-12T10:44:42.233Z</time></trkpt><trkpt lat="43.9219183" lon="12.76456"><ele>106.0</ele><time>2026-04-12T10:44:43.234Z</time></trkpt><trkpt lat="43.9219633" lon="12.7647467"><ele>106.0</ele><time>2026-04-12T10:44:44.234Z</time></trkpt><trkpt lat="43.9220317" lon="12.7649217"><ele>106.0</ele><time>2026-04-12T10:44:45.234Z</time></trkpt><trkpt lat="43.922125" lon="12.765075"><ele>107.33333333333334</ele><time>2026-04-12T10:44:46.234Z</time></trkpt><trkpt lat="43.9222367" lon="12.765215"><ele>108.66666666666666</ele><time>2026-04-12T10:44:47.234Z</time></trkpt><trkpt lat="43.9223533" lon="12.7653517"><ele>110.0</ele><time>2026-04-12T10:44:48.234Z</time></trkpt><trkpt lat="43.922475" lon="12.765475"><ele>109.66666666666666</ele><time>2026-04-12T10:44:49.234Z</time></trkpt><trkpt lat="43.9226033" lon="12.7655967"><ele>109.33333333333334</ele><time>2026-04-12T10:44:50.234Z</time></trkpt><trkpt lat="43.92272" lon="12.7657217"><ele>109.0</ele><time>2026-04-12T10:44:51.234Z</time></trkpt><trkpt lat="43.922845" lon="12.7658433"><ele>109.0</ele><time>2026-04-12T10:44:52.234Z</time></trkpt><trkpt lat="43.9229583" lon="12.7659617"><ele>109.0</ele><time>2026-04-12T10:44:53.234Z</time></trkpt><trkpt lat="43.92307" lon="12.7660833"><ele>109.0</ele><time>2026-04-12T10:44:54.233Z</time></trkpt><trkpt lat="43.9231767" lon="12.7662067"><ele>109.0</ele><time>2026-04-12T10:44:55.234Z</time></trkpt><trkpt lat="43.9232767" lon="12.7663267"><ele>109.25</ele><time>2026-04-12T10:44:56.233Z</time></trkpt><trkpt lat="43.92338" lon="12.76644"><ele>109.5</ele><time>2026-04-12T10:44:57.234Z</time></trkpt><trkpt lat="43.923495" lon="12.7665433"><ele>109.75</ele><time>2026-04-12T10:44:58.233Z</time></trkpt><trkpt lat="43.923615" lon="12.7666483"><ele>110.0</ele><time>2026-04-12T10:44:59.234Z</time></trkpt><trkpt lat="43.92373" lon="12.7667483"><ele>110.5</ele><time>2026-04-12T10:45:00.233Z</time></trkpt><trkpt lat="43.92385" lon="12.7668433"><ele>111.0</ele><time>2026-04-12T10:45:01.234Z</time></trkpt><trkpt lat="43.9239717" lon="12.7669333"><ele>111.5</ele><time>2026-04-12T10:45:02.234Z</time></trkpt><trkpt lat="43.924095" lon="12.7670217"><ele>112.0</ele><time>2026-04-12T10:45:03.234Z</time></trkpt><trkpt lat="43.9242067" lon="12.7671133"><ele>112.25</ele><time>2026-04-12T10:45:04.234Z</time></trkpt><trkpt lat="43.9243317" lon="12.7671933"><ele>112.5</ele><time>2026-04-12T10:45:05.233Z</time></trkpt><trkpt lat="43.92445" lon="12.7672867"><ele>112.75</ele><time>2026-04-12T10:45:06.234Z</time></trkpt><trkpt lat="43.9245767" lon="12.7673817"><ele>113.0</ele><time>2026-04-12T10:45:07.234Z</time></trkpt><trkpt lat="43.9246867" lon="12.7674767"><ele>113.0</ele><time>2026-04-12T10:45:08.234Z</time></trkpt><trkpt lat="43.9248" lon="12.767585"><ele>113.0</ele><time>2026-04-12T10:45:09.234Z</time></trkpt><trkpt lat="43.9249167" lon="12.76771"><ele>113.0</ele><time>2026-04-12T10:45:10.233Z</time></trkpt><trkpt lat="43.9250233" lon="12.7678133"><ele>113.0</ele><time>2026-04-12T10:45:11.233Z</time></trkpt><trkpt lat="43.9251367" lon="12.7679267"><ele>111.5</ele><time>2026-04-12T10:45:12.233Z</time></trkpt><trkpt lat="43.9252467" lon="12.768035"><ele>110.0</ele><time>2026-04-12T10:45:13.234Z</time></trkpt><trkpt lat="43.925355" lon="12.768155"><ele>108.5</ele><time>2026-04-12T10:45:14.233Z</time></trkpt><trkpt lat="43.925475" lon="12.7682617"><ele>107.0</ele><time>2026-04-12T10:45:15.234Z</time></trkpt><trkpt lat="43.9255933" lon="12.7683717"><ele>107.0</ele><time>2026-04-12T10:45:16.233Z</time></trkpt><trkpt lat="43.9257117" lon="12.768475"><ele>107.0</ele><time>2026-04-12T10:45:17.233Z</time></trkpt><trkpt lat="43.92584" lon="12.76856"><ele>107.0</ele><time>2026-04-12T10:45:18.234Z</time></trkpt><trkpt lat="43.92597" lon="12.7686233"><ele>107.0</ele><time>2026-04-12T10:45:19.234Z</time></trkpt><trkpt lat="43.9260967" lon="12.7686667"><ele>107.75</ele><time>2026-04-12T10:45:20.234Z</time></trkpt><trkpt lat="43.926225" lon="12.7686883"><ele>108.5</ele><time>2026-04-12T10:45:21.234Z</time></trkpt><trkpt lat="43.9263633" lon="12.7686883"><ele>109.25</ele><time>2026-04-12T10:45:22.233Z</time></trkpt><trkpt lat="43.9265" lon="12.768695"><ele>110.0</ele><time>2026-04-12T10:45:23.234Z</time></trkpt><trkpt lat="43.9266333" lon="12.7687083"><ele>108.5</ele><time>2026-04-12T10:45:24.234Z</time></trkpt><trkpt lat="43.926775" lon="12.7687367"><ele>107.0</ele><time>2026-04-12T10:45:25.234Z</time></trkpt><trkpt lat="43.9269083" lon="12.7687983"><ele>105.5</ele><time>2026-04-12T10:45:26.234Z</time></trkpt><trkpt lat="43.927035" lon="12.768875"><ele>104.0</ele><time>2026-04-12T10:45:27.234Z</time></trkpt><trkpt lat="43.9271633" lon="12.76895"><ele>104.0</ele><time>2026-04-12T10:45:28.234Z</time></trkpt><trkpt lat="43.9272867" lon="12.7690383"><ele>104.0</ele><time>2026-04-12T10:45:29.234Z</time></trkpt><trkpt lat="43.9274117" lon="12.7691183"><ele>104.0</ele><time>2026-04-12T10:45:30.234Z</time></trkpt><trkpt lat="43.9275367" lon="12.7692083"><ele>104.0</ele><time>2026-04-12T10:45:31.234Z</time></trkpt><trkpt lat="43.9276567" lon="12.7693017"><ele>103.0</ele><time>2026-04-12T10:45:32.234Z</time></trkpt><trkpt lat="43.9277717" lon="12.76938"><ele>102.0</ele><time>2026-04-12T10:45:33.234Z</time></trkpt><trkpt lat="43.9279" lon="12.769455"><ele>101.0</ele><time>2026-04-12T10:45:34.234Z</time></trkpt><trkpt lat="43.9280233" lon="12.7695233"><ele>100.0</ele><time>2026-04-12T10:45:35.234Z</time></trkpt><trkpt lat="43.928145" lon="12.7696"><ele>100.0</ele><time>2026-04-12T10:45:36.233Z</time></trkpt><trkpt lat="43.9282667" lon="12.769665"><ele>100.0</ele><time>2026-04-12T10:45:37.234Z</time></trkpt><trkpt lat="43.9283933" lon="12.7697283"><ele>100.0</ele><time>2026-04-12T10:45:38.234Z</time></trkpt><trkpt lat="43.92852" lon="12.7697717"><ele>100.0</ele><time>2026-04-12T10:45:39.233Z</time></trkpt><trkpt lat="43.92865" lon="12.769795"><ele>99.75</ele><time>2026-04-12T10:45:40.234Z</time></trkpt><trkpt lat="43.9287883" lon="12.769805"><ele>99.5</ele><time>2026-04-12T10:45:41.233Z</time></trkpt><trkpt lat="43.9289183" lon="12.7698067"><ele>99.25</ele><time>2026-04-12T10:45:42.234Z</time></trkpt><trkpt lat="43.9290617" lon="12.7698067"><ele>99.0</ele><time>2026-04-12T10:45:43.234Z</time></trkpt><trkpt lat="43.9292067" lon="12.769805"><ele>97.0</ele><time>2026-04-12T10:45:44.234Z</time></trkpt><trkpt lat="43.929345" lon="12.7697983"><ele>95.0</ele><time>2026-04-12T10:45:45.234Z</time></trkpt><trkpt lat="43.9294833" lon="12.769795"><ele>93.0</ele><time>2026-04-12T10:45:46.234Z</time></trkpt><trkpt lat="43.929635" lon="12.7697983"><ele>91.0</ele><time>2026-04-12T10:45:47.234Z</time></trkpt><trkpt lat="43.9297767" lon="12.7698"><ele>91.0</ele><time>2026-04-12T10:45:48.234Z</time></trkpt><trkpt lat="43.9299217" lon="12.769795"><ele>91.0</ele><time>2026-04-12T10:45:49.234Z</time></trkpt><trkpt lat="43.9300633" lon="12.7697883"><ele>91.0</ele><time>2026-04-12T10:45:50.234Z</time></trkpt><trkpt lat="43.9302067" lon="12.7697817"><ele>91.0</ele><time>2026-04-12T10:45:51.234Z</time></trkpt><trkpt lat="43.9303583" lon="12.76979"><ele>90.33333333333333</ele><time>2026-04-12T10:45:52.234Z</time></trkpt><trkpt lat="43.9305067" lon="12.7697933"><ele>89.66666666666667</ele><time>2026-04-12T10:45:53.234Z</time></trkpt><trkpt lat="43.930665" lon="12.7697783"><ele>89.0</ele><time>2026-04-12T10:45:54.234Z</time></trkpt><trkpt lat="43.930815" lon="12.7697683"><ele>89.0</ele><time>2026-04-12T10:45:55.234Z</time></trkpt><trkpt lat="43.9309633" lon="12.7697667"><ele>89.0</ele><time>2026-04-12T10:45:56.234Z</time></trkpt><trkpt lat="43.9311183" lon="12.76977"><ele>89.0</ele><time>2026-04-12T10:45:57.233Z</time></trkpt><trkpt lat="43.93127" lon="12.7697717"><ele>89.0</ele><time>2026-04-12T10:45:58.234Z</time></trkpt><trkpt lat="43.9314217" lon="12.7697683"><ele>89.0</ele><time>2026-04-12T10:45:59.234Z</time></trkpt><trkpt lat="43.9315783" lon="12.76976"><ele>89.0</ele><time>2026-04-12T10:46:00.234Z</time></trkpt><trkpt lat="43.931735" lon="12.769755"><ele>86.66666666666667</ele><time>2026-04-12T10:46:01.233Z</time></trkpt><trkpt lat="43.9318933" lon="12.76976"><ele>84.33333333333333</ele><time>2026-04-12T10:46:02.233Z</time></trkpt><trkpt lat="43.932045" lon="12.7697617"><ele>82.0</ele><time>2026-04-12T10:46:03.234Z</time></trkpt><trkpt lat="43.932195" lon="12.7697617"><ele>82.0</ele><time>2026-04-12T10:46:04.234Z</time></trkpt><trkpt lat="43.9323367" lon="12.7697667"><ele>82.0</ele><time>2026-04-12T10:46:05.233Z</time></trkpt><trkpt lat="43.9324817" lon="12.7697733"><ele>82.0</ele><time>2026-04-12T10:46:06.234Z</time></trkpt><trkpt lat="43.9326133" lon="12.7697933"><ele>82.0</ele><time>2026-04-12T10:46:07.233Z</time></trkpt><trkpt lat="43.9327433" lon="12.76981"><ele>81.6</ele><time>2026-04-12T10:46:08.234Z</time></trkpt><trkpt lat="43.9328633" lon="12.76983"><ele>81.19999999999999</ele><time>2026-04-12T10:46:09.234Z</time></trkpt><trkpt lat="43.9329683" lon="12.76984"><ele>80.8</ele><time>2026-04-12T10:46:10.234Z</time></trkpt><trkpt lat="43.933065" lon="12.7698367"><ele>80.4</ele><time>2026-04-12T10:46:11.233Z</time></trkpt><trkpt lat="43.9331483" lon="12.7698233"><ele>80.0</ele><time>2026-04-12T10:46:12.234Z</time></trkpt><trkpt lat="43.9332267" lon="12.7698067"><ele>80.0</ele><time>2026-04-12T10:46:13.233Z</time></trkpt><trkpt lat="43.9333" lon="12.7698083"><ele>80.0</ele><time>2026-04-12T10:46:14.234Z</time></trkpt><trkpt lat="43.933375" lon="12.7698467"><ele>80.0</ele><time>2026-04-12T10:46:15.234Z</time></trkpt><trkpt lat="43.9334617" lon="12.769885"><ele>80.0</ele><time>2026-04-12T10:46:16.233Z</time></trkpt><trkpt lat="43.9335583" lon="12.7699217"><ele>80.0</ele><time>2026-04-12T10:46:17.233Z</time></trkpt><trkpt lat="43.93366" lon="12.769955"><ele>80.0</ele><time>2026-04-12T10:46:18.234Z</time></trkpt><trkpt lat="43.9337833" lon="12.7699767"><ele>78.75</ele><time>2026-04-12T10:46:19.233Z</time></trkpt><trkpt lat="43.9339117" lon="12.7699867"><ele>77.5</ele><time>2026-04-12T10:46:20.234Z</time></trkpt><trkpt lat="43.9340433" lon="12.7700017"><ele>76.25</ele><time>2026-04-12T10:46:21.234Z</time></trkpt><trkpt lat="43.93418" lon="12.77003"><ele>75.0</ele><time>2026-04-12T10:46:22.234Z</time></trkpt><trkpt lat="43.9343133" lon="12.7700533"><ele>73.75</ele><time>2026-04-12T10:46:23.234Z</time></trkpt><trkpt lat="43.934455" lon="12.7700817"><ele>72.5</ele><time>2026-04-12T10:46:24.234Z</time></trkpt><trkpt lat="43.9345833" lon="12.7701233"><ele>71.25</ele><time>2026-04-12T10:46:25.234Z</time></trkpt><trkpt lat="43.9347117" lon="12.7701717"><ele>70.0</ele><time>2026-04-12T10:46:26.234Z</time></trkpt><trkpt lat="43.9348383" lon="12.7702283"><ele>68.5</ele><time>2026-04-12T10:46:27.234Z</time></trkpt><trkpt lat="43.9349717" lon="12.7702867"><ele>67.0</ele><time>2026-04-12T10:46:28.234Z</time></trkpt><trkpt lat="43.9351067" lon="12.77034"><ele>65.5</ele><time>2026-04-12T10:46:29.233Z</time></trkpt><trkpt lat="43.9352333" lon="12.7704033"><ele>64.0</ele><time>2026-04-12T10:46:30.233Z</time></trkpt><trkpt lat="43.93536" lon="12.7704633"><ele>64.0</ele><time>2026-04-12T10:46:31.233Z</time></trkpt><trkpt lat="43.9354883" lon="12.77051"><ele>64.0</ele><time>2026-04-12T10:46:32.234Z</time></trkpt><trkpt lat="43.9356033" lon="12.770575"><ele>64.0</ele><time>2026-04-12T10:46:33.233Z</time></trkpt><trkpt lat="43.9357183" lon="12.7706283"><ele>64.0</ele><time>2026-04-12T10:46:34.233Z</time></trkpt><trkpt lat="43.9358283" lon="12.7706767"><ele>63.83333333333333</ele><time>2026-04-12T10:46:35.234Z</time></trkpt><trkpt lat="43.935925" lon="12.77073"><ele>63.666666666666664</ele><time>2026-04-12T10:46:36.234Z</time></trkpt><trkpt lat="43.936005" lon="12.7707767"><ele>63.5</ele><time>2026-04-12T10:46:37.234Z</time></trkpt><trkpt lat="43.936085" lon="12.770825"><ele>63.33333333333333</ele><time>2026-04-12T10:46:38.234Z</time></trkpt><trkpt lat="43.93615" lon="12.7708783"><ele>63.166666666666664</ele><time>2026-04-12T10:46:39.233Z</time></trkpt><trkpt lat="43.93621" lon="12.7709267"><ele>63.0</ele><time>2026-04-12T10:46:40.234Z</time></trkpt><trkpt lat="43.9362683" lon="12.7709767"><ele>63.0</ele><time>2026-04-12T10:46:41.234Z</time></trkpt><trkpt lat="43.9363267" lon="12.7710117"><ele>63.0</ele><time>2026-04-12T10:46:42.233Z</time></trkpt><trkpt lat="43.9363917" lon="12.77103"><ele>63.0</ele><time>2026-04-12T10:46:43.234Z</time></trkpt><trkpt lat="43.936525" lon="12.7710133"><ele>63.0</ele><time>2026-04-12T10:46:45.233Z</time></trkpt><trkpt lat="43.9366083" lon="12.77101"><ele>63.0</ele><time>2026-04-12T10:46:46.233Z</time></trkpt><trkpt lat="43.9367017" lon="12.7710233"><ele>63.0</ele><time>2026-04-12T10:46:47.234Z</time></trkpt><trkpt lat="43.9367967" lon="12.771055"><ele>62.8</ele><time>2026-04-12T10:46:48.233Z</time></trkpt><trkpt lat="43.9368967" lon="12.7710983"><ele>62.599999999999994</ele><time>2026-04-12T10:46:49.234Z</time></trkpt><trkpt lat="43.937005" lon="12.7711367"><ele>62.400000000000006</ele><time>2026-04-12T10:46:50.233Z</time></trkpt><trkpt lat="43.9371167" lon="12.7711567"><ele>62.2</ele><time>2026-04-12T10:46:51.234Z</time></trkpt><trkpt lat="43.9372283" lon="12.7711717"><ele>62.0</ele><time>2026-04-12T10:46:52.233Z</time></trkpt><trkpt lat="43.93734" lon="12.7711667"><ele>62.0</ele><time>2026-04-12T10:46:53.233Z</time></trkpt><trkpt lat="43.9374517" lon="12.7711467"><ele>62.0</ele><time>2026-04-12T10:46:54.234Z</time></trkpt><trkpt lat="43.93756" lon="12.77112"><ele>62.0</ele><time>2026-04-12T10:46:55.233Z</time></trkpt><trkpt lat="43.9376633" lon="12.7710917"><ele>62.0</ele><time>2026-04-12T10:46:56.234Z</time></trkpt><trkpt lat="43.9377633" lon="12.77105"><ele>62.0</ele><time>2026-04-12T10:46:57.234Z</time></trkpt><trkpt lat="43.93787" lon="12.7709983"><ele>63.0</ele><time>2026-04-12T10:46:58.233Z</time></trkpt><trkpt lat="43.9379817" lon="12.770935"><ele>64.0</ele><time>2026-04-12T10:46:59.234Z</time></trkpt><trkpt lat="43.9380867" lon="12.7708617"><ele>65.0</ele><time>2026-04-12T10:47:00.234Z</time></trkpt><trkpt lat="43.9381983" lon="12.7707733"><ele>66.0</ele><time>2026-04-12T10:47:01.234Z</time></trkpt><trkpt lat="43.9383133" lon="12.7706717"><ele>67.25</ele><time>2026-04-12T10:47:02.233Z</time></trkpt><trkpt lat="43.9384167" lon="12.77057"><ele>68.5</ele><time>2026-04-12T10:47:03.234Z</time></trkpt><trkpt lat="43.9385167" lon="12.77046"><ele>69.75</ele><time>2026-04-12T10:47:04.234Z</time></trkpt><trkpt lat="43.9386" lon="12.7703533"><ele>71.0</ele><time>2026-04-12T10:47:05.233Z</time></trkpt><trkpt lat="43.9386767" lon="12.7702417"><ele>70.2</ele><time>2026-04-12T10:47:06.234Z</time></trkpt><trkpt lat="43.9387583" lon="12.7701367"><ele>69.39999999999999</ele><time>2026-04-12T10:47:07.234Z</time></trkpt><trkpt lat="43.9388267" lon="12.7700283"><ele>68.6</ele><time>2026-04-12T10:47:08.234Z</time></trkpt><trkpt lat="43.9388867" lon="12.769915"><ele>67.8</ele><time>2026-04-12T10:47:09.233Z</time></trkpt><trkpt lat="43.9389383" lon="12.7698083"><ele>67.0</ele><time>2026-04-12T10:47:10.234Z</time></trkpt><trkpt lat="43.939" lon="12.7697217"><ele>67.0</ele><time>2026-04-12T10:47:11.234Z</time></trkpt><trkpt lat="43.9390617" lon="12.7696667"><ele>67.0</ele><time>2026-04-12T10:47:12.234Z</time></trkpt><trkpt lat="43.9391317" lon="12.7696617"><ele>67.0</ele><time>2026-04-12T10:47:13.234Z</time></trkpt><trkpt lat="43.9391983" lon="12.76967"><ele>67.0</ele><time>2026-04-12T10:47:14.234Z</time></trkpt><trkpt lat="43.9392583" lon="12.7697183"><ele>67.0</ele><time>2026-04-12T10:47:15.233Z</time></trkpt><trkpt lat="43.9393217" lon="12.7698833"><ele>67.0</ele><time>2026-04-12T10:47:17.234Z</time></trkpt><trkpt lat="43.939335" lon="12.7699867"><ele>67.8</ele><time>2026-04-12T10:47:18.234Z</time></trkpt><trkpt lat="43.9393167" lon="12.7701033"><ele>68.6</ele><time>2026-04-12T10:47:19.234Z</time></trkpt><trkpt lat="43.9392733" lon="12.7702267"><ele>69.39999999999999</ele><time>2026-04-12T10:47:20.234Z</time></trkpt><trkpt lat="43.93924" lon="12.7703467"><ele>70.2</ele><time>2026-04-12T10:47:21.234Z</time></trkpt><trkpt lat="43.9392017" lon="12.7704633"><ele>71.0</ele><time>2026-04-12T10:47:22.234Z</time></trkpt><trkpt lat="43.9391617" lon="12.770575"><ele>71.0</ele><time>2026-04-12T10:47:23.234Z</time></trkpt><trkpt lat="43.9391217" lon="12.77068"><ele>71.0</ele><time>2026-04-12T10:47:24.234Z</time></trkpt><trkpt lat="43.9390767" lon="12.7707733"><ele>71.0</ele><time>2026-04-12T10:47:25.234Z</time></trkpt><trkpt lat="43.9390433" lon="12.7708533"><ele>71.0</ele><time>2026-04-12T10:47:26.234Z</time></trkpt><trkpt lat="43.939" lon="12.7709383"><ele>71.0</ele><time>2026-04-12T10:47:27.234Z</time></trkpt><trkpt lat="43.938945" lon="12.7710467"><ele>71.0</ele><time>2026-04-12T10:47:29.234Z</time></trkpt><trkpt lat="43.93896" lon="12.77116"><ele>71.16666666666667</ele><time>2026-04-12T10:47:32.234Z</time></trkpt><trkpt lat="43.939075" lon="12.771215"><ele>71.33333333333334</ele><time>2026-04-12T10:47:34.233Z</time></trkpt><trkpt lat="43.9391367" lon="12.7712333"><ele>71.5</ele><time>2026-04-12T10:47:35.233Z</time></trkpt><trkpt lat="43.93922" lon="12.7712667"><ele>71.66666666666667</ele><time>2026-04-12T10:47:36.233Z</time></trkpt><trkpt lat="43.9392967" lon="12.7712833"><ele>71.83333333333333</ele><time>2026-04-12T10:47:37.234Z</time></trkpt><trkpt lat="43.9393717" lon="12.7713067"><ele>72.0</ele><time>2026-04-12T10:47:38.234Z</time></trkpt><trkpt lat="43.939495" lon="12.7713233"><ele>74.0</ele><time>2026-04-12T10:47:40.234Z</time></trkpt><trkpt lat="43.9395717" lon="12.7713117"><ele>76.0</ele><time>2026-04-12T10:47:41.234Z</time></trkpt><trkpt lat="43.93968" lon="12.7712367"><ele>78.0</ele><time>2026-04-12T10:47:43.234Z</time></trkpt><trkpt lat="43.9397233" lon="12.771155"><ele>80.0</ele><time>2026-04-12T10:47:44.234Z</time></trkpt><trkpt lat="43.9397517" lon="12.7710333"><ele>82.0</ele><time>2026-04-12T10:47:45.233Z</time></trkpt><trkpt lat="43.9397883" lon="12.7709183"><ele>82.0</ele><time>2026-04-12T10:47:46.234Z</time></trkpt><trkpt lat="43.9398283" lon="12.7707917"><ele>82.0</ele><time>2026-04-12T10:47:47.234Z</time></trkpt><trkpt lat="43.93987" lon="12.770685"><ele>82.0</ele><time>2026-04-12T10:47:48.233Z</time></trkpt><trkpt lat="43.939915" lon="12.7705917"><ele>82.0</ele><time>2026-04-12T10:47:49.233Z</time></trkpt><trkpt lat="43.939955" lon="12.7705067"><ele>82.0</ele><time>2026-04-12T10:47:50.234Z</time></trkpt><trkpt lat="43.94004" lon="12.7703917"><ele>82.0</ele><time>2026-04-12T10:47:52.234Z</time></trkpt><trkpt lat="43.94014" lon="12.7704933"><ele>82.0</ele><time>2026-04-12T10:47:54.234Z</time></trkpt><trkpt lat="43.9401683" lon="12.7705867"><ele>82.0</ele><time>2026-04-12T10:47:55.234Z</time></trkpt><trkpt lat="43.94019" lon="12.7706767"><ele>82.0</ele><time>2026-04-12T10:47:56.234Z</time></trkpt><trkpt lat="43.9402167" lon="12.7707667"><ele>82.0</ele><time>2026-04-12T10:47:57.234Z</time></trkpt><trkpt lat="43.9402483" lon="12.770845"><ele>82.0</ele><time>2026-04-12T10:47:58.234Z</time></trkpt><trkpt lat="43.9403333" lon="12.7709617"><ele>82.0</ele><time>2026-04-12T10:48:00.234Z</time></trkpt><trkpt lat="43.940395" lon="12.771"><ele>82.0</ele><time>2026-04-12T10:48:01.234Z</time></trkpt><trkpt lat="43.9404583" lon="12.7710117"><ele>82.0</ele><time>2026-04-12T10:48:02.234Z</time></trkpt><trkpt lat="43.9405683" lon="12.7710883"><ele>82.0</ele><time>2026-04-12T10:48:04.234Z</time></trkpt><trkpt lat="43.9406133" lon="12.7711667"><ele>82.0</ele><time>2026-04-12T10:48:05.234Z</time></trkpt><trkpt lat="43.9406483" lon="12.7712533"><ele>82.0</ele><time>2026-04-12T10:48:06.234Z</time></trkpt><trkpt lat="43.94068" lon="12.7713417"><ele>83.42857142857142</ele><time>2026-04-12T10:48:07.233Z</time></trkpt><trkpt lat="43.9407133" lon="12.77143"><ele>84.85714285714286</ele><time>2026-04-12T10:48:08.234Z</time></trkpt><trkpt lat="43.940735" lon="12.771535"><ele>86.28571428571428</ele><time>2026-04-12T10:48:09.233Z</time></trkpt><trkpt lat="43.94074" lon="12.771625"><ele>87.71428571428571</ele><time>2026-04-12T10:48:10.233Z</time></trkpt><trkpt lat="43.94071" lon="12.7717317"><ele>89.14285714285714</ele><time>2026-04-12T10:48:12.234Z</time></trkpt><trkpt lat="43.9406683" lon="12.771805"><ele>90.57142857142857</ele><time>2026-04-12T10:48:14.234Z</time></trkpt><trkpt lat="43.9406667" lon="12.7719033"><ele>92.0</ele><time>2026-04-12T10:48:16.233Z</time></trkpt><trkpt lat="43.9407433" lon="12.77197"><ele>92.66666666666667</ele><time>2026-04-12T10:48:18.234Z</time></trkpt><trkpt lat="43.9408083" lon="12.7719667"><ele>93.33333333333334</ele><time>2026-04-12T10:48:19.234Z</time></trkpt><trkpt lat="43.9408833" lon="12.771945"><ele>94.0</ele><time>2026-04-12T10:48:20.233Z</time></trkpt><trkpt lat="43.9409717" lon="12.771915"><ele>94.66666666666667</ele><time>2026-04-12T10:48:21.234Z</time></trkpt><trkpt lat="43.941065" lon="12.77188"><ele>95.33333333333333</ele><time>2026-04-12T10:48:22.234Z</time></trkpt><trkpt lat="43.9411467" lon="12.7718517"><ele>96.0</ele><time>2026-04-12T10:48:23.233Z</time></trkpt><trkpt lat="43.94124" lon="12.7718267"><ele>96.0</ele><time>2026-04-12T10:48:24.234Z</time></trkpt><trkpt lat="43.9413317" lon="12.7718033"><ele>96.0</ele><time>2026-04-12T10:48:25.234Z</time></trkpt><trkpt lat="43.9414317" lon="12.7718033"><ele>96.0</ele><time>2026-04-12T10:48:26.234Z</time></trkpt><trkpt lat="43.9415317" lon="12.771835"><ele>96.0</ele><time>2026-04-12T10:48:27.234Z</time></trkpt><trkpt lat="43.9416183" lon="12.771865"><ele>96.0</ele><time>2026-04-12T10:48:28.234Z</time></trkpt><trkpt lat="43.9417" lon="12.7718967"><ele>99.8</ele><time>2026-04-12T10:48:29.234Z</time></trkpt><trkpt lat="43.9417817" lon="12.77191"><ele>103.6</ele><time>2026-04-12T10:48:30.234Z</time></trkpt><trkpt lat="43.9418683" lon="12.7719267"><ele>107.4</ele><time>2026-04-12T10:48:31.234Z</time></trkpt><trkpt lat="43.9419633" lon="12.771945"><ele>111.2</ele><time>2026-04-12T10:48:32.234Z</time></trkpt><trkpt lat="43.94203" lon="12.7719817"><ele>115.0</ele><time>2026-04-12T10:48:33.234Z</time></trkpt><trkpt lat="43.9420883" lon="12.772115"><ele>115.00000000000001</ele><time>2026-04-12T10:48:35.234Z</time></trkpt><trkpt lat="43.942045" lon="12.7722683"><ele>115.0</ele><time>2026-04-12T10:48:37.233Z</time></trkpt><trkpt lat="43.9419833" lon="12.7723217"><ele>115.0</ele><time>2026-04-12T10:48:38.234Z</time></trkpt><trkpt lat="43.9419083" lon="12.7723467"><ele>115.0</ele><time>2026-04-12T10:48:39.233Z</time></trkpt><trkpt lat="43.9418367" lon="12.77238"><ele>115.00000000000001</ele><time>2026-04-12T10:48:40.234Z</time></trkpt><trkpt lat="43.9417583" lon="12.772415"><ele>115.0</ele><time>2026-04-12T10:48:41.234Z</time></trkpt><trkpt lat="43.941685" lon="12.7724517"><ele>114.16666666666667</ele><time>2026-04-12T10:48:42.234Z</time></trkpt><trkpt lat="43.9416217" lon="12.7724833"><ele>113.33333333333334</ele><time>2026-04-12T10:48:43.234Z</time></trkpt><trkpt lat="43.9415233" lon="12.7725533"><ele>112.5</ele><time>2026-04-12T10:48:45.233Z</time></trkpt><trkpt lat="43.941465" lon="12.772595"><ele>111.66666666666666</ele><time>2026-04-12T10:48:47.234Z</time></trkpt><trkpt lat="43.9414033" lon="12.7726367"><ele>110.83333333333333</ele><time>2026-04-12T10:48:55.233Z</time></trkpt><trkpt lat="43.9413317" lon="12.7727133"><ele>110.0</ele><time>2026-04-12T10:48:57.233Z</time></trkpt><trkpt lat="43.9412433" lon="12.7728033"><ele>111.66666666666666</ele><time>2026-04-12T10:48:59.234Z</time></trkpt><trkpt lat="43.941195" lon="12.7729467"><ele>113.33333333333333</ele><time>2026-04-12T10:49:01.234Z</time></trkpt><trkpt lat="43.94118" lon="12.7730633"><ele>115.0</ele><time>2026-04-12T10:49:03.234Z</time></trkpt><trkpt lat="43.9411567" lon="12.773185"><ele>116.66666666666666</ele><time>2026-04-12T10:49:06.234Z</time></trkpt><trkpt lat="43.9411183" lon="12.773265"><ele>118.33333333333333</ele><time>2026-04-12T10:49:08.234Z</time></trkpt><trkpt lat="43.9410917" lon="12.7733617"><ele>120.0</ele><time>2026-04-12T10:49:10.234Z</time></trkpt><trkpt lat="43.9410767" lon="12.7734617"><ele>119.66666666666667</ele><time>2026-04-12T10:49:12.234Z</time></trkpt><trkpt lat="43.94105" lon="12.77355"><ele>119.33333333333334</ele><time>2026-04-12T10:49:14.233Z</time></trkpt><trkpt lat="43.9409933" lon="12.77364"><ele>119.0</ele><time>2026-04-12T10:49:16.234Z</time></trkpt><trkpt lat="43.9409867" lon="12.773755"><ele>118.66666666666667</ele><time>2026-04-12T10:49:18.234Z</time></trkpt><trkpt lat="43.94103" lon="12.7738617"><ele>118.33333333333334</ele><time>2026-04-12T10:49:20.233Z</time></trkpt><trkpt lat="43.9410917" lon="12.77397"><ele>118.0</ele><time>2026-04-12T10:49:22.234Z</time></trkpt><trkpt lat="43.9411667" lon="12.77406"><ele>118.0</ele><time>2026-04-12T10:49:24.234Z</time></trkpt><trkpt lat="43.94124" lon="12.77413"><ele>118.0</ele><time>2026-04-12T10:49:26.234Z</time></trkpt><trkpt lat="43.941285" lon="12.7741933"><ele>118.0</ele><time>2026-04-12T10:49:28.234Z</time></trkpt><trkpt lat="43.94135" lon="12.7742767"><ele>118.0</ele><time>2026-04-12T10:49:31.234Z</time></trkpt><trkpt lat="43.9413817" lon="12.774395"><ele>113.0</ele><time>2026-04-12T10:49:34.234Z</time></trkpt><trkpt lat="43.9414367" lon="12.7744517"><ele>113.0</ele><time>2026-04-12T10:49:37.234Z</time></trkpt></trkseg></trk></gpx>